<?xml version="1.0" encoding="UTF-8" standalone="no" ?>
<gpx xmlns="http://www.topografix.com/GPX/1/1" xmlns:xsi="http://www.w3.org/2001/XMLSchema-instance" xsi:schemaLocation="http://www.topografix.com/GPX/1/1 http://www.topografix.com/GPX/1/1/gpx.xsd" version="1.1" creator="VisuGPX - https://www.visugpx.com">
  <metadata>
    <name>Etapes</name>
    <desc><![CDATA[name=Le Raid Pyrénéen RANDONNEUR
time=2022-08-27T15:37:20Z]]></desc>
  </metadata>
  <trk>
    <name><![CDATA[Le Raid Pyrénéen RANDONNEUR]]></name>
    <desc><![CDATA[name=Le Raid Pyrénéen RANDONNEUR
time=2022-08-27T15:37:20Z]]></desc>
    <extensions>
      <line xmlns="http://www.topografix.com/GPX/gpx_style/0/2">
        <color>0000FF</color>
        <width>4</width>
      </line>
    </extensions>
    <trkseg>
      <trkpt lat="43.38625" lon="-1.65987">
        <ele>6</ele>
        <time>1970-01-01T00:00:00.000Z</time>
      </trkpt>
      <trkpt lat="43.38747" lon="-1.65631">
        <ele>6.9</ele>
        <time>1970-01-01T00:00:00.000Z</time>
      </trkpt>
      <trkpt lat="43.3876" lon="-1.65582">
        <ele>7.4</ele>
        <time>1970-01-01T00:00:00.000Z</time>
      </trkpt>
      <trkpt lat="43.38881" lon="-1.65383">
        <ele>19</ele>
        <time>1970-01-01T00:00:00.000Z</time>
      </trkpt>
      <trkpt lat="43.38885" lon="-1.65365">
        <ele>19.4</ele>
        <time>1970-01-01T00:00:00.000Z</time>
      </trkpt>
      <trkpt lat="43.3878" lon="-1.65338">
        <ele>14.6</ele>
        <time>1970-01-01T00:00:00.000Z</time>
      </trkpt>
      <trkpt lat="43.38653" lon="-1.65309">
        <ele>8.3</ele>
        <time>1970-01-01T00:00:00.000Z</time>
      </trkpt>
      <trkpt lat="43.38513" lon="-1.65302">
        <ele>3.8</ele>
        <time>1970-01-01T00:00:00.000Z</time>
      </trkpt>
      <trkpt lat="43.38453" lon="-1.65301">
        <ele>4.5</ele>
        <time>1970-01-01T00:00:00.000Z</time>
      </trkpt>
      <trkpt lat="43.38388" lon="-1.65268">
        <ele>4.3</ele>
        <time>1970-01-01T00:00:00.000Z</time>
      </trkpt>
      <trkpt lat="43.38363" lon="-1.6524">
        <ele>4</ele>
        <time>1970-01-01T00:00:00.000Z</time>
      </trkpt>
      <trkpt lat="43.38275" lon="-1.65014">
        <ele>3.1</ele>
        <time>1970-01-01T00:00:00.000Z</time>
      </trkpt>
      <trkpt lat="43.38253" lon="-1.6494">
        <ele>3.9</ele>
        <time>1970-01-01T00:00:00.000Z</time>
      </trkpt>
      <trkpt lat="43.38256" lon="-1.64845">
        <ele>4.1</ele>
        <time>1970-01-01T00:00:00.000Z</time>
      </trkpt>
      <trkpt lat="43.3828" lon="-1.64613">
        <ele>3.1</ele>
        <time>1970-01-01T00:00:00.000Z</time>
      </trkpt>
      <trkpt lat="43.38272" lon="-1.64429">
        <ele>5.1</ele>
        <time>1970-01-01T00:00:00.000Z</time>
      </trkpt>
      <trkpt lat="43.3826" lon="-1.6437">
        <ele>4</ele>
        <time>1970-01-01T00:00:00.000Z</time>
      </trkpt>
      <trkpt lat="43.38245" lon="-1.64327">
        <ele>3.8</ele>
        <time>1970-01-01T00:00:00.000Z</time>
      </trkpt>
      <trkpt lat="43.38226" lon="-1.643">
        <ele>3</ele>
        <time>1970-01-01T00:00:00.000Z</time>
      </trkpt>
      <trkpt lat="43.38146" lon="-1.64221">
        <ele>4.5</ele>
        <time>1970-01-01T00:00:00.000Z</time>
      </trkpt>
      <trkpt lat="43.38121" lon="-1.64189">
        <ele>4.8</ele>
        <time>1970-01-01T00:00:00.000Z</time>
      </trkpt>
      <trkpt lat="43.38074" lon="-1.64093">
        <ele>4.4</ele>
        <time>1970-01-01T00:00:00.000Z</time>
      </trkpt>
      <trkpt lat="43.38056" lon="-1.64057">
        <ele>4</ele>
        <time>1970-01-01T00:00:00.000Z</time>
      </trkpt>
      <trkpt lat="43.37934" lon="-1.63944">
        <ele>5.6</ele>
        <time>1970-01-01T00:00:00.000Z</time>
      </trkpt>
      <trkpt lat="43.37813" lon="-1.63821">
        <ele>3.8</ele>
        <time>1970-01-01T00:00:00.000Z</time>
      </trkpt>
      <trkpt lat="43.3776" lon="-1.63778">
        <ele>4</ele>
        <time>1970-01-01T00:00:00.000Z</time>
      </trkpt>
      <trkpt lat="43.37149" lon="-1.63799">
        <ele>5</ele>
        <time>1970-01-01T00:00:00.000Z</time>
      </trkpt>
      <trkpt lat="43.37093" lon="-1.63804">
        <ele>5</ele>
        <time>1970-01-01T00:00:00.000Z</time>
      </trkpt>
      <trkpt lat="43.3674" lon="-1.63589">
        <ele>4.3</ele>
        <time>1970-01-01T00:00:00.000Z</time>
      </trkpt>
      <trkpt lat="43.36656" lon="-1.63576">
        <ele>3.4</ele>
        <time>1970-01-01T00:00:00.000Z</time>
      </trkpt>
      <trkpt lat="43.36338" lon="-1.63666">
        <ele>4</ele>
        <time>1970-01-01T00:00:00.000Z</time>
      </trkpt>
      <trkpt lat="43.36276" lon="-1.63671">
        <ele>4.2</ele>
        <time>1970-01-01T00:00:00.000Z</time>
      </trkpt>
      <trkpt lat="43.36091" lon="-1.63598">
        <ele>5.4</ele>
        <time>1970-01-01T00:00:00.000Z</time>
      </trkpt>
      <trkpt lat="43.36048" lon="-1.63568">
        <ele>4.8</ele>
        <time>1970-01-01T00:00:00.000Z</time>
      </trkpt>
      <trkpt lat="43.35929" lon="-1.63349">
        <ele>6.8</ele>
        <time>1970-01-01T00:00:00.000Z</time>
      </trkpt>
      <trkpt lat="43.35836" lon="-1.63254">
        <ele>6.1</ele>
        <time>1970-01-01T00:00:00.000Z</time>
      </trkpt>
      <trkpt lat="43.35776" lon="-1.63207">
        <ele>4</ele>
        <time>1970-01-01T00:00:00.000Z</time>
      </trkpt>
      <trkpt lat="43.35698" lon="-1.63168">
        <ele>3.9</ele>
        <time>1970-01-01T00:00:00.000Z</time>
      </trkpt>
      <trkpt lat="43.35545" lon="-1.6313">
        <ele>4.4</ele>
        <time>1970-01-01T00:00:00.000Z</time>
      </trkpt>
      <trkpt lat="43.35424" lon="-1.63087">
        <ele>5</ele>
        <time>1970-01-01T00:00:00.000Z</time>
      </trkpt>
      <trkpt lat="43.35336" lon="-1.63031">
        <ele>5.1</ele>
        <time>1970-01-01T00:00:00.000Z</time>
      </trkpt>
      <trkpt lat="43.35274" lon="-1.6295">
        <ele>5.4</ele>
        <time>1970-01-01T00:00:00.000Z</time>
      </trkpt>
      <trkpt lat="43.35233" lon="-1.62834">
        <ele>5.6</ele>
        <time>1970-01-01T00:00:00.000Z</time>
      </trkpt>
      <trkpt lat="43.35118" lon="-1.62525">
        <ele>8.3</ele>
        <time>1970-01-01T00:00:00.000Z</time>
      </trkpt>
      <trkpt lat="43.35055" lon="-1.62538">
        <ele>3</ele>
        <time>1970-01-01T00:00:00.000Z</time>
      </trkpt>
      <trkpt lat="43.34912" lon="-1.62512">
        <ele>5.6</ele>
        <time>1970-01-01T00:00:00.000Z</time>
      </trkpt>
      <trkpt lat="43.34846" lon="-1.62392">
        <ele>7</ele>
        <time>1970-01-01T00:00:00.000Z</time>
      </trkpt>
      <trkpt lat="43.3479" lon="-1.62319">
        <ele>8</ele>
        <time>1970-01-01T00:00:00.000Z</time>
      </trkpt>
      <trkpt lat="43.34659" lon="-1.62211">
        <ele>12</ele>
        <time>1970-01-01T00:00:00.000Z</time>
      </trkpt>
      <trkpt lat="43.34517" lon="-1.62102">
        <ele>20.4</ele>
        <time>1970-01-01T00:00:00.000Z</time>
      </trkpt>
      <trkpt lat="43.34492" lon="-1.62091">
        <ele>21.6</ele>
        <time>1970-01-01T00:00:00.000Z</time>
      </trkpt>
      <trkpt lat="43.34473" lon="-1.62091">
        <ele>22.9</ele>
        <time>1970-01-01T00:00:00.000Z</time>
      </trkpt>
    </trkseg>
  </trk>
  <trk>
    <name><![CDATA[Etapes_2]]></name>
    <trkseg>
      <trkpt lat="43.34473" lon="-1.62091">
        <ele>22.9</ele>
        <time>1970-01-01T00:00:00.000Z</time>
      </trkpt>
      <trkpt lat="43.34401" lon="-1.61967">
        <ele>25</ele>
        <time>2022-08-27T15:37:33.000Z</time>
      </trkpt>
      <trkpt lat="43.34387" lon="-1.61928">
        <ele>25</ele>
        <time>2022-08-27T15:37:39.000Z</time>
      </trkpt>
      <trkpt lat="43.34374" lon="-1.61657">
        <ele>27</ele>
        <time>2022-08-27T15:38:14.000Z</time>
      </trkpt>
      <trkpt lat="43.34359" lon="-1.61637">
        <ele>30</ele>
        <time>2022-08-27T15:38:18.000Z</time>
      </trkpt>
      <trkpt lat="43.34339" lon="-1.61628">
        <ele>32</ele>
        <time>2022-08-27T15:38:22.000Z</time>
      </trkpt>
      <trkpt lat="43.34285" lon="-1.61631">
        <ele>37</ele>
        <time>2022-08-27T15:38:32.000Z</time>
      </trkpt>
      <trkpt lat="43.34251" lon="-1.61629">
        <ele>40</ele>
        <time>2022-08-27T15:38:38.000Z</time>
      </trkpt>
      <trkpt lat="43.34197" lon="-1.61612">
        <ele>43</ele>
        <time>2022-08-27T15:38:47.000Z</time>
      </trkpt>
      <trkpt lat="43.34157" lon="-1.61607">
        <ele>45</ele>
        <time>2022-08-27T15:38:55.000Z</time>
      </trkpt>
      <trkpt lat="43.34097" lon="-1.6162">
        <ele>46</ele>
        <time>2022-08-27T15:39:05.000Z</time>
      </trkpt>
      <trkpt lat="43.3408" lon="-1.61618">
        <ele>47</ele>
        <time>2022-08-27T15:39:08.000Z</time>
      </trkpt>
      <trkpt lat="43.34019" lon="-1.61565">
        <ele>57</ele>
        <time>2022-08-27T15:39:21.000Z</time>
      </trkpt>
      <trkpt lat="43.33986" lon="-1.61558">
        <ele>59</ele>
        <time>2022-08-27T15:39:27.000Z</time>
      </trkpt>
      <trkpt lat="43.33808" lon="-1.6157">
        <ele>62</ele>
        <time>2022-08-27T15:39:59.000Z</time>
      </trkpt>
      <trkpt lat="43.33787" lon="-1.6157">
        <ele>64</ele>
        <time>2022-08-27T15:40:03.000Z</time>
      </trkpt>
      <trkpt lat="43.33701" lon="-1.61543">
        <ele>73</ele>
        <time>2022-08-27T15:40:19.000Z</time>
      </trkpt>
      <trkpt lat="43.33628" lon="-1.61482">
        <ele>80</ele>
        <time>2022-08-27T15:40:34.000Z</time>
      </trkpt>
      <trkpt lat="43.33609" lon="-1.61469">
        <ele>80</ele>
        <time>2022-08-27T15:40:38.000Z</time>
      </trkpt>
      <trkpt lat="43.33597" lon="-1.61454">
        <ele>82</ele>
        <time>2022-08-27T15:40:41.000Z</time>
      </trkpt>
      <trkpt lat="43.33575" lon="-1.6141">
        <ele>86</ele>
        <time>2022-08-27T15:40:48.000Z</time>
      </trkpt>
      <trkpt lat="43.33555" lon="-1.61393">
        <ele>85</ele>
        <time>2022-08-27T15:40:52.000Z</time>
      </trkpt>
      <trkpt lat="43.33546" lon="-1.6138">
        <ele>85</ele>
        <time>2022-08-27T15:40:54.000Z</time>
      </trkpt>
      <trkpt lat="43.3354" lon="-1.61314">
        <ele>96</ele>
        <time>2022-08-27T15:41:03.000Z</time>
      </trkpt>
      <trkpt lat="43.33533" lon="-1.61299">
        <ele>98</ele>
        <time>2022-08-27T15:41:05.000Z</time>
      </trkpt>
      <trkpt lat="43.33508" lon="-1.61282">
        <ele>96</ele>
        <time>2022-08-27T15:41:10.000Z</time>
      </trkpt>
      <trkpt lat="43.335" lon="-1.61273">
        <ele>96</ele>
        <time>2022-08-27T15:41:12.000Z</time>
      </trkpt>
      <trkpt lat="43.33481" lon="-1.61229">
        <ele>102</ele>
        <time>2022-08-27T15:41:19.000Z</time>
      </trkpt>
      <trkpt lat="43.33475" lon="-1.61222">
        <ele>103</ele>
        <time>2022-08-27T15:41:20.000Z</time>
      </trkpt>
      <trkpt lat="43.33449" lon="-1.61215">
        <ele>96</ele>
        <time>2022-08-27T15:41:25.000Z</time>
      </trkpt>
      <trkpt lat="43.33444" lon="-1.61212">
        <ele>95</ele>
        <time>2022-08-27T15:41:26.000Z</time>
      </trkpt>
      <trkpt lat="43.33433" lon="-1.61196">
        <ele>95</ele>
        <time>2022-08-27T15:41:29.000Z</time>
      </trkpt>
      <trkpt lat="43.33429" lon="-1.61184">
        <ele>96</ele>
        <time>2022-08-27T15:41:30.000Z</time>
      </trkpt>
      <trkpt lat="43.33424" lon="-1.61155">
        <ele>99</ele>
        <time>2022-08-27T15:41:34.000Z</time>
      </trkpt>
      <trkpt lat="43.33423" lon="-1.6112">
        <ele>102</ele>
        <time>2022-08-27T15:41:39.000Z</time>
      </trkpt>
      <trkpt lat="43.33432" lon="-1.61065">
        <ele>109</ele>
        <time>2022-08-27T15:41:46.000Z</time>
      </trkpt>
      <trkpt lat="43.33433" lon="-1.61028">
        <ele>110</ele>
        <time>2022-08-27T15:41:51.000Z</time>
      </trkpt>
      <trkpt lat="43.33457" lon="-1.61">
        <ele>119</ele>
        <time>2022-08-27T15:41:57.000Z</time>
      </trkpt>
      <trkpt lat="43.33462" lon="-1.60987">
        <ele>122</ele>
        <time>2022-08-27T15:41:59.000Z</time>
      </trkpt>
      <trkpt lat="43.33442" lon="-1.60949">
        <ele>117</ele>
        <time>2022-08-27T15:42:05.000Z</time>
      </trkpt>
      <trkpt lat="43.33436" lon="-1.60932">
        <ele>116</ele>
        <time>2022-08-27T15:42:07.000Z</time>
      </trkpt>
      <trkpt lat="43.33443" lon="-1.60868">
        <ele>129</ele>
        <time>2022-08-27T15:42:16.000Z</time>
      </trkpt>
      <trkpt lat="43.33442" lon="-1.60852">
        <ele>131</ele>
        <time>2022-08-27T15:42:18.000Z</time>
      </trkpt>
      <trkpt lat="43.33434" lon="-1.60842">
        <ele>131</ele>
        <time>2022-08-27T15:42:20.000Z</time>
      </trkpt>
      <trkpt lat="43.33428" lon="-1.60841">
        <ele>129</ele>
        <time>2022-08-27T15:42:21.000Z</time>
      </trkpt>
      <trkpt lat="43.33391" lon="-1.60848">
        <ele>120</ele>
        <time>2022-08-27T15:42:28.000Z</time>
      </trkpt>
      <trkpt lat="43.33377" lon="-1.60835">
        <ele>120</ele>
        <time>2022-08-27T15:42:31.000Z</time>
      </trkpt>
      <trkpt lat="43.33368" lon="-1.60822">
        <ele>122</ele>
        <time>2022-08-27T15:42:33.000Z</time>
      </trkpt>
      <trkpt lat="43.33357" lon="-1.60797">
        <ele>124</ele>
        <time>2022-08-27T15:42:37.000Z</time>
      </trkpt>
      <trkpt lat="43.33353" lon="-1.60761">
        <ele>130</ele>
        <time>2022-08-27T15:42:41.000Z</time>
      </trkpt>
      <trkpt lat="43.33348" lon="-1.60746">
        <ele>132</ele>
        <time>2022-08-27T15:42:43.000Z</time>
      </trkpt>
      <trkpt lat="43.33305" lon="-1.60709">
        <ele>130</ele>
        <time>2022-08-27T15:42:53.000Z</time>
      </trkpt>
      <trkpt lat="43.33261" lon="-1.60632">
        <ele>134</ele>
        <time>2022-08-27T15:43:05.000Z</time>
      </trkpt>
      <trkpt lat="43.33247" lon="-1.60587">
        <ele>138</ele>
        <time>2022-08-27T15:43:12.000Z</time>
      </trkpt>
      <trkpt lat="43.33247" lon="-1.6052">
        <ele>148</ele>
        <time>2022-08-27T15:43:20.000Z</time>
      </trkpt>
      <trkpt lat="43.33245" lon="-1.6051">
        <ele>148</ele>
        <time>2022-08-27T15:43:22.000Z</time>
      </trkpt>
      <trkpt lat="43.3321" lon="-1.60492">
        <ele>142</ele>
        <time>2022-08-27T15:43:28.000Z</time>
      </trkpt>
      <trkpt lat="43.33194" lon="-1.60476">
        <ele>140</ele>
        <time>2022-08-27T15:43:32.000Z</time>
      </trkpt>
      <trkpt lat="43.3318" lon="-1.60433">
        <ele>143</ele>
        <time>2022-08-27T15:43:38.000Z</time>
      </trkpt>
      <trkpt lat="43.33175" lon="-1.60398">
        <ele>146</ele>
        <time>2022-08-27T15:43:43.000Z</time>
      </trkpt>
      <trkpt lat="43.33136" lon="-1.60295">
        <ele>151</ele>
        <time>2022-08-27T15:43:58.000Z</time>
      </trkpt>
      <trkpt lat="43.33128" lon="-1.60284">
        <ele>151</ele>
        <time>2022-08-27T15:44:00.000Z</time>
      </trkpt>
      <trkpt lat="43.3311" lon="-1.60268">
        <ele>152</ele>
        <time>2022-08-27T15:44:04.000Z</time>
      </trkpt>
      <trkpt lat="43.33092" lon="-1.60256">
        <ele>153</ele>
        <time>2022-08-27T15:44:07.000Z</time>
      </trkpt>
      <trkpt lat="43.33024" lon="-1.60226">
        <ele>156</ele>
        <time>2022-08-27T15:44:20.000Z</time>
      </trkpt>
      <trkpt lat="43.32972" lon="-1.6021">
        <ele>160</ele>
        <time>2022-08-27T15:44:29.000Z</time>
      </trkpt>
      <trkpt lat="43.32789" lon="-1.60188">
        <ele>165</ele>
        <time>2022-08-27T15:45:02.000Z</time>
      </trkpt>
      <trkpt lat="43.32765" lon="-1.60182">
        <ele>165</ele>
        <time>2022-08-27T15:45:06.000Z</time>
      </trkpt>
      <trkpt lat="43.32677" lon="-1.60124">
        <ele>171</ele>
        <time>2022-08-27T15:45:24.000Z</time>
      </trkpt>
      <trkpt lat="43.32592" lon="-1.60099">
        <ele>169</ele>
        <time>2022-08-27T15:45:39.000Z</time>
      </trkpt>
      <trkpt lat="43.32536" lon="-1.60061">
        <ele>174</ele>
        <time>2022-08-27T15:45:50.000Z</time>
      </trkpt>
      <trkpt lat="43.32518" lon="-1.60052">
        <ele>174</ele>
        <time>2022-08-27T15:45:54.000Z</time>
      </trkpt>
      <trkpt lat="43.32506" lon="-1.60051">
        <ele>174</ele>
        <time>2022-08-27T15:45:56.000Z</time>
      </trkpt>
      <trkpt lat="43.32498" lon="-1.60053">
        <ele>173</ele>
        <time>2022-08-27T15:45:57.000Z</time>
      </trkpt>
      <trkpt lat="43.32448" lon="-1.60096">
        <ele>177</ele>
        <time>2022-08-27T15:46:08.000Z</time>
      </trkpt>
      <trkpt lat="43.32435" lon="-1.60098">
        <ele>178</ele>
        <time>2022-08-27T15:46:10.000Z</time>
      </trkpt>
      <trkpt lat="43.32386" lon="-1.60036">
        <ele>179</ele>
        <time>2022-08-27T15:46:22.000Z</time>
      </trkpt>
      <trkpt lat="43.32377" lon="-1.60028">
        <ele>180</ele>
        <time>2022-08-27T15:46:24.000Z</time>
      </trkpt>
      <trkpt lat="43.32324" lon="-1.60003">
        <ele>183</ele>
        <time>2022-08-27T15:46:34.000Z</time>
      </trkpt>
      <trkpt lat="43.323" lon="-1.5999">
        <ele>183</ele>
        <time>2022-08-27T15:46:39.000Z</time>
      </trkpt>
      <trkpt lat="43.32267" lon="-1.59956">
        <ele>180</ele>
        <time>2022-08-27T15:46:46.000Z</time>
      </trkpt>
      <trkpt lat="43.32253" lon="-1.59945">
        <ele>179</ele>
        <time>2022-08-27T15:46:49.000Z</time>
      </trkpt>
      <trkpt lat="43.32244" lon="-1.59944">
        <ele>180</ele>
        <time>2022-08-27T15:46:50.000Z</time>
      </trkpt>
      <trkpt lat="43.32235" lon="-1.59949">
        <ele>182</ele>
        <time>2022-08-27T15:46:52.000Z</time>
      </trkpt>
      <trkpt lat="43.32199" lon="-1.59989">
        <ele>191</ele>
        <time>2022-08-27T15:47:01.000Z</time>
      </trkpt>
      <trkpt lat="43.3219" lon="-1.59987">
        <ele>191</ele>
        <time>2022-08-27T15:47:02.000Z</time>
      </trkpt>
      <trkpt lat="43.32186" lon="-1.59983">
        <ele>191</ele>
        <time>2022-08-27T15:47:03.000Z</time>
      </trkpt>
      <trkpt lat="43.32184" lon="-1.59974">
        <ele>190</ele>
        <time>2022-08-27T15:47:04.000Z</time>
      </trkpt>
      <trkpt lat="43.32191" lon="-1.59932">
        <ele>183</ele>
        <time>2022-08-27T15:47:10.000Z</time>
      </trkpt>
      <trkpt lat="43.32187" lon="-1.59873">
        <ele>177</ele>
        <time>2022-08-27T15:47:18.000Z</time>
      </trkpt>
      <trkpt lat="43.3217" lon="-1.59833">
        <ele>176</ele>
        <time>2022-08-27T15:47:24.000Z</time>
      </trkpt>
      <trkpt lat="43.3215" lon="-1.59815">
        <ele>174</ele>
        <time>2022-08-27T15:47:28.000Z</time>
      </trkpt>
      <trkpt lat="43.32058" lon="-1.59778">
        <ele>168</ele>
        <time>2022-08-27T15:47:45.000Z</time>
      </trkpt>
      <trkpt lat="43.32053" lon="-1.59779">
        <ele>167</ele>
        <time>2022-08-27T15:47:46.000Z</time>
      </trkpt>
      <trkpt lat="43.32044" lon="-1.59785">
        <ele>168</ele>
        <time>2022-08-27T15:47:48.000Z</time>
      </trkpt>
      <trkpt lat="43.32021" lon="-1.59821">
        <ele>173</ele>
        <time>2022-08-27T15:47:54.000Z</time>
      </trkpt>
      <trkpt lat="43.31981" lon="-1.59851">
        <ele>177</ele>
        <time>2022-08-27T15:48:02.000Z</time>
      </trkpt>
      <trkpt lat="43.3197" lon="-1.59854">
        <ele>178</ele>
        <time>2022-08-27T15:48:04.000Z</time>
      </trkpt>
      <trkpt lat="43.31961" lon="-1.5985">
        <ele>177</ele>
        <time>2022-08-27T15:48:06.000Z</time>
      </trkpt>
      <trkpt lat="43.31925" lon="-1.59821">
        <ele>170</ele>
        <time>2022-08-27T15:48:13.000Z</time>
      </trkpt>
      <trkpt lat="43.31897" lon="-1.5982">
        <ele>171</ele>
        <time>2022-08-27T15:48:18.000Z</time>
      </trkpt>
      <trkpt lat="43.31886" lon="-1.59816">
        <ele>171</ele>
        <time>2022-08-27T15:48:20.000Z</time>
      </trkpt>
      <trkpt lat="43.31871" lon="-1.59785">
        <ele>167</ele>
        <time>2022-08-27T15:48:25.000Z</time>
      </trkpt>
      <trkpt lat="43.31864" lon="-1.59779">
        <ele>166</ele>
        <time>2022-08-27T15:48:26.000Z</time>
      </trkpt>
      <trkpt lat="43.31825" lon="-1.59759">
        <ele>166</ele>
        <time>2022-08-27T15:48:34.000Z</time>
      </trkpt>
      <trkpt lat="43.31792" lon="-1.59721">
        <ele>165</ele>
        <time>2022-08-27T15:48:41.000Z</time>
      </trkpt>
      <trkpt lat="43.31765" lon="-1.59718">
        <ele>168</ele>
        <time>2022-08-27T15:48:46.000Z</time>
      </trkpt>
      <trkpt lat="43.3176" lon="-1.59716">
        <ele>169</ele>
        <time>2022-08-27T15:48:47.000Z</time>
      </trkpt>
      <trkpt lat="43.3173" lon="-1.59675">
        <ele>168</ele>
        <time>2022-08-27T15:48:55.000Z</time>
      </trkpt>
      <trkpt lat="43.31726" lon="-1.59669">
        <ele>169</ele>
        <time>2022-08-27T15:48:56.000Z</time>
      </trkpt>
      <trkpt lat="43.31738" lon="-1.59627">
        <ele>160</ele>
        <time>2022-08-27T15:49:02.000Z</time>
      </trkpt>
      <trkpt lat="43.31742" lon="-1.59606">
        <ele>157</ele>
        <time>2022-08-27T15:49:05.000Z</time>
      </trkpt>
      <trkpt lat="43.3174" lon="-1.59581">
        <ele>155</ele>
        <time>2022-08-27T15:49:08.000Z</time>
      </trkpt>
      <trkpt lat="43.31734" lon="-1.59567">
        <ele>154</ele>
        <time>2022-08-27T15:49:10.000Z</time>
      </trkpt>
      <trkpt lat="43.31712" lon="-1.59532">
        <ele>154</ele>
        <time>2022-08-27T15:49:16.000Z</time>
      </trkpt>
      <trkpt lat="43.31704" lon="-1.59523">
        <ele>154</ele>
        <time>2022-08-27T15:49:18.000Z</time>
      </trkpt>
      <trkpt lat="43.31659" lon="-1.59483">
        <ele>154</ele>
        <time>2022-08-27T15:49:28.000Z</time>
      </trkpt>
      <trkpt lat="43.31624" lon="-1.59467">
        <ele>156</ele>
        <time>2022-08-27T15:49:34.000Z</time>
      </trkpt>
      <trkpt lat="43.31606" lon="-1.5943">
        <ele>151</ele>
        <time>2022-08-27T15:49:40.000Z</time>
      </trkpt>
      <trkpt lat="43.31584" lon="-1.59412">
        <ele>150</ele>
        <time>2022-08-27T15:49:45.000Z</time>
      </trkpt>
      <trkpt lat="43.31558" lon="-1.59406">
        <ele>155</ele>
        <time>2022-08-27T15:49:49.000Z</time>
      </trkpt>
      <trkpt lat="43.31535" lon="-1.59358">
        <ele>154</ele>
        <time>2022-08-27T15:49:57.000Z</time>
      </trkpt>
      <trkpt lat="43.31521" lon="-1.59349">
        <ele>156</ele>
        <time>2022-08-27T15:50:00.000Z</time>
      </trkpt>
      <trkpt lat="43.31518" lon="-1.59327">
        <ele>155</ele>
        <time>2022-08-27T15:50:03.000Z</time>
      </trkpt>
      <trkpt lat="43.3154" lon="-1.593">
        <ele>149</ele>
        <time>2022-08-27T15:50:08.000Z</time>
      </trkpt>
      <trkpt lat="43.31547" lon="-1.59288">
        <ele>147</ele>
        <time>2022-08-27T15:50:10.000Z</time>
      </trkpt>
      <trkpt lat="43.31594" lon="-1.59163">
        <ele>135</ele>
        <time>2022-08-27T15:50:28.000Z</time>
      </trkpt>
      <trkpt lat="43.31603" lon="-1.59115">
        <ele>137</ele>
        <time>2022-08-27T15:50:34.000Z</time>
      </trkpt>
      <trkpt lat="43.3165" lon="-1.59097">
        <ele>131</ele>
        <time>2022-08-27T15:50:43.000Z</time>
      </trkpt>
      <trkpt lat="43.31661" lon="-1.5909">
        <ele>131</ele>
        <time>2022-08-27T15:50:45.000Z</time>
      </trkpt>
      <trkpt lat="43.31692" lon="-1.59048">
        <ele>132</ele>
        <time>2022-08-27T15:50:53.000Z</time>
      </trkpt>
      <trkpt lat="43.31706" lon="-1.59034">
        <ele>132</ele>
        <time>2022-08-27T15:50:56.000Z</time>
      </trkpt>
      <trkpt lat="43.31726" lon="-1.59029">
        <ele>130</ele>
        <time>2022-08-27T15:51:00.000Z</time>
      </trkpt>
      <trkpt lat="43.31772" lon="-1.59037">
        <ele>125</ele>
        <time>2022-08-27T15:51:08.000Z</time>
      </trkpt>
      <trkpt lat="43.3178" lon="-1.59034">
        <ele>125</ele>
        <time>2022-08-27T15:51:10.000Z</time>
      </trkpt>
      <trkpt lat="43.31815" lon="-1.5898">
        <ele>128</ele>
        <time>2022-08-27T15:51:19.000Z</time>
      </trkpt>
      <trkpt lat="43.31817" lon="-1.58971">
        <ele>128</ele>
        <time>2022-08-27T15:51:20.000Z</time>
      </trkpt>
      <trkpt lat="43.31815" lon="-1.58952">
        <ele>128</ele>
        <time>2022-08-27T15:51:23.000Z</time>
      </trkpt>
      <trkpt lat="43.31808" lon="-1.5894">
        <ele>128</ele>
        <time>2022-08-27T15:51:25.000Z</time>
      </trkpt>
      <trkpt lat="43.3176" lon="-1.58927">
        <ele>128</ele>
        <time>2022-08-27T15:51:34.000Z</time>
      </trkpt>
      <trkpt lat="43.31753" lon="-1.58923">
        <ele>127</ele>
        <time>2022-08-27T15:51:35.000Z</time>
      </trkpt>
      <trkpt lat="43.31716" lon="-1.58883">
        <ele>124</ele>
        <time>2022-08-27T15:51:43.000Z</time>
      </trkpt>
      <trkpt lat="43.31698" lon="-1.58871">
        <ele>122</ele>
        <time>2022-08-27T15:51:47.000Z</time>
      </trkpt>
      <trkpt lat="43.31684" lon="-1.58869">
        <ele>122</ele>
        <time>2022-08-27T15:51:49.000Z</time>
      </trkpt>
      <trkpt lat="43.3166" lon="-1.58872">
        <ele>123</ele>
        <time>2022-08-27T15:51:54.000Z</time>
      </trkpt>
      <trkpt lat="43.31619" lon="-1.58854">
        <ele>119</ele>
        <time>2022-08-27T15:52:01.000Z</time>
      </trkpt>
      <trkpt lat="43.31611" lon="-1.58853">
        <ele>118</ele>
        <time>2022-08-27T15:52:03.000Z</time>
      </trkpt>
      <trkpt lat="43.315" lon="-1.58857">
        <ele>113</ele>
        <time>2022-08-27T15:52:23.000Z</time>
      </trkpt>
      <trkpt lat="43.31493" lon="-1.58851">
        <ele>111</ele>
        <time>2022-08-27T15:52:24.000Z</time>
      </trkpt>
      <trkpt lat="43.31494" lon="-1.58839">
        <ele>108</ele>
        <time>2022-08-27T15:52:26.000Z</time>
      </trkpt>
      <trkpt lat="43.31502" lon="-1.58832">
        <ele>107</ele>
        <time>2022-08-27T15:52:27.000Z</time>
      </trkpt>
      <trkpt lat="43.31559" lon="-1.58832">
        <ele>112</ele>
        <time>2022-08-27T15:52:38.000Z</time>
      </trkpt>
      <trkpt lat="43.31569" lon="-1.5883">
        <ele>112</ele>
        <time>2022-08-27T15:52:39.000Z</time>
      </trkpt>
      <trkpt lat="43.31614" lon="-1.5881">
        <ele>108</ele>
        <time>2022-08-27T15:52:48.000Z</time>
      </trkpt>
      <trkpt lat="43.31677" lon="-1.588">
        <ele>108</ele>
        <time>2022-08-27T15:52:59.000Z</time>
      </trkpt>
      <trkpt lat="43.31711" lon="-1.58802">
        <ele>110</ele>
        <time>2022-08-27T15:53:05.000Z</time>
      </trkpt>
      <trkpt lat="43.31718" lon="-1.58794">
        <ele>109</ele>
        <time>2022-08-27T15:53:07.000Z</time>
      </trkpt>
      <trkpt lat="43.3172" lon="-1.58782">
        <ele>107</ele>
        <time>2022-08-27T15:53:08.000Z</time>
      </trkpt>
      <trkpt lat="43.31709" lon="-1.58763">
        <ele>103</ele>
        <time>2022-08-27T15:53:11.000Z</time>
      </trkpt>
      <trkpt lat="43.31644" lon="-1.58707">
        <ele>91</ele>
        <time>2022-08-27T15:53:25.000Z</time>
      </trkpt>
      <trkpt lat="43.31629" lon="-1.5868">
        <ele>87</ele>
        <time>2022-08-27T15:53:29.000Z</time>
      </trkpt>
      <trkpt lat="43.31584" lon="-1.58477">
        <ele>72</ele>
        <time>2022-08-27T15:53:57.000Z</time>
      </trkpt>
      <trkpt lat="43.31563" lon="-1.58415">
        <ele>69</ele>
        <time>2022-08-27T15:54:06.000Z</time>
      </trkpt>
      <trkpt lat="43.31486" lon="-1.58324">
        <ele>63</ele>
        <time>2022-08-27T15:54:24.000Z</time>
      </trkpt>
      <trkpt lat="43.31472" lon="-1.58304">
        <ele>62</ele>
        <time>2022-08-27T15:54:28.000Z</time>
      </trkpt>
      <trkpt lat="43.31449" lon="-1.583">
        <ele>61</ele>
        <time>2022-08-27T15:54:32.000Z</time>
      </trkpt>
      <trkpt lat="43.31447" lon="-1.58293">
        <ele>61</ele>
        <time>2022-08-27T15:54:33.000Z</time>
      </trkpt>
      <trkpt lat="43.31452" lon="-1.58272">
        <ele>60</ele>
        <time>2022-08-27T15:54:36.000Z</time>
      </trkpt>
      <trkpt lat="43.31461" lon="-1.58268">
        <ele>60</ele>
        <time>2022-08-27T15:54:38.000Z</time>
      </trkpt>
      <trkpt lat="43.31458" lon="-1.58216">
        <ele>59</ele>
        <time>2022-08-27T15:54:44.000Z</time>
      </trkpt>
      <trkpt lat="43.31461" lon="-1.58171">
        <ele>59</ele>
        <time>2022-08-27T15:54:50.000Z</time>
      </trkpt>
      <trkpt lat="43.31498" lon="-1.58071">
        <ele>57</ele>
        <time>2022-08-27T15:55:05.000Z</time>
      </trkpt>
      <trkpt lat="43.31504" lon="-1.58044">
        <ele>56</ele>
        <time>2022-08-27T15:55:08.000Z</time>
      </trkpt>
      <trkpt lat="43.31504" lon="-1.58004">
        <ele>55</ele>
        <time>2022-08-27T15:55:14.000Z</time>
      </trkpt>
      <trkpt lat="43.31457" lon="-1.57822">
        <ele>63</ele>
        <time>2022-08-27T15:55:39.000Z</time>
      </trkpt>
      <trkpt lat="43.31384" lon="-1.57567">
        <ele>55</ele>
        <time>2022-08-27T15:56:14.000Z</time>
      </trkpt>
      <trkpt lat="43.31367" lon="-1.57516">
        <ele>54</ele>
        <time>2022-08-27T15:56:21.000Z</time>
      </trkpt>
      <trkpt lat="43.31347" lon="-1.57486">
        <ele>53</ele>
        <time>2022-08-27T15:56:27.000Z</time>
      </trkpt>
      <trkpt lat="43.31239" lon="-1.57403">
        <ele>50</ele>
        <time>2022-08-27T15:56:49.000Z</time>
      </trkpt>
      <trkpt lat="43.31083" lon="-1.57257">
        <ele>44</ele>
        <time>2022-08-27T15:57:22.000Z</time>
      </trkpt>
      <trkpt lat="43.3105" lon="-1.5724">
        <ele>46</ele>
        <time>2022-08-27T15:57:29.000Z</time>
      </trkpt>
      <trkpt lat="43.31025" lon="-1.57233">
        <ele>47</ele>
        <time>2022-08-27T15:57:33.000Z</time>
      </trkpt>
      <trkpt lat="43.30967" lon="-1.57228">
        <ele>47</ele>
        <time>2022-08-27T15:57:43.000Z</time>
      </trkpt>
      <trkpt lat="43.30965" lon="-1.57235">
        <ele>47</ele>
        <time>2022-08-27T15:57:44.000Z</time>
      </trkpt>
      <trkpt lat="43.30959" lon="-1.57234">
        <ele>47</ele>
        <time>2022-08-27T15:57:45.000Z</time>
      </trkpt>
      <trkpt lat="43.30986" lon="-1.57145">
        <ele>48</ele>
        <time>2022-08-27T15:57:59.000Z</time>
      </trkpt>
      <trkpt lat="43.30991" lon="-1.57095">
        <ele>49</ele>
        <time>2022-08-27T15:58:05.000Z</time>
      </trkpt>
      <trkpt lat="43.30929" lon="-1.56957">
        <ele>51</ele>
        <time>2022-08-27T15:58:26.000Z</time>
      </trkpt>
      <trkpt lat="43.3092" lon="-1.56912">
        <ele>51</ele>
        <time>2022-08-27T15:58:32.000Z</time>
      </trkpt>
      <trkpt lat="43.3092" lon="-1.56875">
        <ele>50</ele>
        <time>2022-08-27T15:58:37.000Z</time>
      </trkpt>
      <trkpt lat="43.30943" lon="-1.56779">
        <ele>49</ele>
        <time>2022-08-27T15:58:50.000Z</time>
      </trkpt>
      <trkpt lat="43.30953" lon="-1.56759">
        <ele>49</ele>
        <time>2022-08-27T15:58:53.000Z</time>
      </trkpt>
      <trkpt lat="43.31034" lon="-1.56624">
        <ele>47</ele>
        <time>2022-08-27T15:59:16.000Z</time>
      </trkpt>
      <trkpt lat="43.31062" lon="-1.56595">
        <ele>47</ele>
        <time>2022-08-27T15:59:22.000Z</time>
      </trkpt>
      <trkpt lat="43.31209" lon="-1.56507">
        <ele>47</ele>
        <time>2022-08-27T15:59:51.000Z</time>
      </trkpt>
      <trkpt lat="43.31253" lon="-1.56475">
        <ele>47</ele>
        <time>2022-08-27T16:00:00.000Z</time>
      </trkpt>
      <trkpt lat="43.31281" lon="-1.56426">
        <ele>47</ele>
        <time>2022-08-27T16:00:08.000Z</time>
      </trkpt>
      <trkpt lat="43.3132" lon="-1.56367">
        <ele>45</ele>
        <time>2022-08-27T16:00:18.000Z</time>
      </trkpt>
      <trkpt lat="43.31391" lon="-1.56308">
        <ele>44</ele>
        <time>2022-08-27T16:00:33.000Z</time>
      </trkpt>
      <trkpt lat="43.31417" lon="-1.56276">
        <ele>44</ele>
        <time>2022-08-27T16:00:39.000Z</time>
      </trkpt>
      <trkpt lat="43.3143" lon="-1.56253">
        <ele>44</ele>
        <time>2022-08-27T16:00:43.000Z</time>
      </trkpt>
      <trkpt lat="43.31442" lon="-1.5622">
        <ele>45</ele>
        <time>2022-08-27T16:00:48.000Z</time>
      </trkpt>
      <trkpt lat="43.31466" lon="-1.56115">
        <ele>46</ele>
        <time>2022-08-27T16:01:02.000Z</time>
      </trkpt>
      <trkpt lat="43.3147" lon="-1.5611">
        <ele>46</ele>
        <time>2022-08-27T16:01:03.000Z</time>
      </trkpt>
      <trkpt lat="43.3148" lon="-1.56104">
        <ele>47</ele>
        <time>2022-08-27T16:01:05.000Z</time>
      </trkpt>
      <trkpt lat="43.31488" lon="-1.56105">
        <ele>48</ele>
        <time>2022-08-27T16:01:06.000Z</time>
      </trkpt>
      <trkpt lat="43.31562" lon="-1.56154">
        <ele>53</ele>
        <time>2022-08-27T16:01:21.000Z</time>
      </trkpt>
      <trkpt lat="43.3158" lon="-1.56154">
        <ele>53</ele>
        <time>2022-08-27T16:01:24.000Z</time>
      </trkpt>
      <trkpt lat="43.31592" lon="-1.56149">
        <ele>53</ele>
        <time>2022-08-27T16:01:26.000Z</time>
      </trkpt>
      <trkpt lat="43.31617" lon="-1.56129">
        <ele>55</ele>
        <time>2022-08-27T16:01:31.000Z</time>
      </trkpt>
      <trkpt lat="43.31736" lon="-1.56002">
        <ele>53</ele>
        <time>2022-08-27T16:01:58.000Z</time>
      </trkpt>
      <trkpt lat="43.3175" lon="-1.55984">
        <ele>52</ele>
        <time>2022-08-27T16:02:02.000Z</time>
      </trkpt>
      <trkpt lat="43.31769" lon="-1.55915">
        <ele>50</ele>
        <time>2022-08-27T16:02:11.000Z</time>
      </trkpt>
      <trkpt lat="43.31778" lon="-1.55899">
        <ele>50</ele>
        <time>2022-08-27T16:02:14.000Z</time>
      </trkpt>
      <trkpt lat="43.31925" lon="-1.55682">
        <ele>42</ele>
        <time>2022-08-27T16:02:52.000Z</time>
      </trkpt>
      <trkpt lat="43.31942" lon="-1.55653">
        <ele>41</ele>
        <time>2022-08-27T16:02:57.000Z</time>
      </trkpt>
      <trkpt lat="43.3196" lon="-1.55584">
        <ele>38</ele>
        <time>2022-08-27T16:03:07.000Z</time>
      </trkpt>
      <trkpt lat="43.31996" lon="-1.55418">
        <ele>35</ele>
        <time>2022-08-27T16:03:29.000Z</time>
      </trkpt>
      <trkpt lat="43.32004" lon="-1.554">
        <ele>35</ele>
        <time>2022-08-27T16:03:32.000Z</time>
      </trkpt>
      <trkpt lat="43.32013" lon="-1.55389">
        <ele>35</ele>
        <time>2022-08-27T16:03:34.000Z</time>
      </trkpt>
      <trkpt lat="43.32064" lon="-1.55344">
        <ele>34</ele>
        <time>2022-08-27T16:03:45.000Z</time>
      </trkpt>
      <trkpt lat="43.32076" lon="-1.55323">
        <ele>34</ele>
        <time>2022-08-27T16:03:48.000Z</time>
      </trkpt>
      <trkpt lat="43.32149" lon="-1.55057">
        <ele>31</ele>
        <time>2022-08-27T16:04:25.000Z</time>
      </trkpt>
      <trkpt lat="43.32155" lon="-1.55049">
        <ele>31</ele>
        <time>2022-08-27T16:04:26.000Z</time>
      </trkpt>
      <trkpt lat="43.32133" lon="-1.54934">
        <ele>30</ele>
        <time>2022-08-27T16:04:42.000Z</time>
      </trkpt>
      <trkpt lat="43.32123" lon="-1.54908">
        <ele>30</ele>
        <time>2022-08-27T16:04:46.000Z</time>
      </trkpt>
      <trkpt lat="43.31922" lon="-1.5465">
        <ele>39</ele>
        <time>2022-08-27T16:05:35.000Z</time>
      </trkpt>
      <trkpt lat="43.31883" lon="-1.54552">
        <ele>40</ele>
        <time>2022-08-27T16:05:49.000Z</time>
      </trkpt>
      <trkpt lat="43.31879" lon="-1.54529">
        <ele>40</ele>
        <time>2022-08-27T16:05:52.000Z</time>
      </trkpt>
      <trkpt lat="43.31879" lon="-1.54449">
        <ele>41</ele>
        <time>2022-08-27T16:06:03.000Z</time>
      </trkpt>
      <trkpt lat="43.31888" lon="-1.54403">
        <ele>42</ele>
        <time>2022-08-27T16:06:09.000Z</time>
      </trkpt>
      <trkpt lat="43.32012" lon="-1.5395">
        <ele>39</ele>
        <time>2022-08-27T16:07:12.000Z</time>
      </trkpt>
      <trkpt lat="43.32014" lon="-1.53917">
        <ele>39</ele>
        <time>2022-08-27T16:07:16.000Z</time>
      </trkpt>
      <trkpt lat="43.31996" lon="-1.53625">
        <ele>40</ele>
        <time>2022-08-27T16:07:54.000Z</time>
      </trkpt>
      <trkpt lat="43.31993" lon="-1.53606">
        <ele>39</ele>
        <time>2022-08-27T16:07:56.000Z</time>
      </trkpt>
      <trkpt lat="43.31983" lon="-1.53574">
        <ele>39</ele>
        <time>2022-08-27T16:08:01.000Z</time>
      </trkpt>
      <trkpt lat="43.3193" lon="-1.53492">
        <ele>41</ele>
        <time>2022-08-27T16:08:15.000Z</time>
      </trkpt>
      <trkpt lat="43.31705" lon="-1.53146">
        <ele>48</ele>
        <time>2022-08-27T16:09:15.000Z</time>
      </trkpt>
      <trkpt lat="43.31808" lon="-1.5251">
        <ele>53</ele>
        <time>2022-08-27T16:10:40.000Z</time>
      </trkpt>
      <trkpt lat="43.31806" lon="-1.52467">
        <ele>54</ele>
        <time>2022-08-27T16:10:45.000Z</time>
      </trkpt>
      <trkpt lat="43.31793" lon="-1.52431">
        <ele>56</ele>
        <time>2022-08-27T16:10:50.000Z</time>
      </trkpt>
      <trkpt lat="43.31712" lon="-1.52312">
        <ele>58</ele>
        <time>2022-08-27T16:11:11.000Z</time>
      </trkpt>
      <trkpt lat="43.31522" lon="-1.52046">
        <ele>66</ele>
        <time>2022-08-27T16:12:00.000Z</time>
      </trkpt>
      <trkpt lat="43.31497" lon="-1.52021">
        <ele>68</ele>
        <time>2022-08-27T16:12:05.000Z</time>
      </trkpt>
      <trkpt lat="43.3145" lon="-1.52003">
        <ele>68</ele>
        <time>2022-08-27T16:12:14.000Z</time>
      </trkpt>
      <trkpt lat="43.31429" lon="-1.51982">
        <ele>67</ele>
        <time>2022-08-27T16:12:19.000Z</time>
      </trkpt>
      <trkpt lat="43.31387" lon="-1.51789">
        <ele>67</ele>
        <time>2022-08-27T16:12:45.000Z</time>
      </trkpt>
      <trkpt lat="43.31379" lon="-1.51765">
        <ele>67</ele>
        <time>2022-08-27T16:12:48.000Z</time>
      </trkpt>
      <trkpt lat="43.31257" lon="-1.51582">
        <ele>65</ele>
        <time>2022-08-27T16:13:20.000Z</time>
      </trkpt>
      <trkpt lat="43.3123" lon="-1.51538">
        <ele>66</ele>
        <time>2022-08-27T16:13:28.000Z</time>
      </trkpt>
      <trkpt lat="43.31218" lon="-1.51501">
        <ele>67</ele>
        <time>2022-08-27T16:13:33.000Z</time>
      </trkpt>
      <trkpt lat="43.31201" lon="-1.51421">
        <ele>68</ele>
        <time>2022-08-27T16:13:44.000Z</time>
      </trkpt>
      <trkpt lat="43.31184" lon="-1.51227">
        <ele>71</ele>
        <time>2022-08-27T16:14:09.000Z</time>
      </trkpt>
      <trkpt lat="43.31204" lon="-1.51116">
        <ele>70</ele>
        <time>2022-08-27T16:14:24.000Z</time>
      </trkpt>
      <trkpt lat="43.31226" lon="-1.51044">
        <ele>71</ele>
        <time>2022-08-27T16:14:34.000Z</time>
      </trkpt>
      <trkpt lat="43.31244" lon="-1.51">
        <ele>71</ele>
        <time>2022-08-27T16:14:41.000Z</time>
      </trkpt>
      <trkpt lat="43.31292" lon="-1.50937">
        <ele>72</ele>
        <time>2022-08-27T16:14:52.000Z</time>
      </trkpt>
      <trkpt lat="43.31302" lon="-1.50914">
        <ele>71</ele>
        <time>2022-08-27T16:14:56.000Z</time>
      </trkpt>
      <trkpt lat="43.31359" lon="-1.50692">
        <ele>76</ele>
        <time>2022-08-27T16:15:26.000Z</time>
      </trkpt>
      <trkpt lat="43.31362" lon="-1.50663">
        <ele>77</ele>
        <time>2022-08-27T16:15:30.000Z</time>
      </trkpt>
      <trkpt lat="43.31318" lon="-1.50496">
        <ele>77</ele>
        <time>2022-08-27T16:15:53.000Z</time>
      </trkpt>
      <trkpt lat="43.3131" lon="-1.5046">
        <ele>77</ele>
        <time>2022-08-27T16:15:58.000Z</time>
      </trkpt>
      <trkpt lat="43.31306" lon="-1.50309">
        <ele>82</ele>
        <time>2022-08-27T16:16:18.000Z</time>
      </trkpt>
      <trkpt lat="43.31299" lon="-1.50283">
        <ele>84</ele>
        <time>2022-08-27T16:16:21.000Z</time>
      </trkpt>
      <trkpt lat="43.3123" lon="-1.50189">
        <ele>94</ele>
        <time>2022-08-27T16:16:39.000Z</time>
      </trkpt>
      <trkpt lat="43.31208" lon="-1.50169">
        <ele>97</ele>
        <time>2022-08-27T16:16:43.000Z</time>
      </trkpt>
      <trkpt lat="43.31148" lon="-1.50075">
        <ele>97</ele>
        <time>2022-08-27T16:17:00.000Z</time>
      </trkpt>
      <trkpt lat="43.31127" lon="-1.50055">
        <ele>98</ele>
        <time>2022-08-27T16:17:04.000Z</time>
      </trkpt>
      <trkpt lat="43.3113" lon="-1.49834">
        <ele>94</ele>
        <time>2022-08-27T16:17:33.000Z</time>
      </trkpt>
      <trkpt lat="43.31134" lon="-1.49815">
        <ele>94</ele>
        <time>2022-08-27T16:17:35.000Z</time>
      </trkpt>
      <trkpt lat="43.31159" lon="-1.4977">
        <ele>91</ele>
        <time>2022-08-27T16:17:43.000Z</time>
      </trkpt>
      <trkpt lat="43.31226" lon="-1.497">
        <ele>87</ele>
        <time>2022-08-27T16:17:58.000Z</time>
      </trkpt>
      <trkpt lat="43.31316" lon="-1.49586">
        <ele>93</ele>
        <time>2022-08-27T16:18:19.000Z</time>
      </trkpt>
      <trkpt lat="43.31433" lon="-1.49468">
        <ele>96</ele>
        <time>2022-08-27T16:18:45.000Z</time>
      </trkpt>
      <trkpt lat="43.31459" lon="-1.49432">
        <ele>98</ele>
        <time>2022-08-27T16:18:52.000Z</time>
      </trkpt>
      <trkpt lat="43.31542" lon="-1.49296">
        <ele>103</ele>
        <time>2022-08-27T16:19:15.000Z</time>
      </trkpt>
      <trkpt lat="43.31551" lon="-1.49278">
        <ele>103</ele>
        <time>2022-08-27T16:19:18.000Z</time>
      </trkpt>
      <trkpt lat="43.31647" lon="-1.49023">
        <ele>107</ele>
        <time>2022-08-27T16:19:55.000Z</time>
      </trkpt>
      <trkpt lat="43.31664" lon="-1.48991">
        <ele>108</ele>
        <time>2022-08-27T16:20:00.000Z</time>
      </trkpt>
      <trkpt lat="43.31729" lon="-1.48932">
        <ele>112</ele>
        <time>2022-08-27T16:20:14.000Z</time>
      </trkpt>
      <trkpt lat="43.31741" lon="-1.48919">
        <ele>112</ele>
        <time>2022-08-27T16:20:17.000Z</time>
      </trkpt>
      <trkpt lat="43.31801" lon="-1.48839">
        <ele>115</ele>
        <time>2022-08-27T16:20:31.000Z</time>
      </trkpt>
      <trkpt lat="43.31866" lon="-1.48731">
        <ele>120</ele>
        <time>2022-08-27T16:20:50.000Z</time>
      </trkpt>
      <trkpt lat="43.31979" lon="-1.48646">
        <ele>128</ele>
        <time>2022-08-27T16:21:13.000Z</time>
      </trkpt>
      <trkpt lat="43.32027" lon="-1.48596">
        <ele>132</ele>
        <time>2022-08-27T16:21:23.000Z</time>
      </trkpt>
      <trkpt lat="43.32071" lon="-1.48529">
        <ele>136</ele>
        <time>2022-08-27T16:21:35.000Z</time>
      </trkpt>
      <trkpt lat="43.32123" lon="-1.48428">
        <ele>145</ele>
        <time>2022-08-27T16:21:51.000Z</time>
      </trkpt>
      <trkpt lat="43.32182" lon="-1.48299">
        <ele>147</ele>
        <time>2022-08-27T16:22:11.000Z</time>
      </trkpt>
      <trkpt lat="43.32202" lon="-1.48226">
        <ele>149</ele>
        <time>2022-08-27T16:22:21.000Z</time>
      </trkpt>
      <trkpt lat="43.32214" lon="-1.48204">
        <ele>147</ele>
        <time>2022-08-27T16:22:24.000Z</time>
      </trkpt>
      <trkpt lat="43.32257" lon="-1.48145">
        <ele>146</ele>
        <time>2022-08-27T16:22:35.000Z</time>
      </trkpt>
      <trkpt lat="43.32294" lon="-1.48101">
        <ele>152</ele>
        <time>2022-08-27T16:22:44.000Z</time>
      </trkpt>
      <trkpt lat="43.32364" lon="-1.48046">
        <ele>155</ele>
        <time>2022-08-27T16:22:58.000Z</time>
      </trkpt>
      <trkpt lat="43.32387" lon="-1.48022">
        <ele>155</ele>
        <time>2022-08-27T16:23:03.000Z</time>
      </trkpt>
      <trkpt lat="43.3253" lon="-1.47732">
        <ele>161</ele>
        <time>2022-08-27T16:23:49.000Z</time>
      </trkpt>
      <trkpt lat="43.32594" lon="-1.47653">
        <ele>164</ele>
        <time>2022-08-27T16:24:04.000Z</time>
      </trkpt>
      <trkpt lat="43.32706" lon="-1.47459">
        <ele>173</ele>
        <time>2022-08-27T16:24:36.000Z</time>
      </trkpt>
      <trkpt lat="43.32782" lon="-1.47417">
        <ele>174</ele>
        <time>2022-08-27T16:24:51.000Z</time>
      </trkpt>
      <trkpt lat="43.32826" lon="-1.4737">
        <ele>170</ele>
        <time>2022-08-27T16:25:01.000Z</time>
      </trkpt>
      <trkpt lat="43.32869" lon="-1.4729">
        <ele>163</ele>
        <time>2022-08-27T16:25:14.000Z</time>
      </trkpt>
      <trkpt lat="43.32873" lon="-1.47273">
        <ele>162</ele>
        <time>2022-08-27T16:25:16.000Z</time>
      </trkpt>
      <trkpt lat="43.32873" lon="-1.47252">
        <ele>162</ele>
        <time>2022-08-27T16:25:19.000Z</time>
      </trkpt>
      <trkpt lat="43.32863" lon="-1.47189">
        <ele>166</ele>
        <time>2022-08-27T16:25:27.000Z</time>
      </trkpt>
      <trkpt lat="43.32866" lon="-1.47176">
        <ele>165</ele>
        <time>2022-08-27T16:25:29.000Z</time>
      </trkpt>
      <trkpt lat="43.32882" lon="-1.47136">
        <ele>160</ele>
        <time>2022-08-27T16:25:35.000Z</time>
      </trkpt>
      <trkpt lat="43.32884" lon="-1.47084">
        <ele>163</ele>
        <time>2022-08-27T16:25:41.000Z</time>
      </trkpt>
      <trkpt lat="43.32886" lon="-1.47078">
        <ele>164</ele>
        <time>2022-08-27T16:25:42.000Z</time>
      </trkpt>
      <trkpt lat="43.32894" lon="-1.4707">
        <ele>163</ele>
        <time>2022-08-27T16:25:44.000Z</time>
      </trkpt>
      <trkpt lat="43.32971" lon="-1.47057">
        <ele>142</ele>
        <time>2022-08-27T16:25:58.000Z</time>
      </trkpt>
      <trkpt lat="43.32989" lon="-1.47044">
        <ele>139</ele>
        <time>2022-08-27T16:26:02.000Z</time>
      </trkpt>
      <trkpt lat="43.33001" lon="-1.47023">
        <ele>138</ele>
        <time>2022-08-27T16:26:05.000Z</time>
      </trkpt>
      <trkpt lat="43.33007" lon="-1.46977">
        <ele>140</ele>
        <time>2022-08-27T16:26:11.000Z</time>
      </trkpt>
      <trkpt lat="43.32996" lon="-1.46883">
        <ele>147</ele>
        <time>2022-08-27T16:26:23.000Z</time>
      </trkpt>
      <trkpt lat="43.32997" lon="-1.46875">
        <ele>147</ele>
        <time>2022-08-27T16:26:24.000Z</time>
      </trkpt>
      <trkpt lat="43.33006" lon="-1.46851">
        <ele>145</ele>
        <time>2022-08-27T16:26:28.000Z</time>
      </trkpt>
      <trkpt lat="43.3306" lon="-1.46801">
        <ele>125</ele>
        <time>2022-08-27T16:26:39.000Z</time>
      </trkpt>
      <trkpt lat="43.33063" lon="-1.46795">
        <ele>124</ele>
        <time>2022-08-27T16:26:40.000Z</time>
      </trkpt>
      <trkpt lat="43.33067" lon="-1.46781">
        <ele>123</ele>
        <time>2022-08-27T16:26:42.000Z</time>
      </trkpt>
      <trkpt lat="43.33066" lon="-1.46728">
        <ele>125</ele>
        <time>2022-08-27T16:26:49.000Z</time>
      </trkpt>
      <trkpt lat="43.33104" lon="-1.46668">
        <ele>114</ele>
        <time>2022-08-27T16:27:00.000Z</time>
      </trkpt>
      <trkpt lat="43.33106" lon="-1.46658">
        <ele>114</ele>
        <time>2022-08-27T16:27:01.000Z</time>
      </trkpt>
      <trkpt lat="43.331" lon="-1.46578">
        <ele>120</ele>
        <time>2022-08-27T16:27:11.000Z</time>
      </trkpt>
      <trkpt lat="43.33101" lon="-1.46572">
        <ele>121</ele>
        <time>2022-08-27T16:27:12.000Z</time>
      </trkpt>
      <trkpt lat="43.33114" lon="-1.46556">
        <ele>118</ele>
        <time>2022-08-27T16:27:15.000Z</time>
      </trkpt>
      <trkpt lat="43.33179" lon="-1.4653">
        <ele>103</ele>
        <time>2022-08-27T16:27:27.000Z</time>
      </trkpt>
      <trkpt lat="43.33206" lon="-1.4651">
        <ele>99</ele>
        <time>2022-08-27T16:27:33.000Z</time>
      </trkpt>
      <trkpt lat="43.33231" lon="-1.46485">
        <ele>95</ele>
        <time>2022-08-27T16:27:38.000Z</time>
      </trkpt>
      <trkpt lat="43.33244" lon="-1.46464">
        <ele>94</ele>
        <time>2022-08-27T16:27:42.000Z</time>
      </trkpt>
      <trkpt lat="43.33258" lon="-1.46385">
        <ele>97</ele>
        <time>2022-08-27T16:27:53.000Z</time>
      </trkpt>
      <trkpt lat="43.33266" lon="-1.46374">
        <ele>97</ele>
        <time>2022-08-27T16:27:55.000Z</time>
      </trkpt>
      <trkpt lat="43.33316" lon="-1.46353">
        <ele>89</ele>
        <time>2022-08-27T16:28:04.000Z</time>
      </trkpt>
      <trkpt lat="43.33358" lon="-1.46322">
        <ele>84</ele>
        <time>2022-08-27T16:28:12.000Z</time>
      </trkpt>
      <trkpt lat="43.33396" lon="-1.46288">
        <ele>79</ele>
        <time>2022-08-27T16:28:20.000Z</time>
      </trkpt>
      <trkpt lat="43.33411" lon="-1.46262">
        <ele>76</ele>
        <time>2022-08-27T16:28:25.000Z</time>
      </trkpt>
      <trkpt lat="43.33421" lon="-1.46236">
        <ele>74</ele>
        <time>2022-08-27T16:28:29.000Z</time>
      </trkpt>
      <trkpt lat="43.33421" lon="-1.46106">
        <ele>76</ele>
        <time>2022-08-27T16:28:45.000Z</time>
      </trkpt>
      <trkpt lat="43.33428" lon="-1.46082">
        <ele>75</ele>
        <time>2022-08-27T16:28:49.000Z</time>
      </trkpt>
      <trkpt lat="43.33538" lon="-1.45921">
        <ele>67</ele>
        <time>2022-08-27T16:29:18.000Z</time>
      </trkpt>
      <trkpt lat="43.33549" lon="-1.45915">
        <ele>65</ele>
        <time>2022-08-27T16:29:20.000Z</time>
      </trkpt>
      <trkpt lat="43.3358" lon="-1.45852">
        <ele>67</ele>
        <time>2022-08-27T16:29:30.000Z</time>
      </trkpt>
      <trkpt lat="43.33764" lon="-1.45581">
        <ele>62</ele>
        <time>2022-08-27T16:30:18.000Z</time>
      </trkpt>
      <trkpt lat="43.33829" lon="-1.4543">
        <ele>59</ele>
        <time>2022-08-27T16:30:40.000Z</time>
      </trkpt>
      <trkpt lat="43.33848" lon="-1.45394">
        <ele>59</ele>
        <time>2022-08-27T16:30:46.000Z</time>
      </trkpt>
      <trkpt lat="43.33942" lon="-1.45296">
        <ele>60</ele>
        <time>2022-08-27T16:31:07.000Z</time>
      </trkpt>
      <trkpt lat="43.33964" lon="-1.45272">
        <ele>60</ele>
        <time>2022-08-27T16:31:12.000Z</time>
      </trkpt>
      <trkpt lat="43.33986" lon="-1.45227">
        <ele>60</ele>
        <time>2022-08-27T16:31:19.000Z</time>
      </trkpt>
      <trkpt lat="43.34" lon="-1.45166">
        <ele>60</ele>
        <time>2022-08-27T16:31:28.000Z</time>
      </trkpt>
      <trkpt lat="43.33992" lon="-1.45132">
        <ele>62</ele>
        <time>2022-08-27T16:31:32.000Z</time>
      </trkpt>
      <trkpt lat="43.33984" lon="-1.45112">
        <ele>64</ele>
        <time>2022-08-27T16:31:35.000Z</time>
      </trkpt>
      <trkpt lat="43.33869" lon="-1.44918">
        <ele>72</ele>
        <time>2022-08-27T16:32:08.000Z</time>
      </trkpt>
      <trkpt lat="43.3385" lon="-1.44878">
        <ele>73</ele>
        <time>2022-08-27T16:32:14.000Z</time>
      </trkpt>
      <trkpt lat="43.33841" lon="-1.4483">
        <ele>74</ele>
        <time>2022-08-27T16:32:20.000Z</time>
      </trkpt>
      <trkpt lat="43.33841" lon="-1.44745">
        <ele>77</ele>
        <time>2022-08-27T16:32:31.000Z</time>
      </trkpt>
      <trkpt lat="43.33838" lon="-1.44695">
        <ele>78</ele>
        <time>2022-08-27T16:32:38.000Z</time>
      </trkpt>
      <trkpt lat="43.33812" lon="-1.44635">
        <ele>79</ele>
        <time>2022-08-27T16:32:47.000Z</time>
      </trkpt>
      <trkpt lat="43.3378" lon="-1.44624">
        <ele>78</ele>
        <time>2022-08-27T16:32:53.000Z</time>
      </trkpt>
      <trkpt lat="43.33756" lon="-1.44619">
        <ele>78</ele>
        <time>2022-08-27T16:32:58.000Z</time>
      </trkpt>
      <trkpt lat="43.33698" lon="-1.44614">
        <ele>78</ele>
        <time>2022-08-27T16:33:08.000Z</time>
      </trkpt>
      <trkpt lat="43.33615" lon="-1.44623">
        <ele>81</ele>
        <time>2022-08-27T16:33:23.000Z</time>
      </trkpt>
      <trkpt lat="43.33605" lon="-1.44622">
        <ele>82</ele>
        <time>2022-08-27T16:33:25.000Z</time>
      </trkpt>
      <trkpt lat="43.3351" lon="-1.44559">
        <ele>80</ele>
        <time>2022-08-27T16:33:43.000Z</time>
      </trkpt>
      <trkpt lat="43.33485" lon="-1.44544">
        <ele>78</ele>
        <time>2022-08-27T16:33:48.000Z</time>
      </trkpt>
      <trkpt lat="43.33434" lon="-1.44534">
        <ele>78</ele>
        <time>2022-08-27T16:33:58.000Z</time>
      </trkpt>
      <trkpt lat="43.33422" lon="-1.44538">
        <ele>78</ele>
        <time>2022-08-27T16:34:00.000Z</time>
      </trkpt>
      <trkpt lat="43.33413" lon="-1.44544">
        <ele>79</ele>
        <time>2022-08-27T16:34:02.000Z</time>
      </trkpt>
      <trkpt lat="43.334" lon="-1.44559">
        <ele>80</ele>
        <time>2022-08-27T16:34:05.000Z</time>
      </trkpt>
      <trkpt lat="43.33361" lon="-1.4467">
        <ele>83</ele>
        <time>2022-08-27T16:34:20.000Z</time>
      </trkpt>
      <trkpt lat="43.33349" lon="-1.4469">
        <ele>81</ele>
        <time>2022-08-27T16:34:24.000Z</time>
      </trkpt>
      <trkpt lat="43.33331" lon="-1.44705">
        <ele>79</ele>
        <time>2022-08-27T16:34:28.000Z</time>
      </trkpt>
      <trkpt lat="43.33318" lon="-1.44711">
        <ele>79</ele>
        <time>2022-08-27T16:34:30.000Z</time>
      </trkpt>
      <trkpt lat="43.33196" lon="-1.44737">
        <ele>89</ele>
        <time>2022-08-27T16:34:52.000Z</time>
      </trkpt>
      <trkpt lat="43.33177" lon="-1.44757">
        <ele>88</ele>
        <time>2022-08-27T16:34:56.000Z</time>
      </trkpt>
      <trkpt lat="43.33155" lon="-1.44797">
        <ele>88</ele>
        <time>2022-08-27T16:35:03.000Z</time>
      </trkpt>
      <trkpt lat="43.33139" lon="-1.44884">
        <ele>92</ele>
        <time>2022-08-27T16:35:14.000Z</time>
      </trkpt>
      <trkpt lat="43.33126" lon="-1.44932">
        <ele>95</ele>
        <time>2022-08-27T16:35:21.000Z</time>
      </trkpt>
      <trkpt lat="43.33095" lon="-1.44976">
        <ele>91</ele>
        <time>2022-08-27T16:35:29.000Z</time>
      </trkpt>
      <trkpt lat="43.33086" lon="-1.44981">
        <ele>89</ele>
        <time>2022-08-27T16:35:31.000Z</time>
      </trkpt>
      <trkpt lat="43.33067" lon="-1.44981">
        <ele>89</ele>
        <time>2022-08-27T16:35:34.000Z</time>
      </trkpt>
      <trkpt lat="43.33056" lon="-1.44977">
        <ele>89</ele>
        <time>2022-08-27T16:35:36.000Z</time>
      </trkpt>
      <trkpt lat="43.32973" lon="-1.44932">
        <ele>86</ele>
        <time>2022-08-27T16:35:52.000Z</time>
      </trkpt>
      <trkpt lat="43.32934" lon="-1.44923">
        <ele>88</ele>
        <time>2022-08-27T16:35:59.000Z</time>
      </trkpt>
      <trkpt lat="43.32802" lon="-1.44941">
        <ele>102</ele>
        <time>2022-08-27T16:36:23.000Z</time>
      </trkpt>
      <trkpt lat="43.32781" lon="-1.44933">
        <ele>102</ele>
        <time>2022-08-27T16:36:27.000Z</time>
      </trkpt>
      <trkpt lat="43.3272" lon="-1.44881">
        <ele>107</ele>
        <time>2022-08-27T16:36:40.000Z</time>
      </trkpt>
      <trkpt lat="43.32677" lon="-1.4482">
        <ele>102</ele>
        <time>2022-08-27T16:36:51.000Z</time>
      </trkpt>
      <trkpt lat="43.32667" lon="-1.44809">
        <ele>101</ele>
        <time>2022-08-27T16:36:53.000Z</time>
      </trkpt>
      <trkpt lat="43.32601" lon="-1.44772">
        <ele>96</ele>
        <time>2022-08-27T16:37:05.000Z</time>
      </trkpt>
      <trkpt lat="43.32587" lon="-1.44726">
        <ele>92</ele>
        <time>2022-08-27T16:37:12.000Z</time>
      </trkpt>
      <trkpt lat="43.32533" lon="-1.44442">
        <ele>109</ele>
        <time>2022-08-27T16:37:50.000Z</time>
      </trkpt>
      <trkpt lat="43.325" lon="-1.44334">
        <ele>106</ele>
        <time>2022-08-27T16:38:05.000Z</time>
      </trkpt>
      <trkpt lat="43.32513" lon="-1.44298">
        <ele>107</ele>
        <time>2022-08-27T16:38:10.000Z</time>
      </trkpt>
      <trkpt lat="43.32517" lon="-1.44279">
        <ele>107</ele>
        <time>2022-08-27T16:38:13.000Z</time>
      </trkpt>
      <trkpt lat="43.3252" lon="-1.44192">
        <ele>111</ele>
        <time>2022-08-27T16:38:24.000Z</time>
      </trkpt>
      <trkpt lat="43.32546" lon="-1.44082">
        <ele>119</ele>
        <time>2022-08-27T16:38:39.000Z</time>
      </trkpt>
      <trkpt lat="43.32561" lon="-1.43969">
        <ele>122</ele>
        <time>2022-08-27T16:38:54.000Z</time>
      </trkpt>
      <trkpt lat="43.32571" lon="-1.43929">
        <ele>120</ele>
        <time>2022-08-27T16:39:00.000Z</time>
      </trkpt>
      <trkpt lat="43.32586" lon="-1.43894">
        <ele>119</ele>
        <time>2022-08-27T16:39:05.000Z</time>
      </trkpt>
      <trkpt lat="43.32668" lon="-1.43817">
        <ele>127</ele>
        <time>2022-08-27T16:39:23.000Z</time>
      </trkpt>
      <trkpt lat="43.32685" lon="-1.43796">
        <ele>130</ele>
        <time>2022-08-27T16:39:27.000Z</time>
      </trkpt>
      <trkpt lat="43.32712" lon="-1.43722">
        <ele>134</ele>
        <time>2022-08-27T16:39:37.000Z</time>
      </trkpt>
      <trkpt lat="43.32721" lon="-1.43704">
        <ele>134</ele>
        <time>2022-08-27T16:39:40.000Z</time>
      </trkpt>
      <trkpt lat="43.32765" lon="-1.43655">
        <ele>135</ele>
        <time>2022-08-27T16:39:50.000Z</time>
      </trkpt>
      <trkpt lat="43.32822" lon="-1.43606">
        <ele>132</ele>
        <time>2022-08-27T16:40:02.000Z</time>
      </trkpt>
      <trkpt lat="43.32828" lon="-1.43587">
        <ele>130</ele>
        <time>2022-08-27T16:40:05.000Z</time>
      </trkpt>
      <trkpt lat="43.3283" lon="-1.43556">
        <ele>128</ele>
        <time>2022-08-27T16:40:09.000Z</time>
      </trkpt>
      <trkpt lat="43.32808" lon="-1.4344">
        <ele>122</ele>
        <time>2022-08-27T16:40:25.000Z</time>
      </trkpt>
      <trkpt lat="43.32809" lon="-1.43412">
        <ele>121</ele>
        <time>2022-08-27T16:40:28.000Z</time>
      </trkpt>
      <trkpt lat="43.32838" lon="-1.43214">
        <ele>115</ele>
        <time>2022-08-27T16:40:54.000Z</time>
      </trkpt>
      <trkpt lat="43.32844" lon="-1.43186">
        <ele>114</ele>
        <time>2022-08-27T16:40:58.000Z</time>
      </trkpt>
      <trkpt lat="43.32871" lon="-1.43123">
        <ele>114</ele>
        <time>2022-08-27T16:41:08.000Z</time>
      </trkpt>
      <trkpt lat="43.32901" lon="-1.43075">
        <ele>114</ele>
        <time>2022-08-27T16:41:16.000Z</time>
      </trkpt>
      <trkpt lat="43.32893" lon="-1.42946">
        <ele>109</ele>
        <time>2022-08-27T16:41:33.000Z</time>
      </trkpt>
      <trkpt lat="43.32896" lon="-1.42923">
        <ele>108</ele>
        <time>2022-08-27T16:41:36.000Z</time>
      </trkpt>
      <trkpt lat="43.32961" lon="-1.42813">
        <ele>106</ele>
        <time>2022-08-27T16:41:54.000Z</time>
      </trkpt>
      <trkpt lat="43.32988" lon="-1.42751">
        <ele>102</ele>
        <time>2022-08-27T16:42:03.000Z</time>
      </trkpt>
      <trkpt lat="43.33059" lon="-1.42701">
        <ele>108</ele>
        <time>2022-08-27T16:45:07.000Z</time>
      </trkpt>
      <trkpt lat="43.33064" lon="-1.42693">
        <ele>108</ele>
        <time>2022-08-27T16:45:09.000Z</time>
      </trkpt>
      <trkpt lat="43.33105" lon="-1.42554">
        <ele>101</ele>
        <time>2022-08-27T16:45:28.000Z</time>
      </trkpt>
      <trkpt lat="43.33138" lon="-1.42484">
        <ele>103</ele>
        <time>2022-08-27T16:45:39.000Z</time>
      </trkpt>
      <trkpt lat="43.33148" lon="-1.42177">
        <ele>97</ele>
        <time>2022-08-27T16:46:19.000Z</time>
      </trkpt>
      <trkpt lat="43.33158" lon="-1.4212">
        <ele>95</ele>
        <time>2022-08-27T16:46:26.000Z</time>
      </trkpt>
      <trkpt lat="43.33232" lon="-1.4199">
        <ele>101</ele>
        <time>2022-08-27T16:46:48.000Z</time>
      </trkpt>
      <trkpt lat="43.33258" lon="-1.41943">
        <ele>103</ele>
        <time>2022-08-27T16:46:55.000Z</time>
      </trkpt>
      <trkpt lat="43.33266" lon="-1.41915">
        <ele>104</ele>
        <time>2022-08-27T16:46:59.000Z</time>
      </trkpt>
      <trkpt lat="43.3327" lon="-1.41888">
        <ele>103</ele>
        <time>2022-08-27T16:47:03.000Z</time>
      </trkpt>
      <trkpt lat="43.33273" lon="-1.4181">
        <ele>99</ele>
        <time>2022-08-27T16:47:13.000Z</time>
      </trkpt>
      <trkpt lat="43.33269" lon="-1.41783">
        <ele>98</ele>
        <time>2022-08-27T16:47:17.000Z</time>
      </trkpt>
      <trkpt lat="43.33211" lon="-1.41726">
        <ele>96</ele>
        <time>2022-08-27T16:47:29.000Z</time>
      </trkpt>
      <trkpt lat="43.332" lon="-1.41683">
        <ele>94</ele>
        <time>2022-08-27T16:47:35.000Z</time>
      </trkpt>
      <trkpt lat="43.33225" lon="-1.4139">
        <ele>85</ele>
        <time>2022-08-27T16:48:14.000Z</time>
      </trkpt>
      <trkpt lat="43.33229" lon="-1.41356">
        <ele>87</ele>
        <time>2022-08-27T16:48:18.000Z</time>
      </trkpt>
      <trkpt lat="43.33274" lon="-1.4128">
        <ele>93</ele>
        <time>2022-08-27T16:48:31.000Z</time>
      </trkpt>
      <trkpt lat="43.33281" lon="-1.41258">
        <ele>93</ele>
        <time>2022-08-27T16:48:34.000Z</time>
      </trkpt>
      <trkpt lat="43.33267" lon="-1.41038">
        <ele>89</ele>
        <time>2022-08-27T16:49:03.000Z</time>
      </trkpt>
      <trkpt lat="43.33262" lon="-1.40959">
        <ele>87</ele>
        <time>2022-08-27T16:49:13.000Z</time>
      </trkpt>
      <trkpt lat="43.33278" lon="-1.40874">
        <ele>84</ele>
        <time>2022-08-27T16:49:24.000Z</time>
      </trkpt>
      <trkpt lat="43.33278" lon="-1.4085">
        <ele>83</ele>
        <time>2022-08-27T16:49:27.000Z</time>
      </trkpt>
      <trkpt lat="43.33266" lon="-1.40804">
        <ele>82</ele>
        <time>2022-08-27T16:49:34.000Z</time>
      </trkpt>
      <trkpt lat="43.33248" lon="-1.40675">
        <ele>80</ele>
        <time>2022-08-27T16:49:51.000Z</time>
      </trkpt>
      <trkpt lat="43.33246" lon="-1.4062">
        <ele>80</ele>
        <time>2022-08-27T16:49:58.000Z</time>
      </trkpt>
      <trkpt lat="43.33232" lon="-1.40502">
        <ele>78</ele>
        <time>2022-08-27T16:50:13.000Z</time>
      </trkpt>
      <trkpt lat="43.33235" lon="-1.40402">
        <ele>81</ele>
        <time>2022-08-27T16:50:26.000Z</time>
      </trkpt>
      <trkpt lat="43.33233" lon="-1.40366">
        <ele>82</ele>
        <time>2022-08-27T16:50:31.000Z</time>
      </trkpt>
      <trkpt lat="43.33212" lon="-1.40267">
        <ele>79</ele>
        <time>2022-08-27T16:50:44.000Z</time>
      </trkpt>
      <trkpt lat="43.33209" lon="-1.40237">
        <ele>77</ele>
        <time>2022-08-27T16:50:48.000Z</time>
      </trkpt>
      <trkpt lat="43.33209" lon="-1.40203">
        <ele>74</ele>
        <time>2022-08-27T16:50:53.000Z</time>
      </trkpt>
      <trkpt lat="43.33217" lon="-1.40132">
        <ele>70</ele>
        <time>2022-08-27T16:51:02.000Z</time>
      </trkpt>
      <trkpt lat="43.33206" lon="-1.40082">
        <ele>66</ele>
        <time>2022-08-27T16:51:09.000Z</time>
      </trkpt>
      <trkpt lat="43.33202" lon="-1.40043">
        <ele>64</ele>
        <time>2022-08-27T16:51:14.000Z</time>
      </trkpt>
      <trkpt lat="43.33208" lon="-1.4001">
        <ele>63</ele>
        <time>2022-08-27T16:51:18.000Z</time>
      </trkpt>
      <trkpt lat="43.33221" lon="-1.39994">
        <ele>65</ele>
        <time>2022-08-27T16:51:21.000Z</time>
      </trkpt>
      <trkpt lat="43.33174" lon="-1.39893">
        <ele>58</ele>
        <time>2022-08-27T16:51:37.000Z</time>
      </trkpt>
      <trkpt lat="43.33129" lon="-1.39772">
        <ele>52</ele>
        <time>2022-08-27T16:51:54.000Z</time>
      </trkpt>
      <trkpt lat="43.3286" lon="-1.38895">
        <ele>48</ele>
        <time>2022-08-27T16:53:57.000Z</time>
      </trkpt>
      <trkpt lat="43.32824" lon="-1.38785">
        <ele>52</ele>
        <time>2022-08-27T16:54:13.000Z</time>
      </trkpt>
      <trkpt lat="43.32792" lon="-1.38712">
        <ele>58</ele>
        <time>2022-08-27T16:54:24.000Z</time>
      </trkpt>
      <trkpt lat="43.32769" lon="-1.38667">
        <ele>57</ele>
        <time>2022-08-27T16:54:31.000Z</time>
      </trkpt>
      <trkpt lat="43.32742" lon="-1.38624">
        <ele>57</ele>
        <time>2022-08-27T16:54:39.000Z</time>
      </trkpt>
      <trkpt lat="43.32659" lon="-1.38503">
        <ele>63</ele>
        <time>2022-08-27T16:55:00.000Z</time>
      </trkpt>
      <trkpt lat="43.3259" lon="-1.38376">
        <ele>63</ele>
        <time>2022-08-27T16:55:21.000Z</time>
      </trkpt>
      <trkpt lat="43.32525" lon="-1.3825">
        <ele>71</ele>
        <time>2022-08-27T16:55:41.000Z</time>
      </trkpt>
      <trkpt lat="43.32466" lon="-1.38093">
        <ele>79</ele>
        <time>2022-08-27T16:56:04.000Z</time>
      </trkpt>
      <trkpt lat="43.32401" lon="-1.37847">
        <ele>84</ele>
        <time>2022-08-27T16:56:37.000Z</time>
      </trkpt>
      <trkpt lat="43.32357" lon="-1.37701">
        <ele>89</ele>
        <time>2022-08-27T16:56:58.000Z</time>
      </trkpt>
      <trkpt lat="43.32338" lon="-1.37659">
        <ele>88</ele>
        <time>2022-08-27T16:57:04.000Z</time>
      </trkpt>
      <trkpt lat="43.32271" lon="-1.3756">
        <ele>91</ele>
        <time>2022-08-27T16:57:22.000Z</time>
      </trkpt>
      <trkpt lat="43.32231" lon="-1.37467">
        <ele>96</ele>
        <time>2022-08-27T16:57:36.000Z</time>
      </trkpt>
      <trkpt lat="43.32181" lon="-1.37326">
        <ele>101</ele>
        <time>2022-08-27T16:57:56.000Z</time>
      </trkpt>
      <trkpt lat="43.32109" lon="-1.3719">
        <ele>113</ele>
        <time>2022-08-27T16:58:18.000Z</time>
      </trkpt>
      <trkpt lat="43.32086" lon="-1.37132">
        <ele>114</ele>
        <time>2022-08-27T16:58:26.000Z</time>
      </trkpt>
      <trkpt lat="43.32026" lon="-1.36951">
        <ele>129</ele>
        <time>2022-08-27T16:58:52.000Z</time>
      </trkpt>
      <trkpt lat="43.31994" lon="-1.36803">
        <ele>132</ele>
        <time>2022-08-27T16:59:12.000Z</time>
      </trkpt>
      <trkpt lat="43.31996" lon="-1.36657">
        <ele>135</ele>
        <time>2022-08-27T16:59:31.000Z</time>
      </trkpt>
      <trkpt lat="43.31997" lon="-1.36596">
        <ele>139</ele>
        <time>2022-08-27T16:59:39.000Z</time>
      </trkpt>
      <trkpt lat="43.31977" lon="-1.36432">
        <ele>150</ele>
        <time>2022-08-27T17:00:01.000Z</time>
      </trkpt>
      <trkpt lat="43.31962" lon="-1.36357">
        <ele>152</ele>
        <time>2022-08-27T17:00:11.000Z</time>
      </trkpt>
      <trkpt lat="43.319" lon="-1.36185">
        <ele>142</ele>
        <time>2022-08-27T17:00:36.000Z</time>
      </trkpt>
      <trkpt lat="43.31864" lon="-1.361">
        <ele>138</ele>
        <time>2022-08-27T17:00:48.000Z</time>
      </trkpt>
      <trkpt lat="43.31793" lon="-1.35962">
        <ele>130</ele>
        <time>2022-08-27T17:01:10.000Z</time>
      </trkpt>
      <trkpt lat="43.31734" lon="-1.35816">
        <ele>125</ele>
        <time>2022-08-27T17:01:32.000Z</time>
      </trkpt>
      <trkpt lat="43.31639" lon="-1.35637">
        <ele>125</ele>
        <time>2022-08-27T17:02:00.000Z</time>
      </trkpt>
      <trkpt lat="43.31617" lon="-1.35589">
        <ele>125</ele>
        <time>2022-08-27T17:02:08.000Z</time>
      </trkpt>
      <trkpt lat="43.31554" lon="-1.35151">
        <ele>113</ele>
        <time>2022-08-27T17:03:06.000Z</time>
      </trkpt>
      <trkpt lat="43.31549" lon="-1.35137">
        <ele>113</ele>
        <time>2022-08-27T17:03:08.000Z</time>
      </trkpt>
      <trkpt lat="43.3153" lon="-1.35106">
        <ele>113</ele>
        <time>2022-08-27T17:03:13.000Z</time>
      </trkpt>
      <trkpt lat="43.31502" lon="-1.35079">
        <ele>111</ele>
        <time>2022-08-27T17:03:19.000Z</time>
      </trkpt>
      <trkpt lat="43.3145" lon="-1.35059">
        <ele>116</ele>
        <time>2022-08-27T17:03:29.000Z</time>
      </trkpt>
      <trkpt lat="43.31427" lon="-1.35049">
        <ele>117</ele>
        <time>2022-08-27T17:03:34.000Z</time>
      </trkpt>
      <trkpt lat="43.31383" lon="-1.35017">
        <ele>110</ele>
        <time>2022-08-27T17:03:43.000Z</time>
      </trkpt>
      <trkpt lat="43.31367" lon="-1.35014">
        <ele>109</ele>
        <time>2022-08-27T17:03:46.000Z</time>
      </trkpt>
      <trkpt lat="43.31354" lon="-1.35015">
        <ele>109</ele>
        <time>2022-08-27T17:03:48.000Z</time>
      </trkpt>
      <trkpt lat="43.3134" lon="-1.35022">
        <ele>111</ele>
        <time>2022-08-27T17:03:50.000Z</time>
      </trkpt>
      <trkpt lat="43.31294" lon="-1.3506">
        <ele>120</ele>
        <time>2022-08-27T17:04:00.000Z</time>
      </trkpt>
      <trkpt lat="43.31266" lon="-1.35074">
        <ele>119</ele>
        <time>2022-08-27T17:04:05.000Z</time>
      </trkpt>
      <trkpt lat="43.31162" lon="-1.35076">
        <ele>103</ele>
        <time>2022-08-27T17:04:24.000Z</time>
      </trkpt>
      <trkpt lat="43.31138" lon="-1.3509">
        <ele>102</ele>
        <time>2022-08-27T17:04:29.000Z</time>
      </trkpt>
      <trkpt lat="43.31117" lon="-1.35117">
        <ele>102</ele>
        <time>2022-08-27T17:04:34.000Z</time>
      </trkpt>
      <trkpt lat="43.31059" lon="-1.35226">
        <ele>101</ele>
        <time>2022-08-27T17:04:51.000Z</time>
      </trkpt>
      <trkpt lat="43.31007" lon="-1.35284">
        <ele>104</ele>
        <time>2022-08-27T17:05:03.000Z</time>
      </trkpt>
      <trkpt lat="43.30926" lon="-1.35437">
        <ele>97</ele>
        <time>2022-08-27T17:05:28.000Z</time>
      </trkpt>
      <trkpt lat="43.30822" lon="-1.35804">
        <ele>94</ele>
        <time>2022-08-27T17:06:19.000Z</time>
      </trkpt>
      <trkpt lat="43.30784" lon="-1.35917">
        <ele>94</ele>
        <time>2022-08-27T17:06:35.000Z</time>
      </trkpt>
      <trkpt lat="43.30758" lon="-1.35957">
        <ele>92</ele>
        <time>2022-08-27T17:06:42.000Z</time>
      </trkpt>
      <trkpt lat="43.30739" lon="-1.35978">
        <ele>91</ele>
        <time>2022-08-27T17:06:46.000Z</time>
      </trkpt>
      <trkpt lat="43.30656" lon="-1.36039">
        <ele>89</ele>
        <time>2022-08-27T17:07:03.000Z</time>
      </trkpt>
      <trkpt lat="43.30628" lon="-1.3604">
        <ele>88</ele>
        <time>2022-08-27T17:07:08.000Z</time>
      </trkpt>
      <trkpt lat="43.30607" lon="-1.36032">
        <ele>88</ele>
        <time>2022-08-27T17:07:12.000Z</time>
      </trkpt>
      <trkpt lat="43.30592" lon="-1.36022">
        <ele>88</ele>
        <time>2022-08-27T17:07:15.000Z</time>
      </trkpt>
      <trkpt lat="43.3056" lon="-1.3599">
        <ele>89</ele>
        <time>2022-08-27T17:07:22.000Z</time>
      </trkpt>
      <trkpt lat="43.30527" lon="-1.35943">
        <ele>91</ele>
        <time>2022-08-27T17:07:30.000Z</time>
      </trkpt>
      <trkpt lat="43.30509" lon="-1.35913">
        <ele>91</ele>
        <time>2022-08-27T17:07:35.000Z</time>
      </trkpt>
      <trkpt lat="43.30487" lon="-1.35861">
        <ele>94</ele>
        <time>2022-08-27T17:07:43.000Z</time>
      </trkpt>
      <trkpt lat="43.3046" lon="-1.35772">
        <ele>94</ele>
        <time>2022-08-27T17:07:55.000Z</time>
      </trkpt>
      <trkpt lat="43.30449" lon="-1.35726">
        <ele>91</ele>
        <time>2022-08-27T17:08:02.000Z</time>
      </trkpt>
      <trkpt lat="43.30442" lon="-1.35659">
        <ele>85</ele>
        <time>2022-08-27T17:08:11.000Z</time>
      </trkpt>
      <trkpt lat="43.30447" lon="-1.35605">
        <ele>84</ele>
        <time>2022-08-27T17:08:18.000Z</time>
      </trkpt>
      <trkpt lat="43.30496" lon="-1.35435">
        <ele>87</ele>
        <time>2022-08-27T17:08:41.000Z</time>
      </trkpt>
      <trkpt lat="43.305" lon="-1.3538">
        <ele>87</ele>
        <time>2022-08-27T17:08:48.000Z</time>
      </trkpt>
      <trkpt lat="43.30486" lon="-1.3532">
        <ele>84</ele>
        <time>2022-08-27T17:08:57.000Z</time>
      </trkpt>
      <trkpt lat="43.30431" lon="-1.35179">
        <ele>76</ele>
        <time>2022-08-27T17:09:17.000Z</time>
      </trkpt>
      <trkpt lat="43.30411" lon="-1.35144">
        <ele>75</ele>
        <time>2022-08-27T17:09:23.000Z</time>
      </trkpt>
      <trkpt lat="43.30393" lon="-1.35121">
        <ele>76</ele>
        <time>2022-08-27T17:09:27.000Z</time>
      </trkpt>
      <trkpt lat="43.30354" lon="-1.35088">
        <ele>76</ele>
        <time>2022-08-27T17:09:36.000Z</time>
      </trkpt>
      <trkpt lat="43.3029" lon="-1.35054">
        <ele>76</ele>
        <time>2022-08-27T17:09:48.000Z</time>
      </trkpt>
      <trkpt lat="43.3018" lon="-1.35004">
        <ele>74</ele>
        <time>2022-08-27T17:10:08.000Z</time>
      </trkpt>
      <trkpt lat="43.30138" lon="-1.34994">
        <ele>73</ele>
        <time>2022-08-27T17:10:16.000Z</time>
      </trkpt>
      <trkpt lat="43.30076" lon="-1.34989">
        <ele>73</ele>
        <time>2022-08-27T17:10:27.000Z</time>
      </trkpt>
      <trkpt lat="43.29863" lon="-1.35011">
        <ele>73</ele>
        <time>2022-08-27T17:11:05.000Z</time>
      </trkpt>
      <trkpt lat="43.29823" lon="-1.35016">
        <ele>74</ele>
        <time>2022-08-27T17:11:12.000Z</time>
      </trkpt>
      <trkpt lat="43.29664" lon="-1.35016">
        <ele>86</ele>
        <time>2022-08-27T17:11:41.000Z</time>
      </trkpt>
      <trkpt lat="43.2961" lon="-1.35028">
        <ele>88</ele>
        <time>2022-08-27T17:11:50.000Z</time>
      </trkpt>
      <trkpt lat="43.29552" lon="-1.35054">
        <ele>86</ele>
        <time>2022-08-27T17:12:01.000Z</time>
      </trkpt>
      <trkpt lat="43.29529" lon="-1.35068">
        <ele>85</ele>
        <time>2022-08-27T17:12:06.000Z</time>
      </trkpt>
      <trkpt lat="43.29486" lon="-1.35102">
        <ele>84</ele>
        <time>2022-08-27T17:12:14.000Z</time>
      </trkpt>
      <trkpt lat="43.29323" lon="-1.35257">
        <ele>74</ele>
        <time>2022-08-27T17:12:50.000Z</time>
      </trkpt>
      <trkpt lat="43.29223" lon="-1.35322">
        <ele>71</ele>
        <time>2022-08-27T17:13:10.000Z</time>
      </trkpt>
      <trkpt lat="43.29194" lon="-1.35328">
        <ele>71</ele>
        <time>2022-08-27T17:13:15.000Z</time>
      </trkpt>
      <trkpt lat="43.2912" lon="-1.35322">
        <ele>71</ele>
        <time>2022-08-27T17:13:28.000Z</time>
      </trkpt>
      <trkpt lat="43.29093" lon="-1.35312">
        <ele>72</ele>
        <time>2022-08-27T17:13:33.000Z</time>
      </trkpt>
      <trkpt lat="43.28877" lon="-1.35197">
        <ele>84</ele>
        <time>2022-08-27T17:14:14.000Z</time>
      </trkpt>
      <trkpt lat="43.2886" lon="-1.35191">
        <ele>85</ele>
        <time>2022-08-27T17:14:17.000Z</time>
      </trkpt>
      <trkpt lat="43.28714" lon="-1.35162">
        <ele>89</ele>
        <time>2022-08-27T17:14:44.000Z</time>
      </trkpt>
      <trkpt lat="43.2866" lon="-1.35167">
        <ele>89</ele>
        <time>2022-08-27T17:14:53.000Z</time>
      </trkpt>
      <trkpt lat="43.28607" lon="-1.35187">
        <ele>86</ele>
        <time>2022-08-27T17:15:03.000Z</time>
      </trkpt>
      <trkpt lat="43.28479" lon="-1.35296">
        <ele>76</ele>
        <time>2022-08-27T17:15:30.000Z</time>
      </trkpt>
      <trkpt lat="43.28443" lon="-1.35325">
        <ele>75</ele>
        <time>2022-08-27T17:15:37.000Z</time>
      </trkpt>
      <trkpt lat="43.28366" lon="-1.35371">
        <ele>74</ele>
        <time>2022-08-27T17:15:52.000Z</time>
      </trkpt>
      <trkpt lat="43.28346" lon="-1.35381">
        <ele>74</ele>
        <time>2022-08-27T17:15:56.000Z</time>
      </trkpt>
      <trkpt lat="43.28281" lon="-1.35396">
        <ele>75</ele>
        <time>2022-08-27T17:16:08.000Z</time>
      </trkpt>
      <trkpt lat="43.28245" lon="-1.35396">
        <ele>76</ele>
        <time>2022-08-27T17:16:14.000Z</time>
      </trkpt>
      <trkpt lat="43.28203" lon="-1.35388">
        <ele>78</ele>
        <time>2022-08-27T17:16:22.000Z</time>
      </trkpt>
      <trkpt lat="43.28106" lon="-1.35348">
        <ele>81</ele>
        <time>2022-08-27T17:16:40.000Z</time>
      </trkpt>
      <trkpt lat="43.2804" lon="-1.35313">
        <ele>82</ele>
        <time>2022-08-27T17:16:52.000Z</time>
      </trkpt>
      <trkpt lat="43.2799" lon="-1.35275">
        <ele>83</ele>
        <time>2022-08-27T17:17:02.000Z</time>
      </trkpt>
      <trkpt lat="43.27914" lon="-1.3518">
        <ele>86</ele>
        <time>2022-08-27T17:17:21.000Z</time>
      </trkpt>
      <trkpt lat="43.27877" lon="-1.35144">
        <ele>86</ele>
        <time>2022-08-27T17:17:29.000Z</time>
      </trkpt>
      <trkpt lat="43.27475" lon="-1.34923">
        <ele>88</ele>
        <time>2022-08-27T17:18:46.000Z</time>
      </trkpt>
      <trkpt lat="43.27364" lon="-1.34874">
        <ele>86</ele>
        <time>2022-08-27T17:19:07.000Z</time>
      </trkpt>
      <trkpt lat="43.27242" lon="-1.34779">
        <ele>96</ele>
        <time>2022-08-27T17:19:32.000Z</time>
      </trkpt>
      <trkpt lat="43.27197" lon="-1.34747">
        <ele>93</ele>
        <time>2022-08-27T17:19:41.000Z</time>
      </trkpt>
      <trkpt lat="43.27049" lon="-1.34663">
        <ele>86</ele>
        <time>2022-08-27T17:20:09.000Z</time>
      </trkpt>
      <trkpt lat="43.27008" lon="-1.34636">
        <ele>87</ele>
        <time>2022-08-27T17:20:17.000Z</time>
      </trkpt>
      <trkpt lat="43.26831" lon="-1.34442">
        <ele>88</ele>
        <time>2022-08-27T17:20:58.000Z</time>
      </trkpt>
      <trkpt lat="43.26803" lon="-1.34395">
        <ele>93</ele>
        <time>2022-08-27T17:21:06.000Z</time>
      </trkpt>
      <trkpt lat="43.26745" lon="-1.34257">
        <ele>98</ele>
        <time>2022-08-27T17:21:26.000Z</time>
      </trkpt>
      <trkpt lat="43.2671" lon="-1.341">
        <ele>105</ele>
        <time>2022-08-27T17:21:48.000Z</time>
      </trkpt>
      <trkpt lat="43.26698" lon="-1.34059">
        <ele>99</ele>
        <time>2022-08-27T17:21:53.000Z</time>
      </trkpt>
      <trkpt lat="43.26648" lon="-1.33944">
        <ele>83</ele>
        <time>2022-08-27T17:22:11.000Z</time>
      </trkpt>
      <trkpt lat="43.26627" lon="-1.33888">
        <ele>83</ele>
        <time>2022-08-27T17:22:19.000Z</time>
      </trkpt>
      <trkpt lat="43.26604" lon="-1.3373">
        <ele>82</ele>
        <time>2022-08-27T17:22:40.000Z</time>
      </trkpt>
      <trkpt lat="43.26606" lon="-1.33676">
        <ele>83</ele>
        <time>2022-08-27T17:22:47.000Z</time>
      </trkpt>
      <trkpt lat="43.26612" lon="-1.33636">
        <ele>83</ele>
        <time>2022-08-27T17:22:52.000Z</time>
      </trkpt>
      <trkpt lat="43.26654" lon="-1.33479">
        <ele>85</ele>
        <time>2022-08-27T17:23:14.000Z</time>
      </trkpt>
      <trkpt lat="43.26669" lon="-1.33366">
        <ele>84</ele>
        <time>2022-08-27T17:23:29.000Z</time>
      </trkpt>
      <trkpt lat="43.26676" lon="-1.33137">
        <ele>83</ele>
        <time>2022-08-27T17:23:58.000Z</time>
      </trkpt>
      <trkpt lat="43.26671" lon="-1.33099">
        <ele>83</ele>
        <time>2022-08-27T17:24:03.000Z</time>
      </trkpt>
      <trkpt lat="43.26656" lon="-1.33046">
        <ele>86</ele>
        <time>2022-08-27T17:24:11.000Z</time>
      </trkpt>
      <trkpt lat="43.26602" lon="-1.329">
        <ele>92</ele>
        <time>2022-08-27T17:24:32.000Z</time>
      </trkpt>
      <trkpt lat="43.26564" lon="-1.32825">
        <ele>97</ele>
        <time>2022-08-27T17:24:44.000Z</time>
      </trkpt>
      <trkpt lat="43.26481" lon="-1.32722">
        <ele>100</ele>
        <time>2022-08-27T17:25:04.000Z</time>
      </trkpt>
      <trkpt lat="43.26371" lon="-1.32582">
        <ele>103</ele>
        <time>2022-08-27T17:25:30.000Z</time>
      </trkpt>
      <trkpt lat="43.26353" lon="-1.32555">
        <ele>102</ele>
        <time>2022-08-27T17:25:35.000Z</time>
      </trkpt>
      <trkpt lat="43.26235" lon="-1.32332">
        <ele>111</ele>
        <time>2022-08-27T17:26:11.000Z</time>
      </trkpt>
      <trkpt lat="43.26114" lon="-1.32202">
        <ele>106</ele>
        <time>2022-08-27T17:26:38.000Z</time>
      </trkpt>
      <trkpt lat="43.26094" lon="-1.3217">
        <ele>101</ele>
        <time>2022-08-27T17:26:44.000Z</time>
      </trkpt>
      <trkpt lat="43.26048" lon="-1.32074">
        <ele>105</ele>
        <time>2022-08-27T17:26:59.000Z</time>
      </trkpt>
      <trkpt lat="43.25998" lon="-1.32014">
        <ele>104</ele>
        <time>2022-08-27T17:27:10.000Z</time>
      </trkpt>
      <trkpt lat="43.25964" lon="-1.31991">
        <ele>105</ele>
        <time>2022-08-27T17:27:17.000Z</time>
      </trkpt>
      <trkpt lat="43.25832" lon="-1.31922">
        <ele>101</ele>
        <time>2022-08-27T17:27:42.000Z</time>
      </trkpt>
      <trkpt lat="43.25802" lon="-1.31913">
        <ele>102</ele>
        <time>2022-08-27T17:27:48.000Z</time>
      </trkpt>
      <trkpt lat="43.25678" lon="-1.31908">
        <ele>105</ele>
        <time>2022-08-27T17:28:10.000Z</time>
      </trkpt>
      <trkpt lat="43.25647" lon="-1.31914">
        <ele>111</ele>
        <time>2022-08-27T17:28:15.000Z</time>
      </trkpt>
      <trkpt lat="43.25599" lon="-1.31952">
        <ele>116</ele>
        <time>2022-08-27T17:28:25.000Z</time>
      </trkpt>
      <trkpt lat="43.25576" lon="-1.31986">
        <ele>110</ele>
        <time>2022-08-27T17:28:31.000Z</time>
      </trkpt>
      <trkpt lat="43.25543" lon="-1.32099">
        <ele>103</ele>
        <time>2022-08-27T17:28:47.000Z</time>
      </trkpt>
      <trkpt lat="43.25528" lon="-1.32125">
        <ele>103</ele>
        <time>2022-08-27T17:28:52.000Z</time>
      </trkpt>
      <trkpt lat="43.25505" lon="-1.32146">
        <ele>102</ele>
        <time>2022-08-27T17:28:56.000Z</time>
      </trkpt>
      <trkpt lat="43.25482" lon="-1.32153">
        <ele>100</ele>
        <time>2022-08-27T17:29:01.000Z</time>
      </trkpt>
      <trkpt lat="43.25467" lon="-1.32152">
        <ele>99</ele>
        <time>2022-08-27T17:29:03.000Z</time>
      </trkpt>
      <trkpt lat="43.25422" lon="-1.32131">
        <ele>100</ele>
        <time>2022-08-27T17:29:12.000Z</time>
      </trkpt>
      <trkpt lat="43.25398" lon="-1.3211">
        <ele>103</ele>
        <time>2022-08-27T17:29:17.000Z</time>
      </trkpt>
      <trkpt lat="43.25355" lon="-1.32042">
        <ele>108</ele>
        <time>2022-08-27T17:29:29.000Z</time>
      </trkpt>
      <trkpt lat="43.25319" lon="-1.31981">
        <ele>110</ele>
        <time>2022-08-27T17:29:39.000Z</time>
      </trkpt>
      <trkpt lat="43.25245" lon="-1.3191">
        <ele>108</ele>
        <time>2022-08-27T17:29:55.000Z</time>
      </trkpt>
      <trkpt lat="43.25183" lon="-1.31867">
        <ele>109</ele>
        <time>2022-08-27T17:30:07.000Z</time>
      </trkpt>
      <trkpt lat="43.25112" lon="-1.31837">
        <ele>105</ele>
        <time>2022-08-27T17:30:21.000Z</time>
      </trkpt>
      <trkpt lat="43.25067" lon="-1.31828">
        <ele>105</ele>
        <time>2022-08-27T17:30:29.000Z</time>
      </trkpt>
      <trkpt lat="43.24928" lon="-1.31849">
        <ele>110</ele>
        <time>2022-08-27T17:30:54.000Z</time>
      </trkpt>
      <trkpt lat="43.24902" lon="-1.31846">
        <ele>111</ele>
        <time>2022-08-27T17:30:58.000Z</time>
      </trkpt>
      <trkpt lat="43.24758" lon="-1.31762">
        <ele>112</ele>
        <time>2022-08-27T17:31:26.000Z</time>
      </trkpt>
      <trkpt lat="43.24729" lon="-1.31734">
        <ele>114</ele>
        <time>2022-08-27T17:31:32.000Z</time>
      </trkpt>
      <trkpt lat="43.24709" lon="-1.31707">
        <ele>116</ele>
        <time>2022-08-27T17:31:37.000Z</time>
      </trkpt>
      <trkpt lat="43.24618" lon="-1.31532">
        <ele>123</ele>
        <time>2022-08-27T17:32:05.000Z</time>
      </trkpt>
      <trkpt lat="43.24578" lon="-1.3139">
        <ele>117</ele>
        <time>2022-08-27T17:32:25.000Z</time>
      </trkpt>
      <trkpt lat="43.24453" lon="-1.31061">
        <ele>117</ele>
        <time>2022-08-27T17:33:13.000Z</time>
      </trkpt>
      <trkpt lat="43.2442" lon="-1.30934">
        <ele>110</ele>
        <time>2022-08-27T17:33:31.000Z</time>
      </trkpt>
      <trkpt lat="43.24403" lon="-1.30829">
        <ele>111</ele>
        <time>2022-08-27T17:33:45.000Z</time>
      </trkpt>
      <trkpt lat="43.24419" lon="-1.30364">
        <ele>121</ele>
        <time>2022-08-27T17:34:45.000Z</time>
      </trkpt>
      <trkpt lat="43.24409" lon="-1.30291">
        <ele>121</ele>
        <time>2022-08-27T17:34:55.000Z</time>
      </trkpt>
      <trkpt lat="43.24388" lon="-1.30209">
        <ele>121</ele>
        <time>2022-08-27T17:35:06.000Z</time>
      </trkpt>
      <trkpt lat="43.24323" lon="-1.30044">
        <ele>120</ele>
        <time>2022-08-27T17:35:30.000Z</time>
      </trkpt>
      <trkpt lat="43.24308" lon="-1.30012">
        <ele>119</ele>
        <time>2022-08-27T17:35:35.000Z</time>
      </trkpt>
      <trkpt lat="43.24286" lon="-1.29975">
        <ele>119</ele>
        <time>2022-08-27T17:35:41.000Z</time>
      </trkpt>
      <trkpt lat="43.24252" lon="-1.29933">
        <ele>116</ele>
        <time>2022-08-27T17:35:49.000Z</time>
      </trkpt>
      <trkpt lat="43.24043" lon="-1.29711">
        <ele>111</ele>
        <time>2022-08-27T17:36:36.000Z</time>
      </trkpt>
      <trkpt lat="43.23861" lon="-1.29604">
        <ele>103</ele>
        <time>2022-08-27T17:37:12.000Z</time>
      </trkpt>
      <trkpt lat="43.23846" lon="-1.29602">
        <ele>103</ele>
        <time>2022-08-27T17:37:14.000Z</time>
      </trkpt>
      <trkpt lat="43.23803" lon="-1.29604">
        <ele>103</ele>
        <time>2022-08-27T17:37:22.000Z</time>
      </trkpt>
      <trkpt lat="43.23725" lon="-1.29626">
        <ele>103</ele>
        <time>2022-08-27T17:37:36.000Z</time>
      </trkpt>
      <trkpt lat="43.23686" lon="-1.29634">
        <ele>103</ele>
        <time>2022-08-27T17:37:43.000Z</time>
      </trkpt>
      <trkpt lat="43.23553" lon="-1.29648">
        <ele>101</ele>
        <time>2022-08-27T17:38:07.000Z</time>
      </trkpt>
      <trkpt lat="43.23514" lon="-1.29661">
        <ele>102</ele>
        <time>2022-08-27T17:38:14.000Z</time>
      </trkpt>
      <trkpt lat="43.23495" lon="-1.29672">
        <ele>102</ele>
        <time>2022-08-27T17:38:18.000Z</time>
      </trkpt>
      <trkpt lat="43.23414" lon="-1.29742">
        <ele>104</ele>
        <time>2022-08-27T17:38:35.000Z</time>
      </trkpt>
      <trkpt lat="43.2306" lon="-1.30071">
        <ele>110</ele>
        <time>2022-08-27T17:39:51.000Z</time>
      </trkpt>
      <trkpt lat="43.23053" lon="-1.30081">
        <ele>110</ele>
        <time>2022-08-27T17:39:53.000Z</time>
      </trkpt>
      <trkpt lat="43.23035" lon="-1.30091">
        <ele>112</ele>
        <time>2022-08-27T17:39:56.000Z</time>
      </trkpt>
      <trkpt lat="43.23013" lon="-1.30094">
        <ele>114</ele>
        <time>2022-08-27T17:40:00.000Z</time>
      </trkpt>
    </trkseg>
  </trk>
  <trk>
    <name><![CDATA[Etapes_3]]></name>
    <trkseg>
      <trkpt lat="43.23013" lon="-1.30094">
        <ele>114</ele>
        <time>2022-08-27T17:40:00.000Z</time>
      </trkpt>
      <trkpt lat="43.22858" lon="-1.30091">
        <ele>130</ele>
        <time>2022-08-27T17:40:28.000Z</time>
      </trkpt>
      <trkpt lat="43.22825" lon="-1.30099">
        <ele>134</ele>
        <time>2022-08-27T17:40:34.000Z</time>
      </trkpt>
      <trkpt lat="43.228" lon="-1.30112">
        <ele>133</ele>
        <time>2022-08-27T17:40:38.000Z</time>
      </trkpt>
      <trkpt lat="43.22771" lon="-1.30134">
        <ele>129</ele>
        <time>2022-08-27T17:40:44.000Z</time>
      </trkpt>
      <trkpt lat="43.22718" lon="-1.30196">
        <ele>118</ele>
        <time>2022-08-27T17:40:57.000Z</time>
      </trkpt>
      <trkpt lat="43.22688" lon="-1.30223">
        <ele>115</ele>
        <time>2022-08-27T17:41:03.000Z</time>
      </trkpt>
      <trkpt lat="43.22655" lon="-1.30237">
        <ele>113</ele>
        <time>2022-08-27T17:41:09.000Z</time>
      </trkpt>
      <trkpt lat="43.22632" lon="-1.30237">
        <ele>112</ele>
        <time>2022-08-27T17:41:13.000Z</time>
      </trkpt>
      <trkpt lat="43.22593" lon="-1.30223">
        <ele>112</ele>
        <time>2022-08-27T17:41:21.000Z</time>
      </trkpt>
      <trkpt lat="43.22565" lon="-1.30198">
        <ele>115</ele>
        <time>2022-08-27T17:41:26.000Z</time>
      </trkpt>
      <trkpt lat="43.22467" lon="-1.29989">
        <ele>115</ele>
        <time>2022-08-27T17:41:59.000Z</time>
      </trkpt>
      <trkpt lat="43.22435" lon="-1.29926">
        <ele>116</ele>
        <time>2022-08-27T17:42:09.000Z</time>
      </trkpt>
      <trkpt lat="43.22383" lon="-1.29861">
        <ele>114</ele>
        <time>2022-08-27T17:42:21.000Z</time>
      </trkpt>
      <trkpt lat="43.22364" lon="-1.29846">
        <ele>113</ele>
        <time>2022-08-27T17:42:25.000Z</time>
      </trkpt>
      <trkpt lat="43.22306" lon="-1.29811">
        <ele>114</ele>
        <time>2022-08-27T17:42:36.000Z</time>
      </trkpt>
      <trkpt lat="43.22254" lon="-1.29789">
        <ele>116</ele>
        <time>2022-08-27T17:42:46.000Z</time>
      </trkpt>
      <trkpt lat="43.2206" lon="-1.29728">
        <ele>126</ele>
        <time>2022-08-27T17:43:22.000Z</time>
      </trkpt>
      <trkpt lat="43.2202" lon="-1.29712">
        <ele>125</ele>
        <time>2022-08-27T17:43:29.000Z</time>
      </trkpt>
      <trkpt lat="43.21893" lon="-1.2961">
        <ele>119</ele>
        <time>2022-08-27T17:43:55.000Z</time>
      </trkpt>
      <trkpt lat="43.21834" lon="-1.29581">
        <ele>118</ele>
        <time>2022-08-27T17:44:06.000Z</time>
      </trkpt>
      <trkpt lat="43.21558" lon="-1.29485">
        <ele>123</ele>
        <time>2022-08-27T17:44:57.000Z</time>
      </trkpt>
      <trkpt lat="43.21504" lon="-1.29457">
        <ele>127</ele>
        <time>2022-08-27T17:45:07.000Z</time>
      </trkpt>
      <trkpt lat="43.21486" lon="-1.29442">
        <ele>131</ele>
        <time>2022-08-27T17:45:11.000Z</time>
      </trkpt>
      <trkpt lat="43.21457" lon="-1.29412">
        <ele>139</ele>
        <time>2022-08-27T17:45:17.000Z</time>
      </trkpt>
      <trkpt lat="43.21367" lon="-1.29268">
        <ele>137</ele>
        <time>2022-08-27T17:45:42.000Z</time>
      </trkpt>
      <trkpt lat="43.21343" lon="-1.29217">
        <ele>133</ele>
        <time>2022-08-27T17:45:50.000Z</time>
      </trkpt>
      <trkpt lat="43.21339" lon="-1.29189">
        <ele>131</ele>
        <time>2022-08-27T17:45:54.000Z</time>
      </trkpt>
      <trkpt lat="43.21333" lon="-1.29078">
        <ele>131</ele>
        <time>2022-08-27T17:46:08.000Z</time>
      </trkpt>
      <trkpt lat="43.21336" lon="-1.28991">
        <ele>128</ele>
        <time>2022-08-27T17:46:19.000Z</time>
      </trkpt>
      <trkpt lat="43.21343" lon="-1.28899">
        <ele>130</ele>
        <time>2022-08-27T17:46:31.000Z</time>
      </trkpt>
      <trkpt lat="43.21338" lon="-1.28797">
        <ele>128</ele>
        <time>2022-08-27T17:46:45.000Z</time>
      </trkpt>
      <trkpt lat="43.21325" lon="-1.28722">
        <ele>127</ele>
        <time>2022-08-27T17:46:55.000Z</time>
      </trkpt>
      <trkpt lat="43.21315" lon="-1.28688">
        <ele>127</ele>
        <time>2022-08-27T17:46:59.000Z</time>
      </trkpt>
      <trkpt lat="43.21303" lon="-1.28667">
        <ele>128</ele>
        <time>2022-08-27T17:47:03.000Z</time>
      </trkpt>
      <trkpt lat="43.21239" lon="-1.28594">
        <ele>131</ele>
        <time>2022-08-27T17:47:18.000Z</time>
      </trkpt>
      <trkpt lat="43.21201" lon="-1.28532">
        <ele>137</ele>
        <time>2022-08-27T17:47:28.000Z</time>
      </trkpt>
      <trkpt lat="43.21188" lon="-1.28505">
        <ele>137</ele>
        <time>2022-08-27T17:47:32.000Z</time>
      </trkpt>
      <trkpt lat="43.21178" lon="-1.28469">
        <ele>136</ele>
        <time>2022-08-27T17:47:37.000Z</time>
      </trkpt>
      <trkpt lat="43.21165" lon="-1.28392">
        <ele>132</ele>
        <time>2022-08-27T17:47:48.000Z</time>
      </trkpt>
      <trkpt lat="43.21166" lon="-1.28198">
        <ele>125</ele>
        <time>2022-08-27T17:48:13.000Z</time>
      </trkpt>
      <trkpt lat="43.21148" lon="-1.2812">
        <ele>126</ele>
        <time>2022-08-27T17:48:23.000Z</time>
      </trkpt>
      <trkpt lat="43.21139" lon="-1.28102">
        <ele>126</ele>
        <time>2022-08-27T17:48:26.000Z</time>
      </trkpt>
      <trkpt lat="43.21013" lon="-1.27949">
        <ele>135</ele>
        <time>2022-08-27T17:48:56.000Z</time>
      </trkpt>
      <trkpt lat="43.20889" lon="-1.27784">
        <ele>145</ele>
        <time>2022-08-27T17:49:27.000Z</time>
      </trkpt>
      <trkpt lat="43.20855" lon="-1.27727">
        <ele>141</ele>
        <time>2022-08-27T17:49:37.000Z</time>
      </trkpt>
      <trkpt lat="43.20777" lon="-1.27542">
        <ele>130</ele>
        <time>2022-08-27T17:50:04.000Z</time>
      </trkpt>
      <trkpt lat="43.20754" lon="-1.27514">
        <ele>126</ele>
        <time>2022-08-27T17:50:10.000Z</time>
      </trkpt>
      <trkpt lat="43.20701" lon="-1.27479">
        <ele>131</ele>
        <time>2022-08-27T17:50:20.000Z</time>
      </trkpt>
      <trkpt lat="43.20649" lon="-1.27461">
        <ele>133</ele>
        <time>2022-08-27T17:50:30.000Z</time>
      </trkpt>
      <trkpt lat="43.20553" lon="-1.27473">
        <ele>139</ele>
        <time>2022-08-27T17:50:47.000Z</time>
      </trkpt>
      <trkpt lat="43.20512" lon="-1.27471">
        <ele>141</ele>
        <time>2022-08-27T17:50:54.000Z</time>
      </trkpt>
      <trkpt lat="43.20502" lon="-1.27468">
        <ele>141</ele>
        <time>2022-08-27T17:50:56.000Z</time>
      </trkpt>
      <trkpt lat="43.20492" lon="-1.27463">
        <ele>142</ele>
        <time>2022-08-27T17:50:58.000Z</time>
      </trkpt>
      <trkpt lat="43.20462" lon="-1.27432">
        <ele>142</ele>
        <time>2022-08-27T17:51:05.000Z</time>
      </trkpt>
      <trkpt lat="43.20445" lon="-1.27395">
        <ele>143</ele>
        <time>2022-08-27T17:51:10.000Z</time>
      </trkpt>
      <trkpt lat="43.20436" lon="-1.27351">
        <ele>143</ele>
        <time>2022-08-27T17:51:16.000Z</time>
      </trkpt>
      <trkpt lat="43.20435" lon="-1.27273">
        <ele>141</ele>
        <time>2022-08-27T17:51:26.000Z</time>
      </trkpt>
      <trkpt lat="43.2046" lon="-1.27071">
        <ele>140</ele>
        <time>2022-08-27T17:51:53.000Z</time>
      </trkpt>
      <trkpt lat="43.2047" lon="-1.26892">
        <ele>141</ele>
        <time>2022-08-27T17:52:16.000Z</time>
      </trkpt>
      <trkpt lat="43.20468" lon="-1.26829">
        <ele>140</ele>
        <time>2022-08-27T17:52:24.000Z</time>
      </trkpt>
      <trkpt lat="43.2044" lon="-1.26734">
        <ele>146</ele>
        <time>2022-08-27T17:52:38.000Z</time>
      </trkpt>
      <trkpt lat="43.20428" lon="-1.26681">
        <ele>147</ele>
        <time>2022-08-27T17:52:45.000Z</time>
      </trkpt>
      <trkpt lat="43.2037" lon="-1.26271">
        <ele>144</ele>
        <time>2022-08-27T17:53:39.000Z</time>
      </trkpt>
      <trkpt lat="43.20359" lon="-1.26226">
        <ele>142</ele>
        <time>2022-08-27T17:53:45.000Z</time>
      </trkpt>
      <trkpt lat="43.20341" lon="-1.26184">
        <ele>141</ele>
        <time>2022-08-27T17:53:52.000Z</time>
      </trkpt>
      <trkpt lat="43.20327" lon="-1.26159">
        <ele>141</ele>
        <time>2022-08-27T17:53:56.000Z</time>
      </trkpt>
      <trkpt lat="43.20258" lon="-1.2606">
        <ele>143</ele>
        <time>2022-08-27T17:54:14.000Z</time>
      </trkpt>
      <trkpt lat="43.20248" lon="-1.26049">
        <ele>143</ele>
        <time>2022-08-27T17:54:16.000Z</time>
      </trkpt>
      <trkpt lat="43.20226" lon="-1.26031">
        <ele>144</ele>
        <time>2022-08-27T17:54:20.000Z</time>
      </trkpt>
      <trkpt lat="43.20211" lon="-1.26024">
        <ele>145</ele>
        <time>2022-08-27T17:54:23.000Z</time>
      </trkpt>
      <trkpt lat="43.20094" lon="-1.25982">
        <ele>146</ele>
        <time>2022-08-27T17:54:45.000Z</time>
      </trkpt>
      <trkpt lat="43.20033" lon="-1.2595">
        <ele>146</ele>
        <time>2022-08-27T17:54:56.000Z</time>
      </trkpt>
      <trkpt lat="43.20012" lon="-1.25936">
        <ele>144</ele>
        <time>2022-08-27T17:55:00.000Z</time>
      </trkpt>
      <trkpt lat="43.19963" lon="-1.25894">
        <ele>143</ele>
        <time>2022-08-27T17:55:11.000Z</time>
      </trkpt>
      <trkpt lat="43.19893" lon="-1.2581">
        <ele>138</ele>
        <time>2022-08-27T17:55:27.000Z</time>
      </trkpt>
      <trkpt lat="43.19876" lon="-1.25794">
        <ele>139</ele>
        <time>2022-08-27T17:55:31.000Z</time>
      </trkpt>
      <trkpt lat="43.19818" lon="-1.25756">
        <ele>139</ele>
        <time>2022-08-27T17:55:42.000Z</time>
      </trkpt>
      <trkpt lat="43.1972" lon="-1.25698">
        <ele>142</ele>
        <time>2022-08-27T17:56:01.000Z</time>
      </trkpt>
      <trkpt lat="43.19662" lon="-1.25672">
        <ele>142</ele>
        <time>2022-08-27T17:56:12.000Z</time>
      </trkpt>
      <trkpt lat="43.19584" lon="-1.25645">
        <ele>141</ele>
        <time>2022-08-27T17:56:27.000Z</time>
      </trkpt>
      <trkpt lat="43.19465" lon="-1.2564">
        <ele>144</ele>
        <time>2022-08-27T17:56:48.000Z</time>
      </trkpt>
      <trkpt lat="43.19438" lon="-1.25638">
        <ele>144</ele>
        <time>2022-08-27T17:56:53.000Z</time>
      </trkpt>
      <trkpt lat="43.19339" lon="-1.25586">
        <ele>139</ele>
        <time>2022-08-27T17:57:11.000Z</time>
      </trkpt>
      <trkpt lat="43.19248" lon="-1.25542">
        <ele>148</ele>
        <time>2022-08-27T17:57:29.000Z</time>
      </trkpt>
      <trkpt lat="43.19157" lon="-1.25479">
        <ele>146</ele>
        <time>2022-08-27T17:57:47.000Z</time>
      </trkpt>
      <trkpt lat="43.19137" lon="-1.25462">
        <ele>147</ele>
        <time>2022-08-27T17:57:51.000Z</time>
      </trkpt>
      <trkpt lat="43.18997" lon="-1.25297">
        <ele>149</ele>
        <time>2022-08-27T17:58:24.000Z</time>
      </trkpt>
      <trkpt lat="43.18962" lon="-1.25264">
        <ele>148</ele>
        <time>2022-08-27T17:58:31.000Z</time>
      </trkpt>
      <trkpt lat="43.18898" lon="-1.25237">
        <ele>149</ele>
        <time>2022-08-27T17:58:43.000Z</time>
      </trkpt>
      <trkpt lat="43.18865" lon="-1.25232">
        <ele>149</ele>
        <time>2022-08-27T17:58:49.000Z</time>
      </trkpt>
      <trkpt lat="43.18838" lon="-1.25234">
        <ele>151</ele>
        <time>2022-08-27T17:58:54.000Z</time>
      </trkpt>
      <trkpt lat="43.18731" lon="-1.25254">
        <ele>151</ele>
        <time>2022-08-27T17:59:13.000Z</time>
      </trkpt>
      <trkpt lat="43.18709" lon="-1.25267">
        <ele>151</ele>
        <time>2022-08-27T17:59:18.000Z</time>
      </trkpt>
      <trkpt lat="43.18684" lon="-1.25297">
        <ele>151</ele>
        <time>2022-08-27T17:59:23.000Z</time>
      </trkpt>
      <trkpt lat="43.18671" lon="-1.2533">
        <ele>151</ele>
        <time>2022-08-27T17:59:28.000Z</time>
      </trkpt>
      <trkpt lat="43.18647" lon="-1.25532">
        <ele>161</ele>
        <time>2022-08-27T17:59:55.000Z</time>
      </trkpt>
      <trkpt lat="43.18627" lon="-1.25612">
        <ele>165</ele>
        <time>2022-08-27T18:00:06.000Z</time>
      </trkpt>
      <trkpt lat="43.18603" lon="-1.25682">
        <ele>166</ele>
        <time>2022-08-27T18:00:16.000Z</time>
      </trkpt>
      <trkpt lat="43.18572" lon="-1.25728">
        <ele>168</ele>
        <time>2022-08-27T18:00:24.000Z</time>
      </trkpt>
      <trkpt lat="43.18558" lon="-1.2574">
        <ele>168</ele>
        <time>2022-08-27T18:00:27.000Z</time>
      </trkpt>
      <trkpt lat="43.18521" lon="-1.2576">
        <ele>166</ele>
        <time>2022-08-27T18:00:34.000Z</time>
      </trkpt>
      <trkpt lat="43.18494" lon="-1.2577">
        <ele>165</ele>
        <time>2022-08-27T18:00:39.000Z</time>
      </trkpt>
      <trkpt lat="43.1837" lon="-1.25784">
        <ele>168</ele>
        <time>2022-08-27T18:01:01.000Z</time>
      </trkpt>
      <trkpt lat="43.18331" lon="-1.25797">
        <ele>169</ele>
        <time>2022-08-27T18:01:08.000Z</time>
      </trkpt>
      <trkpt lat="43.18291" lon="-1.25817">
        <ele>167</ele>
        <time>2022-08-27T18:01:16.000Z</time>
      </trkpt>
      <trkpt lat="43.18279" lon="-1.25826">
        <ele>165</ele>
        <time>2022-08-27T18:01:18.000Z</time>
      </trkpt>
      <trkpt lat="43.18219" lon="-1.25883">
        <ele>167</ele>
        <time>2022-08-27T18:01:31.000Z</time>
      </trkpt>
      <trkpt lat="43.18184" lon="-1.25921">
        <ele>165</ele>
        <time>2022-08-27T18:01:39.000Z</time>
      </trkpt>
      <trkpt lat="43.1815" lon="-1.25943">
        <ele>165</ele>
        <time>2022-08-27T18:01:46.000Z</time>
      </trkpt>
      <trkpt lat="43.18131" lon="-1.25949">
        <ele>164</ele>
        <time>2022-08-27T18:01:49.000Z</time>
      </trkpt>
      <trkpt lat="43.18096" lon="-1.25953">
        <ele>159</ele>
        <time>2022-08-27T18:01:56.000Z</time>
      </trkpt>
      <trkpt lat="43.18054" lon="-1.25949">
        <ele>154</ele>
        <time>2022-08-27T18:02:03.000Z</time>
      </trkpt>
      <trkpt lat="43.17853" lon="-1.25917">
        <ele>148</ele>
        <time>2022-08-27T18:02:39.000Z</time>
      </trkpt>
      <trkpt lat="43.17825" lon="-1.25906">
        <ele>148</ele>
        <time>2022-08-27T18:02:45.000Z</time>
      </trkpt>
      <trkpt lat="43.17788" lon="-1.25872">
        <ele>149</ele>
        <time>2022-08-27T18:02:52.000Z</time>
      </trkpt>
      <trkpt lat="43.17769" lon="-1.25838">
        <ele>150</ele>
        <time>2022-08-27T18:02:58.000Z</time>
      </trkpt>
      <trkpt lat="43.17455" lon="-1.25183">
        <ele>154</ele>
        <time>2022-08-27T18:04:40.000Z</time>
      </trkpt>
      <trkpt lat="43.17435" lon="-1.25151">
        <ele>155</ele>
        <time>2022-08-27T18:04:45.000Z</time>
      </trkpt>
      <trkpt lat="43.1742" lon="-1.25136">
        <ele>154</ele>
        <time>2022-08-27T18:04:49.000Z</time>
      </trkpt>
      <trkpt lat="43.17405" lon="-1.25128">
        <ele>154</ele>
        <time>2022-08-27T18:04:51.000Z</time>
      </trkpt>
      <trkpt lat="43.1737" lon="-1.25122">
        <ele>154</ele>
        <time>2022-08-27T18:04:58.000Z</time>
      </trkpt>
      <trkpt lat="43.17318" lon="-1.2512">
        <ele>156</ele>
        <time>2022-08-27T18:05:07.000Z</time>
      </trkpt>
      <trkpt lat="43.17296" lon="-1.2511">
        <ele>158</ele>
        <time>2022-08-27T18:05:11.000Z</time>
      </trkpt>
      <trkpt lat="43.17285" lon="-1.251">
        <ele>159</ele>
        <time>2022-08-27T18:05:13.000Z</time>
      </trkpt>
      <trkpt lat="43.17194" lon="-1.24923">
        <ele>168</ele>
        <time>2022-08-27T18:05:42.000Z</time>
      </trkpt>
      <trkpt lat="43.17172" lon="-1.24883">
        <ele>166</ele>
        <time>2022-08-27T18:05:48.000Z</time>
      </trkpt>
      <trkpt lat="43.17107" lon="-1.24816">
        <ele>156</ele>
        <time>2022-08-27T18:06:03.000Z</time>
      </trkpt>
      <trkpt lat="43.16674" lon="-1.24602">
        <ele>156</ele>
        <time>2022-08-27T18:07:25.000Z</time>
      </trkpt>
      <trkpt lat="43.16583" lon="-1.24478">
        <ele>157</ele>
        <time>2022-08-27T18:07:47.000Z</time>
      </trkpt>
      <trkpt lat="43.1643" lon="-1.24272">
        <ele>164</ele>
        <time>2022-08-27T18:08:26.000Z</time>
      </trkpt>
      <trkpt lat="43.16407" lon="-1.24233">
        <ele>164</ele>
        <time>2022-08-27T18:08:32.000Z</time>
      </trkpt>
      <trkpt lat="43.16395" lon="-1.24176">
        <ele>164</ele>
        <time>2022-08-27T18:08:40.000Z</time>
      </trkpt>
      <trkpt lat="43.16378" lon="-1.24125">
        <ele>163</ele>
        <time>2022-08-27T18:08:47.000Z</time>
      </trkpt>
      <trkpt lat="43.16342" lon="-1.24078">
        <ele>164</ele>
        <time>2022-08-27T18:08:56.000Z</time>
      </trkpt>
      <trkpt lat="43.16247" lon="-1.23944">
        <ele>165</ele>
        <time>2022-08-27T18:09:20.000Z</time>
      </trkpt>
      <trkpt lat="43.16204" lon="-1.239">
        <ele>167</ele>
        <time>2022-08-27T18:09:30.000Z</time>
      </trkpt>
      <trkpt lat="43.16196" lon="-1.23884">
        <ele>168</ele>
        <time>2022-08-27T18:09:32.000Z</time>
      </trkpt>
      <trkpt lat="43.16311" lon="-1.23773">
        <ele>168</ele>
        <time>2022-08-27T18:09:57.000Z</time>
      </trkpt>
      <trkpt lat="43.16382" lon="-1.23672">
        <ele>176</ele>
        <time>2022-08-27T18:10:16.000Z</time>
      </trkpt>
      <trkpt lat="43.16406" lon="-1.23616">
        <ele>176</ele>
        <time>2022-08-27T18:10:24.000Z</time>
      </trkpt>
      <trkpt lat="43.16415" lon="-1.23587">
        <ele>175</ele>
        <time>2022-08-27T18:10:28.000Z</time>
      </trkpt>
      <trkpt lat="43.16431" lon="-1.23456">
        <ele>173</ele>
        <time>2022-08-27T18:10:45.000Z</time>
      </trkpt>
      <trkpt lat="43.16444" lon="-1.23436">
        <ele>171</ele>
        <time>2022-08-27T18:10:49.000Z</time>
      </trkpt>
      <trkpt lat="43.16453" lon="-1.23428">
        <ele>170</ele>
        <time>2022-08-27T18:10:51.000Z</time>
      </trkpt>
      <trkpt lat="43.16557" lon="-1.23384">
        <ele>162</ele>
        <time>2022-08-27T18:11:10.000Z</time>
      </trkpt>
      <trkpt lat="43.16558" lon="-1.23376">
        <ele>162</ele>
        <time>2022-08-27T18:11:11.000Z</time>
      </trkpt>
      <trkpt lat="43.16562" lon="-1.23372">
        <ele>162</ele>
        <time>2022-08-27T18:11:12.000Z</time>
      </trkpt>
      <trkpt lat="43.16572" lon="-1.2338">
        <ele>161</ele>
        <time>2022-08-27T18:11:14.000Z</time>
      </trkpt>
      <trkpt lat="43.16862" lon="-1.23263">
        <ele>163</ele>
        <time>2022-08-27T18:12:08.000Z</time>
      </trkpt>
      <trkpt lat="43.16883" lon="-1.23242">
        <ele>165</ele>
        <time>2022-08-27T18:12:13.000Z</time>
      </trkpt>
      <trkpt lat="43.16892" lon="-1.23217">
        <ele>166</ele>
        <time>2022-08-27T18:12:16.000Z</time>
      </trkpt>
      <trkpt lat="43.16891" lon="-1.2301">
        <ele>169</ele>
        <time>2022-08-27T18:12:43.000Z</time>
      </trkpt>
      <trkpt lat="43.16859" lon="-1.22703">
        <ele>170</ele>
        <time>2022-08-27T18:13:24.000Z</time>
      </trkpt>
      <trkpt lat="43.16842" lon="-1.22538">
        <ele>170</ele>
        <time>2022-08-27T18:13:45.000Z</time>
      </trkpt>
      <trkpt lat="43.16746" lon="-1.21685">
        <ele>178</ele>
        <time>2022-08-27T18:15:38.000Z</time>
      </trkpt>
      <trkpt lat="43.16607" lon="-1.20445">
        <ele>187</ele>
        <time>2022-08-27T18:19:38.000Z</time>
      </trkpt>
      <trkpt lat="43.16599" lon="-1.20395">
        <ele>187</ele>
        <time>2022-08-27T18:19:44.000Z</time>
      </trkpt>
      <trkpt lat="43.16586" lon="-1.20387">
        <ele>187</ele>
        <time>2022-08-27T18:19:47.000Z</time>
      </trkpt>
      <trkpt lat="43.16583" lon="-1.20371">
        <ele>187</ele>
        <time>2022-08-27T18:19:49.000Z</time>
      </trkpt>
      <trkpt lat="43.16594" lon="-1.20355">
        <ele>188</ele>
        <time>2022-08-27T18:19:52.000Z</time>
      </trkpt>
      <trkpt lat="43.16601" lon="-1.20356">
        <ele>188</ele>
        <time>2022-08-27T18:19:53.000Z</time>
      </trkpt>
      <trkpt lat="43.16611" lon="-1.20365">
        <ele>188</ele>
        <time>2022-08-27T18:19:55.000Z</time>
      </trkpt>
      <trkpt lat="43.1664" lon="-1.20353">
        <ele>190</ele>
        <time>2022-08-27T18:20:01.000Z</time>
      </trkpt>
      <trkpt lat="43.16675" lon="-1.20311">
        <ele>193</ele>
        <time>2022-08-27T18:20:09.000Z</time>
      </trkpt>
      <trkpt lat="43.16697" lon="-1.20268">
        <ele>195</ele>
        <time>2022-08-27T18:20:16.000Z</time>
      </trkpt>
      <trkpt lat="43.16704" lon="-1.20251">
        <ele>195</ele>
        <time>2022-08-27T18:20:18.000Z</time>
      </trkpt>
      <trkpt lat="43.16726" lon="-1.20177">
        <ele>197</ele>
        <time>2022-08-27T18:20:29.000Z</time>
      </trkpt>
      <trkpt lat="43.16809" lon="-1.19851">
        <ele>199</ele>
        <time>2022-08-27T18:21:13.000Z</time>
      </trkpt>
      <trkpt lat="43.16822" lon="-1.19782">
        <ele>200</ele>
        <time>2022-08-27T18:21:23.000Z</time>
      </trkpt>
      <trkpt lat="43.16831" lon="-1.19713">
        <ele>199</ele>
        <time>2022-08-27T18:21:32.000Z</time>
      </trkpt>
      <trkpt lat="43.16837" lon="-1.19642">
        <ele>198</ele>
        <time>2022-08-27T18:21:41.000Z</time>
      </trkpt>
      <trkpt lat="43.16847" lon="-1.19407">
        <ele>205</ele>
        <time>2022-08-27T18:22:12.000Z</time>
      </trkpt>
      <trkpt lat="43.16889" lon="-1.19009">
        <ele>211</ele>
        <time>2022-08-27T18:23:04.000Z</time>
      </trkpt>
      <trkpt lat="43.16887" lon="-1.19004">
        <ele>211</ele>
        <time>2022-08-27T18:23:05.000Z</time>
      </trkpt>
      <trkpt lat="43.16916" lon="-1.18853">
        <ele>195</ele>
        <time>2022-08-27T18:23:25.000Z</time>
      </trkpt>
      <trkpt lat="43.16929" lon="-1.18821">
        <ele>193</ele>
        <time>2022-08-27T18:23:30.000Z</time>
      </trkpt>
      <trkpt lat="43.16964" lon="-1.18755">
        <ele>192</ele>
        <time>2022-08-27T18:23:40.000Z</time>
      </trkpt>
      <trkpt lat="43.16996" lon="-1.18717">
        <ele>192</ele>
        <time>2022-08-27T18:23:48.000Z</time>
      </trkpt>
      <trkpt lat="43.18191" lon="-1.17752">
        <ele>199</ele>
        <time>2022-08-27T18:27:55.000Z</time>
      </trkpt>
      <trkpt lat="43.18228" lon="-1.17716">
        <ele>201</ele>
        <time>2022-08-27T18:28:03.000Z</time>
      </trkpt>
      <trkpt lat="43.18278" lon="-1.17657">
        <ele>203</ele>
        <time>2022-08-27T18:28:14.000Z</time>
      </trkpt>
      <trkpt lat="43.18295" lon="-1.17619">
        <ele>203</ele>
        <time>2022-08-27T18:28:20.000Z</time>
      </trkpt>
      <trkpt lat="43.18368" lon="-1.17252">
        <ele>200</ele>
        <time>2022-08-27T18:29:10.000Z</time>
      </trkpt>
      <trkpt lat="43.18398" lon="-1.17197">
        <ele>199</ele>
        <time>2022-08-27T18:29:19.000Z</time>
      </trkpt>
      <trkpt lat="43.18534" lon="-1.17065">
        <ele>200</ele>
        <time>2022-08-27T18:29:48.000Z</time>
      </trkpt>
      <trkpt lat="43.18629" lon="-1.16979">
        <ele>204</ele>
        <time>2022-08-27T18:30:09.000Z</time>
      </trkpt>
      <trkpt lat="43.18741" lon="-1.16888">
        <ele>214</ele>
        <time>2022-08-27T18:30:32.000Z</time>
      </trkpt>
      <trkpt lat="43.18807" lon="-1.16831">
        <ele>220</ele>
        <time>2022-08-27T18:30:46.000Z</time>
      </trkpt>
      <trkpt lat="43.19055" lon="-1.16562">
        <ele>230</ele>
        <time>2022-08-27T18:31:42.000Z</time>
      </trkpt>
      <trkpt lat="43.19095" lon="-1.16523">
        <ele>232</ele>
        <time>2022-08-27T18:31:51.000Z</time>
      </trkpt>
      <trkpt lat="43.19125" lon="-1.16506">
        <ele>234</ele>
        <time>2022-08-27T18:31:56.000Z</time>
      </trkpt>
      <trkpt lat="43.19229" lon="-1.16498">
        <ele>236</ele>
        <time>2022-08-27T18:32:15.000Z</time>
      </trkpt>
      <trkpt lat="43.19257" lon="-1.16487">
        <ele>237</ele>
        <time>2022-08-27T18:32:20.000Z</time>
      </trkpt>
      <trkpt lat="43.19282" lon="-1.16467">
        <ele>237</ele>
        <time>2022-08-27T18:32:25.000Z</time>
      </trkpt>
      <trkpt lat="43.19338" lon="-1.16415">
        <ele>235</ele>
        <time>2022-08-27T18:32:37.000Z</time>
      </trkpt>
      <trkpt lat="43.1938" lon="-1.16358">
        <ele>225</ele>
        <time>2022-08-27T18:32:48.000Z</time>
      </trkpt>
      <trkpt lat="43.19386" lon="-1.16353">
        <ele>224</ele>
        <time>2022-08-27T18:32:49.000Z</time>
      </trkpt>
      <trkpt lat="43.19483" lon="-1.1616">
        <ele>216</ele>
        <time>2022-08-27T18:33:20.000Z</time>
      </trkpt>
      <trkpt lat="43.19726" lon="-1.15655">
        <ele>223</ele>
        <time>2022-08-27T18:34:38.000Z</time>
      </trkpt>
      <trkpt lat="43.19739" lon="-1.15621">
        <ele>224</ele>
        <time>2022-08-27T18:34:43.000Z</time>
      </trkpt>
      <trkpt lat="43.1976" lon="-1.15561">
        <ele>225</ele>
        <time>2022-08-27T18:34:52.000Z</time>
      </trkpt>
      <trkpt lat="43.19814" lon="-1.15256">
        <ele>233</ele>
        <time>2022-08-27T18:35:32.000Z</time>
      </trkpt>
      <trkpt lat="43.19836" lon="-1.15197">
        <ele>234</ele>
        <time>2022-08-27T18:35:41.000Z</time>
      </trkpt>
      <trkpt lat="43.19872" lon="-1.1514">
        <ele>234</ele>
        <time>2022-08-27T18:35:51.000Z</time>
      </trkpt>
      <trkpt lat="43.19902" lon="-1.1511">
        <ele>234</ele>
        <time>2022-08-27T18:35:57.000Z</time>
      </trkpt>
      <trkpt lat="43.19925" lon="-1.1509">
        <ele>232</ele>
        <time>2022-08-27T18:36:02.000Z</time>
      </trkpt>
      <trkpt lat="43.19947" lon="-1.15077">
        <ele>231</ele>
        <time>2022-08-27T18:36:07.000Z</time>
      </trkpt>
      <trkpt lat="43.20027" lon="-1.15041">
        <ele>228</ele>
        <time>2022-08-27T18:36:22.000Z</time>
      </trkpt>
      <trkpt lat="43.20178" lon="-1.14911">
        <ele>231</ele>
        <time>2022-08-27T18:36:53.000Z</time>
      </trkpt>
      <trkpt lat="43.20322" lon="-1.14773">
        <ele>236</ele>
        <time>2022-08-27T18:37:25.000Z</time>
      </trkpt>
      <trkpt lat="43.20387" lon="-1.14686">
        <ele>238</ele>
        <time>2022-08-27T18:37:41.000Z</time>
      </trkpt>
      <trkpt lat="43.20521" lon="-1.14516">
        <ele>240</ele>
        <time>2022-08-27T18:38:13.000Z</time>
      </trkpt>
      <trkpt lat="43.20675" lon="-1.14245">
        <ele>245</ele>
        <time>2022-08-27T18:38:58.000Z</time>
      </trkpt>
      <trkpt lat="43.20722" lon="-1.14177">
        <ele>248</ele>
        <time>2022-08-27T18:39:10.000Z</time>
      </trkpt>
      <trkpt lat="43.20979" lon="-1.13838">
        <ele>261</ele>
        <time>2022-08-27T18:40:13.000Z</time>
      </trkpt>
      <trkpt lat="43.21068" lon="-1.13718">
        <ele>270</ele>
        <time>2022-08-27T18:40:36.000Z</time>
      </trkpt>
      <trkpt lat="43.21227" lon="-1.13559">
        <ele>264</ele>
        <time>2022-08-27T18:41:11.000Z</time>
      </trkpt>
      <trkpt lat="43.21287" lon="-1.13464">
        <ele>249</ele>
        <time>2022-08-27T18:41:27.000Z</time>
      </trkpt>
      <trkpt lat="43.21339" lon="-1.13355">
        <ele>240</ele>
        <time>2022-08-27T18:41:44.000Z</time>
      </trkpt>
      <trkpt lat="43.21351" lon="-1.13301">
        <ele>240</ele>
        <time>2022-08-27T18:41:51.000Z</time>
      </trkpt>
      <trkpt lat="43.21355" lon="-1.13045">
        <ele>222</ele>
        <time>2022-08-27T18:42:25.000Z</time>
      </trkpt>
      <trkpt lat="43.21364" lon="-1.12972">
        <ele>218</ele>
        <time>2022-08-27T18:42:34.000Z</time>
      </trkpt>
      <trkpt lat="43.21375" lon="-1.12929">
        <ele>216</ele>
        <time>2022-08-27T18:42:40.000Z</time>
      </trkpt>
      <trkpt lat="43.21392" lon="-1.12885">
        <ele>212</ele>
        <time>2022-08-27T18:42:47.000Z</time>
      </trkpt>
      <trkpt lat="43.21458" lon="-1.12737">
        <ele>203</ele>
        <time>2022-08-27T18:43:09.000Z</time>
      </trkpt>
      <trkpt lat="43.21515" lon="-1.126">
        <ele>201</ele>
        <time>2022-08-27T18:43:30.000Z</time>
      </trkpt>
      <trkpt lat="43.21545" lon="-1.12549">
        <ele>201</ele>
        <time>2022-08-27T18:43:38.000Z</time>
      </trkpt>
      <trkpt lat="43.21564" lon="-1.12524">
        <ele>199</ele>
        <time>2022-08-27T18:43:43.000Z</time>
      </trkpt>
      <trkpt lat="43.21863" lon="-1.12224">
        <ele>173</ele>
        <time>2022-08-27T18:44:49.000Z</time>
      </trkpt>
      <trkpt lat="43.21948" lon="-1.12131">
        <ele>174</ele>
        <time>2022-08-27T18:45:08.000Z</time>
      </trkpt>
      <trkpt lat="43.2208" lon="-1.11947">
        <ele>177</ele>
        <time>2022-08-27T18:45:41.000Z</time>
      </trkpt>
      <trkpt lat="43.22117" lon="-1.11888">
        <ele>176</ele>
        <time>2022-08-27T18:45:52.000Z</time>
      </trkpt>
      <trkpt lat="43.2222" lon="-1.11702">
        <ele>163</ele>
        <time>2022-08-27T18:46:22.000Z</time>
      </trkpt>
      <trkpt lat="43.22419" lon="-1.11323">
        <ele>163</ele>
        <time>2022-08-27T18:47:22.000Z</time>
      </trkpt>
      <trkpt lat="43.2247" lon="-1.11203">
        <ele>159</ele>
        <time>2022-08-27T18:47:40.000Z</time>
      </trkpt>
      <trkpt lat="43.22525" lon="-1.11093">
        <ele>156</ele>
        <time>2022-08-27T18:47:58.000Z</time>
      </trkpt>
      <trkpt lat="43.22975" lon="-1.1026">
        <ele>163</ele>
        <time>2022-08-27T18:50:12.000Z</time>
      </trkpt>
      <trkpt lat="43.22981" lon="-1.10245">
        <ele>164</ele>
        <time>2022-08-27T18:50:14.000Z</time>
      </trkpt>
      <trkpt lat="43.23026" lon="-1.10178">
        <ele>169</ele>
        <time>2022-08-27T18:50:26.000Z</time>
      </trkpt>
      <trkpt lat="43.23051" lon="-1.10134">
        <ele>170</ele>
        <time>2022-08-27T18:50:34.000Z</time>
      </trkpt>
      <trkpt lat="43.23257" lon="-1.0973">
        <ele>155</ele>
        <time>2022-08-27T18:51:37.000Z</time>
      </trkpt>
      <trkpt lat="43.23309" lon="-1.09644">
        <ele>160</ele>
        <time>2022-08-27T18:51:52.000Z</time>
      </trkpt>
      <trkpt lat="43.2331" lon="-1.09629">
        <ele>161</ele>
        <time>2022-08-27T18:51:54.000Z</time>
      </trkpt>
      <trkpt lat="43.23294" lon="-1.09609">
        <ele>161</ele>
        <time>2022-08-27T18:51:58.000Z</time>
      </trkpt>
      <trkpt lat="43.23233" lon="-1.09554">
        <ele>159</ele>
        <time>2022-08-27T18:52:11.000Z</time>
      </trkpt>
      <trkpt lat="43.23191" lon="-1.09511">
        <ele>157</ele>
        <time>2022-08-27T18:52:20.000Z</time>
      </trkpt>
      <trkpt lat="43.23108" lon="-1.09358">
        <ele>154</ele>
        <time>2022-08-27T18:52:45.000Z</time>
      </trkpt>
      <trkpt lat="43.23097" lon="-1.09343">
        <ele>154</ele>
        <time>2022-08-27T18:52:48.000Z</time>
      </trkpt>
      <trkpt lat="43.22636" lon="-1.08836">
        <ele>147</ele>
        <time>2022-08-27T18:54:33.000Z</time>
      </trkpt>
      <trkpt lat="43.22602" lon="-1.08807">
        <ele>151</ele>
        <time>2022-08-27T18:54:40.000Z</time>
      </trkpt>
      <trkpt lat="43.21313" lon="-1.0842">
        <ele>160</ele>
        <time>2022-08-27T18:58:35.000Z</time>
      </trkpt>
      <trkpt lat="43.21287" lon="-1.084">
        <ele>159</ele>
        <time>2022-08-27T18:58:40.000Z</time>
      </trkpt>
      <trkpt lat="43.20823" lon="-1.07715">
        <ele>151</ele>
        <time>2022-08-27T19:00:41.000Z</time>
      </trkpt>
      <trkpt lat="43.20705" lon="-1.07531">
        <ele>151</ele>
        <time>2022-08-27T19:01:13.000Z</time>
      </trkpt>
      <trkpt lat="43.20617" lon="-1.07375">
        <ele>159</ele>
        <time>2022-08-27T19:01:39.000Z</time>
      </trkpt>
      <trkpt lat="43.20504" lon="-1.07165">
        <ele>160</ele>
        <time>2022-08-27T19:02:13.000Z</time>
      </trkpt>
      <trkpt lat="43.20391" lon="-1.06993">
        <ele>160</ele>
        <time>2022-08-27T19:02:43.000Z</time>
      </trkpt>
      <trkpt lat="43.20371" lon="-1.06959">
        <ele>161</ele>
        <time>2022-08-27T19:02:48.000Z</time>
      </trkpt>
      <trkpt lat="43.20123" lon="-1.06436">
        <ele>175</ele>
        <time>2022-08-27T19:04:09.000Z</time>
      </trkpt>
      <trkpt lat="43.20087" lon="-1.06362">
        <ele>172</ele>
        <time>2022-08-27T19:04:21.000Z</time>
      </trkpt>
      <trkpt lat="43.20002" lon="-1.06246">
        <ele>169</ele>
        <time>2022-08-27T19:04:42.000Z</time>
      </trkpt>
      <trkpt lat="43.19862" lon="-1.06087">
        <ele>164</ele>
        <time>2022-08-27T19:05:15.000Z</time>
      </trkpt>
      <trkpt lat="43.19803" lon="-1.06024">
        <ele>176</ele>
        <time>2022-08-27T19:05:28.000Z</time>
      </trkpt>
      <trkpt lat="43.1975" lon="-1.05993">
        <ele>179</ele>
        <time>2022-08-27T19:05:38.000Z</time>
      </trkpt>
      <trkpt lat="43.19594" lon="-1.05901">
        <ele>181</ele>
        <time>2022-08-27T19:06:08.000Z</time>
      </trkpt>
      <trkpt lat="43.19532" lon="-1.05887">
        <ele>176</ele>
        <time>2022-08-27T19:06:20.000Z</time>
      </trkpt>
      <trkpt lat="43.19509" lon="-1.05865">
        <ele>175</ele>
        <time>2022-08-27T19:06:25.000Z</time>
      </trkpt>
      <trkpt lat="43.19477" lon="-1.05827">
        <ele>175</ele>
        <time>2022-08-27T19:06:32.000Z</time>
      </trkpt>
      <trkpt lat="43.19468" lon="-1.05813">
        <ele>176</ele>
        <time>2022-08-27T19:06:35.000Z</time>
      </trkpt>
      <trkpt lat="43.19437" lon="-1.05656">
        <ele>178</ele>
        <time>2022-08-27T19:06:56.000Z</time>
      </trkpt>
      <trkpt lat="43.194" lon="-1.05575">
        <ele>177</ele>
        <time>2022-08-27T19:07:08.000Z</time>
      </trkpt>
      <trkpt lat="43.1934" lon="-1.05499">
        <ele>183</ele>
        <time>2022-08-27T19:07:23.000Z</time>
      </trkpt>
      <trkpt lat="43.19329" lon="-1.05489">
        <ele>185</ele>
        <time>2022-08-27T19:07:25.000Z</time>
      </trkpt>
      <trkpt lat="43.19245" lon="-1.05467">
        <ele>192</ele>
        <time>2022-08-27T19:07:40.000Z</time>
      </trkpt>
      <trkpt lat="43.19222" lon="-1.05446">
        <ele>192</ele>
        <time>2022-08-27T19:07:45.000Z</time>
      </trkpt>
      <trkpt lat="43.19144" lon="-1.05319">
        <ele>201</ele>
        <time>2022-08-27T19:08:07.000Z</time>
      </trkpt>
      <trkpt lat="43.19099" lon="-1.05243">
        <ele>205</ele>
        <time>2022-08-27T19:08:20.000Z</time>
      </trkpt>
      <trkpt lat="43.18982" lon="-1.05127">
        <ele>210</ele>
        <time>2022-08-27T19:08:45.000Z</time>
      </trkpt>
      <trkpt lat="43.18963" lon="-1.05098">
        <ele>212</ele>
        <time>2022-08-27T19:08:51.000Z</time>
      </trkpt>
      <trkpt lat="43.18925" lon="-1.05">
        <ele>213</ele>
        <time>2022-08-27T19:09:05.000Z</time>
      </trkpt>
      <trkpt lat="43.18839" lon="-1.04773">
        <ele>224</ele>
        <time>2022-08-27T19:09:38.000Z</time>
      </trkpt>
      <trkpt lat="43.18805" lon="-1.04659">
        <ele>219</ele>
        <time>2022-08-27T19:09:54.000Z</time>
      </trkpt>
      <trkpt lat="43.188" lon="-1.04621">
        <ele>218</ele>
        <time>2022-08-27T19:09:59.000Z</time>
      </trkpt>
      <trkpt lat="43.18813" lon="-1.04528">
        <ele>214</ele>
        <time>2022-08-27T19:10:12.000Z</time>
      </trkpt>
      <trkpt lat="43.18823" lon="-1.04507">
        <ele>213</ele>
        <time>2022-08-27T19:10:15.000Z</time>
      </trkpt>
      <trkpt lat="43.18834" lon="-1.04494">
        <ele>214</ele>
        <time>2022-08-27T19:10:17.000Z</time>
      </trkpt>
      <trkpt lat="43.18844" lon="-1.04487">
        <ele>217</ele>
        <time>2022-08-27T19:10:19.000Z</time>
      </trkpt>
      <trkpt lat="43.1891" lon="-1.04462">
        <ele>230</ele>
        <time>2022-08-27T19:10:32.000Z</time>
      </trkpt>
      <trkpt lat="43.18924" lon="-1.04452">
        <ele>231</ele>
        <time>2022-08-27T19:10:34.000Z</time>
      </trkpt>
      <trkpt lat="43.18941" lon="-1.04393">
        <ele>225</ele>
        <time>2022-08-27T19:10:43.000Z</time>
      </trkpt>
      <trkpt lat="43.18936" lon="-1.04374">
        <ele>223</ele>
        <time>2022-08-27T19:10:46.000Z</time>
      </trkpt>
      <trkpt lat="43.18914" lon="-1.04341">
        <ele>219</ele>
        <time>2022-08-27T19:10:51.000Z</time>
      </trkpt>
      <trkpt lat="43.18901" lon="-1.04337">
        <ele>220</ele>
        <time>2022-08-27T19:10:54.000Z</time>
      </trkpt>
      <trkpt lat="43.18871" lon="-1.04337">
        <ele>222</ele>
        <time>2022-08-27T19:10:59.000Z</time>
      </trkpt>
      <trkpt lat="43.18814" lon="-1.04355">
        <ele>223</ele>
        <time>2022-08-27T19:11:10.000Z</time>
      </trkpt>
      <trkpt lat="43.18772" lon="-1.04357">
        <ele>225</ele>
        <time>2022-08-27T19:11:17.000Z</time>
      </trkpt>
      <trkpt lat="43.18691" lon="-1.04332">
        <ele>233</ele>
        <time>2022-08-27T19:11:32.000Z</time>
      </trkpt>
      <trkpt lat="43.18654" lon="-1.04306">
        <ele>238</ele>
        <time>2022-08-27T19:11:39.000Z</time>
      </trkpt>
      <trkpt lat="43.18631" lon="-1.04273">
        <ele>240</ele>
        <time>2022-08-27T19:11:45.000Z</time>
      </trkpt>
      <trkpt lat="43.18613" lon="-1.04233">
        <ele>244</ele>
        <time>2022-08-27T19:11:51.000Z</time>
      </trkpt>
      <trkpt lat="43.18573" lon="-1.0406">
        <ele>259</ele>
        <time>2022-08-27T19:12:15.000Z</time>
      </trkpt>
      <trkpt lat="43.18561" lon="-1.03987">
        <ele>264</ele>
        <time>2022-08-27T19:12:25.000Z</time>
      </trkpt>
      <trkpt lat="43.18559" lon="-1.0395">
        <ele>267</ele>
        <time>2022-08-27T19:12:29.000Z</time>
      </trkpt>
      <trkpt lat="43.18564" lon="-1.03906">
        <ele>271</ele>
        <time>2022-08-27T19:12:35.000Z</time>
      </trkpt>
      <trkpt lat="43.18631" lon="-1.03676">
        <ele>283</ele>
        <time>2022-08-27T19:13:07.000Z</time>
      </trkpt>
      <trkpt lat="43.18651" lon="-1.03591">
        <ele>289</ele>
        <time>2022-08-27T19:13:19.000Z</time>
      </trkpt>
      <trkpt lat="43.18691" lon="-1.03217">
        <ele>307</ele>
        <time>2022-08-27T19:14:08.000Z</time>
      </trkpt>
      <trkpt lat="43.18706" lon="-1.03162">
        <ele>309</ele>
        <time>2022-08-27T19:14:16.000Z</time>
      </trkpt>
      <trkpt lat="43.18731" lon="-1.03117">
        <ele>312</ele>
        <time>2022-08-27T19:14:23.000Z</time>
      </trkpt>
      <trkpt lat="43.18774" lon="-1.03071">
        <ele>322</ele>
        <time>2022-08-27T19:14:33.000Z</time>
      </trkpt>
      <trkpt lat="43.18777" lon="-1.03065">
        <ele>323</ele>
        <time>2022-08-27T19:14:34.000Z</time>
      </trkpt>
      <trkpt lat="43.18822" lon="-1.02915">
        <ele>318</ele>
        <time>2022-08-27T19:14:55.000Z</time>
      </trkpt>
      <trkpt lat="43.18834" lon="-1.02892">
        <ele>319</ele>
        <time>2022-08-27T19:14:58.000Z</time>
      </trkpt>
      <trkpt lat="43.18858" lon="-1.02864">
        <ele>323</ele>
        <time>2022-08-27T19:15:04.000Z</time>
      </trkpt>
      <trkpt lat="43.18922" lon="-1.0283">
        <ele>335</ele>
        <time>2022-08-27T19:15:16.000Z</time>
      </trkpt>
      <trkpt lat="43.18934" lon="-1.02817">
        <ele>338</ele>
        <time>2022-08-27T19:15:19.000Z</time>
      </trkpt>
      <trkpt lat="43.18949" lon="-1.02757">
        <ele>335</ele>
        <time>2022-08-27T19:15:27.000Z</time>
      </trkpt>
      <trkpt lat="43.18959" lon="-1.02732">
        <ele>336</ele>
        <time>2022-08-27T19:15:31.000Z</time>
      </trkpt>
      <trkpt lat="43.19055" lon="-1.02572">
        <ele>347</ele>
        <time>2022-08-27T19:15:58.000Z</time>
      </trkpt>
      <trkpt lat="43.19094" lon="-1.02513">
        <ele>352</ele>
        <time>2022-08-27T19:16:08.000Z</time>
      </trkpt>
      <trkpt lat="43.19143" lon="-1.02412">
        <ele>356</ele>
        <time>2022-08-27T19:16:24.000Z</time>
      </trkpt>
      <trkpt lat="43.19163" lon="-1.02377">
        <ele>358</ele>
        <time>2022-08-27T19:16:30.000Z</time>
      </trkpt>
      <trkpt lat="43.19202" lon="-1.02327">
        <ele>358</ele>
        <time>2022-08-27T19:16:39.000Z</time>
      </trkpt>
      <trkpt lat="43.19224" lon="-1.02313">
        <ele>359</ele>
        <time>2022-08-27T19:16:43.000Z</time>
      </trkpt>
      <trkpt lat="43.19242" lon="-1.02313">
        <ele>362</ele>
        <time>2022-08-27T19:16:47.000Z</time>
      </trkpt>
      <trkpt lat="43.19261" lon="-1.02319">
        <ele>364</ele>
        <time>2022-08-27T19:16:50.000Z</time>
      </trkpt>
      <trkpt lat="43.19374" lon="-1.02427">
        <ele>393</ele>
        <time>2022-08-27T19:17:15.000Z</time>
      </trkpt>
      <trkpt lat="43.19404" lon="-1.02449">
        <ele>399</ele>
        <time>2022-08-27T19:17:21.000Z</time>
      </trkpt>
      <trkpt lat="43.19465" lon="-1.02463">
        <ele>402</ele>
        <time>2022-08-27T19:17:32.000Z</time>
      </trkpt>
      <trkpt lat="43.19556" lon="-1.02452">
        <ele>400</ele>
        <time>2022-08-27T19:17:48.000Z</time>
      </trkpt>
      <trkpt lat="43.19655" lon="-1.02387">
        <ele>391</ele>
        <time>2022-08-27T19:18:07.000Z</time>
      </trkpt>
      <trkpt lat="43.1967" lon="-1.02373">
        <ele>391</ele>
        <time>2022-08-27T19:18:11.000Z</time>
      </trkpt>
      <trkpt lat="43.19686" lon="-1.02348">
        <ele>390</ele>
        <time>2022-08-27T19:18:15.000Z</time>
      </trkpt>
      <trkpt lat="43.19697" lon="-1.02324">
        <ele>389</ele>
        <time>2022-08-27T19:18:19.000Z</time>
      </trkpt>
      <trkpt lat="43.1974" lon="-1.02185">
        <ele>393</ele>
        <time>2022-08-27T19:18:38.000Z</time>
      </trkpt>
      <trkpt lat="43.19758" lon="-1.02149">
        <ele>396</ele>
        <time>2022-08-27T19:18:44.000Z</time>
      </trkpt>
      <trkpt lat="43.1995" lon="-1.01911">
        <ele>406</ele>
        <time>2022-08-27T19:19:30.000Z</time>
      </trkpt>
      <trkpt lat="43.2001" lon="-1.01799">
        <ele>412</ele>
        <time>2022-08-27T19:19:48.000Z</time>
      </trkpt>
      <trkpt lat="43.20124" lon="-1.01376">
        <ele>439</ele>
        <time>2022-08-27T19:20:47.000Z</time>
      </trkpt>
      <trkpt lat="43.20128" lon="-1.01342">
        <ele>443</ele>
        <time>2022-08-27T19:20:51.000Z</time>
      </trkpt>
      <trkpt lat="43.20121" lon="-1.0129">
        <ele>452</ele>
        <time>2022-08-27T19:20:58.000Z</time>
      </trkpt>
      <trkpt lat="43.20116" lon="-1.01201">
        <ele>458</ele>
        <time>2022-08-27T19:21:10.000Z</time>
      </trkpt>
      <trkpt lat="43.2009" lon="-1.01054">
        <ele>469</ele>
        <time>2022-08-27T19:21:29.000Z</time>
      </trkpt>
      <trkpt lat="43.20074" lon="-1.0095">
        <ele>472</ele>
        <time>2022-08-27T19:21:43.000Z</time>
      </trkpt>
      <trkpt lat="43.20061" lon="-1.00909">
        <ele>473</ele>
        <time>2022-08-27T19:21:49.000Z</time>
      </trkpt>
      <trkpt lat="43.20032" lon="-1.00864">
        <ele>475</ele>
        <time>2022-08-27T19:21:57.000Z</time>
      </trkpt>
      <trkpt lat="43.20016" lon="-1.00844">
        <ele>476</ele>
        <time>2022-08-27T19:22:01.000Z</time>
      </trkpt>
      <trkpt lat="43.19992" lon="-1.00787">
        <ele>479</ele>
        <time>2022-08-27T19:22:09.000Z</time>
      </trkpt>
      <trkpt lat="43.19983" lon="-1.00729">
        <ele>481</ele>
        <time>2022-08-27T19:22:17.000Z</time>
      </trkpt>
      <trkpt lat="43.19976" lon="-1.00657">
        <ele>485</ele>
        <time>2022-08-27T19:22:26.000Z</time>
      </trkpt>
      <trkpt lat="43.19976" lon="-1.00552">
        <ele>486</ele>
        <time>2022-08-27T19:22:40.000Z</time>
      </trkpt>
      <trkpt lat="43.19955" lon="-1.00415">
        <ele>496</ele>
        <time>2022-08-27T19:22:58.000Z</time>
      </trkpt>
      <trkpt lat="43.19952" lon="-1.00381">
        <ele>497</ele>
        <time>2022-08-27T19:23:02.000Z</time>
      </trkpt>
      <trkpt lat="43.19957" lon="-1.00332">
        <ele>497</ele>
        <time>2022-08-27T19:23:09.000Z</time>
      </trkpt>
      <trkpt lat="43.19981" lon="-1.00264">
        <ele>496</ele>
        <time>2022-08-27T19:23:19.000Z</time>
      </trkpt>
      <trkpt lat="43.19989" lon="-1.00228">
        <ele>497</ele>
        <time>2022-08-27T19:23:24.000Z</time>
      </trkpt>
      <trkpt lat="43.1998" lon="-1.00107">
        <ele>505</ele>
        <time>2022-08-27T19:23:39.000Z</time>
      </trkpt>
      <trkpt lat="43.19984" lon="-1.00089">
        <ele>505</ele>
        <time>2022-08-27T19:23:42.000Z</time>
      </trkpt>
      <trkpt lat="43.19992" lon="-1.00069">
        <ele>506</ele>
        <time>2022-08-27T19:23:45.000Z</time>
      </trkpt>
      <trkpt lat="43.20003" lon="-1.00052">
        <ele>506</ele>
        <time>2022-08-27T19:23:48.000Z</time>
      </trkpt>
      <trkpt lat="43.20018" lon="-1.00041">
        <ele>507</ele>
        <time>2022-08-27T19:23:51.000Z</time>
      </trkpt>
      <trkpt lat="43.20037" lon="-1.00036">
        <ele>506</ele>
        <time>2022-08-27T19:23:54.000Z</time>
      </trkpt>
      <trkpt lat="43.20218" lon="-1.00059">
        <ele>493</ele>
        <time>2022-08-27T19:24:27.000Z</time>
      </trkpt>
      <trkpt lat="43.20245" lon="-1.00047">
        <ele>493</ele>
        <time>2022-08-27T19:24:32.000Z</time>
      </trkpt>
      <trkpt lat="43.20275" lon="-1.00015">
        <ele>491</ele>
        <time>2022-08-27T19:24:38.000Z</time>
      </trkpt>
      <trkpt lat="43.20345" lon="-0.99877">
        <ele>488</ele>
        <time>2022-08-27T19:25:00.000Z</time>
      </trkpt>
      <trkpt lat="43.20426" lon="-0.99824">
        <ele>483</ele>
        <time>2022-08-27T19:25:16.000Z</time>
      </trkpt>
      <trkpt lat="43.20483" lon="-0.99727">
        <ele>484</ele>
        <time>2022-08-27T19:25:32.000Z</time>
      </trkpt>
      <trkpt lat="43.20565" lon="-0.99693">
        <ele>470</ele>
        <time>2022-08-27T19:25:48.000Z</time>
      </trkpt>
      <trkpt lat="43.20601" lon="-0.99676">
        <ele>463</ele>
        <time>2022-08-27T19:25:55.000Z</time>
      </trkpt>
      <trkpt lat="43.20614" lon="-0.99661">
        <ele>462</ele>
        <time>2022-08-27T19:25:58.000Z</time>
      </trkpt>
      <trkpt lat="43.20621" lon="-0.99648">
        <ele>461</ele>
        <time>2022-08-27T19:26:00.000Z</time>
      </trkpt>
      <trkpt lat="43.20636" lon="-0.99603">
        <ele>463</ele>
        <time>2022-08-27T19:26:06.000Z</time>
      </trkpt>
      <trkpt lat="43.20655" lon="-0.99505">
        <ele>463</ele>
        <time>2022-08-27T19:26:19.000Z</time>
      </trkpt>
      <trkpt lat="43.20703" lon="-0.99419">
        <ele>455</ele>
        <time>2022-08-27T19:26:33.000Z</time>
      </trkpt>
      <trkpt lat="43.20711" lon="-0.99395">
        <ele>452</ele>
        <time>2022-08-27T19:26:37.000Z</time>
      </trkpt>
      <trkpt lat="43.20716" lon="-0.99347">
        <ele>448</ele>
        <time>2022-08-27T19:26:43.000Z</time>
      </trkpt>
      <trkpt lat="43.20702" lon="-0.99264">
        <ele>447</ele>
        <time>2022-08-27T19:26:54.000Z</time>
      </trkpt>
      <trkpt lat="43.20698" lon="-0.99232">
        <ele>445</ele>
        <time>2022-08-27T19:26:58.000Z</time>
      </trkpt>
      <trkpt lat="43.20701" lon="-0.99184">
        <ele>442</ele>
        <time>2022-08-27T19:27:05.000Z</time>
      </trkpt>
      <trkpt lat="43.20704" lon="-0.99171">
        <ele>440</ele>
        <time>2022-08-27T19:27:06.000Z</time>
      </trkpt>
      <trkpt lat="43.20779" lon="-0.99018">
        <ele>436</ele>
        <time>2022-08-27T19:27:30.000Z</time>
      </trkpt>
      <trkpt lat="43.20787" lon="-0.98979">
        <ele>436</ele>
        <time>2022-08-27T19:27:36.000Z</time>
      </trkpt>
      <trkpt lat="43.20762" lon="-0.98622">
        <ele>422</ele>
        <time>2022-08-27T19:28:22.000Z</time>
      </trkpt>
      <trkpt lat="43.20772" lon="-0.98569">
        <ele>420</ele>
        <time>2022-08-27T19:28:29.000Z</time>
      </trkpt>
      <trkpt lat="43.20787" lon="-0.9853">
        <ele>420</ele>
        <time>2022-08-27T19:28:35.000Z</time>
      </trkpt>
      <trkpt lat="43.20819" lon="-0.98475">
        <ele>421</ele>
        <time>2022-08-27T19:28:44.000Z</time>
      </trkpt>
      <trkpt lat="43.20829" lon="-0.98465">
        <ele>422</ele>
        <time>2022-08-27T19:28:46.000Z</time>
      </trkpt>
      <trkpt lat="43.20842" lon="-0.98458">
        <ele>422</ele>
        <time>2022-08-27T19:28:49.000Z</time>
      </trkpt>
      <trkpt lat="43.20896" lon="-0.98442">
        <ele>425</ele>
        <time>2022-08-27T19:28:59.000Z</time>
      </trkpt>
      <trkpt lat="43.20902" lon="-0.98433">
        <ele>424</ele>
        <time>2022-08-27T19:29:00.000Z</time>
      </trkpt>
      <trkpt lat="43.20911" lon="-0.98335">
        <ele>413</ele>
        <time>2022-08-27T19:29:13.000Z</time>
      </trkpt>
      <trkpt lat="43.20916" lon="-0.98319">
        <ele>411</ele>
        <time>2022-08-27T19:29:16.000Z</time>
      </trkpt>
      <trkpt lat="43.20952" lon="-0.98281">
        <ele>410</ele>
        <time>2022-08-27T19:29:24.000Z</time>
      </trkpt>
      <trkpt lat="43.20962" lon="-0.98269">
        <ele>410</ele>
        <time>2022-08-27T19:29:26.000Z</time>
      </trkpt>
      <trkpt lat="43.20969" lon="-0.98249">
        <ele>408</ele>
        <time>2022-08-27T19:29:29.000Z</time>
      </trkpt>
      <trkpt lat="43.2097" lon="-0.98234">
        <ele>407</ele>
        <time>2022-08-27T19:29:31.000Z</time>
      </trkpt>
      <trkpt lat="43.20952" lon="-0.98144">
        <ele>397</ele>
        <time>2022-08-27T19:29:43.000Z</time>
      </trkpt>
      <trkpt lat="43.20955" lon="-0.98061">
        <ele>395</ele>
        <time>2022-08-27T19:29:54.000Z</time>
      </trkpt>
      <trkpt lat="43.2095" lon="-0.98028">
        <ele>394</ele>
        <time>2022-08-27T19:29:58.000Z</time>
      </trkpt>
      <trkpt lat="43.20898" lon="-0.97893">
        <ele>383</ele>
        <time>2022-08-27T19:30:18.000Z</time>
      </trkpt>
      <trkpt lat="43.20846" lon="-0.97802">
        <ele>375</ele>
        <time>2022-08-27T19:30:33.000Z</time>
      </trkpt>
      <trkpt lat="43.20832" lon="-0.9777">
        <ele>373</ele>
        <time>2022-08-27T19:30:38.000Z</time>
      </trkpt>
      <trkpt lat="43.20819" lon="-0.97721">
        <ele>370</ele>
        <time>2022-08-27T19:30:45.000Z</time>
      </trkpt>
      <trkpt lat="43.20815" lon="-0.97684">
        <ele>368</ele>
        <time>2022-08-27T19:30:49.000Z</time>
      </trkpt>
      <trkpt lat="43.20817" lon="-0.97635">
        <ele>363</ele>
        <time>2022-08-27T19:30:56.000Z</time>
      </trkpt>
      <trkpt lat="43.20828" lon="-0.97606">
        <ele>361</ele>
        <time>2022-08-27T19:31:00.000Z</time>
      </trkpt>
      <trkpt lat="43.20911" lon="-0.97528">
        <ele>366</ele>
        <time>2022-08-27T19:31:18.000Z</time>
      </trkpt>
      <trkpt lat="43.20919" lon="-0.97517">
        <ele>366</ele>
        <time>2022-08-27T19:31:20.000Z</time>
      </trkpt>
      <trkpt lat="43.20919" lon="-0.97475">
        <ele>364</ele>
        <time>2022-08-27T19:31:26.000Z</time>
      </trkpt>
      <trkpt lat="43.2091" lon="-0.9746">
        <ele>363</ele>
        <time>2022-08-27T19:31:28.000Z</time>
      </trkpt>
      <trkpt lat="43.20825" lon="-0.97403">
        <ele>345</ele>
        <time>2022-08-27T19:31:45.000Z</time>
      </trkpt>
      <trkpt lat="43.208" lon="-0.97395">
        <ele>342</ele>
        <time>2022-08-27T19:31:50.000Z</time>
      </trkpt>
      <trkpt lat="43.20762" lon="-0.97389">
        <ele>337</ele>
        <time>2022-08-27T19:31:56.000Z</time>
      </trkpt>
      <trkpt lat="43.20659" lon="-0.97395">
        <ele>325</ele>
        <time>2022-08-27T19:32:15.000Z</time>
      </trkpt>
      <trkpt lat="43.2065" lon="-0.97392">
        <ele>324</ele>
        <time>2022-08-27T19:32:16.000Z</time>
      </trkpt>
      <trkpt lat="43.20583" lon="-0.97342">
        <ele>321</ele>
        <time>2022-08-27T19:32:30.000Z</time>
      </trkpt>
      <trkpt lat="43.20436" lon="-0.97268">
        <ele>307</ele>
        <time>2022-08-27T19:32:58.000Z</time>
      </trkpt>
      <trkpt lat="43.20422" lon="-0.97257">
        <ele>306</ele>
        <time>2022-08-27T19:33:01.000Z</time>
      </trkpt>
      <trkpt lat="43.20256" lon="-0.97059">
        <ele>288</ele>
        <time>2022-08-27T19:33:40.000Z</time>
      </trkpt>
      <trkpt lat="43.20234" lon="-0.97029">
        <ele>285</ele>
        <time>2022-08-27T19:33:45.000Z</time>
      </trkpt>
      <trkpt lat="43.20169" lon="-0.96817">
        <ele>272</ele>
        <time>2022-08-27T19:34:15.000Z</time>
      </trkpt>
      <trkpt lat="43.20158" lon="-0.96786">
        <ele>270</ele>
        <time>2022-08-27T19:34:20.000Z</time>
      </trkpt>
      <trkpt lat="43.20087" lon="-0.96659">
        <ele>262</ele>
        <time>2022-08-27T19:34:41.000Z</time>
      </trkpt>
      <trkpt lat="43.20061" lon="-0.96636">
        <ele>258</ele>
        <time>2022-08-27T19:34:46.000Z</time>
      </trkpt>
      <trkpt lat="43.20044" lon="-0.96628">
        <ele>257</ele>
        <time>2022-08-27T19:34:49.000Z</time>
      </trkpt>
      <trkpt lat="43.20002" lon="-0.96616">
        <ele>255</ele>
        <time>2022-08-27T19:34:57.000Z</time>
      </trkpt>
      <trkpt lat="43.19928" lon="-0.96607">
        <ele>250</ele>
        <time>2022-08-27T19:35:10.000Z</time>
      </trkpt>
      <trkpt lat="43.19876" lon="-0.96602">
        <ele>246</ele>
        <time>2022-08-27T19:35:19.000Z</time>
      </trkpt>
      <trkpt lat="43.19844" lon="-0.96602">
        <ele>244</ele>
        <time>2022-08-27T19:35:25.000Z</time>
      </trkpt>
      <trkpt lat="43.19776" lon="-0.96612">
        <ele>238</ele>
        <time>2022-08-27T19:35:37.000Z</time>
      </trkpt>
      <trkpt lat="43.19686" lon="-0.96606">
        <ele>231</ele>
        <time>2022-08-27T19:35:53.000Z</time>
      </trkpt>
      <trkpt lat="43.19577" lon="-0.96588">
        <ele>223</ele>
        <time>2022-08-27T19:36:13.000Z</time>
      </trkpt>
      <trkpt lat="43.19489" lon="-0.96523">
        <ele>215</ele>
        <time>2022-08-27T19:36:31.000Z</time>
      </trkpt>
      <trkpt lat="43.19479" lon="-0.96504">
        <ele>214</ele>
        <time>2022-08-27T19:36:34.000Z</time>
      </trkpt>
      <trkpt lat="43.19462" lon="-0.96442">
        <ele>211</ele>
        <time>2022-08-27T19:36:42.000Z</time>
      </trkpt>
      <trkpt lat="43.19384" lon="-0.95883">
        <ele>192</ele>
        <time>2022-08-27T19:37:56.000Z</time>
      </trkpt>
      <trkpt lat="43.19345" lon="-0.9574">
        <ele>196</ele>
        <time>2022-08-27T19:38:16.000Z</time>
      </trkpt>
      <trkpt lat="43.19338" lon="-0.95696">
        <ele>198</ele>
        <time>2022-08-27T19:38:22.000Z</time>
      </trkpt>
      <trkpt lat="43.19271" lon="-0.95214">
        <ele>214</ele>
        <time>2022-08-27T19:39:26.000Z</time>
      </trkpt>
      <trkpt lat="43.19268" lon="-0.95062">
        <ele>203</ele>
        <time>2022-08-27T19:39:45.000Z</time>
      </trkpt>
      <trkpt lat="43.19266" lon="-0.95051">
        <ele>202</ele>
        <time>2022-08-27T19:39:47.000Z</time>
      </trkpt>
      <trkpt lat="43.19258" lon="-0.95031">
        <ele>201</ele>
        <time>2022-08-27T19:39:50.000Z</time>
      </trkpt>
      <trkpt lat="43.19186" lon="-0.94905">
        <ele>192</ele>
        <time>2022-08-27T19:40:10.000Z</time>
      </trkpt>
      <trkpt lat="43.19119" lon="-0.94726">
        <ele>186</ele>
        <time>2022-08-27T19:40:37.000Z</time>
      </trkpt>
      <trkpt lat="43.19069" lon="-0.94582">
        <ele>194</ele>
        <time>2022-08-27T19:40:57.000Z</time>
      </trkpt>
      <trkpt lat="43.18995" lon="-0.94312">
        <ele>185</ele>
        <time>2022-08-27T19:41:35.000Z</time>
      </trkpt>
      <trkpt lat="43.18988" lon="-0.943">
        <ele>184</ele>
        <time>2022-08-27T19:41:37.000Z</time>
      </trkpt>
      <trkpt lat="43.18979" lon="-0.942">
        <ele>179</ele>
        <time>2022-08-27T19:41:50.000Z</time>
      </trkpt>
      <trkpt lat="43.18983" lon="-0.94158">
        <ele>177</ele>
        <time>2022-08-27T19:41:55.000Z</time>
      </trkpt>
      <trkpt lat="43.19035" lon="-0.94046">
        <ele>174</ele>
        <time>2022-08-27T19:42:13.000Z</time>
      </trkpt>
      <trkpt lat="43.19189" lon="-0.93707">
        <ele>176</ele>
        <time>2022-08-27T19:43:05.000Z</time>
      </trkpt>
      <trkpt lat="43.19252" lon="-0.93274">
        <ele>180</ele>
        <time>2022-08-27T19:44:02.000Z</time>
      </trkpt>
      <trkpt lat="43.19263" lon="-0.93227">
        <ele>180</ele>
        <time>2022-08-27T19:44:08.000Z</time>
      </trkpt>
      <trkpt lat="43.19304" lon="-0.93161">
        <ele>179</ele>
        <time>2022-08-27T19:44:20.000Z</time>
      </trkpt>
      <trkpt lat="43.19321" lon="-0.93148">
        <ele>178</ele>
        <time>2022-08-27T19:44:23.000Z</time>
      </trkpt>
      <trkpt lat="43.19377" lon="-0.93144">
        <ele>175</ele>
        <time>2022-08-27T19:44:33.000Z</time>
      </trkpt>
      <trkpt lat="43.19392" lon="-0.9314">
        <ele>173</ele>
        <time>2022-08-27T19:44:36.000Z</time>
      </trkpt>
      <trkpt lat="43.19416" lon="-0.9312">
        <ele>171</ele>
        <time>2022-08-27T19:44:41.000Z</time>
      </trkpt>
      <trkpt lat="43.19427" lon="-0.93093">
        <ele>170</ele>
        <time>2022-08-27T19:44:45.000Z</time>
      </trkpt>
      <trkpt lat="43.19442" lon="-0.92894">
        <ele>171</ele>
        <time>2022-08-27T19:45:11.000Z</time>
      </trkpt>
      <trkpt lat="43.19443" lon="-0.92779">
        <ele>171</ele>
        <time>2022-08-27T19:45:26.000Z</time>
      </trkpt>
      <trkpt lat="43.19402" lon="-0.92592">
        <ele>169</ele>
        <time>2022-08-27T19:45:51.000Z</time>
      </trkpt>
      <trkpt lat="43.19392" lon="-0.92534">
        <ele>168</ele>
        <time>2022-08-27T19:45:59.000Z</time>
      </trkpt>
      <trkpt lat="43.19395" lon="-0.92271">
        <ele>163</ele>
        <time>2022-08-27T19:46:33.000Z</time>
      </trkpt>
      <trkpt lat="43.19409" lon="-0.92209">
        <ele>163</ele>
        <time>2022-08-27T19:46:41.000Z</time>
      </trkpt>
      <trkpt lat="43.19419" lon="-0.9219">
        <ele>163</ele>
        <time>2022-08-27T19:46:45.000Z</time>
      </trkpt>
      <trkpt lat="43.19506" lon="-0.92091">
        <ele>164</ele>
        <time>2022-08-27T19:47:05.000Z</time>
      </trkpt>
      <trkpt lat="43.19774" lon="-0.91695">
        <ele>171</ele>
        <time>2022-08-27T19:48:15.000Z</time>
      </trkpt>
      <trkpt lat="43.19831" lon="-0.91618">
        <ele>170</ele>
        <time>2022-08-27T19:48:29.000Z</time>
      </trkpt>
      <trkpt lat="43.20088" lon="-0.91402">
        <ele>172</ele>
        <time>2022-08-27T19:49:23.000Z</time>
      </trkpt>
      <trkpt lat="43.20123" lon="-0.91367">
        <ele>166</ele>
        <time>2022-08-27T19:49:30.000Z</time>
      </trkpt>
      <trkpt lat="43.20211" lon="-0.91166">
        <ele>164</ele>
        <time>2022-08-27T19:50:01.000Z</time>
      </trkpt>
      <trkpt lat="43.20566" lon="-0.9066">
        <ele>158</ele>
        <time>2022-08-27T19:51:32.000Z</time>
      </trkpt>
      <trkpt lat="43.20592" lon="-0.90636">
        <ele>157</ele>
        <time>2022-08-27T19:51:37.000Z</time>
      </trkpt>
      <trkpt lat="43.20618" lon="-0.90624">
        <ele>158</ele>
        <time>2022-08-27T19:51:42.000Z</time>
      </trkpt>
      <trkpt lat="43.20824" lon="-0.90587">
        <ele>156</ele>
        <time>2022-08-27T19:52:19.000Z</time>
      </trkpt>
      <trkpt lat="43.20861" lon="-0.90579">
        <ele>158</ele>
        <time>2022-08-27T19:52:26.000Z</time>
      </trkpt>
      <trkpt lat="43.20915" lon="-0.90502">
        <ele>158</ele>
        <time>2022-08-27T19:52:40.000Z</time>
      </trkpt>
      <trkpt lat="43.21243" lon="-0.90195">
        <ele>156</ele>
        <time>2022-08-27T19:53:51.000Z</time>
      </trkpt>
      <trkpt lat="43.21319" lon="-0.9008">
        <ele>152</ele>
        <time>2022-08-27T19:54:11.000Z</time>
      </trkpt>
      <trkpt lat="43.21337" lon="-0.90048">
        <ele>153</ele>
        <time>2022-08-27T19:54:16.000Z</time>
      </trkpt>
      <trkpt lat="43.21479" lon="-0.89691">
        <ele>151</ele>
        <time>2022-08-27T19:55:09.000Z</time>
      </trkpt>
      <trkpt lat="43.21494" lon="-0.89659">
        <ele>149</ele>
        <time>2022-08-27T19:55:14.000Z</time>
      </trkpt>
      <trkpt lat="43.21675" lon="-0.8947">
        <ele>147</ele>
        <time>2022-08-27T19:55:54.000Z</time>
      </trkpt>
      <trkpt lat="43.21703" lon="-0.89426">
        <ele>144</ele>
        <time>2022-08-27T19:56:02.000Z</time>
      </trkpt>
      <trkpt lat="43.21703" lon="-0.89415">
        <ele>143</ele>
        <time>2022-08-27T19:56:03.000Z</time>
      </trkpt>
      <trkpt lat="43.21665" lon="-0.89377">
        <ele>141</ele>
        <time>2022-08-27T19:56:12.000Z</time>
      </trkpt>
      <trkpt lat="43.2165" lon="-0.89376">
        <ele>141</ele>
        <time>2022-08-27T19:56:14.000Z</time>
      </trkpt>
      <trkpt lat="43.21579" lon="-0.89437">
        <ele>142</ele>
        <time>2022-08-27T19:56:29.000Z</time>
      </trkpt>
      <trkpt lat="43.21559" lon="-0.89453">
        <ele>143</ele>
        <time>2022-08-27T19:56:33.000Z</time>
      </trkpt>
      <trkpt lat="43.21535" lon="-0.8946">
        <ele>143</ele>
        <time>2022-08-27T19:56:38.000Z</time>
      </trkpt>
      <trkpt lat="43.21516" lon="-0.8946">
        <ele>143</ele>
        <time>2022-08-27T19:56:41.000Z</time>
      </trkpt>
      <trkpt lat="43.21483" lon="-0.89448">
        <ele>143</ele>
        <time>2022-08-27T19:56:47.000Z</time>
      </trkpt>
      <trkpt lat="43.2147" lon="-0.89437">
        <ele>143</ele>
        <time>2022-08-27T19:56:50.000Z</time>
      </trkpt>
      <trkpt lat="43.21439" lon="-0.89387">
        <ele>144</ele>
        <time>2022-08-27T19:56:59.000Z</time>
      </trkpt>
      <trkpt lat="43.21388" lon="-0.89255">
        <ele>145</ele>
        <time>2022-08-27T19:57:18.000Z</time>
      </trkpt>
      <trkpt lat="43.21133" lon="-0.89444">
        <ele>148</ele>
        <time>2022-08-27T19:58:10.000Z</time>
      </trkpt>
      <trkpt lat="43.20642" lon="-0.89829">
        <ele>152</ele>
        <time>2022-08-27T19:59:50.000Z</time>
      </trkpt>
      <trkpt lat="43.20382" lon="-0.90025">
        <ele>155</ele>
        <time>2022-08-27T20:00:43.000Z</time>
      </trkpt>
      <trkpt lat="43.20185" lon="-0.90187">
        <ele>156</ele>
        <time>2022-08-27T20:01:24.000Z</time>
      </trkpt>
      <trkpt lat="43.20149" lon="-0.9022">
        <ele>157</ele>
        <time>2022-08-27T20:01:32.000Z</time>
      </trkpt>
      <trkpt lat="43.19993" lon="-0.90251">
        <ele>160</ele>
        <time>2022-08-27T20:02:00.000Z</time>
      </trkpt>
      <trkpt lat="43.19972" lon="-0.90257">
        <ele>161</ele>
        <time>2022-08-27T20:02:04.000Z</time>
      </trkpt>
      <trkpt lat="43.19863" lon="-0.90313">
        <ele>158</ele>
        <time>2022-08-27T20:02:24.000Z</time>
      </trkpt>
      <trkpt lat="43.19852" lon="-0.90316">
        <ele>158</ele>
        <time>2022-08-27T20:02:26.000Z</time>
      </trkpt>
      <trkpt lat="43.19034" lon="-0.90344">
        <ele>164</ele>
        <time>2022-08-27T20:04:52.000Z</time>
      </trkpt>
      <trkpt lat="43.1903" lon="-0.90348">
        <ele>164</ele>
        <time>2022-08-27T20:04:53.000Z</time>
      </trkpt>
      <trkpt lat="43.18276" lon="-0.90296">
        <ele>166</ele>
        <time>2022-08-27T20:07:07.000Z</time>
      </trkpt>
      <trkpt lat="43.18076" lon="-0.90277">
        <ele>169</ele>
        <time>2022-08-27T20:07:43.000Z</time>
      </trkpt>
      <trkpt lat="43.18032" lon="-0.90253">
        <ele>170</ele>
        <time>2022-08-27T20:07:51.000Z</time>
      </trkpt>
      <trkpt lat="43.17998" lon="-0.90228">
        <ele>174</ele>
        <time>2022-08-27T20:07:58.000Z</time>
      </trkpt>
      <trkpt lat="43.1794" lon="-0.90168">
        <ele>176</ele>
        <time>2022-08-27T20:08:11.000Z</time>
      </trkpt>
      <trkpt lat="43.17926" lon="-0.90161">
        <ele>175</ele>
        <time>2022-08-27T20:08:14.000Z</time>
      </trkpt>
      <trkpt lat="43.17796" lon="-0.90148">
        <ele>180</ele>
        <time>2022-08-27T20:08:37.000Z</time>
      </trkpt>
      <trkpt lat="43.17785" lon="-0.90142">
        <ele>181</ele>
        <time>2022-08-27T20:08:39.000Z</time>
      </trkpt>
      <trkpt lat="43.17747" lon="-0.90112">
        <ele>187</ele>
        <time>2022-08-27T20:08:47.000Z</time>
      </trkpt>
      <trkpt lat="43.17662" lon="-0.90031">
        <ele>184</ele>
        <time>2022-08-27T20:09:05.000Z</time>
      </trkpt>
      <trkpt lat="43.17621" lon="-0.90005">
        <ele>180</ele>
        <time>2022-08-27T20:09:13.000Z</time>
      </trkpt>
      <trkpt lat="43.17563" lon="-0.89977">
        <ele>175</ele>
        <time>2022-08-27T20:09:24.000Z</time>
      </trkpt>
      <trkpt lat="43.17428" lon="-0.89922">
        <ele>178</ele>
        <time>2022-08-27T20:09:49.000Z</time>
      </trkpt>
      <trkpt lat="43.17402" lon="-0.89907">
        <ele>182</ele>
        <time>2022-08-27T20:09:54.000Z</time>
      </trkpt>
      <trkpt lat="43.17343" lon="-0.89864">
        <ele>191</ele>
        <time>2022-08-27T20:10:06.000Z</time>
      </trkpt>
      <trkpt lat="43.17274" lon="-0.89802">
        <ele>196</ele>
        <time>2022-08-27T20:10:21.000Z</time>
      </trkpt>
      <trkpt lat="43.1724" lon="-0.89786">
        <ele>195</ele>
        <time>2022-08-27T20:10:27.000Z</time>
      </trkpt>
      <trkpt lat="43.17194" lon="-0.89778">
        <ele>189</ele>
        <time>2022-08-27T20:10:36.000Z</time>
      </trkpt>
      <trkpt lat="43.17181" lon="-0.89768">
        <ele>188</ele>
        <time>2022-08-27T20:10:38.000Z</time>
      </trkpt>
      <trkpt lat="43.17172" lon="-0.89754">
        <ele>189</ele>
        <time>2022-08-27T20:10:41.000Z</time>
      </trkpt>
      <trkpt lat="43.17139" lon="-0.8968">
        <ele>188</ele>
        <time>2022-08-27T20:10:52.000Z</time>
      </trkpt>
      <trkpt lat="43.17118" lon="-0.89658">
        <ele>185</ele>
        <time>2022-08-27T20:10:57.000Z</time>
      </trkpt>
      <trkpt lat="43.17075" lon="-0.89635">
        <ele>179</ele>
        <time>2022-08-27T20:11:05.000Z</time>
      </trkpt>
      <trkpt lat="43.16981" lon="-0.8962">
        <ele>177</ele>
        <time>2022-08-27T20:11:22.000Z</time>
      </trkpt>
      <trkpt lat="43.16957" lon="-0.89605">
        <ele>177</ele>
        <time>2022-08-27T20:11:26.000Z</time>
      </trkpt>
      <trkpt lat="43.16893" lon="-0.89556">
        <ele>180</ele>
        <time>2022-08-27T20:11:39.000Z</time>
      </trkpt>
      <trkpt lat="43.16678" lon="-0.89343">
        <ele>201</ele>
        <time>2022-08-27T20:12:27.000Z</time>
      </trkpt>
      <trkpt lat="43.16629" lon="-0.89317">
        <ele>198</ele>
        <time>2022-08-27T20:12:36.000Z</time>
      </trkpt>
      <trkpt lat="43.16432" lon="-0.89235">
        <ele>189</ele>
        <time>2022-08-27T20:13:13.000Z</time>
      </trkpt>
      <trkpt lat="43.16253" lon="-0.89241">
        <ele>194</ele>
        <time>2022-08-27T20:13:44.000Z</time>
      </trkpt>
      <trkpt lat="43.16212" lon="-0.8925">
        <ele>193</ele>
        <time>2022-08-27T20:13:52.000Z</time>
      </trkpt>
      <trkpt lat="43.16133" lon="-0.89235">
        <ele>196</ele>
        <time>2022-08-27T20:14:06.000Z</time>
      </trkpt>
      <trkpt lat="43.1608" lon="-0.89226">
        <ele>200</ele>
        <time>2022-08-27T20:14:16.000Z</time>
      </trkpt>
      <trkpt lat="43.16025" lon="-0.89232">
        <ele>199</ele>
        <time>2022-08-27T20:14:25.000Z</time>
      </trkpt>
      <trkpt lat="43.15972" lon="-0.89254">
        <ele>193</ele>
        <time>2022-08-27T20:14:35.000Z</time>
      </trkpt>
      <trkpt lat="43.15881" lon="-0.89247">
        <ele>192</ele>
        <time>2022-08-27T20:14:52.000Z</time>
      </trkpt>
      <trkpt lat="43.15794" lon="-0.89215">
        <ele>193</ele>
        <time>2022-08-27T20:15:08.000Z</time>
      </trkpt>
      <trkpt lat="43.15589" lon="-0.89145">
        <ele>192</ele>
        <time>2022-08-27T20:15:45.000Z</time>
      </trkpt>
      <trkpt lat="43.15397" lon="-0.89101">
        <ele>194</ele>
        <time>2022-08-27T20:16:20.000Z</time>
      </trkpt>
      <trkpt lat="43.15388" lon="-0.89106">
        <ele>194</ele>
        <time>2022-08-27T20:16:22.000Z</time>
      </trkpt>
      <trkpt lat="43.15331" lon="-0.89094">
        <ele>196</ele>
        <time>2022-08-27T20:16:32.000Z</time>
      </trkpt>
      <trkpt lat="43.15307" lon="-0.89085">
        <ele>196</ele>
        <time>2022-08-27T20:16:36.000Z</time>
      </trkpt>
      <trkpt lat="43.15258" lon="-0.89074">
        <ele>195</ele>
        <time>2022-08-27T20:16:45.000Z</time>
      </trkpt>
      <trkpt lat="43.15228" lon="-0.89054">
        <ele>195</ele>
        <time>2022-08-27T20:16:51.000Z</time>
      </trkpt>
      <trkpt lat="43.15204" lon="-0.89046">
        <ele>195</ele>
        <time>2022-08-27T20:16:56.000Z</time>
      </trkpt>
      <trkpt lat="43.15048" lon="-0.89021">
        <ele>195</ele>
        <time>2022-08-27T20:17:24.000Z</time>
      </trkpt>
      <trkpt lat="43.14884" lon="-0.88978">
        <ele>197</ele>
        <time>2022-08-27T20:17:53.000Z</time>
      </trkpt>
      <trkpt lat="43.148" lon="-0.88957">
        <ele>197</ele>
        <time>2022-08-27T20:18:08.000Z</time>
      </trkpt>
      <trkpt lat="43.1466" lon="-0.88965">
        <ele>203</ele>
        <time>2022-08-27T20:18:33.000Z</time>
      </trkpt>
      <trkpt lat="43.14631" lon="-0.88951">
        <ele>203</ele>
        <time>2022-08-27T20:18:39.000Z</time>
      </trkpt>
      <trkpt lat="43.14603" lon="-0.88923">
        <ele>204</ele>
        <time>2022-08-27T20:18:45.000Z</time>
      </trkpt>
      <trkpt lat="43.14584" lon="-0.88888">
        <ele>207</ele>
        <time>2022-08-27T20:18:51.000Z</time>
      </trkpt>
      <trkpt lat="43.14485" lon="-0.88589">
        <ele>205</ele>
        <time>2022-08-27T20:19:33.000Z</time>
      </trkpt>
      <trkpt lat="43.14166" lon="-0.87891">
        <ele>207</ele>
        <time>2022-08-27T20:21:20.000Z</time>
      </trkpt>
      <trkpt lat="43.1414" lon="-0.87844">
        <ele>206</ele>
        <time>2022-08-27T20:21:28.000Z</time>
      </trkpt>
      <trkpt lat="43.14102" lon="-0.87801">
        <ele>207</ele>
        <time>2022-08-27T20:21:37.000Z</time>
      </trkpt>
      <trkpt lat="43.14046" lon="-0.87763">
        <ele>206</ele>
        <time>2022-08-27T20:21:48.000Z</time>
      </trkpt>
      <trkpt lat="43.1389" lon="-0.87677">
        <ele>208</ele>
        <time>2022-08-27T20:22:18.000Z</time>
      </trkpt>
      <trkpt lat="43.13671" lon="-0.87564">
        <ele>210</ele>
        <time>2022-08-27T20:22:59.000Z</time>
      </trkpt>
      <trkpt lat="43.13618" lon="-0.87551">
        <ele>211</ele>
        <time>2022-08-27T20:23:09.000Z</time>
      </trkpt>
      <trkpt lat="43.13518" lon="-0.87538">
        <ele>212</ele>
        <time>2022-08-27T20:23:27.000Z</time>
      </trkpt>
      <trkpt lat="43.13496" lon="-0.87551">
        <ele>212</ele>
        <time>2022-08-27T20:23:31.000Z</time>
      </trkpt>
      <trkpt lat="43.13425" lon="-0.87639">
        <ele>212</ele>
        <time>2022-08-27T20:23:48.000Z</time>
      </trkpt>
      <trkpt lat="43.13409" lon="-0.87649">
        <ele>212</ele>
        <time>2022-08-27T20:23:51.000Z</time>
      </trkpt>
      <trkpt lat="43.1325" lon="-0.87679">
        <ele>215</ele>
        <time>2022-08-27T20:24:20.000Z</time>
      </trkpt>
      <trkpt lat="43.1314" lon="-0.87686">
        <ele>219</ele>
        <time>2022-08-27T20:24:39.000Z</time>
      </trkpt>
      <trkpt lat="43.13121" lon="-0.87679">
        <ele>219</ele>
        <time>2022-08-27T20:24:43.000Z</time>
      </trkpt>
      <trkpt lat="43.13069" lon="-0.8764">
        <ele>218</ele>
        <time>2022-08-27T20:24:54.000Z</time>
      </trkpt>
      <trkpt lat="43.12419" lon="-0.87556">
        <ele>222</ele>
        <time>2022-08-27T20:26:50.000Z</time>
      </trkpt>
      <trkpt lat="43.12395" lon="-0.87546">
        <ele>221</ele>
        <time>2022-08-27T20:26:54.000Z</time>
      </trkpt>
      <trkpt lat="43.12365" lon="-0.87523">
        <ele>220</ele>
        <time>2022-08-27T20:27:01.000Z</time>
      </trkpt>
      <trkpt lat="43.12345" lon="-0.87492">
        <ele>220</ele>
        <time>2022-08-27T20:27:06.000Z</time>
      </trkpt>
      <trkpt lat="43.12325" lon="-0.87443">
        <ele>223</ele>
        <time>2022-08-27T20:27:13.000Z</time>
      </trkpt>
      <trkpt lat="43.12217" lon="-0.87032">
        <ele>230</ele>
        <time>2022-08-27T20:28:10.000Z</time>
      </trkpt>
      <trkpt lat="43.12204" lon="-0.86997">
        <ele>228</ele>
        <time>2022-08-27T20:28:15.000Z</time>
      </trkpt>
      <trkpt lat="43.12093" lon="-0.86772">
        <ele>220</ele>
        <time>2022-08-27T20:28:50.000Z</time>
      </trkpt>
      <trkpt lat="43.12067" lon="-0.8674">
        <ele>216</ele>
        <time>2022-08-27T20:28:57.000Z</time>
      </trkpt>
      <trkpt lat="43.11999" lon="-0.86665">
        <ele>218</ele>
        <time>2022-08-27T20:29:12.000Z</time>
      </trkpt>
      <trkpt lat="43.11971" lon="-0.86618">
        <ele>223</ele>
        <time>2022-08-27T20:29:20.000Z</time>
      </trkpt>
      <trkpt lat="43.11938" lon="-0.86571">
        <ele>227</ele>
        <time>2022-08-27T20:29:28.000Z</time>
      </trkpt>
      <trkpt lat="43.11905" lon="-0.86539">
        <ele>228</ele>
        <time>2022-08-27T20:29:36.000Z</time>
      </trkpt>
      <trkpt lat="43.11859" lon="-0.86503">
        <ele>226</ele>
        <time>2022-08-27T20:29:45.000Z</time>
      </trkpt>
      <trkpt lat="43.1169" lon="-0.86384">
        <ele>221</ele>
        <time>2022-08-27T20:30:19.000Z</time>
      </trkpt>
      <trkpt lat="43.11673" lon="-0.86375">
        <ele>222</ele>
        <time>2022-08-27T20:30:22.000Z</time>
      </trkpt>
      <trkpt lat="43.11663" lon="-0.86362">
        <ele>223</ele>
        <time>2022-08-27T20:30:25.000Z</time>
      </trkpt>
      <trkpt lat="43.11654" lon="-0.86331">
        <ele>225</ele>
        <time>2022-08-27T20:30:29.000Z</time>
      </trkpt>
      <trkpt lat="43.11606" lon="-0.863">
        <ele>227</ele>
        <time>2022-08-27T20:30:38.000Z</time>
      </trkpt>
      <trkpt lat="43.11577" lon="-0.86273">
        <ele>229</ele>
        <time>2022-08-27T20:30:45.000Z</time>
      </trkpt>
      <trkpt lat="43.11543" lon="-0.86229">
        <ele>229</ele>
        <time>2022-08-27T20:30:53.000Z</time>
      </trkpt>
      <trkpt lat="43.11501" lon="-0.86196">
        <ele>230</ele>
        <time>2022-08-27T20:31:01.000Z</time>
      </trkpt>
      <trkpt lat="43.11238" lon="-0.8603">
        <ele>243</ele>
        <time>2022-08-27T20:31:53.000Z</time>
      </trkpt>
      <trkpt lat="43.11214" lon="-0.86018">
        <ele>243</ele>
        <time>2022-08-27T20:31:58.000Z</time>
      </trkpt>
      <trkpt lat="43.11156" lon="-0.86005">
        <ele>237</ele>
        <time>2022-08-27T20:32:08.000Z</time>
      </trkpt>
      <trkpt lat="43.11043" lon="-0.86006">
        <ele>230</ele>
        <time>2022-08-27T20:32:28.000Z</time>
      </trkpt>
      <trkpt lat="43.11011" lon="-0.86002">
        <ele>230</ele>
        <time>2022-08-27T20:32:34.000Z</time>
      </trkpt>
      <trkpt lat="43.10954" lon="-0.85978">
        <ele>232</ele>
        <time>2022-08-27T20:32:44.000Z</time>
      </trkpt>
      <trkpt lat="43.10923" lon="-0.85958">
        <ele>232</ele>
        <time>2022-08-27T20:32:51.000Z</time>
      </trkpt>
      <trkpt lat="43.10847" lon="-0.85891">
        <ele>237</ele>
        <time>2022-08-27T20:33:07.000Z</time>
      </trkpt>
      <trkpt lat="43.10822" lon="-0.85865">
        <ele>238</ele>
        <time>2022-08-27T20:33:12.000Z</time>
      </trkpt>
      <trkpt lat="43.10741" lon="-0.85741">
        <ele>244</ele>
        <time>2022-08-27T20:33:34.000Z</time>
      </trkpt>
      <trkpt lat="43.10727" lon="-0.85728">
        <ele>246</ele>
        <time>2022-08-27T20:33:37.000Z</time>
      </trkpt>
      <trkpt lat="43.10628" lon="-0.85687">
        <ele>240</ele>
        <time>2022-08-27T20:33:56.000Z</time>
      </trkpt>
      <trkpt lat="43.10622" lon="-0.8568">
        <ele>240</ele>
        <time>2022-08-27T20:33:57.000Z</time>
      </trkpt>
      <trkpt lat="43.10561" lon="-0.85535">
        <ele>248</ele>
        <time>2022-08-27T20:34:19.000Z</time>
      </trkpt>
      <trkpt lat="43.1046" lon="-0.85367">
        <ele>249</ele>
        <time>2022-08-27T20:34:47.000Z</time>
      </trkpt>
      <trkpt lat="43.10423" lon="-0.85316">
        <ele>245</ele>
        <time>2022-08-27T20:34:56.000Z</time>
      </trkpt>
      <trkpt lat="43.10372" lon="-0.85257">
        <ele>245</ele>
        <time>2022-08-27T20:35:08.000Z</time>
      </trkpt>
      <trkpt lat="43.10227" lon="-0.851">
        <ele>245</ele>
        <time>2022-08-27T20:35:41.000Z</time>
      </trkpt>
      <trkpt lat="43.1021" lon="-0.85069">
        <ele>244</ele>
        <time>2022-08-27T20:35:46.000Z</time>
      </trkpt>
      <trkpt lat="43.10191" lon="-0.8501">
        <ele>243</ele>
        <time>2022-08-27T20:35:55.000Z</time>
      </trkpt>
      <trkpt lat="43.10175" lon="-0.84858">
        <ele>240</ele>
        <time>2022-08-27T20:36:15.000Z</time>
      </trkpt>
      <trkpt lat="43.10148" lon="-0.84649">
        <ele>243</ele>
        <time>2022-08-27T20:36:42.000Z</time>
      </trkpt>
      <trkpt lat="43.1014" lon="-0.84565">
        <ele>243</ele>
        <time>2022-08-27T20:36:53.000Z</time>
      </trkpt>
      <trkpt lat="43.10137" lon="-0.84495">
        <ele>245</ele>
        <time>2022-08-27T20:37:02.000Z</time>
      </trkpt>
      <trkpt lat="43.10142" lon="-0.84375">
        <ele>246</ele>
        <time>2022-08-27T20:37:18.000Z</time>
      </trkpt>
      <trkpt lat="43.1014" lon="-0.84283">
        <ele>244</ele>
        <time>2022-08-27T20:37:30.000Z</time>
      </trkpt>
      <trkpt lat="43.10121" lon="-0.84187">
        <ele>245</ele>
        <time>2022-08-27T20:37:43.000Z</time>
      </trkpt>
      <trkpt lat="43.1011" lon="-0.84111">
        <ele>247</ele>
        <time>2022-08-27T20:37:53.000Z</time>
      </trkpt>
      <trkpt lat="43.10134" lon="-0.83895">
        <ele>255</ele>
        <time>2022-08-27T20:38:22.000Z</time>
      </trkpt>
      <trkpt lat="43.10129" lon="-0.8381">
        <ele>249</ele>
        <time>2022-08-27T20:38:33.000Z</time>
      </trkpt>
      <trkpt lat="43.10084" lon="-0.83396">
        <ele>254</ele>
        <time>2022-08-27T20:39:27.000Z</time>
      </trkpt>
      <trkpt lat="43.10058" lon="-0.83197">
        <ele>253</ele>
        <time>2022-08-27T20:39:53.000Z</time>
      </trkpt>
      <trkpt lat="43.09992" lon="-0.82831">
        <ele>256</ele>
        <time>2022-08-27T20:40:42.000Z</time>
      </trkpt>
      <trkpt lat="43.0999" lon="-0.82809">
        <ele>258</ele>
        <time>2022-08-27T20:40:45.000Z</time>
      </trkpt>
      <trkpt lat="43.09992" lon="-0.82761">
        <ele>260</ele>
        <time>2022-08-27T20:40:51.000Z</time>
      </trkpt>
      <trkpt lat="43.10027" lon="-0.82609">
        <ele>265</ele>
        <time>2022-08-27T20:41:12.000Z</time>
      </trkpt>
      <trkpt lat="43.10025" lon="-0.82589">
        <ele>265</ele>
        <time>2022-08-27T20:41:15.000Z</time>
      </trkpt>
      <trkpt lat="43.09798" lon="-0.81953">
        <ele>268</ele>
        <time>2022-08-27T20:42:47.000Z</time>
      </trkpt>
      <trkpt lat="43.09795" lon="-0.81929">
        <ele>268</ele>
        <time>2022-08-27T20:42:50.000Z</time>
      </trkpt>
      <trkpt lat="43.09842" lon="-0.81722">
        <ele>262</ele>
        <time>2022-08-27T20:43:18.000Z</time>
      </trkpt>
      <trkpt lat="43.09869" lon="-0.81677">
        <ele>262</ele>
        <time>2022-08-27T20:43:26.000Z</time>
      </trkpt>
      <trkpt lat="43.09943" lon="-0.8156">
        <ele>274</ele>
        <time>2022-08-27T20:43:46.000Z</time>
      </trkpt>
      <trkpt lat="43.10029" lon="-0.81518">
        <ele>289</ele>
        <time>2022-08-27T20:44:02.000Z</time>
      </trkpt>
      <trkpt lat="43.10048" lon="-0.81506">
        <ele>291</ele>
        <time>2022-08-27T20:44:06.000Z</time>
      </trkpt>
      <trkpt lat="43.10099" lon="-0.81438">
        <ele>290</ele>
        <time>2022-08-27T20:44:19.000Z</time>
      </trkpt>
      <trkpt lat="43.10107" lon="-0.81413">
        <ele>289</ele>
        <time>2022-08-27T20:44:22.000Z</time>
      </trkpt>
      <trkpt lat="43.10143" lon="-0.81216">
        <ele>279</ele>
        <time>2022-08-27T20:44:49.000Z</time>
      </trkpt>
      <trkpt lat="43.10141" lon="-0.81168">
        <ele>279</ele>
        <time>2022-08-27T20:44:55.000Z</time>
      </trkpt>
      <trkpt lat="43.10125" lon="-0.81092">
        <ele>284</ele>
        <time>2022-08-27T20:45:05.000Z</time>
      </trkpt>
      <trkpt lat="43.10112" lon="-0.81054">
        <ele>289</ele>
        <time>2022-08-27T20:45:11.000Z</time>
      </trkpt>
      <trkpt lat="43.10055" lon="-0.80944">
        <ele>301</ele>
        <time>2022-08-27T20:45:28.000Z</time>
      </trkpt>
      <trkpt lat="43.10048" lon="-0.80904">
        <ele>304</ele>
        <time>2022-08-27T20:45:34.000Z</time>
      </trkpt>
      <trkpt lat="43.10048" lon="-0.80885">
        <ele>304</ele>
        <time>2022-08-27T20:45:36.000Z</time>
      </trkpt>
      <trkpt lat="43.10063" lon="-0.80829">
        <ele>308</ele>
        <time>2022-08-27T20:45:44.000Z</time>
      </trkpt>
      <trkpt lat="43.10074" lon="-0.80813">
        <ele>308</ele>
        <time>2022-08-27T20:45:47.000Z</time>
      </trkpt>
      <trkpt lat="43.1012" lon="-0.80774">
        <ele>314</ele>
        <time>2022-08-27T20:45:56.000Z</time>
      </trkpt>
      <trkpt lat="43.10232" lon="-0.80691">
        <ele>330</ele>
        <time>2022-08-27T20:46:19.000Z</time>
      </trkpt>
      <trkpt lat="43.10289" lon="-0.80609">
        <ele>336</ele>
        <time>2022-08-27T20:46:34.000Z</time>
      </trkpt>
      <trkpt lat="43.10314" lon="-0.80535">
        <ele>344</ele>
        <time>2022-08-27T20:46:44.000Z</time>
      </trkpt>
      <trkpt lat="43.10321" lon="-0.80491">
        <ele>347</ele>
        <time>2022-08-27T20:46:50.000Z</time>
      </trkpt>
      <trkpt lat="43.10319" lon="-0.80461">
        <ele>349</ele>
        <time>2022-08-27T20:46:54.000Z</time>
      </trkpt>
      <trkpt lat="43.10292" lon="-0.80397">
        <ele>346</ele>
        <time>2022-08-27T20:47:04.000Z</time>
      </trkpt>
      <trkpt lat="43.10286" lon="-0.80367">
        <ele>347</ele>
        <time>2022-08-27T20:47:08.000Z</time>
      </trkpt>
      <trkpt lat="43.10297" lon="-0.80291">
        <ele>357</ele>
        <time>2022-08-27T20:47:18.000Z</time>
      </trkpt>
      <trkpt lat="43.10298" lon="-0.80276">
        <ele>359</ele>
        <time>2022-08-27T20:47:20.000Z</time>
      </trkpt>
      <trkpt lat="43.10298" lon="-0.80242">
        <ele>363</ele>
        <time>2022-08-27T20:47:24.000Z</time>
      </trkpt>
      <trkpt lat="43.10289" lon="-0.80078">
        <ele>375</ele>
        <time>2022-08-27T20:47:46.000Z</time>
      </trkpt>
      <trkpt lat="43.10297" lon="-0.80036">
        <ele>374</ele>
        <time>2022-08-27T20:47:51.000Z</time>
      </trkpt>
      <trkpt lat="43.10302" lon="-0.80021">
        <ele>374</ele>
        <time>2022-08-27T20:47:54.000Z</time>
      </trkpt>
      <trkpt lat="43.10523" lon="-0.79475">
        <ele>357</ele>
        <time>2022-08-27T20:49:15.000Z</time>
      </trkpt>
      <trkpt lat="43.10577" lon="-0.79336">
        <ele>353</ele>
        <time>2022-08-27T20:49:35.000Z</time>
      </trkpt>
      <trkpt lat="43.10587" lon="-0.79319">
        <ele>353</ele>
        <time>2022-08-27T20:49:38.000Z</time>
      </trkpt>
      <trkpt lat="43.10696" lon="-0.79185">
        <ele>357</ele>
        <time>2022-08-27T20:50:04.000Z</time>
      </trkpt>
      <trkpt lat="43.10761" lon="-0.79064">
        <ele>347</ele>
        <time>2022-08-27T20:50:24.000Z</time>
      </trkpt>
      <trkpt lat="43.10782" lon="-0.79032">
        <ele>346</ele>
        <time>2022-08-27T20:50:29.000Z</time>
      </trkpt>
      <trkpt lat="43.10874" lon="-0.78943">
        <ele>339</ele>
        <time>2022-08-27T20:50:49.000Z</time>
      </trkpt>
      <trkpt lat="43.10936" lon="-0.78905">
        <ele>338</ele>
        <time>2022-08-27T20:51:01.000Z</time>
      </trkpt>
      <trkpt lat="43.1098" lon="-0.7886">
        <ele>342</ele>
        <time>2022-08-27T20:51:11.000Z</time>
      </trkpt>
      <trkpt lat="43.11016" lon="-0.78805">
        <ele>342</ele>
        <time>2022-08-27T20:51:21.000Z</time>
      </trkpt>
      <trkpt lat="43.11032" lon="-0.78772">
        <ele>341</ele>
        <time>2022-08-27T20:51:26.000Z</time>
      </trkpt>
      <trkpt lat="43.11074" lon="-0.78646">
        <ele>337</ele>
        <time>2022-08-27T20:51:44.000Z</time>
      </trkpt>
      <trkpt lat="43.11085" lon="-0.78541">
        <ele>329</ele>
        <time>2022-08-27T20:51:58.000Z</time>
      </trkpt>
      <trkpt lat="43.11091" lon="-0.78503">
        <ele>327</ele>
        <time>2022-08-27T20:52:03.000Z</time>
      </trkpt>
      <trkpt lat="43.11141" lon="-0.78418">
        <ele>324</ele>
        <time>2022-08-27T20:52:17.000Z</time>
      </trkpt>
      <trkpt lat="43.11147" lon="-0.784">
        <ele>324</ele>
        <time>2022-08-27T20:52:19.000Z</time>
      </trkpt>
      <trkpt lat="43.11156" lon="-0.78216">
        <ele>338</ele>
        <time>2022-08-27T20:52:43.000Z</time>
      </trkpt>
      <trkpt lat="43.11154" lon="-0.78167">
        <ele>338</ele>
        <time>2022-08-27T20:52:50.000Z</time>
      </trkpt>
      <trkpt lat="43.1111" lon="-0.78006">
        <ele>334</ele>
        <time>2022-08-27T20:53:12.000Z</time>
      </trkpt>
      <trkpt lat="43.11051" lon="-0.77838">
        <ele>331</ele>
        <time>2022-08-27T20:53:36.000Z</time>
      </trkpt>
      <trkpt lat="43.11039" lon="-0.77602">
        <ele>318</ele>
        <time>2022-08-27T20:54:07.000Z</time>
      </trkpt>
      <trkpt lat="43.11027" lon="-0.77092">
        <ele>319</ele>
        <time>2022-08-27T20:55:13.000Z</time>
      </trkpt>
      <trkpt lat="43.11037" lon="-0.77059">
        <ele>321</ele>
        <time>2022-08-27T20:55:18.000Z</time>
      </trkpt>
      <trkpt lat="43.11049" lon="-0.77047">
        <ele>321</ele>
        <time>2022-08-27T20:55:21.000Z</time>
      </trkpt>
      <trkpt lat="43.1111" lon="-0.7702">
        <ele>320</ele>
        <time>2022-08-27T20:55:32.000Z</time>
      </trkpt>
      <trkpt lat="43.11142" lon="-0.76994">
        <ele>320</ele>
        <time>2022-08-27T20:55:39.000Z</time>
      </trkpt>
      <trkpt lat="43.11155" lon="-0.76974">
        <ele>321</ele>
        <time>2022-08-27T20:55:42.000Z</time>
      </trkpt>
      <trkpt lat="43.11182" lon="-0.76906">
        <ele>322</ele>
        <time>2022-08-27T20:55:52.000Z</time>
      </trkpt>
      <trkpt lat="43.11214" lon="-0.76742">
        <ele>322</ele>
        <time>2022-08-27T20:56:14.000Z</time>
      </trkpt>
      <trkpt lat="43.11301" lon="-0.76407">
        <ele>323</ele>
        <time>2022-08-27T20:57:01.000Z</time>
      </trkpt>
      <trkpt lat="43.11301" lon="-0.76397">
        <ele>323</ele>
        <time>2022-08-27T20:57:02.000Z</time>
      </trkpt>
      <trkpt lat="43.1131" lon="-0.7639">
        <ele>322</ele>
        <time>2022-08-27T20:57:04.000Z</time>
      </trkpt>
      <trkpt lat="43.11328" lon="-0.7625">
        <ele>324</ele>
        <time>2022-08-27T20:57:23.000Z</time>
      </trkpt>
      <trkpt lat="43.11326" lon="-0.76211">
        <ele>323</ele>
        <time>2022-08-27T20:57:28.000Z</time>
      </trkpt>
      <trkpt lat="43.11327" lon="-0.76057">
        <ele>322</ele>
        <time>2022-08-27T20:57:48.000Z</time>
      </trkpt>
      <trkpt lat="43.11338" lon="-0.75951">
        <ele>320</ele>
        <time>2022-08-27T20:58:02.000Z</time>
      </trkpt>
      <trkpt lat="43.11336" lon="-0.75939">
        <ele>320</ele>
        <time>2022-08-27T20:58:04.000Z</time>
      </trkpt>
      <trkpt lat="43.11331" lon="-0.75924">
        <ele>320</ele>
        <time>2022-08-27T20:58:06.000Z</time>
      </trkpt>
      <trkpt lat="43.11258" lon="-0.75851">
        <ele>323</ele>
        <time>2022-08-27T20:58:22.000Z</time>
      </trkpt>
      <trkpt lat="43.11244" lon="-0.7582">
        <ele>323</ele>
        <time>2022-08-27T20:58:27.000Z</time>
      </trkpt>
      <trkpt lat="43.11237" lon="-0.75785">
        <ele>322</ele>
        <time>2022-08-27T20:58:31.000Z</time>
      </trkpt>
      <trkpt lat="43.11242" lon="-0.7574">
        <ele>320</ele>
        <time>2022-08-27T20:58:37.000Z</time>
      </trkpt>
      <trkpt lat="43.11273" lon="-0.75574">
        <ele>314</ele>
        <time>2022-08-27T20:58:59.000Z</time>
      </trkpt>
      <trkpt lat="43.11274" lon="-0.75205">
        <ele>292</ele>
        <time>2022-08-27T20:59:47.000Z</time>
      </trkpt>
      <trkpt lat="43.11278" lon="-0.75051">
        <ele>289</ele>
        <time>2022-08-27T21:00:07.000Z</time>
      </trkpt>
      <trkpt lat="43.11274" lon="-0.74965">
        <ele>288</ele>
        <time>2022-08-27T21:00:19.000Z</time>
      </trkpt>
      <trkpt lat="43.11265" lon="-0.74906">
        <ele>288</ele>
        <time>2022-08-27T21:00:26.000Z</time>
      </trkpt>
      <trkpt lat="43.11233" lon="-0.74769">
        <ele>299</ele>
        <time>2022-08-27T21:00:45.000Z</time>
      </trkpt>
      <trkpt lat="43.11229" lon="-0.74718">
        <ele>304</ele>
        <time>2022-08-27T21:00:52.000Z</time>
      </trkpt>
      <trkpt lat="43.11234" lon="-0.74658">
        <ele>308</ele>
        <time>2022-08-27T21:01:00.000Z</time>
      </trkpt>
      <trkpt lat="43.11262" lon="-0.74566">
        <ele>310</ele>
        <time>2022-08-27T21:01:13.000Z</time>
      </trkpt>
      <trkpt lat="43.11289" lon="-0.74442">
        <ele>315</ele>
        <time>2022-08-27T21:01:29.000Z</time>
      </trkpt>
      <trkpt lat="43.11352" lon="-0.74251">
        <ele>310</ele>
        <time>2022-08-27T21:01:57.000Z</time>
      </trkpt>
      <trkpt lat="43.1137" lon="-0.74181">
        <ele>309</ele>
        <time>2022-08-27T21:02:06.000Z</time>
      </trkpt>
      <trkpt lat="43.11373" lon="-0.74157">
        <ele>309</ele>
        <time>2022-08-27T21:02:09.000Z</time>
      </trkpt>
      <trkpt lat="43.11372" lon="-0.74131">
        <ele>310</ele>
        <time>2022-08-27T21:02:13.000Z</time>
      </trkpt>
      <trkpt lat="43.11351" lon="-0.7403">
        <ele>312</ele>
        <time>2022-08-27T21:02:26.000Z</time>
      </trkpt>
      <trkpt lat="43.11338" lon="-0.73859">
        <ele>311</ele>
        <time>2022-08-27T21:02:49.000Z</time>
      </trkpt>
      <trkpt lat="43.11338" lon="-0.73809">
        <ele>311</ele>
        <time>2022-08-27T21:02:55.000Z</time>
      </trkpt>
      <trkpt lat="43.11348" lon="-0.73778">
        <ele>311</ele>
        <time>2022-08-27T21:03:00.000Z</time>
      </trkpt>
      <trkpt lat="43.11355" lon="-0.73766">
        <ele>311</ele>
        <time>2022-08-27T21:03:02.000Z</time>
      </trkpt>
      <trkpt lat="43.11253" lon="-0.73619">
        <ele>313</ele>
        <time>2022-08-27T21:03:28.000Z</time>
      </trkpt>
      <trkpt lat="43.11222" lon="-0.73587">
        <ele>311</ele>
        <time>2022-08-27T21:03:35.000Z</time>
      </trkpt>
      <trkpt lat="43.1121" lon="-0.73581">
        <ele>310</ele>
        <time>2022-08-27T21:03:37.000Z</time>
      </trkpt>
      <trkpt lat="43.11187" lon="-0.73573">
        <ele>309</ele>
        <time>2022-08-27T21:03:41.000Z</time>
      </trkpt>
      <trkpt lat="43.10881" lon="-0.73554">
        <ele>299</ele>
        <time>2022-08-27T21:04:36.000Z</time>
      </trkpt>
      <trkpt lat="43.10822" lon="-0.73541">
        <ele>298</ele>
        <time>2022-08-27T21:04:46.000Z</time>
      </trkpt>
      <trkpt lat="43.10784" lon="-0.73528">
        <ele>298</ele>
        <time>2022-08-27T21:04:53.000Z</time>
      </trkpt>
      <trkpt lat="43.10732" lon="-0.73505">
        <ele>299</ele>
        <time>2022-08-27T21:05:03.000Z</time>
      </trkpt>
      <trkpt lat="43.10634" lon="-0.7344">
        <ele>301</ele>
        <time>2022-08-27T21:05:23.000Z</time>
      </trkpt>
      <trkpt lat="43.10609" lon="-0.73416">
        <ele>302</ele>
        <time>2022-08-27T21:05:28.000Z</time>
      </trkpt>
      <trkpt lat="43.10586" lon="-0.73392">
        <ele>302</ele>
        <time>2022-08-27T21:05:33.000Z</time>
      </trkpt>
      <trkpt lat="43.105" lon="-0.73277">
        <ele>303</ele>
        <time>2022-08-27T21:05:55.000Z</time>
      </trkpt>
      <trkpt lat="43.10357" lon="-0.7312">
        <ele>303</ele>
        <time>2022-08-27T21:06:27.000Z</time>
      </trkpt>
      <trkpt lat="43.1033" lon="-0.73081">
        <ele>303</ele>
        <time>2022-08-27T21:06:34.000Z</time>
      </trkpt>
      <trkpt lat="43.10256" lon="-0.72946">
        <ele>303</ele>
        <time>2022-08-27T21:06:56.000Z</time>
      </trkpt>
      <trkpt lat="43.10227" lon="-0.72843">
        <ele>305</ele>
        <time>2022-08-27T21:07:10.000Z</time>
      </trkpt>
      <trkpt lat="43.10213" lon="-0.72807">
        <ele>306</ele>
        <time>2022-08-27T21:07:16.000Z</time>
      </trkpt>
      <trkpt lat="43.10183" lon="-0.72761">
        <ele>307</ele>
        <time>2022-08-27T21:07:24.000Z</time>
      </trkpt>
      <trkpt lat="43.10149" lon="-0.72697">
        <ele>307</ele>
        <time>2022-08-27T21:07:34.000Z</time>
      </trkpt>
      <trkpt lat="43.10058" lon="-0.7247">
        <ele>309</ele>
        <time>2022-08-27T21:08:08.000Z</time>
      </trkpt>
      <trkpt lat="43.10048" lon="-0.72449">
        <ele>309</ele>
        <time>2022-08-27T21:08:11.000Z</time>
      </trkpt>
      <trkpt lat="43.10013" lon="-0.72412">
        <ele>310</ele>
        <time>2022-08-27T21:08:19.000Z</time>
      </trkpt>
      <trkpt lat="43.09961" lon="-0.72334">
        <ele>310</ele>
        <time>2022-08-27T21:08:33.000Z</time>
      </trkpt>
      <trkpt lat="43.09916" lon="-0.72292">
        <ele>313</ele>
        <time>2022-08-27T21:08:42.000Z</time>
      </trkpt>
      <trkpt lat="43.09907" lon="-0.72281">
        <ele>313</ele>
        <time>2022-08-27T21:08:44.000Z</time>
      </trkpt>
      <trkpt lat="43.09848" lon="-0.72231">
        <ele>316</ele>
        <time>2022-08-27T21:08:57.000Z</time>
      </trkpt>
      <trkpt lat="43.09817" lon="-0.72212">
        <ele>316</ele>
        <time>2022-08-27T21:09:03.000Z</time>
      </trkpt>
      <trkpt lat="43.09763" lon="-0.72194">
        <ele>316</ele>
        <time>2022-08-27T21:09:13.000Z</time>
      </trkpt>
      <trkpt lat="43.09744" lon="-0.72181">
        <ele>316</ele>
        <time>2022-08-27T21:09:16.000Z</time>
      </trkpt>
      <trkpt lat="43.09738" lon="-0.72166">
        <ele>316</ele>
        <time>2022-08-27T21:09:19.000Z</time>
      </trkpt>
      <trkpt lat="43.09736" lon="-0.72145">
        <ele>316</ele>
        <time>2022-08-27T21:09:21.000Z</time>
      </trkpt>
      <trkpt lat="43.09738" lon="-0.72081">
        <ele>316</ele>
        <time>2022-08-27T21:09:30.000Z</time>
      </trkpt>
      <trkpt lat="43.09732" lon="-0.72059">
        <ele>317</ele>
        <time>2022-08-27T21:09:33.000Z</time>
      </trkpt>
      <trkpt lat="43.09704" lon="-0.72011">
        <ele>317</ele>
        <time>2022-08-27T21:09:41.000Z</time>
      </trkpt>
      <trkpt lat="43.09685" lon="-0.71989">
        <ele>318</ele>
        <time>2022-08-27T21:09:45.000Z</time>
      </trkpt>
      <trkpt lat="43.09623" lon="-0.71947">
        <ele>319</ele>
        <time>2022-08-27T21:09:58.000Z</time>
      </trkpt>
      <trkpt lat="43.09596" lon="-0.71921">
        <ele>320</ele>
        <time>2022-08-27T21:10:03.000Z</time>
      </trkpt>
      <trkpt lat="43.0956" lon="-0.71854">
        <ele>321</ele>
        <time>2022-08-27T21:10:14.000Z</time>
      </trkpt>
      <trkpt lat="43.0954" lon="-0.71797">
        <ele>322</ele>
        <time>2022-08-27T21:10:22.000Z</time>
      </trkpt>
      <trkpt lat="43.09556" lon="-0.71722">
        <ele>323</ele>
        <time>2022-08-27T21:10:33.000Z</time>
      </trkpt>
      <trkpt lat="43.09557" lon="-0.71705">
        <ele>324</ele>
        <time>2022-08-27T21:10:35.000Z</time>
      </trkpt>
      <trkpt lat="43.09521" lon="-0.71709">
        <ele>325</ele>
        <time>2022-08-27T21:10:41.000Z</time>
      </trkpt>
      <trkpt lat="43.09494" lon="-0.71693">
        <ele>326</ele>
        <time>2022-08-27T21:10:47.000Z</time>
      </trkpt>
      <trkpt lat="43.095" lon="-0.71679">
        <ele>326</ele>
        <time>2022-08-27T21:10:49.000Z</time>
      </trkpt>
      <trkpt lat="43.09508" lon="-0.7164">
        <ele>326</ele>
        <time>2022-08-27T21:10:54.000Z</time>
      </trkpt>
      <trkpt lat="43.09517" lon="-0.71531">
        <ele>325</ele>
        <time>2022-08-27T21:11:08.000Z</time>
      </trkpt>
      <trkpt lat="43.09525" lon="-0.71446">
        <ele>332</ele>
        <time>2022-08-27T21:11:20.000Z</time>
      </trkpt>
      <trkpt lat="43.09494" lon="-0.71353">
        <ele>333</ele>
        <time>2022-08-27T21:11:33.000Z</time>
      </trkpt>
      <trkpt lat="43.09495" lon="-0.71342">
        <ele>334</ele>
        <time>2022-08-27T21:11:35.000Z</time>
      </trkpt>
      <trkpt lat="43.0956" lon="-0.71215">
        <ele>353</ele>
        <time>2022-08-27T21:11:55.000Z</time>
      </trkpt>
      <trkpt lat="43.09564" lon="-0.712">
        <ele>354</ele>
        <time>2022-08-27T21:11:57.000Z</time>
      </trkpt>
      <trkpt lat="43.09572" lon="-0.71131">
        <ele>356</ele>
        <time>2022-08-27T21:12:06.000Z</time>
      </trkpt>
      <trkpt lat="43.09576" lon="-0.71059">
        <ele>359</ele>
        <time>2022-08-27T21:12:15.000Z</time>
      </trkpt>
      <trkpt lat="43.09568" lon="-0.71011">
        <ele>362</ele>
        <time>2022-08-27T21:12:22.000Z</time>
      </trkpt>
      <trkpt lat="43.09553" lon="-0.7097">
        <ele>365</ele>
        <time>2022-08-27T21:12:28.000Z</time>
      </trkpt>
      <trkpt lat="43.09529" lon="-0.70941">
        <ele>366</ele>
        <time>2022-08-27T21:12:34.000Z</time>
      </trkpt>
      <trkpt lat="43.09521" lon="-0.70946">
        <ele>365</ele>
        <time>2022-08-27T21:12:35.000Z</time>
      </trkpt>
      <trkpt lat="43.09518" lon="-0.70959">
        <ele>365</ele>
        <time>2022-08-27T21:12:37.000Z</time>
      </trkpt>
      <trkpt lat="43.09522" lon="-0.70999">
        <ele>364</ele>
        <time>2022-08-27T21:12:42.000Z</time>
      </trkpt>
      <trkpt lat="43.09536" lon="-0.71059">
        <ele>362</ele>
        <time>2022-08-27T21:12:50.000Z</time>
      </trkpt>
      <trkpt lat="43.09533" lon="-0.71083">
        <ele>362</ele>
        <time>2022-08-27T21:12:53.000Z</time>
      </trkpt>
      <trkpt lat="43.09464" lon="-0.7119">
        <ele>359</ele>
        <time>2022-08-27T21:13:12.000Z</time>
      </trkpt>
      <trkpt lat="43.09432" lon="-0.71209">
        <ele>361</ele>
        <time>2022-08-27T21:13:18.000Z</time>
      </trkpt>
      <trkpt lat="43.09357" lon="-0.71223">
        <ele>361</ele>
        <time>2022-08-27T21:13:32.000Z</time>
      </trkpt>
      <trkpt lat="43.09339" lon="-0.71219">
        <ele>362</ele>
        <time>2022-08-27T21:13:35.000Z</time>
      </trkpt>
      <trkpt lat="43.09311" lon="-0.71204">
        <ele>364</ele>
        <time>2022-08-27T21:13:41.000Z</time>
      </trkpt>
      <trkpt lat="43.09266" lon="-0.71169">
        <ele>369</ele>
        <time>2022-08-27T21:13:50.000Z</time>
      </trkpt>
      <trkpt lat="43.09205" lon="-0.71144">
        <ele>364</ele>
        <time>2022-08-27T21:14:01.000Z</time>
      </trkpt>
      <trkpt lat="43.092" lon="-0.71133">
        <ele>365</ele>
        <time>2022-08-27T21:14:03.000Z</time>
      </trkpt>
      <trkpt lat="43.09246" lon="-0.71051">
        <ele>385</ele>
        <time>2022-08-27T21:14:17.000Z</time>
      </trkpt>
      <trkpt lat="43.09251" lon="-0.71024">
        <ele>389</ele>
        <time>2022-08-27T21:14:20.000Z</time>
      </trkpt>
      <trkpt lat="43.09246" lon="-0.71006">
        <ele>390</ele>
        <time>2022-08-27T21:14:23.000Z</time>
      </trkpt>
      <trkpt lat="43.09236" lon="-0.70997">
        <ele>389</ele>
        <time>2022-08-27T21:14:25.000Z</time>
      </trkpt>
      <trkpt lat="43.09197" lon="-0.7099">
        <ele>383</ele>
        <time>2022-08-27T21:14:32.000Z</time>
      </trkpt>
      <trkpt lat="43.0918" lon="-0.7098">
        <ele>381</ele>
        <time>2022-08-27T21:14:35.000Z</time>
      </trkpt>
      <trkpt lat="43.09167" lon="-0.70938">
        <ele>384</ele>
        <time>2022-08-27T21:14:41.000Z</time>
      </trkpt>
      <trkpt lat="43.0917" lon="-0.7089">
        <ele>386</ele>
        <time>2022-08-27T21:14:48.000Z</time>
      </trkpt>
      <trkpt lat="43.09176" lon="-0.70876">
        <ele>388</ele>
        <time>2022-08-27T21:14:50.000Z</time>
      </trkpt>
      <trkpt lat="43.09182" lon="-0.70869">
        <ele>389</ele>
        <time>2022-08-27T21:14:51.000Z</time>
      </trkpt>
      <trkpt lat="43.09211" lon="-0.70858">
        <ele>395</ele>
        <time>2022-08-27T21:14:56.000Z</time>
      </trkpt>
      <trkpt lat="43.0924" lon="-0.70841">
        <ele>400</ele>
        <time>2022-08-27T21:15:02.000Z</time>
      </trkpt>
      <trkpt lat="43.09256" lon="-0.70814">
        <ele>403</ele>
        <time>2022-08-27T21:15:07.000Z</time>
      </trkpt>
      <trkpt lat="43.09258" lon="-0.70788">
        <ele>404</ele>
        <time>2022-08-27T21:15:10.000Z</time>
      </trkpt>
      <trkpt lat="43.09252" lon="-0.70768">
        <ele>404</ele>
        <time>2022-08-27T21:15:13.000Z</time>
      </trkpt>
      <trkpt lat="43.09242" lon="-0.7076">
        <ele>403</ele>
        <time>2022-08-27T21:15:15.000Z</time>
      </trkpt>
      <trkpt lat="43.09212" lon="-0.70744">
        <ele>400</ele>
        <time>2022-08-27T21:15:21.000Z</time>
      </trkpt>
      <trkpt lat="43.09175" lon="-0.70729">
        <ele>397</ele>
        <time>2022-08-27T21:15:27.000Z</time>
      </trkpt>
      <trkpt lat="43.09154" lon="-0.70708">
        <ele>395</ele>
        <time>2022-08-27T21:15:32.000Z</time>
      </trkpt>
      <trkpt lat="43.09153" lon="-0.70699">
        <ele>396</ele>
        <time>2022-08-27T21:15:33.000Z</time>
      </trkpt>
      <trkpt lat="43.09155" lon="-0.70684">
        <ele>398</ele>
        <time>2022-08-27T21:15:35.000Z</time>
      </trkpt>
      <trkpt lat="43.09173" lon="-0.70642">
        <ele>404</ele>
        <time>2022-08-27T21:15:42.000Z</time>
      </trkpt>
      <trkpt lat="43.09206" lon="-0.70598">
        <ele>411</ele>
        <time>2022-08-27T21:15:50.000Z</time>
      </trkpt>
      <trkpt lat="43.09212" lon="-0.70584">
        <ele>413</ele>
        <time>2022-08-27T21:15:52.000Z</time>
      </trkpt>
      <trkpt lat="43.09198" lon="-0.70519">
        <ele>416</ele>
        <time>2022-08-27T21:16:01.000Z</time>
      </trkpt>
      <trkpt lat="43.09197" lon="-0.70496">
        <ele>417</ele>
        <time>2022-08-27T21:16:04.000Z</time>
      </trkpt>
      <trkpt lat="43.09205" lon="-0.70456">
        <ele>420</ele>
        <time>2022-08-27T21:16:09.000Z</time>
      </trkpt>
      <trkpt lat="43.09235" lon="-0.70414">
        <ele>422</ele>
        <time>2022-08-27T21:16:17.000Z</time>
      </trkpt>
      <trkpt lat="43.0924" lon="-0.704">
        <ele>421</ele>
        <time>2022-08-27T21:16:19.000Z</time>
      </trkpt>
      <trkpt lat="43.09241" lon="-0.70325">
        <ele>419</ele>
        <time>2022-08-27T21:16:29.000Z</time>
      </trkpt>
      <trkpt lat="43.09252" lon="-0.70246">
        <ele>414</ele>
        <time>2022-08-27T21:16:39.000Z</time>
      </trkpt>
      <trkpt lat="43.09244" lon="-0.70224">
        <ele>412</ele>
        <time>2022-08-27T21:16:42.000Z</time>
      </trkpt>
      <trkpt lat="43.09231" lon="-0.70216">
        <ele>411</ele>
        <time>2022-08-27T21:16:45.000Z</time>
      </trkpt>
      <trkpt lat="43.09166" lon="-0.7024">
        <ele>416</ele>
        <time>2022-08-27T21:16:57.000Z</time>
      </trkpt>
      <trkpt lat="43.09148" lon="-0.70245">
        <ele>419</ele>
        <time>2022-08-27T21:17:00.000Z</time>
      </trkpt>
      <trkpt lat="43.09126" lon="-0.70236">
        <ele>421</ele>
        <time>2022-08-27T21:17:04.000Z</time>
      </trkpt>
      <trkpt lat="43.09123" lon="-0.70223">
        <ele>421</ele>
        <time>2022-08-27T21:17:06.000Z</time>
      </trkpt>
      <trkpt lat="43.09125" lon="-0.7021">
        <ele>420</ele>
        <time>2022-08-27T21:17:08.000Z</time>
      </trkpt>
      <trkpt lat="43.09136" lon="-0.70194">
        <ele>418</ele>
        <time>2022-08-27T21:17:11.000Z</time>
      </trkpt>
      <trkpt lat="43.09196" lon="-0.70139">
        <ele>407</ele>
        <time>2022-08-27T21:17:24.000Z</time>
      </trkpt>
      <trkpt lat="43.09225" lon="-0.701">
        <ele>401</ele>
        <time>2022-08-27T21:17:31.000Z</time>
      </trkpt>
      <trkpt lat="43.09233" lon="-0.70075">
        <ele>398</ele>
        <time>2022-08-27T21:17:34.000Z</time>
      </trkpt>
      <trkpt lat="43.09228" lon="-0.70051">
        <ele>398</ele>
        <time>2022-08-27T21:17:38.000Z</time>
      </trkpt>
      <trkpt lat="43.09224" lon="-0.70048">
        <ele>399</ele>
        <time>2022-08-27T21:17:39.000Z</time>
      </trkpt>
      <trkpt lat="43.09161" lon="-0.70044">
        <ele>411</ele>
        <time>2022-08-27T21:17:50.000Z</time>
      </trkpt>
      <trkpt lat="43.09155" lon="-0.70033">
        <ele>412</ele>
        <time>2022-08-27T21:17:52.000Z</time>
      </trkpt>
      <trkpt lat="43.09159" lon="-0.70015">
        <ele>410</ele>
        <time>2022-08-27T21:17:54.000Z</time>
      </trkpt>
      <trkpt lat="43.09165" lon="-0.70008">
        <ele>409</ele>
        <time>2022-08-27T21:17:56.000Z</time>
      </trkpt>
      <trkpt lat="43.0922" lon="-0.6996">
        <ele>397</ele>
        <time>2022-08-27T21:18:07.000Z</time>
      </trkpt>
      <trkpt lat="43.09223" lon="-0.6995">
        <ele>397</ele>
        <time>2022-08-27T21:18:09.000Z</time>
      </trkpt>
      <trkpt lat="43.09232" lon="-0.69904">
        <ele>394</ele>
        <time>2022-08-27T21:18:15.000Z</time>
      </trkpt>
      <trkpt lat="43.0923" lon="-0.69866">
        <ele>394</ele>
        <time>2022-08-27T21:18:20.000Z</time>
      </trkpt>
      <trkpt lat="43.09223" lon="-0.69844">
        <ele>395</ele>
        <time>2022-08-27T21:18:23.000Z</time>
      </trkpt>
      <trkpt lat="43.09197" lon="-0.69823">
        <ele>402</ele>
        <time>2022-08-27T21:18:28.000Z</time>
      </trkpt>
      <trkpt lat="43.09195" lon="-0.69809">
        <ele>402</ele>
        <time>2022-08-27T21:18:30.000Z</time>
      </trkpt>
      <trkpt lat="43.09219" lon="-0.69781">
        <ele>394</ele>
        <time>2022-08-27T21:18:36.000Z</time>
      </trkpt>
      <trkpt lat="43.0923" lon="-0.69761">
        <ele>390</ele>
        <time>2022-08-27T21:18:39.000Z</time>
      </trkpt>
      <trkpt lat="43.09246" lon="-0.69699">
        <ele>387</ele>
        <time>2022-08-27T21:18:48.000Z</time>
      </trkpt>
      <trkpt lat="43.09259" lon="-0.69619">
        <ele>383</ele>
        <time>2022-08-27T21:18:58.000Z</time>
      </trkpt>
      <trkpt lat="43.09258" lon="-0.69598">
        <ele>382</ele>
        <time>2022-08-27T21:19:01.000Z</time>
      </trkpt>
      <trkpt lat="43.09242" lon="-0.69549">
        <ele>380</ele>
        <time>2022-08-27T21:19:08.000Z</time>
      </trkpt>
      <trkpt lat="43.09243" lon="-0.69487">
        <ele>372</ele>
        <time>2022-08-27T21:19:16.000Z</time>
      </trkpt>
      <trkpt lat="43.09236" lon="-0.69421">
        <ele>370</ele>
        <time>2022-08-27T21:19:25.000Z</time>
      </trkpt>
      <trkpt lat="43.09211" lon="-0.69339">
        <ele>377</ele>
        <time>2022-08-27T21:19:36.000Z</time>
      </trkpt>
      <trkpt lat="43.09195" lon="-0.69223">
        <ele>373</ele>
        <time>2022-08-27T21:19:52.000Z</time>
      </trkpt>
      <trkpt lat="43.09197" lon="-0.6918">
        <ele>368</ele>
        <time>2022-08-27T21:19:57.000Z</time>
      </trkpt>
      <trkpt lat="43.09251" lon="-0.68992">
        <ele>360</ele>
        <time>2022-08-27T21:20:24.000Z</time>
      </trkpt>
      <trkpt lat="43.09268" lon="-0.68965">
        <ele>364</ele>
        <time>2022-08-27T21:20:28.000Z</time>
      </trkpt>
      <trkpt lat="43.09282" lon="-0.68932">
        <ele>365</ele>
        <time>2022-08-27T21:20:33.000Z</time>
      </trkpt>
      <trkpt lat="43.09298" lon="-0.6874">
        <ele>351</ele>
        <time>2022-08-27T21:20:58.000Z</time>
      </trkpt>
      <trkpt lat="43.09302" lon="-0.68723">
        <ele>351</ele>
        <time>2022-08-27T21:21:01.000Z</time>
      </trkpt>
      <trkpt lat="43.09326" lon="-0.68671">
        <ele>351</ele>
        <time>2022-08-27T21:21:09.000Z</time>
      </trkpt>
      <trkpt lat="43.09375" lon="-0.68583">
        <ele>350</ele>
        <time>2022-08-27T21:21:23.000Z</time>
      </trkpt>
      <trkpt lat="43.09389" lon="-0.68483">
        <ele>349</ele>
        <time>2022-08-27T21:21:36.000Z</time>
      </trkpt>
      <trkpt lat="43.09394" lon="-0.68467">
        <ele>349</ele>
        <time>2022-08-27T21:21:39.000Z</time>
      </trkpt>
      <trkpt lat="43.09405" lon="-0.68451">
        <ele>348</ele>
        <time>2022-08-27T21:21:42.000Z</time>
      </trkpt>
      <trkpt lat="43.09467" lon="-0.68426">
        <ele>349</ele>
        <time>2022-08-27T21:21:53.000Z</time>
      </trkpt>
      <trkpt lat="43.09485" lon="-0.68409">
        <ele>348</ele>
        <time>2022-08-27T21:21:57.000Z</time>
      </trkpt>
      <trkpt lat="43.0953" lon="-0.68312">
        <ele>353</ele>
        <time>2022-08-27T21:22:12.000Z</time>
      </trkpt>
      <trkpt lat="43.09538" lon="-0.68282">
        <ele>356</ele>
        <time>2022-08-27T21:22:16.000Z</time>
      </trkpt>
      <trkpt lat="43.09577" lon="-0.67287">
        <ele>351</ele>
        <time>2022-08-27T21:24:26.000Z</time>
      </trkpt>
      <trkpt lat="43.09583" lon="-0.67257">
        <ele>351</ele>
        <time>2022-08-27T21:24:30.000Z</time>
      </trkpt>
      <trkpt lat="43.09594" lon="-0.67229">
        <ele>351</ele>
        <time>2022-08-27T21:24:34.000Z</time>
      </trkpt>
      <trkpt lat="43.096" lon="-0.67221">
        <ele>350</ele>
        <time>2022-08-27T21:24:35.000Z</time>
      </trkpt>
      <trkpt lat="43.0966" lon="-0.67168">
        <ele>337</ele>
        <time>2022-08-27T21:24:48.000Z</time>
      </trkpt>
      <trkpt lat="43.09668" lon="-0.67156">
        <ele>335</ele>
        <time>2022-08-27T21:24:50.000Z</time>
      </trkpt>
      <trkpt lat="43.09675" lon="-0.67133">
        <ele>336</ele>
        <time>2022-08-27T21:24:53.000Z</time>
      </trkpt>
      <trkpt lat="43.09677" lon="-0.67102">
        <ele>337</ele>
        <time>2022-08-27T21:24:57.000Z</time>
      </trkpt>
      <trkpt lat="43.09671" lon="-0.67049">
        <ele>339</ele>
        <time>2022-08-27T21:25:04.000Z</time>
      </trkpt>
      <trkpt lat="43.09673" lon="-0.67017">
        <ele>340</ele>
        <time>2022-08-27T21:25:09.000Z</time>
      </trkpt>
      <trkpt lat="43.0971" lon="-0.66912">
        <ele>335</ele>
        <time>2022-08-27T21:25:24.000Z</time>
      </trkpt>
      <trkpt lat="43.09736" lon="-0.6685">
        <ele>335</ele>
        <time>2022-08-27T21:25:33.000Z</time>
      </trkpt>
      <trkpt lat="43.09794" lon="-0.6675">
        <ele>330</ele>
        <time>2022-08-27T21:25:50.000Z</time>
      </trkpt>
      <trkpt lat="43.09961" lon="-0.66504">
        <ele>332</ele>
        <time>2022-08-27T21:26:33.000Z</time>
      </trkpt>
      <trkpt lat="43.10061" lon="-0.663">
        <ele>330</ele>
        <time>2022-08-27T21:27:05.000Z</time>
      </trkpt>
      <trkpt lat="43.10112" lon="-0.66213">
        <ele>330</ele>
        <time>2022-08-27T21:27:20.000Z</time>
      </trkpt>
      <trkpt lat="43.10115" lon="-0.66194">
        <ele>329</ele>
        <time>2022-08-27T21:27:22.000Z</time>
      </trkpt>
      <trkpt lat="43.10117" lon="-0.66145">
        <ele>328</ele>
        <time>2022-08-27T21:27:28.000Z</time>
      </trkpt>
      <trkpt lat="43.1009" lon="-0.66033">
        <ele>320</ele>
        <time>2022-08-27T21:27:44.000Z</time>
      </trkpt>
      <trkpt lat="43.10093" lon="-0.66012">
        <ele>319</ele>
        <time>2022-08-27T21:27:47.000Z</time>
      </trkpt>
      <trkpt lat="43.10113" lon="-0.65991">
        <ele>319</ele>
        <time>2022-08-27T21:27:51.000Z</time>
      </trkpt>
      <trkpt lat="43.10138" lon="-0.65979">
        <ele>319</ele>
        <time>2022-08-27T21:27:56.000Z</time>
      </trkpt>
      <trkpt lat="43.10201" lon="-0.65974">
        <ele>318</ele>
        <time>2022-08-27T21:28:07.000Z</time>
      </trkpt>
      <trkpt lat="43.10224" lon="-0.65969">
        <ele>317</ele>
        <time>2022-08-27T21:28:11.000Z</time>
      </trkpt>
      <trkpt lat="43.10271" lon="-0.65927">
        <ele>312</ele>
        <time>2022-08-27T21:28:21.000Z</time>
      </trkpt>
      <trkpt lat="43.10301" lon="-0.65895">
        <ele>311</ele>
        <time>2022-08-27T21:28:28.000Z</time>
      </trkpt>
      <trkpt lat="43.10329" lon="-0.65769">
        <ele>309</ele>
        <time>2022-08-27T21:28:45.000Z</time>
      </trkpt>
      <trkpt lat="43.10357" lon="-0.65644">
        <ele>303</ele>
        <time>2022-08-27T21:29:02.000Z</time>
      </trkpt>
      <trkpt lat="43.10383" lon="-0.65572">
        <ele>301</ele>
        <time>2022-08-27T21:29:13.000Z</time>
      </trkpt>
      <trkpt lat="43.10428" lon="-0.65459">
        <ele>300</ele>
        <time>2022-08-27T21:29:29.000Z</time>
      </trkpt>
      <trkpt lat="43.10445" lon="-0.65429">
        <ele>300</ele>
        <time>2022-08-27T21:29:34.000Z</time>
      </trkpt>
      <trkpt lat="43.1056" lon="-0.65303">
        <ele>307</ele>
        <time>2022-08-27T21:30:00.000Z</time>
      </trkpt>
      <trkpt lat="43.10569" lon="-0.65283">
        <ele>308</ele>
        <time>2022-08-27T21:30:03.000Z</time>
      </trkpt>
      <trkpt lat="43.10572" lon="-0.65249">
        <ele>309</ele>
        <time>2022-08-27T21:30:08.000Z</time>
      </trkpt>
      <trkpt lat="43.10566" lon="-0.65183">
        <ele>310</ele>
        <time>2022-08-27T21:30:17.000Z</time>
      </trkpt>
      <trkpt lat="43.10593" lon="-0.64847">
        <ele>302</ele>
        <time>2022-08-27T21:31:01.000Z</time>
      </trkpt>
      <trkpt lat="43.10596" lon="-0.64772">
        <ele>303</ele>
        <time>2022-08-27T21:31:10.000Z</time>
      </trkpt>
      <trkpt lat="43.10634" lon="-0.64607">
        <ele>312</ele>
        <time>2022-08-27T21:31:33.000Z</time>
      </trkpt>
      <trkpt lat="43.10637" lon="-0.64575">
        <ele>312</ele>
        <time>2022-08-27T21:31:37.000Z</time>
      </trkpt>
      <trkpt lat="43.10629" lon="-0.64443">
        <ele>305</ele>
        <time>2022-08-27T21:31:54.000Z</time>
      </trkpt>
      <trkpt lat="43.10662" lon="-0.64302">
        <ele>306</ele>
        <time>2022-08-27T21:32:14.000Z</time>
      </trkpt>
      <trkpt lat="43.10718" lon="-0.6416">
        <ele>315</ele>
        <time>2022-08-27T21:32:35.000Z</time>
      </trkpt>
      <trkpt lat="43.10748" lon="-0.64052">
        <ele>308</ele>
        <time>2022-08-27T21:32:50.000Z</time>
      </trkpt>
      <trkpt lat="43.1077" lon="-0.63912">
        <ele>303</ele>
        <time>2022-08-27T21:33:08.000Z</time>
      </trkpt>
      <trkpt lat="43.10811" lon="-0.6379">
        <ele>307</ele>
        <time>2022-08-27T21:33:26.000Z</time>
      </trkpt>
      <trkpt lat="43.10834" lon="-0.63739">
        <ele>301</ele>
        <time>2022-08-27T21:33:34.000Z</time>
      </trkpt>
      <trkpt lat="43.1086" lon="-0.63696">
        <ele>307</ele>
        <time>2022-08-27T21:33:41.000Z</time>
      </trkpt>
      <trkpt lat="43.10939" lon="-0.63588">
        <ele>307</ele>
        <time>2022-08-27T21:34:01.000Z</time>
      </trkpt>
      <trkpt lat="43.10948" lon="-0.63567">
        <ele>308</ele>
        <time>2022-08-27T21:34:04.000Z</time>
      </trkpt>
      <trkpt lat="43.10958" lon="-0.63532">
        <ele>307</ele>
        <time>2022-08-27T21:34:09.000Z</time>
      </trkpt>
      <trkpt lat="43.10966" lon="-0.63482">
        <ele>304</ele>
        <time>2022-08-27T21:34:15.000Z</time>
      </trkpt>
      <trkpt lat="43.10972" lon="-0.63371">
        <ele>297</ele>
        <time>2022-08-27T21:34:30.000Z</time>
      </trkpt>
      <trkpt lat="43.10966" lon="-0.63284">
        <ele>296</ele>
        <time>2022-08-27T21:34:41.000Z</time>
      </trkpt>
      <trkpt lat="43.10974" lon="-0.6325">
        <ele>294</ele>
        <time>2022-08-27T21:34:46.000Z</time>
      </trkpt>
      <trkpt lat="43.10987" lon="-0.63232">
        <ele>293</ele>
        <time>2022-08-27T21:34:49.000Z</time>
      </trkpt>
      <trkpt lat="43.11" lon="-0.63219">
        <ele>290</ele>
        <time>2022-08-27T21:34:52.000Z</time>
      </trkpt>
      <trkpt lat="43.11094" lon="-0.63168">
        <ele>296</ele>
        <time>2022-08-27T21:35:10.000Z</time>
      </trkpt>
      <trkpt lat="43.11117" lon="-0.63148">
        <ele>303</ele>
        <time>2022-08-27T21:35:15.000Z</time>
      </trkpt>
      <trkpt lat="43.11139" lon="-0.63076">
        <ele>307</ele>
        <time>2022-08-27T21:35:25.000Z</time>
      </trkpt>
      <trkpt lat="43.11138" lon="-0.63024">
        <ele>305</ele>
        <time>2022-08-27T21:35:32.000Z</time>
      </trkpt>
      <trkpt lat="43.11119" lon="-0.62941">
        <ele>298</ele>
        <time>2022-08-27T21:35:43.000Z</time>
      </trkpt>
      <trkpt lat="43.111" lon="-0.62895">
        <ele>293</ele>
        <time>2022-08-27T21:35:50.000Z</time>
      </trkpt>
      <trkpt lat="43.10999" lon="-0.62756">
        <ele>287</ele>
        <time>2022-08-27T21:36:16.000Z</time>
      </trkpt>
      <trkpt lat="43.10991" lon="-0.6274">
        <ele>289</ele>
        <time>2022-08-27T21:36:18.000Z</time>
      </trkpt>
      <trkpt lat="43.10987" lon="-0.62721">
        <ele>289</ele>
        <time>2022-08-27T21:36:21.000Z</time>
      </trkpt>
      <trkpt lat="43.10985" lon="-0.62665">
        <ele>287</ele>
        <time>2022-08-27T21:36:28.000Z</time>
      </trkpt>
      <trkpt lat="43.10995" lon="-0.62534">
        <ele>277</ele>
        <time>2022-08-27T21:36:45.000Z</time>
      </trkpt>
    </trkseg>
  </trk>
  <trk>
    <name><![CDATA[Etapes_4]]></name>
    <trkseg>
      <trkpt lat="43.10995" lon="-0.62534">
        <ele>277</ele>
        <time>2022-08-27T21:36:45.000Z</time>
      </trkpt>
      <trkpt lat="43.10995" lon="-0.62495">
        <ele>275</ele>
        <time>2022-08-27T21:36:50.000Z</time>
      </trkpt>
      <trkpt lat="43.10939" lon="-0.62492">
        <ele>278</ele>
        <time>2022-08-27T21:37:00.000Z</time>
      </trkpt>
      <trkpt lat="43.1074" lon="-0.62497">
        <ele>285</ele>
        <time>2022-08-27T21:37:36.000Z</time>
      </trkpt>
      <trkpt lat="43.10683" lon="-0.62487">
        <ele>289</ele>
        <time>2022-08-27T21:37:46.000Z</time>
      </trkpt>
      <trkpt lat="43.10664" lon="-0.62478">
        <ele>290</ele>
        <time>2022-08-27T21:37:49.000Z</time>
      </trkpt>
      <trkpt lat="43.10549" lon="-0.6233">
        <ele>281</ele>
        <time>2022-08-27T21:38:18.000Z</time>
      </trkpt>
      <trkpt lat="43.10492" lon="-0.6227">
        <ele>280</ele>
        <time>2022-08-27T21:38:30.000Z</time>
      </trkpt>
      <trkpt lat="43.10395" lon="-0.62179">
        <ele>287</ele>
        <time>2022-08-27T21:38:51.000Z</time>
      </trkpt>
      <trkpt lat="43.10367" lon="-0.62153">
        <ele>289</ele>
        <time>2022-08-27T21:38:57.000Z</time>
      </trkpt>
      <trkpt lat="43.10313" lon="-0.62116">
        <ele>294</ele>
        <time>2022-08-27T21:39:08.000Z</time>
      </trkpt>
      <trkpt lat="43.10256" lon="-0.62096">
        <ele>299</ele>
        <time>2022-08-27T21:39:19.000Z</time>
      </trkpt>
      <trkpt lat="43.10206" lon="-0.6209">
        <ele>301</ele>
        <time>2022-08-27T21:39:27.000Z</time>
      </trkpt>
      <trkpt lat="43.10141" lon="-0.62096">
        <ele>303</ele>
        <time>2022-08-27T21:39:39.000Z</time>
      </trkpt>
      <trkpt lat="43.10097" lon="-0.62115">
        <ele>306</ele>
        <time>2022-08-27T21:39:47.000Z</time>
      </trkpt>
      <trkpt lat="43.10078" lon="-0.62127">
        <ele>309</ele>
        <time>2022-08-27T21:39:51.000Z</time>
      </trkpt>
      <trkpt lat="43.10043" lon="-0.62158">
        <ele>311</ele>
        <time>2022-08-27T21:39:58.000Z</time>
      </trkpt>
      <trkpt lat="43.09965" lon="-0.62243">
        <ele>326</ele>
        <time>2022-08-27T21:40:16.000Z</time>
      </trkpt>
      <trkpt lat="43.09935" lon="-0.6226">
        <ele>328</ele>
        <time>2022-08-27T21:40:22.000Z</time>
      </trkpt>
      <trkpt lat="43.09888" lon="-0.62268">
        <ele>327</ele>
        <time>2022-08-27T21:40:30.000Z</time>
      </trkpt>
      <trkpt lat="43.09833" lon="-0.62269">
        <ele>327</ele>
        <time>2022-08-27T21:40:40.000Z</time>
      </trkpt>
      <trkpt lat="43.09694" lon="-0.62251">
        <ele>324</ele>
        <time>2022-08-27T21:41:05.000Z</time>
      </trkpt>
      <trkpt lat="43.09663" lon="-0.62239">
        <ele>324</ele>
        <time>2022-08-27T21:41:11.000Z</time>
      </trkpt>
      <trkpt lat="43.09634" lon="-0.6222">
        <ele>323</ele>
        <time>2022-08-27T21:41:17.000Z</time>
      </trkpt>
      <trkpt lat="43.09564" lon="-0.62151">
        <ele>322</ele>
        <time>2022-08-27T21:41:32.000Z</time>
      </trkpt>
      <trkpt lat="43.09112" lon="-0.61669">
        <ele>327</ele>
        <time>2022-08-27T21:43:14.000Z</time>
      </trkpt>
      <trkpt lat="43.09076" lon="-0.61645">
        <ele>327</ele>
        <time>2022-08-27T21:43:21.000Z</time>
      </trkpt>
      <trkpt lat="43.09042" lon="-0.61625">
        <ele>326</ele>
        <time>2022-08-27T21:43:28.000Z</time>
      </trkpt>
      <trkpt lat="43.09008" lon="-0.61612">
        <ele>325</ele>
        <time>2022-08-27T21:43:34.000Z</time>
      </trkpt>
      <trkpt lat="43.08678" lon="-0.61533">
        <ele>329</ele>
        <time>2022-08-27T21:44:33.000Z</time>
      </trkpt>
      <trkpt lat="43.08584" lon="-0.61506">
        <ele>327</ele>
        <time>2022-08-27T21:44:51.000Z</time>
      </trkpt>
      <trkpt lat="43.08438" lon="-0.61504">
        <ele>329</ele>
        <time>2022-08-27T21:45:17.000Z</time>
      </trkpt>
      <trkpt lat="43.08401" lon="-0.615">
        <ele>330</ele>
        <time>2022-08-27T21:45:23.000Z</time>
      </trkpt>
      <trkpt lat="43.08274" lon="-0.61458">
        <ele>329</ele>
        <time>2022-08-27T21:45:46.000Z</time>
      </trkpt>
      <trkpt lat="43.08211" lon="-0.61426">
        <ele>320</ele>
        <time>2022-08-27T21:45:58.000Z</time>
      </trkpt>
      <trkpt lat="43.08042" lon="-0.61312">
        <ele>328</ele>
        <time>2022-08-27T21:46:32.000Z</time>
      </trkpt>
      <trkpt lat="43.07978" lon="-0.61274">
        <ele>327</ele>
        <time>2022-08-27T21:46:44.000Z</time>
      </trkpt>
      <trkpt lat="43.07926" lon="-0.61224">
        <ele>319</ele>
        <time>2022-08-27T21:46:56.000Z</time>
      </trkpt>
      <trkpt lat="43.07916" lon="-0.61218">
        <ele>319</ele>
        <time>2022-08-27T21:46:58.000Z</time>
      </trkpt>
      <trkpt lat="43.07813" lon="-0.61202">
        <ele>322</ele>
        <time>2022-08-27T21:47:16.000Z</time>
      </trkpt>
      <trkpt lat="43.07792" lon="-0.61191">
        <ele>322</ele>
        <time>2022-08-27T21:47:20.000Z</time>
      </trkpt>
      <trkpt lat="43.07761" lon="-0.61167">
        <ele>319</ele>
        <time>2022-08-27T21:47:26.000Z</time>
      </trkpt>
      <trkpt lat="43.077" lon="-0.61107">
        <ele>322</ele>
        <time>2022-08-27T21:47:40.000Z</time>
      </trkpt>
      <trkpt lat="43.07617" lon="-0.61007">
        <ele>319</ele>
        <time>2022-08-27T21:47:59.000Z</time>
      </trkpt>
      <trkpt lat="43.07452" lon="-0.60843">
        <ele>319</ele>
        <time>2022-08-27T21:48:36.000Z</time>
      </trkpt>
      <trkpt lat="43.07248" lon="-0.607">
        <ele>326</ele>
        <time>2022-08-27T21:49:17.000Z</time>
      </trkpt>
      <trkpt lat="43.07192" lon="-0.60624">
        <ele>328</ele>
        <time>2022-08-27T21:49:31.000Z</time>
      </trkpt>
      <trkpt lat="43.07263" lon="-0.60617">
        <ele>331</ele>
        <time>2022-08-27T21:49:43.000Z</time>
      </trkpt>
      <trkpt lat="43.07323" lon="-0.60611">
        <ele>338</ele>
        <time>2022-08-27T21:49:54.000Z</time>
      </trkpt>
      <trkpt lat="43.07363" lon="-0.60621">
        <ele>340</ele>
        <time>2022-08-27T21:50:01.000Z</time>
      </trkpt>
      <trkpt lat="43.07478" lon="-0.6068">
        <ele>326</ele>
        <time>2022-08-27T21:50:23.000Z</time>
      </trkpt>
      <trkpt lat="43.07499" lon="-0.60681">
        <ele>327</ele>
        <time>2022-08-27T21:50:27.000Z</time>
      </trkpt>
      <trkpt lat="43.07509" lon="-0.60677">
        <ele>328</ele>
        <time>2022-08-27T21:50:29.000Z</time>
      </trkpt>
      <trkpt lat="43.0752" lon="-0.60666">
        <ele>329</ele>
        <time>2022-08-27T21:50:31.000Z</time>
      </trkpt>
      <trkpt lat="43.07544" lon="-0.60574">
        <ele>345</ele>
        <time>2022-08-27T21:50:44.000Z</time>
      </trkpt>
      <trkpt lat="43.07552" lon="-0.60554">
        <ele>345</ele>
        <time>2022-08-27T21:50:47.000Z</time>
      </trkpt>
      <trkpt lat="43.07589" lon="-0.60516">
        <ele>336</ele>
        <time>2022-08-27T21:50:55.000Z</time>
      </trkpt>
      <trkpt lat="43.07597" lon="-0.60512">
        <ele>336</ele>
        <time>2022-08-27T21:50:57.000Z</time>
      </trkpt>
      <trkpt lat="43.07623" lon="-0.60528">
        <ele>334</ele>
        <time>2022-08-27T21:51:02.000Z</time>
      </trkpt>
      <trkpt lat="43.0764" lon="-0.60545">
        <ele>333</ele>
        <time>2022-08-27T21:51:06.000Z</time>
      </trkpt>
      <trkpt lat="43.07658" lon="-0.60591">
        <ele>332</ele>
        <time>2022-08-27T21:51:12.000Z</time>
      </trkpt>
      <trkpt lat="43.07669" lon="-0.60612">
        <ele>333</ele>
        <time>2022-08-27T21:51:16.000Z</time>
      </trkpt>
      <trkpt lat="43.07679" lon="-0.60591">
        <ele>336</ele>
        <time>2022-08-27T21:51:19.000Z</time>
      </trkpt>
      <trkpt lat="43.07684" lon="-0.60574">
        <ele>338</ele>
        <time>2022-08-27T21:51:21.000Z</time>
      </trkpt>
      <trkpt lat="43.07692" lon="-0.60513">
        <ele>344</ele>
        <time>2022-08-27T21:51:29.000Z</time>
      </trkpt>
      <trkpt lat="43.07691" lon="-0.60273">
        <ele>343</ele>
        <time>2022-08-27T21:52:01.000Z</time>
      </trkpt>
      <trkpt lat="43.07691" lon="-0.60257">
        <ele>343</ele>
        <time>2022-08-27T21:52:03.000Z</time>
      </trkpt>
      <trkpt lat="43.07708" lon="-0.6008">
        <ele>356</ele>
        <time>2022-08-27T21:52:26.000Z</time>
      </trkpt>
      <trkpt lat="43.07699" lon="-0.59996">
        <ele>353</ele>
        <time>2022-08-27T21:52:37.000Z</time>
      </trkpt>
      <trkpt lat="43.07725" lon="-0.59849">
        <ele>355</ele>
        <time>2022-08-27T21:52:57.000Z</time>
      </trkpt>
      <trkpt lat="43.07725" lon="-0.59732">
        <ele>358</ele>
        <time>2022-08-27T21:53:12.000Z</time>
      </trkpt>
      <trkpt lat="43.07728" lon="-0.59713">
        <ele>359</ele>
        <time>2022-08-27T21:53:15.000Z</time>
      </trkpt>
      <trkpt lat="43.07734" lon="-0.59695">
        <ele>357</ele>
        <time>2022-08-27T21:53:17.000Z</time>
      </trkpt>
      <trkpt lat="43.0779" lon="-0.59594">
        <ele>367</ele>
        <time>2022-08-27T21:53:34.000Z</time>
      </trkpt>
      <trkpt lat="43.07795" lon="-0.59575">
        <ele>369</ele>
        <time>2022-08-27T21:53:36.000Z</time>
      </trkpt>
      <trkpt lat="43.07791" lon="-0.59472">
        <ele>371</ele>
        <time>2022-08-27T21:53:50.000Z</time>
      </trkpt>
      <trkpt lat="43.07795" lon="-0.59442">
        <ele>373</ele>
        <time>2022-08-27T21:53:54.000Z</time>
      </trkpt>
      <trkpt lat="43.0784" lon="-0.59288">
        <ele>367</ele>
        <time>2022-08-27T21:54:15.000Z</time>
      </trkpt>
      <trkpt lat="43.0785" lon="-0.592">
        <ele>371</ele>
        <time>2022-08-27T21:54:27.000Z</time>
      </trkpt>
      <trkpt lat="43.07855" lon="-0.59088">
        <ele>378</ele>
        <time>2022-08-27T21:54:42.000Z</time>
      </trkpt>
      <trkpt lat="43.07848" lon="-0.59015">
        <ele>379</ele>
        <time>2022-08-27T21:54:51.000Z</time>
      </trkpt>
      <trkpt lat="43.07853" lon="-0.5884">
        <ele>387</ele>
        <time>2022-08-27T21:55:14.000Z</time>
      </trkpt>
      <trkpt lat="43.07902" lon="-0.58645">
        <ele>399</ele>
        <time>2022-08-27T21:55:41.000Z</time>
      </trkpt>
      <trkpt lat="43.07908" lon="-0.586">
        <ele>398</ele>
        <time>2022-08-27T21:55:47.000Z</time>
      </trkpt>
      <trkpt lat="43.07909" lon="-0.58565">
        <ele>399</ele>
        <time>2022-08-27T21:55:51.000Z</time>
      </trkpt>
      <trkpt lat="43.07899" lon="-0.58472">
        <ele>404</ele>
        <time>2022-08-27T21:56:03.000Z</time>
      </trkpt>
      <trkpt lat="43.07872" lon="-0.58367">
        <ele>411</ele>
        <time>2022-08-27T21:56:18.000Z</time>
      </trkpt>
      <trkpt lat="43.07869" lon="-0.58225">
        <ele>420</ele>
        <time>2022-08-27T21:56:36.000Z</time>
      </trkpt>
      <trkpt lat="43.07888" lon="-0.58162">
        <ele>420</ele>
        <time>2022-08-27T21:56:45.000Z</time>
      </trkpt>
      <trkpt lat="43.07923" lon="-0.57891">
        <ele>433</ele>
        <time>2022-08-27T21:57:21.000Z</time>
      </trkpt>
      <trkpt lat="43.07947" lon="-0.57852">
        <ele>438</ele>
        <time>2022-08-27T21:57:28.000Z</time>
      </trkpt>
      <trkpt lat="43.07983" lon="-0.57811">
        <ele>442</ele>
        <time>2022-08-27T21:57:36.000Z</time>
      </trkpt>
      <trkpt lat="43.0799" lon="-0.57812">
        <ele>440</ele>
        <time>2022-08-27T21:57:38.000Z</time>
      </trkpt>
      <trkpt lat="43.08016" lon="-0.57876">
        <ele>442</ele>
        <time>2022-08-27T21:57:47.000Z</time>
      </trkpt>
      <trkpt lat="43.08025" lon="-0.5789">
        <ele>444</ele>
        <time>2022-08-27T21:57:50.000Z</time>
      </trkpt>
      <trkpt lat="43.08031" lon="-0.57894">
        <ele>445</ele>
        <time>2022-08-27T21:57:51.000Z</time>
      </trkpt>
      <trkpt lat="43.08041" lon="-0.57897">
        <ele>445</ele>
        <time>2022-08-27T21:57:53.000Z</time>
      </trkpt>
      <trkpt lat="43.08085" lon="-0.57891">
        <ele>444</ele>
        <time>2022-08-27T21:58:01.000Z</time>
      </trkpt>
      <trkpt lat="43.08098" lon="-0.5787">
        <ele>445</ele>
        <time>2022-08-27T21:58:04.000Z</time>
      </trkpt>
      <trkpt lat="43.08114" lon="-0.5771">
        <ele>444</ele>
        <time>2022-08-27T21:58:25.000Z</time>
      </trkpt>
      <trkpt lat="43.08112" lon="-0.57669">
        <ele>444</ele>
        <time>2022-08-27T21:58:31.000Z</time>
      </trkpt>
      <trkpt lat="43.08098" lon="-0.57619">
        <ele>448</ele>
        <time>2022-08-27T21:58:38.000Z</time>
      </trkpt>
      <trkpt lat="43.08089" lon="-0.57602">
        <ele>447</ele>
        <time>2022-08-27T21:58:40.000Z</time>
      </trkpt>
      <trkpt lat="43.08064" lon="-0.57569">
        <ele>460</ele>
        <time>2022-08-27T21:58:46.000Z</time>
      </trkpt>
      <trkpt lat="43.08051" lon="-0.57531">
        <ele>468</ele>
        <time>2022-08-27T21:58:52.000Z</time>
      </trkpt>
      <trkpt lat="43.08051" lon="-0.57518">
        <ele>468</ele>
        <time>2022-08-27T21:58:54.000Z</time>
      </trkpt>
      <trkpt lat="43.08059" lon="-0.57469">
        <ele>466</ele>
        <time>2022-08-27T21:59:00.000Z</time>
      </trkpt>
      <trkpt lat="43.08069" lon="-0.57426">
        <ele>464</ele>
        <time>2022-08-27T21:59:06.000Z</time>
      </trkpt>
      <trkpt lat="43.08113" lon="-0.57331">
        <ele>464</ele>
        <time>2022-08-27T21:59:21.000Z</time>
      </trkpt>
      <trkpt lat="43.08121" lon="-0.57304">
        <ele>465</ele>
        <time>2022-08-27T21:59:24.000Z</time>
      </trkpt>
      <trkpt lat="43.08124" lon="-0.57231">
        <ele>466</ele>
        <time>2022-08-27T21:59:34.000Z</time>
      </trkpt>
      <trkpt lat="43.08122" lon="-0.57201">
        <ele>467</ele>
        <time>2022-08-27T21:59:38.000Z</time>
      </trkpt>
      <trkpt lat="43.08116" lon="-0.57169">
        <ele>468</ele>
        <time>2022-08-27T21:59:42.000Z</time>
      </trkpt>
      <trkpt lat="43.08103" lon="-0.57129">
        <ele>468</ele>
        <time>2022-08-27T21:59:48.000Z</time>
      </trkpt>
      <trkpt lat="43.08063" lon="-0.57066">
        <ele>478</ele>
        <time>2022-08-27T21:59:59.000Z</time>
      </trkpt>
      <trkpt lat="43.08056" lon="-0.57038">
        <ele>482</ele>
        <time>2022-08-27T22:00:03.000Z</time>
      </trkpt>
      <trkpt lat="43.08058" lon="-0.56961">
        <ele>481</ele>
        <time>2022-08-27T22:00:13.000Z</time>
      </trkpt>
      <trkpt lat="43.08058" lon="-0.569">
        <ele>482</ele>
        <time>2022-08-27T22:00:21.000Z</time>
      </trkpt>
      <trkpt lat="43.0802" lon="-0.56779">
        <ele>489</ele>
        <time>2022-08-27T22:00:38.000Z</time>
      </trkpt>
      <trkpt lat="43.0801" lon="-0.5673">
        <ele>491</ele>
        <time>2022-08-27T22:00:44.000Z</time>
      </trkpt>
      <trkpt lat="43.08011" lon="-0.56706">
        <ele>492</ele>
        <time>2022-08-27T22:00:48.000Z</time>
      </trkpt>
      <trkpt lat="43.0803" lon="-0.56621">
        <ele>498</ele>
        <time>2022-08-27T22:00:59.000Z</time>
      </trkpt>
      <trkpt lat="43.08031" lon="-0.56554">
        <ele>501</ele>
        <time>2022-08-27T22:01:08.000Z</time>
      </trkpt>
      <trkpt lat="43.07998" lon="-0.5638">
        <ele>496</ele>
        <time>2022-08-27T22:01:31.000Z</time>
      </trkpt>
      <trkpt lat="43.0798" lon="-0.56352">
        <ele>501</ele>
        <time>2022-08-27T22:01:36.000Z</time>
      </trkpt>
      <trkpt lat="43.07962" lon="-0.5634">
        <ele>504</ele>
        <time>2022-08-27T22:01:40.000Z</time>
      </trkpt>
      <trkpt lat="43.07902" lon="-0.56334">
        <ele>516</ele>
        <time>2022-08-27T22:01:50.000Z</time>
      </trkpt>
      <trkpt lat="43.07881" lon="-0.56328">
        <ele>520</ele>
        <time>2022-08-27T22:01:54.000Z</time>
      </trkpt>
      <trkpt lat="43.07853" lon="-0.56304">
        <ele>523</ele>
        <time>2022-08-27T22:02:00.000Z</time>
      </trkpt>
      <trkpt lat="43.07829" lon="-0.56265">
        <ele>520</ele>
        <time>2022-08-27T22:02:07.000Z</time>
      </trkpt>
      <trkpt lat="43.07813" lon="-0.56124">
        <ele>529</ele>
        <time>2022-08-27T22:02:25.000Z</time>
      </trkpt>
      <trkpt lat="43.07804" lon="-0.56069">
        <ele>534</ele>
        <time>2022-08-27T22:02:33.000Z</time>
      </trkpt>
      <trkpt lat="43.07796" lon="-0.56041">
        <ele>536</ele>
        <time>2022-08-27T22:02:36.000Z</time>
      </trkpt>
      <trkpt lat="43.07787" lon="-0.56022">
        <ele>536</ele>
        <time>2022-08-27T22:02:39.000Z</time>
      </trkpt>
      <trkpt lat="43.07743" lon="-0.55961">
        <ele>533</ele>
        <time>2022-08-27T22:02:51.000Z</time>
      </trkpt>
      <trkpt lat="43.07694" lon="-0.55792">
        <ele>547</ele>
        <time>2022-08-27T22:03:14.000Z</time>
      </trkpt>
      <trkpt lat="43.07692" lon="-0.55778">
        <ele>548</ele>
        <time>2022-08-27T22:03:16.000Z</time>
      </trkpt>
      <trkpt lat="43.07694" lon="-0.55717">
        <ele>552</ele>
        <time>2022-08-27T22:03:24.000Z</time>
      </trkpt>
      <trkpt lat="43.07652" lon="-0.55504">
        <ele>556</ele>
        <time>2022-08-27T22:03:53.000Z</time>
      </trkpt>
      <trkpt lat="43.07627" lon="-0.55401">
        <ele>567</ele>
        <time>2022-08-27T22:04:07.000Z</time>
      </trkpt>
      <trkpt lat="43.07612" lon="-0.55365">
        <ele>569</ele>
        <time>2022-08-27T22:04:12.000Z</time>
      </trkpt>
      <trkpt lat="43.07554" lon="-0.55283">
        <ele>575</ele>
        <time>2022-08-27T22:04:27.000Z</time>
      </trkpt>
      <trkpt lat="43.07534" lon="-0.55217">
        <ele>578</ele>
        <time>2022-08-27T22:04:36.000Z</time>
      </trkpt>
      <trkpt lat="43.07537" lon="-0.55131">
        <ele>581</ele>
        <time>2022-08-27T22:04:48.000Z</time>
      </trkpt>
      <trkpt lat="43.07539" lon="-0.55086">
        <ele>585</ele>
        <time>2022-08-27T22:04:54.000Z</time>
      </trkpt>
      <trkpt lat="43.07488" lon="-0.54633">
        <ele>618</ele>
        <time>2022-08-27T22:05:53.000Z</time>
      </trkpt>
      <trkpt lat="43.07461" lon="-0.54519">
        <ele>637</ele>
        <time>2022-08-27T22:06:09.000Z</time>
      </trkpt>
      <trkpt lat="43.07476" lon="-0.54429">
        <ele>636</ele>
        <time>2022-08-27T22:06:21.000Z</time>
      </trkpt>
      <trkpt lat="43.07479" lon="-0.54402">
        <ele>635</ele>
        <time>2022-08-27T22:06:24.000Z</time>
      </trkpt>
      <trkpt lat="43.07472" lon="-0.5436">
        <ele>641</ele>
        <time>2022-08-27T22:06:30.000Z</time>
      </trkpt>
      <trkpt lat="43.07454" lon="-0.543">
        <ele>652</ele>
        <time>2022-08-27T22:06:38.000Z</time>
      </trkpt>
      <trkpt lat="43.07463" lon="-0.54217">
        <ele>648</ele>
        <time>2022-08-27T22:06:49.000Z</time>
      </trkpt>
      <trkpt lat="43.07464" lon="-0.54178">
        <ele>648</ele>
        <time>2022-08-27T22:06:54.000Z</time>
      </trkpt>
      <trkpt lat="43.07454" lon="-0.54133">
        <ele>652</ele>
        <time>2022-08-27T22:07:01.000Z</time>
      </trkpt>
      <trkpt lat="43.07435" lon="-0.54081">
        <ele>659</ele>
        <time>2022-08-27T22:07:08.000Z</time>
      </trkpt>
      <trkpt lat="43.07372" lon="-0.53966">
        <ele>672</ele>
        <time>2022-08-27T22:07:27.000Z</time>
      </trkpt>
      <trkpt lat="43.07335" lon="-0.53854">
        <ele>688</ele>
        <time>2022-08-27T22:07:43.000Z</time>
      </trkpt>
      <trkpt lat="43.07329" lon="-0.53809">
        <ele>692</ele>
        <time>2022-08-27T22:07:49.000Z</time>
      </trkpt>
      <trkpt lat="43.07324" lon="-0.5374">
        <ele>699</ele>
        <time>2022-08-27T22:07:58.000Z</time>
      </trkpt>
      <trkpt lat="43.07325" lon="-0.5372">
        <ele>701</ele>
        <time>2022-08-27T22:08:00.000Z</time>
      </trkpt>
      <trkpt lat="43.07341" lon="-0.53633">
        <ele>703</ele>
        <time>2022-08-27T22:08:12.000Z</time>
      </trkpt>
      <trkpt lat="43.07344" lon="-0.53596">
        <ele>706</ele>
        <time>2022-08-27T22:08:17.000Z</time>
      </trkpt>
      <trkpt lat="43.07338" lon="-0.53537">
        <ele>714</ele>
        <time>2022-08-27T22:08:25.000Z</time>
      </trkpt>
      <trkpt lat="43.07337" lon="-0.53498">
        <ele>717</ele>
        <time>2022-08-27T22:08:30.000Z</time>
      </trkpt>
      <trkpt lat="43.07303" lon="-0.53405">
        <ele>734</ele>
        <time>2022-08-27T22:08:43.000Z</time>
      </trkpt>
      <trkpt lat="43.07298" lon="-0.53386">
        <ele>739</ele>
        <time>2022-08-27T22:08:46.000Z</time>
      </trkpt>
      <trkpt lat="43.07288" lon="-0.53309">
        <ele>756</ele>
        <time>2022-08-27T22:08:56.000Z</time>
      </trkpt>
      <trkpt lat="43.07288" lon="-0.53284">
        <ele>762</ele>
        <time>2022-08-27T22:08:59.000Z</time>
      </trkpt>
      <trkpt lat="43.07293" lon="-0.53256">
        <ele>765</ele>
        <time>2022-08-27T22:09:03.000Z</time>
      </trkpt>
      <trkpt lat="43.07306" lon="-0.53221">
        <ele>767</ele>
        <time>2022-08-27T22:09:08.000Z</time>
      </trkpt>
      <trkpt lat="43.07336" lon="-0.53175">
        <ele>763</ele>
        <time>2022-08-27T22:09:16.000Z</time>
      </trkpt>
      <trkpt lat="43.07348" lon="-0.53142">
        <ele>762</ele>
        <time>2022-08-27T22:09:21.000Z</time>
      </trkpt>
      <trkpt lat="43.07354" lon="-0.53102">
        <ele>765</ele>
        <time>2022-08-27T22:09:26.000Z</time>
      </trkpt>
      <trkpt lat="43.07352" lon="-0.53043">
        <ele>767</ele>
        <time>2022-08-27T22:09:34.000Z</time>
      </trkpt>
      <trkpt lat="43.07347" lon="-0.53024">
        <ele>769</ele>
        <time>2022-08-27T22:09:37.000Z</time>
      </trkpt>
      <trkpt lat="43.07338" lon="-0.53011">
        <ele>773</ele>
        <time>2022-08-27T22:09:39.000Z</time>
      </trkpt>
      <trkpt lat="43.07294" lon="-0.5297">
        <ele>794</ele>
        <time>2022-08-27T22:09:49.000Z</time>
      </trkpt>
      <trkpt lat="43.0726" lon="-0.52921">
        <ele>801</ele>
        <time>2022-08-27T22:09:57.000Z</time>
      </trkpt>
      <trkpt lat="43.07241" lon="-0.52849">
        <ele>794</ele>
        <time>2022-08-27T22:10:07.000Z</time>
      </trkpt>
      <trkpt lat="43.0723" lon="-0.52827">
        <ele>795</ele>
        <time>2022-08-27T22:10:11.000Z</time>
      </trkpt>
      <trkpt lat="43.07212" lon="-0.5281">
        <ele>801</ele>
        <time>2022-08-27T22:10:15.000Z</time>
      </trkpt>
      <trkpt lat="43.07168" lon="-0.52797">
        <ele>821</ele>
        <time>2022-08-27T22:10:23.000Z</time>
      </trkpt>
      <trkpt lat="43.07159" lon="-0.52785">
        <ele>822</ele>
        <time>2022-08-27T22:10:25.000Z</time>
      </trkpt>
      <trkpt lat="43.07153" lon="-0.52753">
        <ele>816</ele>
        <time>2022-08-27T22:10:29.000Z</time>
      </trkpt>
      <trkpt lat="43.07125" lon="-0.5263">
        <ele>821</ele>
        <time>2022-08-27T22:10:46.000Z</time>
      </trkpt>
      <trkpt lat="43.07022" lon="-0.52302">
        <ele>875</ele>
        <time>2022-08-27T22:11:32.000Z</time>
      </trkpt>
      <trkpt lat="43.0701" lon="-0.52235">
        <ele>884</ele>
        <time>2022-08-27T22:11:41.000Z</time>
      </trkpt>
      <trkpt lat="43.07003" lon="-0.52169">
        <ele>890</ele>
        <time>2022-08-27T22:11:50.000Z</time>
      </trkpt>
      <trkpt lat="43.07003" lon="-0.52155">
        <ele>891</ele>
        <time>2022-08-27T22:11:52.000Z</time>
      </trkpt>
      <trkpt lat="43.07015" lon="-0.5207">
        <ele>894</ele>
        <time>2022-08-27T22:12:03.000Z</time>
      </trkpt>
      <trkpt lat="43.07016" lon="-0.52033">
        <ele>896</ele>
        <time>2022-08-27T22:12:08.000Z</time>
      </trkpt>
      <trkpt lat="43.07004" lon="-0.51955">
        <ele>912</ele>
        <time>2022-08-27T22:12:18.000Z</time>
      </trkpt>
      <trkpt lat="43.07005" lon="-0.51926">
        <ele>916</ele>
        <time>2022-08-27T22:12:22.000Z</time>
      </trkpt>
      <trkpt lat="43.07039" lon="-0.51815">
        <ele>920</ele>
        <time>2022-08-27T22:12:38.000Z</time>
      </trkpt>
      <trkpt lat="43.0705" lon="-0.5176">
        <ele>923</ele>
        <time>2022-08-27T22:12:45.000Z</time>
      </trkpt>
      <trkpt lat="43.07057" lon="-0.51665">
        <ele>932</ele>
        <time>2022-08-27T22:12:58.000Z</time>
      </trkpt>
      <trkpt lat="43.07048" lon="-0.51593">
        <ele>942</ele>
        <time>2022-08-27T22:13:07.000Z</time>
      </trkpt>
      <trkpt lat="43.07059" lon="-0.51541">
        <ele>942</ele>
        <time>2022-08-27T22:13:14.000Z</time>
      </trkpt>
      <trkpt lat="43.0706" lon="-0.5145">
        <ele>956</ele>
        <time>2022-08-27T22:13:26.000Z</time>
      </trkpt>
      <trkpt lat="43.0708" lon="-0.5134">
        <ele>960</ele>
        <time>2022-08-27T22:13:41.000Z</time>
      </trkpt>
      <trkpt lat="43.0708" lon="-0.5131">
        <ele>961</ele>
        <time>2022-08-27T22:13:45.000Z</time>
      </trkpt>
      <trkpt lat="43.07056" lon="-0.5125">
        <ele>975</ele>
        <time>2022-08-27T22:13:54.000Z</time>
      </trkpt>
      <trkpt lat="43.07037" lon="-0.51224">
        <ele>986</ele>
        <time>2022-08-27T22:13:59.000Z</time>
      </trkpt>
      <trkpt lat="43.07037" lon="-0.51191">
        <ele>986</ele>
        <time>2022-08-27T22:14:03.000Z</time>
      </trkpt>
      <trkpt lat="43.07034" lon="-0.5115">
        <ele>988</ele>
        <time>2022-08-27T22:14:08.000Z</time>
      </trkpt>
      <trkpt lat="43.07013" lon="-0.51091">
        <ele>993</ele>
        <time>2022-08-27T22:14:17.000Z</time>
      </trkpt>
      <trkpt lat="43.07001" lon="-0.51066">
        <ele>997</ele>
        <time>2022-08-27T22:14:21.000Z</time>
      </trkpt>
      <trkpt lat="43.06987" lon="-0.51052">
        <ele>1002</ele>
        <time>2022-08-27T22:14:24.000Z</time>
      </trkpt>
      <trkpt lat="43.06944" lon="-0.51029">
        <ele>1011</ele>
        <time>2022-08-27T22:14:32.000Z</time>
      </trkpt>
      <trkpt lat="43.06858" lon="-0.51003">
        <ele>1024</ele>
        <time>2022-08-27T22:14:48.000Z</time>
      </trkpt>
      <trkpt lat="43.06853" lon="-0.50994">
        <ele>1025</ele>
        <time>2022-08-27T22:14:49.000Z</time>
      </trkpt>
      <trkpt lat="43.06856" lon="-0.50983">
        <ele>1027</ele>
        <time>2022-08-27T22:14:51.000Z</time>
      </trkpt>
      <trkpt lat="43.06862" lon="-0.50977">
        <ele>1027</ele>
        <time>2022-08-27T22:14:52.000Z</time>
      </trkpt>
      <trkpt lat="43.06942" lon="-0.50919">
        <ele>1027</ele>
        <time>2022-08-27T22:15:08.000Z</time>
      </trkpt>
      <trkpt lat="43.06977" lon="-0.50885">
        <ele>1031</ele>
        <time>2022-08-27T22:15:16.000Z</time>
      </trkpt>
      <trkpt lat="43.07049" lon="-0.50785">
        <ele>1039</ele>
        <time>2022-08-27T22:15:34.000Z</time>
      </trkpt>
      <trkpt lat="43.07052" lon="-0.50769">
        <ele>1040</ele>
        <time>2022-08-27T22:15:36.000Z</time>
      </trkpt>
      <trkpt lat="43.07045" lon="-0.50713">
        <ele>1040</ele>
        <time>2022-08-27T22:15:44.000Z</time>
      </trkpt>
      <trkpt lat="43.0702" lon="-0.50649">
        <ele>1041</ele>
        <time>2022-08-27T22:15:53.000Z</time>
      </trkpt>
      <trkpt lat="43.07006" lon="-0.5063">
        <ele>1041</ele>
        <time>2022-08-27T22:15:57.000Z</time>
      </trkpt>
      <trkpt lat="43.06975" lon="-0.50616">
        <ele>1047</ele>
        <time>2022-08-27T22:16:02.000Z</time>
      </trkpt>
      <trkpt lat="43.0693" lon="-0.5053">
        <ele>1045</ele>
        <time>2022-08-27T22:16:16.000Z</time>
      </trkpt>
      <trkpt lat="43.06921" lon="-0.50504">
        <ele>1043</ele>
        <time>2022-08-27T22:16:20.000Z</time>
      </trkpt>
      <trkpt lat="43.06917" lon="-0.50481">
        <ele>1043</ele>
        <time>2022-08-27T22:16:23.000Z</time>
      </trkpt>
      <trkpt lat="43.06918" lon="-0.50463">
        <ele>1042</ele>
        <time>2022-08-27T22:16:25.000Z</time>
      </trkpt>
      <trkpt lat="43.06943" lon="-0.50363">
        <ele>1029</ele>
        <time>2022-08-27T22:16:39.000Z</time>
      </trkpt>
      <trkpt lat="43.06946" lon="-0.50332">
        <ele>1028</ele>
        <time>2022-08-27T22:16:43.000Z</time>
      </trkpt>
      <trkpt lat="43.06941" lon="-0.50234">
        <ele>1025</ele>
        <time>2022-08-27T22:16:56.000Z</time>
      </trkpt>
      <trkpt lat="43.06937" lon="-0.50216">
        <ele>1023</ele>
        <time>2022-08-27T22:16:58.000Z</time>
      </trkpt>
      <trkpt lat="43.06862" lon="-0.50108">
        <ele>1019</ele>
        <time>2022-08-27T22:17:18.000Z</time>
      </trkpt>
      <trkpt lat="43.06844" lon="-0.50089">
        <ele>1017</ele>
        <time>2022-08-27T22:17:22.000Z</time>
      </trkpt>
      <trkpt lat="43.06816" lon="-0.50076">
        <ele>1016</ele>
        <time>2022-08-27T22:17:27.000Z</time>
      </trkpt>
      <trkpt lat="43.06787" lon="-0.50054">
        <ele>1011</ele>
        <time>2022-08-27T22:17:33.000Z</time>
      </trkpt>
      <trkpt lat="43.06727" lon="-0.50042">
        <ele>1007</ele>
        <time>2022-08-27T22:17:44.000Z</time>
      </trkpt>
      <trkpt lat="43.06711" lon="-0.5004">
        <ele>1005</ele>
        <time>2022-08-27T22:17:47.000Z</time>
      </trkpt>
      <trkpt lat="43.06699" lon="-0.50044">
        <ele>1005</ele>
        <time>2022-08-27T22:17:49.000Z</time>
      </trkpt>
      <trkpt lat="43.06669" lon="-0.50064">
        <ele>1008</ele>
        <time>2022-08-27T22:17:55.000Z</time>
      </trkpt>
      <trkpt lat="43.0658" lon="-0.50137">
        <ele>1020</ele>
        <time>2022-08-27T22:18:14.000Z</time>
      </trkpt>
      <trkpt lat="43.06545" lon="-0.50179">
        <ele>1026</ele>
        <time>2022-08-27T22:18:22.000Z</time>
      </trkpt>
      <trkpt lat="43.06513" lon="-0.50197">
        <ele>1024</ele>
        <time>2022-08-27T22:18:28.000Z</time>
      </trkpt>
      <trkpt lat="43.06509" lon="-0.50194">
        <ele>1022</ele>
        <time>2022-08-27T22:18:29.000Z</time>
      </trkpt>
      <trkpt lat="43.06502" lon="-0.50173">
        <ele>1017</ele>
        <time>2022-08-27T22:18:32.000Z</time>
      </trkpt>
      <trkpt lat="43.06501" lon="-0.50105">
        <ele>1015</ele>
        <time>2022-08-27T22:18:41.000Z</time>
      </trkpt>
      <trkpt lat="43.06525" lon="-0.49986">
        <ele>1012</ele>
        <time>2022-08-27T22:18:57.000Z</time>
      </trkpt>
      <trkpt lat="43.06529" lon="-0.49932">
        <ele>1010</ele>
        <time>2022-08-27T22:19:04.000Z</time>
      </trkpt>
      <trkpt lat="43.06506" lon="-0.49832">
        <ele>1005</ele>
        <time>2022-08-27T22:19:18.000Z</time>
      </trkpt>
      <trkpt lat="43.06502" lon="-0.49826">
        <ele>1006</ele>
        <time>2022-08-27T22:19:19.000Z</time>
      </trkpt>
      <trkpt lat="43.06494" lon="-0.49818">
        <ele>1005</ele>
        <time>2022-08-27T22:19:20.000Z</time>
      </trkpt>
      <trkpt lat="43.06483" lon="-0.49817">
        <ele>1005</ele>
        <time>2022-08-27T22:19:22.000Z</time>
      </trkpt>
      <trkpt lat="43.06446" lon="-0.49849">
        <ele>1012</ele>
        <time>2022-08-27T22:19:30.000Z</time>
      </trkpt>
      <trkpt lat="43.06423" lon="-0.49866">
        <ele>1017</ele>
        <time>2022-08-27T22:19:35.000Z</time>
      </trkpt>
      <trkpt lat="43.06405" lon="-0.49869">
        <ele>1020</ele>
        <time>2022-08-27T22:19:38.000Z</time>
      </trkpt>
      <trkpt lat="43.06389" lon="-0.49864">
        <ele>1021</ele>
        <time>2022-08-27T22:19:41.000Z</time>
      </trkpt>
      <trkpt lat="43.063" lon="-0.49748">
        <ele>1014</ele>
        <time>2022-08-27T22:20:03.000Z</time>
      </trkpt>
      <trkpt lat="43.06272" lon="-0.49713">
        <ele>1013</ele>
        <time>2022-08-27T22:20:10.000Z</time>
      </trkpt>
      <trkpt lat="43.06257" lon="-0.49701">
        <ele>1012</ele>
        <time>2022-08-27T22:20:13.000Z</time>
      </trkpt>
      <trkpt lat="43.06229" lon="-0.49689">
        <ele>1015</ele>
        <time>2022-08-27T22:20:18.000Z</time>
      </trkpt>
      <trkpt lat="43.06207" lon="-0.49661">
        <ele>1013</ele>
        <time>2022-08-27T22:20:23.000Z</time>
      </trkpt>
      <trkpt lat="43.06192" lon="-0.49648">
        <ele>1013</ele>
        <time>2022-08-27T22:20:27.000Z</time>
      </trkpt>
      <trkpt lat="43.06057" lon="-0.49615">
        <ele>1025</ele>
        <time>2022-08-27T22:20:51.000Z</time>
      </trkpt>
      <trkpt lat="43.06049" lon="-0.49604">
        <ele>1026</ele>
        <time>2022-08-27T22:20:53.000Z</time>
      </trkpt>
      <trkpt lat="43.06008" lon="-0.49466">
        <ele>1021</ele>
        <time>2022-08-27T22:21:13.000Z</time>
      </trkpt>
      <trkpt lat="43.06005" lon="-0.4943">
        <ele>1019</ele>
        <time>2022-08-27T22:21:17.000Z</time>
      </trkpt>
      <trkpt lat="43.06006" lon="-0.49417">
        <ele>1018</ele>
        <time>2022-08-27T22:21:19.000Z</time>
      </trkpt>
      <trkpt lat="43.06021" lon="-0.49369">
        <ele>1013</ele>
        <time>2022-08-27T22:21:26.000Z</time>
      </trkpt>
      <trkpt lat="43.06055" lon="-0.49304">
        <ele>1006</ele>
        <time>2022-08-27T22:21:36.000Z</time>
      </trkpt>
      <trkpt lat="43.06059" lon="-0.49292">
        <ele>1005</ele>
        <time>2022-08-27T22:21:38.000Z</time>
      </trkpt>
      <trkpt lat="43.06055" lon="-0.49213">
        <ele>1004</ele>
        <time>2022-08-27T22:21:48.000Z</time>
      </trkpt>
      <trkpt lat="43.06007" lon="-0.49086">
        <ele>1006</ele>
        <time>2022-08-27T22:22:07.000Z</time>
      </trkpt>
      <trkpt lat="43.06" lon="-0.49081">
        <ele>1007</ele>
        <time>2022-08-27T22:22:08.000Z</time>
      </trkpt>
      <trkpt lat="43.05991" lon="-0.49083">
        <ele>1006</ele>
        <time>2022-08-27T22:22:10.000Z</time>
      </trkpt>
      <trkpt lat="43.05966" lon="-0.49122">
        <ele>1007</ele>
        <time>2022-08-27T22:22:17.000Z</time>
      </trkpt>
      <trkpt lat="43.05953" lon="-0.49138">
        <ele>1007</ele>
        <time>2022-08-27T22:22:20.000Z</time>
      </trkpt>
      <trkpt lat="43.05925" lon="-0.49315">
        <ele>1018</ele>
        <time>2022-08-27T22:22:44.000Z</time>
      </trkpt>
      <trkpt lat="43.05914" lon="-0.49333">
        <ele>1020</ele>
        <time>2022-08-27T22:22:47.000Z</time>
      </trkpt>
      <trkpt lat="43.05898" lon="-0.49345">
        <ele>1022</ele>
        <time>2022-08-27T22:22:50.000Z</time>
      </trkpt>
      <trkpt lat="43.0589" lon="-0.49347">
        <ele>1022</ele>
        <time>2022-08-27T22:22:51.000Z</time>
      </trkpt>
      <trkpt lat="43.05844" lon="-0.49315">
        <ele>1012</ele>
        <time>2022-08-27T22:23:01.000Z</time>
      </trkpt>
      <trkpt lat="43.05839" lon="-0.493">
        <ele>1009</ele>
        <time>2022-08-27T22:23:03.000Z</time>
      </trkpt>
      <trkpt lat="43.05878" lon="-0.49234">
        <ele>1005</ele>
        <time>2022-08-27T22:23:14.000Z</time>
      </trkpt>
      <trkpt lat="43.05886" lon="-0.49218">
        <ele>1005</ele>
        <time>2022-08-27T22:23:17.000Z</time>
      </trkpt>
      <trkpt lat="43.05904" lon="-0.49141">
        <ele>999</ele>
        <time>2022-08-27T22:23:27.000Z</time>
      </trkpt>
      <trkpt lat="43.05915" lon="-0.4911">
        <ele>995</ele>
        <time>2022-08-27T22:23:32.000Z</time>
      </trkpt>
      <trkpt lat="43.05922" lon="-0.49097">
        <ele>994</ele>
        <time>2022-08-27T22:23:34.000Z</time>
      </trkpt>
      <trkpt lat="43.05942" lon="-0.49071">
        <ele>993</ele>
        <time>2022-08-27T22:23:39.000Z</time>
      </trkpt>
      <trkpt lat="43.06005" lon="-0.48926">
        <ele>971</ele>
        <time>2022-08-27T22:24:00.000Z</time>
      </trkpt>
      <trkpt lat="43.06023" lon="-0.48867">
        <ele>956</ele>
        <time>2022-08-27T22:24:09.000Z</time>
      </trkpt>
      <trkpt lat="43.06048" lon="-0.48836">
        <ele>949</ele>
        <time>2022-08-27T22:24:15.000Z</time>
      </trkpt>
      <trkpt lat="43.06051" lon="-0.48829">
        <ele>948</ele>
        <time>2022-08-27T22:24:16.000Z</time>
      </trkpt>
      <trkpt lat="43.0604" lon="-0.48816">
        <ele>945</ele>
        <time>2022-08-27T22:24:19.000Z</time>
      </trkpt>
      <trkpt lat="43.0603" lon="-0.48822">
        <ele>946</ele>
        <time>2022-08-27T22:24:21.000Z</time>
      </trkpt>
      <trkpt lat="43.05954" lon="-0.48904">
        <ele>956</ele>
        <time>2022-08-27T22:24:38.000Z</time>
      </trkpt>
      <trkpt lat="43.05933" lon="-0.48918">
        <ele>954</ele>
        <time>2022-08-27T22:24:42.000Z</time>
      </trkpt>
      <trkpt lat="43.05912" lon="-0.48923">
        <ele>953</ele>
        <time>2022-08-27T22:24:46.000Z</time>
      </trkpt>
      <trkpt lat="43.05899" lon="-0.48914">
        <ele>955</ele>
        <time>2022-08-27T22:24:49.000Z</time>
      </trkpt>
      <trkpt lat="43.05897" lon="-0.48908">
        <ele>955</ele>
        <time>2022-08-27T22:24:50.000Z</time>
      </trkpt>
      <trkpt lat="43.05965" lon="-0.48676">
        <ele>922</ele>
        <time>2022-08-27T22:25:22.000Z</time>
      </trkpt>
      <trkpt lat="43.06005" lon="-0.48558">
        <ele>908</ele>
        <time>2022-08-27T22:25:39.000Z</time>
      </trkpt>
      <trkpt lat="43.06061" lon="-0.48196">
        <ele>887</ele>
        <time>2022-08-27T22:26:27.000Z</time>
      </trkpt>
      <trkpt lat="43.06077" lon="-0.48033">
        <ele>883</ele>
        <time>2022-08-27T22:26:49.000Z</time>
      </trkpt>
      <trkpt lat="43.06111" lon="-0.4788">
        <ele>880</ele>
        <time>2022-08-27T22:27:09.000Z</time>
      </trkpt>
      <trkpt lat="43.0614" lon="-0.47821">
        <ele>879</ele>
        <time>2022-08-27T22:27:19.000Z</time>
      </trkpt>
      <trkpt lat="43.06177" lon="-0.4773">
        <ele>879</ele>
        <time>2022-08-27T22:27:32.000Z</time>
      </trkpt>
      <trkpt lat="43.06232" lon="-0.47533">
        <ele>879</ele>
        <time>2022-08-27T22:28:00.000Z</time>
      </trkpt>
      <trkpt lat="43.06263" lon="-0.47439">
        <ele>879</ele>
        <time>2022-08-27T22:28:13.000Z</time>
      </trkpt>
      <trkpt lat="43.06276" lon="-0.47417">
        <ele>878</ele>
        <time>2022-08-27T22:28:17.000Z</time>
      </trkpt>
      <trkpt lat="43.06328" lon="-0.47398">
        <ele>878</ele>
        <time>2022-08-27T22:28:26.000Z</time>
      </trkpt>
      <trkpt lat="43.06347" lon="-0.47382">
        <ele>878</ele>
        <time>2022-08-27T22:28:30.000Z</time>
      </trkpt>
      <trkpt lat="43.06391" lon="-0.47271">
        <ele>877</ele>
        <time>2022-08-27T22:28:47.000Z</time>
      </trkpt>
      <trkpt lat="43.06426" lon="-0.47144">
        <ele>879</ele>
        <time>2022-08-27T22:29:04.000Z</time>
      </trkpt>
      <trkpt lat="43.06499" lon="-0.47064">
        <ele>877</ele>
        <time>2022-08-27T22:29:21.000Z</time>
      </trkpt>
      <trkpt lat="43.06508" lon="-0.47045">
        <ele>876</ele>
        <time>2022-08-27T22:29:24.000Z</time>
      </trkpt>
      <trkpt lat="43.06507" lon="-0.46987">
        <ele>875</ele>
        <time>2022-08-27T22:29:32.000Z</time>
      </trkpt>
      <trkpt lat="43.06508" lon="-0.46972">
        <ele>876</ele>
        <time>2022-08-27T22:29:34.000Z</time>
      </trkpt>
      <trkpt lat="43.06535" lon="-0.46844">
        <ele>880</ele>
        <time>2022-08-27T22:29:51.000Z</time>
      </trkpt>
      <trkpt lat="43.06549" lon="-0.46577">
        <ele>885</ele>
        <time>2022-08-27T22:30:26.000Z</time>
      </trkpt>
      <trkpt lat="43.06535" lon="-0.46489">
        <ele>882</ele>
        <time>2022-08-27T22:30:37.000Z</time>
      </trkpt>
      <trkpt lat="43.06538" lon="-0.46406">
        <ele>875</ele>
        <time>2022-08-27T22:30:48.000Z</time>
      </trkpt>
      <trkpt lat="43.06629" lon="-0.46155">
        <ele>873</ele>
        <time>2022-08-27T22:31:25.000Z</time>
      </trkpt>
      <trkpt lat="43.06635" lon="-0.46128">
        <ele>874</ele>
        <time>2022-08-27T22:31:28.000Z</time>
      </trkpt>
      <trkpt lat="43.06632" lon="-0.46012">
        <ele>870</ele>
        <time>2022-08-27T22:31:43.000Z</time>
      </trkpt>
      <trkpt lat="43.06627" lon="-0.45991">
        <ele>869</ele>
        <time>2022-08-27T22:31:46.000Z</time>
      </trkpt>
      <trkpt lat="43.06588" lon="-0.4596">
        <ele>860</ele>
        <time>2022-08-27T22:31:54.000Z</time>
      </trkpt>
      <trkpt lat="43.06572" lon="-0.45945">
        <ele>858</ele>
        <time>2022-08-27T22:31:58.000Z</time>
      </trkpt>
      <trkpt lat="43.06552" lon="-0.45899">
        <ele>857</ele>
        <time>2022-08-27T22:32:05.000Z</time>
      </trkpt>
      <trkpt lat="43.06544" lon="-0.45885">
        <ele>857</ele>
        <time>2022-08-27T22:32:07.000Z</time>
      </trkpt>
      <trkpt lat="43.0651" lon="-0.45867">
        <ele>852</ele>
        <time>2022-08-27T22:32:14.000Z</time>
      </trkpt>
      <trkpt lat="43.06465" lon="-0.45827">
        <ele>848</ele>
        <time>2022-08-27T22:32:23.000Z</time>
      </trkpt>
      <trkpt lat="43.06368" lon="-0.45791">
        <ele>839</ele>
        <time>2022-08-27T22:32:41.000Z</time>
      </trkpt>
      <trkpt lat="43.06345" lon="-0.45771">
        <ele>837</ele>
        <time>2022-08-27T22:32:46.000Z</time>
      </trkpt>
      <trkpt lat="43.06302" lon="-0.45783">
        <ele>836</ele>
        <time>2022-08-27T22:32:54.000Z</time>
      </trkpt>
      <trkpt lat="43.06289" lon="-0.45783">
        <ele>836</ele>
        <time>2022-08-27T22:32:56.000Z</time>
      </trkpt>
      <trkpt lat="43.06281" lon="-0.45781">
        <ele>836</ele>
        <time>2022-08-27T22:32:58.000Z</time>
      </trkpt>
      <trkpt lat="43.06252" lon="-0.45761">
        <ele>834</ele>
        <time>2022-08-27T22:33:04.000Z</time>
      </trkpt>
      <trkpt lat="43.06236" lon="-0.45757">
        <ele>833</ele>
        <time>2022-08-27T22:33:06.000Z</time>
      </trkpt>
      <trkpt lat="43.06205" lon="-0.45757">
        <ele>832</ele>
        <time>2022-08-27T22:33:12.000Z</time>
      </trkpt>
      <trkpt lat="43.06175" lon="-0.45742">
        <ele>830</ele>
        <time>2022-08-27T22:33:18.000Z</time>
      </trkpt>
      <trkpt lat="43.06159" lon="-0.45726">
        <ele>830</ele>
        <time>2022-08-27T22:33:21.000Z</time>
      </trkpt>
      <trkpt lat="43.06153" lon="-0.45714">
        <ele>829</ele>
        <time>2022-08-27T22:33:23.000Z</time>
      </trkpt>
      <trkpt lat="43.06154" lon="-0.457">
        <ele>828</ele>
        <time>2022-08-27T22:33:25.000Z</time>
      </trkpt>
      <trkpt lat="43.06199" lon="-0.45663">
        <ele>822</ele>
        <time>2022-08-27T22:33:34.000Z</time>
      </trkpt>
      <trkpt lat="43.06212" lon="-0.45643">
        <ele>820</ele>
        <time>2022-08-27T22:33:38.000Z</time>
      </trkpt>
      <trkpt lat="43.06219" lon="-0.45597">
        <ele>814</ele>
        <time>2022-08-27T22:33:44.000Z</time>
      </trkpt>
      <trkpt lat="43.06208" lon="-0.45575">
        <ele>811</ele>
        <time>2022-08-27T22:33:48.000Z</time>
      </trkpt>
      <trkpt lat="43.0619" lon="-0.45566">
        <ele>809</ele>
        <time>2022-08-27T22:33:51.000Z</time>
      </trkpt>
      <trkpt lat="43.06075" lon="-0.45553">
        <ele>801</ele>
        <time>2022-08-27T22:34:12.000Z</time>
      </trkpt>
      <trkpt lat="43.05858" lon="-0.45462">
        <ele>764</ele>
        <time>2022-08-27T22:34:52.000Z</time>
      </trkpt>
      <trkpt lat="43.05856" lon="-0.45453">
        <ele>763</ele>
        <time>2022-08-27T22:34:54.000Z</time>
      </trkpt>
      <trkpt lat="43.0587" lon="-0.45429">
        <ele>760</ele>
        <time>2022-08-27T22:34:58.000Z</time>
      </trkpt>
      <trkpt lat="43.0588" lon="-0.45426">
        <ele>760</ele>
        <time>2022-08-27T22:35:00.000Z</time>
      </trkpt>
      <trkpt lat="43.05953" lon="-0.45434">
        <ele>766</ele>
        <time>2022-08-27T22:35:13.000Z</time>
      </trkpt>
      <trkpt lat="43.0597" lon="-0.45428">
        <ele>765</ele>
        <time>2022-08-27T22:35:16.000Z</time>
      </trkpt>
      <trkpt lat="43.06006" lon="-0.45371">
        <ele>754</ele>
        <time>2022-08-27T22:35:26.000Z</time>
      </trkpt>
      <trkpt lat="43.06017" lon="-0.45357">
        <ele>752</ele>
        <time>2022-08-27T22:35:28.000Z</time>
      </trkpt>
      <trkpt lat="43.0606" lon="-0.45337">
        <ele>749</ele>
        <time>2022-08-27T22:35:37.000Z</time>
      </trkpt>
      <trkpt lat="43.06084" lon="-0.45324">
        <ele>747</ele>
        <time>2022-08-27T22:35:41.000Z</time>
      </trkpt>
      <trkpt lat="43.06139" lon="-0.45282">
        <ele>741</ele>
        <time>2022-08-27T22:35:52.000Z</time>
      </trkpt>
      <trkpt lat="43.06194" lon="-0.45245">
        <ele>738</ele>
        <time>2022-08-27T22:36:03.000Z</time>
      </trkpt>
      <trkpt lat="43.06216" lon="-0.45216">
        <ele>735</ele>
        <time>2022-08-27T22:36:09.000Z</time>
      </trkpt>
      <trkpt lat="43.06232" lon="-0.4519">
        <ele>731</ele>
        <time>2022-08-27T22:36:13.000Z</time>
      </trkpt>
      <trkpt lat="43.06294" lon="-0.45049">
        <ele>725</ele>
        <time>2022-08-27T22:36:35.000Z</time>
      </trkpt>
      <trkpt lat="43.06303" lon="-0.44938">
        <ele>722</ele>
        <time>2022-08-27T22:36:49.000Z</time>
      </trkpt>
      <trkpt lat="43.06298" lon="-0.44872">
        <ele>717</ele>
        <time>2022-08-27T22:36:58.000Z</time>
      </trkpt>
      <trkpt lat="43.06296" lon="-0.44794">
        <ele>715</ele>
        <time>2022-08-27T22:37:08.000Z</time>
      </trkpt>
      <trkpt lat="43.06269" lon="-0.44672">
        <ele>705</ele>
        <time>2022-08-27T22:37:24.000Z</time>
      </trkpt>
      <trkpt lat="43.0626" lon="-0.44588">
        <ele>698</ele>
        <time>2022-08-27T22:37:35.000Z</time>
      </trkpt>
      <trkpt lat="43.06266" lon="-0.44407">
        <ele>687</ele>
        <time>2022-08-27T22:37:59.000Z</time>
      </trkpt>
      <trkpt lat="43.0626" lon="-0.4414">
        <ele>665</ele>
        <time>2022-08-27T22:38:34.000Z</time>
      </trkpt>
      <trkpt lat="43.06256" lon="-0.44103">
        <ele>661</ele>
        <time>2022-08-27T22:38:39.000Z</time>
      </trkpt>
      <trkpt lat="43.06266" lon="-0.44049">
        <ele>660</ele>
        <time>2022-08-27T22:38:46.000Z</time>
      </trkpt>
      <trkpt lat="43.06262" lon="-0.44037">
        <ele>657</ele>
        <time>2022-08-27T22:38:48.000Z</time>
      </trkpt>
      <trkpt lat="43.0624" lon="-0.44036">
        <ele>647</ele>
        <time>2022-08-27T22:38:52.000Z</time>
      </trkpt>
      <trkpt lat="43.06236" lon="-0.44046">
        <ele>646</ele>
        <time>2022-08-27T22:38:53.000Z</time>
      </trkpt>
      <trkpt lat="43.06234" lon="-0.4412">
        <ele>652</ele>
        <time>2022-08-27T22:39:03.000Z</time>
      </trkpt>
      <trkpt lat="43.06174" lon="-0.4433">
        <ele>638</ele>
        <time>2022-08-27T22:39:32.000Z</time>
      </trkpt>
      <trkpt lat="43.0615" lon="-0.44382">
        <ele>636</ele>
        <time>2022-08-27T22:39:40.000Z</time>
      </trkpt>
      <trkpt lat="43.06102" lon="-0.44451">
        <ele>630</ele>
        <time>2022-08-27T22:39:53.000Z</time>
      </trkpt>
      <trkpt lat="43.0608" lon="-0.44503">
        <ele>628</ele>
        <time>2022-08-27T22:40:01.000Z</time>
      </trkpt>
      <trkpt lat="43.06068" lon="-0.44508">
        <ele>626</ele>
        <time>2022-08-27T22:40:03.000Z</time>
      </trkpt>
      <trkpt lat="43.06061" lon="-0.44499">
        <ele>624</ele>
        <time>2022-08-27T22:40:05.000Z</time>
      </trkpt>
      <trkpt lat="43.06061" lon="-0.44408">
        <ele>615</ele>
        <time>2022-08-27T22:40:16.000Z</time>
      </trkpt>
      <trkpt lat="43.06065" lon="-0.44347">
        <ele>610</ele>
        <time>2022-08-27T22:40:24.000Z</time>
      </trkpt>
      <trkpt lat="43.06052" lon="-0.44308">
        <ele>604</ele>
        <time>2022-08-27T22:40:30.000Z</time>
      </trkpt>
      <trkpt lat="43.06047" lon="-0.44281">
        <ele>602</ele>
        <time>2022-08-27T22:40:34.000Z</time>
      </trkpt>
      <trkpt lat="43.06054" lon="-0.44172">
        <ele>593</ele>
        <time>2022-08-27T22:40:48.000Z</time>
      </trkpt>
      <trkpt lat="43.06058" lon="-0.44132">
        <ele>590</ele>
        <time>2022-08-27T22:40:53.000Z</time>
      </trkpt>
      <trkpt lat="43.06039" lon="-0.44024">
        <ele>578</ele>
        <time>2022-08-27T22:41:08.000Z</time>
      </trkpt>
      <trkpt lat="43.06044" lon="-0.4395">
        <ele>575</ele>
        <time>2022-08-27T22:41:17.000Z</time>
      </trkpt>
      <trkpt lat="43.06047" lon="-0.43938">
        <ele>575</ele>
        <time>2022-08-27T22:41:19.000Z</time>
      </trkpt>
      <trkpt lat="43.0606" lon="-0.43913">
        <ele>575</ele>
        <time>2022-08-27T22:41:23.000Z</time>
      </trkpt>
      <trkpt lat="43.06175" lon="-0.43776">
        <ele>568</ele>
        <time>2022-08-27T22:41:50.000Z</time>
      </trkpt>
      <trkpt lat="43.06174" lon="-0.43766">
        <ele>565</ele>
        <time>2022-08-27T22:41:52.000Z</time>
      </trkpt>
      <trkpt lat="43.06167" lon="-0.43756">
        <ele>561</ele>
        <time>2022-08-27T22:41:53.000Z</time>
      </trkpt>
      <trkpt lat="43.0616" lon="-0.43754">
        <ele>560</ele>
        <time>2022-08-27T22:41:55.000Z</time>
      </trkpt>
      <trkpt lat="43.06127" lon="-0.4378">
        <ele>559</ele>
        <time>2022-08-27T22:42:01.000Z</time>
      </trkpt>
      <trkpt lat="43.0611" lon="-0.43788">
        <ele>558</ele>
        <time>2022-08-27T22:42:05.000Z</time>
      </trkpt>
      <trkpt lat="43.05958" lon="-0.43806">
        <ele>534</ele>
        <time>2022-08-27T22:42:32.000Z</time>
      </trkpt>
      <trkpt lat="43.05923" lon="-0.43816">
        <ele>529</ele>
        <time>2022-08-27T22:42:38.000Z</time>
      </trkpt>
      <trkpt lat="43.05903" lon="-0.43834">
        <ele>526</ele>
        <time>2022-08-27T22:42:42.000Z</time>
      </trkpt>
      <trkpt lat="43.05876" lon="-0.43893">
        <ele>525</ele>
        <time>2022-08-27T22:42:51.000Z</time>
      </trkpt>
      <trkpt lat="43.05843" lon="-0.43941">
        <ele>519</ele>
        <time>2022-08-27T22:43:00.000Z</time>
      </trkpt>
      <trkpt lat="43.05806" lon="-0.43983">
        <ele>517</ele>
        <time>2022-08-27T22:43:09.000Z</time>
      </trkpt>
      <trkpt lat="43.0579" lon="-0.43991">
        <ele>515</ele>
        <time>2022-08-27T22:43:12.000Z</time>
      </trkpt>
      <trkpt lat="43.05767" lon="-0.43983">
        <ele>510</ele>
        <time>2022-08-27T22:43:16.000Z</time>
      </trkpt>
      <trkpt lat="43.05759" lon="-0.43969">
        <ele>507</ele>
        <time>2022-08-27T22:43:18.000Z</time>
      </trkpt>
      <trkpt lat="43.05738" lon="-0.43835">
        <ele>492</ele>
        <time>2022-08-27T22:43:36.000Z</time>
      </trkpt>
      <trkpt lat="43.05727" lon="-0.43782">
        <ele>488</ele>
        <time>2022-08-27T22:43:43.000Z</time>
      </trkpt>
      <trkpt lat="43.05723" lon="-0.43753">
        <ele>486</ele>
        <time>2022-08-27T22:43:47.000Z</time>
      </trkpt>
      <trkpt lat="43.05726" lon="-0.43695">
        <ele>490</ele>
        <time>2022-08-27T22:43:55.000Z</time>
      </trkpt>
      <trkpt lat="43.05799" lon="-0.43492">
        <ele>467</ele>
        <time>2022-08-27T22:44:24.000Z</time>
      </trkpt>
      <trkpt lat="43.05813" lon="-0.43302">
        <ele>459</ele>
        <time>2022-08-27T22:44:49.000Z</time>
      </trkpt>
      <trkpt lat="43.05813" lon="-0.43238">
        <ele>458</ele>
        <time>2022-08-27T22:44:57.000Z</time>
      </trkpt>
      <trkpt lat="43.05805" lon="-0.43078">
        <ele>452</ele>
        <time>2022-08-27T22:45:18.000Z</time>
      </trkpt>
      <trkpt lat="43.05778" lon="-0.43001">
        <ele>450</ele>
        <time>2022-08-27T22:45:29.000Z</time>
      </trkpt>
      <trkpt lat="43.05769" lon="-0.42973">
        <ele>449</ele>
        <time>2022-08-27T22:45:33.000Z</time>
      </trkpt>
      <trkpt lat="43.05957" lon="-0.42798">
        <ele>443</ele>
        <time>2022-08-27T22:46:14.000Z</time>
      </trkpt>
      <trkpt lat="43.05985" lon="-0.42739">
        <ele>440</ele>
        <time>2022-08-27T22:46:23.000Z</time>
      </trkpt>
      <trkpt lat="43.05984" lon="-0.42724">
        <ele>440</ele>
        <time>2022-08-27T22:46:25.000Z</time>
      </trkpt>
      <trkpt lat="43.05974" lon="-0.42708">
        <ele>440</ele>
        <time>2022-08-27T22:46:28.000Z</time>
      </trkpt>
      <trkpt lat="43.05965" lon="-0.42699">
        <ele>440</ele>
        <time>2022-08-27T22:46:30.000Z</time>
      </trkpt>
      <trkpt lat="43.05924" lon="-0.42674">
        <ele>441</ele>
        <time>2022-08-27T22:46:38.000Z</time>
      </trkpt>
      <trkpt lat="43.05919" lon="-0.42667">
        <ele>441</ele>
        <time>2022-08-27T22:46:39.000Z</time>
      </trkpt>
      <trkpt lat="43.0583" lon="-0.4264">
        <ele>438</ele>
        <time>2022-08-27T22:46:55.000Z</time>
      </trkpt>
      <trkpt lat="43.05771" lon="-0.42634">
        <ele>439</ele>
        <time>2022-08-27T22:47:06.000Z</time>
      </trkpt>
      <trkpt lat="43.05607" lon="-0.42647">
        <ele>439</ele>
        <time>2022-08-27T22:47:35.000Z</time>
      </trkpt>
      <trkpt lat="43.05185" lon="-0.42678">
        <ele>441</ele>
        <time>2022-08-27T22:48:50.000Z</time>
      </trkpt>
      <trkpt lat="43.04865" lon="-0.42711">
        <ele>436</ele>
        <time>2022-08-27T22:49:47.000Z</time>
      </trkpt>
      <trkpt lat="43.04796" lon="-0.42702">
        <ele>436</ele>
        <time>2022-08-27T22:50:00.000Z</time>
      </trkpt>
      <trkpt lat="43.03872" lon="-0.4238">
        <ele>447</ele>
        <time>2022-08-27T22:52:49.000Z</time>
      </trkpt>
      <trkpt lat="43.03786" lon="-0.42352">
        <ele>448</ele>
        <time>2022-08-27T22:53:05.000Z</time>
      </trkpt>
      <trkpt lat="43.03747" lon="-0.42351">
        <ele>449</ele>
        <time>2022-08-27T22:53:12.000Z</time>
      </trkpt>
      <trkpt lat="43.03737" lon="-0.42353">
        <ele>450</ele>
        <time>2022-08-27T22:53:14.000Z</time>
      </trkpt>
      <trkpt lat="43.03714" lon="-0.42369">
        <ele>451</ele>
        <time>2022-08-27T22:53:19.000Z</time>
      </trkpt>
      <trkpt lat="43.03704" lon="-0.42369">
        <ele>451</ele>
        <time>2022-08-27T22:53:20.000Z</time>
      </trkpt>
      <trkpt lat="43.03661" lon="-0.42308">
        <ele>451</ele>
        <time>2022-08-27T22:53:32.000Z</time>
      </trkpt>
      <trkpt lat="43.0365" lon="-0.42302">
        <ele>451</ele>
        <time>2022-08-27T22:53:34.000Z</time>
      </trkpt>
      <trkpt lat="43.03367" lon="-0.42202">
        <ele>454</ele>
        <time>2022-08-27T22:54:26.000Z</time>
      </trkpt>
      <trkpt lat="43.03292" lon="-0.42184">
        <ele>453</ele>
        <time>2022-08-27T22:54:39.000Z</time>
      </trkpt>
      <trkpt lat="43.03254" lon="-0.4218">
        <ele>452</ele>
        <time>2022-08-27T22:54:46.000Z</time>
      </trkpt>
      <trkpt lat="43.03125" lon="-0.42179">
        <ele>455</ele>
        <time>2022-08-27T22:55:09.000Z</time>
      </trkpt>
      <trkpt lat="43.03019" lon="-0.42176">
        <ele>454</ele>
        <time>2022-08-27T22:55:28.000Z</time>
      </trkpt>
      <trkpt lat="43.02897" lon="-0.42165">
        <ele>455</ele>
        <time>2022-08-27T22:55:50.000Z</time>
      </trkpt>
      <trkpt lat="43.02481" lon="-0.4215">
        <ele>461</ele>
        <time>2022-08-27T22:57:04.000Z</time>
      </trkpt>
      <trkpt lat="43.02461" lon="-0.42156">
        <ele>461</ele>
        <time>2022-08-27T22:57:08.000Z</time>
      </trkpt>
      <trkpt lat="43.02429" lon="-0.42164">
        <ele>462</ele>
        <time>2022-08-27T22:57:13.000Z</time>
      </trkpt>
      <trkpt lat="43.0241" lon="-0.42191">
        <ele>462</ele>
        <time>2022-08-27T22:57:18.000Z</time>
      </trkpt>
      <trkpt lat="43.02405" lon="-0.42193">
        <ele>462</ele>
        <time>2022-08-27T22:57:19.000Z</time>
      </trkpt>
      <trkpt lat="43.02391" lon="-0.42192">
        <ele>462</ele>
        <time>2022-08-27T22:57:22.000Z</time>
      </trkpt>
      <trkpt lat="43.02382" lon="-0.42183">
        <ele>462</ele>
        <time>2022-08-27T22:57:24.000Z</time>
      </trkpt>
      <trkpt lat="43.02336" lon="-0.42184">
        <ele>461</ele>
        <time>2022-08-27T22:57:32.000Z</time>
      </trkpt>
      <trkpt lat="43.02299" lon="-0.42189">
        <ele>460</ele>
        <time>2022-08-27T22:57:39.000Z</time>
      </trkpt>
      <trkpt lat="43.01995" lon="-0.42297">
        <ele>464</ele>
        <time>2022-08-27T22:58:35.000Z</time>
      </trkpt>
      <trkpt lat="43.0185" lon="-0.42323">
        <ele>469</ele>
        <time>2022-08-27T22:59:01.000Z</time>
      </trkpt>
      <trkpt lat="43.01643" lon="-0.42305">
        <ele>476</ele>
        <time>2022-08-27T22:59:38.000Z</time>
      </trkpt>
      <trkpt lat="43.01538" lon="-0.423">
        <ele>478</ele>
        <time>2022-08-27T22:59:56.000Z</time>
      </trkpt>
      <trkpt lat="43.01333" lon="-0.4231">
        <ele>473</ele>
        <time>2022-08-27T23:00:33.000Z</time>
      </trkpt>
      <trkpt lat="43.01258" lon="-0.42307">
        <ele>475</ele>
        <time>2022-08-27T23:00:46.000Z</time>
      </trkpt>
      <trkpt lat="43.01188" lon="-0.42294">
        <ele>476</ele>
        <time>2022-08-27T23:00:59.000Z</time>
      </trkpt>
      <trkpt lat="43.01141" lon="-0.42275">
        <ele>475</ele>
        <time>2022-08-27T23:01:08.000Z</time>
      </trkpt>
      <trkpt lat="43.00811" lon="-0.42098">
        <ele>487</ele>
        <time>2022-08-27T23:02:11.000Z</time>
      </trkpt>
      <trkpt lat="43.00782" lon="-0.4209">
        <ele>487</ele>
        <time>2022-08-27T23:02:16.000Z</time>
      </trkpt>
      <trkpt lat="43.00703" lon="-0.42088">
        <ele>488</ele>
        <time>2022-08-27T23:02:30.000Z</time>
      </trkpt>
      <trkpt lat="43.00665" lon="-0.42098">
        <ele>493</ele>
        <time>2022-08-27T23:02:37.000Z</time>
      </trkpt>
      <trkpt lat="43.00597" lon="-0.42137">
        <ele>497</ele>
        <time>2022-08-27T23:02:50.000Z</time>
      </trkpt>
      <trkpt lat="43.00573" lon="-0.42148">
        <ele>496</ele>
        <time>2022-08-27T23:02:55.000Z</time>
      </trkpt>
      <trkpt lat="43.00538" lon="-0.42156">
        <ele>494</ele>
        <time>2022-08-27T23:03:01.000Z</time>
      </trkpt>
      <trkpt lat="43.00507" lon="-0.42158">
        <ele>491</ele>
        <time>2022-08-27T23:03:07.000Z</time>
      </trkpt>
      <trkpt lat="43.00471" lon="-0.42149">
        <ele>487</ele>
        <time>2022-08-27T23:03:13.000Z</time>
      </trkpt>
      <trkpt lat="43.00418" lon="-0.42127">
        <ele>481</ele>
        <time>2022-08-27T23:03:23.000Z</time>
      </trkpt>
      <trkpt lat="43.00276" lon="-0.42047">
        <ele>483</ele>
        <time>2022-08-27T23:03:50.000Z</time>
      </trkpt>
      <trkpt lat="43.00191" lon="-0.42013">
        <ele>488</ele>
        <time>2022-08-27T23:04:06.000Z</time>
      </trkpt>
      <trkpt lat="43.00147" lon="-0.42011">
        <ele>488</ele>
        <time>2022-08-27T23:04:14.000Z</time>
      </trkpt>
      <trkpt lat="42.99919" lon="-0.42101">
        <ele>488</ele>
        <time>2022-08-27T23:04:56.000Z</time>
      </trkpt>
      <trkpt lat="42.9972" lon="-0.42182">
        <ele>488</ele>
        <time>2022-08-27T23:05:33.000Z</time>
      </trkpt>
      <trkpt lat="42.99668" lon="-0.42194">
        <ele>489</ele>
        <time>2022-08-27T23:05:43.000Z</time>
      </trkpt>
      <trkpt lat="42.99418" lon="-0.42225">
        <ele>498</ele>
        <time>2022-08-27T23:06:27.000Z</time>
      </trkpt>
      <trkpt lat="42.99364" lon="-0.42065">
        <ele>488</ele>
        <time>2022-08-27T23:06:50.000Z</time>
      </trkpt>
      <trkpt lat="42.99358" lon="-0.42037">
        <ele>489</ele>
        <time>2022-08-27T23:06:54.000Z</time>
      </trkpt>
      <trkpt lat="42.99371" lon="-0.41815">
        <ele>494</ele>
        <time>2022-08-27T23:07:23.000Z</time>
      </trkpt>
      <trkpt lat="42.99368" lon="-0.41795">
        <ele>495</ele>
        <time>2022-08-27T23:07:26.000Z</time>
      </trkpt>
      <trkpt lat="42.99254" lon="-0.41679">
        <ele>504</ele>
        <time>2022-08-27T23:07:51.000Z</time>
      </trkpt>
      <trkpt lat="42.9925" lon="-0.41668">
        <ele>506</ele>
        <time>2022-08-27T23:07:53.000Z</time>
      </trkpt>
      <trkpt lat="42.99251" lon="-0.4165">
        <ele>508</ele>
        <time>2022-08-27T23:07:55.000Z</time>
      </trkpt>
      <trkpt lat="42.99284" lon="-0.4162">
        <ele>511</ele>
        <time>2022-08-27T23:08:02.000Z</time>
      </trkpt>
      <trkpt lat="42.99294" lon="-0.41601">
        <ele>513</ele>
        <time>2022-08-27T23:08:05.000Z</time>
      </trkpt>
      <trkpt lat="42.99325" lon="-0.41499">
        <ele>524</ele>
        <time>2022-08-27T23:08:20.000Z</time>
      </trkpt>
      <trkpt lat="42.99331" lon="-0.41425">
        <ele>528</ele>
        <time>2022-08-27T23:08:29.000Z</time>
      </trkpt>
      <trkpt lat="42.99298" lon="-0.41406">
        <ele>527</ele>
        <time>2022-08-27T23:08:36.000Z</time>
      </trkpt>
      <trkpt lat="42.99256" lon="-0.41407">
        <ele>526</ele>
        <time>2022-08-27T23:08:43.000Z</time>
      </trkpt>
      <trkpt lat="42.99242" lon="-0.41405">
        <ele>525</ele>
        <time>2022-08-27T23:08:46.000Z</time>
      </trkpt>
      <trkpt lat="42.99115" lon="-0.4132">
        <ele>525</ele>
        <time>2022-08-27T23:09:11.000Z</time>
      </trkpt>
      <trkpt lat="42.99021" lon="-0.41278">
        <ele>531</ele>
        <time>2022-08-27T23:09:28.000Z</time>
      </trkpt>
      <trkpt lat="42.98962" lon="-0.41267">
        <ele>535</ele>
        <time>2022-08-27T23:09:39.000Z</time>
      </trkpt>
      <trkpt lat="42.98936" lon="-0.41269">
        <ele>536</ele>
        <time>2022-08-27T23:09:44.000Z</time>
      </trkpt>
      <trkpt lat="42.98917" lon="-0.41282">
        <ele>537</ele>
        <time>2022-08-27T23:09:48.000Z</time>
      </trkpt>
      <trkpt lat="42.98906" lon="-0.41301">
        <ele>538</ele>
        <time>2022-08-27T23:09:51.000Z</time>
      </trkpt>
      <trkpt lat="42.98894" lon="-0.41382">
        <ele>539</ele>
        <time>2022-08-27T23:10:01.000Z</time>
      </trkpt>
      <trkpt lat="42.98874" lon="-0.4144">
        <ele>543</ele>
        <time>2022-08-27T23:10:10.000Z</time>
      </trkpt>
      <trkpt lat="42.9882" lon="-0.41495">
        <ele>546</ele>
        <time>2022-08-27T23:10:22.000Z</time>
      </trkpt>
      <trkpt lat="42.98792" lon="-0.41533">
        <ele>541</ele>
        <time>2022-08-27T23:10:29.000Z</time>
      </trkpt>
      <trkpt lat="42.98777" lon="-0.41539">
        <ele>540</ele>
        <time>2022-08-27T23:10:32.000Z</time>
      </trkpt>
      <trkpt lat="42.98761" lon="-0.41533">
        <ele>541</ele>
        <time>2022-08-27T23:10:35.000Z</time>
      </trkpt>
      <trkpt lat="42.98753" lon="-0.41527">
        <ele>542</ele>
        <time>2022-08-27T23:10:36.000Z</time>
      </trkpt>
      <trkpt lat="42.98725" lon="-0.41494">
        <ele>545</ele>
        <time>2022-08-27T23:10:43.000Z</time>
      </trkpt>
      <trkpt lat="42.98702" lon="-0.41445">
        <ele>551</ele>
        <time>2022-08-27T23:10:50.000Z</time>
      </trkpt>
      <trkpt lat="42.98682" lon="-0.41412">
        <ele>558</ele>
        <time>2022-08-27T23:10:56.000Z</time>
      </trkpt>
      <trkpt lat="42.98667" lon="-0.41402">
        <ele>560</ele>
        <time>2022-08-27T23:10:59.000Z</time>
      </trkpt>
      <trkpt lat="42.98618" lon="-0.41395">
        <ele>556</ele>
        <time>2022-08-27T23:11:08.000Z</time>
      </trkpt>
      <trkpt lat="42.986" lon="-0.41384">
        <ele>556</ele>
        <time>2022-08-27T23:11:11.000Z</time>
      </trkpt>
      <trkpt lat="42.98514" lon="-0.41253">
        <ele>569</ele>
        <time>2022-08-27T23:11:34.000Z</time>
      </trkpt>
      <trkpt lat="42.98501" lon="-0.41218">
        <ele>575</ele>
        <time>2022-08-27T23:11:39.000Z</time>
      </trkpt>
      <trkpt lat="42.98454" lon="-0.41166">
        <ele>583</ele>
        <time>2022-08-27T23:11:50.000Z</time>
      </trkpt>
      <trkpt lat="42.98433" lon="-0.41148">
        <ele>585</ele>
        <time>2022-08-27T23:11:55.000Z</time>
      </trkpt>
      <trkpt lat="42.9842" lon="-0.41139">
        <ele>585</ele>
        <time>2022-08-27T23:11:57.000Z</time>
      </trkpt>
      <trkpt lat="42.98408" lon="-0.41135">
        <ele>585</ele>
        <time>2022-08-27T23:11:59.000Z</time>
      </trkpt>
      <trkpt lat="42.98347" lon="-0.41155">
        <ele>576</ele>
        <time>2022-08-27T23:12:11.000Z</time>
      </trkpt>
      <trkpt lat="42.98337" lon="-0.41149">
        <ele>577</ele>
        <time>2022-08-27T23:12:13.000Z</time>
      </trkpt>
      <trkpt lat="42.98318" lon="-0.41092">
        <ele>587</ele>
        <time>2022-08-27T23:12:21.000Z</time>
      </trkpt>
      <trkpt lat="42.98314" lon="-0.41086">
        <ele>588</ele>
        <time>2022-08-27T23:12:22.000Z</time>
      </trkpt>
      <trkpt lat="42.98248" lon="-0.4103">
        <ele>593</ele>
        <time>2022-08-27T23:12:36.000Z</time>
      </trkpt>
      <trkpt lat="42.98236" lon="-0.41018">
        <ele>595</ele>
        <time>2022-08-27T23:12:39.000Z</time>
      </trkpt>
      <trkpt lat="42.98233" lon="-0.40984">
        <ele>603</ele>
        <time>2022-08-27T23:12:43.000Z</time>
      </trkpt>
      <trkpt lat="42.98224" lon="-0.40976">
        <ele>604</ele>
        <time>2022-08-27T23:12:45.000Z</time>
      </trkpt>
      <trkpt lat="42.982" lon="-0.40964">
        <ele>605</ele>
        <time>2022-08-27T23:12:50.000Z</time>
      </trkpt>
      <trkpt lat="42.98169" lon="-0.40955">
        <ele>604</ele>
        <time>2022-08-27T23:12:55.000Z</time>
      </trkpt>
      <trkpt lat="42.98058" lon="-0.40948">
        <ele>601</ele>
        <time>2022-08-27T23:13:15.000Z</time>
      </trkpt>
      <trkpt lat="42.9805" lon="-0.40942">
        <ele>600</ele>
        <time>2022-08-27T23:13:17.000Z</time>
      </trkpt>
      <trkpt lat="42.97997" lon="-0.40852">
        <ele>601</ele>
        <time>2022-08-27T23:13:32.000Z</time>
      </trkpt>
      <trkpt lat="42.97985" lon="-0.40831">
        <ele>605</ele>
        <time>2022-08-27T23:13:35.000Z</time>
      </trkpt>
      <trkpt lat="42.97959" lon="-0.40733">
        <ele>613</ele>
        <time>2022-08-27T23:13:49.000Z</time>
      </trkpt>
      <trkpt lat="42.97949" lon="-0.40717">
        <ele>614</ele>
        <time>2022-08-27T23:13:52.000Z</time>
      </trkpt>
      <trkpt lat="42.9793" lon="-0.40698">
        <ele>613</ele>
        <time>2022-08-27T23:13:56.000Z</time>
      </trkpt>
      <trkpt lat="42.97856" lon="-0.40672">
        <ele>609</ele>
        <time>2022-08-27T23:14:10.000Z</time>
      </trkpt>
      <trkpt lat="42.97841" lon="-0.40656">
        <ele>607</ele>
        <time>2022-08-27T23:14:13.000Z</time>
      </trkpt>
      <trkpt lat="42.97829" lon="-0.40588">
        <ele>609</ele>
        <time>2022-08-27T23:14:22.000Z</time>
      </trkpt>
      <trkpt lat="42.97782" lon="-0.40515">
        <ele>619</ele>
        <time>2022-08-27T23:14:35.000Z</time>
      </trkpt>
      <trkpt lat="42.97797" lon="-0.40481">
        <ele>621</ele>
        <time>2022-08-27T23:14:40.000Z</time>
      </trkpt>
      <trkpt lat="42.97795" lon="-0.40465">
        <ele>622</ele>
        <time>2022-08-27T23:14:43.000Z</time>
      </trkpt>
      <trkpt lat="42.97784" lon="-0.40455">
        <ele>623</ele>
        <time>2022-08-27T23:14:45.000Z</time>
      </trkpt>
      <trkpt lat="42.97766" lon="-0.40449">
        <ele>621</ele>
        <time>2022-08-27T23:14:48.000Z</time>
      </trkpt>
      <trkpt lat="42.97703" lon="-0.4046">
        <ele>626</ele>
        <time>2022-08-27T23:15:00.000Z</time>
      </trkpt>
      <trkpt lat="42.97689" lon="-0.4046">
        <ele>628</ele>
        <time>2022-08-27T23:15:02.000Z</time>
      </trkpt>
      <trkpt lat="42.97615" lon="-0.40391">
        <ele>638</ele>
        <time>2022-08-27T23:15:18.000Z</time>
      </trkpt>
      <trkpt lat="42.97602" lon="-0.40374">
        <ele>641</ele>
        <time>2022-08-27T23:15:21.000Z</time>
      </trkpt>
      <trkpt lat="42.97579" lon="-0.40305">
        <ele>640</ele>
        <time>2022-08-27T23:15:31.000Z</time>
      </trkpt>
      <trkpt lat="42.97571" lon="-0.40301">
        <ele>643</ele>
        <time>2022-08-27T23:15:33.000Z</time>
      </trkpt>
      <trkpt lat="42.97563" lon="-0.40301">
        <ele>646</ele>
        <time>2022-08-27T23:15:34.000Z</time>
      </trkpt>
      <trkpt lat="42.97553" lon="-0.4031">
        <ele>650</ele>
        <time>2022-08-27T23:15:36.000Z</time>
      </trkpt>
      <trkpt lat="42.97561" lon="-0.40359">
        <ele>652</ele>
        <time>2022-08-27T23:15:43.000Z</time>
      </trkpt>
      <trkpt lat="42.97556" lon="-0.40369">
        <ele>655</ele>
        <time>2022-08-27T23:15:45.000Z</time>
      </trkpt>
      <trkpt lat="42.97536" lon="-0.40367">
        <ele>663</ele>
        <time>2022-08-27T23:15:49.000Z</time>
      </trkpt>
      <trkpt lat="42.9753" lon="-0.40358">
        <ele>664</ele>
        <time>2022-08-27T23:15:50.000Z</time>
      </trkpt>
      <trkpt lat="42.97534" lon="-0.40297">
        <ele>656</ele>
        <time>2022-08-27T23:15:58.000Z</time>
      </trkpt>
      <trkpt lat="42.97533" lon="-0.40283">
        <ele>655</ele>
        <time>2022-08-27T23:16:00.000Z</time>
      </trkpt>
      <trkpt lat="42.97522" lon="-0.40274">
        <ele>659</ele>
        <time>2022-08-27T23:16:03.000Z</time>
      </trkpt>
      <trkpt lat="42.97501" lon="-0.40276">
        <ele>667</ele>
        <time>2022-08-27T23:16:06.000Z</time>
      </trkpt>
      <trkpt lat="42.97489" lon="-0.40261">
        <ele>673</ele>
        <time>2022-08-27T23:16:09.000Z</time>
      </trkpt>
      <trkpt lat="42.97487" lon="-0.40251">
        <ele>674</ele>
        <time>2022-08-27T23:16:11.000Z</time>
      </trkpt>
      <trkpt lat="42.97487" lon="-0.40164">
        <ele>676</ele>
        <time>2022-08-27T23:16:22.000Z</time>
      </trkpt>
      <trkpt lat="42.9747" lon="-0.40016">
        <ele>680</ele>
        <time>2022-08-27T23:16:42.000Z</time>
      </trkpt>
      <trkpt lat="42.97467" lon="-0.39918">
        <ele>685</ele>
        <time>2022-08-27T23:16:54.000Z</time>
      </trkpt>
      <trkpt lat="42.97454" lon="-0.39872">
        <ele>691</ele>
        <time>2022-08-27T23:17:01.000Z</time>
      </trkpt>
      <trkpt lat="42.97451" lon="-0.39823">
        <ele>689</ele>
        <time>2022-08-27T23:17:07.000Z</time>
      </trkpt>
      <trkpt lat="42.97445" lon="-0.39799">
        <ele>690</ele>
        <time>2022-08-27T23:17:10.000Z</time>
      </trkpt>
      <trkpt lat="42.9743" lon="-0.39771">
        <ele>694</ele>
        <time>2022-08-27T23:17:15.000Z</time>
      </trkpt>
      <trkpt lat="42.9741" lon="-0.39749">
        <ele>701</ele>
        <time>2022-08-27T23:17:20.000Z</time>
      </trkpt>
      <trkpt lat="42.974" lon="-0.39726">
        <ele>708</ele>
        <time>2022-08-27T23:17:23.000Z</time>
      </trkpt>
      <trkpt lat="42.974" lon="-0.39717">
        <ele>708</ele>
        <time>2022-08-27T23:17:24.000Z</time>
      </trkpt>
      <trkpt lat="42.97417" lon="-0.39671">
        <ele>700</ele>
        <time>2022-08-27T23:17:31.000Z</time>
      </trkpt>
      <trkpt lat="42.97419" lon="-0.39611">
        <ele>706</ele>
        <time>2022-08-27T23:17:39.000Z</time>
      </trkpt>
      <trkpt lat="42.97432" lon="-0.39568">
        <ele>704</ele>
        <time>2022-08-27T23:17:45.000Z</time>
      </trkpt>
      <trkpt lat="42.97433" lon="-0.39556">
        <ele>704</ele>
        <time>2022-08-27T23:17:46.000Z</time>
      </trkpt>
      <trkpt lat="42.97427" lon="-0.39525">
        <ele>710</ele>
        <time>2022-08-27T23:17:51.000Z</time>
      </trkpt>
      <trkpt lat="42.97406" lon="-0.39487">
        <ele>722</ele>
        <time>2022-08-27T23:17:57.000Z</time>
      </trkpt>
      <trkpt lat="42.97401" lon="-0.39412">
        <ele>713</ele>
        <time>2022-08-27T23:18:07.000Z</time>
      </trkpt>
      <trkpt lat="42.97391" lon="-0.39392">
        <ele>715</ele>
        <time>2022-08-27T23:18:10.000Z</time>
      </trkpt>
      <trkpt lat="42.97383" lon="-0.39382">
        <ele>716</ele>
        <time>2022-08-27T23:18:12.000Z</time>
      </trkpt>
      <trkpt lat="42.97311" lon="-0.39343">
        <ele>739</ele>
        <time>2022-08-27T23:18:26.000Z</time>
      </trkpt>
      <trkpt lat="42.97295" lon="-0.39328">
        <ele>744</ele>
        <time>2022-08-27T23:18:29.000Z</time>
      </trkpt>
      <trkpt lat="42.97196" lon="-0.39196">
        <ele>757</ele>
        <time>2022-08-27T23:18:54.000Z</time>
      </trkpt>
      <trkpt lat="42.97194" lon="-0.3919">
        <ele>756</ele>
        <time>2022-08-27T23:18:55.000Z</time>
      </trkpt>
      <trkpt lat="42.9721" lon="-0.39126">
        <ele>750</ele>
        <time>2022-08-27T23:19:04.000Z</time>
      </trkpt>
      <trkpt lat="42.97213" lon="-0.39123">
        <ele>750</ele>
        <time>2022-08-27T23:19:04.000Z</time>
      </trkpt>
      <trkpt lat="42.97219" lon="-0.39128">
        <ele>749</ele>
        <time>2022-08-27T23:19:05.000Z</time>
      </trkpt>
      <trkpt lat="42.97272" lon="-0.39209">
        <ele>738</ele>
        <time>2022-08-27T23:19:20.000Z</time>
      </trkpt>
      <trkpt lat="42.97324" lon="-0.3914">
        <ele>732</ele>
        <time>2022-08-27T23:19:33.000Z</time>
      </trkpt>
      <trkpt lat="42.97324" lon="-0.39118">
        <ele>731</ele>
        <time>2022-08-27T23:19:35.000Z</time>
      </trkpt>
      <trkpt lat="42.97235" lon="-0.38867">
        <ele>762</ele>
        <time>2022-08-27T23:20:12.000Z</time>
      </trkpt>
      <trkpt lat="42.97219" lon="-0.38821">
        <ele>770</ele>
        <time>2022-08-27T23:20:19.000Z</time>
      </trkpt>
      <trkpt lat="42.97215" lon="-0.38785">
        <ele>773</ele>
        <time>2022-08-27T23:20:23.000Z</time>
      </trkpt>
      <trkpt lat="42.97176" lon="-0.38635">
        <ele>791</ele>
        <time>2022-08-27T23:20:44.000Z</time>
      </trkpt>
      <trkpt lat="42.9719" lon="-0.3851">
        <ele>793</ele>
        <time>2022-08-27T23:21:01.000Z</time>
      </trkpt>
      <trkpt lat="42.97183" lon="-0.38476">
        <ele>794</ele>
        <time>2022-08-27T23:21:05.000Z</time>
      </trkpt>
      <trkpt lat="42.97153" lon="-0.38413">
        <ele>798</ele>
        <time>2022-08-27T23:21:15.000Z</time>
      </trkpt>
      <trkpt lat="42.97108" lon="-0.38293">
        <ele>810</ele>
        <time>2022-08-27T23:21:33.000Z</time>
      </trkpt>
      <trkpt lat="42.9709" lon="-0.38268">
        <ele>809</ele>
        <time>2022-08-27T23:21:37.000Z</time>
      </trkpt>
      <trkpt lat="42.97033" lon="-0.38224">
        <ele>817</ele>
        <time>2022-08-27T23:21:49.000Z</time>
      </trkpt>
      <trkpt lat="42.97028" lon="-0.38216">
        <ele>818</ele>
        <time>2022-08-27T23:21:50.000Z</time>
      </trkpt>
      <trkpt lat="42.96991" lon="-0.38079">
        <ele>812</ele>
        <time>2022-08-27T23:22:09.000Z</time>
      </trkpt>
      <trkpt lat="42.96976" lon="-0.38055">
        <ele>816</ele>
        <time>2022-08-27T23:22:13.000Z</time>
      </trkpt>
      <trkpt lat="42.96968" lon="-0.38055">
        <ele>817</ele>
        <time>2022-08-27T23:22:15.000Z</time>
      </trkpt>
      <trkpt lat="42.96967" lon="-0.38077">
        <ele>817</ele>
        <time>2022-08-27T23:22:18.000Z</time>
      </trkpt>
      <trkpt lat="42.96996" lon="-0.38146">
        <ele>818</ele>
        <time>2022-08-27T23:22:28.000Z</time>
      </trkpt>
      <trkpt lat="42.96998" lon="-0.38156">
        <ele>819</ele>
        <time>2022-08-27T23:22:29.000Z</time>
      </trkpt>
      <trkpt lat="42.97" lon="-0.38254">
        <ele>826</ele>
        <time>2022-08-27T23:22:43.000Z</time>
      </trkpt>
      <trkpt lat="42.96994" lon="-0.38254">
        <ele>828</ele>
        <time>2022-08-27T23:22:44.000Z</time>
      </trkpt>
      <trkpt lat="42.96979" lon="-0.38166">
        <ele>824</ele>
        <time>2022-08-27T23:22:56.000Z</time>
      </trkpt>
      <trkpt lat="42.96971" lon="-0.38151">
        <ele>824</ele>
        <time>2022-08-27T23:22:58.000Z</time>
      </trkpt>
      <trkpt lat="42.96959" lon="-0.38143">
        <ele>826</ele>
        <time>2022-08-27T23:23:00.000Z</time>
      </trkpt>
      <trkpt lat="42.96951" lon="-0.38134">
        <ele>826</ele>
        <time>2022-08-27T23:23:02.000Z</time>
      </trkpt>
      <trkpt lat="42.96935" lon="-0.38099">
        <ele>825</ele>
        <time>2022-08-27T23:23:08.000Z</time>
      </trkpt>
      <trkpt lat="42.96929" lon="-0.38093">
        <ele>826</ele>
        <time>2022-08-27T23:23:09.000Z</time>
      </trkpt>
      <trkpt lat="42.96884" lon="-0.38093">
        <ele>841</ele>
        <time>2022-08-27T23:23:17.000Z</time>
      </trkpt>
      <trkpt lat="42.96867" lon="-0.38072">
        <ele>845</ele>
        <time>2022-08-27T23:23:21.000Z</time>
      </trkpt>
      <trkpt lat="42.96863" lon="-0.38049">
        <ele>845</ele>
        <time>2022-08-27T23:23:24.000Z</time>
      </trkpt>
      <trkpt lat="42.96866" lon="-0.3804">
        <ele>843</ele>
        <time>2022-08-27T23:23:26.000Z</time>
      </trkpt>
      <trkpt lat="42.96882" lon="-0.38016">
        <ele>835</ele>
        <time>2022-08-27T23:23:30.000Z</time>
      </trkpt>
      <trkpt lat="42.96885" lon="-0.37989">
        <ele>833</ele>
        <time>2022-08-27T23:23:33.000Z</time>
      </trkpt>
      <trkpt lat="42.9688" lon="-0.37965">
        <ele>833</ele>
        <time>2022-08-27T23:23:37.000Z</time>
      </trkpt>
      <trkpt lat="42.96869" lon="-0.3795">
        <ele>836</ele>
        <time>2022-08-27T23:23:39.000Z</time>
      </trkpt>
      <trkpt lat="42.9686" lon="-0.37945">
        <ele>838</ele>
        <time>2022-08-27T23:23:41.000Z</time>
      </trkpt>
      <trkpt lat="42.96832" lon="-0.37942">
        <ele>847</ele>
        <time>2022-08-27T23:23:46.000Z</time>
      </trkpt>
      <trkpt lat="42.96819" lon="-0.37927">
        <ele>853</ele>
        <time>2022-08-27T23:23:49.000Z</time>
      </trkpt>
      <trkpt lat="42.96816" lon="-0.37916">
        <ele>853</ele>
        <time>2022-08-27T23:23:51.000Z</time>
      </trkpt>
      <trkpt lat="42.96818" lon="-0.37864">
        <ele>848</ele>
        <time>2022-08-27T23:23:57.000Z</time>
      </trkpt>
      <trkpt lat="42.96815" lon="-0.37851">
        <ele>848</ele>
        <time>2022-08-27T23:23:59.000Z</time>
      </trkpt>
      <trkpt lat="42.968" lon="-0.37818">
        <ele>854</ele>
        <time>2022-08-27T23:24:04.000Z</time>
      </trkpt>
      <trkpt lat="42.96795" lon="-0.37758">
        <ele>853</ele>
        <time>2022-08-27T23:24:12.000Z</time>
      </trkpt>
      <trkpt lat="42.96791" lon="-0.3774">
        <ele>854</ele>
        <time>2022-08-27T23:24:15.000Z</time>
      </trkpt>
      <trkpt lat="42.96762" lon="-0.37698">
        <ele>862</ele>
        <time>2022-08-27T23:24:22.000Z</time>
      </trkpt>
      <trkpt lat="42.96755" lon="-0.3768">
        <ele>862</ele>
        <time>2022-08-27T23:24:25.000Z</time>
      </trkpt>
      <trkpt lat="42.96753" lon="-0.37657">
        <ele>861</ele>
        <time>2022-08-27T23:24:28.000Z</time>
      </trkpt>
      <trkpt lat="42.96757" lon="-0.3764">
        <ele>860</ele>
        <time>2022-08-27T23:24:30.000Z</time>
      </trkpt>
      <trkpt lat="42.96794" lon="-0.37604">
        <ele>854</ele>
        <time>2022-08-27T23:24:38.000Z</time>
      </trkpt>
      <trkpt lat="42.96801" lon="-0.37585">
        <ele>854</ele>
        <time>2022-08-27T23:24:41.000Z</time>
      </trkpt>
      <trkpt lat="42.96797" lon="-0.37571">
        <ele>856</ele>
        <time>2022-08-27T23:24:43.000Z</time>
      </trkpt>
      <trkpt lat="42.96771" lon="-0.37538">
        <ele>860</ele>
        <time>2022-08-27T23:24:49.000Z</time>
      </trkpt>
      <trkpt lat="42.96759" lon="-0.37464">
        <ele>865</ele>
        <time>2022-08-27T23:24:59.000Z</time>
      </trkpt>
      <trkpt lat="42.96754" lon="-0.37463">
        <ele>865</ele>
        <time>2022-08-27T23:25:00.000Z</time>
      </trkpt>
      <trkpt lat="42.96749" lon="-0.3743">
        <ele>869</ele>
        <time>2022-08-27T23:25:04.000Z</time>
      </trkpt>
      <trkpt lat="42.96752" lon="-0.37352">
        <ele>869</ele>
        <time>2022-08-27T23:25:15.000Z</time>
      </trkpt>
      <trkpt lat="42.96737" lon="-0.37227">
        <ele>877</ele>
        <time>2022-08-27T23:25:31.000Z</time>
      </trkpt>
      <trkpt lat="42.96736" lon="-0.37204">
        <ele>878</ele>
        <time>2022-08-27T23:25:34.000Z</time>
      </trkpt>
      <trkpt lat="42.9674" lon="-0.37185">
        <ele>878</ele>
        <time>2022-08-27T23:25:37.000Z</time>
      </trkpt>
      <trkpt lat="42.9676" lon="-0.37164">
        <ele>879</ele>
        <time>2022-08-27T23:25:41.000Z</time>
      </trkpt>
      <trkpt lat="42.9677" lon="-0.37163">
        <ele>881</ele>
        <time>2022-08-27T23:25:43.000Z</time>
      </trkpt>
      <trkpt lat="42.96778" lon="-0.37167">
        <ele>882</ele>
        <time>2022-08-27T23:25:45.000Z</time>
      </trkpt>
      <trkpt lat="42.9679" lon="-0.3718">
        <ele>884</ele>
        <time>2022-08-27T23:25:47.000Z</time>
      </trkpt>
      <trkpt lat="42.96824" lon="-0.37245">
        <ele>886</ele>
        <time>2022-08-27T23:25:58.000Z</time>
      </trkpt>
      <trkpt lat="42.96832" lon="-0.37253">
        <ele>887</ele>
        <time>2022-08-27T23:25:59.000Z</time>
      </trkpt>
      <trkpt lat="42.96851" lon="-0.37263">
        <ele>889</ele>
        <time>2022-08-27T23:26:03.000Z</time>
      </trkpt>
      <trkpt lat="42.96877" lon="-0.3726">
        <ele>893</ele>
        <time>2022-08-27T23:26:08.000Z</time>
      </trkpt>
      <trkpt lat="42.96892" lon="-0.37251">
        <ele>895</ele>
        <time>2022-08-27T23:26:11.000Z</time>
      </trkpt>
      <trkpt lat="42.96903" lon="-0.37236">
        <ele>898</ele>
        <time>2022-08-27T23:26:13.000Z</time>
      </trkpt>
      <trkpt lat="42.96906" lon="-0.37217">
        <ele>900</ele>
        <time>2022-08-27T23:26:16.000Z</time>
      </trkpt>
      <trkpt lat="42.96887" lon="-0.37161">
        <ele>902</ele>
        <time>2022-08-27T23:26:24.000Z</time>
      </trkpt>
      <trkpt lat="42.96883" lon="-0.37143">
        <ele>903</ele>
        <time>2022-08-27T23:26:27.000Z</time>
      </trkpt>
      <trkpt lat="42.9689" lon="-0.37102">
        <ele>907</ele>
        <time>2022-08-27T23:26:32.000Z</time>
      </trkpt>
      <trkpt lat="42.96889" lon="-0.37074">
        <ele>911</ele>
        <time>2022-08-27T23:26:36.000Z</time>
      </trkpt>
      <trkpt lat="42.96872" lon="-0.37031">
        <ele>915</ele>
        <time>2022-08-27T23:26:42.000Z</time>
      </trkpt>
      <trkpt lat="42.9683" lon="-0.36958">
        <ele>917</ele>
        <time>2022-08-27T23:26:54.000Z</time>
      </trkpt>
      <trkpt lat="42.96811" lon="-0.36892">
        <ele>925</ele>
        <time>2022-08-27T23:27:03.000Z</time>
      </trkpt>
      <trkpt lat="42.96781" lon="-0.36818">
        <ele>929</ele>
        <time>2022-08-27T23:27:14.000Z</time>
      </trkpt>
      <trkpt lat="42.96768" lon="-0.3672">
        <ele>938</ele>
        <time>2022-08-27T23:27:28.000Z</time>
      </trkpt>
      <trkpt lat="42.96759" lon="-0.36662">
        <ele>939</ele>
        <time>2022-08-27T23:27:35.000Z</time>
      </trkpt>
      <trkpt lat="42.96731" lon="-0.36579">
        <ele>946</ele>
        <time>2022-08-27T23:27:47.000Z</time>
      </trkpt>
      <trkpt lat="42.96724" lon="-0.36556">
        <ele>945</ele>
        <time>2022-08-27T23:27:50.000Z</time>
      </trkpt>
      <trkpt lat="42.96685" lon="-0.36301">
        <ele>967</ele>
        <time>2022-08-27T23:28:25.000Z</time>
      </trkpt>
      <trkpt lat="42.96643" lon="-0.36116">
        <ele>977</ele>
        <time>2022-08-27T23:28:50.000Z</time>
      </trkpt>
      <trkpt lat="42.96642" lon="-0.36069">
        <ele>982</ele>
        <time>2022-08-27T23:28:56.000Z</time>
      </trkpt>
      <trkpt lat="42.96626" lon="-0.35995">
        <ele>987</ele>
        <time>2022-08-27T23:29:06.000Z</time>
      </trkpt>
      <trkpt lat="42.96626" lon="-0.35925">
        <ele>991</ele>
        <time>2022-08-27T23:29:15.000Z</time>
      </trkpt>
      <trkpt lat="42.96621" lon="-0.35835">
        <ele>1003</ele>
        <time>2022-08-27T23:29:27.000Z</time>
      </trkpt>
      <trkpt lat="42.96604" lon="-0.35753">
        <ele>1012</ele>
        <time>2022-08-27T23:29:38.000Z</time>
      </trkpt>
      <trkpt lat="42.96576" lon="-0.3564">
        <ele>1018</ele>
        <time>2022-08-27T23:29:54.000Z</time>
      </trkpt>
      <trkpt lat="42.96572" lon="-0.35627">
        <ele>1020</ele>
        <time>2022-08-27T23:29:55.000Z</time>
      </trkpt>
      <trkpt lat="42.96555" lon="-0.35599">
        <ele>1023</ele>
        <time>2022-08-27T23:30:00.000Z</time>
      </trkpt>
      <trkpt lat="42.96499" lon="-0.3554">
        <ele>1026</ele>
        <time>2022-08-27T23:30:13.000Z</time>
      </trkpt>
      <trkpt lat="42.96455" lon="-0.35494">
        <ele>1025</ele>
        <time>2022-08-27T23:30:23.000Z</time>
      </trkpt>
      <trkpt lat="42.96415" lon="-0.35427">
        <ele>1030</ele>
        <time>2022-08-27T23:30:34.000Z</time>
      </trkpt>
      <trkpt lat="42.96399" lon="-0.3537">
        <ele>1038</ele>
        <time>2022-08-27T23:30:42.000Z</time>
      </trkpt>
      <trkpt lat="42.96392" lon="-0.35355">
        <ele>1040</ele>
        <time>2022-08-27T23:30:44.000Z</time>
      </trkpt>
      <trkpt lat="42.96358" lon="-0.35309">
        <ele>1043</ele>
        <time>2022-08-27T23:30:53.000Z</time>
      </trkpt>
      <trkpt lat="42.96344" lon="-0.35268">
        <ele>1047</ele>
        <time>2022-08-27T23:30:59.000Z</time>
      </trkpt>
      <trkpt lat="42.96336" lon="-0.35153">
        <ele>1055</ele>
        <time>2022-08-27T23:31:14.000Z</time>
      </trkpt>
      <trkpt lat="42.96341" lon="-0.35119">
        <ele>1058</ele>
        <time>2022-08-27T23:31:18.000Z</time>
      </trkpt>
      <trkpt lat="42.96376" lon="-0.35063">
        <ele>1073</ele>
        <time>2022-08-27T23:31:28.000Z</time>
      </trkpt>
      <trkpt lat="42.96386" lon="-0.34945">
        <ele>1080</ele>
        <time>2022-08-27T23:31:43.000Z</time>
      </trkpt>
      <trkpt lat="42.96392" lon="-0.3492">
        <ele>1082</ele>
        <time>2022-08-27T23:31:47.000Z</time>
      </trkpt>
      <trkpt lat="42.96422" lon="-0.3488">
        <ele>1087</ele>
        <time>2022-08-27T23:31:54.000Z</time>
      </trkpt>
      <trkpt lat="42.96429" lon="-0.34862">
        <ele>1091</ele>
        <time>2022-08-27T23:31:57.000Z</time>
      </trkpt>
      <trkpt lat="42.96427" lon="-0.34812">
        <ele>1094</ele>
        <time>2022-08-27T23:32:03.000Z</time>
      </trkpt>
      <trkpt lat="42.96401" lon="-0.34756">
        <ele>1099</ele>
        <time>2022-08-27T23:32:12.000Z</time>
      </trkpt>
      <trkpt lat="42.96406" lon="-0.34633">
        <ele>1117</ele>
        <time>2022-08-27T23:32:28.000Z</time>
      </trkpt>
      <trkpt lat="42.96387" lon="-0.34612">
        <ele>1124</ele>
        <time>2022-08-27T23:32:33.000Z</time>
      </trkpt>
      <trkpt lat="42.96377" lon="-0.34618">
        <ele>1125</ele>
        <time>2022-08-27T23:32:35.000Z</time>
      </trkpt>
      <trkpt lat="42.96361" lon="-0.34685">
        <ele>1115</ele>
        <time>2022-08-27T23:32:44.000Z</time>
      </trkpt>
      <trkpt lat="42.96353" lon="-0.34702">
        <ele>1113</ele>
        <time>2022-08-27T23:32:47.000Z</time>
      </trkpt>
      <trkpt lat="42.96323" lon="-0.34733">
        <ele>1115</ele>
        <time>2022-08-27T23:32:54.000Z</time>
      </trkpt>
      <trkpt lat="42.96304" lon="-0.34757">
        <ele>1120</ele>
        <time>2022-08-27T23:32:58.000Z</time>
      </trkpt>
      <trkpt lat="42.96278" lon="-0.34773">
        <ele>1130</ele>
        <time>2022-08-27T23:33:03.000Z</time>
      </trkpt>
      <trkpt lat="42.96273" lon="-0.34779">
        <ele>1131</ele>
        <time>2022-08-27T23:33:04.000Z</time>
      </trkpt>
      <trkpt lat="42.96238" lon="-0.34897">
        <ele>1129</ele>
        <time>2022-08-27T23:33:21.000Z</time>
      </trkpt>
      <trkpt lat="42.96235" lon="-0.34955">
        <ele>1123</ele>
        <time>2022-08-27T23:33:29.000Z</time>
      </trkpt>
      <trkpt lat="42.96222" lon="-0.34962">
        <ele>1131</ele>
        <time>2022-08-27T23:33:31.000Z</time>
      </trkpt>
      <trkpt lat="42.96219" lon="-0.34957">
        <ele>1134</ele>
        <time>2022-08-27T23:33:32.000Z</time>
      </trkpt>
      <trkpt lat="42.96233" lon="-0.34805">
        <ele>1150</ele>
        <time>2022-08-27T23:33:52.000Z</time>
      </trkpt>
      <trkpt lat="42.96253" lon="-0.34714">
        <ele>1153</ele>
        <time>2022-08-27T23:34:04.000Z</time>
      </trkpt>
      <trkpt lat="42.96249" lon="-0.34607">
        <ele>1174</ele>
        <time>2022-08-27T23:34:19.000Z</time>
      </trkpt>
      <trkpt lat="42.96251" lon="-0.34592">
        <ele>1175</ele>
        <time>2022-08-27T23:34:20.000Z</time>
      </trkpt>
      <trkpt lat="42.96254" lon="-0.3458">
        <ele>1175</ele>
        <time>2022-08-27T23:34:22.000Z</time>
      </trkpt>
      <trkpt lat="42.96264" lon="-0.34563">
        <ele>1172</ele>
        <time>2022-08-27T23:34:25.000Z</time>
      </trkpt>
      <trkpt lat="42.96292" lon="-0.34556">
        <ele>1160</ele>
        <time>2022-08-27T23:34:30.000Z</time>
      </trkpt>
      <trkpt lat="42.96303" lon="-0.34543">
        <ele>1156</ele>
        <time>2022-08-27T23:34:33.000Z</time>
      </trkpt>
      <trkpt lat="42.96309" lon="-0.34514">
        <ele>1156</ele>
        <time>2022-08-27T23:34:37.000Z</time>
      </trkpt>
      <trkpt lat="42.96311" lon="-0.3449">
        <ele>1158</ele>
        <time>2022-08-27T23:34:40.000Z</time>
      </trkpt>
      <trkpt lat="42.96306" lon="-0.34437">
        <ele>1168</ele>
        <time>2022-08-27T23:34:47.000Z</time>
      </trkpt>
      <trkpt lat="42.96307" lon="-0.34425">
        <ele>1170</ele>
        <time>2022-08-27T23:34:48.000Z</time>
      </trkpt>
      <trkpt lat="42.9632" lon="-0.34388">
        <ele>1170</ele>
        <time>2022-08-27T23:34:54.000Z</time>
      </trkpt>
      <trkpt lat="42.9634" lon="-0.34219">
        <ele>1185</ele>
        <time>2022-08-27T23:35:16.000Z</time>
      </trkpt>
      <trkpt lat="42.96348" lon="-0.34186">
        <ele>1188</ele>
        <time>2022-08-27T23:35:21.000Z</time>
      </trkpt>
      <trkpt lat="42.9635" lon="-0.34134">
        <ele>1190</ele>
        <time>2022-08-27T23:35:27.000Z</time>
      </trkpt>
      <trkpt lat="42.96345" lon="-0.34108">
        <ele>1189</ele>
        <time>2022-08-27T23:35:31.000Z</time>
      </trkpt>
      <trkpt lat="42.96299" lon="-0.33995">
        <ele>1185</ele>
        <time>2022-08-27T23:35:48.000Z</time>
      </trkpt>
      <trkpt lat="42.96295" lon="-0.33956">
        <ele>1187</ele>
        <time>2022-08-27T23:35:53.000Z</time>
      </trkpt>
      <trkpt lat="42.96301" lon="-0.33935">
        <ele>1190</ele>
        <time>2022-08-27T23:35:56.000Z</time>
      </trkpt>
      <trkpt lat="42.96314" lon="-0.33926">
        <ele>1193</ele>
        <time>2022-08-27T23:35:58.000Z</time>
      </trkpt>
      <trkpt lat="42.96355" lon="-0.33924">
        <ele>1205</ele>
        <time>2022-08-27T23:36:06.000Z</time>
      </trkpt>
      <trkpt lat="42.96389" lon="-0.33936">
        <ele>1216</ele>
        <time>2022-08-27T23:36:12.000Z</time>
      </trkpt>
      <trkpt lat="42.96401" lon="-0.33953">
        <ele>1218</ele>
        <time>2022-08-27T23:36:15.000Z</time>
      </trkpt>
      <trkpt lat="42.96418" lon="-0.34133">
        <ele>1212</ele>
        <time>2022-08-27T23:36:39.000Z</time>
      </trkpt>
      <trkpt lat="42.96467" lon="-0.34316">
        <ele>1213</ele>
        <time>2022-08-27T23:37:04.000Z</time>
      </trkpt>
      <trkpt lat="42.96482" lon="-0.34339">
        <ele>1217</ele>
        <time>2022-08-27T23:37:08.000Z</time>
      </trkpt>
      <trkpt lat="42.96489" lon="-0.34341">
        <ele>1219</ele>
        <time>2022-08-27T23:37:10.000Z</time>
      </trkpt>
      <trkpt lat="42.96504" lon="-0.34326">
        <ele>1228</ele>
        <time>2022-08-27T23:37:13.000Z</time>
      </trkpt>
      <trkpt lat="42.96508" lon="-0.34309">
        <ele>1232</ele>
        <time>2022-08-27T23:37:16.000Z</time>
      </trkpt>
      <trkpt lat="42.96509" lon="-0.34262">
        <ele>1238</ele>
        <time>2022-08-27T23:37:22.000Z</time>
      </trkpt>
      <trkpt lat="42.96494" lon="-0.3409">
        <ele>1258</ele>
        <time>2022-08-27T23:37:44.000Z</time>
      </trkpt>
      <trkpt lat="42.96471" lon="-0.3394">
        <ele>1255</ele>
        <time>2022-08-27T23:38:04.000Z</time>
      </trkpt>
      <trkpt lat="42.96462" lon="-0.33905">
        <ele>1254</ele>
        <time>2022-08-27T23:38:09.000Z</time>
      </trkpt>
      <trkpt lat="42.96466" lon="-0.33857">
        <ele>1261</ele>
        <time>2022-08-27T23:38:15.000Z</time>
      </trkpt>
      <trkpt lat="42.96465" lon="-0.33846">
        <ele>1261</ele>
        <time>2022-08-27T23:38:17.000Z</time>
      </trkpt>
      <trkpt lat="42.9645" lon="-0.33786">
        <ele>1268</ele>
        <time>2022-08-27T23:38:25.000Z</time>
      </trkpt>
      <trkpt lat="42.96447" lon="-0.33692">
        <ele>1289</ele>
        <time>2022-08-27T23:38:37.000Z</time>
      </trkpt>
      <trkpt lat="42.96431" lon="-0.33584">
        <ele>1302</ele>
        <time>2022-08-27T23:38:52.000Z</time>
      </trkpt>
      <trkpt lat="42.96413" lon="-0.33527">
        <ele>1303</ele>
        <time>2022-08-27T23:39:00.000Z</time>
      </trkpt>
      <trkpt lat="42.96356" lon="-0.33395">
        <ele>1317</ele>
        <time>2022-08-27T23:39:20.000Z</time>
      </trkpt>
      <trkpt lat="42.96318" lon="-0.33335">
        <ele>1321</ele>
        <time>2022-08-27T23:39:30.000Z</time>
      </trkpt>
      <trkpt lat="42.96248" lon="-0.33271">
        <ele>1326</ele>
        <time>2022-08-27T23:39:45.000Z</time>
      </trkpt>
      <trkpt lat="42.96185" lon="-0.3326">
        <ele>1334</ele>
        <time>2022-08-27T23:39:56.000Z</time>
      </trkpt>
      <trkpt lat="42.96173" lon="-0.3326">
        <ele>1335</ele>
        <time>2022-08-27T23:39:59.000Z</time>
      </trkpt>
      <trkpt lat="42.96152" lon="-0.33268">
        <ele>1335</ele>
        <time>2022-08-27T23:40:02.000Z</time>
      </trkpt>
      <trkpt lat="42.96117" lon="-0.33302">
        <ele>1329</ele>
        <time>2022-08-27T23:40:10.000Z</time>
      </trkpt>
      <trkpt lat="42.96105" lon="-0.33303">
        <ele>1332</ele>
        <time>2022-08-27T23:40:12.000Z</time>
      </trkpt>
      <trkpt lat="42.96064" lon="-0.33277">
        <ele>1348</ele>
        <time>2022-08-27T23:40:20.000Z</time>
      </trkpt>
      <trkpt lat="42.96053" lon="-0.33277">
        <ele>1350</ele>
        <time>2022-08-27T23:40:22.000Z</time>
      </trkpt>
      <trkpt lat="42.96044" lon="-0.33279">
        <ele>1351</ele>
        <time>2022-08-27T23:40:24.000Z</time>
      </trkpt>
      <trkpt lat="42.96012" lon="-0.33299">
        <ele>1352</ele>
        <time>2022-08-27T23:40:30.000Z</time>
      </trkpt>
      <trkpt lat="42.95989" lon="-0.33306">
        <ele>1354</ele>
        <time>2022-08-27T23:40:34.000Z</time>
      </trkpt>
      <trkpt lat="42.95974" lon="-0.33305">
        <ele>1355</ele>
        <time>2022-08-27T23:40:37.000Z</time>
      </trkpt>
      <trkpt lat="42.95919" lon="-0.33292">
        <ele>1360</ele>
        <time>2022-08-27T23:40:47.000Z</time>
      </trkpt>
      <trkpt lat="42.95869" lon="-0.33296">
        <ele>1359</ele>
        <time>2022-08-27T23:40:56.000Z</time>
      </trkpt>
      <trkpt lat="42.95846" lon="-0.33292">
        <ele>1359</ele>
        <time>2022-08-27T23:41:00.000Z</time>
      </trkpt>
      <trkpt lat="42.95838" lon="-0.33288">
        <ele>1359</ele>
        <time>2022-08-27T23:41:01.000Z</time>
      </trkpt>
      <trkpt lat="42.95835" lon="-0.3328">
        <ele>1359</ele>
        <time>2022-08-27T23:41:03.000Z</time>
      </trkpt>
      <trkpt lat="42.95828" lon="-0.33285">
        <ele>1359</ele>
        <time>2022-08-27T23:41:04.000Z</time>
      </trkpt>
      <trkpt lat="42.95823" lon="-0.33282">
        <ele>1359</ele>
        <time>2022-08-27T23:41:05.000Z</time>
      </trkpt>
      <trkpt lat="42.95821" lon="-0.33278">
        <ele>1359</ele>
        <time>2022-08-27T23:41:06.000Z</time>
      </trkpt>
      <trkpt lat="42.95823" lon="-0.33267">
        <ele>1359</ele>
        <time>2022-08-27T23:41:07.000Z</time>
      </trkpt>
      <trkpt lat="42.95809" lon="-0.3325">
        <ele>1360</ele>
        <time>2022-08-27T23:41:11.000Z</time>
      </trkpt>
      <trkpt lat="42.95812" lon="-0.33237">
        <ele>1362</ele>
        <time>2022-08-27T23:41:12.000Z</time>
      </trkpt>
      <trkpt lat="42.95824" lon="-0.33228">
        <ele>1364</ele>
        <time>2022-08-27T23:41:15.000Z</time>
      </trkpt>
      <trkpt lat="42.95833" lon="-0.33229">
        <ele>1364</ele>
        <time>2022-08-27T23:41:17.000Z</time>
      </trkpt>
      <trkpt lat="42.95864" lon="-0.33259">
        <ele>1361</ele>
        <time>2022-08-27T23:41:23.000Z</time>
      </trkpt>
      <trkpt lat="42.95879" lon="-0.33267">
        <ele>1361</ele>
        <time>2022-08-27T23:41:26.000Z</time>
      </trkpt>
      <trkpt lat="42.95917" lon="-0.33256">
        <ele>1364</ele>
        <time>2022-08-27T23:41:33.000Z</time>
      </trkpt>
      <trkpt lat="42.9594" lon="-0.3326">
        <ele>1364</ele>
        <time>2022-08-27T23:41:37.000Z</time>
      </trkpt>
      <trkpt lat="42.95956" lon="-0.33257">
        <ele>1364</ele>
        <time>2022-08-27T23:41:40.000Z</time>
      </trkpt>
      <trkpt lat="42.95966" lon="-0.33251">
        <ele>1365</ele>
        <time>2022-08-27T23:41:42.000Z</time>
      </trkpt>
      <trkpt lat="42.95979" lon="-0.3323">
        <ele>1368</ele>
        <time>2022-08-27T23:41:46.000Z</time>
      </trkpt>
      <trkpt lat="42.95992" lon="-0.33181">
        <ele>1375</ele>
        <time>2022-08-27T23:41:52.000Z</time>
      </trkpt>
      <trkpt lat="42.9601" lon="-0.33157">
        <ele>1378</ele>
        <time>2022-08-27T23:41:57.000Z</time>
      </trkpt>
      <trkpt lat="42.96043" lon="-0.33122">
        <ele>1386</ele>
        <time>2022-08-27T23:42:04.000Z</time>
      </trkpt>
      <trkpt lat="42.96075" lon="-0.33117">
        <ele>1387</ele>
        <time>2022-08-27T23:42:10.000Z</time>
      </trkpt>
      <trkpt lat="42.96104" lon="-0.33102">
        <ele>1392</ele>
        <time>2022-08-27T23:42:16.000Z</time>
      </trkpt>
      <trkpt lat="42.9613" lon="-0.33107">
        <ele>1391</ele>
        <time>2022-08-27T23:42:20.000Z</time>
      </trkpt>
      <trkpt lat="42.96145" lon="-0.33104">
        <ele>1392</ele>
        <time>2022-08-27T23:42:23.000Z</time>
      </trkpt>
      <trkpt lat="42.96217" lon="-0.33059">
        <ele>1408</ele>
        <time>2022-08-27T23:42:37.000Z</time>
      </trkpt>
      <trkpt lat="42.96273" lon="-0.33034">
        <ele>1423</ele>
        <time>2022-08-27T23:42:48.000Z</time>
      </trkpt>
      <trkpt lat="42.96311" lon="-0.33043">
        <ele>1430</ele>
        <time>2022-08-27T23:42:55.000Z</time>
      </trkpt>
      <trkpt lat="42.96325" lon="-0.33056">
        <ele>1429</ele>
        <time>2022-08-27T23:42:58.000Z</time>
      </trkpt>
      <trkpt lat="42.96342" lon="-0.33101">
        <ele>1421</ele>
        <time>2022-08-27T23:43:04.000Z</time>
      </trkpt>
      <trkpt lat="42.96354" lon="-0.33117">
        <ele>1421</ele>
        <time>2022-08-27T23:43:07.000Z</time>
      </trkpt>
      <trkpt lat="42.96434" lon="-0.33153">
        <ele>1436</ele>
        <time>2022-08-27T23:43:22.000Z</time>
      </trkpt>
      <trkpt lat="42.96442" lon="-0.33159">
        <ele>1437</ele>
        <time>2022-08-27T23:43:24.000Z</time>
      </trkpt>
      <trkpt lat="42.96477" lon="-0.33201">
        <ele>1440</ele>
        <time>2022-08-27T23:43:32.000Z</time>
      </trkpt>
      <trkpt lat="42.96493" lon="-0.33228">
        <ele>1440</ele>
        <time>2022-08-27T23:43:37.000Z</time>
      </trkpt>
      <trkpt lat="42.96506" lon="-0.33295">
        <ele>1436</ele>
        <time>2022-08-27T23:43:46.000Z</time>
      </trkpt>
      <trkpt lat="42.9651" lon="-0.33341">
        <ele>1434</ele>
        <time>2022-08-27T23:43:52.000Z</time>
      </trkpt>
      <trkpt lat="42.96533" lon="-0.33424">
        <ele>1434</ele>
        <time>2022-08-27T23:44:03.000Z</time>
      </trkpt>
      <trkpt lat="42.96546" lon="-0.3344">
        <ele>1436</ele>
        <time>2022-08-27T23:44:06.000Z</time>
      </trkpt>
      <trkpt lat="42.96563" lon="-0.33448">
        <ele>1443</ele>
        <time>2022-08-27T23:44:10.000Z</time>
      </trkpt>
      <trkpt lat="42.96603" lon="-0.33437">
        <ele>1467</ele>
        <time>2022-08-27T23:44:17.000Z</time>
      </trkpt>
      <trkpt lat="42.96619" lon="-0.3344">
        <ele>1473</ele>
        <time>2022-08-27T23:44:20.000Z</time>
      </trkpt>
      <trkpt lat="42.96626" lon="-0.33446">
        <ele>1474</ele>
        <time>2022-08-27T23:44:21.000Z</time>
      </trkpt>
      <trkpt lat="42.96633" lon="-0.33461">
        <ele>1472</ele>
        <time>2022-08-27T23:44:24.000Z</time>
      </trkpt>
      <trkpt lat="42.96644" lon="-0.33523">
        <ele>1458</ele>
        <time>2022-08-27T23:44:32.000Z</time>
      </trkpt>
      <trkpt lat="42.9666" lon="-0.33539">
        <ele>1462</ele>
        <time>2022-08-27T23:44:36.000Z</time>
      </trkpt>
      <trkpt lat="42.96698" lon="-0.33556">
        <ele>1472</ele>
        <time>2022-08-27T23:44:43.000Z</time>
      </trkpt>
      <trkpt lat="42.96726" lon="-0.33558">
        <ele>1480</ele>
        <time>2022-08-27T23:44:48.000Z</time>
      </trkpt>
      <trkpt lat="42.96741" lon="-0.33567">
        <ele>1481</ele>
        <time>2022-08-27T23:44:51.000Z</time>
      </trkpt>
      <trkpt lat="42.96759" lon="-0.33584">
        <ele>1480</ele>
        <time>2022-08-27T23:44:54.000Z</time>
      </trkpt>
      <trkpt lat="42.96783" lon="-0.3359">
        <ele>1484</ele>
        <time>2022-08-27T23:44:59.000Z</time>
      </trkpt>
      <trkpt lat="42.96794" lon="-0.33598">
        <ele>1484</ele>
        <time>2022-08-27T23:45:01.000Z</time>
      </trkpt>
      <trkpt lat="42.96808" lon="-0.33627">
        <ele>1478</ele>
        <time>2022-08-27T23:45:06.000Z</time>
      </trkpt>
      <trkpt lat="42.96829" lon="-0.33646">
        <ele>1477</ele>
        <time>2022-08-27T23:45:10.000Z</time>
      </trkpt>
      <trkpt lat="42.96836" lon="-0.33651">
        <ele>1478</ele>
        <time>2022-08-27T23:45:11.000Z</time>
      </trkpt>
      <trkpt lat="42.96884" lon="-0.33664">
        <ele>1498</ele>
        <time>2022-08-27T23:45:20.000Z</time>
      </trkpt>
      <trkpt lat="42.96888" lon="-0.33669">
        <ele>1499</ele>
        <time>2022-08-27T23:45:21.000Z</time>
      </trkpt>
      <trkpt lat="42.96883" lon="-0.33712">
        <ele>1493</ele>
        <time>2022-08-27T23:45:27.000Z</time>
      </trkpt>
      <trkpt lat="42.96892" lon="-0.33742">
        <ele>1495</ele>
        <time>2022-08-27T23:45:31.000Z</time>
      </trkpt>
      <trkpt lat="42.96884" lon="-0.33795">
        <ele>1494</ele>
        <time>2022-08-27T23:45:38.000Z</time>
      </trkpt>
      <trkpt lat="42.96887" lon="-0.33824">
        <ele>1498</ele>
        <time>2022-08-27T23:45:42.000Z</time>
      </trkpt>
      <trkpt lat="42.96899" lon="-0.33877">
        <ele>1504</ele>
        <time>2022-08-27T23:45:49.000Z</time>
      </trkpt>
      <trkpt lat="42.96904" lon="-0.33933">
        <ele>1504</ele>
        <time>2022-08-27T23:45:57.000Z</time>
      </trkpt>
      <trkpt lat="42.96942" lon="-0.34051">
        <ele>1523</ele>
        <time>2022-08-27T23:46:14.000Z</time>
      </trkpt>
      <trkpt lat="42.96946" lon="-0.34064">
        <ele>1525</ele>
        <time>2022-08-27T23:46:15.000Z</time>
      </trkpt>
      <trkpt lat="42.96927" lon="-0.34117">
        <ele>1511</ele>
        <time>2022-08-27T23:46:23.000Z</time>
      </trkpt>
      <trkpt lat="42.96926" lon="-0.34135">
        <ele>1511</ele>
        <time>2022-08-27T23:46:26.000Z</time>
      </trkpt>
      <trkpt lat="42.96964" lon="-0.34209">
        <ele>1532</ele>
        <time>2022-08-27T23:46:37.000Z</time>
      </trkpt>
      <trkpt lat="42.96989" lon="-0.34273">
        <ele>1542</ele>
        <time>2022-08-27T23:46:47.000Z</time>
      </trkpt>
      <trkpt lat="42.96984" lon="-0.34343">
        <ele>1530</ele>
        <time>2022-08-27T23:46:56.000Z</time>
      </trkpt>
      <trkpt lat="42.96986" lon="-0.34366">
        <ele>1527</ele>
        <time>2022-08-27T23:46:59.000Z</time>
      </trkpt>
      <trkpt lat="42.97016" lon="-0.34394">
        <ele>1538</ele>
        <time>2022-08-27T23:47:06.000Z</time>
      </trkpt>
      <trkpt lat="42.97029" lon="-0.34411">
        <ele>1543</ele>
        <time>2022-08-27T23:47:09.000Z</time>
      </trkpt>
      <trkpt lat="42.97078" lon="-0.34517">
        <ele>1549</ele>
        <time>2022-08-27T23:47:25.000Z</time>
      </trkpt>
      <trkpt lat="42.97085" lon="-0.3453">
        <ele>1551</ele>
        <time>2022-08-27T23:47:27.000Z</time>
      </trkpt>
      <trkpt lat="42.97139" lon="-0.34567">
        <ele>1568</ele>
        <time>2022-08-27T23:47:38.000Z</time>
      </trkpt>
      <trkpt lat="42.97146" lon="-0.34575">
        <ele>1569</ele>
        <time>2022-08-27T23:47:40.000Z</time>
      </trkpt>
      <trkpt lat="42.97162" lon="-0.34667">
        <ele>1552</ele>
        <time>2022-08-27T23:47:52.000Z</time>
      </trkpt>
      <trkpt lat="42.97167" lon="-0.34675">
        <ele>1553</ele>
        <time>2022-08-27T23:47:53.000Z</time>
      </trkpt>
      <trkpt lat="42.97177" lon="-0.34677">
        <ele>1554</ele>
        <time>2022-08-27T23:47:55.000Z</time>
      </trkpt>
      <trkpt lat="42.97181" lon="-0.34672">
        <ele>1555</ele>
        <time>2022-08-27T23:47:56.000Z</time>
      </trkpt>
      <trkpt lat="42.97186" lon="-0.34597">
        <ele>1574</ele>
        <time>2022-08-27T23:48:06.000Z</time>
      </trkpt>
      <trkpt lat="42.97197" lon="-0.34577">
        <ele>1580</ele>
        <time>2022-08-27T23:48:09.000Z</time>
      </trkpt>
      <trkpt lat="42.97205" lon="-0.34575">
        <ele>1581</ele>
        <time>2022-08-27T23:48:11.000Z</time>
      </trkpt>
      <trkpt lat="42.97245" lon="-0.34575">
        <ele>1585</ele>
        <time>2022-08-27T23:48:18.000Z</time>
      </trkpt>
      <trkpt lat="42.9725" lon="-0.34578">
        <ele>1584</ele>
        <time>2022-08-27T23:48:19.000Z</time>
      </trkpt>
      <trkpt lat="42.97269" lon="-0.34631">
        <ele>1576</ele>
        <time>2022-08-27T23:48:27.000Z</time>
      </trkpt>
      <trkpt lat="42.97279" lon="-0.3464">
        <ele>1577</ele>
        <time>2022-08-27T23:48:29.000Z</time>
      </trkpt>
      <trkpt lat="42.97348" lon="-0.34648">
        <ele>1588</ele>
        <time>2022-08-27T23:48:41.000Z</time>
      </trkpt>
      <trkpt lat="42.97358" lon="-0.34642">
        <ele>1589</ele>
        <time>2022-08-27T23:48:43.000Z</time>
      </trkpt>
      <trkpt lat="42.97364" lon="-0.34634">
        <ele>1590</ele>
        <time>2022-08-27T23:48:45.000Z</time>
      </trkpt>
      <trkpt lat="42.97368" lon="-0.34617">
        <ele>1593</ele>
        <time>2022-08-27T23:48:47.000Z</time>
      </trkpt>
      <trkpt lat="42.97362" lon="-0.34572">
        <ele>1602</ele>
        <time>2022-08-27T23:48:53.000Z</time>
      </trkpt>
      <trkpt lat="42.97365" lon="-0.34548">
        <ele>1605</ele>
        <time>2022-08-27T23:48:56.000Z</time>
      </trkpt>
      <trkpt lat="42.97393" lon="-0.34528">
        <ele>1607</ele>
        <time>2022-08-27T23:49:02.000Z</time>
      </trkpt>
      <trkpt lat="42.97407" lon="-0.34517">
        <ele>1608</ele>
        <time>2022-08-27T23:49:05.000Z</time>
      </trkpt>
      <trkpt lat="42.97434" lon="-0.34451">
        <ele>1617</ele>
        <time>2022-08-27T23:49:15.000Z</time>
      </trkpt>
      <trkpt lat="42.97449" lon="-0.3444">
        <ele>1619</ele>
        <time>2022-08-27T23:49:18.000Z</time>
      </trkpt>
      <trkpt lat="42.97474" lon="-0.34445">
        <ele>1621</ele>
        <time>2022-08-27T23:49:22.000Z</time>
      </trkpt>
      <trkpt lat="42.97508" lon="-0.3447">
        <ele>1622</ele>
        <time>2022-08-27T23:49:29.000Z</time>
      </trkpt>
      <trkpt lat="42.97538" lon="-0.34519">
        <ele>1623</ele>
        <time>2022-08-27T23:49:38.000Z</time>
      </trkpt>
      <trkpt lat="42.97551" lon="-0.34529">
        <ele>1623</ele>
        <time>2022-08-27T23:49:40.000Z</time>
      </trkpt>
      <trkpt lat="42.97567" lon="-0.3453">
        <ele>1625</ele>
        <time>2022-08-27T23:49:43.000Z</time>
      </trkpt>
      <trkpt lat="42.97582" lon="-0.34522">
        <ele>1628</ele>
        <time>2022-08-27T23:49:46.000Z</time>
      </trkpt>
      <trkpt lat="42.97603" lon="-0.34487">
        <ele>1636</ele>
        <time>2022-08-27T23:49:52.000Z</time>
      </trkpt>
      <trkpt lat="42.97617" lon="-0.34481">
        <ele>1639</ele>
        <time>2022-08-27T23:49:55.000Z</time>
      </trkpt>
      <trkpt lat="42.97647" lon="-0.34511">
        <ele>1638</ele>
        <time>2022-08-27T23:50:01.000Z</time>
      </trkpt>
      <trkpt lat="42.97659" lon="-0.34521">
        <ele>1637</ele>
        <time>2022-08-27T23:50:04.000Z</time>
      </trkpt>
      <trkpt lat="42.97691" lon="-0.34532">
        <ele>1635</ele>
        <time>2022-08-27T23:50:10.000Z</time>
      </trkpt>
      <trkpt lat="42.97704" lon="-0.34529">
        <ele>1635</ele>
        <time>2022-08-27T23:50:12.000Z</time>
      </trkpt>
      <trkpt lat="42.97725" lon="-0.3451">
        <ele>1640</ele>
        <time>2022-08-27T23:50:17.000Z</time>
      </trkpt>
      <trkpt lat="42.97746" lon="-0.34464">
        <ele>1651</ele>
        <time>2022-08-27T23:50:24.000Z</time>
      </trkpt>
      <trkpt lat="42.9778" lon="-0.34413">
        <ele>1655</ele>
        <time>2022-08-27T23:50:33.000Z</time>
      </trkpt>
      <trkpt lat="42.97815" lon="-0.34317">
        <ele>1669</ele>
        <time>2022-08-27T23:50:47.000Z</time>
      </trkpt>
      <trkpt lat="42.97822" lon="-0.34305">
        <ele>1672</ele>
        <time>2022-08-27T23:50:49.000Z</time>
      </trkpt>
      <trkpt lat="42.97831" lon="-0.343">
        <ele>1672</ele>
        <time>2022-08-27T23:50:50.000Z</time>
      </trkpt>
      <trkpt lat="42.97846" lon="-0.34297">
        <ele>1672</ele>
        <time>2022-08-27T23:50:53.000Z</time>
      </trkpt>
      <trkpt lat="42.97863" lon="-0.34301">
        <ele>1670</ele>
        <time>2022-08-27T23:50:56.000Z</time>
      </trkpt>
      <trkpt lat="42.97877" lon="-0.34308">
        <ele>1668</ele>
        <time>2022-08-27T23:50:59.000Z</time>
      </trkpt>
      <trkpt lat="42.97892" lon="-0.34303">
        <ele>1669</ele>
        <time>2022-08-27T23:51:02.000Z</time>
      </trkpt>
      <trkpt lat="42.97897" lon="-0.34291">
        <ele>1672</ele>
        <time>2022-08-27T23:51:03.000Z</time>
      </trkpt>
      <trkpt lat="42.97896" lon="-0.34285">
        <ele>1674</ele>
        <time>2022-08-27T23:51:04.000Z</time>
      </trkpt>
      <trkpt lat="42.97891" lon="-0.34277">
        <ele>1677</ele>
        <time>2022-08-27T23:51:06.000Z</time>
      </trkpt>
      <trkpt lat="42.97855" lon="-0.3428">
        <ele>1678</ele>
        <time>2022-08-27T23:51:12.000Z</time>
      </trkpt>
      <trkpt lat="42.97824" lon="-0.34278">
        <ele>1681</ele>
        <time>2022-08-27T23:51:18.000Z</time>
      </trkpt>
      <trkpt lat="42.97811" lon="-0.3428">
        <ele>1682</ele>
        <time>2022-08-27T23:51:20.000Z</time>
      </trkpt>
      <trkpt lat="42.97776" lon="-0.34314">
        <ele>1677</ele>
        <time>2022-08-27T23:51:28.000Z</time>
      </trkpt>
      <trkpt lat="42.97754" lon="-0.34323">
        <ele>1679</ele>
        <time>2022-08-27T23:51:32.000Z</time>
      </trkpt>
      <trkpt lat="42.9772" lon="-0.34315">
        <ele>1679</ele>
        <time>2022-08-27T23:51:38.000Z</time>
      </trkpt>
      <trkpt lat="42.97711" lon="-0.34301">
        <ele>1681</ele>
        <time>2022-08-27T23:51:40.000Z</time>
      </trkpt>
      <trkpt lat="42.97694" lon="-0.34219">
        <ele>1694</ele>
        <time>2022-08-27T23:51:51.000Z</time>
      </trkpt>
      <trkpt lat="42.97644" lon="-0.34143">
        <ele>1696</ele>
        <time>2022-08-27T23:52:05.000Z</time>
      </trkpt>
      <trkpt lat="42.97628" lon="-0.3409">
        <ele>1700</ele>
        <time>2022-08-27T23:52:12.000Z</time>
      </trkpt>
      <trkpt lat="42.97625" lon="-0.34048">
        <ele>1703</ele>
        <time>2022-08-27T23:52:18.000Z</time>
      </trkpt>
      <trkpt lat="42.97629" lon="-0.34029">
        <ele>1705</ele>
        <time>2022-08-27T23:52:20.000Z</time>
      </trkpt>
      <trkpt lat="42.97661" lon="-0.33969">
        <ele>1709</ele>
        <time>2022-08-27T23:52:30.000Z</time>
      </trkpt>
      <trkpt lat="42.97663" lon="-0.33952">
        <ele>1707</ele>
        <time>2022-08-27T23:52:32.000Z</time>
      </trkpt>
      <trkpt lat="42.97635" lon="-0.33884">
        <ele>1703</ele>
        <time>2022-08-27T23:52:43.000Z</time>
      </trkpt>
      <trkpt lat="42.97621" lon="-0.33817">
        <ele>1695</ele>
        <time>2022-08-27T23:52:52.000Z</time>
      </trkpt>
      <trkpt lat="42.97614" lon="-0.33802">
        <ele>1694</ele>
        <time>2022-08-27T23:52:54.000Z</time>
      </trkpt>
      <trkpt lat="42.97603" lon="-0.33789">
        <ele>1693</ele>
        <time>2022-08-27T23:52:57.000Z</time>
      </trkpt>
      <trkpt lat="42.97539" lon="-0.33739">
        <ele>1694</ele>
        <time>2022-08-27T23:53:10.000Z</time>
      </trkpt>
      <trkpt lat="42.9752" lon="-0.33712">
        <ele>1692</ele>
        <time>2022-08-27T23:53:14.000Z</time>
      </trkpt>
      <trkpt lat="42.975" lon="-0.33521">
        <ele>1669</ele>
        <time>2022-08-27T23:53:40.000Z</time>
      </trkpt>
      <trkpt lat="42.97491" lon="-0.33484">
        <ele>1667</ele>
        <time>2022-08-27T23:53:45.000Z</time>
      </trkpt>
      <trkpt lat="42.97481" lon="-0.33458">
        <ele>1666</ele>
        <time>2022-08-27T23:53:49.000Z</time>
      </trkpt>
      <trkpt lat="42.9745" lon="-0.33421">
        <ele>1669</ele>
        <time>2022-08-27T23:53:56.000Z</time>
      </trkpt>
      <trkpt lat="42.9744" lon="-0.33405">
        <ele>1669</ele>
        <time>2022-08-27T23:53:59.000Z</time>
      </trkpt>
      <trkpt lat="42.97407" lon="-0.33305">
        <ele>1658</ele>
        <time>2022-08-27T23:54:13.000Z</time>
      </trkpt>
      <trkpt lat="42.97387" lon="-0.33265">
        <ele>1655</ele>
        <time>2022-08-27T23:54:19.000Z</time>
      </trkpt>
      <trkpt lat="42.97342" lon="-0.33217">
        <ele>1650</ele>
        <time>2022-08-27T23:54:30.000Z</time>
      </trkpt>
      <trkpt lat="42.9731" lon="-0.332">
        <ele>1646</ele>
        <time>2022-08-27T23:54:36.000Z</time>
      </trkpt>
      <trkpt lat="42.97224" lon="-0.33202">
        <ele>1651</ele>
        <time>2022-08-27T23:54:51.000Z</time>
      </trkpt>
      <trkpt lat="42.97218" lon="-0.33195">
        <ele>1650</ele>
        <time>2022-08-27T23:54:52.000Z</time>
      </trkpt>
      <trkpt lat="42.97222" lon="-0.33126">
        <ele>1635</ele>
        <time>2022-08-27T23:55:02.000Z</time>
      </trkpt>
      <trkpt lat="42.97223" lon="-0.33103">
        <ele>1631</ele>
        <time>2022-08-27T23:55:05.000Z</time>
      </trkpt>
      <trkpt lat="42.97179" lon="-0.33021">
        <ele>1628</ele>
        <time>2022-08-27T23:55:18.000Z</time>
      </trkpt>
      <trkpt lat="42.97169" lon="-0.32997">
        <ele>1626</ele>
        <time>2022-08-27T23:55:22.000Z</time>
      </trkpt>
      <trkpt lat="42.97147" lon="-0.32862">
        <ele>1619</ele>
        <time>2022-08-27T23:55:40.000Z</time>
      </trkpt>
      <trkpt lat="42.97156" lon="-0.32822">
        <ele>1614</ele>
        <time>2022-08-27T23:55:45.000Z</time>
      </trkpt>
      <trkpt lat="42.97123" lon="-0.32775">
        <ele>1615</ele>
        <time>2022-08-27T23:55:54.000Z</time>
      </trkpt>
      <trkpt lat="42.97115" lon="-0.3275">
        <ele>1614</ele>
        <time>2022-08-27T23:55:57.000Z</time>
      </trkpt>
      <trkpt lat="42.97123" lon="-0.32715">
        <ele>1614</ele>
        <time>2022-08-27T23:56:02.000Z</time>
      </trkpt>
      <trkpt lat="42.97138" lon="-0.32681">
        <ele>1613</ele>
        <time>2022-08-27T23:56:07.000Z</time>
      </trkpt>
      <trkpt lat="42.97178" lon="-0.32619">
        <ele>1609</ele>
        <time>2022-08-27T23:56:18.000Z</time>
      </trkpt>
      <trkpt lat="42.97242" lon="-0.32552">
        <ele>1595</ele>
        <time>2022-08-27T23:56:32.000Z</time>
      </trkpt>
      <trkpt lat="42.97247" lon="-0.32532">
        <ele>1592</ele>
        <time>2022-08-27T23:56:35.000Z</time>
      </trkpt>
      <trkpt lat="42.9724" lon="-0.32486">
        <ele>1585</ele>
        <time>2022-08-27T23:56:41.000Z</time>
      </trkpt>
      <trkpt lat="42.97229" lon="-0.3247">
        <ele>1582</ele>
        <time>2022-08-27T23:56:44.000Z</time>
      </trkpt>
      <trkpt lat="42.97214" lon="-0.32465">
        <ele>1582</ele>
        <time>2022-08-27T23:56:47.000Z</time>
      </trkpt>
      <trkpt lat="42.97178" lon="-0.3247">
        <ele>1586</ele>
        <time>2022-08-27T23:56:53.000Z</time>
      </trkpt>
      <trkpt lat="42.9716" lon="-0.32461">
        <ele>1585</ele>
        <time>2022-08-27T23:56:57.000Z</time>
      </trkpt>
      <trkpt lat="42.97138" lon="-0.32462">
        <ele>1590</ele>
        <time>2022-08-27T23:57:01.000Z</time>
      </trkpt>
      <trkpt lat="42.97091" lon="-0.32429">
        <ele>1594</ele>
        <time>2022-08-27T23:57:10.000Z</time>
      </trkpt>
      <trkpt lat="42.97085" lon="-0.32412">
        <ele>1594</ele>
        <time>2022-08-27T23:57:13.000Z</time>
      </trkpt>
      <trkpt lat="42.97086" lon="-0.32406">
        <ele>1594</ele>
        <time>2022-08-27T23:57:13.000Z</time>
      </trkpt>
      <trkpt lat="42.97094" lon="-0.32392">
        <ele>1592</ele>
        <time>2022-08-27T23:57:16.000Z</time>
      </trkpt>
      <trkpt lat="42.97121" lon="-0.32374">
        <ele>1582</ele>
        <time>2022-08-27T23:57:21.000Z</time>
      </trkpt>
      <trkpt lat="42.97134" lon="-0.32362">
        <ele>1575</ele>
        <time>2022-08-27T23:57:24.000Z</time>
      </trkpt>
      <trkpt lat="42.97144" lon="-0.32323">
        <ele>1567</ele>
        <time>2022-08-27T23:57:29.000Z</time>
      </trkpt>
      <trkpt lat="42.97144" lon="-0.32311">
        <ele>1568</ele>
        <time>2022-08-27T23:57:31.000Z</time>
      </trkpt>
      <trkpt lat="42.97133" lon="-0.32277">
        <ele>1579</ele>
        <time>2022-08-27T23:57:36.000Z</time>
      </trkpt>
      <trkpt lat="42.97138" lon="-0.32248">
        <ele>1579</ele>
        <time>2022-08-27T23:57:40.000Z</time>
      </trkpt>
      <trkpt lat="42.97146" lon="-0.32232">
        <ele>1576</ele>
        <time>2022-08-27T23:57:42.000Z</time>
      </trkpt>
      <trkpt lat="42.97175" lon="-0.32212">
        <ele>1563</ele>
        <time>2022-08-27T23:57:48.000Z</time>
      </trkpt>
      <trkpt lat="42.97184" lon="-0.32201">
        <ele>1560</ele>
        <time>2022-08-27T23:57:50.000Z</time>
      </trkpt>
      <trkpt lat="42.97215" lon="-0.32132">
        <ele>1552</ele>
        <time>2022-08-27T23:58:01.000Z</time>
      </trkpt>
      <trkpt lat="42.97222" lon="-0.32111">
        <ele>1549</ele>
        <time>2022-08-27T23:58:04.000Z</time>
      </trkpt>
      <trkpt lat="42.97249" lon="-0.31834">
        <ele>1549</ele>
        <time>2022-08-27T23:58:40.000Z</time>
      </trkpt>
      <trkpt lat="42.97255" lon="-0.31812">
        <ele>1555</ele>
        <time>2022-08-27T23:58:43.000Z</time>
      </trkpt>
      <trkpt lat="42.97281" lon="-0.31799">
        <ele>1556</ele>
        <time>2022-08-27T23:58:48.000Z</time>
      </trkpt>
      <trkpt lat="42.97324" lon="-0.31799">
        <ele>1548</ele>
        <time>2022-08-27T23:58:56.000Z</time>
      </trkpt>
      <trkpt lat="42.9743" lon="-0.31828">
        <ele>1507</ele>
        <time>2022-08-27T23:59:15.000Z</time>
      </trkpt>
      <trkpt lat="42.97441" lon="-0.31829">
        <ele>1504</ele>
        <time>2022-08-27T23:59:17.000Z</time>
      </trkpt>
      <trkpt lat="42.97462" lon="-0.31807">
        <ele>1515</ele>
        <time>2022-08-27T23:59:22.000Z</time>
      </trkpt>
      <trkpt lat="42.97507" lon="-0.31784">
        <ele>1517</ele>
        <time>2022-08-27T23:59:30.000Z</time>
      </trkpt>
      <trkpt lat="42.9753" lon="-0.31766">
        <ele>1516</ele>
        <time>2022-08-27T23:59:35.000Z</time>
      </trkpt>
      <trkpt lat="42.97551" lon="-0.31734">
        <ele>1514</ele>
        <time>2022-08-27T23:59:41.000Z</time>
      </trkpt>
      <trkpt lat="42.97565" lon="-0.31688">
        <ele>1509</ele>
        <time>2022-08-27T23:59:47.000Z</time>
      </trkpt>
      <trkpt lat="42.97562" lon="-0.31559">
        <ele>1509</ele>
        <time>2022-08-28T00:00:04.000Z</time>
      </trkpt>
      <trkpt lat="42.97562" lon="-0.31503">
        <ele>1506</ele>
        <time>2022-08-28T00:00:11.000Z</time>
      </trkpt>
      <trkpt lat="42.97553" lon="-0.31465">
        <ele>1512</ele>
        <time>2022-08-28T00:00:17.000Z</time>
      </trkpt>
      <trkpt lat="42.97553" lon="-0.31458">
        <ele>1512</ele>
        <time>2022-08-28T00:00:18.000Z</time>
      </trkpt>
      <trkpt lat="42.97569" lon="-0.314">
        <ele>1495</ele>
        <time>2022-08-28T00:00:26.000Z</time>
      </trkpt>
      <trkpt lat="42.97571" lon="-0.31349">
        <ele>1493</ele>
        <time>2022-08-28T00:00:32.000Z</time>
      </trkpt>
      <trkpt lat="42.97561" lon="-0.31314">
        <ele>1500</ele>
        <time>2022-08-28T00:00:37.000Z</time>
      </trkpt>
      <trkpt lat="42.97559" lon="-0.31286">
        <ele>1501</ele>
        <time>2022-08-28T00:00:41.000Z</time>
      </trkpt>
      <trkpt lat="42.97577" lon="-0.3124">
        <ele>1490</ele>
        <time>2022-08-28T00:00:48.000Z</time>
      </trkpt>
      <trkpt lat="42.97587" lon="-0.31211">
        <ele>1485</ele>
        <time>2022-08-28T00:00:52.000Z</time>
      </trkpt>
      <trkpt lat="42.97611" lon="-0.31106">
        <ele>1474</ele>
        <time>2022-08-28T00:01:06.000Z</time>
      </trkpt>
      <trkpt lat="42.97615" lon="-0.31054">
        <ele>1466</ele>
        <time>2022-08-28T00:01:13.000Z</time>
      </trkpt>
      <trkpt lat="42.97613" lon="-0.31041">
        <ele>1465</ele>
        <time>2022-08-28T00:01:15.000Z</time>
      </trkpt>
      <trkpt lat="42.97609" lon="-0.31034">
        <ele>1465</ele>
        <time>2022-08-28T00:01:16.000Z</time>
      </trkpt>
      <trkpt lat="42.97553" lon="-0.30966">
        <ele>1473</ele>
        <time>2022-08-28T00:01:29.000Z</time>
      </trkpt>
      <trkpt lat="42.97529" lon="-0.30921">
        <ele>1465</ele>
        <time>2022-08-28T00:01:37.000Z</time>
      </trkpt>
      <trkpt lat="42.97478" lon="-0.30865">
        <ele>1469</ele>
        <time>2022-08-28T00:01:48.000Z</time>
      </trkpt>
      <trkpt lat="42.97449" lon="-0.30807">
        <ele>1466</ele>
        <time>2022-08-28T00:01:57.000Z</time>
      </trkpt>
      <trkpt lat="42.97445" lon="-0.30789">
        <ele>1465</ele>
        <time>2022-08-28T00:02:00.000Z</time>
      </trkpt>
      <trkpt lat="42.97446" lon="-0.30776">
        <ele>1462</ele>
        <time>2022-08-28T00:02:02.000Z</time>
      </trkpt>
      <trkpt lat="42.97461" lon="-0.30739">
        <ele>1452</ele>
        <time>2022-08-28T00:02:07.000Z</time>
      </trkpt>
      <trkpt lat="42.9748" lon="-0.30594">
        <ele>1445</ele>
        <time>2022-08-28T00:02:26.000Z</time>
      </trkpt>
      <trkpt lat="42.97474" lon="-0.30565">
        <ele>1442</ele>
        <time>2022-08-28T00:02:30.000Z</time>
      </trkpt>
      <trkpt lat="42.9746" lon="-0.30547">
        <ele>1442</ele>
        <time>2022-08-28T00:02:34.000Z</time>
      </trkpt>
      <trkpt lat="42.9742" lon="-0.30517">
        <ele>1446</ele>
        <time>2022-08-28T00:02:42.000Z</time>
      </trkpt>
      <trkpt lat="42.97392" lon="-0.30474">
        <ele>1438</ele>
        <time>2022-08-28T00:02:49.000Z</time>
      </trkpt>
      <trkpt lat="42.97381" lon="-0.30464">
        <ele>1436</ele>
        <time>2022-08-28T00:02:52.000Z</time>
      </trkpt>
      <trkpt lat="42.97348" lon="-0.30463">
        <ele>1443</ele>
        <time>2022-08-28T00:02:57.000Z</time>
      </trkpt>
      <trkpt lat="42.97317" lon="-0.30442">
        <ele>1440</ele>
        <time>2022-08-28T00:03:04.000Z</time>
      </trkpt>
      <trkpt lat="42.97282" lon="-0.30445">
        <ele>1449</ele>
        <time>2022-08-28T00:03:10.000Z</time>
      </trkpt>
      <trkpt lat="42.97265" lon="-0.30432">
        <ele>1446</ele>
        <time>2022-08-28T00:03:13.000Z</time>
      </trkpt>
      <trkpt lat="42.97149" lon="-0.30237">
        <ele>1435</ele>
        <time>2022-08-28T00:03:46.000Z</time>
      </trkpt>
      <trkpt lat="42.97126" lon="-0.30203">
        <ele>1432</ele>
        <time>2022-08-28T00:03:52.000Z</time>
      </trkpt>
      <trkpt lat="42.97038" lon="-0.30124">
        <ele>1433</ele>
        <time>2022-08-28T00:04:11.000Z</time>
      </trkpt>
      <trkpt lat="42.97025" lon="-0.30107">
        <ele>1431</ele>
        <time>2022-08-28T00:04:14.000Z</time>
      </trkpt>
      <trkpt lat="42.97004" lon="-0.30049">
        <ele>1418</ele>
        <time>2022-08-28T00:04:23.000Z</time>
      </trkpt>
      <trkpt lat="42.96996" lon="-0.30046">
        <ele>1418</ele>
        <time>2022-08-28T00:04:24.000Z</time>
      </trkpt>
      <trkpt lat="42.96866" lon="-0.30149">
        <ele>1427</ele>
        <time>2022-08-28T00:04:51.000Z</time>
      </trkpt>
      <trkpt lat="42.96836" lon="-0.30196">
        <ele>1433</ele>
        <time>2022-08-28T00:04:59.000Z</time>
      </trkpt>
      <trkpt lat="42.96823" lon="-0.30202">
        <ele>1432</ele>
        <time>2022-08-28T00:05:02.000Z</time>
      </trkpt>
      <trkpt lat="42.96792" lon="-0.30195">
        <ele>1419</ele>
        <time>2022-08-28T00:05:07.000Z</time>
      </trkpt>
      <trkpt lat="42.96778" lon="-0.30198">
        <ele>1416</ele>
        <time>2022-08-28T00:05:10.000Z</time>
      </trkpt>
      <trkpt lat="42.96713" lon="-0.30258">
        <ele>1427</ele>
        <time>2022-08-28T00:05:24.000Z</time>
      </trkpt>
      <trkpt lat="42.96692" lon="-0.30272">
        <ele>1428</ele>
        <time>2022-08-28T00:05:28.000Z</time>
      </trkpt>
      <trkpt lat="42.96665" lon="-0.30274">
        <ele>1424</ele>
        <time>2022-08-28T00:05:33.000Z</time>
      </trkpt>
      <trkpt lat="42.96647" lon="-0.30263">
        <ele>1420</ele>
        <time>2022-08-28T00:05:36.000Z</time>
      </trkpt>
      <trkpt lat="42.96607" lon="-0.30188">
        <ele>1401</ele>
        <time>2022-08-28T00:05:48.000Z</time>
      </trkpt>
      <trkpt lat="42.96597" lon="-0.30184">
        <ele>1401</ele>
        <time>2022-08-28T00:05:50.000Z</time>
      </trkpt>
      <trkpt lat="42.96584" lon="-0.30185">
        <ele>1402</ele>
        <time>2022-08-28T00:05:52.000Z</time>
      </trkpt>
      <trkpt lat="42.96524" lon="-0.30225">
        <ele>1396</ele>
        <time>2022-08-28T00:06:04.000Z</time>
      </trkpt>
      <trkpt lat="42.96476" lon="-0.30263">
        <ele>1392</ele>
        <time>2022-08-28T00:06:14.000Z</time>
      </trkpt>
      <trkpt lat="42.9643" lon="-0.30312">
        <ele>1391</ele>
        <time>2022-08-28T00:06:25.000Z</time>
      </trkpt>
      <trkpt lat="42.96424" lon="-0.30319">
        <ele>1391</ele>
        <time>2022-08-28T00:06:26.000Z</time>
      </trkpt>
      <trkpt lat="42.96382" lon="-0.30331">
        <ele>1412</ele>
        <time>2022-08-28T00:06:34.000Z</time>
      </trkpt>
      <trkpt lat="42.96376" lon="-0.30329">
        <ele>1415</ele>
        <time>2022-08-28T00:06:35.000Z</time>
      </trkpt>
      <trkpt lat="42.96293" lon="-0.30056">
        <ele>1385</ele>
        <time>2022-08-28T00:07:14.000Z</time>
      </trkpt>
      <trkpt lat="42.96276" lon="-0.30019">
        <ele>1388</ele>
        <time>2022-08-28T00:07:19.000Z</time>
      </trkpt>
      <trkpt lat="42.96269" lon="-0.29976">
        <ele>1378</ele>
        <time>2022-08-28T00:07:25.000Z</time>
      </trkpt>
      <trkpt lat="42.96259" lon="-0.29943">
        <ele>1374</ele>
        <time>2022-08-28T00:07:30.000Z</time>
      </trkpt>
      <trkpt lat="42.96215" lon="-0.29874">
        <ele>1376</ele>
        <time>2022-08-28T00:07:42.000Z</time>
      </trkpt>
      <trkpt lat="42.96174" lon="-0.29794">
        <ele>1359</ele>
        <time>2022-08-28T00:07:54.000Z</time>
      </trkpt>
      <trkpt lat="42.96136" lon="-0.29772">
        <ele>1374</ele>
        <time>2022-08-28T00:08:02.000Z</time>
      </trkpt>
      <trkpt lat="42.96099" lon="-0.29737">
        <ele>1381</ele>
        <time>2022-08-28T00:08:10.000Z</time>
      </trkpt>
      <trkpt lat="42.96044" lon="-0.29613">
        <ele>1361</ele>
        <time>2022-08-28T00:08:29.000Z</time>
      </trkpt>
      <trkpt lat="42.96037" lon="-0.29602">
        <ele>1361</ele>
        <time>2022-08-28T00:08:31.000Z</time>
      </trkpt>
      <trkpt lat="42.96019" lon="-0.2958">
        <ele>1365</ele>
        <time>2022-08-28T00:08:35.000Z</time>
      </trkpt>
      <trkpt lat="42.95973" lon="-0.29557">
        <ele>1395</ele>
        <time>2022-08-28T00:08:44.000Z</time>
      </trkpt>
      <trkpt lat="42.95953" lon="-0.29529">
        <ele>1397</ele>
        <time>2022-08-28T00:08:49.000Z</time>
      </trkpt>
      <trkpt lat="42.95938" lon="-0.29455">
        <ele>1370</ele>
        <time>2022-08-28T00:08:59.000Z</time>
      </trkpt>
      <trkpt lat="42.95935" lon="-0.29446">
        <ele>1367</ele>
        <time>2022-08-28T00:09:00.000Z</time>
      </trkpt>
      <trkpt lat="42.9592" lon="-0.2942">
        <ele>1363</ele>
        <time>2022-08-28T00:09:04.000Z</time>
      </trkpt>
      <trkpt lat="42.95884" lon="-0.29377">
        <ele>1366</ele>
        <time>2022-08-28T00:09:13.000Z</time>
      </trkpt>
      <trkpt lat="42.95857" lon="-0.29324">
        <ele>1365</ele>
        <time>2022-08-28T00:09:21.000Z</time>
      </trkpt>
      <trkpt lat="42.95833" lon="-0.29299">
        <ele>1378</ele>
        <time>2022-08-28T00:09:27.000Z</time>
      </trkpt>
      <trkpt lat="42.95833" lon="-0.29244">
        <ele>1367</ele>
        <time>2022-08-28T00:09:34.000Z</time>
      </trkpt>
      <trkpt lat="42.95832" lon="-0.29227">
        <ele>1363</ele>
        <time>2022-08-28T00:09:36.000Z</time>
      </trkpt>
      <trkpt lat="42.95823" lon="-0.292">
        <ele>1363</ele>
        <time>2022-08-28T00:09:40.000Z</time>
      </trkpt>
      <trkpt lat="42.95807" lon="-0.29172">
        <ele>1370</ele>
        <time>2022-08-28T00:09:45.000Z</time>
      </trkpt>
      <trkpt lat="42.95808" lon="-0.29122">
        <ele>1340</ele>
        <time>2022-08-28T00:09:51.000Z</time>
      </trkpt>
      <trkpt lat="42.95803" lon="-0.2911">
        <ele>1338</ele>
        <time>2022-08-28T00:09:53.000Z</time>
      </trkpt>
      <trkpt lat="42.95763" lon="-0.29089">
        <ele>1366</ele>
        <time>2022-08-28T00:10:01.000Z</time>
      </trkpt>
      <trkpt lat="42.95742" lon="-0.29058">
        <ele>1362</ele>
        <time>2022-08-28T00:10:07.000Z</time>
      </trkpt>
      <trkpt lat="42.95688" lon="-0.29066">
        <ele>1424</ele>
        <time>2022-08-28T00:10:16.000Z</time>
      </trkpt>
      <trkpt lat="42.95623" lon="-0.29072">
        <ele>1479</ele>
        <time>2022-08-28T00:10:28.000Z</time>
      </trkpt>
      <trkpt lat="42.95604" lon="-0.29067">
        <ele>1489</ele>
        <time>2022-08-28T00:10:31.000Z</time>
      </trkpt>
      <trkpt lat="42.95581" lon="-0.29054">
        <ele>1492</ele>
        <time>2022-08-28T00:10:36.000Z</time>
      </trkpt>
      <trkpt lat="42.95561" lon="-0.29029">
        <ele>1473</ele>
        <time>2022-08-28T00:10:41.000Z</time>
      </trkpt>
      <trkpt lat="42.95506" lon="-0.28971">
        <ele>1424</ele>
        <time>2022-08-28T00:10:53.000Z</time>
      </trkpt>
      <trkpt lat="42.95499" lon="-0.28933">
        <ele>1378</ele>
        <time>2022-08-28T00:10:58.000Z</time>
      </trkpt>
      <trkpt lat="42.95495" lon="-0.28922">
        <ele>1366</ele>
        <time>2022-08-28T00:11:00.000Z</time>
      </trkpt>
      <trkpt lat="42.95454" lon="-0.28875">
        <ele>1375</ele>
        <time>2022-08-28T00:11:09.000Z</time>
      </trkpt>
      <trkpt lat="42.95444" lon="-0.2886">
        <ele>1377</ele>
        <time>2022-08-28T00:11:12.000Z</time>
      </trkpt>
      <trkpt lat="42.95434" lon="-0.28808">
        <ele>1368</ele>
        <time>2022-08-28T00:11:19.000Z</time>
      </trkpt>
      <trkpt lat="42.95429" lon="-0.28785">
        <ele>1366</ele>
        <time>2022-08-28T00:11:22.000Z</time>
      </trkpt>
      <trkpt lat="42.95395" lon="-0.28694">
        <ele>1377</ele>
        <time>2022-08-28T00:11:35.000Z</time>
      </trkpt>
      <trkpt lat="42.95392" lon="-0.28679">
        <ele>1377</ele>
        <time>2022-08-28T00:11:37.000Z</time>
      </trkpt>
      <trkpt lat="42.955" lon="-0.28443">
        <ele>1357</ele>
        <time>2022-08-28T00:12:14.000Z</time>
      </trkpt>
      <trkpt lat="42.95507" lon="-0.28404">
        <ele>1355</ele>
        <time>2022-08-28T00:12:19.000Z</time>
      </trkpt>
      <trkpt lat="42.95493" lon="-0.28347">
        <ele>1362</ele>
        <time>2022-08-28T00:12:27.000Z</time>
      </trkpt>
      <trkpt lat="42.95492" lon="-0.28339">
        <ele>1362</ele>
        <time>2022-08-28T00:12:28.000Z</time>
      </trkpt>
      <trkpt lat="42.95498" lon="-0.28287">
        <ele>1362</ele>
        <time>2022-08-28T00:12:35.000Z</time>
      </trkpt>
      <trkpt lat="42.95504" lon="-0.28167">
        <ele>1365</ele>
        <time>2022-08-28T00:12:51.000Z</time>
      </trkpt>
      <trkpt lat="42.95491" lon="-0.28122">
        <ele>1384</ele>
        <time>2022-08-28T00:12:57.000Z</time>
      </trkpt>
      <trkpt lat="42.95489" lon="-0.28105">
        <ele>1388</ele>
        <time>2022-08-28T00:12:59.000Z</time>
      </trkpt>
      <trkpt lat="42.95518" lon="-0.28035">
        <ele>1382</ele>
        <time>2022-08-28T00:13:10.000Z</time>
      </trkpt>
      <trkpt lat="42.95533" lon="-0.27947">
        <ele>1389</ele>
        <time>2022-08-28T00:13:22.000Z</time>
      </trkpt>
      <trkpt lat="42.95543" lon="-0.27817">
        <ele>1393</ele>
        <time>2022-08-28T00:13:39.000Z</time>
      </trkpt>
      <trkpt lat="42.95543" lon="-0.27802">
        <ele>1394</ele>
        <time>2022-08-28T00:13:41.000Z</time>
      </trkpt>
      <trkpt lat="42.95532" lon="-0.27735">
        <ele>1402</ele>
        <time>2022-08-28T00:13:50.000Z</time>
      </trkpt>
      <trkpt lat="42.95534" lon="-0.27727">
        <ele>1403</ele>
        <time>2022-08-28T00:13:51.000Z</time>
      </trkpt>
      <trkpt lat="42.95596" lon="-0.27656">
        <ele>1404</ele>
        <time>2022-08-28T00:14:05.000Z</time>
      </trkpt>
      <trkpt lat="42.95646" lon="-0.2762">
        <ele>1412</ele>
        <time>2022-08-28T00:14:15.000Z</time>
      </trkpt>
      <trkpt lat="42.9571" lon="-0.27631">
        <ele>1414</ele>
        <time>2022-08-28T00:14:27.000Z</time>
      </trkpt>
      <trkpt lat="42.9573" lon="-0.27635">
        <ele>1416</ele>
        <time>2022-08-28T00:14:30.000Z</time>
      </trkpt>
      <trkpt lat="42.95763" lon="-0.27658">
        <ele>1406</ele>
        <time>2022-08-28T00:14:37.000Z</time>
      </trkpt>
      <trkpt lat="42.95772" lon="-0.27661">
        <ele>1403</ele>
        <time>2022-08-28T00:14:39.000Z</time>
      </trkpt>
      <trkpt lat="42.95781" lon="-0.27656">
        <ele>1402</ele>
        <time>2022-08-28T00:14:40.000Z</time>
      </trkpt>
      <trkpt lat="42.95787" lon="-0.27645">
        <ele>1404</ele>
        <time>2022-08-28T00:14:42.000Z</time>
      </trkpt>
      <trkpt lat="42.95812" lon="-0.27552">
        <ele>1427</ele>
        <time>2022-08-28T00:14:55.000Z</time>
      </trkpt>
      <trkpt lat="42.95819" lon="-0.27506">
        <ele>1438</ele>
        <time>2022-08-28T00:15:01.000Z</time>
      </trkpt>
      <trkpt lat="42.95844" lon="-0.27448">
        <ele>1433</ele>
        <time>2022-08-28T00:15:10.000Z</time>
      </trkpt>
      <trkpt lat="42.95845" lon="-0.2744">
        <ele>1433</ele>
        <time>2022-08-28T00:15:11.000Z</time>
      </trkpt>
      <trkpt lat="42.9581" lon="-0.27333">
        <ele>1445</ele>
        <time>2022-08-28T00:15:26.000Z</time>
      </trkpt>
      <trkpt lat="42.95805" lon="-0.27287">
        <ele>1448</ele>
        <time>2022-08-28T00:15:32.000Z</time>
      </trkpt>
      <trkpt lat="42.95812" lon="-0.27246">
        <ele>1445</ele>
        <time>2022-08-28T00:15:38.000Z</time>
      </trkpt>
      <trkpt lat="42.95834" lon="-0.27173">
        <ele>1441</ele>
        <time>2022-08-28T00:15:48.000Z</time>
      </trkpt>
      <trkpt lat="42.95827" lon="-0.27077">
        <ele>1446</ele>
        <time>2022-08-28T00:16:01.000Z</time>
      </trkpt>
      <trkpt lat="42.95829" lon="-0.2706">
        <ele>1446</ele>
        <time>2022-08-28T00:16:03.000Z</time>
      </trkpt>
      <trkpt lat="42.95838" lon="-0.27039">
        <ele>1445</ele>
        <time>2022-08-28T00:16:06.000Z</time>
      </trkpt>
      <trkpt lat="42.95858" lon="-0.2701">
        <ele>1441</ele>
        <time>2022-08-28T00:16:11.000Z</time>
      </trkpt>
      <trkpt lat="42.95878" lon="-0.26941">
        <ele>1445</ele>
        <time>2022-08-28T00:16:21.000Z</time>
      </trkpt>
      <trkpt lat="42.95886" lon="-0.26924">
        <ele>1446</ele>
        <time>2022-08-28T00:16:24.000Z</time>
      </trkpt>
      <trkpt lat="42.95911" lon="-0.26891">
        <ele>1443</ele>
        <time>2022-08-28T00:16:30.000Z</time>
      </trkpt>
      <trkpt lat="42.95932" lon="-0.26851">
        <ele>1445</ele>
        <time>2022-08-28T00:16:36.000Z</time>
      </trkpt>
      <trkpt lat="42.95982" lon="-0.2656">
        <ele>1450</ele>
        <time>2022-08-28T00:17:15.000Z</time>
      </trkpt>
      <trkpt lat="42.95991" lon="-0.26498">
        <ele>1454</ele>
        <time>2022-08-28T00:17:24.000Z</time>
      </trkpt>
      <trkpt lat="42.96039" lon="-0.2638">
        <ele>1462</ele>
        <time>2022-08-28T00:17:41.000Z</time>
      </trkpt>
      <trkpt lat="42.96046" lon="-0.26342">
        <ele>1465</ele>
        <time>2022-08-28T00:17:46.000Z</time>
      </trkpt>
      <trkpt lat="42.96055" lon="-0.26282">
        <ele>1468</ele>
        <time>2022-08-28T00:17:54.000Z</time>
      </trkpt>
      <trkpt lat="42.96065" lon="-0.26159">
        <ele>1471</ele>
        <time>2022-08-28T00:18:10.000Z</time>
      </trkpt>
      <trkpt lat="42.9606" lon="-0.26078">
        <ele>1470</ele>
        <time>2022-08-28T00:18:21.000Z</time>
      </trkpt>
      <trkpt lat="42.96061" lon="-0.26027">
        <ele>1466</ele>
        <time>2022-08-28T00:18:28.000Z</time>
      </trkpt>
      <trkpt lat="42.96034" lon="-0.2596">
        <ele>1455</ele>
        <time>2022-08-28T00:18:38.000Z</time>
      </trkpt>
      <trkpt lat="42.96034" lon="-0.2593">
        <ele>1453</ele>
        <time>2022-08-28T00:18:42.000Z</time>
      </trkpt>
      <trkpt lat="42.96056" lon="-0.25861">
        <ele>1449</ele>
        <time>2022-08-28T00:18:52.000Z</time>
      </trkpt>
      <trkpt lat="42.96078" lon="-0.25764">
        <ele>1445</ele>
        <time>2022-08-28T00:19:05.000Z</time>
      </trkpt>
      <trkpt lat="42.96082" lon="-0.25711">
        <ele>1443</ele>
        <time>2022-08-28T00:19:12.000Z</time>
      </trkpt>
      <trkpt lat="42.96081" lon="-0.25643">
        <ele>1439</ele>
        <time>2022-08-28T00:19:21.000Z</time>
      </trkpt>
      <trkpt lat="42.96071" lon="-0.25614">
        <ele>1434</ele>
        <time>2022-08-28T00:19:25.000Z</time>
      </trkpt>
      <trkpt lat="42.96037" lon="-0.25584">
        <ele>1425</ele>
        <time>2022-08-28T00:19:32.000Z</time>
      </trkpt>
      <trkpt lat="42.96027" lon="-0.25553">
        <ele>1423</ele>
        <time>2022-08-28T00:19:36.000Z</time>
      </trkpt>
      <trkpt lat="42.96025" lon="-0.2553">
        <ele>1422</ele>
        <time>2022-08-28T00:19:39.000Z</time>
      </trkpt>
      <trkpt lat="42.96034" lon="-0.25474">
        <ele>1421</ele>
        <time>2022-08-28T00:19:47.000Z</time>
      </trkpt>
      <trkpt lat="42.96045" lon="-0.25453">
        <ele>1420</ele>
        <time>2022-08-28T00:19:50.000Z</time>
      </trkpt>
      <trkpt lat="42.96075" lon="-0.25416">
        <ele>1420</ele>
        <time>2022-08-28T00:19:57.000Z</time>
      </trkpt>
      <trkpt lat="42.9611" lon="-0.25393">
        <ele>1420</ele>
        <time>2022-08-28T00:20:04.000Z</time>
      </trkpt>
      <trkpt lat="42.96115" lon="-0.25383">
        <ele>1419</ele>
        <time>2022-08-28T00:20:06.000Z</time>
      </trkpt>
      <trkpt lat="42.96115" lon="-0.25293">
        <ele>1406</ele>
        <time>2022-08-28T00:20:18.000Z</time>
      </trkpt>
      <trkpt lat="42.96124" lon="-0.25255">
        <ele>1405</ele>
        <time>2022-08-28T00:20:23.000Z</time>
      </trkpt>
      <trkpt lat="42.96125" lon="-0.25235">
        <ele>1405</ele>
        <time>2022-08-28T00:20:25.000Z</time>
      </trkpt>
      <trkpt lat="42.96097" lon="-0.25188">
        <ele>1397</ele>
        <time>2022-08-28T00:20:33.000Z</time>
      </trkpt>
      <trkpt lat="42.96094" lon="-0.25173">
        <ele>1396</ele>
        <time>2022-08-28T00:20:36.000Z</time>
      </trkpt>
      <trkpt lat="42.96117" lon="-0.25077">
        <ele>1398</ele>
        <time>2022-08-28T00:20:49.000Z</time>
      </trkpt>
      <trkpt lat="42.96112" lon="-0.25057">
        <ele>1396</ele>
        <time>2022-08-28T00:20:52.000Z</time>
      </trkpt>
      <trkpt lat="42.96099" lon="-0.25041">
        <ele>1392</ele>
        <time>2022-08-28T00:20:55.000Z</time>
      </trkpt>
      <trkpt lat="42.96092" lon="-0.25038">
        <ele>1391</ele>
        <time>2022-08-28T00:20:56.000Z</time>
      </trkpt>
      <trkpt lat="42.96041" lon="-0.25032">
        <ele>1378</ele>
        <time>2022-08-28T00:21:05.000Z</time>
      </trkpt>
      <trkpt lat="42.96029" lon="-0.25028">
        <ele>1375</ele>
        <time>2022-08-28T00:21:07.000Z</time>
      </trkpt>
      <trkpt lat="42.96021" lon="-0.2502">
        <ele>1373</ele>
        <time>2022-08-28T00:21:09.000Z</time>
      </trkpt>
      <trkpt lat="42.96014" lon="-0.25009">
        <ele>1371</ele>
        <time>2022-08-28T00:21:11.000Z</time>
      </trkpt>
      <trkpt lat="42.96004" lon="-0.24961">
        <ele>1367</ele>
        <time>2022-08-28T00:21:17.000Z</time>
      </trkpt>
      <trkpt lat="42.96008" lon="-0.24932">
        <ele>1368</ele>
        <time>2022-08-28T00:21:21.000Z</time>
      </trkpt>
      <trkpt lat="42.96029" lon="-0.24865">
        <ele>1364</ele>
        <time>2022-08-28T00:21:31.000Z</time>
      </trkpt>
      <trkpt lat="42.96061" lon="-0.24819">
        <ele>1366</ele>
        <time>2022-08-28T00:21:39.000Z</time>
      </trkpt>
      <trkpt lat="42.96081" lon="-0.24772">
        <ele>1362</ele>
        <time>2022-08-28T00:21:46.000Z</time>
      </trkpt>
      <trkpt lat="42.96091" lon="-0.2472">
        <ele>1356</ele>
        <time>2022-08-28T00:21:53.000Z</time>
      </trkpt>
      <trkpt lat="42.96126" lon="-0.24604">
        <ele>1345</ele>
        <time>2022-08-28T00:22:10.000Z</time>
      </trkpt>
      <trkpt lat="42.96232" lon="-0.24496">
        <ele>1341</ele>
        <time>2022-08-28T00:22:33.000Z</time>
      </trkpt>
      <trkpt lat="42.96251" lon="-0.24474">
        <ele>1339</ele>
        <time>2022-08-28T00:22:38.000Z</time>
      </trkpt>
      <trkpt lat="42.96263" lon="-0.24452">
        <ele>1335</ele>
        <time>2022-08-28T00:22:41.000Z</time>
      </trkpt>
      <trkpt lat="42.96298" lon="-0.24363">
        <ele>1321</ele>
        <time>2022-08-28T00:22:54.000Z</time>
      </trkpt>
      <trkpt lat="42.96332" lon="-0.24311">
        <ele>1320</ele>
        <time>2022-08-28T00:23:03.000Z</time>
      </trkpt>
      <trkpt lat="42.96348" lon="-0.24283">
        <ele>1319</ele>
        <time>2022-08-28T00:23:08.000Z</time>
      </trkpt>
      <trkpt lat="42.96347" lon="-0.24259">
        <ele>1316</ele>
        <time>2022-08-28T00:23:11.000Z</time>
      </trkpt>
      <trkpt lat="42.96335" lon="-0.24243">
        <ele>1313</ele>
        <time>2022-08-28T00:23:14.000Z</time>
      </trkpt>
      <trkpt lat="42.96292" lon="-0.2423">
        <ele>1304</ele>
        <time>2022-08-28T00:23:22.000Z</time>
      </trkpt>
      <trkpt lat="42.96284" lon="-0.2422">
        <ele>1302</ele>
        <time>2022-08-28T00:23:24.000Z</time>
      </trkpt>
      <trkpt lat="42.96271" lon="-0.2417">
        <ele>1297</ele>
        <time>2022-08-28T00:23:31.000Z</time>
      </trkpt>
      <trkpt lat="42.96276" lon="-0.24148">
        <ele>1295</ele>
        <time>2022-08-28T00:23:34.000Z</time>
      </trkpt>
      <trkpt lat="42.96286" lon="-0.2413">
        <ele>1293</ele>
        <time>2022-08-28T00:23:37.000Z</time>
      </trkpt>
      <trkpt lat="42.96306" lon="-0.24112">
        <ele>1291</ele>
        <time>2022-08-28T00:23:41.000Z</time>
      </trkpt>
      <trkpt lat="42.96366" lon="-0.24102">
        <ele>1294</ele>
        <time>2022-08-28T00:23:52.000Z</time>
      </trkpt>
      <trkpt lat="42.9637" lon="-0.24099">
        <ele>1294</ele>
        <time>2022-08-28T00:23:53.000Z</time>
      </trkpt>
      <trkpt lat="42.96414" lon="-0.24027">
        <ele>1289</ele>
        <time>2022-08-28T00:24:05.000Z</time>
      </trkpt>
      <trkpt lat="42.96417" lon="-0.24016">
        <ele>1289</ele>
        <time>2022-08-28T00:24:07.000Z</time>
      </trkpt>
      <trkpt lat="42.96416" lon="-0.23991">
        <ele>1286</ele>
        <time>2022-08-28T00:24:10.000Z</time>
      </trkpt>
      <trkpt lat="42.964" lon="-0.23958">
        <ele>1281</ele>
        <time>2022-08-28T00:24:15.000Z</time>
      </trkpt>
      <trkpt lat="42.9639" lon="-0.23912">
        <ele>1275</ele>
        <time>2022-08-28T00:24:21.000Z</time>
      </trkpt>
      <trkpt lat="42.96402" lon="-0.23865">
        <ele>1276</ele>
        <time>2022-08-28T00:24:28.000Z</time>
      </trkpt>
      <trkpt lat="42.96402" lon="-0.23837">
        <ele>1275</ele>
        <time>2022-08-28T00:24:31.000Z</time>
      </trkpt>
      <trkpt lat="42.96349" lon="-0.23678">
        <ele>1260</ele>
        <time>2022-08-28T00:24:54.000Z</time>
      </trkpt>
      <trkpt lat="42.96319" lon="-0.23624">
        <ele>1251</ele>
        <time>2022-08-28T00:25:03.000Z</time>
      </trkpt>
      <trkpt lat="42.96234" lon="-0.23339">
        <ele>1228</ele>
        <time>2022-08-28T00:25:43.000Z</time>
      </trkpt>
      <trkpt lat="42.96237" lon="-0.233">
        <ele>1226</ele>
        <time>2022-08-28T00:25:48.000Z</time>
      </trkpt>
      <trkpt lat="42.96273" lon="-0.23172">
        <ele>1217</ele>
        <time>2022-08-28T00:26:06.000Z</time>
      </trkpt>
      <trkpt lat="42.96285" lon="-0.23153">
        <ele>1215</ele>
        <time>2022-08-28T00:26:09.000Z</time>
      </trkpt>
      <trkpt lat="42.96339" lon="-0.23099">
        <ele>1211</ele>
        <time>2022-08-28T00:26:21.000Z</time>
      </trkpt>
      <trkpt lat="42.96351" lon="-0.2309">
        <ele>1210</ele>
        <time>2022-08-28T00:26:24.000Z</time>
      </trkpt>
      <trkpt lat="42.96366" lon="-0.23087">
        <ele>1210</ele>
        <time>2022-08-28T00:26:27.000Z</time>
      </trkpt>
      <trkpt lat="42.96398" lon="-0.2309">
        <ele>1211</ele>
        <time>2022-08-28T00:26:32.000Z</time>
      </trkpt>
      <trkpt lat="42.96412" lon="-0.23082">
        <ele>1210</ele>
        <time>2022-08-28T00:26:35.000Z</time>
      </trkpt>
      <trkpt lat="42.96417" lon="-0.23074">
        <ele>1209</ele>
        <time>2022-08-28T00:26:36.000Z</time>
      </trkpt>
      <trkpt lat="42.96421" lon="-0.23064">
        <ele>1208</ele>
        <time>2022-08-28T00:26:38.000Z</time>
      </trkpt>
      <trkpt lat="42.96431" lon="-0.23006">
        <ele>1201</ele>
        <time>2022-08-28T00:26:46.000Z</time>
      </trkpt>
      <trkpt lat="42.96473" lon="-0.22958">
        <ele>1198</ele>
        <time>2022-08-28T00:26:55.000Z</time>
      </trkpt>
      <trkpt lat="42.96499" lon="-0.22927">
        <ele>1196</ele>
        <time>2022-08-28T00:27:02.000Z</time>
      </trkpt>
      <trkpt lat="42.9654" lon="-0.22796">
        <ele>1176</ele>
        <time>2022-08-28T00:27:20.000Z</time>
      </trkpt>
      <trkpt lat="42.96553" lon="-0.22767">
        <ele>1173</ele>
        <time>2022-08-28T00:27:25.000Z</time>
      </trkpt>
      <trkpt lat="42.96578" lon="-0.22754">
        <ele>1175</ele>
        <time>2022-08-28T00:27:29.000Z</time>
      </trkpt>
      <trkpt lat="42.96593" lon="-0.22755">
        <ele>1175</ele>
        <time>2022-08-28T00:27:32.000Z</time>
      </trkpt>
      <trkpt lat="42.96648" lon="-0.22795">
        <ele>1177</ele>
        <time>2022-08-28T00:27:43.000Z</time>
      </trkpt>
      <trkpt lat="42.9666" lon="-0.22795">
        <ele>1177</ele>
        <time>2022-08-28T00:27:45.000Z</time>
      </trkpt>
      <trkpt lat="42.967" lon="-0.22763">
        <ele>1173</ele>
        <time>2022-08-28T00:27:54.000Z</time>
      </trkpt>
      <trkpt lat="42.96712" lon="-0.22748">
        <ele>1171</ele>
        <time>2022-08-28T00:27:57.000Z</time>
      </trkpt>
      <trkpt lat="42.9672" lon="-0.22729">
        <ele>1170</ele>
        <time>2022-08-28T00:27:59.000Z</time>
      </trkpt>
      <trkpt lat="42.96709" lon="-0.22644">
        <ele>1163</ele>
        <time>2022-08-28T00:28:11.000Z</time>
      </trkpt>
      <trkpt lat="42.96732" lon="-0.22508">
        <ele>1150</ele>
        <time>2022-08-28T00:28:29.000Z</time>
      </trkpt>
      <trkpt lat="42.9673" lon="-0.22487">
        <ele>1149</ele>
        <time>2022-08-28T00:28:32.000Z</time>
      </trkpt>
      <trkpt lat="42.96725" lon="-0.22471">
        <ele>1148</ele>
        <time>2022-08-28T00:28:34.000Z</time>
      </trkpt>
      <trkpt lat="42.96678" lon="-0.22408">
        <ele>1145</ele>
        <time>2022-08-28T00:28:46.000Z</time>
      </trkpt>
      <trkpt lat="42.96666" lon="-0.22398">
        <ele>1145</ele>
        <time>2022-08-28T00:28:48.000Z</time>
      </trkpt>
      <trkpt lat="42.96646" lon="-0.22391">
        <ele>1145</ele>
        <time>2022-08-28T00:28:52.000Z</time>
      </trkpt>
      <trkpt lat="42.96629" lon="-0.2239">
        <ele>1145</ele>
        <time>2022-08-28T00:28:55.000Z</time>
      </trkpt>
      <trkpt lat="42.96582" lon="-0.22405">
        <ele>1143</ele>
        <time>2022-08-28T00:29:03.000Z</time>
      </trkpt>
      <trkpt lat="42.96554" lon="-0.22406">
        <ele>1139</ele>
        <time>2022-08-28T00:29:08.000Z</time>
      </trkpt>
      <trkpt lat="42.96531" lon="-0.22401">
        <ele>1136</ele>
        <time>2022-08-28T00:29:13.000Z</time>
      </trkpt>
      <trkpt lat="42.96515" lon="-0.22382">
        <ele>1131</ele>
        <time>2022-08-28T00:29:16.000Z</time>
      </trkpt>
      <trkpt lat="42.9651" lon="-0.2236">
        <ele>1127</ele>
        <time>2022-08-28T00:29:19.000Z</time>
      </trkpt>
      <trkpt lat="42.96556" lon="-0.22223">
        <ele>1123</ele>
        <time>2022-08-28T00:29:39.000Z</time>
      </trkpt>
      <trkpt lat="42.96566" lon="-0.22188">
        <ele>1123</ele>
        <time>2022-08-28T00:29:44.000Z</time>
      </trkpt>
      <trkpt lat="42.96551" lon="-0.22111">
        <ele>1112</ele>
        <time>2022-08-28T00:29:54.000Z</time>
      </trkpt>
      <trkpt lat="42.96555" lon="-0.22064">
        <ele>1109</ele>
        <time>2022-08-28T00:30:01.000Z</time>
      </trkpt>
      <trkpt lat="42.96565" lon="-0.22019">
        <ele>1107</ele>
        <time>2022-08-28T00:30:07.000Z</time>
      </trkpt>
      <trkpt lat="42.96586" lon="-0.21983">
        <ele>1111</ele>
        <time>2022-08-28T00:30:13.000Z</time>
      </trkpt>
      <trkpt lat="42.96593" lon="-0.21955">
        <ele>1110</ele>
        <time>2022-08-28T00:30:17.000Z</time>
      </trkpt>
      <trkpt lat="42.96595" lon="-0.2189">
        <ele>1102</ele>
        <time>2022-08-28T00:30:25.000Z</time>
      </trkpt>
      <trkpt lat="42.96609" lon="-0.21824">
        <ele>1098</ele>
        <time>2022-08-28T00:30:34.000Z</time>
      </trkpt>
      <trkpt lat="42.96612" lon="-0.21778">
        <ele>1092</ele>
        <time>2022-08-28T00:30:40.000Z</time>
      </trkpt>
      <trkpt lat="42.96629" lon="-0.21727">
        <ele>1090</ele>
        <time>2022-08-28T00:30:47.000Z</time>
      </trkpt>
      <trkpt lat="42.96641" lon="-0.21653">
        <ele>1082</ele>
        <time>2022-08-28T00:30:57.000Z</time>
      </trkpt>
      <trkpt lat="42.96651" lon="-0.21533">
        <ele>1067</ele>
        <time>2022-08-28T00:31:13.000Z</time>
      </trkpt>
      <trkpt lat="42.96647" lon="-0.21526">
        <ele>1066</ele>
        <time>2022-08-28T00:31:14.000Z</time>
      </trkpt>
      <trkpt lat="42.96636" lon="-0.21519">
        <ele>1063</ele>
        <time>2022-08-28T00:31:16.000Z</time>
      </trkpt>
      <trkpt lat="42.96624" lon="-0.21523">
        <ele>1061</ele>
        <time>2022-08-28T00:31:19.000Z</time>
      </trkpt>
      <trkpt lat="42.96598" lon="-0.21593">
        <ele>1065</ele>
        <time>2022-08-28T00:31:29.000Z</time>
      </trkpt>
      <trkpt lat="42.96591" lon="-0.21607">
        <ele>1065</ele>
        <time>2022-08-28T00:31:31.000Z</time>
      </trkpt>
      <trkpt lat="42.96551" lon="-0.21629">
        <ele>1058</ele>
        <time>2022-08-28T00:31:39.000Z</time>
      </trkpt>
      <trkpt lat="42.96543" lon="-0.21635">
        <ele>1057</ele>
        <time>2022-08-28T00:31:41.000Z</time>
      </trkpt>
      <trkpt lat="42.96437" lon="-0.21756">
        <ele>1044</ele>
        <time>2022-08-28T00:32:05.000Z</time>
      </trkpt>
      <trkpt lat="42.96332" lon="-0.21872">
        <ele>1033</ele>
        <time>2022-08-28T00:32:29.000Z</time>
      </trkpt>
      <trkpt lat="42.96304" lon="-0.21872">
        <ele>1029</ele>
        <time>2022-08-28T00:32:34.000Z</time>
      </trkpt>
      <trkpt lat="42.96298" lon="-0.21866">
        <ele>1028</ele>
        <time>2022-08-28T00:32:36.000Z</time>
      </trkpt>
      <trkpt lat="42.96291" lon="-0.21809">
        <ele>1021</ele>
        <time>2022-08-28T00:32:43.000Z</time>
      </trkpt>
      <trkpt lat="42.96286" lon="-0.21798">
        <ele>1020</ele>
        <time>2022-08-28T00:32:45.000Z</time>
      </trkpt>
      <trkpt lat="42.96258" lon="-0.21787">
        <ele>1015</ele>
        <time>2022-08-28T00:32:50.000Z</time>
      </trkpt>
      <trkpt lat="42.96248" lon="-0.21791">
        <ele>1014</ele>
        <time>2022-08-28T00:32:52.000Z</time>
      </trkpt>
      <trkpt lat="42.96229" lon="-0.21825">
        <ele>1012</ele>
        <time>2022-08-28T00:32:58.000Z</time>
      </trkpt>
      <trkpt lat="42.96223" lon="-0.21849">
        <ele>1012</ele>
        <time>2022-08-28T00:33:01.000Z</time>
      </trkpt>
      <trkpt lat="42.96235" lon="-0.21909">
        <ele>1018</ele>
        <time>2022-08-28T00:33:09.000Z</time>
      </trkpt>
      <trkpt lat="42.9623" lon="-0.21926">
        <ele>1017</ele>
        <time>2022-08-28T00:33:12.000Z</time>
      </trkpt>
      <trkpt lat="42.96224" lon="-0.21933">
        <ele>1016</ele>
        <time>2022-08-28T00:33:13.000Z</time>
      </trkpt>
      <trkpt lat="42.96218" lon="-0.21936">
        <ele>1014</ele>
        <time>2022-08-28T00:33:14.000Z</time>
      </trkpt>
      <trkpt lat="42.96145" lon="-0.21922">
        <ele>994</ele>
        <time>2022-08-28T00:33:27.000Z</time>
      </trkpt>
      <trkpt lat="42.9613" lon="-0.21932">
        <ele>991</ele>
        <time>2022-08-28T00:33:30.000Z</time>
      </trkpt>
      <trkpt lat="42.96125" lon="-0.21938">
        <ele>990</ele>
        <time>2022-08-28T00:33:32.000Z</time>
      </trkpt>
      <trkpt lat="42.96119" lon="-0.21965">
        <ele>990</ele>
        <time>2022-08-28T00:33:35.000Z</time>
      </trkpt>
      <trkpt lat="42.96127" lon="-0.2201">
        <ele>994</ele>
        <time>2022-08-28T00:33:41.000Z</time>
      </trkpt>
      <trkpt lat="42.96127" lon="-0.22035">
        <ele>996</ele>
        <time>2022-08-28T00:33:44.000Z</time>
      </trkpt>
      <trkpt lat="42.96112" lon="-0.22052">
        <ele>992</ele>
        <time>2022-08-28T00:33:48.000Z</time>
      </trkpt>
      <trkpt lat="42.96106" lon="-0.22052">
        <ele>991</ele>
        <time>2022-08-28T00:33:49.000Z</time>
      </trkpt>
      <trkpt lat="42.96094" lon="-0.22044">
        <ele>987</ele>
        <time>2022-08-28T00:33:52.000Z</time>
      </trkpt>
      <trkpt lat="42.96089" lon="-0.22031">
        <ele>984</ele>
        <time>2022-08-28T00:33:53.000Z</time>
      </trkpt>
      <trkpt lat="42.9607" lon="-0.21928">
        <ele>977</ele>
        <time>2022-08-28T00:34:07.000Z</time>
      </trkpt>
      <trkpt lat="42.96067" lon="-0.21903">
        <ele>976</ele>
        <time>2022-08-28T00:34:11.000Z</time>
      </trkpt>
      <trkpt lat="42.96082" lon="-0.21858">
        <ele>978</ele>
        <time>2022-08-28T00:34:17.000Z</time>
      </trkpt>
      <trkpt lat="42.96086" lon="-0.21842">
        <ele>979</ele>
        <time>2022-08-28T00:34:19.000Z</time>
      </trkpt>
      <trkpt lat="42.96082" lon="-0.21769">
        <ele>973</ele>
        <time>2022-08-28T00:34:29.000Z</time>
      </trkpt>
      <trkpt lat="42.96094" lon="-0.21713">
        <ele>972</ele>
        <time>2022-08-28T00:34:37.000Z</time>
      </trkpt>
      <trkpt lat="42.96101" lon="-0.21523">
        <ele>961</ele>
        <time>2022-08-28T00:35:01.000Z</time>
      </trkpt>
      <trkpt lat="42.96102" lon="-0.21485">
        <ele>959</ele>
        <time>2022-08-28T00:35:06.000Z</time>
      </trkpt>
      <trkpt lat="42.961" lon="-0.21467">
        <ele>957</ele>
        <time>2022-08-28T00:35:09.000Z</time>
      </trkpt>
      <trkpt lat="42.96091" lon="-0.21442">
        <ele>953</ele>
        <time>2022-08-28T00:35:12.000Z</time>
      </trkpt>
      <trkpt lat="42.96062" lon="-0.21401">
        <ele>947</ele>
        <time>2022-08-28T00:35:20.000Z</time>
      </trkpt>
      <trkpt lat="42.96055" lon="-0.21382">
        <ele>945</ele>
        <time>2022-08-28T00:35:23.000Z</time>
      </trkpt>
      <trkpt lat="42.96065" lon="-0.21139">
        <ele>928</ele>
        <time>2022-08-28T00:35:54.000Z</time>
      </trkpt>
      <trkpt lat="42.9606" lon="-0.21129">
        <ele>926</ele>
        <time>2022-08-28T00:35:56.000Z</time>
      </trkpt>
      <trkpt lat="42.96036" lon="-0.21121">
        <ele>921</ele>
        <time>2022-08-28T00:36:01.000Z</time>
      </trkpt>
      <trkpt lat="42.96026" lon="-0.21129">
        <ele>920</ele>
        <time>2022-08-28T00:36:03.000Z</time>
      </trkpt>
      <trkpt lat="42.96011" lon="-0.21173">
        <ele>922</ele>
        <time>2022-08-28T00:36:09.000Z</time>
      </trkpt>
      <trkpt lat="42.95929" lon="-0.2127">
        <ele>913</ele>
        <time>2022-08-28T00:36:28.000Z</time>
      </trkpt>
      <trkpt lat="42.95902" lon="-0.21321">
        <ele>912</ele>
        <time>2022-08-28T00:36:36.000Z</time>
      </trkpt>
      <trkpt lat="42.95868" lon="-0.21351">
        <ele>904</ele>
        <time>2022-08-28T00:36:44.000Z</time>
      </trkpt>
      <trkpt lat="42.95863" lon="-0.21358">
        <ele>904</ele>
        <time>2022-08-28T00:36:45.000Z</time>
      </trkpt>
      <trkpt lat="42.95847" lon="-0.21438">
        <ele>905</ele>
        <time>2022-08-28T00:36:56.000Z</time>
      </trkpt>
      <trkpt lat="42.95814" lon="-0.21503">
        <ele>902</ele>
        <time>2022-08-28T00:37:06.000Z</time>
      </trkpt>
      <trkpt lat="42.95771" lon="-0.21533">
        <ele>892</ele>
        <time>2022-08-28T00:37:15.000Z</time>
      </trkpt>
      <trkpt lat="42.95739" lon="-0.21562">
        <ele>888</ele>
        <time>2022-08-28T00:37:22.000Z</time>
      </trkpt>
      <trkpt lat="42.95686" lon="-0.21552">
        <ele>884</ele>
        <time>2022-08-28T00:37:31.000Z</time>
      </trkpt>
      <trkpt lat="42.95665" lon="-0.21536">
        <ele>882</ele>
        <time>2022-08-28T00:37:36.000Z</time>
      </trkpt>
      <trkpt lat="42.95647" lon="-0.21514">
        <ele>882</ele>
        <time>2022-08-28T00:37:40.000Z</time>
      </trkpt>
      <trkpt lat="42.95617" lon="-0.21422">
        <ele>880</ele>
        <time>2022-08-28T00:37:53.000Z</time>
      </trkpt>
      <trkpt lat="42.95619" lon="-0.21367">
        <ele>878</ele>
        <time>2022-08-28T00:38:00.000Z</time>
      </trkpt>
      <trkpt lat="42.95649" lon="-0.21321">
        <ele>877</ele>
        <time>2022-08-28T00:38:08.000Z</time>
      </trkpt>
      <trkpt lat="42.95661" lon="-0.2129">
        <ele>876</ele>
        <time>2022-08-28T00:38:13.000Z</time>
      </trkpt>
      <trkpt lat="42.95667" lon="-0.21229">
        <ele>874</ele>
        <time>2022-08-28T00:38:21.000Z</time>
      </trkpt>
      <trkpt lat="42.9571" lon="-0.21106">
        <ele>871</ele>
        <time>2022-08-28T00:38:39.000Z</time>
      </trkpt>
      <trkpt lat="42.95918" lon="-0.20744">
        <ele>868</ele>
        <time>2022-08-28T00:39:39.000Z</time>
      </trkpt>
      <trkpt lat="42.95998" lon="-0.20622">
        <ele>865</ele>
        <time>2022-08-28T00:40:00.000Z</time>
      </trkpt>
      <trkpt lat="42.96116" lon="-0.20318">
        <ele>863</ele>
        <time>2022-08-28T00:40:45.000Z</time>
      </trkpt>
      <trkpt lat="42.96132" lon="-0.20295">
        <ele>864</ele>
        <time>2022-08-28T00:40:49.000Z</time>
      </trkpt>
      <trkpt lat="42.96151" lon="-0.20275">
        <ele>864</ele>
        <time>2022-08-28T00:40:53.000Z</time>
      </trkpt>
      <trkpt lat="42.96166" lon="-0.20264">
        <ele>865</ele>
        <time>2022-08-28T00:40:56.000Z</time>
      </trkpt>
      <trkpt lat="42.96354" lon="-0.20163">
        <ele>861</ele>
        <time>2022-08-28T00:41:32.000Z</time>
      </trkpt>
      <trkpt lat="42.96366" lon="-0.20161">
        <ele>861</ele>
        <time>2022-08-28T00:41:34.000Z</time>
      </trkpt>
      <trkpt lat="42.96406" lon="-0.20165">
        <ele>861</ele>
        <time>2022-08-28T00:41:41.000Z</time>
      </trkpt>
      <trkpt lat="42.96438" lon="-0.20186">
        <ele>862</ele>
        <time>2022-08-28T00:41:48.000Z</time>
      </trkpt>
      <trkpt lat="42.96451" lon="-0.20191">
        <ele>862</ele>
        <time>2022-08-28T00:41:50.000Z</time>
      </trkpt>
      <trkpt lat="42.96505" lon="-0.20167">
        <ele>861</ele>
        <time>2022-08-28T00:42:00.000Z</time>
      </trkpt>
      <trkpt lat="42.9652" lon="-0.20169">
        <ele>861</ele>
        <time>2022-08-28T00:42:03.000Z</time>
      </trkpt>
      <trkpt lat="42.9656" lon="-0.20197">
        <ele>863</ele>
        <time>2022-08-28T00:42:11.000Z</time>
      </trkpt>
      <trkpt lat="42.96581" lon="-0.20218">
        <ele>864</ele>
        <time>2022-08-28T00:42:16.000Z</time>
      </trkpt>
      <trkpt lat="42.96643" lon="-0.2025">
        <ele>864</ele>
        <time>2022-08-28T00:42:28.000Z</time>
      </trkpt>
      <trkpt lat="42.9666" lon="-0.20253">
        <ele>864</ele>
        <time>2022-08-28T00:42:31.000Z</time>
      </trkpt>
      <trkpt lat="42.96705" lon="-0.20248">
        <ele>865</ele>
        <time>2022-08-28T00:42:39.000Z</time>
      </trkpt>
      <trkpt lat="42.96733" lon="-0.20239">
        <ele>865</ele>
        <time>2022-08-28T00:42:44.000Z</time>
      </trkpt>
      <trkpt lat="42.96816" lon="-0.20194">
        <ele>867</ele>
        <time>2022-08-28T00:43:00.000Z</time>
      </trkpt>
      <trkpt lat="42.96827" lon="-0.20185">
        <ele>866</ele>
        <time>2022-08-28T00:43:02.000Z</time>
      </trkpt>
      <trkpt lat="42.96937" lon="-0.20038">
        <ele>863</ele>
        <time>2022-08-28T00:43:29.000Z</time>
      </trkpt>
      <trkpt lat="42.96951" lon="-0.20013">
        <ele>862</ele>
        <time>2022-08-28T00:43:33.000Z</time>
      </trkpt>
      <trkpt lat="42.97005" lon="-0.19865">
        <ele>854</ele>
        <time>2022-08-28T00:43:55.000Z</time>
      </trkpt>
      <trkpt lat="42.97021" lon="-0.19828">
        <ele>855</ele>
        <time>2022-08-28T00:44:01.000Z</time>
      </trkpt>
      <trkpt lat="42.97239" lon="-0.19523">
        <ele>866</ele>
        <time>2022-08-28T00:44:56.000Z</time>
      </trkpt>
      <trkpt lat="42.97269" lon="-0.19475">
        <ele>868</ele>
        <time>2022-08-28T00:45:04.000Z</time>
      </trkpt>
      <trkpt lat="42.9729" lon="-0.19432">
        <ele>870</ele>
        <time>2022-08-28T00:45:11.000Z</time>
      </trkpt>
      <trkpt lat="42.97298" lon="-0.19376">
        <ele>870</ele>
        <time>2022-08-28T00:45:19.000Z</time>
      </trkpt>
      <trkpt lat="42.97335" lon="-0.19303">
        <ele>873</ele>
        <time>2022-08-28T00:45:30.000Z</time>
      </trkpt>
      <trkpt lat="42.97338" lon="-0.19286">
        <ele>872</ele>
        <time>2022-08-28T00:45:32.000Z</time>
      </trkpt>
      <trkpt lat="42.97397" lon="-0.19216">
        <ele>869</ele>
        <time>2022-08-28T00:45:46.000Z</time>
      </trkpt>
      <trkpt lat="42.97404" lon="-0.19203">
        <ele>868</ele>
        <time>2022-08-28T00:45:48.000Z</time>
      </trkpt>
      <trkpt lat="42.97447" lon="-0.19105">
        <ele>866</ele>
        <time>2022-08-28T00:46:03.000Z</time>
      </trkpt>
      <trkpt lat="42.9746" lon="-0.19036">
        <ele>863</ele>
        <time>2022-08-28T00:46:13.000Z</time>
      </trkpt>
      <trkpt lat="42.97481" lon="-0.18936">
        <ele>857</ele>
        <time>2022-08-28T00:46:26.000Z</time>
      </trkpt>
      <trkpt lat="42.97479" lon="-0.18888">
        <ele>855</ele>
        <time>2022-08-28T00:46:32.000Z</time>
      </trkpt>
      <trkpt lat="42.97453" lon="-0.18796">
        <ele>852</ele>
        <time>2022-08-28T00:46:45.000Z</time>
      </trkpt>
      <trkpt lat="42.97454" lon="-0.18765">
        <ele>852</ele>
        <time>2022-08-28T00:46:49.000Z</time>
      </trkpt>
      <trkpt lat="42.9748" lon="-0.1872">
        <ele>850</ele>
        <time>2022-08-28T00:46:57.000Z</time>
      </trkpt>
      <trkpt lat="42.9749" lon="-0.18697">
        <ele>850</ele>
        <time>2022-08-28T00:47:00.000Z</time>
      </trkpt>
      <trkpt lat="42.97499" lon="-0.1864">
        <ele>848</ele>
        <time>2022-08-28T00:47:08.000Z</time>
      </trkpt>
      <trkpt lat="42.97506" lon="-0.18611">
        <ele>847</ele>
        <time>2022-08-28T00:47:12.000Z</time>
      </trkpt>
      <trkpt lat="42.97563" lon="-0.18527">
        <ele>845</ele>
        <time>2022-08-28T00:47:27.000Z</time>
      </trkpt>
      <trkpt lat="42.97575" lon="-0.185">
        <ele>845</ele>
        <time>2022-08-28T00:47:31.000Z</time>
      </trkpt>
      <trkpt lat="42.9764" lon="-0.18285">
        <ele>845</ele>
        <time>2022-08-28T00:48:01.000Z</time>
      </trkpt>
      <trkpt lat="42.97657" lon="-0.18237">
        <ele>843</ele>
        <time>2022-08-28T00:48:08.000Z</time>
      </trkpt>
      <trkpt lat="42.97739" lon="-0.18073">
        <ele>842</ele>
        <time>2022-08-28T00:48:34.000Z</time>
      </trkpt>
      <trkpt lat="42.97742" lon="-0.18062">
        <ele>842</ele>
        <time>2022-08-28T00:48:36.000Z</time>
      </trkpt>
      <trkpt lat="42.9775" lon="-0.1801">
        <ele>840</ele>
        <time>2022-08-28T00:48:43.000Z</time>
      </trkpt>
      <trkpt lat="42.97759" lon="-0.17918">
        <ele>837</ele>
        <time>2022-08-28T00:48:55.000Z</time>
      </trkpt>
      <trkpt lat="42.97793" lon="-0.17747">
        <ele>838</ele>
        <time>2022-08-28T00:49:18.000Z</time>
      </trkpt>
      <trkpt lat="42.97792" lon="-0.17739">
        <ele>837</ele>
        <time>2022-08-28T00:49:19.000Z</time>
      </trkpt>
      <trkpt lat="42.97812" lon="-0.17685">
        <ele>836</ele>
        <time>2022-08-28T00:49:27.000Z</time>
      </trkpt>
      <trkpt lat="42.97823" lon="-0.17646">
        <ele>835</ele>
        <time>2022-08-28T00:49:32.000Z</time>
      </trkpt>
      <trkpt lat="42.97822" lon="-0.17359">
        <ele>832</ele>
        <time>2022-08-28T00:50:10.000Z</time>
      </trkpt>
      <trkpt lat="42.97827" lon="-0.17298">
        <ele>834</ele>
        <time>2022-08-28T00:50:18.000Z</time>
      </trkpt>
      <trkpt lat="42.97864" lon="-0.17201">
        <ele>837</ele>
        <time>2022-08-28T00:50:32.000Z</time>
      </trkpt>
      <trkpt lat="42.97895" lon="-0.17122">
        <ele>840</ele>
        <time>2022-08-28T00:50:44.000Z</time>
      </trkpt>
      <trkpt lat="42.97901" lon="-0.17098">
        <ele>840</ele>
        <time>2022-08-28T00:50:47.000Z</time>
      </trkpt>
      <trkpt lat="42.97907" lon="-0.17014">
        <ele>841</ele>
        <time>2022-08-28T00:50:58.000Z</time>
      </trkpt>
      <trkpt lat="42.97945" lon="-0.16926">
        <ele>845</ele>
        <time>2022-08-28T00:51:11.000Z</time>
      </trkpt>
      <trkpt lat="42.97981" lon="-0.16786">
        <ele>842</ele>
        <time>2022-08-28T00:51:31.000Z</time>
      </trkpt>
      <trkpt lat="42.97965" lon="-0.16536">
        <ele>832</ele>
        <time>2022-08-28T00:52:03.000Z</time>
      </trkpt>
      <trkpt lat="42.97977" lon="-0.1639">
        <ele>825</ele>
        <time>2022-08-28T00:52:22.000Z</time>
      </trkpt>
      <trkpt lat="42.9796" lon="-0.16261">
        <ele>822</ele>
        <time>2022-08-28T00:52:40.000Z</time>
      </trkpt>
      <trkpt lat="42.97958" lon="-0.16232">
        <ele>821</ele>
        <time>2022-08-28T00:52:43.000Z</time>
      </trkpt>
      <trkpt lat="42.97975" lon="-0.15987">
        <ele>810</ele>
        <time>2022-08-28T00:53:15.000Z</time>
      </trkpt>
      <trkpt lat="42.9798" lon="-0.15954">
        <ele>808</ele>
        <time>2022-08-28T00:53:20.000Z</time>
      </trkpt>
      <trkpt lat="42.98021" lon="-0.1577">
        <ele>794</ele>
        <time>2022-08-28T00:53:45.000Z</time>
      </trkpt>
      <trkpt lat="42.9809" lon="-0.15457">
        <ele>779</ele>
        <time>2022-08-28T00:54:27.000Z</time>
      </trkpt>
      <trkpt lat="42.98099" lon="-0.15429">
        <ele>777</ele>
        <time>2022-08-28T00:54:31.000Z</time>
      </trkpt>
      <trkpt lat="42.98114" lon="-0.15399">
        <ele>776</ele>
        <time>2022-08-28T00:54:36.000Z</time>
      </trkpt>
      <trkpt lat="42.98237" lon="-0.15178">
        <ele>771</ele>
        <time>2022-08-28T00:55:12.000Z</time>
      </trkpt>
      <trkpt lat="42.98246" lon="-0.15155">
        <ele>770</ele>
        <time>2022-08-28T00:55:16.000Z</time>
      </trkpt>
      <trkpt lat="42.98255" lon="-0.15126">
        <ele>770</ele>
        <time>2022-08-28T00:55:20.000Z</time>
      </trkpt>
      <trkpt lat="42.98288" lon="-0.14984">
        <ele>763</ele>
        <time>2022-08-28T00:55:39.000Z</time>
      </trkpt>
      <trkpt lat="42.98337" lon="-0.14859">
        <ele>763</ele>
        <time>2022-08-28T00:55:58.000Z</time>
      </trkpt>
      <trkpt lat="42.9835" lon="-0.14813">
        <ele>764</ele>
        <time>2022-08-28T00:56:04.000Z</time>
      </trkpt>
      <trkpt lat="42.98365" lon="-0.14668">
        <ele>760</ele>
        <time>2022-08-28T00:56:23.000Z</time>
      </trkpt>
      <trkpt lat="42.98372" lon="-0.14621">
        <ele>760</ele>
        <time>2022-08-28T00:56:29.000Z</time>
      </trkpt>
      <trkpt lat="42.98386" lon="-0.14588">
        <ele>762</ele>
        <time>2022-08-28T00:56:34.000Z</time>
      </trkpt>
      <trkpt lat="42.98521" lon="-0.14395">
        <ele>759</ele>
        <time>2022-08-28T00:57:09.000Z</time>
      </trkpt>
      <trkpt lat="42.98554" lon="-0.14286">
        <ele>754</ele>
        <time>2022-08-28T00:57:24.000Z</time>
      </trkpt>
      <trkpt lat="42.98575" lon="-0.1422">
        <ele>750</ele>
        <time>2022-08-28T00:57:34.000Z</time>
      </trkpt>
      <trkpt lat="42.98753" lon="-0.13776">
        <ele>737</ele>
        <time>2022-08-28T00:58:40.000Z</time>
      </trkpt>
      <trkpt lat="42.988" lon="-0.1365">
        <ele>733</ele>
        <time>2022-08-28T00:58:58.000Z</time>
      </trkpt>
      <trkpt lat="42.98824" lon="-0.13557">
        <ele>730</ele>
        <time>2022-08-28T00:59:11.000Z</time>
      </trkpt>
      <trkpt lat="42.98838" lon="-0.13514">
        <ele>730</ele>
        <time>2022-08-28T00:59:17.000Z</time>
      </trkpt>
      <trkpt lat="42.98883" lon="-0.13431">
        <ele>728</ele>
        <time>2022-08-28T00:59:31.000Z</time>
      </trkpt>
      <trkpt lat="42.98909" lon="-0.13358">
        <ele>726</ele>
        <time>2022-08-28T00:59:41.000Z</time>
      </trkpt>
      <trkpt lat="42.98919" lon="-0.13337">
        <ele>726</ele>
        <time>2022-08-28T00:59:44.000Z</time>
      </trkpt>
      <trkpt lat="42.98934" lon="-0.13311">
        <ele>725</ele>
        <time>2022-08-28T00:59:49.000Z</time>
      </trkpt>
      <trkpt lat="42.98977" lon="-0.1326">
        <ele>725</ele>
        <time>2022-08-28T00:59:59.000Z</time>
      </trkpt>
      <trkpt lat="42.98992" lon="-0.13236">
        <ele>724</ele>
        <time>2022-08-28T01:00:03.000Z</time>
      </trkpt>
      <trkpt lat="42.99009" lon="-0.13162">
        <ele>718</ele>
        <time>2022-08-28T01:00:13.000Z</time>
      </trkpt>
      <trkpt lat="42.99022" lon="-0.13137">
        <ele>717</ele>
        <time>2022-08-28T01:00:17.000Z</time>
      </trkpt>
      <trkpt lat="42.99097" lon="-0.13059">
        <ele>716</ele>
        <time>2022-08-28T01:00:34.000Z</time>
      </trkpt>
      <trkpt lat="42.99169" lon="-0.12953">
        <ele>714</ele>
        <time>2022-08-28T01:00:53.000Z</time>
      </trkpt>
      <trkpt lat="42.99177" lon="-0.1293">
        <ele>713</ele>
        <time>2022-08-28T01:00:56.000Z</time>
      </trkpt>
      <trkpt lat="42.99201" lon="-0.12813">
        <ele>702</ele>
        <time>2022-08-28T01:01:12.000Z</time>
      </trkpt>
      <trkpt lat="42.99239" lon="-0.12732">
        <ele>698</ele>
        <time>2022-08-28T01:01:24.000Z</time>
      </trkpt>
      <trkpt lat="42.99259" lon="-0.1268">
        <ele>696</ele>
        <time>2022-08-28T01:01:32.000Z</time>
      </trkpt>
      <trkpt lat="42.9928" lon="-0.12579">
        <ele>692</ele>
        <time>2022-08-28T01:01:46.000Z</time>
      </trkpt>
      <trkpt lat="42.99295" lon="-0.12541">
        <ele>689</ele>
        <time>2022-08-28T01:01:51.000Z</time>
      </trkpt>
      <trkpt lat="42.99344" lon="-0.12468">
        <ele>683</ele>
        <time>2022-08-28T01:02:04.000Z</time>
      </trkpt>
      <trkpt lat="42.99377" lon="-0.12428">
        <ele>679</ele>
        <time>2022-08-28T01:02:12.000Z</time>
      </trkpt>
      <trkpt lat="42.99409" lon="-0.12408">
        <ele>677</ele>
        <time>2022-08-28T01:02:18.000Z</time>
      </trkpt>
      <trkpt lat="42.99434" lon="-0.12385">
        <ele>677</ele>
        <time>2022-08-28T01:02:24.000Z</time>
      </trkpt>
      <trkpt lat="42.99452" lon="-0.12351">
        <ele>676</ele>
        <time>2022-08-28T01:02:29.000Z</time>
      </trkpt>
      <trkpt lat="42.99467" lon="-0.12316">
        <ele>674</ele>
        <time>2022-08-28T01:02:34.000Z</time>
      </trkpt>
      <trkpt lat="42.99506" lon="-0.12182">
        <ele>662</ele>
        <time>2022-08-28T01:02:53.000Z</time>
      </trkpt>
      <trkpt lat="42.99515" lon="-0.12129">
        <ele>658</ele>
        <time>2022-08-28T01:03:00.000Z</time>
      </trkpt>
      <trkpt lat="42.99515" lon="-0.12114">
        <ele>657</ele>
        <time>2022-08-28T01:03:02.000Z</time>
      </trkpt>
      <trkpt lat="42.99511" lon="-0.12094">
        <ele>655</ele>
        <time>2022-08-28T01:03:05.000Z</time>
      </trkpt>
      <trkpt lat="42.99484" lon="-0.12023">
        <ele>645</ele>
        <time>2022-08-28T01:03:15.000Z</time>
      </trkpt>
      <trkpt lat="42.99482" lon="-0.12002">
        <ele>642</ele>
        <time>2022-08-28T01:03:18.000Z</time>
      </trkpt>
      <trkpt lat="42.99503" lon="-0.11859">
        <ele>634</ele>
        <time>2022-08-28T01:03:37.000Z</time>
      </trkpt>
      <trkpt lat="42.9952" lon="-0.11812">
        <ele>630</ele>
        <time>2022-08-28T01:03:44.000Z</time>
      </trkpt>
      <trkpt lat="42.99535" lon="-0.11783">
        <ele>627</ele>
        <time>2022-08-28T01:03:49.000Z</time>
      </trkpt>
      <trkpt lat="42.99547" lon="-0.11771">
        <ele>626</ele>
        <time>2022-08-28T01:03:51.000Z</time>
      </trkpt>
      <trkpt lat="42.99581" lon="-0.11767">
        <ele>630</ele>
        <time>2022-08-28T01:03:57.000Z</time>
      </trkpt>
      <trkpt lat="42.9961" lon="-0.11762">
        <ele>628</ele>
        <time>2022-08-28T01:04:03.000Z</time>
      </trkpt>
      <trkpt lat="42.99699" lon="-0.11735">
        <ele>620</ele>
        <time>2022-08-28T01:04:19.000Z</time>
      </trkpt>
      <trkpt lat="42.99734" lon="-0.11723">
        <ele>616</ele>
        <time>2022-08-28T01:04:25.000Z</time>
      </trkpt>
      <trkpt lat="42.99755" lon="-0.11713">
        <ele>615</ele>
        <time>2022-08-28T01:04:29.000Z</time>
      </trkpt>
      <trkpt lat="42.99783" lon="-0.11693">
        <ele>616</ele>
        <time>2022-08-28T01:04:35.000Z</time>
      </trkpt>
      <trkpt lat="42.99806" lon="-0.11662">
        <ele>615</ele>
        <time>2022-08-28T01:04:41.000Z</time>
      </trkpt>
      <trkpt lat="42.99827" lon="-0.11622">
        <ele>611</ele>
        <time>2022-08-28T01:04:47.000Z</time>
      </trkpt>
      <trkpt lat="42.99842" lon="-0.11583">
        <ele>607</ele>
        <time>2022-08-28T01:04:53.000Z</time>
      </trkpt>
      <trkpt lat="42.99845" lon="-0.11565">
        <ele>606</ele>
        <time>2022-08-28T01:04:55.000Z</time>
      </trkpt>
      <trkpt lat="42.99844" lon="-0.1152">
        <ele>598</ele>
        <time>2022-08-28T01:05:01.000Z</time>
      </trkpt>
      <trkpt lat="42.99859" lon="-0.11447">
        <ele>596</ele>
        <time>2022-08-28T01:05:11.000Z</time>
      </trkpt>
      <trkpt lat="42.99862" lon="-0.11426">
        <ele>595</ele>
        <time>2022-08-28T01:05:14.000Z</time>
      </trkpt>
      <trkpt lat="42.99861" lon="-0.11361">
        <ele>589</ele>
        <time>2022-08-28T01:05:22.000Z</time>
      </trkpt>
      <trkpt lat="42.99867" lon="-0.11317">
        <ele>587</ele>
        <time>2022-08-28T01:05:28.000Z</time>
      </trkpt>
      <trkpt lat="42.99924" lon="-0.11213">
        <ele>592</ele>
        <time>2022-08-28T01:05:45.000Z</time>
      </trkpt>
      <trkpt lat="42.99928" lon="-0.11195">
        <ele>591</ele>
        <time>2022-08-28T01:05:47.000Z</time>
      </trkpt>
      <trkpt lat="42.99912" lon="-0.11148">
        <ele>574</ele>
        <time>2022-08-28T01:05:54.000Z</time>
      </trkpt>
      <trkpt lat="42.99907" lon="-0.11131">
        <ele>569</ele>
        <time>2022-08-28T01:05:57.000Z</time>
      </trkpt>
      <trkpt lat="42.99918" lon="-0.10926">
        <ele>550</ele>
        <time>2022-08-28T01:06:23.000Z</time>
      </trkpt>
      <trkpt lat="42.99922" lon="-0.10895">
        <ele>546</ele>
        <time>2022-08-28T01:06:28.000Z</time>
      </trkpt>
      <trkpt lat="42.99932" lon="-0.1088">
        <ele>544</ele>
        <time>2022-08-28T01:06:30.000Z</time>
      </trkpt>
      <trkpt lat="42.9995" lon="-0.10867">
        <ele>544</ele>
        <time>2022-08-28T01:06:34.000Z</time>
      </trkpt>
      <trkpt lat="43.00027" lon="-0.10869">
        <ele>553</ele>
        <time>2022-08-28T01:06:48.000Z</time>
      </trkpt>
      <trkpt lat="43.00057" lon="-0.10853">
        <ele>551</ele>
        <time>2022-08-28T01:06:53.000Z</time>
      </trkpt>
      <trkpt lat="43.00131" lon="-0.10798">
        <ele>544</ele>
        <time>2022-08-28T01:07:08.000Z</time>
      </trkpt>
      <trkpt lat="43.00179" lon="-0.10749">
        <ele>536</ele>
        <time>2022-08-28T01:07:19.000Z</time>
      </trkpt>
      <trkpt lat="43.00258" lon="-0.10684">
        <ele>525</ele>
        <time>2022-08-28T01:07:35.000Z</time>
      </trkpt>
      <trkpt lat="43.00272" lon="-0.1067">
        <ele>523</ele>
        <time>2022-08-28T01:07:38.000Z</time>
      </trkpt>
      <trkpt lat="43.00322" lon="-0.10606">
        <ele>514</ele>
        <time>2022-08-28T01:07:51.000Z</time>
      </trkpt>
      <trkpt lat="43.00356" lon="-0.1058">
        <ele>513</ele>
        <time>2022-08-28T01:07:58.000Z</time>
      </trkpt>
      <trkpt lat="43.00374" lon="-0.10563">
        <ele>512</ele>
        <time>2022-08-28T01:08:01.000Z</time>
      </trkpt>
      <trkpt lat="43.0042" lon="-0.10478">
        <ele>500</ele>
        <time>2022-08-28T01:08:15.000Z</time>
      </trkpt>
      <trkpt lat="43.00478" lon="-0.10415">
        <ele>494</ele>
        <time>2022-08-28T01:08:28.000Z</time>
      </trkpt>
      <trkpt lat="43.00493" lon="-0.10326">
        <ele>485</ele>
        <time>2022-08-28T01:08:40.000Z</time>
      </trkpt>
      <trkpt lat="43.00498" lon="-0.10307">
        <ele>482</ele>
        <time>2022-08-28T01:08:43.000Z</time>
      </trkpt>
      <trkpt lat="43.00453" lon="-0.10315">
        <ele>481</ele>
        <time>2022-08-28T01:08:51.000Z</time>
      </trkpt>
      <trkpt lat="43.0044" lon="-0.10325">
        <ele>481</ele>
        <time>2022-08-28T01:08:54.000Z</time>
      </trkpt>
      <trkpt lat="43.00401" lon="-0.10304">
        <ele>477</ele>
        <time>2022-08-28T01:09:01.000Z</time>
      </trkpt>
      <trkpt lat="43.00356" lon="-0.10296">
        <ele>472</ele>
        <time>2022-08-28T01:09:09.000Z</time>
      </trkpt>
      <trkpt lat="43.00328" lon="-0.10311">
        <ele>470</ele>
        <time>2022-08-28T01:09:15.000Z</time>
      </trkpt>
      <trkpt lat="43.00319" lon="-0.10302">
        <ele>469</ele>
        <time>2022-08-28T01:09:17.000Z</time>
      </trkpt>
      <trkpt lat="43.00277" lon="-0.10186">
        <ele>461</ele>
        <time>2022-08-28T01:09:34.000Z</time>
      </trkpt>
      <trkpt lat="43.00269" lon="-0.10159">
        <ele>459</ele>
        <time>2022-08-28T01:09:38.000Z</time>
      </trkpt>
      <trkpt lat="43.00211" lon="-0.10041">
        <ele>454</ele>
        <time>2022-08-28T01:09:56.000Z</time>
      </trkpt>
      <trkpt lat="43.00164" lon="-0.09959">
        <ele>453</ele>
        <time>2022-08-28T01:10:10.000Z</time>
      </trkpt>
      <trkpt lat="42.99775" lon="-0.09374">
        <ele>446</ele>
        <time>2022-08-28T01:11:53.000Z</time>
      </trkpt>
      <trkpt lat="42.99668" lon="-0.09218">
        <ele>437</ele>
        <time>2022-08-28T01:12:21.000Z</time>
      </trkpt>
      <trkpt lat="42.99643" lon="-0.09201">
        <ele>436</ele>
        <time>2022-08-28T01:12:26.000Z</time>
      </trkpt>
      <trkpt lat="42.99549" lon="-0.09167">
        <ele>435</ele>
        <time>2022-08-28T01:12:43.000Z</time>
      </trkpt>
      <trkpt lat="42.99456" lon="-0.09153">
        <ele>438</ele>
        <time>2022-08-28T01:13:00.000Z</time>
      </trkpt>
      <trkpt lat="42.99424" lon="-0.09142">
        <ele>438</ele>
        <time>2022-08-28T01:13:06.000Z</time>
      </trkpt>
      <trkpt lat="42.99163" lon="-0.09016">
        <ele>431</ele>
        <time>2022-08-28T01:13:55.000Z</time>
      </trkpt>
      <trkpt lat="42.99079" lon="-0.08988">
        <ele>433</ele>
        <time>2022-08-28T01:14:10.000Z</time>
      </trkpt>
      <trkpt lat="42.98976" lon="-0.08958">
        <ele>433</ele>
        <time>2022-08-28T01:14:29.000Z</time>
      </trkpt>
      <trkpt lat="42.98822" lon="-0.0889">
        <ele>434</ele>
        <time>2022-08-28T01:14:58.000Z</time>
      </trkpt>
      <trkpt lat="42.98743" lon="-0.08867">
        <ele>434</ele>
        <time>2022-08-28T01:15:12.000Z</time>
      </trkpt>
      <trkpt lat="42.98632" lon="-0.08844">
        <ele>435</ele>
        <time>2022-08-28T01:15:32.000Z</time>
      </trkpt>
      <trkpt lat="42.98534" lon="-0.08793">
        <ele>436</ele>
        <time>2022-08-28T01:15:51.000Z</time>
      </trkpt>
      <trkpt lat="42.98413" lon="-0.08727">
        <ele>434</ele>
        <time>2022-08-28T01:16:14.000Z</time>
      </trkpt>
      <trkpt lat="42.98137" lon="-0.08466">
        <ele>437</ele>
        <time>2022-08-28T01:17:14.000Z</time>
      </trkpt>
      <trkpt lat="42.98005" lon="-0.08335">
        <ele>437</ele>
        <time>2022-08-28T01:17:43.000Z</time>
      </trkpt>
      <trkpt lat="42.97671" lon="-0.08054">
        <ele>439</ele>
        <time>2022-08-28T01:18:53.000Z</time>
      </trkpt>
      <trkpt lat="42.97576" lon="-0.07956">
        <ele>443</ele>
        <time>2022-08-28T01:19:14.000Z</time>
      </trkpt>
      <trkpt lat="42.97545" lon="-0.07917">
        <ele>444</ele>
        <time>2022-08-28T01:19:21.000Z</time>
      </trkpt>
      <trkpt lat="42.97506" lon="-0.07843">
        <ele>443</ele>
        <time>2022-08-28T01:19:33.000Z</time>
      </trkpt>
      <trkpt lat="42.97447" lon="-0.07698">
        <ele>445</ele>
        <time>2022-08-28T01:19:55.000Z</time>
      </trkpt>
      <trkpt lat="42.97395" lon="-0.07627">
        <ele>445</ele>
        <time>2022-08-28T01:20:08.000Z</time>
      </trkpt>
      <trkpt lat="42.97362" lon="-0.07599">
        <ele>445</ele>
        <time>2022-08-28T01:20:15.000Z</time>
      </trkpt>
      <trkpt lat="42.9716" lon="-0.07498">
        <ele>450</ele>
        <time>2022-08-28T01:20:53.000Z</time>
      </trkpt>
      <trkpt lat="42.97125" lon="-0.07484">
        <ele>452</ele>
        <time>2022-08-28T01:21:00.000Z</time>
      </trkpt>
      <trkpt lat="42.96715" lon="-0.07369">
        <ele>462</ele>
        <time>2022-08-28T01:22:14.000Z</time>
      </trkpt>
      <trkpt lat="42.9666" lon="-0.07361">
        <ele>463</ele>
        <time>2022-08-28T01:22:24.000Z</time>
      </trkpt>
      <trkpt lat="42.96627" lon="-0.07352">
        <ele>463</ele>
        <time>2022-08-28T01:22:30.000Z</time>
      </trkpt>
      <trkpt lat="42.96621" lon="-0.07362">
        <ele>464</ele>
        <time>2022-08-28T01:22:32.000Z</time>
      </trkpt>
      <trkpt lat="42.96617" lon="-0.07364">
        <ele>464</ele>
        <time>2022-08-28T01:22:32.000Z</time>
      </trkpt>
      <trkpt lat="42.96607" lon="-0.07359">
        <ele>464</ele>
        <time>2022-08-28T01:22:34.000Z</time>
      </trkpt>
      <trkpt lat="42.96566" lon="-0.07384">
        <ele>465</ele>
        <time>2022-08-28T01:22:42.000Z</time>
      </trkpt>
      <trkpt lat="42.96337" lon="-0.07448">
        <ele>474</ele>
        <time>2022-08-28T01:23:24.000Z</time>
      </trkpt>
      <trkpt lat="42.96068" lon="-0.07451">
        <ele>482</ele>
        <time>2022-08-28T01:24:12.000Z</time>
      </trkpt>
      <trkpt lat="42.95916" lon="-0.07448">
        <ele>489</ele>
        <time>2022-08-28T01:24:39.000Z</time>
      </trkpt>
      <trkpt lat="42.9587" lon="-0.07456">
        <ele>491</ele>
        <time>2022-08-28T01:24:47.000Z</time>
      </trkpt>
      <trkpt lat="42.95825" lon="-0.07481">
        <ele>493</ele>
        <time>2022-08-28T01:24:56.000Z</time>
      </trkpt>
      <trkpt lat="42.95741" lon="-0.07511">
        <ele>494</ele>
        <time>2022-08-28T01:25:11.000Z</time>
      </trkpt>
      <trkpt lat="42.95711" lon="-0.07512">
        <ele>497</ele>
        <time>2022-08-28T01:25:17.000Z</time>
      </trkpt>
      <trkpt lat="42.95695" lon="-0.07505">
        <ele>498</ele>
        <time>2022-08-28T01:25:20.000Z</time>
      </trkpt>
      <trkpt lat="42.9568" lon="-0.07486">
        <ele>499</ele>
        <time>2022-08-28T01:25:23.000Z</time>
      </trkpt>
      <trkpt lat="42.9566" lon="-0.07413">
        <ele>495</ele>
        <time>2022-08-28T01:25:33.000Z</time>
      </trkpt>
      <trkpt lat="42.95635" lon="-0.07366">
        <ele>493</ele>
        <time>2022-08-28T01:25:41.000Z</time>
      </trkpt>
      <trkpt lat="42.95486" lon="-0.07152">
        <ele>490</ele>
        <time>2022-08-28T01:26:19.000Z</time>
      </trkpt>
      <trkpt lat="42.95461" lon="-0.07126">
        <ele>492</ele>
        <time>2022-08-28T01:26:25.000Z</time>
      </trkpt>
      <trkpt lat="42.95356" lon="-0.07044">
        <ele>490</ele>
        <time>2022-08-28T01:26:47.000Z</time>
      </trkpt>
      <trkpt lat="42.95323" lon="-0.07025">
        <ele>490</ele>
        <time>2022-08-28T01:26:53.000Z</time>
      </trkpt>
      <trkpt lat="42.95261" lon="-0.06994">
        <ele>489</ele>
        <time>2022-08-28T01:27:05.000Z</time>
      </trkpt>
      <trkpt lat="42.95214" lon="-0.06987">
        <ele>499</ele>
        <time>2022-08-28T01:27:13.000Z</time>
      </trkpt>
      <trkpt lat="42.95187" lon="-0.06978">
        <ele>504</ele>
        <time>2022-08-28T01:27:18.000Z</time>
      </trkpt>
      <trkpt lat="42.95166" lon="-0.06963">
        <ele>504</ele>
        <time>2022-08-28T01:27:22.000Z</time>
      </trkpt>
      <trkpt lat="42.95159" lon="-0.06953">
        <ele>503</ele>
        <time>2022-08-28T01:27:24.000Z</time>
      </trkpt>
      <trkpt lat="42.95097" lon="-0.06804">
        <ele>485</ele>
        <time>2022-08-28T01:27:46.000Z</time>
      </trkpt>
      <trkpt lat="42.9509" lon="-0.06777">
        <ele>483</ele>
        <time>2022-08-28T01:27:50.000Z</time>
      </trkpt>
      <trkpt lat="42.95082" lon="-0.06774">
        <ele>484</ele>
        <time>2022-08-28T01:27:52.000Z</time>
      </trkpt>
      <trkpt lat="42.95077" lon="-0.06769">
        <ele>485</ele>
        <time>2022-08-28T01:27:53.000Z</time>
      </trkpt>
      <trkpt lat="42.95074" lon="-0.06761">
        <ele>485</ele>
        <time>2022-08-28T01:27:54.000Z</time>
      </trkpt>
      <trkpt lat="42.95074" lon="-0.06747">
        <ele>483</ele>
        <time>2022-08-28T01:27:56.000Z</time>
      </trkpt>
      <trkpt lat="42.95061" lon="-0.06737">
        <ele>487</ele>
        <time>2022-08-28T01:27:58.000Z</time>
      </trkpt>
      <trkpt lat="42.95049" lon="-0.06708">
        <ele>489</ele>
        <time>2022-08-28T01:28:03.000Z</time>
      </trkpt>
      <trkpt lat="42.94995" lon="-0.06455">
        <ele>495</ele>
        <time>2022-08-28T01:28:37.000Z</time>
      </trkpt>
      <trkpt lat="42.94971" lon="-0.0639">
        <ele>502</ele>
        <time>2022-08-28T01:28:47.000Z</time>
      </trkpt>
      <trkpt lat="42.94801" lon="-0.06053">
        <ele>514</ele>
        <time>2022-08-28T01:29:40.000Z</time>
      </trkpt>
      <trkpt lat="42.94751" lon="-0.05973">
        <ele>499</ele>
        <time>2022-08-28T01:29:54.000Z</time>
      </trkpt>
      <trkpt lat="42.94715" lon="-0.05873">
        <ele>509</ele>
        <time>2022-08-28T01:30:08.000Z</time>
      </trkpt>
      <trkpt lat="42.94688" lon="-0.0574">
        <ele>515</ele>
        <time>2022-08-28T01:30:26.000Z</time>
      </trkpt>
      <trkpt lat="42.94668" lon="-0.05695">
        <ele>513</ele>
        <time>2022-08-28T01:30:33.000Z</time>
      </trkpt>
      <trkpt lat="42.94448" lon="-0.05432">
        <ele>512</ele>
        <time>2022-08-28T01:31:25.000Z</time>
      </trkpt>
      <trkpt lat="42.94386" lon="-0.0537">
        <ele>516</ele>
        <time>2022-08-28T01:31:39.000Z</time>
      </trkpt>
      <trkpt lat="42.94357" lon="-0.05347">
        <ele>514</ele>
        <time>2022-08-28T01:31:45.000Z</time>
      </trkpt>
      <trkpt lat="42.9428" lon="-0.05302">
        <ele>518</ele>
        <time>2022-08-28T01:32:00.000Z</time>
      </trkpt>
      <trkpt lat="42.94202" lon="-0.05219">
        <ele>533</ele>
        <time>2022-08-28T01:32:17.000Z</time>
      </trkpt>
      <trkpt lat="42.94187" lon="-0.05213">
        <ele>535</ele>
        <time>2022-08-28T01:32:20.000Z</time>
      </trkpt>
      <trkpt lat="42.94173" lon="-0.05214">
        <ele>532</ele>
        <time>2022-08-28T01:32:23.000Z</time>
      </trkpt>
      <trkpt lat="42.94158" lon="-0.05219">
        <ele>530</ele>
        <time>2022-08-28T01:32:25.000Z</time>
      </trkpt>
      <trkpt lat="42.94092" lon="-0.05281">
        <ele>525</ele>
        <time>2022-08-28T01:32:40.000Z</time>
      </trkpt>
      <trkpt lat="42.94062" lon="-0.05318">
        <ele>516</ele>
        <time>2022-08-28T01:32:47.000Z</time>
      </trkpt>
      <trkpt lat="42.94042" lon="-0.05332">
        <ele>515</ele>
        <time>2022-08-28T01:32:51.000Z</time>
      </trkpt>
      <trkpt lat="42.94017" lon="-0.05333">
        <ele>517</ele>
        <time>2022-08-28T01:32:55.000Z</time>
      </trkpt>
      <trkpt lat="42.93997" lon="-0.05322">
        <ele>521</ele>
        <time>2022-08-28T01:32:59.000Z</time>
      </trkpt>
      <trkpt lat="42.9398" lon="-0.05295">
        <ele>528</ele>
        <time>2022-08-28T01:33:04.000Z</time>
      </trkpt>
      <trkpt lat="42.93961" lon="-0.05241">
        <ele>530</ele>
        <time>2022-08-28T01:33:12.000Z</time>
      </trkpt>
      <trkpt lat="42.93951" lon="-0.05202">
        <ele>532</ele>
        <time>2022-08-28T01:33:17.000Z</time>
      </trkpt>
      <trkpt lat="42.93938" lon="-0.05124">
        <ele>537</ele>
        <time>2022-08-28T01:33:27.000Z</time>
      </trkpt>
      <trkpt lat="42.93919" lon="-0.05081">
        <ele>531</ele>
        <time>2022-08-28T01:33:34.000Z</time>
      </trkpt>
      <trkpt lat="42.93889" lon="-0.05039">
        <ele>541</ele>
        <time>2022-08-28T01:33:42.000Z</time>
      </trkpt>
      <trkpt lat="42.93878" lon="-0.05029">
        <ele>542</ele>
        <time>2022-08-28T01:33:44.000Z</time>
      </trkpt>
      <trkpt lat="42.93729" lon="-0.04946">
        <ele>546</ele>
        <time>2022-08-28T01:34:13.000Z</time>
      </trkpt>
      <trkpt lat="42.93715" lon="-0.04934">
        <ele>544</ele>
        <time>2022-08-28T01:34:15.000Z</time>
      </trkpt>
      <trkpt lat="42.93702" lon="-0.04917">
        <ele>540</ele>
        <time>2022-08-28T01:34:19.000Z</time>
      </trkpt>
      <trkpt lat="42.93679" lon="-0.04868">
        <ele>552</ele>
        <time>2022-08-28T01:34:26.000Z</time>
      </trkpt>
      <trkpt lat="42.93661" lon="-0.04852">
        <ele>554</ele>
        <time>2022-08-28T01:34:30.000Z</time>
      </trkpt>
      <trkpt lat="42.93606" lon="-0.04845">
        <ele>568</ele>
        <time>2022-08-28T01:34:40.000Z</time>
      </trkpt>
      <trkpt lat="42.93585" lon="-0.04847">
        <ele>572</ele>
        <time>2022-08-28T01:34:44.000Z</time>
      </trkpt>
      <trkpt lat="42.93508" lon="-0.04867">
        <ele>584</ele>
        <time>2022-08-28T01:34:58.000Z</time>
      </trkpt>
      <trkpt lat="42.93486" lon="-0.04866">
        <ele>584</ele>
        <time>2022-08-28T01:35:02.000Z</time>
      </trkpt>
      <trkpt lat="42.93473" lon="-0.04858">
        <ele>581</ele>
        <time>2022-08-28T01:35:04.000Z</time>
      </trkpt>
      <trkpt lat="42.93461" lon="-0.04839">
        <ele>576</ele>
        <time>2022-08-28T01:35:07.000Z</time>
      </trkpt>
      <trkpt lat="42.93444" lon="-0.04787">
        <ele>588</ele>
        <time>2022-08-28T01:35:15.000Z</time>
      </trkpt>
      <trkpt lat="42.93419" lon="-0.04749">
        <ele>593</ele>
        <time>2022-08-28T01:35:21.000Z</time>
      </trkpt>
      <trkpt lat="42.93325" lon="-0.04672">
        <ele>585</ele>
        <time>2022-08-28T01:35:41.000Z</time>
      </trkpt>
      <trkpt lat="42.93228" lon="-0.04621">
        <ele>572</ele>
        <time>2022-08-28T01:36:00.000Z</time>
      </trkpt>
      <trkpt lat="42.932" lon="-0.0461">
        <ele>573</ele>
        <time>2022-08-28T01:36:05.000Z</time>
      </trkpt>
      <trkpt lat="42.93115" lon="-0.04613">
        <ele>559</ele>
        <time>2022-08-28T01:36:20.000Z</time>
      </trkpt>
      <trkpt lat="42.93092" lon="-0.04603">
        <ele>557</ele>
        <time>2022-08-28T01:36:24.000Z</time>
      </trkpt>
      <trkpt lat="42.93038" lon="-0.04539">
        <ele>564</ele>
        <time>2022-08-28T01:36:37.000Z</time>
      </trkpt>
      <trkpt lat="42.9302" lon="-0.0451">
        <ele>563</ele>
        <time>2022-08-28T01:36:42.000Z</time>
      </trkpt>
      <trkpt lat="42.92975" lon="-0.04384">
        <ele>589</ele>
        <time>2022-08-28T01:37:00.000Z</time>
      </trkpt>
      <trkpt lat="42.92966" lon="-0.04366">
        <ele>591</ele>
        <time>2022-08-28T01:37:03.000Z</time>
      </trkpt>
      <trkpt lat="42.92846" lon="-0.04225">
        <ele>597</ele>
        <time>2022-08-28T01:37:31.000Z</time>
      </trkpt>
      <trkpt lat="42.92795" lon="-0.04197">
        <ele>600</ele>
        <time>2022-08-28T01:37:41.000Z</time>
      </trkpt>
      <trkpt lat="42.92702" lon="-0.04166">
        <ele>597</ele>
        <time>2022-08-28T01:37:58.000Z</time>
      </trkpt>
      <trkpt lat="42.92637" lon="-0.0416">
        <ele>608</ele>
        <time>2022-08-28T01:38:10.000Z</time>
      </trkpt>
      <trkpt lat="42.92622" lon="-0.04163">
        <ele>611</ele>
        <time>2022-08-28T01:38:12.000Z</time>
      </trkpt>
      <trkpt lat="42.92609" lon="-0.04173">
        <ele>611</ele>
        <time>2022-08-28T01:38:15.000Z</time>
      </trkpt>
      <trkpt lat="42.92566" lon="-0.04217">
        <ele>601</ele>
        <time>2022-08-28T01:38:25.000Z</time>
      </trkpt>
      <trkpt lat="42.92559" lon="-0.04216">
        <ele>601</ele>
        <time>2022-08-28T01:38:26.000Z</time>
      </trkpt>
      <trkpt lat="42.92539" lon="-0.0421">
        <ele>605</ele>
        <time>2022-08-28T01:38:30.000Z</time>
      </trkpt>
      <trkpt lat="42.92502" lon="-0.04184">
        <ele>611</ele>
        <time>2022-08-28T01:38:37.000Z</time>
      </trkpt>
      <trkpt lat="42.92404" lon="-0.04086">
        <ele>624</ele>
        <time>2022-08-28T01:38:59.000Z</time>
      </trkpt>
      <trkpt lat="42.92393" lon="-0.04083">
        <ele>623</ele>
        <time>2022-08-28T01:39:01.000Z</time>
      </trkpt>
      <trkpt lat="42.92356" lon="-0.0409">
        <ele>615</ele>
        <time>2022-08-28T01:39:07.000Z</time>
      </trkpt>
      <trkpt lat="42.92299" lon="-0.04074">
        <ele>620</ele>
        <time>2022-08-28T01:39:18.000Z</time>
      </trkpt>
      <trkpt lat="42.92286" lon="-0.04073">
        <ele>622</ele>
        <time>2022-08-28T01:39:20.000Z</time>
      </trkpt>
      <trkpt lat="42.92257" lon="-0.04081">
        <ele>619</ele>
        <time>2022-08-28T01:39:25.000Z</time>
      </trkpt>
      <trkpt lat="42.92218" lon="-0.04081">
        <ele>626</ele>
        <time>2022-08-28T01:39:32.000Z</time>
      </trkpt>
      <trkpt lat="42.92158" lon="-0.04103">
        <ele>626</ele>
        <time>2022-08-28T01:39:43.000Z</time>
      </trkpt>
      <trkpt lat="42.92119" lon="-0.04102">
        <ele>618</ele>
        <time>2022-08-28T01:39:50.000Z</time>
      </trkpt>
      <trkpt lat="42.92086" lon="-0.04098">
        <ele>613</ele>
        <time>2022-08-28T01:39:56.000Z</time>
      </trkpt>
      <trkpt lat="42.92056" lon="-0.04082">
        <ele>610</ele>
        <time>2022-08-28T01:40:02.000Z</time>
      </trkpt>
      <trkpt lat="42.92021" lon="-0.04038">
        <ele>621</ele>
        <time>2022-08-28T01:40:10.000Z</time>
      </trkpt>
      <trkpt lat="42.92008" lon="-0.0403">
        <ele>619</ele>
        <time>2022-08-28T01:40:13.000Z</time>
      </trkpt>
      <trkpt lat="42.91934" lon="-0.04023">
        <ele>617</ele>
        <time>2022-08-28T01:40:26.000Z</time>
      </trkpt>
      <trkpt lat="42.91922" lon="-0.04023">
        <ele>617</ele>
        <time>2022-08-28T01:40:28.000Z</time>
      </trkpt>
      <trkpt lat="42.91885" lon="-0.04042">
        <ele>607</ele>
        <time>2022-08-28T01:40:35.000Z</time>
      </trkpt>
      <trkpt lat="42.9187" lon="-0.04046">
        <ele>604</ele>
        <time>2022-08-28T01:40:38.000Z</time>
      </trkpt>
      <trkpt lat="42.91823" lon="-0.04003">
        <ele>616</ele>
        <time>2022-08-28T01:40:48.000Z</time>
      </trkpt>
      <trkpt lat="42.91806" lon="-0.03994">
        <ele>615</ele>
        <time>2022-08-28T01:40:52.000Z</time>
      </trkpt>
      <trkpt lat="42.91766" lon="-0.03993">
        <ele>607</ele>
        <time>2022-08-28T01:40:59.000Z</time>
      </trkpt>
      <trkpt lat="42.91746" lon="-0.03985">
        <ele>606</ele>
        <time>2022-08-28T01:41:02.000Z</time>
      </trkpt>
      <trkpt lat="42.91668" lon="-0.03864">
        <ele>623</ele>
        <time>2022-08-28T01:41:24.000Z</time>
      </trkpt>
      <trkpt lat="42.91642" lon="-0.03828">
        <ele>629</ele>
        <time>2022-08-28T01:41:30.000Z</time>
      </trkpt>
      <trkpt lat="42.91464" lon="-0.03728">
        <ele>631</ele>
        <time>2022-08-28T01:42:04.000Z</time>
      </trkpt>
      <trkpt lat="42.91406" lon="-0.03699">
        <ele>645</ele>
        <time>2022-08-28T01:42:15.000Z</time>
      </trkpt>
      <trkpt lat="42.9138" lon="-0.03699">
        <ele>644</ele>
        <time>2022-08-28T01:42:20.000Z</time>
      </trkpt>
      <trkpt lat="42.91261" lon="-0.03739">
        <ele>629</ele>
        <time>2022-08-28T01:42:42.000Z</time>
      </trkpt>
      <trkpt lat="42.91235" lon="-0.03742">
        <ele>630</ele>
        <time>2022-08-28T01:42:47.000Z</time>
      </trkpt>
      <trkpt lat="42.91149" lon="-0.03712">
        <ele>643</ele>
        <time>2022-08-28T01:43:02.000Z</time>
      </trkpt>
      <trkpt lat="42.91109" lon="-0.03687">
        <ele>645</ele>
        <time>2022-08-28T01:43:10.000Z</time>
      </trkpt>
      <trkpt lat="42.91095" lon="-0.03681">
        <ele>644</ele>
        <time>2022-08-28T01:43:13.000Z</time>
      </trkpt>
      <trkpt lat="42.91003" lon="-0.03667">
        <ele>633</ele>
        <time>2022-08-28T01:43:29.000Z</time>
      </trkpt>
      <trkpt lat="42.90953" lon="-0.03662">
        <ele>632</ele>
        <time>2022-08-28T01:43:38.000Z</time>
      </trkpt>
      <trkpt lat="42.90927" lon="-0.03654">
        <ele>633</ele>
        <time>2022-08-28T01:43:43.000Z</time>
      </trkpt>
      <trkpt lat="42.90876" lon="-0.03626">
        <ele>632</ele>
        <time>2022-08-28T01:43:53.000Z</time>
      </trkpt>
      <trkpt lat="42.90734" lon="-0.03505">
        <ele>623</ele>
        <time>2022-08-28T01:44:23.000Z</time>
      </trkpt>
      <trkpt lat="42.90725" lon="-0.035">
        <ele>622</ele>
        <time>2022-08-28T01:44:24.000Z</time>
      </trkpt>
      <trkpt lat="42.90693" lon="-0.03489">
        <ele>619</ele>
        <time>2022-08-28T01:44:30.000Z</time>
      </trkpt>
      <trkpt lat="42.90646" lon="-0.03457">
        <ele>618</ele>
        <time>2022-08-28T01:44:40.000Z</time>
      </trkpt>
      <trkpt lat="42.90603" lon="-0.03468">
        <ele>611</ele>
        <time>2022-08-28T01:44:47.000Z</time>
      </trkpt>
      <trkpt lat="42.90591" lon="-0.03463">
        <ele>610</ele>
        <time>2022-08-28T01:44:50.000Z</time>
      </trkpt>
      <trkpt lat="42.90585" lon="-0.03452">
        <ele>609</ele>
        <time>2022-08-28T01:44:51.000Z</time>
      </trkpt>
      <trkpt lat="42.90567" lon="-0.03401">
        <ele>617</ele>
        <time>2022-08-28T01:44:59.000Z</time>
      </trkpt>
      <trkpt lat="42.90438" lon="-0.03175">
        <ele>629</ele>
        <time>2022-08-28T01:45:36.000Z</time>
      </trkpt>
      <trkpt lat="42.90409" lon="-0.03145">
        <ele>626</ele>
        <time>2022-08-28T01:45:43.000Z</time>
      </trkpt>
      <trkpt lat="42.90394" lon="-0.03139">
        <ele>626</ele>
        <time>2022-08-28T01:45:45.000Z</time>
      </trkpt>
      <trkpt lat="42.90381" lon="-0.03139">
        <ele>626</ele>
        <time>2022-08-28T01:45:48.000Z</time>
      </trkpt>
      <trkpt lat="42.90347" lon="-0.03153">
        <ele>629</ele>
        <time>2022-08-28T01:45:54.000Z</time>
      </trkpt>
      <trkpt lat="42.90338" lon="-0.03154">
        <ele>629</ele>
        <time>2022-08-28T01:45:56.000Z</time>
      </trkpt>
      <trkpt lat="42.90314" lon="-0.03146">
        <ele>630</ele>
        <time>2022-08-28T01:46:00.000Z</time>
      </trkpt>
      <trkpt lat="42.90252" lon="-0.03112">
        <ele>627</ele>
        <time>2022-08-28T01:46:12.000Z</time>
      </trkpt>
      <trkpt lat="42.89953" lon="-0.0289">
        <ele>632</ele>
        <time>2022-08-28T01:47:13.000Z</time>
      </trkpt>
      <trkpt lat="42.89894" lon="-0.0284">
        <ele>627</ele>
        <time>2022-08-28T01:47:25.000Z</time>
      </trkpt>
      <trkpt lat="42.89143" lon="-0.02386">
        <ele>646</ele>
        <time>2022-08-28T01:49:51.000Z</time>
      </trkpt>
      <trkpt lat="42.89122" lon="-0.02369">
        <ele>652</ele>
        <time>2022-08-28T01:49:55.000Z</time>
      </trkpt>
      <trkpt lat="42.89108" lon="-0.02353">
        <ele>653</ele>
        <time>2022-08-28T01:49:59.000Z</time>
      </trkpt>
      <trkpt lat="42.89086" lon="-0.02318">
        <ele>652</ele>
        <time>2022-08-28T01:50:05.000Z</time>
      </trkpt>
      <trkpt lat="42.89043" lon="-0.02225">
        <ele>654</ele>
        <time>2022-08-28T01:50:19.000Z</time>
      </trkpt>
      <trkpt lat="42.89005" lon="-0.02151">
        <ele>657</ele>
        <time>2022-08-28T01:50:31.000Z</time>
      </trkpt>
      <trkpt lat="42.88977" lon="-0.0211">
        <ele>661</ele>
        <time>2022-08-28T01:50:38.000Z</time>
      </trkpt>
      <trkpt lat="42.88913" lon="-0.02048">
        <ele>666</ele>
        <time>2022-08-28T01:50:52.000Z</time>
      </trkpt>
      <trkpt lat="42.88879" lon="-0.01995">
        <ele>669</ele>
        <time>2022-08-28T01:51:01.000Z</time>
      </trkpt>
      <trkpt lat="42.88842" lon="-0.01917">
        <ele>664</ele>
        <time>2022-08-28T01:51:13.000Z</time>
      </trkpt>
      <trkpt lat="42.88805" lon="-0.01874">
        <ele>666</ele>
        <time>2022-08-28T01:51:22.000Z</time>
      </trkpt>
      <trkpt lat="42.88578" lon="-0.01676">
        <ele>658</ele>
        <time>2022-08-28T01:52:10.000Z</time>
      </trkpt>
      <trkpt lat="42.88551" lon="-0.01648">
        <ele>655</ele>
        <time>2022-08-28T01:52:16.000Z</time>
      </trkpt>
      <trkpt lat="42.88528" lon="-0.01551">
        <ele>656</ele>
        <time>2022-08-28T01:52:30.000Z</time>
      </trkpt>
      <trkpt lat="42.88521" lon="-0.01543">
        <ele>656</ele>
        <time>2022-08-28T01:52:31.000Z</time>
      </trkpt>
      <trkpt lat="42.88032" lon="-0.01172">
        <ele>676</ele>
        <time>2022-08-28T01:54:11.000Z</time>
      </trkpt>
      <trkpt lat="42.88016" lon="-0.01156">
        <ele>678</ele>
        <time>2022-08-28T01:54:14.000Z</time>
      </trkpt>
      <trkpt lat="42.87572" lon="-0.00512">
        <ele>701</ele>
        <time>2022-08-28T01:56:10.000Z</time>
      </trkpt>
      <trkpt lat="42.87446" lon="-0.00323">
        <ele>713</ele>
        <time>2022-08-28T01:56:43.000Z</time>
      </trkpt>
      <trkpt lat="42.87436" lon="-0.00314">
        <ele>714</ele>
        <time>2022-08-28T01:56:45.000Z</time>
      </trkpt>
      <trkpt lat="42.87427" lon="-0.00313">
        <ele>714</ele>
        <time>2022-08-28T01:56:47.000Z</time>
      </trkpt>
      <trkpt lat="42.8736" lon="-0.00322">
        <ele>715</ele>
        <time>2022-08-28T01:56:59.000Z</time>
      </trkpt>
      <trkpt lat="42.87329" lon="-0.00329">
        <ele>715</ele>
        <time>2022-08-28T01:57:04.000Z</time>
      </trkpt>
      <trkpt lat="42.87299" lon="-0.00295">
        <ele>718</ele>
        <time>2022-08-28T01:57:11.000Z</time>
      </trkpt>
      <trkpt lat="42.87229" lon="-0.00174">
        <ele>728</ele>
        <time>2022-08-28T01:57:31.000Z</time>
      </trkpt>
      <trkpt lat="42.87281" lon="8.0E-5">
        <ele>732</ele>
        <time>2022-08-28T01:57:57.000Z</time>
      </trkpt>
      <trkpt lat="42.87418" lon="0.00509">
        <ele>747</ele>
        <time>2022-08-28T01:59:06.000Z</time>
      </trkpt>
      <trkpt lat="42.87667" lon="0.00878">
        <ele>778</ele>
        <time>2022-08-28T02:00:12.000Z</time>
      </trkpt>
      <trkpt lat="42.87676" lon="0.00895">
        <ele>782</ele>
        <time>2022-08-28T02:00:15.000Z</time>
      </trkpt>
      <trkpt lat="42.87692" lon="0.00935">
        <ele>786</ele>
        <time>2022-08-28T02:00:21.000Z</time>
      </trkpt>
      <trkpt lat="42.8773" lon="0.01067">
        <ele>791</ele>
        <time>2022-08-28T02:00:39.000Z</time>
      </trkpt>
      <trkpt lat="42.87796" lon="0.01236">
        <ele>806</ele>
        <time>2022-08-28T02:01:04.000Z</time>
      </trkpt>
      <trkpt lat="42.87808" lon="0.01276">
        <ele>806</ele>
        <time>2022-08-28T02:01:10.000Z</time>
      </trkpt>
      <trkpt lat="42.87815" lon="0.01311">
        <ele>806</ele>
        <time>2022-08-28T02:01:14.000Z</time>
      </trkpt>
      <trkpt lat="42.87817" lon="0.01334">
        <ele>808</ele>
        <time>2022-08-28T02:01:17.000Z</time>
      </trkpt>
      <trkpt lat="42.8784" lon="0.01849">
        <ele>829</ele>
        <time>2022-08-28T02:02:25.000Z</time>
      </trkpt>
      <trkpt lat="42.87858" lon="0.02255">
        <ele>866</ele>
        <time>2022-08-28T02:03:18.000Z</time>
      </trkpt>
      <trkpt lat="42.87901" lon="0.02453">
        <ele>872</ele>
        <time>2022-08-28T02:03:45.000Z</time>
      </trkpt>
      <trkpt lat="42.87934" lon="0.02595">
        <ele>881</ele>
        <time>2022-08-28T02:04:04.000Z</time>
      </trkpt>
      <trkpt lat="42.87952" lon="0.02634">
        <ele>885</ele>
        <time>2022-08-28T02:04:10.000Z</time>
      </trkpt>
      <trkpt lat="42.87985" lon="0.02676">
        <ele>882</ele>
        <time>2022-08-28T02:04:18.000Z</time>
      </trkpt>
      <trkpt lat="42.88318" lon="0.03062">
        <ele>925</ele>
        <time>2022-08-28T02:05:36.000Z</time>
      </trkpt>
      <trkpt lat="42.88328" lon="0.03095">
        <ele>924</ele>
        <time>2022-08-28T02:05:41.000Z</time>
      </trkpt>
      <trkpt lat="42.88333" lon="0.03127">
        <ele>926</ele>
        <time>2022-08-28T02:05:45.000Z</time>
      </trkpt>
      <trkpt lat="42.88332" lon="0.03155">
        <ele>930</ele>
        <time>2022-08-28T02:05:49.000Z</time>
      </trkpt>
      <trkpt lat="42.88305" lon="0.03239">
        <ele>947</ele>
        <time>2022-08-28T02:06:01.000Z</time>
      </trkpt>
      <trkpt lat="42.88295" lon="0.03301">
        <ele>953</ele>
        <time>2022-08-28T02:06:09.000Z</time>
      </trkpt>
      <trkpt lat="42.88296" lon="0.03418">
        <ele>957</ele>
        <time>2022-08-28T02:06:24.000Z</time>
      </trkpt>
      <trkpt lat="42.88292" lon="0.0346">
        <ele>959</ele>
        <time>2022-08-28T02:06:30.000Z</time>
      </trkpt>
      <trkpt lat="42.88248" lon="0.03566">
        <ele>968</ele>
        <time>2022-08-28T02:06:46.000Z</time>
      </trkpt>
      <trkpt lat="42.88248" lon="0.03591">
        <ele>967</ele>
        <time>2022-08-28T02:06:49.000Z</time>
      </trkpt>
      <trkpt lat="42.88258" lon="0.03669">
        <ele>969</ele>
        <time>2022-08-28T02:06:59.000Z</time>
      </trkpt>
      <trkpt lat="42.88272" lon="0.03754">
        <ele>977</ele>
        <time>2022-08-28T02:07:11.000Z</time>
      </trkpt>
      <trkpt lat="42.88374" lon="0.04005">
        <ele>991</ele>
        <time>2022-08-28T02:09:41.000Z</time>
      </trkpt>
      <trkpt lat="42.88376" lon="0.04015">
        <ele>992</ele>
        <time>2022-08-28T02:09:42.000Z</time>
      </trkpt>
      <trkpt lat="42.88364" lon="0.04036">
        <ele>996</ele>
        <time>2022-08-28T02:09:46.000Z</time>
      </trkpt>
      <trkpt lat="42.88353" lon="0.04033">
        <ele>996</ele>
        <time>2022-08-28T02:09:48.000Z</time>
      </trkpt>
      <trkpt lat="42.88319" lon="0.03977">
        <ele>988</ele>
        <time>2022-08-28T02:09:57.000Z</time>
      </trkpt>
      <trkpt lat="42.88273" lon="0.03947">
        <ele>995</ele>
        <time>2022-08-28T02:10:06.000Z</time>
      </trkpt>
      <trkpt lat="42.88262" lon="0.03947">
        <ele>997</ele>
        <time>2022-08-28T02:10:08.000Z</time>
      </trkpt>
      <trkpt lat="42.88253" lon="0.03967">
        <ele>1000</ele>
        <time>2022-08-28T02:10:12.000Z</time>
      </trkpt>
      <trkpt lat="42.88255" lon="0.03975">
        <ele>1000</ele>
        <time>2022-08-28T02:10:13.000Z</time>
      </trkpt>
      <trkpt lat="42.88288" lon="0.0399">
        <ele>995</ele>
        <time>2022-08-28T02:10:19.000Z</time>
      </trkpt>
      <trkpt lat="42.88306" lon="0.04001">
        <ele>993</ele>
        <time>2022-08-28T02:10:23.000Z</time>
      </trkpt>
      <trkpt lat="42.88491" lon="0.04254">
        <ele>1026</ele>
        <time>2022-08-28T02:11:09.000Z</time>
      </trkpt>
      <trkpt lat="42.88518" lon="0.04282">
        <ele>1031</ele>
        <time>2022-08-28T02:11:15.000Z</time>
      </trkpt>
      <trkpt lat="42.88568" lon="0.04372">
        <ele>1037</ele>
        <time>2022-08-28T02:11:30.000Z</time>
      </trkpt>
      <trkpt lat="42.88653" lon="0.04488">
        <ele>1049</ele>
        <time>2022-08-28T02:11:51.000Z</time>
      </trkpt>
      <trkpt lat="42.88699" lon="0.04512">
        <ele>1048</ele>
        <time>2022-08-28T02:12:00.000Z</time>
      </trkpt>
      <trkpt lat="42.88711" lon="0.04524">
        <ele>1050</ele>
        <time>2022-08-28T02:12:03.000Z</time>
      </trkpt>
      <trkpt lat="42.88746" lon="0.04592">
        <ele>1056</ele>
        <time>2022-08-28T02:12:14.000Z</time>
      </trkpt>
      <trkpt lat="42.88771" lon="0.04617">
        <ele>1063</ele>
        <time>2022-08-28T02:12:19.000Z</time>
      </trkpt>
      <trkpt lat="42.88822" lon="0.04637">
        <ele>1061</ele>
        <time>2022-08-28T02:12:29.000Z</time>
      </trkpt>
      <trkpt lat="42.88865" lon="0.04643">
        <ele>1063</ele>
        <time>2022-08-28T02:12:36.000Z</time>
      </trkpt>
      <trkpt lat="42.8902" lon="0.04712">
        <ele>1078</ele>
        <time>2022-08-28T02:13:05.000Z</time>
      </trkpt>
      <trkpt lat="42.89048" lon="0.04742">
        <ele>1080</ele>
        <time>2022-08-28T02:13:12.000Z</time>
      </trkpt>
      <trkpt lat="42.89112" lon="0.04843">
        <ele>1094</ele>
        <time>2022-08-28T02:13:29.000Z</time>
      </trkpt>
      <trkpt lat="42.89116" lon="0.04857">
        <ele>1095</ele>
        <time>2022-08-28T02:13:31.000Z</time>
      </trkpt>
      <trkpt lat="42.89103" lon="0.04878">
        <ele>1096</ele>
        <time>2022-08-28T02:13:35.000Z</time>
      </trkpt>
      <trkpt lat="42.89095" lon="0.04876">
        <ele>1095</ele>
        <time>2022-08-28T02:13:36.000Z</time>
      </trkpt>
      <trkpt lat="42.89076" lon="0.04857">
        <ele>1093</ele>
        <time>2022-08-28T02:13:41.000Z</time>
      </trkpt>
      <trkpt lat="42.89047" lon="0.04801">
        <ele>1087</ele>
        <time>2022-08-28T02:13:50.000Z</time>
      </trkpt>
      <trkpt lat="42.89029" lon="0.04794">
        <ele>1087</ele>
        <time>2022-08-28T02:13:53.000Z</time>
      </trkpt>
      <trkpt lat="42.89025" lon="0.04797">
        <ele>1088</ele>
        <time>2022-08-28T02:13:54.000Z</time>
      </trkpt>
      <trkpt lat="42.89018" lon="0.04818">
        <ele>1091</ele>
        <time>2022-08-28T02:13:57.000Z</time>
      </trkpt>
      <trkpt lat="42.89022" lon="0.04831">
        <ele>1093</ele>
        <time>2022-08-28T02:13:59.000Z</time>
      </trkpt>
      <trkpt lat="42.89055" lon="0.04875">
        <ele>1097</ele>
        <time>2022-08-28T02:14:07.000Z</time>
      </trkpt>
      <trkpt lat="42.8906" lon="0.04947">
        <ele>1108</ele>
        <time>2022-08-28T02:14:16.000Z</time>
      </trkpt>
      <trkpt lat="42.89067" lon="0.04972">
        <ele>1112</ele>
        <time>2022-08-28T02:14:20.000Z</time>
      </trkpt>
      <trkpt lat="42.89125" lon="0.05057">
        <ele>1122</ele>
        <time>2022-08-28T02:14:35.000Z</time>
      </trkpt>
      <trkpt lat="42.89205" lon="0.05107">
        <ele>1117</ele>
        <time>2022-08-28T02:14:51.000Z</time>
      </trkpt>
      <trkpt lat="42.89286" lon="0.05275">
        <ele>1133</ele>
        <time>2022-08-28T02:15:17.000Z</time>
      </trkpt>
      <trkpt lat="42.893" lon="0.0536">
        <ele>1146</ele>
        <time>2022-08-28T02:15:28.000Z</time>
      </trkpt>
      <trkpt lat="42.89308" lon="0.05393">
        <ele>1150</ele>
        <time>2022-08-28T02:15:33.000Z</time>
      </trkpt>
      <trkpt lat="42.89335" lon="0.05459">
        <ele>1157</ele>
        <time>2022-08-28T02:15:43.000Z</time>
      </trkpt>
      <trkpt lat="42.89416" lon="0.05641">
        <ele>1164</ele>
        <time>2022-08-28T02:16:10.000Z</time>
      </trkpt>
      <trkpt lat="42.89438" lon="0.05717">
        <ele>1175</ele>
        <time>2022-08-28T02:16:21.000Z</time>
      </trkpt>
      <trkpt lat="42.89456" lon="0.05762">
        <ele>1179</ele>
        <time>2022-08-28T02:16:28.000Z</time>
      </trkpt>
      <trkpt lat="42.89463" lon="0.05776">
        <ele>1181</ele>
        <time>2022-08-28T02:16:30.000Z</time>
      </trkpt>
      <trkpt lat="42.89498" lon="0.05825">
        <ele>1180</ele>
        <time>2022-08-28T02:16:39.000Z</time>
      </trkpt>
      <trkpt lat="42.89547" lon="0.05859">
        <ele>1183</ele>
        <time>2022-08-28T02:16:49.000Z</time>
      </trkpt>
      <trkpt lat="42.89561" lon="0.0587">
        <ele>1184</ele>
        <time>2022-08-28T02:16:52.000Z</time>
      </trkpt>
      <trkpt lat="42.89562" lon="0.05904">
        <ele>1187</ele>
        <time>2022-08-28T02:16:56.000Z</time>
      </trkpt>
      <trkpt lat="42.89558" lon="0.05908">
        <ele>1188</ele>
        <time>2022-08-28T02:16:57.000Z</time>
      </trkpt>
      <trkpt lat="42.89547" lon="0.05913">
        <ele>1188</ele>
        <time>2022-08-28T02:16:59.000Z</time>
      </trkpt>
      <trkpt lat="42.8954" lon="0.05912">
        <ele>1189</ele>
        <time>2022-08-28T02:17:01.000Z</time>
      </trkpt>
      <trkpt lat="42.89524" lon="0.05898">
        <ele>1188</ele>
        <time>2022-08-28T02:17:04.000Z</time>
      </trkpt>
      <trkpt lat="42.89513" lon="0.05896">
        <ele>1188</ele>
        <time>2022-08-28T02:17:06.000Z</time>
      </trkpt>
      <trkpt lat="42.89498" lon="0.0591">
        <ele>1191</ele>
        <time>2022-08-28T02:17:09.000Z</time>
      </trkpt>
      <trkpt lat="42.89495" lon="0.05932">
        <ele>1197</ele>
        <time>2022-08-28T02:17:12.000Z</time>
      </trkpt>
      <trkpt lat="42.89501" lon="0.05947">
        <ele>1199</ele>
        <time>2022-08-28T02:17:14.000Z</time>
      </trkpt>
      <trkpt lat="42.89512" lon="0.05953">
        <ele>1199</ele>
        <time>2022-08-28T02:17:16.000Z</time>
      </trkpt>
      <trkpt lat="42.89551" lon="0.05946">
        <ele>1194</ele>
        <time>2022-08-28T02:17:23.000Z</time>
      </trkpt>
      <trkpt lat="42.89567" lon="0.05947">
        <ele>1193</ele>
        <time>2022-08-28T02:17:26.000Z</time>
      </trkpt>
      <trkpt lat="42.89589" lon="0.05965">
        <ele>1195</ele>
        <time>2022-08-28T02:17:31.000Z</time>
      </trkpt>
      <trkpt lat="42.89598" lon="0.05991">
        <ele>1199</ele>
        <time>2022-08-28T02:17:35.000Z</time>
      </trkpt>
      <trkpt lat="42.8961" lon="0.0621">
        <ele>1219</ele>
        <time>2022-08-28T02:18:03.000Z</time>
      </trkpt>
      <trkpt lat="42.89623" lon="0.06337">
        <ele>1227</ele>
        <time>2022-08-28T02:18:20.000Z</time>
      </trkpt>
      <trkpt lat="42.89764" lon="0.06722">
        <ele>1253</ele>
        <time>2022-08-28T02:19:16.000Z</time>
      </trkpt>
      <trkpt lat="42.89775" lon="0.06765">
        <ele>1259</ele>
        <time>2022-08-28T02:19:22.000Z</time>
      </trkpt>
      <trkpt lat="42.89808" lon="0.06964">
        <ele>1275</ele>
        <time>2022-08-28T02:19:49.000Z</time>
      </trkpt>
      <trkpt lat="42.89844" lon="0.07194">
        <ele>1294</ele>
        <time>2022-08-28T02:20:19.000Z</time>
      </trkpt>
      <trkpt lat="42.89856" lon="0.07475">
        <ele>1317</ele>
        <time>2022-08-28T02:20:56.000Z</time>
      </trkpt>
      <trkpt lat="42.89859" lon="0.0749">
        <ele>1317</ele>
        <time>2022-08-28T02:20:58.000Z</time>
      </trkpt>
      <trkpt lat="42.89929" lon="0.07619">
        <ele>1313</ele>
        <time>2022-08-28T02:21:19.000Z</time>
      </trkpt>
      <trkpt lat="42.89938" lon="0.07643">
        <ele>1315</ele>
        <time>2022-08-28T02:21:23.000Z</time>
      </trkpt>
      <trkpt lat="42.89963" lon="0.07781">
        <ele>1329</ele>
        <time>2022-08-28T02:21:41.000Z</time>
      </trkpt>
      <trkpt lat="42.89971" lon="0.07827">
        <ele>1332</ele>
        <time>2022-08-28T02:21:47.000Z</time>
      </trkpt>
      <trkpt lat="42.90058" lon="0.08081">
        <ele>1363</ele>
        <time>2022-08-28T02:22:24.000Z</time>
      </trkpt>
      <trkpt lat="42.90088" lon="0.08196">
        <ele>1377</ele>
        <time>2022-08-28T02:22:40.000Z</time>
      </trkpt>
      <trkpt lat="42.90139" lon="0.08294">
        <ele>1375</ele>
        <time>2022-08-28T02:22:56.000Z</time>
      </trkpt>
      <trkpt lat="42.90153" lon="0.08337">
        <ele>1375</ele>
        <time>2022-08-28T02:23:02.000Z</time>
      </trkpt>
      <trkpt lat="42.90153" lon="0.08417">
        <ele>1389</ele>
        <time>2022-08-28T02:23:12.000Z</time>
      </trkpt>
      <trkpt lat="42.90165" lon="0.08488">
        <ele>1394</ele>
        <time>2022-08-28T02:23:22.000Z</time>
      </trkpt>
      <trkpt lat="42.90184" lon="0.08686">
        <ele>1414</ele>
        <time>2022-08-28T02:23:48.000Z</time>
      </trkpt>
      <trkpt lat="42.90218" lon="0.08799">
        <ele>1412</ele>
        <time>2022-08-28T02:24:04.000Z</time>
      </trkpt>
      <trkpt lat="42.90269" lon="0.08993">
        <ele>1416</ele>
        <time>2022-08-28T02:24:30.000Z</time>
      </trkpt>
      <trkpt lat="42.90266" lon="0.0909">
        <ele>1419</ele>
        <time>2022-08-28T02:24:43.000Z</time>
      </trkpt>
      <trkpt lat="42.90268" lon="0.0914">
        <ele>1424</ele>
        <time>2022-08-28T02:24:50.000Z</time>
      </trkpt>
      <trkpt lat="42.90312" lon="0.09334">
        <ele>1432</ele>
        <time>2022-08-28T02:25:16.000Z</time>
      </trkpt>
      <trkpt lat="42.90328" lon="0.0942">
        <ele>1433</ele>
        <time>2022-08-28T02:25:28.000Z</time>
      </trkpt>
      <trkpt lat="42.90331" lon="0.09478">
        <ele>1435</ele>
        <time>2022-08-28T02:25:35.000Z</time>
      </trkpt>
      <trkpt lat="42.90322" lon="0.09535">
        <ele>1446</ele>
        <time>2022-08-28T02:25:43.000Z</time>
      </trkpt>
      <trkpt lat="42.90321" lon="0.09635">
        <ele>1455</ele>
        <time>2022-08-28T02:25:56.000Z</time>
      </trkpt>
      <trkpt lat="42.90337" lon="0.09936">
        <ele>1462</ele>
        <time>2022-08-28T02:26:35.000Z</time>
      </trkpt>
      <trkpt lat="42.90336" lon="0.0999">
        <ele>1464</ele>
        <time>2022-08-28T02:26:42.000Z</time>
      </trkpt>
      <trkpt lat="42.90203" lon="0.10212">
        <ele>1485</ele>
        <time>2022-08-28T02:27:20.000Z</time>
      </trkpt>
      <trkpt lat="42.90134" lon="0.10295">
        <ele>1490</ele>
        <time>2022-08-28T02:27:36.000Z</time>
      </trkpt>
      <trkpt lat="42.90067" lon="0.1032">
        <ele>1499</ele>
        <time>2022-08-28T02:27:49.000Z</time>
      </trkpt>
      <trkpt lat="42.89934" lon="0.10369">
        <ele>1516</ele>
        <time>2022-08-28T02:28:13.000Z</time>
      </trkpt>
      <trkpt lat="42.89807" lon="0.10442">
        <ele>1521</ele>
        <time>2022-08-28T02:28:38.000Z</time>
      </trkpt>
      <trkpt lat="42.89762" lon="0.1046">
        <ele>1528</ele>
        <time>2022-08-28T02:28:46.000Z</time>
      </trkpt>
      <trkpt lat="42.89736" lon="0.10461">
        <ele>1532</ele>
        <time>2022-08-28T02:28:51.000Z</time>
      </trkpt>
      <trkpt lat="42.89668" lon="0.10485">
        <ele>1535</ele>
        <time>2022-08-28T02:29:03.000Z</time>
      </trkpt>
      <trkpt lat="42.89646" lon="0.10487">
        <ele>1536</ele>
        <time>2022-08-28T02:29:07.000Z</time>
      </trkpt>
      <trkpt lat="42.89563" lon="0.10455">
        <ele>1549</ele>
        <time>2022-08-28T02:29:22.000Z</time>
      </trkpt>
      <trkpt lat="42.89556" lon="0.10456">
        <ele>1550</ele>
        <time>2022-08-28T02:29:24.000Z</time>
      </trkpt>
      <trkpt lat="42.89512" lon="0.10603">
        <ele>1549</ele>
        <time>2022-08-28T02:29:45.000Z</time>
      </trkpt>
      <trkpt lat="42.8951" lon="0.10626">
        <ele>1552</ele>
        <time>2022-08-28T02:29:48.000Z</time>
      </trkpt>
      <trkpt lat="42.89514" lon="0.10653">
        <ele>1554</ele>
        <time>2022-08-28T02:29:51.000Z</time>
      </trkpt>
      <trkpt lat="42.89521" lon="0.10665">
        <ele>1554</ele>
        <time>2022-08-28T02:29:53.000Z</time>
      </trkpt>
      <trkpt lat="42.89576" lon="0.10729">
        <ele>1562</ele>
        <time>2022-08-28T02:30:06.000Z</time>
      </trkpt>
      <trkpt lat="42.89588" lon="0.1074">
        <ele>1563</ele>
        <time>2022-08-28T02:30:09.000Z</time>
      </trkpt>
      <trkpt lat="42.89629" lon="0.10748">
        <ele>1563</ele>
        <time>2022-08-28T02:30:16.000Z</time>
      </trkpt>
      <trkpt lat="42.89646" lon="0.10754">
        <ele>1564</ele>
        <time>2022-08-28T02:30:19.000Z</time>
      </trkpt>
      <trkpt lat="42.89697" lon="0.10791">
        <ele>1575</ele>
        <time>2022-08-28T02:30:30.000Z</time>
      </trkpt>
      <trkpt lat="42.89721" lon="0.10798">
        <ele>1575</ele>
        <time>2022-08-28T02:30:34.000Z</time>
      </trkpt>
      <trkpt lat="42.89776" lon="0.10823">
        <ele>1581</ele>
        <time>2022-08-28T02:30:44.000Z</time>
      </trkpt>
      <trkpt lat="42.89819" lon="0.10829">
        <ele>1582</ele>
        <time>2022-08-28T02:30:52.000Z</time>
      </trkpt>
      <trkpt lat="42.89836" lon="0.10835">
        <ele>1583</ele>
        <time>2022-08-28T02:30:55.000Z</time>
      </trkpt>
      <trkpt lat="42.89887" lon="0.10871">
        <ele>1595</ele>
        <time>2022-08-28T02:31:05.000Z</time>
      </trkpt>
      <trkpt lat="42.89938" lon="0.10892">
        <ele>1604</ele>
        <time>2022-08-28T02:31:15.000Z</time>
      </trkpt>
      <trkpt lat="42.89999" lon="0.10891">
        <ele>1608</ele>
        <time>2022-08-28T02:31:26.000Z</time>
      </trkpt>
      <trkpt lat="42.90025" lon="0.10889">
        <ele>1609</ele>
        <time>2022-08-28T02:31:30.000Z</time>
      </trkpt>
      <trkpt lat="42.90034" lon="0.10884">
        <ele>1608</ele>
        <time>2022-08-28T02:31:32.000Z</time>
      </trkpt>
      <trkpt lat="42.90118" lon="0.10855">
        <ele>1608</ele>
        <time>2022-08-28T02:31:47.000Z</time>
      </trkpt>
      <trkpt lat="42.90264" lon="0.10816">
        <ele>1626</ele>
        <time>2022-08-28T02:32:14.000Z</time>
      </trkpt>
      <trkpt lat="42.90319" lon="0.1081">
        <ele>1623</ele>
        <time>2022-08-28T02:32:24.000Z</time>
      </trkpt>
      <trkpt lat="42.90329" lon="0.10814">
        <ele>1625</ele>
        <time>2022-08-28T02:32:26.000Z</time>
      </trkpt>
      <trkpt lat="42.90366" lon="0.10893">
        <ele>1643</ele>
        <time>2022-08-28T02:32:38.000Z</time>
      </trkpt>
      <trkpt lat="42.90398" lon="0.10952">
        <ele>1647</ele>
        <time>2022-08-28T02:32:47.000Z</time>
      </trkpt>
      <trkpt lat="42.90493" lon="0.11324">
        <ele>1674</ele>
        <time>2022-08-28T02:33:39.000Z</time>
      </trkpt>
      <trkpt lat="42.90518" lon="0.11378">
        <ele>1670</ele>
        <time>2022-08-28T02:33:47.000Z</time>
      </trkpt>
      <trkpt lat="42.90522" lon="0.1175">
        <ele>1702</ele>
        <time>2022-08-28T02:34:36.000Z</time>
      </trkpt>
      <trkpt lat="42.90518" lon="0.11781">
        <ele>1708</ele>
        <time>2022-08-28T02:34:40.000Z</time>
      </trkpt>
      <trkpt lat="42.90536" lon="0.1186">
        <ele>1706</ele>
        <time>2022-08-28T02:34:51.000Z</time>
      </trkpt>
      <trkpt lat="42.9054" lon="0.11886">
        <ele>1708</ele>
        <time>2022-08-28T02:34:54.000Z</time>
      </trkpt>
      <trkpt lat="42.9054" lon="0.1197">
        <ele>1721</ele>
        <time>2022-08-28T02:35:05.000Z</time>
      </trkpt>
      <trkpt lat="42.90538" lon="0.12024">
        <ele>1726</ele>
        <time>2022-08-28T02:35:12.000Z</time>
      </trkpt>
      <trkpt lat="42.90486" lon="0.12182">
        <ele>1731</ele>
        <time>2022-08-28T02:35:35.000Z</time>
      </trkpt>
      <trkpt lat="42.90482" lon="0.12207">
        <ele>1731</ele>
        <time>2022-08-28T02:35:38.000Z</time>
      </trkpt>
      <trkpt lat="42.90467" lon="0.1223">
        <ele>1736</ele>
        <time>2022-08-28T02:35:42.000Z</time>
      </trkpt>
      <trkpt lat="42.90464" lon="0.12239">
        <ele>1737</ele>
        <time>2022-08-28T02:35:43.000Z</time>
      </trkpt>
      <trkpt lat="42.90465" lon="0.12278">
        <ele>1737</ele>
        <time>2022-08-28T02:35:49.000Z</time>
      </trkpt>
      <trkpt lat="42.90463" lon="0.12296">
        <ele>1738</ele>
        <time>2022-08-28T02:35:51.000Z</time>
      </trkpt>
      <trkpt lat="42.90449" lon="0.1234">
        <ele>1743</ele>
        <time>2022-08-28T02:35:57.000Z</time>
      </trkpt>
      <trkpt lat="42.90421" lon="0.12452">
        <ele>1749</ele>
        <time>2022-08-28T02:36:13.000Z</time>
      </trkpt>
      <trkpt lat="42.90397" lon="0.12475">
        <ele>1761</ele>
        <time>2022-08-28T02:36:18.000Z</time>
      </trkpt>
      <trkpt lat="42.9039" lon="0.12488">
        <ele>1765</ele>
        <time>2022-08-28T02:36:20.000Z</time>
      </trkpt>
      <trkpt lat="42.90396" lon="0.12542">
        <ele>1766</ele>
        <time>2022-08-28T02:36:27.000Z</time>
      </trkpt>
      <trkpt lat="42.9039" lon="0.12614">
        <ele>1775</ele>
        <time>2022-08-28T02:36:37.000Z</time>
      </trkpt>
      <trkpt lat="42.90397" lon="0.12646">
        <ele>1775</ele>
        <time>2022-08-28T02:36:41.000Z</time>
      </trkpt>
      <trkpt lat="42.90373" lon="0.12682">
        <ele>1786</ele>
        <time>2022-08-28T02:36:48.000Z</time>
      </trkpt>
      <trkpt lat="42.90371" lon="0.12689">
        <ele>1787</ele>
        <time>2022-08-28T02:36:49.000Z</time>
      </trkpt>
      <trkpt lat="42.90376" lon="0.12736">
        <ele>1783</ele>
        <time>2022-08-28T02:36:55.000Z</time>
      </trkpt>
      <trkpt lat="42.90356" lon="0.12791">
        <ele>1792</ele>
        <time>2022-08-28T02:37:03.000Z</time>
      </trkpt>
      <trkpt lat="42.90379" lon="0.12882">
        <ele>1787</ele>
        <time>2022-08-28T02:37:15.000Z</time>
      </trkpt>
      <trkpt lat="42.90377" lon="0.12926">
        <ele>1790</ele>
        <time>2022-08-28T02:37:21.000Z</time>
      </trkpt>
      <trkpt lat="42.9036" lon="0.12984">
        <ele>1795</ele>
        <time>2022-08-28T02:37:29.000Z</time>
      </trkpt>
      <trkpt lat="42.90338" lon="0.13062">
        <ele>1801</ele>
        <time>2022-08-28T02:37:40.000Z</time>
      </trkpt>
      <trkpt lat="42.90342" lon="0.13114">
        <ele>1797</ele>
        <time>2022-08-28T02:37:47.000Z</time>
      </trkpt>
      <trkpt lat="42.9034" lon="0.1313">
        <ele>1798</ele>
        <time>2022-08-28T02:37:49.000Z</time>
      </trkpt>
      <trkpt lat="42.9031" lon="0.1317">
        <ele>1809</ele>
        <time>2022-08-28T02:37:57.000Z</time>
      </trkpt>
      <trkpt lat="42.90276" lon="0.13221">
        <ele>1819</ele>
        <time>2022-08-28T02:38:06.000Z</time>
      </trkpt>
      <trkpt lat="42.90202" lon="0.13241">
        <ele>1827</ele>
        <time>2022-08-28T02:38:19.000Z</time>
      </trkpt>
      <trkpt lat="42.90199" lon="0.13243">
        <ele>1827</ele>
        <time>2022-08-28T02:38:20.000Z</time>
      </trkpt>
      <trkpt lat="42.90193" lon="0.13259">
        <ele>1828</ele>
        <time>2022-08-28T02:38:22.000Z</time>
      </trkpt>
      <trkpt lat="42.90193" lon="0.13266">
        <ele>1829</ele>
        <time>2022-08-28T02:38:23.000Z</time>
      </trkpt>
      <trkpt lat="42.90223" lon="0.13355">
        <ele>1837</ele>
        <time>2022-08-28T02:38:36.000Z</time>
      </trkpt>
      <trkpt lat="42.90226" lon="0.1339">
        <ele>1841</ele>
        <time>2022-08-28T02:38:41.000Z</time>
      </trkpt>
      <trkpt lat="42.90266" lon="0.13421">
        <ele>1838</ele>
        <time>2022-08-28T02:38:49.000Z</time>
      </trkpt>
      <trkpt lat="42.90276" lon="0.13448">
        <ele>1843</ele>
        <time>2022-08-28T02:38:53.000Z</time>
      </trkpt>
      <trkpt lat="42.90279" lon="0.13476">
        <ele>1848</ele>
        <time>2022-08-28T02:38:57.000Z</time>
      </trkpt>
      <trkpt lat="42.90272" lon="0.13512">
        <ele>1857</ele>
        <time>2022-08-28T02:39:02.000Z</time>
      </trkpt>
      <trkpt lat="42.90285" lon="0.13567">
        <ele>1858</ele>
        <time>2022-08-28T02:39:09.000Z</time>
      </trkpt>
      <trkpt lat="42.90291" lon="0.13606">
        <ele>1862</ele>
        <time>2022-08-28T02:39:14.000Z</time>
      </trkpt>
      <trkpt lat="42.90324" lon="0.13617">
        <ele>1857</ele>
        <time>2022-08-28T02:39:20.000Z</time>
      </trkpt>
      <trkpt lat="42.90351" lon="0.13639">
        <ele>1854</ele>
        <time>2022-08-28T02:39:26.000Z</time>
      </trkpt>
      <trkpt lat="42.9037" lon="0.13688">
        <ele>1858</ele>
        <time>2022-08-28T02:39:33.000Z</time>
      </trkpt>
      <trkpt lat="42.90381" lon="0.13698">
        <ele>1858</ele>
        <time>2022-08-28T02:39:36.000Z</time>
      </trkpt>
      <trkpt lat="42.90427" lon="0.13714">
        <ele>1858</ele>
        <time>2022-08-28T02:39:44.000Z</time>
      </trkpt>
      <trkpt lat="42.90478" lon="0.13712">
        <ele>1858</ele>
        <time>2022-08-28T02:39:53.000Z</time>
      </trkpt>
      <trkpt lat="42.90491" lon="0.13717">
        <ele>1860</ele>
        <time>2022-08-28T02:39:56.000Z</time>
      </trkpt>
      <trkpt lat="42.90512" lon="0.13739">
        <ele>1865</ele>
        <time>2022-08-28T02:40:00.000Z</time>
      </trkpt>
      <trkpt lat="42.90538" lon="0.13789">
        <ele>1876</ele>
        <time>2022-08-28T02:40:08.000Z</time>
      </trkpt>
      <trkpt lat="42.90627" lon="0.13864">
        <ele>1896</ele>
        <time>2022-08-28T02:40:27.000Z</time>
      </trkpt>
      <trkpt lat="42.90648" lon="0.13872">
        <ele>1898</ele>
        <time>2022-08-28T02:40:31.000Z</time>
      </trkpt>
      <trkpt lat="42.90728" lon="0.13862">
        <ele>1907</ele>
        <time>2022-08-28T02:40:46.000Z</time>
      </trkpt>
      <trkpt lat="42.9074" lon="0.13859">
        <ele>1908</ele>
        <time>2022-08-28T02:40:48.000Z</time>
      </trkpt>
      <trkpt lat="42.90784" lon="0.13814">
        <ele>1905</ele>
        <time>2022-08-28T02:40:58.000Z</time>
      </trkpt>
      <trkpt lat="42.90795" lon="0.13804">
        <ele>1904</ele>
        <time>2022-08-28T02:41:00.000Z</time>
      </trkpt>
      <trkpt lat="42.90833" lon="0.13782">
        <ele>1906</ele>
        <time>2022-08-28T02:41:07.000Z</time>
      </trkpt>
      <trkpt lat="42.90848" lon="0.1378">
        <ele>1907</ele>
        <time>2022-08-28T02:41:10.000Z</time>
      </trkpt>
      <trkpt lat="42.90896" lon="0.13783">
        <ele>1915</ele>
        <time>2022-08-28T02:41:18.000Z</time>
      </trkpt>
      <trkpt lat="42.90925" lon="0.13795">
        <ele>1925</ele>
        <time>2022-08-28T02:41:24.000Z</time>
      </trkpt>
      <trkpt lat="42.9097" lon="0.13803">
        <ele>1927</ele>
        <time>2022-08-28T02:41:32.000Z</time>
      </trkpt>
      <trkpt lat="42.91033" lon="0.13805">
        <ele>1926</ele>
        <time>2022-08-28T02:41:43.000Z</time>
      </trkpt>
      <trkpt lat="42.91062" lon="0.13807">
        <ele>1926</ele>
        <time>2022-08-28T02:41:48.000Z</time>
      </trkpt>
      <trkpt lat="42.91095" lon="0.13857">
        <ele>1948</ele>
        <time>2022-08-28T02:41:57.000Z</time>
      </trkpt>
      <trkpt lat="42.91102" lon="0.13858">
        <ele>1949</ele>
        <time>2022-08-28T02:41:59.000Z</time>
      </trkpt>
      <trkpt lat="42.91148" lon="0.13801">
        <ele>1923</ele>
        <time>2022-08-28T02:42:10.000Z</time>
      </trkpt>
      <trkpt lat="42.91162" lon="0.13789">
        <ele>1918</ele>
        <time>2022-08-28T02:42:13.000Z</time>
      </trkpt>
      <trkpt lat="42.91231" lon="0.13782">
        <ele>1936</ele>
        <time>2022-08-28T02:42:25.000Z</time>
      </trkpt>
      <trkpt lat="42.91255" lon="0.13767">
        <ele>1938</ele>
        <time>2022-08-28T02:42:30.000Z</time>
      </trkpt>
      <trkpt lat="42.9129" lon="0.13701">
        <ele>1925</ele>
        <time>2022-08-28T02:42:40.000Z</time>
      </trkpt>
      <trkpt lat="42.91307" lon="0.1368">
        <ele>1924</ele>
        <time>2022-08-28T02:42:44.000Z</time>
      </trkpt>
      <trkpt lat="42.91332" lon="0.13681">
        <ele>1933</ele>
        <time>2022-08-28T02:42:49.000Z</time>
      </trkpt>
      <trkpt lat="42.91338" lon="0.13691">
        <ele>1938</ele>
        <time>2022-08-28T02:42:51.000Z</time>
      </trkpt>
      <trkpt lat="42.91339" lon="0.13708">
        <ele>1944</ele>
        <time>2022-08-28T02:42:53.000Z</time>
      </trkpt>
      <trkpt lat="42.91333" lon="0.1372">
        <ele>1947</ele>
        <time>2022-08-28T02:42:55.000Z</time>
      </trkpt>
      <trkpt lat="42.91296" lon="0.13744">
        <ele>1942</ele>
        <time>2022-08-28T02:43:02.000Z</time>
      </trkpt>
      <trkpt lat="42.91269" lon="0.13792">
        <ele>1953</ele>
        <time>2022-08-28T02:43:10.000Z</time>
      </trkpt>
      <trkpt lat="42.91251" lon="0.13816">
        <ele>1956</ele>
        <time>2022-08-28T02:43:15.000Z</time>
      </trkpt>
      <trkpt lat="42.91177" lon="0.13848">
        <ele>1951</ele>
        <time>2022-08-28T02:43:29.000Z</time>
      </trkpt>
      <trkpt lat="42.91173" lon="0.13852">
        <ele>1952</ele>
        <time>2022-08-28T02:43:29.000Z</time>
      </trkpt>
      <trkpt lat="42.91129" lon="0.13947">
        <ele>2000</ele>
        <time>2022-08-28T02:43:44.000Z</time>
      </trkpt>
      <trkpt lat="42.91122" lon="0.13952">
        <ele>2001</ele>
        <time>2022-08-28T02:43:46.000Z</time>
      </trkpt>
      <trkpt lat="42.91069" lon="0.13943">
        <ele>1990</ele>
        <time>2022-08-28T02:43:55.000Z</time>
      </trkpt>
      <trkpt lat="42.91031" lon="0.13935">
        <ele>1991</ele>
        <time>2022-08-28T02:44:02.000Z</time>
      </trkpt>
      <trkpt lat="42.90953" lon="0.13933">
        <ele>1997</ele>
        <time>2022-08-28T02:44:16.000Z</time>
      </trkpt>
      <trkpt lat="42.90924" lon="0.13936">
        <ele>2000</ele>
        <time>2022-08-28T02:44:21.000Z</time>
      </trkpt>
      <trkpt lat="42.90908" lon="0.13942">
        <ele>2001</ele>
        <time>2022-08-28T02:44:24.000Z</time>
      </trkpt>
      <trkpt lat="42.90884" lon="0.1396">
        <ele>2001</ele>
        <time>2022-08-28T02:44:29.000Z</time>
      </trkpt>
      <trkpt lat="42.90849" lon="0.14005">
        <ele>2006</ele>
        <time>2022-08-28T02:44:38.000Z</time>
      </trkpt>
      <trkpt lat="42.9081" lon="0.14036">
        <ele>2005</ele>
        <time>2022-08-28T02:44:46.000Z</time>
      </trkpt>
      <trkpt lat="42.90773" lon="0.14085">
        <ele>2013</ele>
        <time>2022-08-28T02:44:55.000Z</time>
      </trkpt>
      <trkpt lat="42.90747" lon="0.14123">
        <ele>2014</ele>
        <time>2022-08-28T02:45:02.000Z</time>
      </trkpt>
      <trkpt lat="42.90737" lon="0.14149">
        <ele>2018</ele>
        <time>2022-08-28T02:45:05.000Z</time>
      </trkpt>
      <trkpt lat="42.90724" lon="0.14199">
        <ele>2021</ele>
        <time>2022-08-28T02:45:12.000Z</time>
      </trkpt>
      <trkpt lat="42.90718" lon="0.14247">
        <ele>2024</ele>
        <time>2022-08-28T02:45:19.000Z</time>
      </trkpt>
      <trkpt lat="42.90739" lon="0.14303">
        <ele>2041</ele>
        <time>2022-08-28T02:45:27.000Z</time>
      </trkpt>
      <trkpt lat="42.90745" lon="0.14324">
        <ele>2045</ele>
        <time>2022-08-28T02:45:30.000Z</time>
      </trkpt>
      <trkpt lat="42.90748" lon="0.1437">
        <ele>2055</ele>
        <time>2022-08-28T02:45:36.000Z</time>
      </trkpt>
      <trkpt lat="42.90745" lon="0.14381">
        <ele>2057</ele>
        <time>2022-08-28T02:45:37.000Z</time>
      </trkpt>
      <trkpt lat="42.9071" lon="0.14416">
        <ele>2054</ele>
        <time>2022-08-28T02:45:45.000Z</time>
      </trkpt>
      <trkpt lat="42.90693" lon="0.1443">
        <ele>2055</ele>
        <time>2022-08-28T02:45:49.000Z</time>
      </trkpt>
      <trkpt lat="42.90649" lon="0.14452">
        <ele>2052</ele>
        <time>2022-08-28T02:45:57.000Z</time>
      </trkpt>
      <trkpt lat="42.90633" lon="0.14465">
        <ele>2052</ele>
        <time>2022-08-28T02:46:00.000Z</time>
      </trkpt>
      <trkpt lat="42.90621" lon="0.14485">
        <ele>2056</ele>
        <time>2022-08-28T02:46:04.000Z</time>
      </trkpt>
      <trkpt lat="42.90609" lon="0.14515">
        <ele>2061</ele>
        <time>2022-08-28T02:46:08.000Z</time>
      </trkpt>
      <trkpt lat="42.90594" lon="0.14574">
        <ele>2073</ele>
        <time>2022-08-28T02:46:16.000Z</time>
      </trkpt>
      <trkpt lat="42.90574" lon="0.14615">
        <ele>2079</ele>
        <time>2022-08-28T02:46:23.000Z</time>
      </trkpt>
      <trkpt lat="42.90555" lon="0.14639">
        <ele>2083</ele>
        <time>2022-08-28T02:46:27.000Z</time>
      </trkpt>
      <trkpt lat="42.90518" lon="0.14658">
        <ele>2081</ele>
        <time>2022-08-28T02:46:35.000Z</time>
      </trkpt>
      <trkpt lat="42.90518" lon="0.14667">
        <ele>2084</ele>
        <time>2022-08-28T02:46:36.000Z</time>
      </trkpt>
      <trkpt lat="42.90526" lon="0.14673">
        <ele>2088</ele>
        <time>2022-08-28T02:46:37.000Z</time>
      </trkpt>
      <trkpt lat="42.9057" lon="0.14654">
        <ele>2092</ele>
        <time>2022-08-28T02:46:46.000Z</time>
      </trkpt>
      <trkpt lat="42.9058" lon="0.14646">
        <ele>2091</ele>
        <time>2022-08-28T02:46:48.000Z</time>
      </trkpt>
      <trkpt lat="42.90638" lon="0.14581">
        <ele>2095</ele>
        <time>2022-08-28T02:47:01.000Z</time>
      </trkpt>
      <trkpt lat="42.90664" lon="0.14562">
        <ele>2099</ele>
        <time>2022-08-28T02:47:06.000Z</time>
      </trkpt>
      <trkpt lat="42.90681" lon="0.14533">
        <ele>2094</ele>
        <time>2022-08-28T02:47:11.000Z</time>
      </trkpt>
      <trkpt lat="42.90694" lon="0.14523">
        <ele>2094</ele>
        <time>2022-08-28T02:47:14.000Z</time>
      </trkpt>
      <trkpt lat="42.90712" lon="0.14517">
        <ele>2097</ele>
        <time>2022-08-28T02:47:17.000Z</time>
      </trkpt>
      <trkpt lat="42.90742" lon="0.14513">
        <ele>2103</ele>
        <time>2022-08-28T02:47:22.000Z</time>
      </trkpt>
      <trkpt lat="42.90783" lon="0.14522">
        <ele>2111</ele>
        <time>2022-08-28T02:47:30.000Z</time>
      </trkpt>
      <trkpt lat="42.90803" lon="0.14514">
        <ele>2113</ele>
        <time>2022-08-28T02:47:34.000Z</time>
      </trkpt>
      <trkpt lat="42.9082" lon="0.14512">
        <ele>2115</ele>
        <time>2022-08-28T02:47:37.000Z</time>
      </trkpt>
      <trkpt lat="42.90833" lon="0.14519">
        <ele>2117</ele>
        <time>2022-08-28T02:47:39.000Z</time>
      </trkpt>
      <trkpt lat="42.9084" lon="0.14528">
        <ele>2119</ele>
        <time>2022-08-28T02:47:41.000Z</time>
      </trkpt>
      <trkpt lat="42.9086" lon="0.14571">
        <ele>2121</ele>
        <time>2022-08-28T02:47:47.000Z</time>
      </trkpt>
      <trkpt lat="42.90863" lon="0.14584">
        <ele>2120</ele>
        <time>2022-08-28T02:47:49.000Z</time>
      </trkpt>
      <trkpt lat="42.90853" lon="0.14619">
        <ele>2111</ele>
        <time>2022-08-28T02:47:54.000Z</time>
      </trkpt>
      <trkpt lat="42.90773" lon="0.14722">
        <ele>2096</ele>
        <time>2022-08-28T02:48:14.000Z</time>
      </trkpt>
      <trkpt lat="42.90744" lon="0.14755">
        <ele>2089</ele>
        <time>2022-08-28T02:48:20.000Z</time>
      </trkpt>
      <trkpt lat="42.90729" lon="0.14765">
        <ele>2087</ele>
        <time>2022-08-28T02:48:23.000Z</time>
      </trkpt>
      <trkpt lat="42.90684" lon="0.1478">
        <ele>2083</ele>
        <time>2022-08-28T02:48:32.000Z</time>
      </trkpt>
      <trkpt lat="42.90633" lon="0.14791">
        <ele>2084</ele>
        <time>2022-08-28T02:48:41.000Z</time>
      </trkpt>
      <trkpt lat="42.90604" lon="0.14807">
        <ele>2083</ele>
        <time>2022-08-28T02:48:46.000Z</time>
      </trkpt>
      <trkpt lat="42.90602" lon="0.14822">
        <ele>2080</ele>
        <time>2022-08-28T02:48:48.000Z</time>
      </trkpt>
      <trkpt lat="42.90605" lon="0.14829">
        <ele>2077</ele>
        <time>2022-08-28T02:48:49.000Z</time>
      </trkpt>
      <trkpt lat="42.90617" lon="0.14832">
        <ele>2075</ele>
        <time>2022-08-28T02:48:52.000Z</time>
      </trkpt>
      <trkpt lat="42.90645" lon="0.14819">
        <ele>2075</ele>
        <time>2022-08-28T02:48:57.000Z</time>
      </trkpt>
      <trkpt lat="42.9066" lon="0.1482">
        <ele>2073</ele>
        <time>2022-08-28T02:49:00.000Z</time>
      </trkpt>
      <trkpt lat="42.90726" lon="0.14866">
        <ele>2060</ele>
        <time>2022-08-28T02:49:13.000Z</time>
      </trkpt>
      <trkpt lat="42.90741" lon="0.14875">
        <ele>2058</ele>
        <time>2022-08-28T02:49:16.000Z</time>
      </trkpt>
      <trkpt lat="42.90767" lon="0.14872">
        <ele>2059</ele>
        <time>2022-08-28T02:49:20.000Z</time>
      </trkpt>
      <trkpt lat="42.90779" lon="0.14875">
        <ele>2058</ele>
        <time>2022-08-28T02:49:23.000Z</time>
      </trkpt>
      <trkpt lat="42.90803" lon="0.14889">
        <ele>2055</ele>
        <time>2022-08-28T02:49:27.000Z</time>
      </trkpt>
      <trkpt lat="42.90865" lon="0.14892">
        <ele>2058</ele>
        <time>2022-08-28T02:49:38.000Z</time>
      </trkpt>
      <trkpt lat="42.90869" lon="0.14899">
        <ele>2057</ele>
        <time>2022-08-28T02:49:39.000Z</time>
      </trkpt>
      <trkpt lat="42.90859" lon="0.14966">
        <ele>2042</ele>
        <time>2022-08-28T02:49:48.000Z</time>
      </trkpt>
      <trkpt lat="42.9086" lon="0.14988">
        <ele>2038</ele>
        <time>2022-08-28T02:49:51.000Z</time>
      </trkpt>
      <trkpt lat="42.90898" lon="0.15104">
        <ele>2033</ele>
        <time>2022-08-28T02:50:08.000Z</time>
      </trkpt>
      <trkpt lat="42.909" lon="0.15129">
        <ele>2032</ele>
        <time>2022-08-28T02:50:11.000Z</time>
      </trkpt>
      <trkpt lat="42.9084" lon="0.15361">
        <ele>2007</ele>
        <time>2022-08-28T02:50:44.000Z</time>
      </trkpt>
      <trkpt lat="42.90843" lon="0.15376">
        <ele>2006</ele>
        <time>2022-08-28T02:50:46.000Z</time>
      </trkpt>
      <trkpt lat="42.90864" lon="0.15435">
        <ele>2001</ele>
        <time>2022-08-28T02:50:54.000Z</time>
      </trkpt>
      <trkpt lat="42.90876" lon="0.15455">
        <ele>2000</ele>
        <time>2022-08-28T02:50:57.000Z</time>
      </trkpt>
      <trkpt lat="42.90909" lon="0.15466">
        <ele>2003</ele>
        <time>2022-08-28T02:51:04.000Z</time>
      </trkpt>
      <trkpt lat="42.90921" lon="0.15474">
        <ele>2004</ele>
        <time>2022-08-28T02:51:06.000Z</time>
      </trkpt>
      <trkpt lat="42.91013" lon="0.15591">
        <ele>1994</ele>
        <time>2022-08-28T02:51:29.000Z</time>
      </trkpt>
      <trkpt lat="42.91015" lon="0.15601">
        <ele>1993</ele>
        <time>2022-08-28T02:51:30.000Z</time>
      </trkpt>
      <trkpt lat="42.91012" lon="0.15617">
        <ele>1990</ele>
        <time>2022-08-28T02:51:32.000Z</time>
      </trkpt>
      <trkpt lat="42.91" lon="0.15627">
        <ele>1985</ele>
        <time>2022-08-28T02:51:35.000Z</time>
      </trkpt>
      <trkpt lat="42.90959" lon="0.156">
        <ele>1983</ele>
        <time>2022-08-28T02:51:43.000Z</time>
      </trkpt>
      <trkpt lat="42.90948" lon="0.15601">
        <ele>1981</ele>
        <time>2022-08-28T02:51:45.000Z</time>
      </trkpt>
      <trkpt lat="42.90902" lon="0.15637">
        <ele>1971</ele>
        <time>2022-08-28T02:51:54.000Z</time>
      </trkpt>
      <trkpt lat="42.90889" lon="0.15642">
        <ele>1969</ele>
        <time>2022-08-28T02:51:57.000Z</time>
      </trkpt>
      <trkpt lat="42.90834" lon="0.15622">
        <ele>1966</ele>
        <time>2022-08-28T02:52:07.000Z</time>
      </trkpt>
      <trkpt lat="42.90808" lon="0.15625">
        <ele>1959</ele>
        <time>2022-08-28T02:52:12.000Z</time>
      </trkpt>
      <trkpt lat="42.90776" lon="0.15587">
        <ele>1958</ele>
        <time>2022-08-28T02:52:19.000Z</time>
      </trkpt>
      <trkpt lat="42.90757" lon="0.15566">
        <ele>1955</ele>
        <time>2022-08-28T02:52:23.000Z</time>
      </trkpt>
      <trkpt lat="42.90728" lon="0.15549">
        <ele>1949</ele>
        <time>2022-08-28T02:52:29.000Z</time>
      </trkpt>
      <trkpt lat="42.90681" lon="0.15484">
        <ele>1942</ele>
        <time>2022-08-28T02:52:41.000Z</time>
      </trkpt>
      <trkpt lat="42.90672" lon="0.15461">
        <ele>1940</ele>
        <time>2022-08-28T02:52:44.000Z</time>
      </trkpt>
      <trkpt lat="42.90677" lon="0.15397">
        <ele>1944</ele>
        <time>2022-08-28T02:52:53.000Z</time>
      </trkpt>
      <trkpt lat="42.90674" lon="0.15391">
        <ele>1944</ele>
        <time>2022-08-28T02:52:54.000Z</time>
      </trkpt>
      <trkpt lat="42.90669" lon="0.15389">
        <ele>1942</ele>
        <time>2022-08-28T02:52:55.000Z</time>
      </trkpt>
      <trkpt lat="42.90663" lon="0.15391">
        <ele>1941</ele>
        <time>2022-08-28T02:52:56.000Z</time>
      </trkpt>
      <trkpt lat="42.90654" lon="0.15405">
        <ele>1938</ele>
        <time>2022-08-28T02:52:58.000Z</time>
      </trkpt>
      <trkpt lat="42.9065" lon="0.1543">
        <ele>1935</ele>
        <time>2022-08-28T02:53:02.000Z</time>
      </trkpt>
      <trkpt lat="42.90653" lon="0.15524">
        <ele>1930</ele>
        <time>2022-08-28T02:53:14.000Z</time>
      </trkpt>
      <trkpt lat="42.90674" lon="0.15625">
        <ele>1919</ele>
        <time>2022-08-28T02:53:28.000Z</time>
      </trkpt>
      <trkpt lat="42.90724" lon="0.15736">
        <ele>1913</ele>
        <time>2022-08-28T02:53:45.000Z</time>
      </trkpt>
      <trkpt lat="42.90747" lon="0.15793">
        <ele>1907</ele>
        <time>2022-08-28T02:53:53.000Z</time>
      </trkpt>
      <trkpt lat="42.90831" lon="0.15918">
        <ele>1899</ele>
        <time>2022-08-28T02:54:15.000Z</time>
      </trkpt>
      <trkpt lat="42.90848" lon="0.15958">
        <ele>1895</ele>
        <time>2022-08-28T02:54:21.000Z</time>
      </trkpt>
      <trkpt lat="42.90886" lon="0.16153">
        <ele>1876</ele>
        <time>2022-08-28T02:54:48.000Z</time>
      </trkpt>
      <trkpt lat="42.90894" lon="0.16184">
        <ele>1873</ele>
        <time>2022-08-28T02:54:52.000Z</time>
      </trkpt>
      <trkpt lat="42.90943" lon="0.16307">
        <ele>1868</ele>
        <time>2022-08-28T02:55:10.000Z</time>
      </trkpt>
      <trkpt lat="42.90963" lon="0.16418">
        <ele>1860</ele>
        <time>2022-08-28T02:55:25.000Z</time>
      </trkpt>
      <trkpt lat="42.9094" lon="0.16651">
        <ele>1841</ele>
        <time>2022-08-28T02:55:56.000Z</time>
      </trkpt>
      <trkpt lat="42.90944" lon="0.16736">
        <ele>1835</ele>
        <time>2022-08-28T02:56:07.000Z</time>
      </trkpt>
      <trkpt lat="42.91013" lon="0.16921">
        <ele>1822</ele>
        <time>2022-08-28T02:56:34.000Z</time>
      </trkpt>
      <trkpt lat="42.91021" lon="0.16951">
        <ele>1823</ele>
        <time>2022-08-28T02:56:38.000Z</time>
      </trkpt>
      <trkpt lat="42.91021" lon="0.17294">
        <ele>1793</ele>
        <time>2022-08-28T02:57:23.000Z</time>
      </trkpt>
      <trkpt lat="42.91023" lon="0.17317">
        <ele>1792</ele>
        <time>2022-08-28T02:57:26.000Z</time>
      </trkpt>
      <trkpt lat="42.91045" lon="0.17431">
        <ele>1790</ele>
        <time>2022-08-28T02:57:41.000Z</time>
      </trkpt>
      <trkpt lat="42.91049" lon="0.17556">
        <ele>1777</ele>
        <time>2022-08-28T02:57:58.000Z</time>
      </trkpt>
      <trkpt lat="42.91054" lon="0.17599">
        <ele>1774</ele>
        <time>2022-08-28T02:58:03.000Z</time>
      </trkpt>
      <trkpt lat="42.91101" lon="0.17735">
        <ele>1769</ele>
        <time>2022-08-28T02:58:23.000Z</time>
      </trkpt>
      <trkpt lat="42.91109" lon="0.17806">
        <ele>1762</ele>
        <time>2022-08-28T02:58:32.000Z</time>
      </trkpt>
      <trkpt lat="42.91106" lon="0.17857">
        <ele>1758</ele>
        <time>2022-08-28T02:58:39.000Z</time>
      </trkpt>
      <trkpt lat="42.91097" lon="0.17883">
        <ele>1757</ele>
        <time>2022-08-28T02:58:43.000Z</time>
      </trkpt>
      <trkpt lat="42.91028" lon="0.17921">
        <ele>1749</ele>
        <time>2022-08-28T02:58:56.000Z</time>
      </trkpt>
      <trkpt lat="42.91018" lon="0.17931">
        <ele>1747</ele>
        <time>2022-08-28T02:58:58.000Z</time>
      </trkpt>
      <trkpt lat="42.91002" lon="0.17985">
        <ele>1735</ele>
        <time>1970-01-01T00:00:00.000Z</time>
      </trkpt>
      <trkpt lat="42.91028" lon="0.18116">
        <ele>1724.6</ele>
        <time>1970-01-01T00:00:00.000Z</time>
      </trkpt>
      <trkpt lat="42.91053" lon="0.18178">
        <ele>1718.4</ele>
        <time>1970-01-01T00:00:00.000Z</time>
      </trkpt>
      <trkpt lat="42.91085" lon="0.18225">
        <ele>1719</ele>
        <time>2022-08-28T03:01:06.000Z</time>
      </trkpt>
      <trkpt lat="42.91097" lon="0.18249">
        <ele>1711</ele>
        <time>2022-08-28T03:02:53.000Z</time>
      </trkpt>
      <trkpt lat="42.91124" lon="0.18338">
        <ele>1709</ele>
        <time>2022-08-28T03:03:06.000Z</time>
      </trkpt>
      <trkpt lat="42.91133" lon="0.18357">
        <ele>1708</ele>
        <time>2022-08-28T03:03:09.000Z</time>
      </trkpt>
      <trkpt lat="42.91171" lon="0.18402">
        <ele>1702</ele>
        <time>2022-08-28T03:03:18.000Z</time>
      </trkpt>
      <trkpt lat="42.9118" lon="0.18409">
        <ele>1700</ele>
        <time>2022-08-28T03:03:20.000Z</time>
      </trkpt>
      <trkpt lat="42.91225" lon="0.18419">
        <ele>1689</ele>
        <time>2022-08-28T03:03:28.000Z</time>
      </trkpt>
      <trkpt lat="42.91247" lon="0.18427">
        <ele>1684</ele>
        <time>2022-08-28T03:03:32.000Z</time>
      </trkpt>
      <trkpt lat="42.91171" lon="0.18402">
        <ele>1702</ele>
        <time>2022-08-28T03:03:18.000Z</time>
      </trkpt>
      <trkpt lat="42.91133" lon="0.18357">
        <ele>1708</ele>
        <time>2022-08-28T03:03:09.000Z</time>
      </trkpt>
      <trkpt lat="42.91097" lon="0.18249">
        <ele>1711</ele>
        <time>2022-08-28T03:02:53.000Z</time>
      </trkpt>
      <trkpt lat="42.91085" lon="0.18225">
        <ele>1719</ele>
        <time>2022-08-28T03:01:06.000Z</time>
      </trkpt>
      <trkpt lat="42.91124" lon="0.18338">
        <ele>1709</ele>
        <time>2022-08-28T03:03:06.000Z</time>
      </trkpt>
      <trkpt lat="42.91133" lon="0.18357">
        <ele>1708</ele>
        <time>2022-08-28T03:03:09.000Z</time>
      </trkpt>
      <trkpt lat="42.91171" lon="0.18402">
        <ele>1702</ele>
        <time>2022-08-28T03:03:18.000Z</time>
      </trkpt>
      <trkpt lat="42.9118" lon="0.18409">
        <ele>1700</ele>
        <time>2022-08-28T03:03:20.000Z</time>
      </trkpt>
      <trkpt lat="42.91225" lon="0.18419">
        <ele>1689</ele>
        <time>2022-08-28T03:03:28.000Z</time>
      </trkpt>
      <trkpt lat="42.91247" lon="0.18427">
        <ele>1684</ele>
        <time>2022-08-28T03:03:32.000Z</time>
      </trkpt>
      <trkpt lat="42.91262" lon="0.18439">
        <ele>1681</ele>
        <time>2022-08-28T03:03:35.000Z</time>
      </trkpt>
      <trkpt lat="42.91288" lon="0.1847">
        <ele>1676</ele>
        <time>2022-08-28T03:03:41.000Z</time>
      </trkpt>
      <trkpt lat="42.91346" lon="0.1864">
        <ele>1681</ele>
        <time>2022-08-28T03:04:06.000Z</time>
      </trkpt>
      <trkpt lat="42.91355" lon="0.18655">
        <ele>1681</ele>
        <time>2022-08-28T03:04:08.000Z</time>
      </trkpt>
      <trkpt lat="42.91364" lon="0.18662">
        <ele>1678</ele>
        <time>2022-08-28T03:04:10.000Z</time>
      </trkpt>
      <trkpt lat="42.91414" lon="0.18656">
        <ele>1658</ele>
        <time>2022-08-28T03:04:19.000Z</time>
      </trkpt>
      <trkpt lat="42.91432" lon="0.18659">
        <ele>1655</ele>
        <time>2022-08-28T03:04:22.000Z</time>
      </trkpt>
      <trkpt lat="42.91452" lon="0.18666">
        <ele>1653</ele>
        <time>2022-08-28T03:04:26.000Z</time>
      </trkpt>
      <trkpt lat="42.91461" lon="0.1867">
        <ele>1653</ele>
        <time>2022-08-28T03:04:28.000Z</time>
      </trkpt>
      <trkpt lat="42.91494" lon="0.18703">
        <ele>1657</ele>
        <time>2022-08-28T03:04:35.000Z</time>
      </trkpt>
      <trkpt lat="42.91512" lon="0.18715">
        <ele>1655</ele>
        <time>2022-08-28T03:04:38.000Z</time>
      </trkpt>
      <trkpt lat="42.91572" lon="0.18708">
        <ele>1634</ele>
        <time>2022-08-28T03:04:49.000Z</time>
      </trkpt>
      <trkpt lat="42.91588" lon="0.18717">
        <ele>1631</ele>
        <time>2022-08-28T03:04:52.000Z</time>
      </trkpt>
      <trkpt lat="42.91624" lon="0.1879">
        <ele>1633</ele>
        <time>2022-08-28T03:05:04.000Z</time>
      </trkpt>
      <trkpt lat="42.91632" lon="0.18803">
        <ele>1633</ele>
        <time>2022-08-28T03:05:06.000Z</time>
      </trkpt>
      <trkpt lat="42.91742" lon="0.18902">
        <ele>1620</ele>
        <time>2022-08-28T03:05:30.000Z</time>
      </trkpt>
      <trkpt lat="42.91801" lon="0.18976">
        <ele>1616</ele>
        <time>2022-08-28T03:05:44.000Z</time>
      </trkpt>
      <trkpt lat="42.91916" lon="0.19085">
        <ele>1597</ele>
        <time>2022-08-28T03:06:09.000Z</time>
      </trkpt>
      <trkpt lat="42.91935" lon="0.19108">
        <ele>1596</ele>
        <time>2022-08-28T03:06:13.000Z</time>
      </trkpt>
      <trkpt lat="42.91959" lon="0.19167">
        <ele>1595</ele>
        <time>2022-08-28T03:06:22.000Z</time>
      </trkpt>
      <trkpt lat="42.91966" lon="0.19198">
        <ele>1593</ele>
        <time>2022-08-28T03:06:26.000Z</time>
      </trkpt>
      <trkpt lat="42.91978" lon="0.19395">
        <ele>1574</ele>
        <time>2022-08-28T03:06:52.000Z</time>
      </trkpt>
      <trkpt lat="42.91989" lon="0.19444">
        <ele>1568</ele>
        <time>2022-08-28T03:06:59.000Z</time>
      </trkpt>
      <trkpt lat="42.92007" lon="0.19499">
        <ele>1559</ele>
        <time>2022-08-28T03:07:07.000Z</time>
      </trkpt>
      <trkpt lat="42.92072" lon="0.19671">
        <ele>1553</ele>
        <time>2022-08-28T03:07:32.000Z</time>
      </trkpt>
      <trkpt lat="42.92173" lon="0.19872">
        <ele>1536</ele>
        <time>2022-08-28T03:08:04.000Z</time>
      </trkpt>
      <trkpt lat="42.92223" lon="0.19995">
        <ele>1528</ele>
        <time>2022-08-28T03:08:22.000Z</time>
      </trkpt>
      <trkpt lat="42.92242" lon="0.20059">
        <ele>1519</ele>
        <time>2022-08-28T03:08:31.000Z</time>
      </trkpt>
      <trkpt lat="42.92248" lon="0.20105">
        <ele>1510</ele>
        <time>2022-08-28T03:08:37.000Z</time>
      </trkpt>
      <trkpt lat="42.92246" lon="0.20122">
        <ele>1507</ele>
        <time>2022-08-28T03:08:39.000Z</time>
      </trkpt>
      <trkpt lat="42.92176" lon="0.20342">
        <ele>1492</ele>
        <time>2022-08-28T03:09:11.000Z</time>
      </trkpt>
      <trkpt lat="42.92159" lon="0.20379">
        <ele>1489</ele>
        <time>2022-08-28T03:09:16.000Z</time>
      </trkpt>
      <trkpt lat="42.92117" lon="0.20443">
        <ele>1488</ele>
        <time>2022-08-28T03:09:27.000Z</time>
      </trkpt>
      <trkpt lat="42.92099" lon="0.20468">
        <ele>1487</ele>
        <time>2022-08-28T03:09:32.000Z</time>
      </trkpt>
      <trkpt lat="42.92014" lon="0.2056">
        <ele>1481</ele>
        <time>2022-08-28T03:09:51.000Z</time>
      </trkpt>
      <trkpt lat="42.91993" lon="0.20582">
        <ele>1480</ele>
        <time>2022-08-28T03:09:56.000Z</time>
      </trkpt>
      <trkpt lat="42.91949" lon="0.20659">
        <ele>1468</ele>
        <time>2022-08-28T03:10:09.000Z</time>
      </trkpt>
      <trkpt lat="42.919" lon="0.20721">
        <ele>1462</ele>
        <time>2022-08-28T03:10:21.000Z</time>
      </trkpt>
      <trkpt lat="42.91786" lon="0.20839">
        <ele>1448</ele>
        <time>2022-08-28T03:10:46.000Z</time>
      </trkpt>
      <trkpt lat="42.91743" lon="0.20879">
        <ele>1443</ele>
        <time>2022-08-28T03:10:55.000Z</time>
      </trkpt>
      <trkpt lat="42.91698" lon="0.20941">
        <ele>1427</ele>
        <time>2022-08-28T03:11:07.000Z</time>
      </trkpt>
      <trkpt lat="42.91699" lon="0.20948">
        <ele>1426</ele>
        <time>2022-08-28T03:11:08.000Z</time>
      </trkpt>
      <trkpt lat="42.91718" lon="0.20958">
        <ele>1422</ele>
        <time>2022-08-28T03:11:12.000Z</time>
      </trkpt>
      <trkpt lat="42.91725" lon="0.20953">
        <ele>1422</ele>
        <time>2022-08-28T03:11:13.000Z</time>
      </trkpt>
      <trkpt lat="42.91797" lon="0.20873">
        <ele>1430</ele>
        <time>2022-08-28T03:11:30.000Z</time>
      </trkpt>
      <trkpt lat="42.91822" lon="0.20852">
        <ele>1431</ele>
        <time>2022-08-28T03:11:35.000Z</time>
      </trkpt>
      <trkpt lat="42.91879" lon="0.20852">
        <ele>1415</ele>
        <time>2022-08-28T03:11:45.000Z</time>
      </trkpt>
      <trkpt lat="42.91895" lon="0.20844">
        <ele>1413</ele>
        <time>2022-08-28T03:11:48.000Z</time>
      </trkpt>
      <trkpt lat="42.92064" lon="0.20712">
        <ele>1399</ele>
        <time>2022-08-28T03:12:23.000Z</time>
      </trkpt>
      <trkpt lat="42.92159" lon="0.20662">
        <ele>1382</ele>
        <time>2022-08-28T03:12:41.000Z</time>
      </trkpt>
      <trkpt lat="42.92185" lon="0.20639">
        <ele>1382</ele>
        <time>2022-08-28T03:12:47.000Z</time>
      </trkpt>
      <trkpt lat="42.92221" lon="0.206">
        <ele>1382</ele>
        <time>2022-08-28T03:12:55.000Z</time>
      </trkpt>
      <trkpt lat="42.92278" lon="0.20574">
        <ele>1368</ele>
        <time>2022-08-28T03:13:06.000Z</time>
      </trkpt>
      <trkpt lat="42.92295" lon="0.20556">
        <ele>1368</ele>
        <time>2022-08-28T03:13:09.000Z</time>
      </trkpt>
      <trkpt lat="42.92329" lon="0.20497">
        <ele>1369</ele>
        <time>2022-08-28T03:13:19.000Z</time>
      </trkpt>
      <trkpt lat="42.92359" lon="0.20453">
        <ele>1363</ele>
        <time>2022-08-28T03:13:27.000Z</time>
      </trkpt>
      <trkpt lat="42.92428" lon="0.20312">
        <ele>1352</ele>
        <time>2022-08-28T03:13:49.000Z</time>
      </trkpt>
      <trkpt lat="42.92437" lon="0.20279">
        <ele>1350</ele>
        <time>2022-08-28T03:13:54.000Z</time>
      </trkpt>
      <trkpt lat="42.9247" lon="0.20084">
        <ele>1339</ele>
        <time>2022-08-28T03:14:20.000Z</time>
      </trkpt>
      <trkpt lat="42.92473" lon="0.20059">
        <ele>1337</ele>
        <time>2022-08-28T03:14:23.000Z</time>
      </trkpt>
      <trkpt lat="42.9248" lon="0.1993">
        <ele>1326</ele>
        <time>2022-08-28T03:14:40.000Z</time>
      </trkpt>
      <trkpt lat="42.92471" lon="0.19797">
        <ele>1331</ele>
        <time>2022-08-28T03:14:57.000Z</time>
      </trkpt>
      <trkpt lat="42.92474" lon="0.19783">
        <ele>1331</ele>
        <time>2022-08-28T03:14:59.000Z</time>
      </trkpt>
      <trkpt lat="42.92479" lon="0.19773">
        <ele>1329</ele>
        <time>2022-08-28T03:15:01.000Z</time>
      </trkpt>
      <trkpt lat="42.92484" lon="0.1977">
        <ele>1326</ele>
        <time>2022-08-28T03:15:02.000Z</time>
      </trkpt>
      <trkpt lat="42.92518" lon="0.19762">
        <ele>1314</ele>
        <time>2022-08-28T03:15:08.000Z</time>
      </trkpt>
      <trkpt lat="42.92548" lon="0.19748">
        <ele>1308</ele>
        <time>2022-08-28T03:15:14.000Z</time>
      </trkpt>
      <trkpt lat="42.92593" lon="0.1971">
        <ele>1309</ele>
        <time>2022-08-28T03:15:23.000Z</time>
      </trkpt>
      <trkpt lat="42.926" lon="0.19711">
        <ele>1309</ele>
        <time>2022-08-28T03:15:24.000Z</time>
      </trkpt>
      <trkpt lat="42.92668" lon="0.19816">
        <ele>1285</ele>
        <time>2022-08-28T03:15:43.000Z</time>
      </trkpt>
      <trkpt lat="42.92698" lon="0.19847">
        <ele>1289</ele>
        <time>2022-08-28T03:15:50.000Z</time>
      </trkpt>
      <trkpt lat="42.92711" lon="0.19894">
        <ele>1281</ele>
        <time>2022-08-28T03:15:56.000Z</time>
      </trkpt>
      <trkpt lat="42.92718" lon="0.19911">
        <ele>1279</ele>
        <time>2022-08-28T03:15:59.000Z</time>
      </trkpt>
      <trkpt lat="42.92861" lon="0.20101">
        <ele>1257</ele>
        <time>2022-08-28T03:16:34.000Z</time>
      </trkpt>
      <trkpt lat="42.92884" lon="0.20131">
        <ele>1253</ele>
        <time>2022-08-28T03:16:40.000Z</time>
      </trkpt>
      <trkpt lat="42.92996" lon="0.20213">
        <ele>1244</ele>
        <time>2022-08-28T03:17:03.000Z</time>
      </trkpt>
      <trkpt lat="42.93018" lon="0.20233">
        <ele>1241</ele>
        <time>2022-08-28T03:17:07.000Z</time>
      </trkpt>
      <trkpt lat="42.9308" lon="0.20338">
        <ele>1229</ele>
        <time>2022-08-28T03:17:25.000Z</time>
      </trkpt>
      <trkpt lat="42.93109" lon="0.20374">
        <ele>1225</ele>
        <time>2022-08-28T03:17:32.000Z</time>
      </trkpt>
      <trkpt lat="42.9314" lon="0.20398">
        <ele>1223</ele>
        <time>2022-08-28T03:17:38.000Z</time>
      </trkpt>
      <trkpt lat="42.93245" lon="0.20464">
        <ele>1217</ele>
        <time>2022-08-28T03:17:59.000Z</time>
      </trkpt>
      <trkpt lat="42.93334" lon="0.2056">
        <ele>1203</ele>
        <time>2022-08-28T03:18:19.000Z</time>
      </trkpt>
      <trkpt lat="42.93369" lon="0.20589">
        <ele>1205</ele>
        <time>2022-08-28T03:18:26.000Z</time>
      </trkpt>
      <trkpt lat="42.93418" lon="0.20679">
        <ele>1190</ele>
        <time>2022-08-28T03:18:41.000Z</time>
      </trkpt>
      <trkpt lat="42.9348" lon="0.2075">
        <ele>1188</ele>
        <time>2022-08-28T03:18:56.000Z</time>
      </trkpt>
      <trkpt lat="42.93502" lon="0.20805">
        <ele>1177</ele>
        <time>2022-08-28T03:19:04.000Z</time>
      </trkpt>
      <trkpt lat="42.93514" lon="0.2082">
        <ele>1176</ele>
        <time>2022-08-28T03:19:07.000Z</time>
      </trkpt>
      <trkpt lat="42.93533" lon="0.20832">
        <ele>1176</ele>
        <time>2022-08-28T03:19:10.000Z</time>
      </trkpt>
      <trkpt lat="42.93565" lon="0.20844">
        <ele>1179</ele>
        <time>2022-08-28T03:19:16.000Z</time>
      </trkpt>
      <trkpt lat="42.93589" lon="0.20873">
        <ele>1172</ele>
        <time>2022-08-28T03:19:22.000Z</time>
      </trkpt>
      <trkpt lat="42.93598" lon="0.20879">
        <ele>1171</ele>
        <time>2022-08-28T03:19:24.000Z</time>
      </trkpt>
      <trkpt lat="42.93642" lon="0.2086">
        <ele>1191</ele>
        <time>2022-08-28T03:19:32.000Z</time>
      </trkpt>
      <trkpt lat="42.93646" lon="0.20862">
        <ele>1191</ele>
        <time>2022-08-28T03:19:33.000Z</time>
      </trkpt>
      <trkpt lat="42.93657" lon="0.20916">
        <ele>1165</ele>
        <time>2022-08-28T03:19:40.000Z</time>
      </trkpt>
      <trkpt lat="42.93664" lon="0.20929">
        <ele>1161</ele>
        <time>2022-08-28T03:19:43.000Z</time>
      </trkpt>
      <trkpt lat="42.93703" lon="0.20955">
        <ele>1169</ele>
        <time>2022-08-28T03:19:50.000Z</time>
      </trkpt>
      <trkpt lat="42.93721" lon="0.20971">
        <ele>1171</ele>
        <time>2022-08-28T03:19:54.000Z</time>
      </trkpt>
      <trkpt lat="42.93755" lon="0.21028">
        <ele>1160</ele>
        <time>2022-08-28T03:20:04.000Z</time>
      </trkpt>
      <trkpt lat="42.93821" lon="0.21106">
        <ele>1151</ele>
        <time>2022-08-28T03:20:19.000Z</time>
      </trkpt>
      <trkpt lat="42.93902" lon="0.2124">
        <ele>1137</ele>
        <time>2022-08-28T03:20:42.000Z</time>
      </trkpt>
      <trkpt lat="42.9392" lon="0.21268">
        <ele>1134</ele>
        <time>2022-08-28T03:20:47.000Z</time>
      </trkpt>
      <trkpt lat="42.93963" lon="0.21316">
        <ele>1129</ele>
        <time>2022-08-28T03:20:57.000Z</time>
      </trkpt>
      <trkpt lat="42.94014" lon="0.21348">
        <ele>1127</ele>
        <time>2022-08-28T03:21:07.000Z</time>
      </trkpt>
      <trkpt lat="42.94021" lon="0.21355">
        <ele>1126</ele>
        <time>2022-08-28T03:21:08.000Z</time>
      </trkpt>
      <trkpt lat="42.94095" lon="0.21451">
        <ele>1112</ele>
        <time>2022-08-28T03:21:26.000Z</time>
      </trkpt>
      <trkpt lat="42.94135" lon="0.21497">
        <ele>1116</ele>
        <time>2022-08-28T03:21:36.000Z</time>
      </trkpt>
      <trkpt lat="42.94175" lon="0.21605">
        <ele>1096</ele>
        <time>2022-08-28T03:21:52.000Z</time>
      </trkpt>
      <trkpt lat="42.94183" lon="0.21623">
        <ele>1092</ele>
        <time>2022-08-28T03:21:54.000Z</time>
      </trkpt>
      <trkpt lat="42.94198" lon="0.21642">
        <ele>1091</ele>
        <time>2022-08-28T03:21:58.000Z</time>
      </trkpt>
      <trkpt lat="42.94229" lon="0.21665">
        <ele>1097</ele>
        <time>2022-08-28T03:22:04.000Z</time>
      </trkpt>
      <trkpt lat="42.94262" lon="0.21725">
        <ele>1088</ele>
        <time>2022-08-28T03:22:14.000Z</time>
      </trkpt>
      <trkpt lat="42.94282" lon="0.21753">
        <ele>1087</ele>
        <time>2022-08-28T03:22:19.000Z</time>
      </trkpt>
      <trkpt lat="42.9441" lon="0.21914">
        <ele>1068</ele>
        <time>2022-08-28T03:22:50.000Z</time>
      </trkpt>
      <trkpt lat="42.94432" lon="0.21944">
        <ele>1061</ele>
        <time>2022-08-28T03:22:56.000Z</time>
      </trkpt>
      <trkpt lat="42.945" lon="0.22001">
        <ele>1054</ele>
        <time>2022-08-28T03:23:10.000Z</time>
      </trkpt>
      <trkpt lat="42.9453" lon="0.2203">
        <ele>1051</ele>
        <time>2022-08-28T03:23:16.000Z</time>
      </trkpt>
      <trkpt lat="42.94561" lon="0.22092">
        <ele>1043</ele>
        <time>2022-08-28T03:23:26.000Z</time>
      </trkpt>
      <trkpt lat="42.94582" lon="0.22121">
        <ele>1041</ele>
        <time>2022-08-28T03:23:31.000Z</time>
      </trkpt>
      <trkpt lat="42.94632" lon="0.2214">
        <ele>1038</ele>
        <time>2022-08-28T03:23:41.000Z</time>
      </trkpt>
      <trkpt lat="42.94648" lon="0.22152">
        <ele>1037</ele>
        <time>2022-08-28T03:23:44.000Z</time>
      </trkpt>
      <trkpt lat="42.94699" lon="0.22314">
        <ele>1020</ele>
        <time>2022-08-28T03:24:07.000Z</time>
      </trkpt>
      <trkpt lat="42.94718" lon="0.22347">
        <ele>1018</ele>
        <time>2022-08-28T03:24:13.000Z</time>
      </trkpt>
      <trkpt lat="42.94762" lon="0.22392">
        <ele>1016</ele>
        <time>2022-08-28T03:24:23.000Z</time>
      </trkpt>
      <trkpt lat="42.94804" lon="0.22424">
        <ele>1014</ele>
        <time>2022-08-28T03:24:31.000Z</time>
      </trkpt>
      <trkpt lat="42.94866" lon="0.22449">
        <ele>1011</ele>
        <time>2022-08-28T03:24:43.000Z</time>
      </trkpt>
      <trkpt lat="42.9489" lon="0.22462">
        <ele>1010</ele>
        <time>2022-08-28T03:24:47.000Z</time>
      </trkpt>
      <trkpt lat="42.94918" lon="0.22518">
        <ele>1006</ele>
        <time>2022-08-28T03:24:56.000Z</time>
      </trkpt>
      <trkpt lat="42.94948" lon="0.22548">
        <ele>1002</ele>
        <time>2022-08-28T03:25:03.000Z</time>
      </trkpt>
      <trkpt lat="42.95011" lon="0.22568">
        <ele>1000</ele>
        <time>2022-08-28T03:25:14.000Z</time>
      </trkpt>
      <trkpt lat="42.95106" lon="0.22619">
        <ele>992</ele>
        <time>2022-08-28T03:25:32.000Z</time>
      </trkpt>
      <trkpt lat="42.95157" lon="0.22657">
        <ele>988</ele>
        <time>2022-08-28T03:25:43.000Z</time>
      </trkpt>
      <trkpt lat="42.95236" lon="0.22721">
        <ele>985</ele>
        <time>2022-08-28T03:25:59.000Z</time>
      </trkpt>
      <trkpt lat="42.95307" lon="0.22753">
        <ele>983</ele>
        <time>2022-08-28T03:26:12.000Z</time>
      </trkpt>
      <trkpt lat="42.95358" lon="0.22779">
        <ele>982</ele>
        <time>2022-08-28T03:26:22.000Z</time>
      </trkpt>
      <trkpt lat="42.9541" lon="0.22793">
        <ele>980</ele>
        <time>2022-08-28T03:26:32.000Z</time>
      </trkpt>
      <trkpt lat="42.95448" lon="0.22795">
        <ele>978</ele>
        <time>2022-08-28T03:26:38.000Z</time>
      </trkpt>
      <trkpt lat="42.955" lon="0.22797">
        <ele>975</ele>
        <time>2022-08-28T03:26:48.000Z</time>
      </trkpt>
      <trkpt lat="42.9556" lon="0.2279">
        <ele>977</ele>
        <time>2022-08-28T03:26:58.000Z</time>
      </trkpt>
      <trkpt lat="42.95608" lon="0.22789">
        <ele>978</ele>
        <time>2022-08-28T03:27:07.000Z</time>
      </trkpt>
      <trkpt lat="42.95756" lon="0.22852">
        <ele>969</ele>
        <time>2022-08-28T03:27:34.000Z</time>
      </trkpt>
      <trkpt lat="42.95786" lon="0.2287">
        <ele>967</ele>
        <time>2022-08-28T03:27:40.000Z</time>
      </trkpt>
      <trkpt lat="42.95838" lon="0.22877">
        <ele>967</ele>
        <time>2022-08-28T03:27:50.000Z</time>
      </trkpt>
      <trkpt lat="42.95868" lon="0.22886">
        <ele>966</ele>
        <time>2022-08-28T03:27:55.000Z</time>
      </trkpt>
      <trkpt lat="42.96028" lon="0.23008">
        <ele>952</ele>
        <time>2022-08-28T03:28:28.000Z</time>
      </trkpt>
      <trkpt lat="42.96036" lon="0.23011">
        <ele>952</ele>
        <time>2022-08-28T03:28:29.000Z</time>
      </trkpt>
      <trkpt lat="42.96226" lon="0.23035">
        <ele>946</ele>
        <time>2022-08-28T03:29:03.000Z</time>
      </trkpt>
      <trkpt lat="42.96268" lon="0.23043">
        <ele>943</ele>
        <time>2022-08-28T03:29:11.000Z</time>
      </trkpt>
      <trkpt lat="42.96315" lon="0.23036">
        <ele>942</ele>
        <time>2022-08-28T03:29:19.000Z</time>
      </trkpt>
      <trkpt lat="42.96457" lon="0.23031">
        <ele>940</ele>
        <time>2022-08-28T03:29:44.000Z</time>
      </trkpt>
      <trkpt lat="42.96616" lon="0.23045">
        <ele>942</ele>
        <time>2022-08-28T03:30:13.000Z</time>
      </trkpt>
      <trkpt lat="42.96636" lon="0.23045">
        <ele>941</ele>
        <time>2022-08-28T03:30:16.000Z</time>
      </trkpt>
      <trkpt lat="42.96732" lon="0.23022">
        <ele>945</ele>
        <time>2022-08-28T03:30:34.000Z</time>
      </trkpt>
      <trkpt lat="42.96767" lon="0.2302">
        <ele>947</ele>
        <time>2022-08-28T03:30:40.000Z</time>
      </trkpt>
      <trkpt lat="42.96858" lon="0.23038">
        <ele>947</ele>
        <time>2022-08-28T03:30:56.000Z</time>
      </trkpt>
      <trkpt lat="42.96876" lon="0.23046">
        <ele>944</ele>
        <time>2022-08-28T03:31:00.000Z</time>
      </trkpt>
      <trkpt lat="42.96939" lon="0.23085">
        <ele>932</ele>
        <time>2022-08-28T03:31:12.000Z</time>
      </trkpt>
      <trkpt lat="42.97029" lon="0.23114">
        <ele>926</ele>
        <time>2022-08-28T03:31:28.000Z</time>
      </trkpt>
      <trkpt lat="42.97059" lon="0.23118">
        <ele>924</ele>
        <time>2022-08-28T03:31:34.000Z</time>
      </trkpt>
      <trkpt lat="42.97074" lon="0.23117">
        <ele>923</ele>
        <time>2022-08-28T03:31:36.000Z</time>
      </trkpt>
      <trkpt lat="42.97091" lon="0.23109">
        <ele>923</ele>
        <time>2022-08-28T03:31:40.000Z</time>
      </trkpt>
      <trkpt lat="42.97162" lon="0.23056">
        <ele>922</ele>
        <time>2022-08-28T03:31:54.000Z</time>
      </trkpt>
      <trkpt lat="42.97221" lon="0.23019">
        <ele>920</ele>
        <time>2022-08-28T03:32:05.000Z</time>
      </trkpt>
      <trkpt lat="42.97317" lon="0.23005">
        <ele>910</ele>
        <time>2022-08-28T03:32:23.000Z</time>
      </trkpt>
      <trkpt lat="42.97332" lon="0.23">
        <ele>909</ele>
        <time>2022-08-28T03:32:25.000Z</time>
      </trkpt>
      <trkpt lat="42.97534" lon="0.22845">
        <ele>907</ele>
        <time>2022-08-28T03:33:07.000Z</time>
      </trkpt>
      <trkpt lat="42.97561" lon="0.22834">
        <ele>904</ele>
        <time>2022-08-28T03:33:12.000Z</time>
      </trkpt>
      <trkpt lat="42.97583" lon="0.22827">
        <ele>903</ele>
        <time>2022-08-28T03:33:16.000Z</time>
      </trkpt>
      <trkpt lat="42.97614" lon="0.22824">
        <ele>901</ele>
        <time>2022-08-28T03:33:21.000Z</time>
      </trkpt>
      <trkpt lat="42.97683" lon="0.22838">
        <ele>893</ele>
        <time>2022-08-28T03:33:34.000Z</time>
      </trkpt>
      <trkpt lat="42.97748" lon="0.22841">
        <ele>886</ele>
        <time>2022-08-28T03:33:45.000Z</time>
      </trkpt>
      <trkpt lat="42.97901" lon="0.22797">
        <ele>879</ele>
        <time>2022-08-28T03:34:13.000Z</time>
      </trkpt>
      <trkpt lat="42.97947" lon="0.22789">
        <ele>877</ele>
        <time>2022-08-28T03:34:21.000Z</time>
      </trkpt>
      <trkpt lat="42.98054" lon="0.2273">
        <ele>876</ele>
        <time>2022-08-28T03:34:42.000Z</time>
      </trkpt>
      <trkpt lat="42.98094" lon="0.22718">
        <ele>875</ele>
        <time>2022-08-28T03:34:49.000Z</time>
      </trkpt>
      <trkpt lat="42.98324" lon="0.22682">
        <ele>863</ele>
        <time>2022-08-28T03:35:31.000Z</time>
      </trkpt>
      <trkpt lat="42.98352" lon="0.22685">
        <ele>862</ele>
        <time>2022-08-28T03:35:36.000Z</time>
      </trkpt>
      <trkpt lat="42.98406" lon="0.227">
        <ele>859</ele>
        <time>2022-08-28T03:35:45.000Z</time>
      </trkpt>
      <trkpt lat="42.98453" lon="0.22716">
        <ele>855</ele>
        <time>2022-08-28T03:35:54.000Z</time>
      </trkpt>
      <trkpt lat="42.98459" lon="0.22726">
        <ele>854</ele>
        <time>2022-08-28T03:35:56.000Z</time>
      </trkpt>
      <trkpt lat="42.98465" lon="0.22753">
        <ele>852</ele>
        <time>2022-08-28T03:35:59.000Z</time>
      </trkpt>
      <trkpt lat="42.98436" lon="0.22767">
        <ele>852</ele>
        <time>2022-08-28T03:36:05.000Z</time>
      </trkpt>
      <trkpt lat="42.98336" lon="0.22806">
        <ele>853</ele>
        <time>2022-08-28T03:36:23.000Z</time>
      </trkpt>
      <trkpt lat="42.98262" lon="0.22813">
        <ele>854</ele>
        <time>2022-08-28T03:36:37.000Z</time>
      </trkpt>
      <trkpt lat="42.98241" lon="0.22818">
        <ele>854</ele>
        <time>2022-08-28T03:36:40.000Z</time>
      </trkpt>
      <trkpt lat="42.98222" lon="0.22847">
        <ele>854</ele>
        <time>2022-08-28T03:36:46.000Z</time>
      </trkpt>
      <trkpt lat="42.98222" lon="0.22863">
        <ele>854</ele>
        <time>2022-08-28T03:36:48.000Z</time>
      </trkpt>
      <trkpt lat="42.98227" lon="0.22879">
        <ele>854</ele>
        <time>2022-08-28T03:36:50.000Z</time>
      </trkpt>
      <trkpt lat="42.98235" lon="0.22891">
        <ele>854</ele>
        <time>2022-08-28T03:36:52.000Z</time>
      </trkpt>
      <trkpt lat="42.98271" lon="0.22911">
        <ele>853</ele>
        <time>2022-08-28T03:36:59.000Z</time>
      </trkpt>
      <trkpt lat="42.98314" lon="0.2296">
        <ele>856</ele>
        <time>2022-08-28T03:37:09.000Z</time>
      </trkpt>
      <trkpt lat="42.98325" lon="0.22979">
        <ele>858</ele>
        <time>2022-08-28T03:37:12.000Z</time>
      </trkpt>
      <trkpt lat="42.98384" lon="0.23225">
        <ele>864</ele>
        <time>2022-08-28T03:37:46.000Z</time>
      </trkpt>
      <trkpt lat="42.98381" lon="0.23253">
        <ele>866</ele>
        <time>2022-08-28T03:37:50.000Z</time>
      </trkpt>
      <trkpt lat="42.98354" lon="0.23317">
        <ele>871</ele>
        <time>2022-08-28T03:37:59.000Z</time>
      </trkpt>
      <trkpt lat="42.98339" lon="0.23343">
        <ele>873</ele>
        <time>2022-08-28T03:38:03.000Z</time>
      </trkpt>
      <trkpt lat="42.98285" lon="0.23387">
        <ele>880</ele>
        <time>2022-08-28T03:38:15.000Z</time>
      </trkpt>
      <trkpt lat="42.98278" lon="0.23397">
        <ele>880</ele>
        <time>2022-08-28T03:38:16.000Z</time>
      </trkpt>
      <trkpt lat="42.98262" lon="0.23431">
        <ele>880</ele>
        <time>2022-08-28T03:38:22.000Z</time>
      </trkpt>
      <trkpt lat="42.98249" lon="0.23468">
        <ele>882</ele>
        <time>2022-08-28T03:38:27.000Z</time>
      </trkpt>
      <trkpt lat="42.98232" lon="0.23558">
        <ele>882</ele>
        <time>2022-08-28T03:38:39.000Z</time>
      </trkpt>
      <trkpt lat="42.98209" lon="0.23609">
        <ele>885</ele>
        <time>2022-08-28T03:38:47.000Z</time>
      </trkpt>
      <trkpt lat="42.98036" lon="0.23817">
        <ele>897</ele>
        <time>2022-08-28T03:39:28.000Z</time>
      </trkpt>
      <trkpt lat="42.98" lon="0.23863">
        <ele>894</ele>
        <time>2022-08-28T03:39:37.000Z</time>
      </trkpt>
      <trkpt lat="42.97957" lon="0.23935">
        <ele>899</ele>
        <time>2022-08-28T03:39:49.000Z</time>
      </trkpt>
      <trkpt lat="42.97944" lon="0.23952">
        <ele>901</ele>
        <time>2022-08-28T03:39:52.000Z</time>
      </trkpt>
      <trkpt lat="42.97858" lon="0.24006">
        <ele>915</ele>
        <time>2022-08-28T03:40:09.000Z</time>
      </trkpt>
      <trkpt lat="42.97846" lon="0.2402">
        <ele>915</ele>
        <time>2022-08-28T03:40:12.000Z</time>
      </trkpt>
      <trkpt lat="42.97761" lon="0.24227">
        <ele>904</ele>
        <time>2022-08-28T03:40:43.000Z</time>
      </trkpt>
      <trkpt lat="42.97741" lon="0.24249">
        <ele>900</ele>
        <time>2022-08-28T03:40:47.000Z</time>
      </trkpt>
      <trkpt lat="42.97673" lon="0.24273">
        <ele>906</ele>
        <time>2022-08-28T03:41:00.000Z</time>
      </trkpt>
      <trkpt lat="42.97584" lon="0.24289">
        <ele>913</ele>
        <time>2022-08-28T03:41:16.000Z</time>
      </trkpt>
      <trkpt lat="42.9753" lon="0.24314">
        <ele>911</ele>
        <time>2022-08-28T03:41:26.000Z</time>
      </trkpt>
      <trkpt lat="42.97516" lon="0.24318">
        <ele>911</ele>
        <time>2022-08-28T03:41:28.000Z</time>
      </trkpt>
      <trkpt lat="42.97396" lon="0.24323">
        <ele>916</ele>
        <time>2022-08-28T03:41:50.000Z</time>
      </trkpt>
      <trkpt lat="42.97246" lon="0.2437">
        <ele>921</ele>
        <time>2022-08-28T03:42:17.000Z</time>
      </trkpt>
      <trkpt lat="42.97176" lon="0.24403">
        <ele>921</ele>
        <time>2022-08-28T03:42:30.000Z</time>
      </trkpt>
      <trkpt lat="42.96924" lon="0.24423">
        <ele>943</ele>
        <time>2022-08-28T03:43:15.000Z</time>
      </trkpt>
      <trkpt lat="42.96904" lon="0.24426">
        <ele>943</ele>
        <time>2022-08-28T03:43:19.000Z</time>
      </trkpt>
      <trkpt lat="42.96753" lon="0.24494">
        <ele>943</ele>
        <time>2022-08-28T03:43:47.000Z</time>
      </trkpt>
      <trkpt lat="42.96644" lon="0.24506">
        <ele>948</ele>
        <time>2022-08-28T03:44:07.000Z</time>
      </trkpt>
      <trkpt lat="42.96618" lon="0.24513">
        <ele>951</ele>
        <time>2022-08-28T03:44:11.000Z</time>
      </trkpt>
      <trkpt lat="42.96541" lon="0.24566">
        <ele>952</ele>
        <time>2022-08-28T03:44:27.000Z</time>
      </trkpt>
      <trkpt lat="42.96505" lon="0.24601">
        <ele>952</ele>
        <time>2022-08-28T03:44:35.000Z</time>
      </trkpt>
      <trkpt lat="42.96412" lon="0.24704">
        <ele>958</ele>
        <time>2022-08-28T03:44:56.000Z</time>
      </trkpt>
      <trkpt lat="42.96292" lon="0.24944">
        <ele>963</ele>
        <time>2022-08-28T03:45:34.000Z</time>
      </trkpt>
      <trkpt lat="42.96264" lon="0.25009">
        <ele>965</ele>
        <time>2022-08-28T03:45:44.000Z</time>
      </trkpt>
      <trkpt lat="42.96182" lon="0.2515">
        <ele>972</ele>
        <time>2022-08-28T03:46:07.000Z</time>
      </trkpt>
      <trkpt lat="42.96081" lon="0.25278">
        <ele>979</ele>
        <time>2022-08-28T03:46:32.000Z</time>
      </trkpt>
      <trkpt lat="42.96002" lon="0.2539">
        <ele>985</ele>
        <time>2022-08-28T03:46:52.000Z</time>
      </trkpt>
      <trkpt lat="42.95949" lon="0.25454">
        <ele>986</ele>
        <time>2022-08-28T03:47:04.000Z</time>
      </trkpt>
      <trkpt lat="42.9591" lon="0.25485">
        <ele>988</ele>
        <time>2022-08-28T03:47:13.000Z</time>
      </trkpt>
      <trkpt lat="42.95851" lon="0.25542">
        <ele>996</ele>
        <time>2022-08-28T03:47:25.000Z</time>
      </trkpt>
      <trkpt lat="42.95759" lon="0.25653">
        <ele>995</ele>
        <time>2022-08-28T03:47:47.000Z</time>
      </trkpt>
      <trkpt lat="42.95625" lon="0.25791">
        <ele>1002</ele>
        <time>2022-08-28T03:48:17.000Z</time>
      </trkpt>
      <trkpt lat="42.95592" lon="0.25843">
        <ele>1000</ele>
        <time>2022-08-28T03:48:26.000Z</time>
      </trkpt>
      <trkpt lat="42.95557" lon="0.25938">
        <ele>1002</ele>
        <time>2022-08-28T03:48:40.000Z</time>
      </trkpt>
      <trkpt lat="42.95544" lon="0.25955">
        <ele>1004</ele>
        <time>2022-08-28T03:48:43.000Z</time>
      </trkpt>
      <trkpt lat="42.95387" lon="0.26031">
        <ele>1017</ele>
        <time>2022-08-28T03:49:13.000Z</time>
      </trkpt>
      <trkpt lat="42.95366" lon="0.26048">
        <ele>1019</ele>
        <time>2022-08-28T03:49:17.000Z</time>
      </trkpt>
      <trkpt lat="42.9531" lon="0.2615">
        <ele>1020</ele>
        <time>2022-08-28T03:49:34.000Z</time>
      </trkpt>
      <trkpt lat="42.9526" lon="0.26259">
        <ele>1026</ele>
        <time>2022-08-28T03:49:51.000Z</time>
      </trkpt>
      <trkpt lat="42.9522" lon="0.26387">
        <ele>1038</ele>
        <time>2022-08-28T03:50:09.000Z</time>
      </trkpt>
      <trkpt lat="42.95207" lon="0.26424">
        <ele>1043</ele>
        <time>2022-08-28T03:50:14.000Z</time>
      </trkpt>
      <trkpt lat="42.95166" lon="0.26473">
        <ele>1046</ele>
        <time>2022-08-28T03:50:24.000Z</time>
      </trkpt>
      <trkpt lat="42.95146" lon="0.26515">
        <ele>1050</ele>
        <time>2022-08-28T03:50:30.000Z</time>
      </trkpt>
      <trkpt lat="42.95134" lon="0.26639">
        <ele>1054</ele>
        <time>2022-08-28T03:50:47.000Z</time>
      </trkpt>
      <trkpt lat="42.95124" lon="0.26668">
        <ele>1056</ele>
        <time>2022-08-28T03:50:51.000Z</time>
      </trkpt>
      <trkpt lat="42.95009" lon="0.26769">
        <ele>1067</ele>
        <time>2022-08-28T03:51:15.000Z</time>
      </trkpt>
      <trkpt lat="42.94987" lon="0.26791">
        <ele>1072</ele>
        <time>2022-08-28T03:51:20.000Z</time>
      </trkpt>
      <trkpt lat="42.94983" lon="0.26801">
        <ele>1072</ele>
        <time>2022-08-28T03:51:22.000Z</time>
      </trkpt>
      <trkpt lat="42.94979" lon="0.26827">
        <ele>1072</ele>
        <time>2022-08-28T03:51:25.000Z</time>
      </trkpt>
      <trkpt lat="42.94986" lon="0.26882">
        <ele>1068</ele>
        <time>2022-08-28T03:51:32.000Z</time>
      </trkpt>
      <trkpt lat="42.94982" lon="0.26906">
        <ele>1069</ele>
        <time>2022-08-28T03:51:36.000Z</time>
      </trkpt>
      <trkpt lat="42.9494" lon="0.26992">
        <ele>1072</ele>
        <time>2022-08-28T03:51:49.000Z</time>
      </trkpt>
      <trkpt lat="42.9491" lon="0.27038">
        <ele>1076</ele>
        <time>2022-08-28T03:51:57.000Z</time>
      </trkpt>
      <trkpt lat="42.94895" lon="0.27051">
        <ele>1079</ele>
        <time>2022-08-28T03:52:00.000Z</time>
      </trkpt>
      <trkpt lat="42.94883" lon="0.27056">
        <ele>1081</ele>
        <time>2022-08-28T03:52:02.000Z</time>
      </trkpt>
      <trkpt lat="42.94823" lon="0.27059">
        <ele>1088</ele>
        <time>2022-08-28T03:52:13.000Z</time>
      </trkpt>
      <trkpt lat="42.94766" lon="0.27076">
        <ele>1093</ele>
        <time>2022-08-28T03:52:24.000Z</time>
      </trkpt>
      <trkpt lat="42.9473" lon="0.27095">
        <ele>1096</ele>
        <time>2022-08-28T03:52:30.000Z</time>
      </trkpt>
      <trkpt lat="42.9459" lon="0.27209">
        <ele>1097</ele>
        <time>2022-08-28T03:52:59.000Z</time>
      </trkpt>
      <trkpt lat="42.94565" lon="0.27242">
        <ele>1096</ele>
        <time>2022-08-28T03:53:06.000Z</time>
      </trkpt>
      <trkpt lat="42.94489" lon="0.27469">
        <ele>1088</ele>
        <time>2022-08-28T03:53:38.000Z</time>
      </trkpt>
      <trkpt lat="42.94474" lon="0.27513">
        <ele>1089</ele>
        <time>2022-08-28T03:53:45.000Z</time>
      </trkpt>
      <trkpt lat="42.94464" lon="0.27572">
        <ele>1093</ele>
        <time>2022-08-28T03:53:52.000Z</time>
      </trkpt>
      <trkpt lat="42.94453" lon="0.27607">
        <ele>1097</ele>
        <time>2022-08-28T03:53:57.000Z</time>
      </trkpt>
      <trkpt lat="42.94393" lon="0.277">
        <ele>1096</ele>
        <time>2022-08-28T03:54:14.000Z</time>
      </trkpt>
      <trkpt lat="42.9437" lon="0.27766">
        <ele>1097</ele>
        <time>2022-08-28T03:54:23.000Z</time>
      </trkpt>
      <trkpt lat="42.9436" lon="0.2781">
        <ele>1097</ele>
        <time>2022-08-28T03:54:29.000Z</time>
      </trkpt>
      <trkpt lat="42.94359" lon="0.27835">
        <ele>1098</ele>
        <time>2022-08-28T03:54:32.000Z</time>
      </trkpt>
      <trkpt lat="42.94366" lon="0.27948">
        <ele>1102</ele>
        <time>2022-08-28T03:54:47.000Z</time>
      </trkpt>
      <trkpt lat="42.94363" lon="0.27984">
        <ele>1099</ele>
        <time>2022-08-28T03:54:52.000Z</time>
      </trkpt>
      <trkpt lat="42.94348" lon="0.28034">
        <ele>1096</ele>
        <time>2022-08-28T03:54:59.000Z</time>
      </trkpt>
      <trkpt lat="42.94331" lon="0.28122">
        <ele>1099</ele>
        <time>2022-08-28T03:55:11.000Z</time>
      </trkpt>
      <trkpt lat="42.94292" lon="0.28202">
        <ele>1102</ele>
        <time>2022-08-28T03:55:23.000Z</time>
      </trkpt>
      <trkpt lat="42.9428" lon="0.28242">
        <ele>1104</ele>
        <time>2022-08-28T03:55:29.000Z</time>
      </trkpt>
      <trkpt lat="42.94286" lon="0.28506">
        <ele>1107</ele>
        <time>2022-08-28T03:56:03.000Z</time>
      </trkpt>
      <trkpt lat="42.94289" lon="0.28523">
        <ele>1107</ele>
        <time>2022-08-28T03:56:06.000Z</time>
      </trkpt>
      <trkpt lat="42.94305" lon="0.28566">
        <ele>1107</ele>
        <time>2022-08-28T03:56:12.000Z</time>
      </trkpt>
      <trkpt lat="42.94422" lon="0.28776">
        <ele>1107</ele>
        <time>2022-08-28T03:56:46.000Z</time>
      </trkpt>
      <trkpt lat="42.94433" lon="0.28846">
        <ele>1111</ele>
        <time>2022-08-28T03:56:56.000Z</time>
      </trkpt>
      <trkpt lat="42.94427" lon="0.28881">
        <ele>1115</ele>
        <time>2022-08-28T03:57:01.000Z</time>
      </trkpt>
      <trkpt lat="42.94405" lon="0.28906">
        <ele>1121</ele>
        <time>2022-08-28T03:57:06.000Z</time>
      </trkpt>
      <trkpt lat="42.94399" lon="0.28906">
        <ele>1122</ele>
        <time>2022-08-28T03:57:07.000Z</time>
      </trkpt>
      <trkpt lat="42.9436" lon="0.2887">
        <ele>1124</ele>
        <time>2022-08-28T03:57:15.000Z</time>
      </trkpt>
      <trkpt lat="42.94337" lon="0.28855">
        <ele>1126</ele>
        <time>2022-08-28T03:57:20.000Z</time>
      </trkpt>
      <trkpt lat="42.94258" lon="0.2884">
        <ele>1127</ele>
        <time>2022-08-28T03:57:34.000Z</time>
      </trkpt>
      <trkpt lat="42.94239" lon="0.28841">
        <ele>1129</ele>
        <time>2022-08-28T03:57:37.000Z</time>
      </trkpt>
      <trkpt lat="42.94219" lon="0.28847">
        <ele>1131</ele>
        <time>2022-08-28T03:57:41.000Z</time>
      </trkpt>
      <trkpt lat="42.94185" lon="0.28862">
        <ele>1135</ele>
        <time>2022-08-28T03:57:47.000Z</time>
      </trkpt>
      <trkpt lat="42.94121" lon="0.28908">
        <ele>1140</ele>
        <time>2022-08-28T03:58:00.000Z</time>
      </trkpt>
      <trkpt lat="42.94099" lon="0.28941">
        <ele>1143</ele>
        <time>2022-08-28T03:58:06.000Z</time>
      </trkpt>
      <trkpt lat="42.9407" lon="0.29021">
        <ele>1151</ele>
        <time>2022-08-28T03:58:18.000Z</time>
      </trkpt>
      <trkpt lat="42.9407" lon="0.29046">
        <ele>1156</ele>
        <time>2022-08-28T03:58:21.000Z</time>
      </trkpt>
      <trkpt lat="42.94075" lon="0.2905">
        <ele>1159</ele>
        <time>2022-08-28T03:58:22.000Z</time>
      </trkpt>
      <trkpt lat="42.9408" lon="0.2905">
        <ele>1161</ele>
        <time>2022-08-28T03:58:23.000Z</time>
      </trkpt>
      <trkpt lat="42.94087" lon="0.29046">
        <ele>1162</ele>
        <time>2022-08-28T03:58:24.000Z</time>
      </trkpt>
      <trkpt lat="42.94109" lon="0.29014">
        <ele>1159</ele>
        <time>2022-08-28T03:58:30.000Z</time>
      </trkpt>
      <trkpt lat="42.94122" lon="0.2901">
        <ele>1161</ele>
        <time>2022-08-28T03:58:33.000Z</time>
      </trkpt>
      <trkpt lat="42.94206" lon="0.29015">
        <ele>1173</ele>
        <time>2022-08-28T03:58:48.000Z</time>
      </trkpt>
      <trkpt lat="42.94255" lon="0.29017">
        <ele>1176</ele>
        <time>2022-08-28T03:58:56.000Z</time>
      </trkpt>
      <trkpt lat="42.94271" lon="0.29026">
        <ele>1175</ele>
        <time>2022-08-28T03:58:59.000Z</time>
      </trkpt>
      <trkpt lat="42.94274" lon="0.2904">
        <ele>1177</ele>
        <time>2022-08-28T03:59:01.000Z</time>
      </trkpt>
      <trkpt lat="42.94267" lon="0.29052">
        <ele>1182</ele>
        <time>2022-08-28T03:59:03.000Z</time>
      </trkpt>
      <trkpt lat="42.94232" lon="0.29052">
        <ele>1184</ele>
        <time>2022-08-28T03:59:10.000Z</time>
      </trkpt>
      <trkpt lat="42.942" lon="0.29065">
        <ele>1184</ele>
        <time>2022-08-28T03:59:16.000Z</time>
      </trkpt>
      <trkpt lat="42.94169" lon="0.29099">
        <ele>1189</ele>
        <time>2022-08-28T03:59:23.000Z</time>
      </trkpt>
      <trkpt lat="42.94136" lon="0.29151">
        <ele>1196</ele>
        <time>2022-08-28T03:59:32.000Z</time>
      </trkpt>
      <trkpt lat="42.94064" lon="0.29279">
        <ele>1206</ele>
        <time>2022-08-28T03:59:53.000Z</time>
      </trkpt>
      <trkpt lat="42.94035" lon="0.29309">
        <ele>1204</ele>
        <time>2022-08-28T03:59:59.000Z</time>
      </trkpt>
      <trkpt lat="42.94036" lon="0.29318">
        <ele>1206</ele>
        <time>2022-08-28T04:00:00.000Z</time>
      </trkpt>
      <trkpt lat="42.9405" lon="0.29328">
        <ele>1212</ele>
        <time>2022-08-28T04:00:03.000Z</time>
      </trkpt>
      <trkpt lat="42.94056" lon="0.29326">
        <ele>1214</ele>
        <time>2022-08-28T04:00:04.000Z</time>
      </trkpt>
      <trkpt lat="42.94091" lon="0.29293">
        <ele>1216</ele>
        <time>2022-08-28T04:00:12.000Z</time>
      </trkpt>
      <trkpt lat="42.94181" lon="0.29253">
        <ele>1223</ele>
        <time>2022-08-28T04:00:29.000Z</time>
      </trkpt>
      <trkpt lat="42.94219" lon="0.29243">
        <ele>1223</ele>
        <time>2022-08-28T04:00:36.000Z</time>
      </trkpt>
      <trkpt lat="42.94236" lon="0.29242">
        <ele>1223</ele>
        <time>2022-08-28T04:00:39.000Z</time>
      </trkpt>
      <trkpt lat="42.94249" lon="0.29254">
        <ele>1226</ele>
        <time>2022-08-28T04:00:42.000Z</time>
      </trkpt>
      <trkpt lat="42.9425" lon="0.2927">
        <ele>1228</ele>
        <time>2022-08-28T04:00:44.000Z</time>
      </trkpt>
      <trkpt lat="42.94247" lon="0.29279">
        <ele>1229</ele>
        <time>2022-08-28T04:00:45.000Z</time>
      </trkpt>
      <trkpt lat="42.94242" lon="0.29285">
        <ele>1230</ele>
        <time>2022-08-28T04:00:46.000Z</time>
      </trkpt>
      <trkpt lat="42.94212" lon="0.29302">
        <ele>1232</ele>
        <time>2022-08-28T04:00:52.000Z</time>
      </trkpt>
      <trkpt lat="42.94187" lon="0.29324">
        <ele>1235</ele>
        <time>2022-08-28T04:00:57.000Z</time>
      </trkpt>
      <trkpt lat="42.94154" lon="0.29366">
        <ele>1241</ele>
        <time>2022-08-28T04:01:05.000Z</time>
      </trkpt>
      <trkpt lat="42.94118" lon="0.2942">
        <ele>1246</ele>
        <time>2022-08-28T04:01:15.000Z</time>
      </trkpt>
      <trkpt lat="42.94039" lon="0.29613">
        <ele>1269</ele>
        <time>2022-08-28T04:01:44.000Z</time>
      </trkpt>
      <trkpt lat="42.94034" lon="0.29652">
        <ele>1276</ele>
        <time>2022-08-28T04:01:49.000Z</time>
      </trkpt>
      <trkpt lat="42.93974" lon="0.29687">
        <ele>1271</ele>
        <time>2022-08-28T04:02:01.000Z</time>
      </trkpt>
      <trkpt lat="42.93959" lon="0.29705">
        <ele>1272</ele>
        <time>2022-08-28T04:02:04.000Z</time>
      </trkpt>
      <trkpt lat="42.93912" lon="0.29818">
        <ele>1284</ele>
        <time>2022-08-28T04:02:21.000Z</time>
      </trkpt>
      <trkpt lat="42.93905" lon="0.29876">
        <ele>1280</ele>
        <time>2022-08-28T04:02:29.000Z</time>
      </trkpt>
      <trkpt lat="42.93909" lon="0.29897">
        <ele>1281</ele>
        <time>2022-08-28T04:02:32.000Z</time>
      </trkpt>
      <trkpt lat="42.9394" lon="0.29931">
        <ele>1292</ele>
        <time>2022-08-28T04:02:39.000Z</time>
      </trkpt>
      <trkpt lat="42.93945" lon="0.29941">
        <ele>1294</ele>
        <time>2022-08-28T04:02:40.000Z</time>
      </trkpt>
      <trkpt lat="42.9395" lon="0.29999">
        <ele>1294</ele>
        <time>2022-08-28T04:02:48.000Z</time>
      </trkpt>
      <trkpt lat="42.93954" lon="0.30021">
        <ele>1294</ele>
        <time>2022-08-28T04:02:51.000Z</time>
      </trkpt>
      <trkpt lat="42.93964" lon="0.30032">
        <ele>1297</ele>
        <time>2022-08-28T04:02:53.000Z</time>
      </trkpt>
      <trkpt lat="42.9399" lon="0.30036">
        <ele>1307</ele>
        <time>2022-08-28T04:02:58.000Z</time>
      </trkpt>
      <trkpt lat="42.94001" lon="0.30044">
        <ele>1310</ele>
        <time>2022-08-28T04:03:00.000Z</time>
      </trkpt>
      <trkpt lat="42.94053" lon="0.30166">
        <ele>1312</ele>
        <time>2022-08-28T04:03:19.000Z</time>
      </trkpt>
      <trkpt lat="42.94061" lon="0.3018">
        <ele>1313</ele>
        <time>2022-08-28T04:03:21.000Z</time>
      </trkpt>
      <trkpt lat="42.9408" lon="0.30203">
        <ele>1318</ele>
        <time>2022-08-28T04:03:25.000Z</time>
      </trkpt>
      <trkpt lat="42.94114" lon="0.30222">
        <ele>1327</ele>
        <time>2022-08-28T04:03:32.000Z</time>
      </trkpt>
      <trkpt lat="42.94142" lon="0.30263">
        <ele>1331</ele>
        <time>2022-08-28T04:03:39.000Z</time>
      </trkpt>
      <trkpt lat="42.9415" lon="0.30309">
        <ele>1328</ele>
        <time>2022-08-28T04:03:46.000Z</time>
      </trkpt>
      <trkpt lat="42.94155" lon="0.30324">
        <ele>1328</ele>
        <time>2022-08-28T04:03:48.000Z</time>
      </trkpt>
      <trkpt lat="42.94221" lon="0.30477">
        <ele>1342</ele>
        <time>2022-08-28T04:04:11.000Z</time>
      </trkpt>
      <trkpt lat="42.94228" lon="0.30526">
        <ele>1342</ele>
        <time>2022-08-28T04:04:17.000Z</time>
      </trkpt>
      <trkpt lat="42.94238" lon="0.30538">
        <ele>1345</ele>
        <time>2022-08-28T04:04:20.000Z</time>
      </trkpt>
      <trkpt lat="42.94271" lon="0.30546">
        <ele>1356</ele>
        <time>2022-08-28T04:04:26.000Z</time>
      </trkpt>
      <trkpt lat="42.94279" lon="0.30557">
        <ele>1358</ele>
        <time>2022-08-28T04:04:28.000Z</time>
      </trkpt>
      <trkpt lat="42.94277" lon="0.30646">
        <ele>1356</ele>
        <time>2022-08-28T04:04:39.000Z</time>
      </trkpt>
      <trkpt lat="42.94279" lon="0.30668">
        <ele>1357</ele>
        <time>2022-08-28T04:04:42.000Z</time>
      </trkpt>
      <trkpt lat="42.94304" lon="0.30697">
        <ele>1366</ele>
        <time>2022-08-28T04:04:48.000Z</time>
      </trkpt>
      <trkpt lat="42.94307" lon="0.30714">
        <ele>1367</ele>
        <time>2022-08-28T04:04:51.000Z</time>
      </trkpt>
      <trkpt lat="42.94275" lon="0.3081">
        <ele>1363</ele>
        <time>2022-08-28T04:05:04.000Z</time>
      </trkpt>
      <trkpt lat="42.94257" lon="0.30909">
        <ele>1371</ele>
        <time>2022-08-28T04:05:18.000Z</time>
      </trkpt>
      <trkpt lat="42.94241" lon="0.3112">
        <ele>1378</ele>
        <time>2022-08-28T04:05:45.000Z</time>
      </trkpt>
      <trkpt lat="42.94245" lon="0.31138">
        <ele>1378</ele>
        <time>2022-08-28T04:05:48.000Z</time>
      </trkpt>
      <trkpt lat="42.94255" lon="0.31149">
        <ele>1380</ele>
        <time>2022-08-28T04:05:50.000Z</time>
      </trkpt>
      <trkpt lat="42.94278" lon="0.31153">
        <ele>1386</ele>
        <time>2022-08-28T04:05:54.000Z</time>
      </trkpt>
      <trkpt lat="42.94296" lon="0.31163">
        <ele>1390</ele>
        <time>2022-08-28T04:05:58.000Z</time>
      </trkpt>
      <trkpt lat="42.94386" lon="0.31271">
        <ele>1393</ele>
        <time>2022-08-28T04:06:19.000Z</time>
      </trkpt>
      <trkpt lat="42.94399" lon="0.31287">
        <ele>1394</ele>
        <time>2022-08-28T04:06:22.000Z</time>
      </trkpt>
      <trkpt lat="42.94466" lon="0.3143">
        <ele>1401</ele>
        <time>2022-08-28T04:06:44.000Z</time>
      </trkpt>
      <trkpt lat="42.94484" lon="0.31488">
        <ele>1403</ele>
        <time>2022-08-28T04:06:53.000Z</time>
      </trkpt>
      <trkpt lat="42.94506" lon="0.31523">
        <ele>1408</ele>
        <time>2022-08-28T04:06:59.000Z</time>
      </trkpt>
      <trkpt lat="42.94561" lon="0.316">
        <ele>1415</ele>
        <time>2022-08-28T04:07:13.000Z</time>
      </trkpt>
      <trkpt lat="42.94605" lon="0.31636">
        <ele>1425</ele>
        <time>2022-08-28T04:07:22.000Z</time>
      </trkpt>
      <trkpt lat="42.94624" lon="0.31657">
        <ele>1430</ele>
        <time>2022-08-28T04:07:26.000Z</time>
      </trkpt>
      <trkpt lat="42.9465" lon="0.31706">
        <ele>1442</ele>
        <time>2022-08-28T04:07:34.000Z</time>
      </trkpt>
      <trkpt lat="42.94651" lon="0.31714">
        <ele>1443</ele>
        <time>2022-08-28T04:07:35.000Z</time>
      </trkpt>
      <trkpt lat="42.94647" lon="0.31728">
        <ele>1442</ele>
        <time>2022-08-28T04:07:37.000Z</time>
      </trkpt>
      <trkpt lat="42.94642" lon="0.31735">
        <ele>1440</ele>
        <time>2022-08-28T04:07:38.000Z</time>
      </trkpt>
      <trkpt lat="42.94607" lon="0.3177">
        <ele>1430</ele>
        <time>2022-08-28T04:07:46.000Z</time>
      </trkpt>
      <trkpt lat="42.94594" lon="0.31795">
        <ele>1430</ele>
        <time>2022-08-28T04:07:50.000Z</time>
      </trkpt>
      <trkpt lat="42.94579" lon="0.31835">
        <ele>1432</ele>
        <time>2022-08-28T04:07:56.000Z</time>
      </trkpt>
      <trkpt lat="42.94561" lon="0.319">
        <ele>1446</ele>
        <time>2022-08-28T04:08:05.000Z</time>
      </trkpt>
      <trkpt lat="42.94508" lon="0.31996">
        <ele>1454</ele>
        <time>2022-08-28T04:08:21.000Z</time>
      </trkpt>
      <trkpt lat="42.94491" lon="0.32031">
        <ele>1457</ele>
        <time>2022-08-28T04:08:26.000Z</time>
      </trkpt>
      <trkpt lat="42.94411" lon="0.32228">
        <ele>1461</ele>
        <time>2022-08-28T04:08:55.000Z</time>
      </trkpt>
      <trkpt lat="42.94373" lon="0.32302">
        <ele>1463</ele>
        <time>2022-08-28T04:09:07.000Z</time>
      </trkpt>
      <trkpt lat="42.94353" lon="0.32432">
        <ele>1471</ele>
        <time>2022-08-28T04:09:25.000Z</time>
      </trkpt>
      <trkpt lat="42.94322" lon="0.32603">
        <ele>1486</ele>
        <time>2022-08-28T04:09:48.000Z</time>
      </trkpt>
      <trkpt lat="42.94304" lon="0.32647">
        <ele>1492</ele>
        <time>2022-08-28T04:09:54.000Z</time>
      </trkpt>
      <trkpt lat="42.94228" lon="0.32749">
        <ele>1485</ele>
        <time>2022-08-28T04:10:13.000Z</time>
      </trkpt>
      <trkpt lat="42.94226" lon="0.32758">
        <ele>1484</ele>
        <time>2022-08-28T04:10:14.000Z</time>
      </trkpt>
      <trkpt lat="42.94228" lon="0.32802">
        <ele>1481</ele>
        <time>2022-08-28T04:10:20.000Z</time>
      </trkpt>
      <trkpt lat="42.9426" lon="0.32908">
        <ele>1477</ele>
        <time>2022-08-28T04:10:35.000Z</time>
      </trkpt>
      <trkpt lat="42.94279" lon="0.3295">
        <ele>1477</ele>
        <time>2022-08-28T04:10:42.000Z</time>
      </trkpt>
      <trkpt lat="42.94288" lon="0.33074">
        <ele>1461</ele>
        <time>2022-08-28T04:10:58.000Z</time>
      </trkpt>
      <trkpt lat="42.94291" lon="0.33094">
        <ele>1459</ele>
        <time>2022-08-28T04:11:00.000Z</time>
      </trkpt>
      <trkpt lat="42.94324" lon="0.33134">
        <ele>1466</ele>
        <time>2022-08-28T04:11:08.000Z</time>
      </trkpt>
      <trkpt lat="42.94335" lon="0.33171">
        <ele>1461</ele>
        <time>2022-08-28T04:11:14.000Z</time>
      </trkpt>
      <trkpt lat="42.94346" lon="0.33183">
        <ele>1463</ele>
        <time>2022-08-28T04:11:16.000Z</time>
      </trkpt>
      <trkpt lat="42.94373" lon="0.33194">
        <ele>1474</ele>
        <time>2022-08-28T04:11:21.000Z</time>
      </trkpt>
      <trkpt lat="42.9438" lon="0.33207">
        <ele>1475</ele>
        <time>2022-08-28T04:11:23.000Z</time>
      </trkpt>
      <trkpt lat="42.94383" lon="0.33222">
        <ele>1473</ele>
        <time>2022-08-28T04:11:25.000Z</time>
      </trkpt>
      <trkpt lat="42.94387" lon="0.33301">
        <ele>1465</ele>
        <time>2022-08-28T04:11:36.000Z</time>
      </trkpt>
      <trkpt lat="42.94386" lon="0.33341">
        <ele>1463</ele>
        <time>2022-08-28T04:11:41.000Z</time>
      </trkpt>
      <trkpt lat="42.94346" lon="0.33483">
        <ele>1442</ele>
        <time>2022-08-28T04:12:01.000Z</time>
      </trkpt>
      <trkpt lat="42.94331" lon="0.33544">
        <ele>1432</ele>
        <time>2022-08-28T04:12:09.000Z</time>
      </trkpt>
      <trkpt lat="42.94332" lon="0.33648">
        <ele>1438</ele>
        <time>2022-08-28T04:12:23.000Z</time>
      </trkpt>
      <trkpt lat="42.9433" lon="0.33676">
        <ele>1440</ele>
        <time>2022-08-28T04:12:26.000Z</time>
      </trkpt>
      <trkpt lat="42.9432" lon="0.33699">
        <ele>1441</ele>
        <time>2022-08-28T04:12:30.000Z</time>
      </trkpt>
      <trkpt lat="42.94273" lon="0.33752">
        <ele>1429</ele>
        <time>2022-08-28T04:12:41.000Z</time>
      </trkpt>
      <trkpt lat="42.94242" lon="0.33764">
        <ele>1417</ele>
        <time>2022-08-28T04:12:46.000Z</time>
      </trkpt>
      <trkpt lat="42.94229" lon="0.33777">
        <ele>1415</ele>
        <time>2022-08-28T04:12:49.000Z</time>
      </trkpt>
      <trkpt lat="42.94207" lon="0.33824">
        <ele>1416</ele>
        <time>2022-08-28T04:12:57.000Z</time>
      </trkpt>
      <trkpt lat="42.94177" lon="0.33908">
        <ele>1412</ele>
        <time>2022-08-28T04:13:09.000Z</time>
      </trkpt>
      <trkpt lat="42.94162" lon="0.33958">
        <ele>1406</ele>
        <time>2022-08-28T04:13:16.000Z</time>
      </trkpt>
      <trkpt lat="42.9414" lon="0.3405">
        <ele>1397</ele>
        <time>2022-08-28T04:13:28.000Z</time>
      </trkpt>
      <trkpt lat="42.9412" lon="0.34189">
        <ele>1388</ele>
        <time>2022-08-28T04:13:47.000Z</time>
      </trkpt>
      <trkpt lat="42.94074" lon="0.3436">
        <ele>1376</ele>
        <time>2022-08-28T04:14:11.000Z</time>
      </trkpt>
      <trkpt lat="42.94071" lon="0.34387">
        <ele>1375</ele>
        <time>2022-08-28T04:14:14.000Z</time>
      </trkpt>
      <trkpt lat="42.94073" lon="0.34416">
        <ele>1376</ele>
        <time>2022-08-28T04:14:18.000Z</time>
      </trkpt>
      <trkpt lat="42.94093" lon="0.3446">
        <ele>1372</ele>
        <time>2022-08-28T04:14:25.000Z</time>
      </trkpt>
      <trkpt lat="42.94086" lon="0.34473">
        <ele>1370</ele>
        <time>2022-08-28T04:14:27.000Z</time>
      </trkpt>
      <trkpt lat="42.94081" lon="0.34476">
        <ele>1369</ele>
        <time>2022-08-28T04:14:28.000Z</time>
      </trkpt>
      <trkpt lat="42.94074" lon="0.34476">
        <ele>1367</ele>
        <time>2022-08-28T04:14:29.000Z</time>
      </trkpt>
      <trkpt lat="42.94057" lon="0.34451">
        <ele>1366</ele>
        <time>2022-08-28T04:14:34.000Z</time>
      </trkpt>
      <trkpt lat="42.94038" lon="0.34385">
        <ele>1361</ele>
        <time>2022-08-28T04:14:43.000Z</time>
      </trkpt>
      <trkpt lat="42.94058" lon="0.34156">
        <ele>1351</ele>
        <time>2022-08-28T04:15:13.000Z</time>
      </trkpt>
      <trkpt lat="42.94058" lon="0.3414">
        <ele>1352</ele>
        <time>2022-08-28T04:15:15.000Z</time>
      </trkpt>
      <trkpt lat="42.94051" lon="0.3412">
        <ele>1350</ele>
        <time>2022-08-28T04:15:18.000Z</time>
      </trkpt>
      <trkpt lat="42.94025" lon="0.34096">
        <ele>1340</ele>
        <time>2022-08-28T04:15:24.000Z</time>
      </trkpt>
      <trkpt lat="42.94017" lon="0.34073">
        <ele>1337</ele>
        <time>2022-08-28T04:15:27.000Z</time>
      </trkpt>
      <trkpt lat="42.94008" lon="0.33994">
        <ele>1333</ele>
        <time>2022-08-28T04:15:37.000Z</time>
      </trkpt>
      <trkpt lat="42.94009" lon="0.33922">
        <ele>1328</ele>
        <time>2022-08-28T04:15:47.000Z</time>
      </trkpt>
      <trkpt lat="42.9402" lon="0.3381">
        <ele>1319</ele>
        <time>2022-08-28T04:16:02.000Z</time>
      </trkpt>
      <trkpt lat="42.94029" lon="0.33755">
        <ele>1317</ele>
        <time>2022-08-28T04:16:09.000Z</time>
      </trkpt>
      <trkpt lat="42.94079" lon="0.33667">
        <ele>1315</ele>
        <time>2022-08-28T04:16:23.000Z</time>
      </trkpt>
      <trkpt lat="42.94102" lon="0.33616">
        <ele>1308</ele>
        <time>2022-08-28T04:16:31.000Z</time>
      </trkpt>
      <trkpt lat="42.94126" lon="0.33598">
        <ele>1312</ele>
        <time>2022-08-28T04:16:36.000Z</time>
      </trkpt>
      <trkpt lat="42.94139" lon="0.33581">
        <ele>1312</ele>
        <time>2022-08-28T04:16:39.000Z</time>
      </trkpt>
      <trkpt lat="42.94136" lon="0.3354">
        <ele>1307</ele>
        <time>2022-08-28T04:16:45.000Z</time>
      </trkpt>
      <trkpt lat="42.94128" lon="0.33536">
        <ele>1303</ele>
        <time>2022-08-28T04:16:47.000Z</time>
      </trkpt>
      <trkpt lat="42.94112" lon="0.33546">
        <ele>1297</ele>
        <time>2022-08-28T04:16:50.000Z</time>
      </trkpt>
      <trkpt lat="42.9408" lon="0.33618">
        <ele>1299</ele>
        <time>2022-08-28T04:17:01.000Z</time>
      </trkpt>
      <trkpt lat="42.94062" lon="0.33643">
        <ele>1297</ele>
        <time>2022-08-28T04:17:05.000Z</time>
      </trkpt>
      <trkpt lat="42.94017" lon="0.33689">
        <ele>1289</ele>
        <time>2022-08-28T04:17:15.000Z</time>
      </trkpt>
      <trkpt lat="42.93968" lon="0.33721">
        <ele>1274</ele>
        <time>2022-08-28T04:17:25.000Z</time>
      </trkpt>
      <trkpt lat="42.93954" lon="0.33741">
        <ele>1273</ele>
        <time>2022-08-28T04:17:29.000Z</time>
      </trkpt>
      <trkpt lat="42.93938" lon="0.33787">
        <ele>1274</ele>
        <time>2022-08-28T04:17:35.000Z</time>
      </trkpt>
      <trkpt lat="42.93904" lon="0.33857">
        <ele>1269</ele>
        <time>2022-08-28T04:17:46.000Z</time>
      </trkpt>
      <trkpt lat="42.93835" lon="0.33962">
        <ele>1257</ele>
        <time>2022-08-28T04:18:05.000Z</time>
      </trkpt>
      <trkpt lat="42.93806" lon="0.34009">
        <ele>1249</ele>
        <time>2022-08-28T04:18:13.000Z</time>
      </trkpt>
      <trkpt lat="42.93794" lon="0.34054">
        <ele>1240</ele>
        <time>2022-08-28T04:18:19.000Z</time>
      </trkpt>
      <trkpt lat="42.93795" lon="0.34083">
        <ele>1239</ele>
        <time>2022-08-28T04:18:23.000Z</time>
      </trkpt>
      <trkpt lat="42.93803" lon="0.34099">
        <ele>1239</ele>
        <time>2022-08-28T04:18:25.000Z</time>
      </trkpt>
      <trkpt lat="42.93832" lon="0.34112">
        <ele>1247</ele>
        <time>2022-08-28T04:18:31.000Z</time>
      </trkpt>
      <trkpt lat="42.9386" lon="0.34176">
        <ele>1252</ele>
        <time>2022-08-28T04:18:40.000Z</time>
      </trkpt>
      <trkpt lat="42.93861" lon="0.34184">
        <ele>1254</ele>
        <time>2022-08-28T04:18:42.000Z</time>
      </trkpt>
      <trkpt lat="42.93831" lon="0.34249">
        <ele>1246</ele>
        <time>2022-08-28T04:18:52.000Z</time>
      </trkpt>
      <trkpt lat="42.93812" lon="0.34272">
        <ele>1243</ele>
        <time>2022-08-28T04:18:56.000Z</time>
      </trkpt>
      <trkpt lat="42.9372" lon="0.34358">
        <ele>1225</ele>
        <time>2022-08-28T04:19:16.000Z</time>
      </trkpt>
      <trkpt lat="42.93615" lon="0.34482">
        <ele>1215</ele>
        <time>2022-08-28T04:19:41.000Z</time>
      </trkpt>
      <trkpt lat="42.93518" lon="0.34565">
        <ele>1204</ele>
        <time>2022-08-28T04:20:01.000Z</time>
      </trkpt>
      <trkpt lat="42.93444" lon="0.34614">
        <ele>1201</ele>
        <time>2022-08-28T04:20:16.000Z</time>
      </trkpt>
      <trkpt lat="42.93403" lon="0.34637">
        <ele>1197</ele>
        <time>2022-08-28T04:20:24.000Z</time>
      </trkpt>
      <trkpt lat="42.93232" lon="0.3472">
        <ele>1177</ele>
        <time>2022-08-28T04:20:56.000Z</time>
      </trkpt>
      <trkpt lat="42.93188" lon="0.34751">
        <ele>1174</ele>
        <time>2022-08-28T04:21:05.000Z</time>
      </trkpt>
      <trkpt lat="42.93055" lon="0.34895">
        <ele>1160</ele>
        <time>2022-08-28T04:21:35.000Z</time>
      </trkpt>
      <trkpt lat="42.92876" lon="0.35066">
        <ele>1134</ele>
        <time>2022-08-28T04:22:14.000Z</time>
      </trkpt>
      <trkpt lat="42.92829" lon="0.35099">
        <ele>1128</ele>
        <time>2022-08-28T04:22:23.000Z</time>
      </trkpt>
      <trkpt lat="42.92784" lon="0.35121">
        <ele>1123</ele>
        <time>2022-08-28T04:22:32.000Z</time>
      </trkpt>
      <trkpt lat="42.92705" lon="0.35131">
        <ele>1111</ele>
        <time>2022-08-28T04:22:46.000Z</time>
      </trkpt>
      <trkpt lat="42.92688" lon="0.35141">
        <ele>1110</ele>
        <time>2022-08-28T04:22:49.000Z</time>
      </trkpt>
      <trkpt lat="42.92568" lon="0.35307">
        <ele>1098</ele>
        <time>2022-08-28T04:23:20.000Z</time>
      </trkpt>
      <trkpt lat="42.92535" lon="0.35358">
        <ele>1092</ele>
        <time>2022-08-28T04:23:29.000Z</time>
      </trkpt>
      <trkpt lat="42.92523" lon="0.35412">
        <ele>1094</ele>
        <time>2022-08-28T04:23:36.000Z</time>
      </trkpt>
      <trkpt lat="42.92518" lon="0.35421">
        <ele>1094</ele>
        <time>2022-08-28T04:23:37.000Z</time>
      </trkpt>
      <trkpt lat="42.92497" lon="0.35418">
        <ele>1091</ele>
        <time>2022-08-28T04:23:41.000Z</time>
      </trkpt>
      <trkpt lat="42.92496" lon="0.35401">
        <ele>1088</ele>
        <time>2022-08-28T04:23:44.000Z</time>
      </trkpt>
      <trkpt lat="42.92552" lon="0.35184">
        <ele>1078</ele>
        <time>2022-08-28T04:24:14.000Z</time>
      </trkpt>
      <trkpt lat="42.92567" lon="0.35145">
        <ele>1075</ele>
        <time>2022-08-28T04:24:19.000Z</time>
      </trkpt>
      <trkpt lat="42.92623" lon="0.35012">
        <ele>1064</ele>
        <time>2022-08-28T04:24:39.000Z</time>
      </trkpt>
      <trkpt lat="42.92644" lon="0.34972">
        <ele>1061</ele>
        <time>2022-08-28T04:24:46.000Z</time>
      </trkpt>
      <trkpt lat="42.92786" lon="0.34769">
        <ele>1052</ele>
        <time>2022-08-28T04:25:23.000Z</time>
      </trkpt>
      <trkpt lat="42.92793" lon="0.3475">
        <ele>1049</ele>
        <time>2022-08-28T04:25:25.000Z</time>
      </trkpt>
      <trkpt lat="42.92796" lon="0.34721">
        <ele>1046</ele>
        <time>2022-08-28T04:25:29.000Z</time>
      </trkpt>
      <trkpt lat="42.92796" lon="0.34607">
        <ele>1035</ele>
        <time>2022-08-28T04:25:44.000Z</time>
      </trkpt>
      <trkpt lat="42.92816" lon="0.34542">
        <ele>1032</ele>
        <time>2022-08-28T04:25:53.000Z</time>
      </trkpt>
      <trkpt lat="42.92816" lon="0.34525">
        <ele>1030</ele>
        <time>2022-08-28T04:25:55.000Z</time>
      </trkpt>
      <trkpt lat="42.9274" lon="0.34446">
        <ele>1014</ele>
        <time>2022-08-28T04:26:12.000Z</time>
      </trkpt>
      <trkpt lat="42.92734" lon="0.34443">
        <ele>1013</ele>
        <time>2022-08-28T04:26:14.000Z</time>
      </trkpt>
      <trkpt lat="42.92707" lon="0.34442">
        <ele>1010</ele>
        <time>2022-08-28T04:26:18.000Z</time>
      </trkpt>
      <trkpt lat="42.92679" lon="0.34462">
        <ele>1011</ele>
        <time>2022-08-28T04:26:24.000Z</time>
      </trkpt>
      <trkpt lat="42.9266" lon="0.34482">
        <ele>1012</ele>
        <time>2022-08-28T04:26:28.000Z</time>
      </trkpt>
      <trkpt lat="42.92633" lon="0.34546">
        <ele>1004</ele>
        <time>2022-08-28T04:26:38.000Z</time>
      </trkpt>
      <trkpt lat="42.92634" lon="0.34575">
        <ele>1003</ele>
        <time>2022-08-28T04:26:42.000Z</time>
      </trkpt>
      <trkpt lat="42.92643" lon="0.34604">
        <ele>1002</ele>
        <time>2022-08-28T04:26:46.000Z</time>
      </trkpt>
      <trkpt lat="42.9265" lon="0.34612">
        <ele>1003</ele>
        <time>2022-08-28T04:26:48.000Z</time>
      </trkpt>
      <trkpt lat="42.92688" lon="0.34641">
        <ele>1009</ele>
        <time>2022-08-28T04:26:55.000Z</time>
      </trkpt>
      <trkpt lat="42.92707" lon="0.34671">
        <ele>1013</ele>
        <time>2022-08-28T04:27:01.000Z</time>
      </trkpt>
      <trkpt lat="42.92704" lon="0.347">
        <ele>1015</ele>
        <time>2022-08-28T04:27:04.000Z</time>
      </trkpt>
      <trkpt lat="42.92601" lon="0.34758">
        <ele>996</ele>
        <time>2022-08-28T04:27:24.000Z</time>
      </trkpt>
      <trkpt lat="42.92563" lon="0.34783">
        <ele>991</ele>
        <time>2022-08-28T04:27:32.000Z</time>
      </trkpt>
      <trkpt lat="42.92484" lon="0.34891">
        <ele>989</ele>
        <time>2022-08-28T04:27:52.000Z</time>
      </trkpt>
      <trkpt lat="42.92461" lon="0.34921">
        <ele>987</ele>
        <time>2022-08-28T04:27:57.000Z</time>
      </trkpt>
      <trkpt lat="42.92333" lon="0.35045">
        <ele>974</ele>
        <time>2022-08-28T04:28:25.000Z</time>
      </trkpt>
      <trkpt lat="42.9229" lon="0.35094">
        <ele>971</ele>
        <time>2022-08-28T04:28:35.000Z</time>
      </trkpt>
      <trkpt lat="42.92279" lon="0.35111">
        <ele>968</ele>
        <time>2022-08-28T04:28:38.000Z</time>
      </trkpt>
      <trkpt lat="42.92268" lon="0.35139">
        <ele>966</ele>
        <time>2022-08-28T04:28:42.000Z</time>
      </trkpt>
      <trkpt lat="42.92272" lon="0.35178">
        <ele>971</ele>
        <time>2022-08-28T04:28:48.000Z</time>
      </trkpt>
      <trkpt lat="42.92263" lon="0.35193">
        <ele>969</ele>
        <time>2022-08-28T04:28:50.000Z</time>
      </trkpt>
      <trkpt lat="42.92195" lon="0.35275">
        <ele>958</ele>
        <time>2022-08-28T04:29:06.000Z</time>
      </trkpt>
      <trkpt lat="42.92151" lon="0.35317">
        <ele>955</ele>
        <time>2022-08-28T04:29:16.000Z</time>
      </trkpt>
      <trkpt lat="42.92095" lon="0.3536">
        <ele>947</ele>
        <time>2022-08-28T04:29:27.000Z</time>
      </trkpt>
      <trkpt lat="42.92065" lon="0.35396">
        <ele>942</ele>
        <time>2022-08-28T04:29:34.000Z</time>
      </trkpt>
      <trkpt lat="42.92053" lon="0.35418">
        <ele>940</ele>
        <time>2022-08-28T04:29:38.000Z</time>
      </trkpt>
      <trkpt lat="42.92048" lon="0.35457">
        <ele>936</ele>
        <time>2022-08-28T04:29:43.000Z</time>
      </trkpt>
      <trkpt lat="42.92052" lon="0.35469">
        <ele>937</ele>
        <time>2022-08-28T04:29:45.000Z</time>
      </trkpt>
      <trkpt lat="42.92094" lon="0.35534">
        <ele>951</ele>
        <time>2022-08-28T04:29:56.000Z</time>
      </trkpt>
      <trkpt lat="42.92092" lon="0.35553">
        <ele>951</ele>
        <time>2022-08-28T04:29:59.000Z</time>
      </trkpt>
      <trkpt lat="42.91987" lon="0.35626">
        <ele>922</ele>
        <time>2022-08-28T04:30:20.000Z</time>
      </trkpt>
      <trkpt lat="42.91977" lon="0.35655">
        <ele>921</ele>
        <time>2022-08-28T04:30:24.000Z</time>
      </trkpt>
      <trkpt lat="42.91981" lon="0.35698">
        <ele>923</ele>
        <time>2022-08-28T04:30:30.000Z</time>
      </trkpt>
      <trkpt lat="42.91993" lon="0.35724">
        <ele>926</ele>
        <time>2022-08-28T04:30:34.000Z</time>
      </trkpt>
      <trkpt lat="42.92061" lon="0.35801">
        <ele>922</ele>
        <time>2022-08-28T04:30:50.000Z</time>
      </trkpt>
      <trkpt lat="42.92129" lon="0.35847">
        <ele>918</ele>
        <time>2022-08-28T04:31:03.000Z</time>
      </trkpt>
      <trkpt lat="42.92146" lon="0.35857">
        <ele>917</ele>
        <time>2022-08-28T04:31:06.000Z</time>
      </trkpt>
      <trkpt lat="42.92273" lon="0.35894">
        <ele>916</ele>
        <time>2022-08-28T04:31:29.000Z</time>
      </trkpt>
      <trkpt lat="42.92398" lon="0.35921">
        <ele>918</ele>
        <time>2022-08-28T04:31:52.000Z</time>
      </trkpt>
      <trkpt lat="42.92402" lon="0.35924">
        <ele>917</ele>
        <time>2022-08-28T04:31:53.000Z</time>
      </trkpt>
      <trkpt lat="42.92402" lon="0.35987">
        <ele>900</ele>
        <time>2022-08-28T04:32:01.000Z</time>
      </trkpt>
      <trkpt lat="42.92403" lon="0.35996">
        <ele>897</ele>
        <time>2022-08-28T04:32:02.000Z</time>
      </trkpt>
      <trkpt lat="42.92414" lon="0.36023">
        <ele>896</ele>
        <time>2022-08-28T04:32:06.000Z</time>
      </trkpt>
      <trkpt lat="42.92412" lon="0.36031">
        <ele>895</ele>
        <time>2022-08-28T04:32:07.000Z</time>
      </trkpt>
      <trkpt lat="42.92397" lon="0.36029">
        <ele>892</ele>
        <time>2022-08-28T04:32:10.000Z</time>
      </trkpt>
      <trkpt lat="42.92394" lon="0.36023">
        <ele>892</ele>
        <time>2022-08-28T04:32:11.000Z</time>
      </trkpt>
      <trkpt lat="42.92389" lon="0.35949">
        <ele>908</ele>
        <time>2022-08-28T04:32:21.000Z</time>
      </trkpt>
      <trkpt lat="42.92384" lon="0.35945">
        <ele>909</ele>
        <time>2022-08-28T04:32:22.000Z</time>
      </trkpt>
      <trkpt lat="42.92297" lon="0.35947">
        <ele>896</ele>
        <time>2022-08-28T04:32:37.000Z</time>
      </trkpt>
      <trkpt lat="42.92261" lon="0.35947">
        <ele>891</ele>
        <time>2022-08-28T04:32:44.000Z</time>
      </trkpt>
      <trkpt lat="42.9222" lon="0.35936">
        <ele>894</ele>
        <time>2022-08-28T04:32:51.000Z</time>
      </trkpt>
      <trkpt lat="42.92206" lon="0.35935">
        <ele>894</ele>
        <time>2022-08-28T04:32:54.000Z</time>
      </trkpt>
      <trkpt lat="42.92155" lon="0.35952">
        <ele>884</ele>
        <time>2022-08-28T04:33:03.000Z</time>
      </trkpt>
      <trkpt lat="42.92125" lon="0.35957">
        <ele>879</ele>
        <time>2022-08-28T04:33:09.000Z</time>
      </trkpt>
      <trkpt lat="42.92101" lon="0.35952">
        <ele>877</ele>
        <time>2022-08-28T04:33:13.000Z</time>
      </trkpt>
      <trkpt lat="42.92064" lon="0.35928">
        <ele>879</ele>
        <time>2022-08-28T04:33:20.000Z</time>
      </trkpt>
      <trkpt lat="42.91987" lon="0.35904">
        <ele>872</ele>
        <time>2022-08-28T04:33:34.000Z</time>
      </trkpt>
      <trkpt lat="42.91906" lon="0.35854">
        <ele>866</ele>
        <time>2022-08-28T04:33:50.000Z</time>
      </trkpt>
      <trkpt lat="42.9186" lon="0.35815">
        <ele>862</ele>
        <time>2022-08-28T04:34:00.000Z</time>
      </trkpt>
      <trkpt lat="42.91815" lon="0.3575">
        <ele>857</ele>
        <time>2022-08-28T04:34:11.000Z</time>
      </trkpt>
      <trkpt lat="42.91809" lon="0.35733">
        <ele>852</ele>
        <time>2022-08-28T04:34:14.000Z</time>
      </trkpt>
      <trkpt lat="42.91805" lon="0.35711">
        <ele>847</ele>
        <time>2022-08-28T04:34:17.000Z</time>
      </trkpt>
      <trkpt lat="42.91807" lon="0.35696">
        <ele>847</ele>
        <time>2022-08-28T04:34:19.000Z</time>
      </trkpt>
      <trkpt lat="42.91839" lon="0.35533">
        <ele>846</ele>
        <time>2022-08-28T04:34:41.000Z</time>
      </trkpt>
      <trkpt lat="42.91852" lon="0.3549">
        <ele>847</ele>
        <time>2022-08-28T04:34:47.000Z</time>
      </trkpt>
      <trkpt lat="42.9183" lon="0.3526">
        <ele>824</ele>
        <time>2022-08-28T04:35:17.000Z</time>
      </trkpt>
      <trkpt lat="42.91831" lon="0.35226">
        <ele>818</ele>
        <time>2022-08-28T04:35:22.000Z</time>
      </trkpt>
      <trkpt lat="42.91872" lon="0.35095">
        <ele>810</ele>
        <time>2022-08-28T04:35:40.000Z</time>
      </trkpt>
      <trkpt lat="42.91896" lon="0.34989">
        <ele>801</ele>
        <time>2022-08-28T04:35:55.000Z</time>
      </trkpt>
      <trkpt lat="42.91902" lon="0.34976">
        <ele>802</ele>
        <time>2022-08-28T04:35:57.000Z</time>
      </trkpt>
      <trkpt lat="42.9191" lon="0.34967">
        <ele>803</ele>
        <time>2022-08-28T04:35:58.000Z</time>
      </trkpt>
      <trkpt lat="42.91946" lon="0.34952">
        <ele>812</ele>
        <time>2022-08-28T04:36:05.000Z</time>
      </trkpt>
      <trkpt lat="42.91952" lon="0.34944">
        <ele>813</ele>
        <time>2022-08-28T04:36:07.000Z</time>
      </trkpt>
      <trkpt lat="42.91955" lon="0.34931">
        <ele>813</ele>
        <time>2022-08-28T04:36:09.000Z</time>
      </trkpt>
      <trkpt lat="42.91954" lon="0.34895">
        <ele>809</ele>
        <time>2022-08-28T04:36:13.000Z</time>
      </trkpt>
      <trkpt lat="42.91932" lon="0.34831">
        <ele>793</ele>
        <time>2022-08-28T04:36:22.000Z</time>
      </trkpt>
      <trkpt lat="42.91932" lon="0.34792">
        <ele>788</ele>
        <time>2022-08-28T04:36:28.000Z</time>
      </trkpt>
      <trkpt lat="42.91944" lon="0.34766">
        <ele>789</ele>
        <time>2022-08-28T04:36:32.000Z</time>
      </trkpt>
      <trkpt lat="42.92012" lon="0.34692">
        <ele>796</ele>
        <time>2022-08-28T04:36:47.000Z</time>
      </trkpt>
      <trkpt lat="42.92021" lon="0.34625">
        <ele>794</ele>
        <time>2022-08-28T04:36:56.000Z</time>
      </trkpt>
      <trkpt lat="42.92027" lon="0.34611">
        <ele>795</ele>
        <time>2022-08-28T04:36:58.000Z</time>
      </trkpt>
      <trkpt lat="42.92023" lon="0.34586">
        <ele>794</ele>
        <time>2022-08-28T04:37:02.000Z</time>
      </trkpt>
      <trkpt lat="42.92004" lon="0.34575">
        <ele>792</ele>
        <time>2022-08-28T04:37:05.000Z</time>
      </trkpt>
      <trkpt lat="42.91995" lon="0.34577">
        <ele>792</ele>
        <time>2022-08-28T04:37:07.000Z</time>
      </trkpt>
      <trkpt lat="42.91987" lon="0.34583">
        <ele>793</ele>
        <time>2022-08-28T04:37:08.000Z</time>
      </trkpt>
      <trkpt lat="42.91955" lon="0.34652">
        <ele>791</ele>
        <time>2022-08-28T04:37:19.000Z</time>
      </trkpt>
      <trkpt lat="42.91944" lon="0.34669">
        <ele>789</ele>
        <time>2022-08-28T04:37:22.000Z</time>
      </trkpt>
      <trkpt lat="42.91872" lon="0.34721">
        <ele>788</ele>
        <time>2022-08-28T04:37:37.000Z</time>
      </trkpt>
      <trkpt lat="42.91843" lon="0.34758">
        <ele>783</ele>
        <time>2022-08-28T04:37:44.000Z</time>
      </trkpt>
      <trkpt lat="42.91831" lon="0.34784">
        <ele>780</ele>
        <time>2022-08-28T04:37:48.000Z</time>
      </trkpt>
      <trkpt lat="42.91811" lon="0.34858">
        <ele>777</ele>
        <time>2022-08-28T04:37:58.000Z</time>
      </trkpt>
      <trkpt lat="42.91752" lon="0.34915">
        <ele>780</ele>
        <time>2022-08-28T04:38:11.000Z</time>
      </trkpt>
      <trkpt lat="42.9174" lon="0.34932">
        <ele>783</ele>
        <time>2022-08-28T04:38:14.000Z</time>
      </trkpt>
      <trkpt lat="42.9174" lon="0.35008">
        <ele>773</ele>
        <time>2022-08-28T04:38:24.000Z</time>
      </trkpt>
      <trkpt lat="42.91736" lon="0.35054">
        <ele>771</ele>
        <time>2022-08-28T04:38:30.000Z</time>
      </trkpt>
      <trkpt lat="42.91724" lon="0.35088">
        <ele>772</ele>
        <time>2022-08-28T04:38:35.000Z</time>
      </trkpt>
      <trkpt lat="42.91677" lon="0.35141">
        <ele>779</ele>
        <time>2022-08-28T04:38:46.000Z</time>
      </trkpt>
      <trkpt lat="42.9167" lon="0.35161">
        <ele>777</ele>
        <time>2022-08-28T04:38:49.000Z</time>
      </trkpt>
      <trkpt lat="42.91653" lon="0.35233">
        <ele>772</ele>
        <time>2022-08-28T04:38:59.000Z</time>
      </trkpt>
      <trkpt lat="42.91651" lon="0.35244">
        <ele>771</ele>
        <time>2022-08-28T04:39:00.000Z</time>
      </trkpt>
      <trkpt lat="42.91653" lon="0.35294">
        <ele>765</ele>
        <time>2022-08-28T04:39:07.000Z</time>
      </trkpt>
      <trkpt lat="42.91651" lon="0.35322">
        <ele>764</ele>
        <time>2022-08-28T04:39:10.000Z</time>
      </trkpt>
      <trkpt lat="42.91622" lon="0.35435">
        <ele>768</ele>
        <time>2022-08-28T04:39:26.000Z</time>
      </trkpt>
      <trkpt lat="42.91623" lon="0.35531">
        <ele>753</ele>
        <time>2022-08-28T04:39:38.000Z</time>
      </trkpt>
      <trkpt lat="42.91569" lon="0.3558">
        <ele>754</ele>
        <time>2022-08-28T04:39:50.000Z</time>
      </trkpt>
      <trkpt lat="42.91523" lon="0.35675">
        <ele>750</ele>
        <time>2022-08-28T04:40:05.000Z</time>
      </trkpt>
      <trkpt lat="42.9151" lon="0.35713">
        <ele>748</ele>
        <time>2022-08-28T04:40:10.000Z</time>
      </trkpt>
      <trkpt lat="42.91503" lon="0.35749">
        <ele>744</ele>
        <time>2022-08-28T04:40:15.000Z</time>
      </trkpt>
      <trkpt lat="42.91492" lon="0.35856">
        <ele>730</ele>
        <time>2022-08-28T04:40:29.000Z</time>
      </trkpt>
      <trkpt lat="42.91488" lon="0.35868">
        <ele>728</ele>
        <time>2022-08-28T04:40:31.000Z</time>
      </trkpt>
      <trkpt lat="42.91469" lon="0.3588">
        <ele>724</ele>
        <time>2022-08-28T04:40:35.000Z</time>
      </trkpt>
      <trkpt lat="42.91446" lon="0.35874">
        <ele>724</ele>
        <time>2022-08-28T04:40:39.000Z</time>
      </trkpt>
      <trkpt lat="42.91394" lon="0.35838">
        <ele>733</ele>
        <time>2022-08-28T04:40:50.000Z</time>
      </trkpt>
      <trkpt lat="42.91379" lon="0.35828">
        <ele>735</ele>
        <time>2022-08-28T04:40:53.000Z</time>
      </trkpt>
      <trkpt lat="42.91324" lon="0.35819">
        <ele>733</ele>
        <time>2022-08-28T04:41:02.000Z</time>
      </trkpt>
      <trkpt lat="42.91287" lon="0.35827">
        <ele>731</ele>
        <time>2022-08-28T04:41:09.000Z</time>
      </trkpt>
      <trkpt lat="42.91195" lon="0.3587">
        <ele>725</ele>
        <time>2022-08-28T04:41:26.000Z</time>
      </trkpt>
      <trkpt lat="42.9108" lon="0.35971">
        <ele>710</ele>
        <time>2022-08-28T04:41:51.000Z</time>
      </trkpt>
      <trkpt lat="42.91002" lon="0.36001">
        <ele>707</ele>
        <time>2022-08-28T04:42:05.000Z</time>
      </trkpt>
      <trkpt lat="42.90986" lon="0.36003">
        <ele>706</ele>
        <time>2022-08-28T04:42:08.000Z</time>
      </trkpt>
      <trkpt lat="42.90945" lon="0.3599">
        <ele>707</ele>
        <time>2022-08-28T04:42:16.000Z</time>
      </trkpt>
      <trkpt lat="42.90936" lon="0.35996">
        <ele>706</ele>
        <time>2022-08-28T04:42:17.000Z</time>
      </trkpt>
      <trkpt lat="42.90746" lon="0.3579">
        <ele>711</ele>
        <time>2022-08-28T04:43:01.000Z</time>
      </trkpt>
      <trkpt lat="42.90698" lon="0.35751">
        <ele>708</ele>
        <time>2022-08-28T04:43:10.000Z</time>
      </trkpt>
      <trkpt lat="42.90689" lon="0.35747">
        <ele>708</ele>
        <time>2022-08-28T04:43:12.000Z</time>
      </trkpt>
      <trkpt lat="42.90676" lon="0.35746">
        <ele>706</ele>
        <time>2022-08-28T04:43:14.000Z</time>
      </trkpt>
      <trkpt lat="42.90593" lon="0.35755">
        <ele>702</ele>
        <time>2022-08-28T04:43:29.000Z</time>
      </trkpt>
      <trkpt lat="42.9057" lon="0.35743">
        <ele>703</ele>
        <time>2022-08-28T04:43:34.000Z</time>
      </trkpt>
      <trkpt lat="42.90471" lon="0.35629">
        <ele>709</ele>
        <time>2022-08-28T04:43:57.000Z</time>
      </trkpt>
      <trkpt lat="42.904" lon="0.35517">
        <ele>710</ele>
        <time>2022-08-28T04:44:16.000Z</time>
      </trkpt>
      <trkpt lat="42.90374" lon="0.35502">
        <ele>710</ele>
        <time>2022-08-28T04:44:21.000Z</time>
      </trkpt>
      <trkpt lat="42.90363" lon="0.35494">
        <ele>711</ele>
        <time>2022-08-28T04:44:23.000Z</time>
      </trkpt>
      <trkpt lat="42.90308" lon="0.3544">
        <ele>715</ele>
        <time>2022-08-28T04:44:35.000Z</time>
      </trkpt>
      <trkpt lat="42.90262" lon="0.35399">
        <ele>718</ele>
        <time>2022-08-28T04:44:45.000Z</time>
      </trkpt>
      <trkpt lat="42.90149" lon="0.35318">
        <ele>722</ele>
        <time>2022-08-28T04:45:08.000Z</time>
      </trkpt>
      <trkpt lat="42.90099" lon="0.35291">
        <ele>726</ele>
        <time>2022-08-28T04:45:17.000Z</time>
      </trkpt>
      <trkpt lat="42.90063" lon="0.35282">
        <ele>727</ele>
        <time>2022-08-28T04:45:24.000Z</time>
      </trkpt>
      <trkpt lat="42.90035" lon="0.35284">
        <ele>726</ele>
        <time>2022-08-28T04:45:29.000Z</time>
      </trkpt>
      <trkpt lat="42.89954" lon="0.3531">
        <ele>721</ele>
        <time>2022-08-28T04:45:44.000Z</time>
      </trkpt>
      <trkpt lat="42.8994" lon="0.35311">
        <ele>722</ele>
        <time>2022-08-28T04:45:46.000Z</time>
      </trkpt>
      <trkpt lat="42.89843" lon="0.35297">
        <ele>724</ele>
        <time>2022-08-28T04:46:04.000Z</time>
      </trkpt>
      <trkpt lat="42.89822" lon="0.35301">
        <ele>724</ele>
        <time>2022-08-28T04:46:07.000Z</time>
      </trkpt>
      <trkpt lat="42.89748" lon="0.35339">
        <ele>720</ele>
        <time>2022-08-28T04:46:22.000Z</time>
      </trkpt>
      <trkpt lat="42.89726" lon="0.35336">
        <ele>720</ele>
        <time>2022-08-28T04:46:26.000Z</time>
      </trkpt>
      <trkpt lat="42.89708" lon="0.35373">
        <ele>717</ele>
        <time>2022-08-28T04:46:31.000Z</time>
      </trkpt>
      <trkpt lat="42.89558" lon="0.35468">
        <ele>722</ele>
        <time>2022-08-28T04:47:01.000Z</time>
      </trkpt>
      <trkpt lat="42.8953" lon="0.35472">
        <ele>724</ele>
        <time>2022-08-28T04:47:06.000Z</time>
      </trkpt>
      <trkpt lat="42.89457" lon="0.35429">
        <ele>726</ele>
        <time>2022-08-28T04:47:20.000Z</time>
      </trkpt>
      <trkpt lat="42.89384" lon="0.35375">
        <ele>731</ele>
        <time>2022-08-28T04:47:35.000Z</time>
      </trkpt>
      <trkpt lat="42.89264" lon="0.35312">
        <ele>737</ele>
        <time>2022-08-28T04:47:58.000Z</time>
      </trkpt>
      <trkpt lat="42.89173" lon="0.35282">
        <ele>743</ele>
        <time>2022-08-28T04:48:14.000Z</time>
      </trkpt>
      <trkpt lat="42.89075" lon="0.35263">
        <ele>733</ele>
        <time>2022-08-28T04:48:32.000Z</time>
      </trkpt>
      <trkpt lat="42.88978" lon="0.35291">
        <ele>738</ele>
        <time>2022-08-28T04:48:50.000Z</time>
      </trkpt>
      <trkpt lat="42.88954" lon="0.3529">
        <ele>741</ele>
        <time>2022-08-28T04:48:54.000Z</time>
      </trkpt>
      <trkpt lat="42.88922" lon="0.35285">
        <ele>744</ele>
        <time>2022-08-28T04:49:00.000Z</time>
      </trkpt>
      <trkpt lat="42.88855" lon="0.35268">
        <ele>747</ele>
        <time>2022-08-28T04:49:12.000Z</time>
      </trkpt>
      <trkpt lat="42.88733" lon="0.35255">
        <ele>757</ele>
        <time>2022-08-28T04:49:34.000Z</time>
      </trkpt>
      <trkpt lat="42.88652" lon="0.3524">
        <ele>762</ele>
        <time>2022-08-28T04:49:48.000Z</time>
      </trkpt>
      <trkpt lat="42.88616" lon="0.3522">
        <ele>762</ele>
        <time>2022-08-28T04:49:55.000Z</time>
      </trkpt>
      <trkpt lat="42.88587" lon="0.35194">
        <ele>760</ele>
        <time>2022-08-28T04:50:01.000Z</time>
      </trkpt>
      <trkpt lat="42.88516" lon="0.35101">
        <ele>750</ele>
        <time>2022-08-28T04:50:19.000Z</time>
      </trkpt>
      <trkpt lat="42.88493" lon="0.35078">
        <ele>747</ele>
        <time>2022-08-28T04:50:24.000Z</time>
      </trkpt>
      <trkpt lat="42.88394" lon="0.35048">
        <ele>747</ele>
        <time>2022-08-28T04:50:42.000Z</time>
      </trkpt>
      <trkpt lat="42.88369" lon="0.35036">
        <ele>746</ele>
        <time>2022-08-28T04:50:47.000Z</time>
      </trkpt>
      <trkpt lat="42.88295" lon="0.34977">
        <ele>741</ele>
        <time>2022-08-28T04:51:02.000Z</time>
      </trkpt>
      <trkpt lat="42.88284" lon="0.34971">
        <ele>741</ele>
        <time>2022-08-28T04:51:04.000Z</time>
      </trkpt>
      <trkpt lat="42.88253" lon="0.34962">
        <ele>744</ele>
        <time>2022-08-28T04:51:10.000Z</time>
      </trkpt>
      <trkpt lat="42.88164" lon="0.34967">
        <ele>731.9</ele>
        <time>2022-08-28T04:51:25.000Z</time>
      </trkpt>
      <trkpt lat="42.88134" lon="0.34966">
        <ele>736.9</ele>
        <time>1970-01-01T00:00:00.000Z</time>
      </trkpt>
      <trkpt lat="42.88098" lon="0.34948">
        <ele>736.6</ele>
        <time>2022-08-28T04:51:37.000Z</time>
      </trkpt>
      <trkpt lat="42.88072" lon="0.3493">
        <ele>735.9</ele>
        <time>2022-08-28T04:51:42.000Z</time>
      </trkpt>
      <trkpt lat="42.88058" lon="0.34935">
        <ele>738.1</ele>
        <time>1970-01-01T00:00:00.000Z</time>
      </trkpt>
      <trkpt lat="42.88043" lon="0.34936">
        <ele>738.3</ele>
        <time>1970-01-01T00:00:00.000Z</time>
      </trkpt>
      <trkpt lat="42.87982" lon="0.34927">
        <ele>737.1</ele>
        <time>1970-01-01T00:00:00.000Z</time>
      </trkpt>
      <trkpt lat="42.87914" lon="0.34918">
        <ele>732.7</ele>
        <time>2022-08-28T04:52:08.000Z</time>
      </trkpt>
      <trkpt lat="42.87845" lon="0.34944">
        <ele>749</ele>
        <time>2022-08-28T04:52:23.000Z</time>
      </trkpt>
      <trkpt lat="42.87812" lon="0.34954">
        <ele>750</ele>
        <time>2022-08-28T04:52:29.000Z</time>
      </trkpt>
      <trkpt lat="42.87733" lon="0.34966">
        <ele>747</ele>
        <time>2022-08-28T04:52:43.000Z</time>
      </trkpt>
      <trkpt lat="42.87647" lon="0.34997">
        <ele>749</ele>
        <time>2022-08-28T04:52:59.000Z</time>
      </trkpt>
      <trkpt lat="42.87456" lon="0.34992">
        <ele>740</ele>
        <time>2022-08-28T04:53:33.000Z</time>
      </trkpt>
      <trkpt lat="42.8742" lon="0.34998">
        <ele>739</ele>
        <time>2022-08-28T04:53:40.000Z</time>
      </trkpt>
      <trkpt lat="42.87353" lon="0.3503">
        <ele>741</ele>
        <time>2022-08-28T04:53:52.000Z</time>
      </trkpt>
      <trkpt lat="42.87311" lon="0.35038">
        <ele>742</ele>
        <time>2022-08-28T04:54:00.000Z</time>
      </trkpt>
      <trkpt lat="42.87294" lon="0.35044">
        <ele>743</ele>
        <time>2022-08-28T04:54:03.000Z</time>
      </trkpt>
      <trkpt lat="42.87233" lon="0.3508">
        <ele>746</ele>
        <time>2022-08-28T04:54:15.000Z</time>
      </trkpt>
      <trkpt lat="42.87214" lon="0.35081">
        <ele>745</ele>
        <time>2022-08-28T04:54:18.000Z</time>
      </trkpt>
      <trkpt lat="42.87155" lon="0.35047">
        <ele>740</ele>
        <time>2022-08-28T04:54:29.000Z</time>
      </trkpt>
      <trkpt lat="42.87043" lon="0.34936">
        <ele>743</ele>
        <time>2022-08-28T04:54:54.000Z</time>
      </trkpt>
      <trkpt lat="42.86969" lon="0.34902">
        <ele>745</ele>
        <time>2022-08-28T04:55:08.000Z</time>
      </trkpt>
      <trkpt lat="42.86946" lon="0.34902">
        <ele>745</ele>
        <time>2022-08-28T04:55:12.000Z</time>
      </trkpt>
      <trkpt lat="42.86914" lon="0.34907">
        <ele>746</ele>
        <time>2022-08-28T04:55:18.000Z</time>
      </trkpt>
      <trkpt lat="42.86874" lon="0.3493">
        <ele>748</ele>
        <time>2022-08-28T04:55:26.000Z</time>
      </trkpt>
      <trkpt lat="42.86828" lon="0.3498">
        <ele>751</ele>
        <time>2022-08-28T04:55:36.000Z</time>
      </trkpt>
      <trkpt lat="42.86816" lon="0.34987">
        <ele>752</ele>
        <time>2022-08-28T04:55:38.000Z</time>
      </trkpt>
      <trkpt lat="42.8674" lon="0.35002">
        <ele>750</ele>
        <time>2022-08-28T04:55:52.000Z</time>
      </trkpt>
      <trkpt lat="42.86717" lon="0.3501">
        <ele>750</ele>
        <time>2022-08-28T04:55:56.000Z</time>
      </trkpt>
      <trkpt lat="42.86643" lon="0.3508">
        <ele>755</ele>
        <time>2022-08-28T04:56:12.000Z</time>
      </trkpt>
      <trkpt lat="42.8661" lon="0.35092">
        <ele>756</ele>
        <time>2022-08-28T04:56:18.000Z</time>
      </trkpt>
      <trkpt lat="42.86585" lon="0.3509">
        <ele>754</ele>
        <time>2022-08-28T04:56:23.000Z</time>
      </trkpt>
      <trkpt lat="42.86538" lon="0.35064">
        <ele>752</ele>
        <time>2022-08-28T04:56:32.000Z</time>
      </trkpt>
      <trkpt lat="42.86434" lon="0.3503">
        <ele>752</ele>
        <time>2022-08-28T04:56:51.000Z</time>
      </trkpt>
      <trkpt lat="42.86319" lon="0.35026">
        <ele>759</ele>
        <time>2022-08-28T04:57:11.000Z</time>
      </trkpt>
      <trkpt lat="42.86289" lon="0.35013">
        <ele>760</ele>
        <time>2022-08-28T04:57:17.000Z</time>
      </trkpt>
      <trkpt lat="42.86279" lon="0.35011">
        <ele>761</ele>
        <time>2022-08-28T04:57:19.000Z</time>
      </trkpt>
      <trkpt lat="42.86244" lon="0.35012">
        <ele>767</ele>
        <time>2022-08-28T04:57:25.000Z</time>
      </trkpt>
      <trkpt lat="42.86229" lon="0.35008">
        <ele>766</ele>
        <time>2022-08-28T04:57:28.000Z</time>
      </trkpt>
      <trkpt lat="42.86161" lon="0.34957">
        <ele>760</ele>
        <time>2022-08-28T04:57:42.000Z</time>
      </trkpt>
      <trkpt lat="42.86055" lon="0.34928">
        <ele>766</ele>
        <time>2022-08-28T04:58:01.000Z</time>
      </trkpt>
      <trkpt lat="42.86026" lon="0.34931">
        <ele>768</ele>
        <time>2022-08-28T04:58:06.000Z</time>
      </trkpt>
      <trkpt lat="42.85967" lon="0.34954">
        <ele>774</ele>
        <time>2022-08-28T04:58:17.000Z</time>
      </trkpt>
      <trkpt lat="42.85902" lon="0.34944">
        <ele>772</ele>
        <time>2022-08-28T04:58:29.000Z</time>
      </trkpt>
      <trkpt lat="42.85868" lon="0.34943">
        <ele>772</ele>
        <time>2022-08-28T04:58:35.000Z</time>
      </trkpt>
      <trkpt lat="42.85789" lon="0.34967">
        <ele>773</ele>
        <time>2022-08-28T04:58:49.000Z</time>
      </trkpt>
      <trkpt lat="42.8576" lon="0.34971">
        <ele>773</ele>
        <time>2022-08-28T04:58:54.000Z</time>
      </trkpt>
      <trkpt lat="42.85749" lon="0.34971">
        <ele>773</ele>
        <time>2022-08-28T04:58:56.000Z</time>
      </trkpt>
      <trkpt lat="42.85716" lon="0.34962">
        <ele>773</ele>
        <time>2022-08-28T04:59:02.000Z</time>
      </trkpt>
      <trkpt lat="42.85465" lon="0.34963">
        <ele>779</ele>
        <time>2022-08-28T04:59:47.000Z</time>
      </trkpt>
      <trkpt lat="42.85421" lon="0.34948">
        <ele>778</ele>
        <time>2022-08-28T04:59:55.000Z</time>
      </trkpt>
      <trkpt lat="42.85412" lon="0.35087">
        <ele>789</ele>
        <time>2022-08-28T05:00:13.000Z</time>
      </trkpt>
      <trkpt lat="42.8541" lon="0.3509">
        <ele>790</ele>
        <time>2022-08-28T05:00:14.000Z</time>
      </trkpt>
      <trkpt lat="42.85306" lon="0.35117">
        <ele>793</ele>
        <time>2022-08-28T05:00:33.000Z</time>
      </trkpt>
      <trkpt lat="42.85194" lon="0.35117">
        <ele>802</ele>
        <time>2022-08-28T05:00:52.000Z</time>
      </trkpt>
      <trkpt lat="42.85096" lon="0.35137">
        <ele>813</ele>
        <time>2022-08-28T05:01:10.000Z</time>
      </trkpt>
      <trkpt lat="42.85045" lon="0.35159">
        <ele>817</ele>
        <time>2022-08-28T05:01:20.000Z</time>
      </trkpt>
      <trkpt lat="42.84854" lon="0.35263">
        <ele>829</ele>
        <time>2022-08-28T05:01:56.000Z</time>
      </trkpt>
      <trkpt lat="42.84839" lon="0.35274">
        <ele>830</ele>
        <time>2022-08-28T05:01:59.000Z</time>
      </trkpt>
      <trkpt lat="42.84818" lon="0.35316">
        <ele>840</ele>
        <time>2022-08-28T05:02:06.000Z</time>
      </trkpt>
      <trkpt lat="42.84814" lon="0.35319">
        <ele>841</ele>
        <time>2022-08-28T05:02:07.000Z</time>
      </trkpt>
      <trkpt lat="42.84759" lon="0.35286">
        <ele>838</ele>
        <time>2022-08-28T05:02:18.000Z</time>
      </trkpt>
      <trkpt lat="42.84747" lon="0.35277">
        <ele>838</ele>
        <time>2022-08-28T05:02:20.000Z</time>
      </trkpt>
      <trkpt lat="42.84718" lon="0.35236">
        <ele>832</ele>
        <time>2022-08-28T05:02:27.000Z</time>
      </trkpt>
      <trkpt lat="42.84706" lon="0.35231">
        <ele>832</ele>
        <time>2022-08-28T05:02:30.000Z</time>
      </trkpt>
      <trkpt lat="42.84686" lon="0.35242">
        <ele>836</ele>
        <time>2022-08-28T05:02:34.000Z</time>
      </trkpt>
      <trkpt lat="42.84634" lon="0.35288">
        <ele>848</ele>
        <time>2022-08-28T05:02:45.000Z</time>
      </trkpt>
      <trkpt lat="42.8445" lon="0.3537">
        <ele>870</ele>
        <time>2022-08-28T05:03:19.000Z</time>
      </trkpt>
      <trkpt lat="42.84418" lon="0.35378">
        <ele>873</ele>
        <time>2022-08-28T05:03:25.000Z</time>
      </trkpt>
      <trkpt lat="42.84309" lon="0.35396">
        <ele>882</ele>
        <time>2022-08-28T05:03:44.000Z</time>
      </trkpt>
      <trkpt lat="42.84186" lon="0.35402">
        <ele>895</ele>
        <time>2022-08-28T05:04:06.000Z</time>
      </trkpt>
      <trkpt lat="42.84075" lon="0.35394">
        <ele>897</ele>
        <time>2022-08-28T05:04:26.000Z</time>
      </trkpt>
      <trkpt lat="42.8396" lon="0.35401">
        <ele>909</ele>
        <time>2022-08-28T05:04:47.000Z</time>
      </trkpt>
      <trkpt lat="42.83835" lon="0.35381">
        <ele>916</ele>
        <time>2022-08-28T05:05:09.000Z</time>
      </trkpt>
      <trkpt lat="42.83818" lon="0.35374">
        <ele>915</ele>
        <time>2022-08-28T05:05:12.000Z</time>
      </trkpt>
      <trkpt lat="42.8381" lon="0.35379">
        <ele>917</ele>
        <time>2022-08-28T05:05:14.000Z</time>
      </trkpt>
      <trkpt lat="42.83802" lon="0.35392">
        <ele>920</ele>
        <time>2022-08-28T05:05:16.000Z</time>
      </trkpt>
      <trkpt lat="42.83766" lon="0.35404">
        <ele>925</ele>
        <time>2022-08-28T05:05:23.000Z</time>
      </trkpt>
      <trkpt lat="42.83742" lon="0.354">
        <ele>926</ele>
        <time>2022-08-28T05:05:27.000Z</time>
      </trkpt>
      <trkpt lat="42.83586" lon="0.35335">
        <ele>927</ele>
        <time>2022-08-28T05:05:56.000Z</time>
      </trkpt>
      <trkpt lat="42.83562" lon="0.35323">
        <ele>930</ele>
        <time>2022-08-28T05:06:01.000Z</time>
      </trkpt>
      <trkpt lat="42.83518" lon="0.35353">
        <ele>951</ele>
        <time>2022-08-28T05:06:10.000Z</time>
      </trkpt>
      <trkpt lat="42.83513" lon="0.35351">
        <ele>951</ele>
        <time>2022-08-28T05:06:11.000Z</time>
      </trkpt>
      <trkpt lat="42.8348" lon="0.35272">
        <ele>943</ele>
        <time>2022-08-28T05:06:23.000Z</time>
      </trkpt>
      <trkpt lat="42.83434" lon="0.35187">
        <ele>941</ele>
        <time>2022-08-28T05:06:36.000Z</time>
      </trkpt>
      <trkpt lat="42.83416" lon="0.35168">
        <ele>943</ele>
        <time>2022-08-28T05:06:40.000Z</time>
      </trkpt>
      <trkpt lat="42.83382" lon="0.35155">
        <ele>955</ele>
        <time>2022-08-28T05:06:47.000Z</time>
      </trkpt>
      <trkpt lat="42.83294" lon="0.34993">
        <ele>955</ele>
        <time>2022-08-28T05:07:13.000Z</time>
      </trkpt>
      <trkpt lat="42.83228" lon="0.34896">
        <ele>957</ele>
        <time>2022-08-28T05:07:30.000Z</time>
      </trkpt>
      <trkpt lat="42.83219" lon="0.34886">
        <ele>957</ele>
        <time>2022-08-28T05:07:32.000Z</time>
      </trkpt>
      <trkpt lat="42.83169" lon="0.34844">
        <ele>960</ele>
        <time>2022-08-28T05:07:43.000Z</time>
      </trkpt>
      <trkpt lat="42.82998" lon="0.34635">
        <ele>972</ele>
        <time>2022-08-28T05:08:24.000Z</time>
      </trkpt>
      <trkpt lat="42.82964" lon="0.34593">
        <ele>964</ele>
        <time>2022-08-28T05:08:32.000Z</time>
      </trkpt>
      <trkpt lat="42.82918" lon="0.34573">
        <ele>969</ele>
        <time>2022-08-28T05:08:41.000Z</time>
      </trkpt>
      <trkpt lat="42.82829" lon="0.34525">
        <ele>978</ele>
        <time>2022-08-28T05:08:58.000Z</time>
      </trkpt>
      <trkpt lat="42.82758" lon="0.34499">
        <ele>983</ele>
        <time>2022-08-28T05:09:11.000Z</time>
      </trkpt>
      <trkpt lat="42.82652" lon="0.34445">
        <ele>988</ele>
        <time>2022-08-28T05:09:31.000Z</time>
      </trkpt>
      <trkpt lat="42.82622" lon="0.3442">
        <ele>987</ele>
        <time>2022-08-28T05:09:37.000Z</time>
      </trkpt>
      <trkpt lat="42.8259" lon="0.34375">
        <ele>978</ele>
        <time>2022-08-28T05:09:45.000Z</time>
      </trkpt>
      <trkpt lat="42.82549" lon="0.34349">
        <ele>973</ele>
        <time>2022-08-28T05:09:54.000Z</time>
      </trkpt>
      <trkpt lat="42.82508" lon="0.34341">
        <ele>973</ele>
        <time>2022-08-28T05:10:01.000Z</time>
      </trkpt>
      <trkpt lat="42.82466" lon="0.34343">
        <ele>976</ele>
        <time>2022-08-28T05:10:08.000Z</time>
      </trkpt>
      <trkpt lat="42.82432" lon="0.34355">
        <ele>982</ele>
        <time>2022-08-28T05:10:15.000Z</time>
      </trkpt>
      <trkpt lat="42.82409" lon="0.34374">
        <ele>991</ele>
        <time>2022-08-28T05:10:19.000Z</time>
      </trkpt>
      <trkpt lat="42.82403" lon="0.34376">
        <ele>991</ele>
        <time>2022-08-28T05:10:21.000Z</time>
      </trkpt>
      <trkpt lat="42.82374" lon="0.34365">
        <ele>985</ele>
        <time>2022-08-28T05:10:26.000Z</time>
      </trkpt>
      <trkpt lat="42.82295" lon="0.34393">
        <ele>1000</ele>
        <time>2022-08-28T05:10:40.000Z</time>
      </trkpt>
      <trkpt lat="42.82271" lon="0.34395">
        <ele>1003</ele>
        <time>2022-08-28T05:10:45.000Z</time>
      </trkpt>
      <trkpt lat="42.82189" lon="0.34384">
        <ele>1001</ele>
        <time>2022-08-28T05:10:59.000Z</time>
      </trkpt>
      <trkpt lat="42.82122" lon="0.34381">
        <ele>1000</ele>
        <time>2022-08-28T05:11:11.000Z</time>
      </trkpt>
      <trkpt lat="42.81967" lon="0.34387">
        <ele>1004</ele>
        <time>2022-08-28T05:11:39.000Z</time>
      </trkpt>
      <trkpt lat="42.81948" lon="0.34395">
        <ele>1006</ele>
        <time>2022-08-28T05:11:43.000Z</time>
      </trkpt>
      <trkpt lat="42.81902" lon="0.34332">
        <ele>994</ele>
        <time>2022-08-28T05:11:54.000Z</time>
      </trkpt>
      <trkpt lat="42.81875" lon="0.34318">
        <ele>988</ele>
        <time>2022-08-28T05:11:59.000Z</time>
      </trkpt>
      <trkpt lat="42.81872" lon="0.34328">
        <ele>990</ele>
        <time>2022-08-28T05:12:01.000Z</time>
      </trkpt>
      <trkpt lat="42.81849" lon="0.34334">
        <ele>990</ele>
        <time>2022-08-28T05:12:05.000Z</time>
      </trkpt>
      <trkpt lat="42.81842" lon="0.34344">
        <ele>991</ele>
        <time>2022-08-28T05:12:07.000Z</time>
      </trkpt>
      <trkpt lat="42.81791" lon="0.3453">
        <ele>1015</ele>
        <time>2022-08-28T05:12:33.000Z</time>
      </trkpt>
      <trkpt lat="42.81753" lon="0.34601">
        <ele>1025</ele>
        <time>2022-08-28T05:12:44.000Z</time>
      </trkpt>
      <trkpt lat="42.81725" lon="0.34607">
        <ele>1026</ele>
        <time>2022-08-28T05:12:49.000Z</time>
      </trkpt>
      <trkpt lat="42.81714" lon="0.34612">
        <ele>1027</ele>
        <time>2022-08-28T05:12:51.000Z</time>
      </trkpt>
      <trkpt lat="42.81672" lon="0.34643">
        <ele>1036</ele>
        <time>2022-08-28T05:13:00.000Z</time>
      </trkpt>
      <trkpt lat="42.81659" lon="0.3465">
        <ele>1037</ele>
        <time>2022-08-28T05:13:02.000Z</time>
      </trkpt>
      <trkpt lat="42.81592" lon="0.34673">
        <ele>1038</ele>
        <time>2022-08-28T05:13:15.000Z</time>
      </trkpt>
      <trkpt lat="42.81556" lon="0.34693">
        <ele>1043</ele>
        <time>2022-08-28T05:13:22.000Z</time>
      </trkpt>
      <trkpt lat="42.8151" lon="0.34745">
        <ele>1055</ele>
        <time>2022-08-28T05:13:32.000Z</time>
      </trkpt>
      <trkpt lat="42.81476" lon="0.34767">
        <ele>1060</ele>
        <time>2022-08-28T05:13:39.000Z</time>
      </trkpt>
      <trkpt lat="42.81379" lon="0.34799">
        <ele>1069</ele>
        <time>2022-08-28T05:13:57.000Z</time>
      </trkpt>
      <trkpt lat="42.813" lon="0.34796">
        <ele>1072</ele>
        <time>2022-08-28T05:14:11.000Z</time>
      </trkpt>
      <trkpt lat="42.81236" lon="0.34797">
        <ele>1080</ele>
        <time>2022-08-28T05:14:22.000Z</time>
      </trkpt>
      <trkpt lat="42.81203" lon="0.34788">
        <ele>1087</ele>
        <time>2022-08-28T05:14:28.000Z</time>
      </trkpt>
      <trkpt lat="42.81185" lon="0.34778">
        <ele>1090</ele>
        <time>2022-08-28T05:14:32.000Z</time>
      </trkpt>
      <trkpt lat="42.81117" lon="0.3472">
        <ele>1077</ele>
        <time>2022-08-28T05:14:46.000Z</time>
      </trkpt>
      <trkpt lat="42.81112" lon="0.34724">
        <ele>1077</ele>
        <time>2022-08-28T05:14:47.000Z</time>
      </trkpt>
      <trkpt lat="42.8111" lon="0.34747">
        <ele>1082</ele>
        <time>2022-08-28T05:14:50.000Z</time>
      </trkpt>
      <trkpt lat="42.81138" lon="0.34817">
        <ele>1103</ele>
        <time>2022-08-28T05:15:01.000Z</time>
      </trkpt>
      <trkpt lat="42.81166" lon="0.34863">
        <ele>1115</ele>
        <time>2022-08-28T05:15:08.000Z</time>
      </trkpt>
      <trkpt lat="42.81224" lon="0.34947">
        <ele>1117</ele>
        <time>2022-08-28T05:15:24.000Z</time>
      </trkpt>
      <trkpt lat="42.81292" lon="0.35029">
        <ele>1127</ele>
        <time>2022-08-28T05:15:40.000Z</time>
      </trkpt>
      <trkpt lat="42.81293" lon="0.35042">
        <ele>1129</ele>
        <time>2022-08-28T05:15:41.000Z</time>
      </trkpt>
      <trkpt lat="42.81283" lon="0.35046">
        <ele>1131</ele>
        <time>2022-08-28T05:15:43.000Z</time>
      </trkpt>
      <trkpt lat="42.81249" lon="0.35027">
        <ele>1130</ele>
        <time>2022-08-28T05:15:50.000Z</time>
      </trkpt>
      <trkpt lat="42.81112" lon="0.3494">
        <ele>1133</ele>
        <time>2022-08-28T05:16:17.000Z</time>
      </trkpt>
      <trkpt lat="42.81104" lon="0.34942">
        <ele>1133</ele>
        <time>2022-08-28T05:16:18.000Z</time>
      </trkpt>
      <trkpt lat="42.81099" lon="0.34973">
        <ele>1139</ele>
        <time>2022-08-28T05:16:23.000Z</time>
      </trkpt>
      <trkpt lat="42.8111" lon="0.34992">
        <ele>1141</ele>
        <time>2022-08-28T05:16:26.000Z</time>
      </trkpt>
      <trkpt lat="42.81206" lon="0.35091">
        <ele>1146</ele>
        <time>2022-08-28T05:16:48.000Z</time>
      </trkpt>
      <trkpt lat="42.81206" lon="0.35102">
        <ele>1148</ele>
        <time>2022-08-28T05:16:49.000Z</time>
      </trkpt>
      <trkpt lat="42.81201" lon="0.35111">
        <ele>1149</ele>
        <time>2022-08-28T05:16:51.000Z</time>
      </trkpt>
      <trkpt lat="42.81187" lon="0.35118">
        <ele>1152</ele>
        <time>2022-08-28T05:16:53.000Z</time>
      </trkpt>
      <trkpt lat="42.81176" lon="0.35147">
        <ele>1157</ele>
        <time>2022-08-28T05:16:58.000Z</time>
      </trkpt>
      <trkpt lat="42.81168" lon="0.35162">
        <ele>1159</ele>
        <time>2022-08-28T05:17:00.000Z</time>
      </trkpt>
      <trkpt lat="42.81123" lon="0.35144">
        <ele>1159</ele>
        <time>2022-08-28T05:17:08.000Z</time>
      </trkpt>
      <trkpt lat="42.8111" lon="0.35145">
        <ele>1160</ele>
        <time>2022-08-28T05:17:11.000Z</time>
      </trkpt>
      <trkpt lat="42.8105" lon="0.35192">
        <ele>1165</ele>
        <time>2022-08-28T05:17:23.000Z</time>
      </trkpt>
      <trkpt lat="42.81042" lon="0.35204">
        <ele>1166</ele>
        <time>2022-08-28T05:17:25.000Z</time>
      </trkpt>
      <trkpt lat="42.81044" lon="0.35223">
        <ele>1167</ele>
        <time>2022-08-28T05:17:28.000Z</time>
      </trkpt>
      <trkpt lat="42.81062" lon="0.35255">
        <ele>1172</ele>
        <time>2022-08-28T05:17:33.000Z</time>
      </trkpt>
      <trkpt lat="42.81088" lon="0.35258">
        <ele>1174</ele>
        <time>2022-08-28T05:17:38.000Z</time>
      </trkpt>
      <trkpt lat="42.81102" lon="0.35261">
        <ele>1174</ele>
        <time>2022-08-28T05:17:40.000Z</time>
      </trkpt>
      <trkpt lat="42.81303" lon="0.35474">
        <ele>1213</ele>
        <time>2022-08-28T05:18:26.000Z</time>
      </trkpt>
      <trkpt lat="42.81316" lon="0.35483">
        <ele>1214</ele>
        <time>2022-08-28T05:18:28.000Z</time>
      </trkpt>
      <trkpt lat="42.81337" lon="0.35479">
        <ele>1211</ele>
        <time>2022-08-28T05:18:32.000Z</time>
      </trkpt>
      <trkpt lat="42.81392" lon="0.3544">
        <ele>1218</ele>
        <time>2022-08-28T05:18:43.000Z</time>
      </trkpt>
      <trkpt lat="42.81583" lon="0.35269">
        <ele>1235</ele>
        <time>2022-08-28T05:19:24.000Z</time>
      </trkpt>
      <trkpt lat="42.8163" lon="0.3524">
        <ele>1235</ele>
        <time>2022-08-28T05:19:33.000Z</time>
      </trkpt>
      <trkpt lat="42.81659" lon="0.35237">
        <ele>1240</ele>
        <time>2022-08-28T05:19:38.000Z</time>
      </trkpt>
      <trkpt lat="42.81699" lon="0.35253">
        <ele>1244</ele>
        <time>2022-08-28T05:19:46.000Z</time>
      </trkpt>
      <trkpt lat="42.8174" lon="0.35291">
        <ele>1254</ele>
        <time>2022-08-28T05:19:55.000Z</time>
      </trkpt>
      <trkpt lat="42.81738" lon="0.353">
        <ele>1257</ele>
        <time>2022-08-28T05:19:56.000Z</time>
      </trkpt>
      <trkpt lat="42.81707" lon="0.35276">
        <ele>1251</ele>
        <time>2022-08-28T05:20:02.000Z</time>
      </trkpt>
      <trkpt lat="42.81692" lon="0.35269">
        <ele>1250</ele>
        <time>2022-08-28T05:20:05.000Z</time>
      </trkpt>
      <trkpt lat="42.81645" lon="0.35274">
        <ele>1249</ele>
        <time>2022-08-28T05:20:14.000Z</time>
      </trkpt>
      <trkpt lat="42.81631" lon="0.35285">
        <ele>1249</ele>
        <time>2022-08-28T05:20:17.000Z</time>
      </trkpt>
      <trkpt lat="42.81565" lon="0.35398">
        <ele>1266</ele>
        <time>2022-08-28T05:20:36.000Z</time>
      </trkpt>
      <trkpt lat="42.81535" lon="0.35451">
        <ele>1273</ele>
        <time>2022-08-28T05:20:44.000Z</time>
      </trkpt>
      <trkpt lat="42.81446" lon="0.35541">
        <ele>1271</ele>
        <time>2022-08-28T05:21:04.000Z</time>
      </trkpt>
      <trkpt lat="42.81434" lon="0.35564">
        <ele>1273</ele>
        <time>2022-08-28T05:21:08.000Z</time>
      </trkpt>
      <trkpt lat="42.81413" lon="0.35724">
        <ele>1308</ele>
        <time>2022-08-28T05:21:29.000Z</time>
      </trkpt>
      <trkpt lat="42.81408" lon="0.35733">
        <ele>1311</ele>
        <time>2022-08-28T05:21:31.000Z</time>
      </trkpt>
      <trkpt lat="42.81399" lon="0.3574">
        <ele>1314</ele>
        <time>2022-08-28T05:21:33.000Z</time>
      </trkpt>
      <trkpt lat="42.81394" lon="0.35741">
        <ele>1314</ele>
        <time>2022-08-28T05:21:33.000Z</time>
      </trkpt>
      <trkpt lat="42.8136" lon="0.35725">
        <ele>1311</ele>
        <time>2022-08-28T05:21:40.000Z</time>
      </trkpt>
      <trkpt lat="42.81265" lon="0.35704">
        <ele>1300</ele>
        <time>2022-08-28T05:21:57.000Z</time>
      </trkpt>
      <trkpt lat="42.81249" lon="0.35708">
        <ele>1301</ele>
        <time>2022-08-28T05:22:00.000Z</time>
      </trkpt>
      <trkpt lat="42.8124" lon="0.35716">
        <ele>1300</ele>
        <time>2022-08-28T05:22:02.000Z</time>
      </trkpt>
      <trkpt lat="42.81231" lon="0.35733">
        <ele>1302</ele>
        <time>2022-08-28T05:22:05.000Z</time>
      </trkpt>
      <trkpt lat="42.81181" lon="0.35867">
        <ele>1328</ele>
        <time>2022-08-28T05:22:24.000Z</time>
      </trkpt>
      <trkpt lat="42.81106" lon="0.3602">
        <ele>1348</ele>
        <time>2022-08-28T05:22:48.000Z</time>
      </trkpt>
      <trkpt lat="42.80939" lon="0.36204">
        <ele>1359</ele>
        <time>2022-08-28T05:23:26.000Z</time>
      </trkpt>
      <trkpt lat="42.80903" lon="0.36253">
        <ele>1368</ele>
        <time>2022-08-28T05:23:35.000Z</time>
      </trkpt>
      <trkpt lat="42.80876" lon="0.36276">
        <ele>1371</ele>
        <time>2022-08-28T05:23:41.000Z</time>
      </trkpt>
      <trkpt lat="42.80853" lon="0.36289">
        <ele>1372</ele>
        <time>2022-08-28T05:23:46.000Z</time>
      </trkpt>
      <trkpt lat="42.80632" lon="0.36404">
        <ele>1384</ele>
        <time>2022-08-28T05:24:28.000Z</time>
      </trkpt>
      <trkpt lat="42.80617" lon="0.36418">
        <ele>1385</ele>
        <time>2022-08-28T05:24:31.000Z</time>
      </trkpt>
      <trkpt lat="42.8058" lon="0.36784">
        <ele>1430</ele>
        <time>2022-08-28T05:25:20.000Z</time>
      </trkpt>
      <trkpt lat="42.8057" lon="0.36802">
        <ele>1432</ele>
        <time>2022-08-28T05:25:22.000Z</time>
      </trkpt>
      <trkpt lat="42.80555" lon="0.36814">
        <ele>1431</ele>
        <time>2022-08-28T05:25:26.000Z</time>
      </trkpt>
      <trkpt lat="42.80512" lon="0.36837">
        <ele>1428</ele>
        <time>2022-08-28T05:25:34.000Z</time>
      </trkpt>
      <trkpt lat="42.80467" lon="0.36882">
        <ele>1439</ele>
        <time>2022-08-28T05:25:44.000Z</time>
      </trkpt>
      <trkpt lat="42.80362" lon="0.36924">
        <ele>1439</ele>
        <time>2022-08-28T05:26:03.000Z</time>
      </trkpt>
      <trkpt lat="42.8035" lon="0.3694">
        <ele>1442</ele>
        <time>2022-08-28T05:26:06.000Z</time>
      </trkpt>
      <trkpt lat="42.80336" lon="0.36965">
        <ele>1448</ele>
        <time>2022-08-28T05:26:10.000Z</time>
      </trkpt>
      <trkpt lat="42.80313" lon="0.3698">
        <ele>1446</ele>
        <time>2022-08-28T05:26:15.000Z</time>
      </trkpt>
      <trkpt lat="42.803" lon="0.36994">
        <ele>1446</ele>
        <time>2022-08-28T05:26:18.000Z</time>
      </trkpt>
      <trkpt lat="42.80271" lon="0.37059">
        <ele>1452</ele>
        <time>2022-08-28T05:26:28.000Z</time>
      </trkpt>
      <trkpt lat="42.80243" lon="0.37112">
        <ele>1460</ele>
        <time>2022-08-28T05:26:36.000Z</time>
      </trkpt>
      <trkpt lat="42.80219" lon="0.37135">
        <ele>1466</ele>
        <time>2022-08-28T05:26:41.000Z</time>
      </trkpt>
      <trkpt lat="42.80202" lon="0.37146">
        <ele>1469</ele>
        <time>2022-08-28T05:26:45.000Z</time>
      </trkpt>
      <trkpt lat="42.80188" lon="0.37151">
        <ele>1470</ele>
        <time>2022-08-28T05:26:47.000Z</time>
      </trkpt>
      <trkpt lat="42.80175" lon="0.37147">
        <ele>1468</ele>
        <time>2022-08-28T05:26:50.000Z</time>
      </trkpt>
      <trkpt lat="42.80134" lon="0.37075">
        <ele>1451</ele>
        <time>2022-08-28T05:27:02.000Z</time>
      </trkpt>
      <trkpt lat="42.80122" lon="0.37058">
        <ele>1447</ele>
        <time>2022-08-28T05:27:05.000Z</time>
      </trkpt>
      <trkpt lat="42.80098" lon="0.37042">
        <ele>1443</ele>
        <time>2022-08-28T05:27:10.000Z</time>
      </trkpt>
      <trkpt lat="42.80083" lon="0.37051">
        <ele>1446</ele>
        <time>2022-08-28T05:27:12.000Z</time>
      </trkpt>
      <trkpt lat="42.80064" lon="0.37095">
        <ele>1450</ele>
        <time>2022-08-28T05:27:19.000Z</time>
      </trkpt>
      <trkpt lat="42.80059" lon="0.37132">
        <ele>1454</ele>
        <time>2022-08-28T05:27:24.000Z</time>
      </trkpt>
      <trkpt lat="42.80061" lon="0.37216">
        <ele>1468</ele>
        <time>2022-08-28T05:27:35.000Z</time>
      </trkpt>
      <trkpt lat="42.80038" lon="0.37324">
        <ele>1482</ele>
        <time>2022-08-28T05:27:50.000Z</time>
      </trkpt>
      <trkpt lat="42.80031" lon="0.3734">
        <ele>1485</ele>
        <time>2022-08-28T05:27:52.000Z</time>
      </trkpt>
      <trkpt lat="42.80025" lon="0.37346">
        <ele>1485</ele>
        <time>2022-08-28T05:27:53.000Z</time>
      </trkpt>
      <trkpt lat="42.80009" lon="0.37354">
        <ele>1483</ele>
        <time>2022-08-28T05:27:57.000Z</time>
      </trkpt>
      <trkpt lat="42.79989" lon="0.37355">
        <ele>1479</ele>
        <time>2022-08-28T05:28:00.000Z</time>
      </trkpt>
      <trkpt lat="42.79962" lon="0.37362">
        <ele>1479</ele>
        <time>2022-08-28T05:28:05.000Z</time>
      </trkpt>
      <trkpt lat="42.79923" lon="0.3739">
        <ele>1484</ele>
        <time>2022-08-28T05:28:13.000Z</time>
      </trkpt>
      <trkpt lat="42.79902" lon="0.37401">
        <ele>1485</ele>
        <time>2022-08-28T05:28:17.000Z</time>
      </trkpt>
      <trkpt lat="42.79854" lon="0.37409">
        <ele>1478</ele>
        <time>2022-08-28T05:28:25.000Z</time>
      </trkpt>
      <trkpt lat="42.79836" lon="0.37416">
        <ele>1477</ele>
        <time>2022-08-28T05:28:29.000Z</time>
      </trkpt>
      <trkpt lat="42.79826" lon="0.37426">
        <ele>1477</ele>
        <time>2022-08-28T05:28:31.000Z</time>
      </trkpt>
      <trkpt lat="42.79813" lon="0.37449">
        <ele>1479</ele>
        <time>2022-08-28T05:28:35.000Z</time>
      </trkpt>
      <trkpt lat="42.79778" lon="0.3755">
        <ele>1495</ele>
        <time>2022-08-28T05:28:49.000Z</time>
      </trkpt>
      <trkpt lat="42.79768" lon="0.37568">
        <ele>1496</ele>
        <time>2022-08-28T05:28:52.000Z</time>
      </trkpt>
      <trkpt lat="42.79719" lon="0.37615">
        <ele>1492</ele>
        <time>2022-08-28T05:29:03.000Z</time>
      </trkpt>
      <trkpt lat="42.79704" lon="0.37639">
        <ele>1491</ele>
        <time>2022-08-28T05:29:07.000Z</time>
      </trkpt>
      <trkpt lat="42.79694" lon="0.37681">
        <ele>1495</ele>
        <time>2022-08-28T05:29:13.000Z</time>
      </trkpt>
      <trkpt lat="42.79693" lon="0.37694">
        <ele>1496</ele>
        <time>2022-08-28T05:29:15.000Z</time>
      </trkpt>
      <trkpt lat="42.79698" lon="0.37763">
        <ele>1508</ele>
        <time>2022-08-28T05:29:24.000Z</time>
      </trkpt>
      <trkpt lat="42.79689" lon="0.37832">
        <ele>1511</ele>
        <time>2022-08-28T05:29:33.000Z</time>
      </trkpt>
      <trkpt lat="42.79688" lon="0.37865">
        <ele>1514</ele>
        <time>2022-08-28T05:29:37.000Z</time>
      </trkpt>
      <trkpt lat="42.79704" lon="0.37975">
        <ele>1532</ele>
        <time>2022-08-28T05:29:52.000Z</time>
      </trkpt>
      <trkpt lat="42.79705" lon="0.3799">
        <ele>1534</ele>
        <time>2022-08-28T05:29:54.000Z</time>
      </trkpt>
      <trkpt lat="42.79687" lon="0.38053">
        <ele>1540</ele>
        <time>2022-08-28T05:30:03.000Z</time>
      </trkpt>
      <trkpt lat="42.79676" lon="0.38073">
        <ele>1541</ele>
        <time>2022-08-28T05:30:06.000Z</time>
      </trkpt>
      <trkpt lat="42.7964" lon="0.38089">
        <ele>1541</ele>
        <time>2022-08-28T05:30:13.000Z</time>
      </trkpt>
      <trkpt lat="42.79595" lon="0.38105">
        <ele>1546</ele>
        <time>2022-08-28T05:30:21.000Z</time>
      </trkpt>
      <trkpt lat="42.79552" lon="0.38094">
        <ele>1543</ele>
        <time>2022-08-28T05:30:29.000Z</time>
      </trkpt>
      <trkpt lat="42.7954" lon="0.38095">
        <ele>1543</ele>
        <time>2022-08-28T05:30:31.000Z</time>
      </trkpt>
      <trkpt lat="42.79474" lon="0.38141">
        <ele>1561</ele>
        <time>2022-08-28T05:30:44.000Z</time>
      </trkpt>
      <trkpt lat="42.79417" lon="0.38163">
        <ele>1567</ele>
        <time>2022-08-28T05:30:55.000Z</time>
      </trkpt>
      <trkpt lat="42.79396" lon="0.38164">
        <ele>1568</ele>
        <time>2022-08-28T05:30:58.000Z</time>
      </trkpt>
      <trkpt lat="42.79369" lon="0.38157">
        <ele>1568</ele>
        <time>2022-08-28T05:31:03.000Z</time>
      </trkpt>
      <trkpt lat="42.79334" lon="0.38126">
        <ele>1562</ele>
        <time>2022-08-28T05:31:11.000Z</time>
      </trkpt>
      <trkpt lat="42.79321" lon="0.38116">
        <ele>1561</ele>
        <time>2022-08-28T05:31:13.000Z</time>
      </trkpt>
      <trkpt lat="42.79267" lon="0.38115">
        <ele>1567</ele>
        <time>2022-08-28T05:31:23.000Z</time>
      </trkpt>
      <trkpt lat="42.79185" lon="0.38086">
        <ele>1580</ele>
        <time>2022-08-28T05:31:38.000Z</time>
      </trkpt>
      <trkpt lat="42.79187" lon="0.38107">
        <ele>1577</ele>
        <time>2022-08-28T05:31:41.000Z</time>
      </trkpt>
      <trkpt lat="42.79193" lon="0.38117">
        <ele>1575</ele>
        <time>2022-08-28T05:31:43.000Z</time>
      </trkpt>
      <trkpt lat="42.79257" lon="0.38159">
        <ele>1569</ele>
        <time>2022-08-28T05:31:55.000Z</time>
      </trkpt>
      <trkpt lat="42.79268" lon="0.38171">
        <ele>1569</ele>
        <time>2022-08-28T05:31:58.000Z</time>
      </trkpt>
      <trkpt lat="42.79312" lon="0.38272">
        <ele>1560</ele>
        <time>2022-08-28T05:32:13.000Z</time>
      </trkpt>
      <trkpt lat="42.79327" lon="0.38293">
        <ele>1557</ele>
        <time>2022-08-28T05:32:17.000Z</time>
      </trkpt>
      <trkpt lat="42.79338" lon="0.38301">
        <ele>1557</ele>
        <time>2022-08-28T05:32:19.000Z</time>
      </trkpt>
      <trkpt lat="42.79399" lon="0.38332">
        <ele>1553</ele>
        <time>2022-08-28T05:32:31.000Z</time>
      </trkpt>
      <trkpt lat="42.79446" lon="0.38336">
        <ele>1557</ele>
        <time>2022-08-28T05:32:39.000Z</time>
      </trkpt>
      <trkpt lat="42.79459" lon="0.38342">
        <ele>1557</ele>
        <time>2022-08-28T05:32:42.000Z</time>
      </trkpt>
      <trkpt lat="42.79486" lon="0.38387">
        <ele>1547</ele>
        <time>2022-08-28T05:32:49.000Z</time>
      </trkpt>
      <trkpt lat="42.79536" lon="0.38466">
        <ele>1530</ele>
        <time>2022-08-28T05:33:03.000Z</time>
      </trkpt>
      <trkpt lat="42.79641" lon="0.38436">
        <ele>1540</ele>
        <time>2022-08-28T05:33:22.000Z</time>
      </trkpt>
      <trkpt lat="42.79646" lon="0.38438">
        <ele>1540</ele>
        <time>2022-08-28T05:33:23.000Z</time>
      </trkpt>
      <trkpt lat="42.79669" lon="0.3846">
        <ele>1535</ele>
        <time>2022-08-28T05:33:28.000Z</time>
      </trkpt>
      <trkpt lat="42.79733" lon="0.38559">
        <ele>1524</ele>
        <time>2022-08-28T05:33:45.000Z</time>
      </trkpt>
      <trkpt lat="42.79888" lon="0.3872">
        <ele>1503</ele>
        <time>2022-08-28T05:34:20.000Z</time>
      </trkpt>
      <trkpt lat="42.79902" lon="0.38731">
        <ele>1501</ele>
        <time>2022-08-28T05:34:23.000Z</time>
      </trkpt>
      <trkpt lat="42.79954" lon="0.38744">
        <ele>1498</ele>
        <time>2022-08-28T05:34:32.000Z</time>
      </trkpt>
      <trkpt lat="42.79982" lon="0.38749">
        <ele>1495</ele>
        <time>2022-08-28T05:34:37.000Z</time>
      </trkpt>
      <trkpt lat="42.80033" lon="0.38789">
        <ele>1481</ele>
        <time>2022-08-28T05:34:48.000Z</time>
      </trkpt>
      <trkpt lat="42.80041" lon="0.38794">
        <ele>1480</ele>
        <time>2022-08-28T05:34:50.000Z</time>
      </trkpt>
      <trkpt lat="42.8011" lon="0.38777">
        <ele>1475</ele>
        <time>2022-08-28T05:35:02.000Z</time>
      </trkpt>
      <trkpt lat="42.80116" lon="0.3878">
        <ele>1473</ele>
        <time>2022-08-28T05:35:03.000Z</time>
      </trkpt>
      <trkpt lat="42.80116" lon="0.38795">
        <ele>1469</ele>
        <time>2022-08-28T05:35:05.000Z</time>
      </trkpt>
      <trkpt lat="42.80109" lon="0.38799">
        <ele>1469</ele>
        <time>2022-08-28T05:35:07.000Z</time>
      </trkpt>
      <trkpt lat="42.80087" lon="0.38804">
        <ele>1474</ele>
        <time>2022-08-28T05:35:11.000Z</time>
      </trkpt>
      <trkpt lat="42.80055" lon="0.38818">
        <ele>1472</ele>
        <time>2022-08-28T05:35:17.000Z</time>
      </trkpt>
      <trkpt lat="42.79993" lon="0.38827">
        <ele>1473</ele>
        <time>2022-08-28T05:35:28.000Z</time>
      </trkpt>
      <trkpt lat="42.79972" lon="0.38836">
        <ele>1472</ele>
        <time>2022-08-28T05:35:32.000Z</time>
      </trkpt>
      <trkpt lat="42.79917" lon="0.38902">
        <ele>1460</ele>
        <time>2022-08-28T05:35:45.000Z</time>
      </trkpt>
      <trkpt lat="42.79912" lon="0.38903">
        <ele>1459</ele>
        <time>2022-08-28T05:35:46.000Z</time>
      </trkpt>
      <trkpt lat="42.79809" lon="0.38832">
        <ele>1462</ele>
        <time>2022-08-28T05:36:06.000Z</time>
      </trkpt>
      <trkpt lat="42.79793" lon="0.38833">
        <ele>1460</ele>
        <time>2022-08-28T05:36:09.000Z</time>
      </trkpt>
      <trkpt lat="42.79821" lon="0.38869">
        <ele>1457</ele>
        <time>2022-08-28T05:36:16.000Z</time>
      </trkpt>
      <trkpt lat="42.79844" lon="0.38904">
        <ele>1452</ele>
        <time>2022-08-28T05:36:22.000Z</time>
      </trkpt>
      <trkpt lat="42.7986" lon="0.3897">
        <ele>1442</ele>
        <time>2022-08-28T05:36:31.000Z</time>
      </trkpt>
      <trkpt lat="42.79874" lon="0.38984">
        <ele>1440</ele>
        <time>2022-08-28T05:36:35.000Z</time>
      </trkpt>
      <trkpt lat="42.79945" lon="0.39011">
        <ele>1432</ele>
        <time>2022-08-28T05:36:48.000Z</time>
      </trkpt>
      <trkpt lat="42.79961" lon="0.3901">
        <ele>1432</ele>
        <time>2022-08-28T05:36:50.000Z</time>
      </trkpt>
      <trkpt lat="42.79968" lon="0.39007">
        <ele>1432</ele>
        <time>2022-08-28T05:36:52.000Z</time>
      </trkpt>
      <trkpt lat="42.79992" lon="0.38986">
        <ele>1436</ele>
        <time>2022-08-28T05:36:57.000Z</time>
      </trkpt>
      <trkpt lat="42.80039" lon="0.38976">
        <ele>1429</ele>
        <time>2022-08-28T05:37:05.000Z</time>
      </trkpt>
      <trkpt lat="42.80104" lon="0.3894">
        <ele>1427</ele>
        <time>2022-08-28T05:37:18.000Z</time>
      </trkpt>
      <trkpt lat="42.80146" lon="0.38925">
        <ele>1422</ele>
        <time>2022-08-28T05:37:26.000Z</time>
      </trkpt>
      <trkpt lat="42.80185" lon="0.38898">
        <ele>1420</ele>
        <time>2022-08-28T05:37:33.000Z</time>
      </trkpt>
      <trkpt lat="42.80242" lon="0.38841">
        <ele>1418</ele>
        <time>2022-08-28T05:37:46.000Z</time>
      </trkpt>
      <trkpt lat="42.80351" lon="0.38796">
        <ele>1407</ele>
        <time>2022-08-28T05:38:06.000Z</time>
      </trkpt>
      <trkpt lat="42.80356" lon="0.38802">
        <ele>1407</ele>
        <time>2022-08-28T05:38:07.000Z</time>
      </trkpt>
      <trkpt lat="42.80354" lon="0.38813">
        <ele>1405</ele>
        <time>2022-08-28T05:38:09.000Z</time>
      </trkpt>
      <trkpt lat="42.80322" lon="0.38817">
        <ele>1406</ele>
        <time>2022-08-28T05:38:15.000Z</time>
      </trkpt>
      <trkpt lat="42.80306" lon="0.38822">
        <ele>1409</ele>
        <time>2022-08-28T05:38:18.000Z</time>
      </trkpt>
      <trkpt lat="42.80271" lon="0.38847">
        <ele>1409</ele>
        <time>2022-08-28T05:38:25.000Z</time>
      </trkpt>
      <trkpt lat="42.80251" lon="0.38869">
        <ele>1406</ele>
        <time>2022-08-28T05:38:29.000Z</time>
      </trkpt>
      <trkpt lat="42.80185" lon="0.38999">
        <ele>1390</ele>
        <time>2022-08-28T05:38:50.000Z</time>
      </trkpt>
      <trkpt lat="42.80171" lon="0.39022">
        <ele>1389</ele>
        <time>2022-08-28T05:38:54.000Z</time>
      </trkpt>
      <trkpt lat="42.80125" lon="0.39064">
        <ele>1388</ele>
        <time>2022-08-28T05:39:04.000Z</time>
      </trkpt>
      <trkpt lat="42.80117" lon="0.39075">
        <ele>1387</ele>
        <time>2022-08-28T05:39:06.000Z</time>
      </trkpt>
      <trkpt lat="42.80095" lon="0.39142">
        <ele>1375</ele>
        <time>2022-08-28T05:39:15.000Z</time>
      </trkpt>
      <trkpt lat="42.80089" lon="0.39149">
        <ele>1375</ele>
        <time>2022-08-28T05:39:17.000Z</time>
      </trkpt>
      <trkpt lat="42.80083" lon="0.39153">
        <ele>1375</ele>
        <time>2022-08-28T05:39:18.000Z</time>
      </trkpt>
      <trkpt lat="42.80049" lon="0.39161">
        <ele>1378</ele>
        <time>2022-08-28T05:39:24.000Z</time>
      </trkpt>
      <trkpt lat="42.79968" lon="0.39227">
        <ele>1366</ele>
        <time>2022-08-28T05:39:41.000Z</time>
      </trkpt>
      <trkpt lat="42.79864" lon="0.39277">
        <ele>1358</ele>
        <time>2022-08-28T05:40:01.000Z</time>
      </trkpt>
      <trkpt lat="42.79823" lon="0.3929">
        <ele>1358</ele>
        <time>2022-08-28T05:40:08.000Z</time>
      </trkpt>
      <trkpt lat="42.79815" lon="0.39297">
        <ele>1357</ele>
        <time>2022-08-28T05:40:10.000Z</time>
      </trkpt>
      <trkpt lat="42.7981" lon="0.39309">
        <ele>1356</ele>
        <time>2022-08-28T05:40:11.000Z</time>
      </trkpt>
      <trkpt lat="42.79807" lon="0.39359">
        <ele>1348</ele>
        <time>2022-08-28T05:40:18.000Z</time>
      </trkpt>
      <trkpt lat="42.79797" lon="0.3938">
        <ele>1345</ele>
        <time>2022-08-28T05:40:21.000Z</time>
      </trkpt>
      <trkpt lat="42.79789" lon="0.39388">
        <ele>1345</ele>
        <time>2022-08-28T05:40:23.000Z</time>
      </trkpt>
      <trkpt lat="42.79776" lon="0.39394">
        <ele>1344</ele>
        <time>2022-08-28T05:40:26.000Z</time>
      </trkpt>
      <trkpt lat="42.79735" lon="0.39399">
        <ele>1344</ele>
        <time>2022-08-28T05:40:33.000Z</time>
      </trkpt>
      <trkpt lat="42.79734" lon="0.3941">
        <ele>1342</ele>
        <time>2022-08-28T05:40:34.000Z</time>
      </trkpt>
      <trkpt lat="42.79739" lon="0.39417">
        <ele>1341</ele>
        <time>2022-08-28T05:40:36.000Z</time>
      </trkpt>
      <trkpt lat="42.79797" lon="0.39445">
        <ele>1336</ele>
        <time>2022-08-28T05:40:47.000Z</time>
      </trkpt>
      <trkpt lat="42.79842" lon="0.39447">
        <ele>1334</ele>
        <time>2022-08-28T05:40:55.000Z</time>
      </trkpt>
      <trkpt lat="42.7985" lon="0.3945">
        <ele>1334</ele>
        <time>2022-08-28T05:40:56.000Z</time>
      </trkpt>
      <trkpt lat="42.79873" lon="0.3949">
        <ele>1327</ele>
        <time>2022-08-28T05:41:03.000Z</time>
      </trkpt>
      <trkpt lat="42.79888" lon="0.39511">
        <ele>1324</ele>
        <time>2022-08-28T05:41:07.000Z</time>
      </trkpt>
      <trkpt lat="42.79907" lon="0.39521">
        <ele>1321</ele>
        <time>2022-08-28T05:41:10.000Z</time>
      </trkpt>
      <trkpt lat="42.79932" lon="0.39525">
        <ele>1319</ele>
        <time>2022-08-28T05:41:15.000Z</time>
      </trkpt>
      <trkpt lat="42.80019" lon="0.39517">
        <ele>1311</ele>
        <time>2022-08-28T05:41:30.000Z</time>
      </trkpt>
      <trkpt lat="42.80038" lon="0.39513">
        <ele>1308</ele>
        <time>2022-08-28T05:41:34.000Z</time>
      </trkpt>
      <trkpt lat="42.80094" lon="0.39481">
        <ele>1303</ele>
        <time>2022-08-28T05:41:45.000Z</time>
      </trkpt>
      <trkpt lat="42.80152" lon="0.39452">
        <ele>1297</ele>
        <time>2022-08-28T05:41:56.000Z</time>
      </trkpt>
      <trkpt lat="42.80204" lon="0.39414">
        <ele>1296</ele>
        <time>2022-08-28T05:42:06.000Z</time>
      </trkpt>
      <trkpt lat="42.80216" lon="0.39413">
        <ele>1294</ele>
        <time>2022-08-28T05:42:08.000Z</time>
      </trkpt>
      <trkpt lat="42.8022" lon="0.39419">
        <ele>1291</ele>
        <time>2022-08-28T05:42:09.000Z</time>
      </trkpt>
      <trkpt lat="42.80218" lon="0.39429">
        <ele>1289</ele>
        <time>2022-08-28T05:42:11.000Z</time>
      </trkpt>
      <trkpt lat="42.80163" lon="0.39498">
        <ele>1283</ele>
        <time>2022-08-28T05:42:24.000Z</time>
      </trkpt>
      <trkpt lat="42.80133" lon="0.39524">
        <ele>1284</ele>
        <time>2022-08-28T05:42:30.000Z</time>
      </trkpt>
      <trkpt lat="42.80111" lon="0.39554">
        <ele>1281</ele>
        <time>2022-08-28T05:42:36.000Z</time>
      </trkpt>
      <trkpt lat="42.80091" lon="0.39594">
        <ele>1276</ele>
        <time>2022-08-28T05:42:42.000Z</time>
      </trkpt>
      <trkpt lat="42.80056" lon="0.39631">
        <ele>1273</ele>
        <time>2022-08-28T05:42:50.000Z</time>
      </trkpt>
      <trkpt lat="42.8005" lon="0.39643">
        <ele>1270</ele>
        <time>2022-08-28T05:42:52.000Z</time>
      </trkpt>
      <trkpt lat="42.80058" lon="0.3966">
        <ele>1264</ele>
        <time>2022-08-28T05:42:55.000Z</time>
      </trkpt>
      <trkpt lat="42.80069" lon="0.39658">
        <ele>1263</ele>
        <time>2022-08-28T05:42:57.000Z</time>
      </trkpt>
      <trkpt lat="42.80155" lon="0.39605">
        <ele>1256</ele>
        <time>2022-08-28T05:43:14.000Z</time>
      </trkpt>
      <trkpt lat="42.80173" lon="0.3959">
        <ele>1255</ele>
        <time>2022-08-28T05:43:17.000Z</time>
      </trkpt>
      <trkpt lat="42.80202" lon="0.39555">
        <ele>1257</ele>
        <time>2022-08-28T05:43:24.000Z</time>
      </trkpt>
      <trkpt lat="42.80221" lon="0.39547">
        <ele>1254</ele>
        <time>2022-08-28T05:43:28.000Z</time>
      </trkpt>
      <trkpt lat="42.80226" lon="0.39552">
        <ele>1252</ele>
        <time>2022-08-28T05:43:29.000Z</time>
      </trkpt>
      <trkpt lat="42.80227" lon="0.39564">
        <ele>1248</ele>
        <time>2022-08-28T05:43:31.000Z</time>
      </trkpt>
      <trkpt lat="42.802" lon="0.39617">
        <ele>1241</ele>
        <time>2022-08-28T05:43:39.000Z</time>
      </trkpt>
      <trkpt lat="42.80155" lon="0.39676">
        <ele>1238</ele>
        <time>2022-08-28T05:43:50.000Z</time>
      </trkpt>
      <trkpt lat="42.80128" lon="0.39723">
        <ele>1234</ele>
        <time>2022-08-28T05:43:58.000Z</time>
      </trkpt>
      <trkpt lat="42.80121" lon="0.39744">
        <ele>1230</ele>
        <time>2022-08-28T05:44:01.000Z</time>
      </trkpt>
      <trkpt lat="42.80126" lon="0.39764">
        <ele>1222</ele>
        <time>2022-08-28T05:44:04.000Z</time>
      </trkpt>
      <trkpt lat="42.80134" lon="0.39767">
        <ele>1220</ele>
        <time>2022-08-28T05:44:05.000Z</time>
      </trkpt>
      <trkpt lat="42.80255" lon="0.3969">
        <ele>1206</ele>
        <time>2022-08-28T05:44:29.000Z</time>
      </trkpt>
      <trkpt lat="42.80288" lon="0.39663">
        <ele>1205</ele>
        <time>2022-08-28T05:44:36.000Z</time>
      </trkpt>
      <trkpt lat="42.80386" lon="0.39619">
        <ele>1193</ele>
        <time>2022-08-28T05:44:55.000Z</time>
      </trkpt>
      <trkpt lat="42.80417" lon="0.39594">
        <ele>1192</ele>
        <time>2022-08-28T05:45:01.000Z</time>
      </trkpt>
      <trkpt lat="42.80425" lon="0.39598">
        <ele>1187</ele>
        <time>2022-08-28T05:45:02.000Z</time>
      </trkpt>
      <trkpt lat="42.80425" lon="0.39607">
        <ele>1185</ele>
        <time>2022-08-28T05:45:04.000Z</time>
      </trkpt>
      <trkpt lat="42.80422" lon="0.39613">
        <ele>1184</ele>
        <time>2022-08-28T05:45:05.000Z</time>
      </trkpt>
      <trkpt lat="42.80398" lon="0.39632">
        <ele>1186</ele>
        <time>2022-08-28T05:45:09.000Z</time>
      </trkpt>
      <trkpt lat="42.80286" lon="0.39782">
        <ele>1171</ele>
        <time>2022-08-28T05:45:37.000Z</time>
      </trkpt>
      <trkpt lat="42.8027" lon="0.39824">
        <ele>1162</ele>
        <time>2022-08-28T05:45:44.000Z</time>
      </trkpt>
      <trkpt lat="42.80253" lon="0.39841">
        <ele>1161</ele>
        <time>2022-08-28T05:45:47.000Z</time>
      </trkpt>
      <trkpt lat="42.80225" lon="0.39859">
        <ele>1160</ele>
        <time>2022-08-28T05:45:53.000Z</time>
      </trkpt>
      <trkpt lat="42.80176" lon="0.39877">
        <ele>1163</ele>
        <time>2022-08-28T05:46:02.000Z</time>
      </trkpt>
      <trkpt lat="42.80173" lon="0.39888">
        <ele>1157</ele>
        <time>2022-08-28T05:46:03.000Z</time>
      </trkpt>
      <trkpt lat="42.80182" lon="0.39895">
        <ele>1151</ele>
        <time>2022-08-28T05:46:06.000Z</time>
      </trkpt>
      <trkpt lat="42.80264" lon="0.39879">
        <ele>1142</ele>
        <time>2022-08-28T05:46:20.000Z</time>
      </trkpt>
      <trkpt lat="42.80322" lon="0.39863">
        <ele>1134</ele>
        <time>2022-08-28T05:46:31.000Z</time>
      </trkpt>
      <trkpt lat="42.80359" lon="0.39839">
        <ele>1133</ele>
        <time>2022-08-28T05:46:38.000Z</time>
      </trkpt>
      <trkpt lat="42.80365" lon="0.39846">
        <ele>1129</ele>
        <time>2022-08-28T05:46:39.000Z</time>
      </trkpt>
      <trkpt lat="42.80353" lon="0.39869">
        <ele>1124</ele>
        <time>2022-08-28T05:46:43.000Z</time>
      </trkpt>
      <trkpt lat="42.80326" lon="0.3989">
        <ele>1124</ele>
        <time>2022-08-28T05:46:49.000Z</time>
      </trkpt>
      <trkpt lat="42.80246" lon="0.39936">
        <ele>1120</ele>
        <time>2022-08-28T05:47:04.000Z</time>
      </trkpt>
      <trkpt lat="42.80192" lon="0.39957">
        <ele>1118</ele>
        <time>2022-08-28T05:47:14.000Z</time>
      </trkpt>
      <trkpt lat="42.80187" lon="0.39985">
        <ele>1105</ele>
        <time>2022-08-28T05:47:19.000Z</time>
      </trkpt>
      <trkpt lat="42.80193" lon="0.39988">
        <ele>1103</ele>
        <time>2022-08-28T05:47:20.000Z</time>
      </trkpt>
      <trkpt lat="42.80356" lon="0.39953">
        <ele>1093</ele>
        <time>2022-08-28T05:47:49.000Z</time>
      </trkpt>
      <trkpt lat="42.80384" lon="0.39946">
        <ele>1089</ele>
        <time>2022-08-28T05:47:54.000Z</time>
      </trkpt>
      <trkpt lat="42.80408" lon="0.39934">
        <ele>1087</ele>
        <time>2022-08-28T05:47:59.000Z</time>
      </trkpt>
      <trkpt lat="42.80435" lon="0.39913">
        <ele>1083</ele>
        <time>2022-08-28T05:48:04.000Z</time>
      </trkpt>
      <trkpt lat="42.80441" lon="0.39918">
        <ele>1079</ele>
        <time>2022-08-28T05:48:06.000Z</time>
      </trkpt>
      <trkpt lat="42.80442" lon="0.39925">
        <ele>1076</ele>
        <time>2022-08-28T05:48:06.000Z</time>
      </trkpt>
      <trkpt lat="42.80391" lon="0.39973">
        <ele>1078</ele>
        <time>2022-08-28T05:48:18.000Z</time>
      </trkpt>
      <trkpt lat="42.80263" lon="0.40056">
        <ele>1065</ele>
        <time>2022-08-28T05:48:43.000Z</time>
      </trkpt>
      <trkpt lat="42.80231" lon="0.40069">
        <ele>1063</ele>
        <time>2022-08-28T05:48:49.000Z</time>
      </trkpt>
      <trkpt lat="42.80179" lon="0.40083">
        <ele>1061</ele>
        <time>2022-08-28T05:48:58.000Z</time>
      </trkpt>
      <trkpt lat="42.80171" lon="0.40096">
        <ele>1057</ele>
        <time>2022-08-28T05:49:00.000Z</time>
      </trkpt>
      <trkpt lat="42.80176" lon="0.40106">
        <ele>1053</ele>
        <time>2022-08-28T05:49:02.000Z</time>
      </trkpt>
      <trkpt lat="42.80256" lon="0.40102">
        <ele>1047</ele>
        <time>2022-08-28T05:49:16.000Z</time>
      </trkpt>
      <trkpt lat="42.80369" lon="0.40081">
        <ele>1037</ele>
        <time>2022-08-28T05:49:37.000Z</time>
      </trkpt>
      <trkpt lat="42.80411" lon="0.40091">
        <ele>1029</ele>
        <time>2022-08-28T05:49:44.000Z</time>
      </trkpt>
      <trkpt lat="42.80424" lon="0.4009">
        <ele>1027</ele>
        <time>2022-08-28T05:49:46.000Z</time>
      </trkpt>
      <trkpt lat="42.80472" lon="0.40073">
        <ele>1019</ele>
        <time>2022-08-28T05:49:55.000Z</time>
      </trkpt>
      <trkpt lat="42.80485" lon="0.40066">
        <ele>1018</ele>
        <time>2022-08-28T05:49:58.000Z</time>
      </trkpt>
      <trkpt lat="42.80587" lon="0.39985">
        <ele>1010</ele>
        <time>2022-08-28T05:50:19.000Z</time>
      </trkpt>
      <trkpt lat="42.80599" lon="0.39978">
        <ele>1010</ele>
        <time>2022-08-28T05:50:21.000Z</time>
      </trkpt>
      <trkpt lat="42.80669" lon="0.39979">
        <ele>1000</ele>
        <time>2022-08-28T05:50:34.000Z</time>
      </trkpt>
      <trkpt lat="42.80679" lon="0.39981">
        <ele>999</ele>
        <time>2022-08-28T05:50:35.000Z</time>
      </trkpt>
      <trkpt lat="42.80723" lon="0.4001">
        <ele>990</ele>
        <time>2022-08-28T05:50:44.000Z</time>
      </trkpt>
      <trkpt lat="42.80741" lon="0.40029">
        <ele>986</ele>
        <time>2022-08-28T05:50:48.000Z</time>
      </trkpt>
      <trkpt lat="42.80777" lon="0.40085">
        <ele>978</ele>
        <time>2022-08-28T05:50:58.000Z</time>
      </trkpt>
      <trkpt lat="42.80795" lon="0.40103">
        <ele>976</ele>
        <time>2022-08-28T05:51:02.000Z</time>
      </trkpt>
      <trkpt lat="42.80924" lon="0.40174">
        <ele>971</ele>
        <time>2022-08-28T05:51:27.000Z</time>
      </trkpt>
      <trkpt lat="42.80926" lon="0.40181">
        <ele>970</ele>
        <time>2022-08-28T05:51:28.000Z</time>
      </trkpt>
      <trkpt lat="42.80957" lon="0.40186">
        <ele>972</ele>
        <time>2022-08-28T05:51:33.000Z</time>
      </trkpt>
      <trkpt lat="42.80984" lon="0.40201">
        <ele>972</ele>
        <time>2022-08-28T05:51:39.000Z</time>
      </trkpt>
      <trkpt lat="42.81034" lon="0.40255">
        <ele>973</ele>
        <time>2022-08-28T05:51:50.000Z</time>
      </trkpt>
      <trkpt lat="42.81082" lon="0.40284">
        <ele>979</ele>
        <time>2022-08-28T05:51:59.000Z</time>
      </trkpt>
      <trkpt lat="42.8109" lon="0.40291">
        <ele>981</ele>
        <time>2022-08-28T05:52:01.000Z</time>
      </trkpt>
      <trkpt lat="42.811" lon="0.40308">
        <ele>983</ele>
        <time>2022-08-28T05:52:04.000Z</time>
      </trkpt>
      <trkpt lat="42.81115" lon="0.40352">
        <ele>987</ele>
        <time>2022-08-28T05:52:10.000Z</time>
      </trkpt>
      <trkpt lat="42.8113" lon="0.40369">
        <ele>989</ele>
        <time>2022-08-28T05:52:14.000Z</time>
      </trkpt>
      <trkpt lat="42.81146" lon="0.40382">
        <ele>990</ele>
        <time>2022-08-28T05:52:17.000Z</time>
      </trkpt>
      <trkpt lat="42.81231" lon="0.40509">
        <ele>975</ele>
        <time>2022-08-28T05:52:39.000Z</time>
      </trkpt>
      <trkpt lat="42.81239" lon="0.40515">
        <ele>973</ele>
        <time>2022-08-28T05:52:41.000Z</time>
      </trkpt>
      <trkpt lat="42.81249" lon="0.40518">
        <ele>972</ele>
        <time>2022-08-28T05:52:43.000Z</time>
      </trkpt>
      <trkpt lat="42.81256" lon="0.40517">
        <ele>971</ele>
        <time>2022-08-28T05:52:44.000Z</time>
      </trkpt>
      <trkpt lat="42.81301" lon="0.40476">
        <ele>970</ele>
        <time>2022-08-28T05:52:54.000Z</time>
      </trkpt>
      <trkpt lat="42.8131" lon="0.4047">
        <ele>969</ele>
        <time>2022-08-28T05:52:55.000Z</time>
      </trkpt>
      <trkpt lat="42.81335" lon="0.40471">
        <ele>965</ele>
        <time>2022-08-28T05:53:00.000Z</time>
      </trkpt>
      <trkpt lat="42.81388" lon="0.40508">
        <ele>959</ele>
        <time>2022-08-28T05:53:11.000Z</time>
      </trkpt>
      <trkpt lat="42.8123" lon="0.40759">
        <ele>954</ele>
        <time>2022-08-28T05:53:54.000Z</time>
      </trkpt>
      <trkpt lat="42.81156" lon="0.40848">
        <ele>954</ele>
        <time>2022-08-28T05:54:11.000Z</time>
      </trkpt>
      <trkpt lat="42.81152" lon="0.40863">
        <ele>953</ele>
        <time>2022-08-28T05:54:13.000Z</time>
      </trkpt>
      <trkpt lat="42.81163" lon="0.40893">
        <ele>948</ele>
        <time>2022-08-28T05:54:18.000Z</time>
      </trkpt>
      <trkpt lat="42.81191" lon="0.40916">
        <ele>944</ele>
        <time>2022-08-28T05:54:24.000Z</time>
      </trkpt>
      <trkpt lat="42.81199" lon="0.40909">
        <ele>944</ele>
        <time>2022-08-28T05:54:25.000Z</time>
      </trkpt>
      <trkpt lat="42.81208" lon="0.4091">
        <ele>943</ele>
        <time>2022-08-28T05:54:27.000Z</time>
      </trkpt>
      <trkpt lat="42.81237" lon="0.40933">
        <ele>941</ele>
        <time>2022-08-28T05:54:33.000Z</time>
      </trkpt>
      <trkpt lat="42.8126" lon="0.40946">
        <ele>940</ele>
        <time>2022-08-28T05:54:37.000Z</time>
      </trkpt>
      <trkpt lat="42.81298" lon="0.4096">
        <ele>940</ele>
        <time>2022-08-28T05:54:44.000Z</time>
      </trkpt>
      <trkpt lat="42.81313" lon="0.40973">
        <ele>940</ele>
        <time>2022-08-28T05:54:48.000Z</time>
      </trkpt>
      <trkpt lat="42.81348" lon="0.41267">
        <ele>941</ele>
        <time>2022-08-28T05:55:26.000Z</time>
      </trkpt>
      <trkpt lat="42.81346" lon="0.41317">
        <ele>943</ele>
        <time>2022-08-28T05:55:33.000Z</time>
      </trkpt>
      <trkpt lat="42.81356" lon="0.41352">
        <ele>944</ele>
        <time>2022-08-28T05:55:38.000Z</time>
      </trkpt>
      <trkpt lat="42.81368" lon="0.41372">
        <ele>945</ele>
        <time>2022-08-28T05:55:41.000Z</time>
      </trkpt>
      <trkpt lat="42.8141" lon="0.41391">
        <ele>945</ele>
        <time>2022-08-28T05:55:49.000Z</time>
      </trkpt>
      <trkpt lat="42.81488" lon="0.41394">
        <ele>945</ele>
        <time>2022-08-28T05:56:03.000Z</time>
      </trkpt>
      <trkpt lat="42.81509" lon="0.41382">
        <ele>945</ele>
        <time>2022-08-28T05:56:07.000Z</time>
      </trkpt>
      <trkpt lat="42.81533" lon="0.4135">
        <ele>944</ele>
        <time>2022-08-28T05:56:13.000Z</time>
      </trkpt>
      <trkpt lat="42.81555" lon="0.41326">
        <ele>942</ele>
        <time>2022-08-28T05:56:18.000Z</time>
      </trkpt>
      <trkpt lat="42.81578" lon="0.41319">
        <ele>942</ele>
        <time>2022-08-28T05:56:22.000Z</time>
      </trkpt>
      <trkpt lat="42.81617" lon="0.41318">
        <ele>944</ele>
        <time>2022-08-28T05:56:29.000Z</time>
      </trkpt>
      <trkpt lat="42.81638" lon="0.41363">
        <ele>949</ele>
        <time>2022-08-28T05:56:36.000Z</time>
      </trkpt>
      <trkpt lat="42.81647" lon="0.41371">
        <ele>950</ele>
        <time>2022-08-28T05:56:38.000Z</time>
      </trkpt>
      <trkpt lat="42.8166" lon="0.41376">
        <ele>952</ele>
        <time>2022-08-28T05:56:41.000Z</time>
      </trkpt>
      <trkpt lat="42.81682" lon="0.41379">
        <ele>952</ele>
        <time>2022-08-28T05:56:45.000Z</time>
      </trkpt>
      <trkpt lat="42.81717" lon="0.41366">
        <ele>950</ele>
        <time>2022-08-28T05:56:51.000Z</time>
      </trkpt>
      <trkpt lat="42.8172" lon="0.4137">
        <ele>951</ele>
        <time>2022-08-28T05:56:52.000Z</time>
      </trkpt>
      <trkpt lat="42.81721" lon="0.41506">
        <ele>969</ele>
        <time>2022-08-28T05:57:10.000Z</time>
      </trkpt>
      <trkpt lat="42.81729" lon="0.41521">
        <ele>971</ele>
        <time>2022-08-28T05:57:12.000Z</time>
      </trkpt>
      <trkpt lat="42.81795" lon="0.41502">
        <ele>971</ele>
        <time>2022-08-28T05:57:24.000Z</time>
      </trkpt>
      <trkpt lat="42.81814" lon="0.41495">
        <ele>971</ele>
        <time>2022-08-28T05:57:28.000Z</time>
      </trkpt>
      <trkpt lat="42.81852" lon="0.4147">
        <ele>971</ele>
        <time>2022-08-28T05:57:35.000Z</time>
      </trkpt>
      <trkpt lat="42.81859" lon="0.4147">
        <ele>971</ele>
        <time>2022-08-28T05:57:37.000Z</time>
      </trkpt>
      <trkpt lat="42.81866" lon="0.41474">
        <ele>972</ele>
        <time>2022-08-28T05:57:38.000Z</time>
      </trkpt>
      <trkpt lat="42.81871" lon="0.41486">
        <ele>974</ele>
        <time>2022-08-28T05:57:40.000Z</time>
      </trkpt>
      <trkpt lat="42.81882" lon="0.41546">
        <ele>984</ele>
        <time>2022-08-28T05:57:48.000Z</time>
      </trkpt>
      <trkpt lat="42.8189" lon="0.41553">
        <ele>985</ele>
        <time>2022-08-28T05:57:50.000Z</time>
      </trkpt>
      <trkpt lat="42.82011" lon="0.41534">
        <ele>991</ele>
        <time>2022-08-28T05:58:12.000Z</time>
      </trkpt>
      <trkpt lat="42.82068" lon="0.41537">
        <ele>993</ele>
        <time>2022-08-28T05:58:22.000Z</time>
      </trkpt>
      <trkpt lat="42.82089" lon="0.41544">
        <ele>995</ele>
        <time>2022-08-28T05:58:26.000Z</time>
      </trkpt>
      <trkpt lat="42.82123" lon="0.41575">
        <ele>1001</ele>
        <time>2022-08-28T05:58:33.000Z</time>
      </trkpt>
      <trkpt lat="42.82173" lon="0.41597">
        <ele>1008</ele>
        <time>2022-08-28T05:58:42.000Z</time>
      </trkpt>
      <trkpt lat="42.82188" lon="0.41599">
        <ele>1009</ele>
        <time>2022-08-28T05:58:45.000Z</time>
      </trkpt>
      <trkpt lat="42.82197" lon="0.41599">
        <ele>1010</ele>
        <time>2022-08-28T05:58:47.000Z</time>
      </trkpt>
      <trkpt lat="42.82228" lon="0.41584">
        <ele>1009</ele>
        <time>2022-08-28T05:58:52.000Z</time>
      </trkpt>
      <trkpt lat="42.82347" lon="0.4151">
        <ele>998</ele>
        <time>2022-08-28T05:59:16.000Z</time>
      </trkpt>
      <trkpt lat="42.82388" lon="0.41466">
        <ele>994</ele>
        <time>2022-08-28T05:59:25.000Z</time>
      </trkpt>
      <trkpt lat="42.82408" lon="0.4147">
        <ele>996</ele>
        <time>2022-08-28T05:59:29.000Z</time>
      </trkpt>
      <trkpt lat="42.82411" lon="0.41482">
        <ele>999</ele>
        <time>2022-08-28T05:59:31.000Z</time>
      </trkpt>
      <trkpt lat="42.82395" lon="0.41487">
        <ele>998</ele>
        <time>2022-08-28T05:59:33.000Z</time>
      </trkpt>
      <trkpt lat="42.82372" lon="0.41506">
        <ele>999</ele>
        <time>2022-08-28T05:59:38.000Z</time>
      </trkpt>
      <trkpt lat="42.82331" lon="0.41571">
        <ele>1010</ele>
        <time>2022-08-28T05:59:49.000Z</time>
      </trkpt>
      <trkpt lat="42.82317" lon="0.41585">
        <ele>1013</ele>
        <time>2022-08-28T05:59:53.000Z</time>
      </trkpt>
      <trkpt lat="42.82141" lon="0.41706">
        <ele>1032</ele>
        <time>2022-08-28T06:00:28.000Z</time>
      </trkpt>
      <trkpt lat="42.82047" lon="0.41759">
        <ele>1040</ele>
        <time>2022-08-28T06:00:46.000Z</time>
      </trkpt>
      <trkpt lat="42.81945" lon="0.41837">
        <ele>1052</ele>
        <time>2022-08-28T06:01:07.000Z</time>
      </trkpt>
      <trkpt lat="42.81909" lon="0.41877">
        <ele>1061</ele>
        <time>2022-08-28T06:01:15.000Z</time>
      </trkpt>
      <trkpt lat="42.8171" lon="0.41974">
        <ele>1077</ele>
        <time>2022-08-28T06:01:52.000Z</time>
      </trkpt>
      <trkpt lat="42.81692" lon="0.41985">
        <ele>1078</ele>
        <time>2022-08-28T06:01:56.000Z</time>
      </trkpt>
      <trkpt lat="42.81625" lon="0.4205">
        <ele>1090</ele>
        <time>2022-08-28T06:02:11.000Z</time>
      </trkpt>
      <trkpt lat="42.81602" lon="0.42078">
        <ele>1093</ele>
        <time>2022-08-28T06:02:16.000Z</time>
      </trkpt>
      <trkpt lat="42.81538" lon="0.42106">
        <ele>1096</ele>
        <time>2022-08-28T06:02:28.000Z</time>
      </trkpt>
      <trkpt lat="42.81468" lon="0.4214">
        <ele>1102</ele>
        <time>2022-08-28T06:02:41.000Z</time>
      </trkpt>
      <trkpt lat="42.81454" lon="0.42152">
        <ele>1103</ele>
        <time>2022-08-28T06:02:44.000Z</time>
      </trkpt>
      <trkpt lat="42.81425" lon="0.42187">
        <ele>1107</ele>
        <time>2022-08-28T06:02:51.000Z</time>
      </trkpt>
      <trkpt lat="42.81339" lon="0.42352">
        <ele>1128</ele>
        <time>2022-08-28T06:03:18.000Z</time>
      </trkpt>
      <trkpt lat="42.81327" lon="0.42358">
        <ele>1128</ele>
        <time>2022-08-28T06:03:20.000Z</time>
      </trkpt>
      <trkpt lat="42.81315" lon="0.42358">
        <ele>1129</ele>
        <time>2022-08-28T06:03:22.000Z</time>
      </trkpt>
      <trkpt lat="42.81303" lon="0.42354">
        <ele>1130</ele>
        <time>2022-08-28T06:03:24.000Z</time>
      </trkpt>
      <trkpt lat="42.81132" lon="0.42275">
        <ele>1147</ele>
        <time>2022-08-28T06:03:56.000Z</time>
      </trkpt>
      <trkpt lat="42.81016" lon="0.42189">
        <ele>1154</ele>
        <time>2022-08-28T06:04:20.000Z</time>
      </trkpt>
      <trkpt lat="42.80929" lon="0.42174">
        <ele>1167</ele>
        <time>2022-08-28T06:04:36.000Z</time>
      </trkpt>
      <trkpt lat="42.80918" lon="0.42169">
        <ele>1167</ele>
        <time>2022-08-28T06:04:38.000Z</time>
      </trkpt>
      <trkpt lat="42.80895" lon="0.42131">
        <ele>1161</ele>
        <time>2022-08-28T06:04:44.000Z</time>
      </trkpt>
      <trkpt lat="42.80883" lon="0.42135">
        <ele>1163</ele>
        <time>2022-08-28T06:04:46.000Z</time>
      </trkpt>
      <trkpt lat="42.80879" lon="0.42148">
        <ele>1167</ele>
        <time>2022-08-28T06:04:48.000Z</time>
      </trkpt>
      <trkpt lat="42.80881" lon="0.42157">
        <ele>1170</ele>
        <time>2022-08-28T06:04:49.000Z</time>
      </trkpt>
      <trkpt lat="42.80975" lon="0.42244">
        <ele>1179</ele>
        <time>2022-08-28T06:05:10.000Z</time>
      </trkpt>
      <trkpt lat="42.80985" lon="0.42257">
        <ele>1180</ele>
        <time>2022-08-28T06:05:12.000Z</time>
      </trkpt>
      <trkpt lat="42.81028" lon="0.42351">
        <ele>1189</ele>
        <time>2022-08-28T06:05:26.000Z</time>
      </trkpt>
      <trkpt lat="42.81067" lon="0.42428">
        <ele>1194</ele>
        <time>2022-08-28T06:05:39.000Z</time>
      </trkpt>
      <trkpt lat="42.81075" lon="0.42497">
        <ele>1207</ele>
        <time>2022-08-28T06:05:48.000Z</time>
      </trkpt>
      <trkpt lat="42.8108" lon="0.42505">
        <ele>1208</ele>
        <time>2022-08-28T06:05:49.000Z</time>
      </trkpt>
      <trkpt lat="42.81133" lon="0.42523">
        <ele>1201</ele>
        <time>2022-08-28T06:05:59.000Z</time>
      </trkpt>
      <trkpt lat="42.8115" lon="0.4254">
        <ele>1202</ele>
        <time>2022-08-28T06:06:03.000Z</time>
      </trkpt>
      <trkpt lat="42.81167" lon="0.42573">
        <ele>1206</ele>
        <time>2022-08-28T06:06:08.000Z</time>
      </trkpt>
      <trkpt lat="42.81179" lon="0.42614">
        <ele>1211</ele>
        <time>2022-08-28T06:06:14.000Z</time>
      </trkpt>
      <trkpt lat="42.81192" lon="0.42684">
        <ele>1222</ele>
        <time>2022-08-28T06:06:23.000Z</time>
      </trkpt>
      <trkpt lat="42.81207" lon="0.42717">
        <ele>1225</ele>
        <time>2022-08-28T06:06:28.000Z</time>
      </trkpt>
      <trkpt lat="42.81232" lon="0.42753">
        <ele>1227</ele>
        <time>2022-08-28T06:06:35.000Z</time>
      </trkpt>
      <trkpt lat="42.81255" lon="0.42779">
        <ele>1229</ele>
        <time>2022-08-28T06:06:40.000Z</time>
      </trkpt>
      <trkpt lat="42.81294" lon="0.4279">
        <ele>1226</ele>
        <time>2022-08-28T06:06:47.000Z</time>
      </trkpt>
      <trkpt lat="42.81306" lon="0.42796">
        <ele>1225</ele>
        <time>2022-08-28T06:06:50.000Z</time>
      </trkpt>
      <trkpt lat="42.81311" lon="0.42829">
        <ele>1232</ele>
        <time>2022-08-28T06:06:55.000Z</time>
      </trkpt>
      <trkpt lat="42.81304" lon="0.42837">
        <ele>1235</ele>
        <time>2022-08-28T06:06:56.000Z</time>
      </trkpt>
      <trkpt lat="42.81281" lon="0.4284">
        <ele>1239</ele>
        <time>2022-08-28T06:07:00.000Z</time>
      </trkpt>
      <trkpt lat="42.8125" lon="0.42835">
        <ele>1241</ele>
        <time>2022-08-28T06:07:06.000Z</time>
      </trkpt>
      <trkpt lat="42.81176" lon="0.42798">
        <ele>1248</ele>
        <time>2022-08-28T06:07:20.000Z</time>
      </trkpt>
      <trkpt lat="42.81103" lon="0.42744">
        <ele>1252</ele>
        <time>2022-08-28T06:07:35.000Z</time>
      </trkpt>
      <trkpt lat="42.81036" lon="0.42714">
        <ele>1263</ele>
        <time>2022-08-28T06:07:47.000Z</time>
      </trkpt>
      <trkpt lat="42.80952" lon="0.42657">
        <ele>1273</ele>
        <time>2022-08-28T06:08:04.000Z</time>
      </trkpt>
      <trkpt lat="42.80937" lon="0.42645">
        <ele>1275</ele>
        <time>2022-08-28T06:08:07.000Z</time>
      </trkpt>
      <trkpt lat="42.80894" lon="0.42581">
        <ele>1273</ele>
        <time>2022-08-28T06:08:18.000Z</time>
      </trkpt>
      <trkpt lat="42.80857" lon="0.42547">
        <ele>1274</ele>
        <time>2022-08-28T06:08:26.000Z</time>
      </trkpt>
      <trkpt lat="42.80833" lon="0.42536">
        <ele>1278</ele>
        <time>2022-08-28T06:08:31.000Z</time>
      </trkpt>
      <trkpt lat="42.80734" lon="0.42498">
        <ele>1287</ele>
        <time>2022-08-28T06:08:49.000Z</time>
      </trkpt>
      <trkpt lat="42.80701" lon="0.42489">
        <ele>1290</ele>
        <time>2022-08-28T06:08:55.000Z</time>
      </trkpt>
      <trkpt lat="42.80452" lon="0.42458">
        <ele>1312</ele>
        <time>2022-08-28T06:09:40.000Z</time>
      </trkpt>
      <trkpt lat="42.8041" lon="0.42457">
        <ele>1314</ele>
        <time>2022-08-28T06:09:47.000Z</time>
      </trkpt>
      <trkpt lat="42.80393" lon="0.42462">
        <ele>1314</ele>
        <time>2022-08-28T06:09:50.000Z</time>
      </trkpt>
      <trkpt lat="42.80369" lon="0.42473">
        <ele>1316</ele>
        <time>2022-08-28T06:09:55.000Z</time>
      </trkpt>
      <trkpt lat="42.80264" lon="0.42554">
        <ele>1327</ele>
        <time>2022-08-28T06:10:16.000Z</time>
      </trkpt>
      <trkpt lat="42.80259" lon="0.42565">
        <ele>1329</ele>
        <time>2022-08-28T06:10:18.000Z</time>
      </trkpt>
      <trkpt lat="42.80241" lon="0.42636">
        <ele>1342</ele>
        <time>2022-08-28T06:10:28.000Z</time>
      </trkpt>
      <trkpt lat="42.80221" lon="0.42695">
        <ele>1352</ele>
        <time>2022-08-28T06:10:36.000Z</time>
      </trkpt>
      <trkpt lat="42.80215" lon="0.42731">
        <ele>1357</ele>
        <time>2022-08-28T06:10:41.000Z</time>
      </trkpt>
      <trkpt lat="42.80209" lon="0.42794">
        <ele>1363</ele>
        <time>2022-08-28T06:10:49.000Z</time>
      </trkpt>
      <trkpt lat="42.80191" lon="0.42856">
        <ele>1364</ele>
        <time>2022-08-28T06:10:58.000Z</time>
      </trkpt>
      <trkpt lat="42.80181" lon="0.42934">
        <ele>1367</ele>
        <time>2022-08-28T06:11:08.000Z</time>
      </trkpt>
      <trkpt lat="42.80182" lon="0.43022">
        <ele>1375</ele>
        <time>2022-08-28T06:11:20.000Z</time>
      </trkpt>
      <trkpt lat="42.80179" lon="0.43042">
        <ele>1375</ele>
        <time>2022-08-28T06:11:23.000Z</time>
      </trkpt>
      <trkpt lat="42.80155" lon="0.43109">
        <ele>1376</ele>
        <time>2022-08-28T06:11:32.000Z</time>
      </trkpt>
      <trkpt lat="42.8014" lon="0.43162">
        <ele>1379</ele>
        <time>2022-08-28T06:11:40.000Z</time>
      </trkpt>
      <trkpt lat="42.80138" lon="0.43296">
        <ele>1385</ele>
        <time>2022-08-28T06:11:57.000Z</time>
      </trkpt>
      <trkpt lat="42.80133" lon="0.43356">
        <ele>1387</ele>
        <time>2022-08-28T06:12:05.000Z</time>
      </trkpt>
      <trkpt lat="42.80109" lon="0.43527">
        <ele>1393</ele>
        <time>2022-08-28T06:12:28.000Z</time>
      </trkpt>
      <trkpt lat="42.80087" lon="0.43641">
        <ele>1394</ele>
        <time>2022-08-28T06:12:43.000Z</time>
      </trkpt>
      <trkpt lat="42.80092" lon="0.43757">
        <ele>1399</ele>
        <time>2022-08-28T06:12:58.000Z</time>
      </trkpt>
      <trkpt lat="42.80093" lon="0.43868">
        <ele>1407</ele>
        <time>2022-08-28T06:13:13.000Z</time>
      </trkpt>
      <trkpt lat="42.80111" lon="0.44077">
        <ele>1424</ele>
        <time>2022-08-28T06:13:41.000Z</time>
      </trkpt>
      <trkpt lat="42.80115" lon="0.44123">
        <ele>1426</ele>
        <time>2022-08-28T06:13:47.000Z</time>
      </trkpt>
      <trkpt lat="42.8014" lon="0.44171">
        <ele>1433</ele>
        <time>2022-08-28T06:13:54.000Z</time>
      </trkpt>
      <trkpt lat="42.80146" lon="0.4419">
        <ele>1435</ele>
        <time>2022-08-28T06:13:57.000Z</time>
      </trkpt>
      <trkpt lat="42.80158" lon="0.44271">
        <ele>1440</ele>
        <time>2022-08-28T06:14:08.000Z</time>
      </trkpt>
      <trkpt lat="42.80167" lon="0.4431">
        <ele>1443</ele>
        <time>2022-08-28T06:14:13.000Z</time>
      </trkpt>
      <trkpt lat="42.80206" lon="0.44384">
        <ele>1455</ele>
        <time>2022-08-28T06:14:25.000Z</time>
      </trkpt>
      <trkpt lat="42.80215" lon="0.44407">
        <ele>1456</ele>
        <time>2022-08-28T06:14:28.000Z</time>
      </trkpt>
      <trkpt lat="42.80184" lon="0.4486">
        <ele>1477</ele>
        <time>2022-08-28T06:15:28.000Z</time>
      </trkpt>
      <trkpt lat="42.80183" lon="0.44924">
        <ele>1482</ele>
        <time>2022-08-28T06:15:36.000Z</time>
      </trkpt>
      <trkpt lat="42.80217" lon="0.4504">
        <ele>1499</ele>
        <time>2022-08-28T06:15:53.000Z</time>
      </trkpt>
      <trkpt lat="42.80222" lon="0.45062">
        <ele>1501</ele>
        <time>2022-08-28T06:15:56.000Z</time>
      </trkpt>
      <trkpt lat="42.80234" lon="0.45143">
        <ele>1508</ele>
        <time>2022-08-28T06:16:07.000Z</time>
      </trkpt>
      <trkpt lat="42.80233" lon="0.45217">
        <ele>1509</ele>
        <time>2022-08-28T06:16:16.000Z</time>
      </trkpt>
      <trkpt lat="42.80236" lon="0.45251">
        <ele>1511</ele>
        <time>2022-08-28T06:16:21.000Z</time>
      </trkpt>
      <trkpt lat="42.80213" lon="0.45317">
        <ele>1512</ele>
        <time>2022-08-28T06:16:30.000Z</time>
      </trkpt>
      <trkpt lat="42.80205" lon="0.4535">
        <ele>1513</ele>
        <time>2022-08-28T06:16:35.000Z</time>
      </trkpt>
      <trkpt lat="42.80204" lon="0.45444">
        <ele>1524</ele>
        <time>2022-08-28T06:16:47.000Z</time>
      </trkpt>
      <trkpt lat="42.80172" lon="0.45707">
        <ele>1547</ele>
        <time>2022-08-28T06:17:22.000Z</time>
      </trkpt>
      <trkpt lat="42.80173" lon="0.45741">
        <ele>1550</ele>
        <time>2022-08-28T06:17:26.000Z</time>
      </trkpt>
      <trkpt lat="42.80192" lon="0.45943">
        <ele>1577</ele>
        <time>2022-08-28T06:17:53.000Z</time>
      </trkpt>
      <trkpt lat="42.80226" lon="0.46223">
        <ele>1591</ele>
        <time>2022-08-28T06:18:30.000Z</time>
      </trkpt>
      <trkpt lat="42.80232" lon="0.46356">
        <ele>1585</ele>
        <time>2022-08-28T06:18:48.000Z</time>
      </trkpt>
      <trkpt lat="42.80235" lon="0.46382">
        <ele>1580</ele>
        <time>2022-08-28T06:18:51.000Z</time>
      </trkpt>
      <trkpt lat="42.80255" lon="0.46447">
        <ele>1570</ele>
        <time>2022-08-28T06:19:00.000Z</time>
      </trkpt>
      <trkpt lat="42.80297" lon="0.46619">
        <ele>1548</ele>
        <time>2022-08-28T06:19:24.000Z</time>
      </trkpt>
      <trkpt lat="42.80328" lon="0.46678">
        <ele>1545</ele>
        <time>2022-08-28T06:19:33.000Z</time>
      </trkpt>
      <trkpt lat="42.80385" lon="0.46759">
        <ele>1538</ele>
        <time>2022-08-28T06:19:48.000Z</time>
      </trkpt>
      <trkpt lat="42.80476" lon="0.46863">
        <ele>1517</ele>
        <time>2022-08-28T06:20:09.000Z</time>
      </trkpt>
      <trkpt lat="42.80478" lon="0.46869">
        <ele>1514</ele>
        <time>2022-08-28T06:20:10.000Z</time>
      </trkpt>
      <trkpt lat="42.80471" lon="0.46883">
        <ele>1506</ele>
        <time>2022-08-28T06:20:12.000Z</time>
      </trkpt>
      <trkpt lat="42.80464" lon="0.46882">
        <ele>1506</ele>
        <time>2022-08-28T06:20:14.000Z</time>
      </trkpt>
      <trkpt lat="42.80418" lon="0.46837">
        <ele>1520</ele>
        <time>2022-08-28T06:20:24.000Z</time>
      </trkpt>
      <trkpt lat="42.80309" lon="0.46757">
        <ele>1510</ele>
        <time>2022-08-28T06:20:46.000Z</time>
      </trkpt>
      <trkpt lat="42.80251" lon="0.4672">
        <ele>1503</ele>
        <time>2022-08-28T06:20:57.000Z</time>
      </trkpt>
      <trkpt lat="42.80227" lon="0.46708">
        <ele>1503</ele>
        <time>2022-08-28T06:21:02.000Z</time>
      </trkpt>
      <trkpt lat="42.80177" lon="0.46697">
        <ele>1498</ele>
        <time>2022-08-28T06:21:11.000Z</time>
      </trkpt>
      <trkpt lat="42.80169" lon="0.46699">
        <ele>1497</ele>
        <time>2022-08-28T06:21:12.000Z</time>
      </trkpt>
      <trkpt lat="42.80162" lon="0.46717">
        <ele>1494</ele>
        <time>2022-08-28T06:21:15.000Z</time>
      </trkpt>
      <trkpt lat="42.80165" lon="0.46728">
        <ele>1491</ele>
        <time>2022-08-28T06:21:17.000Z</time>
      </trkpt>
      <trkpt lat="42.80214" lon="0.46734">
        <ele>1495</ele>
        <time>2022-08-28T06:21:25.000Z</time>
      </trkpt>
      <trkpt lat="42.80248" lon="0.4676">
        <ele>1491</ele>
        <time>2022-08-28T06:21:32.000Z</time>
      </trkpt>
      <trkpt lat="42.8039" lon="0.46935">
        <ele>1468</ele>
        <time>2022-08-28T06:22:06.000Z</time>
      </trkpt>
      <trkpt lat="42.80392" lon="0.46949">
        <ele>1463</ele>
        <time>2022-08-28T06:22:08.000Z</time>
      </trkpt>
      <trkpt lat="42.80378" lon="0.46954">
        <ele>1457</ele>
        <time>2022-08-28T06:22:11.000Z</time>
      </trkpt>
      <trkpt lat="42.80374" lon="0.46951">
        <ele>1458</ele>
        <time>2022-08-28T06:22:12.000Z</time>
      </trkpt>
      <trkpt lat="42.80346" lon="0.46914">
        <ele>1467</ele>
        <time>2022-08-28T06:22:19.000Z</time>
      </trkpt>
      <trkpt lat="42.80322" lon="0.469">
        <ele>1466</ele>
        <time>2022-08-28T06:22:24.000Z</time>
      </trkpt>
      <trkpt lat="42.80255" lon="0.46889">
        <ele>1454</ele>
        <time>2022-08-28T06:22:36.000Z</time>
      </trkpt>
      <trkpt lat="42.80201" lon="0.46904">
        <ele>1456</ele>
        <time>2022-08-28T06:22:45.000Z</time>
      </trkpt>
      <trkpt lat="42.80185" lon="0.46917">
        <ele>1456</ele>
        <time>2022-08-28T06:22:49.000Z</time>
      </trkpt>
      <trkpt lat="42.80175" lon="0.46946">
        <ele>1452</ele>
        <time>2022-08-28T06:22:53.000Z</time>
      </trkpt>
      <trkpt lat="42.80172" lon="0.46969">
        <ele>1448</ele>
        <time>2022-08-28T06:22:56.000Z</time>
      </trkpt>
      <trkpt lat="42.80171" lon="0.47009">
        <ele>1441</ele>
        <time>2022-08-28T06:23:01.000Z</time>
      </trkpt>
      <trkpt lat="42.80144" lon="0.47134">
        <ele>1435</ele>
        <time>2022-08-28T06:23:18.000Z</time>
      </trkpt>
      <trkpt lat="42.80144" lon="0.47166">
        <ele>1431</ele>
        <time>2022-08-28T06:23:22.000Z</time>
      </trkpt>
      <trkpt lat="42.80151" lon="0.4721">
        <ele>1429</ele>
        <time>2022-08-28T06:23:28.000Z</time>
      </trkpt>
      <trkpt lat="42.80162" lon="0.47243">
        <ele>1427</ele>
        <time>2022-08-28T06:23:33.000Z</time>
      </trkpt>
      <trkpt lat="42.80209" lon="0.47301">
        <ele>1415</ele>
        <time>2022-08-28T06:23:44.000Z</time>
      </trkpt>
      <trkpt lat="42.80238" lon="0.47382">
        <ele>1412</ele>
        <time>2022-08-28T06:23:56.000Z</time>
      </trkpt>
      <trkpt lat="42.80269" lon="0.47439">
        <ele>1410</ele>
        <time>2022-08-28T06:24:05.000Z</time>
      </trkpt>
      <trkpt lat="42.80374" lon="0.47563">
        <ele>1390</ele>
        <time>2022-08-28T06:24:30.000Z</time>
      </trkpt>
      <trkpt lat="42.80404" lon="0.47618">
        <ele>1385</ele>
        <time>2022-08-28T06:24:39.000Z</time>
      </trkpt>
      <trkpt lat="42.80455" lon="0.47747">
        <ele>1377</ele>
        <time>2022-08-28T06:24:58.000Z</time>
      </trkpt>
      <trkpt lat="42.80492" lon="0.47906">
        <ele>1369</ele>
        <time>2022-08-28T06:25:20.000Z</time>
      </trkpt>
      <trkpt lat="42.80527" lon="0.48018">
        <ele>1360</ele>
        <time>2022-08-28T06:25:36.000Z</time>
      </trkpt>
      <trkpt lat="42.80631" lon="0.48169">
        <ele>1348</ele>
        <time>2022-08-28T06:26:03.000Z</time>
      </trkpt>
      <trkpt lat="42.807" lon="0.48259">
        <ele>1342</ele>
        <time>2022-08-28T06:26:20.000Z</time>
      </trkpt>
      <trkpt lat="42.80746" lon="0.4835">
        <ele>1332</ele>
        <time>2022-08-28T06:26:34.000Z</time>
      </trkpt>
      <trkpt lat="42.8076" lon="0.48409">
        <ele>1331</ele>
        <time>2022-08-28T06:26:42.000Z</time>
      </trkpt>
      <trkpt lat="42.80762" lon="0.4878">
        <ele>1306</ele>
        <time>2022-08-28T06:27:31.000Z</time>
      </trkpt>
      <trkpt lat="42.80758" lon="0.48835">
        <ele>1302</ele>
        <time>2022-08-28T06:27:38.000Z</time>
      </trkpt>
      <trkpt lat="42.80641" lon="0.49504">
        <ele>1259</ele>
        <time>2022-08-28T06:29:08.000Z</time>
      </trkpt>
      <trkpt lat="42.80627" lon="0.49668">
        <ele>1251</ele>
        <time>2022-08-28T06:29:30.000Z</time>
      </trkpt>
      <trkpt lat="42.80664" lon="0.49809">
        <ele>1236</ele>
        <time>2022-08-28T06:29:49.000Z</time>
      </trkpt>
      <trkpt lat="42.80659" lon="0.49915">
        <ele>1231</ele>
        <time>2022-08-28T06:30:03.000Z</time>
      </trkpt>
      <trkpt lat="42.80553" lon="0.50163">
        <ele>1211</ele>
        <time>2022-08-28T06:30:41.000Z</time>
      </trkpt>
      <trkpt lat="42.80546" lon="0.50211">
        <ele>1211</ele>
        <time>2022-08-28T06:30:47.000Z</time>
      </trkpt>
      <trkpt lat="42.80549" lon="0.50229">
        <ele>1209</ele>
        <time>2022-08-28T06:30:50.000Z</time>
      </trkpt>
      <trkpt lat="42.80558" lon="0.50253">
        <ele>1207</ele>
        <time>2022-08-28T06:30:53.000Z</time>
      </trkpt>
      <trkpt lat="42.80658" lon="0.50361">
        <ele>1190</ele>
        <time>2022-08-28T06:31:16.000Z</time>
      </trkpt>
      <trkpt lat="42.8067" lon="0.5039">
        <ele>1190</ele>
        <time>2022-08-28T06:31:20.000Z</time>
      </trkpt>
      <trkpt lat="42.80695" lon="0.50577">
        <ele>1178</ele>
        <time>2022-08-28T06:31:45.000Z</time>
      </trkpt>
      <trkpt lat="42.80718" lon="0.50741">
        <ele>1169</ele>
        <time>2022-08-28T06:32:07.000Z</time>
      </trkpt>
      <trkpt lat="42.80726" lon="0.50782">
        <ele>1165</ele>
        <time>2022-08-28T06:32:12.000Z</time>
      </trkpt>
      <trkpt lat="42.80797" lon="0.51047">
        <ele>1151</ele>
        <time>2022-08-28T06:32:49.000Z</time>
      </trkpt>
      <trkpt lat="42.8081" lon="0.51136">
        <ele>1147</ele>
        <time>2022-08-28T06:33:01.000Z</time>
      </trkpt>
      <trkpt lat="42.80823" lon="0.51198">
        <ele>1143</ele>
        <time>2022-08-28T06:33:10.000Z</time>
      </trkpt>
      <trkpt lat="42.80805" lon="0.51403">
        <ele>1129</ele>
        <time>2022-08-28T06:33:37.000Z</time>
      </trkpt>
      <trkpt lat="42.80805" lon="0.51431">
        <ele>1127</ele>
        <time>2022-08-28T06:33:40.000Z</time>
      </trkpt>
      <trkpt lat="42.80811" lon="0.51468">
        <ele>1124</ele>
        <time>2022-08-28T06:33:45.000Z</time>
      </trkpt>
      <trkpt lat="42.80822" lon="0.51489">
        <ele>1122</ele>
        <time>2022-08-28T06:33:49.000Z</time>
      </trkpt>
      <trkpt lat="42.80856" lon="0.51509">
        <ele>1124</ele>
        <time>2022-08-28T06:33:55.000Z</time>
      </trkpt>
      <trkpt lat="42.80863" lon="0.5152">
        <ele>1125</ele>
        <time>2022-08-28T06:33:57.000Z</time>
      </trkpt>
      <trkpt lat="42.80881" lon="0.51696">
        <ele>1120</ele>
        <time>2022-08-28T06:34:20.000Z</time>
      </trkpt>
      <trkpt lat="42.80884" lon="0.51772">
        <ele>1116</ele>
        <time>2022-08-28T06:34:30.000Z</time>
      </trkpt>
      <trkpt lat="42.80861" lon="0.51897">
        <ele>1108</ele>
        <time>2022-08-28T06:34:47.000Z</time>
      </trkpt>
      <trkpt lat="42.80832" lon="0.5194">
        <ele>1104</ele>
        <time>2022-08-28T06:34:55.000Z</time>
      </trkpt>
      <trkpt lat="42.80823" lon="0.51945">
        <ele>1104</ele>
        <time>2022-08-28T06:34:57.000Z</time>
      </trkpt>
      <trkpt lat="42.80798" lon="0.51952">
        <ele>1103</ele>
        <time>2022-08-28T06:35:01.000Z</time>
      </trkpt>
      <trkpt lat="42.80732" lon="0.51952">
        <ele>1099</ele>
        <time>2022-08-28T06:35:13.000Z</time>
      </trkpt>
      <trkpt lat="42.80714" lon="0.51955">
        <ele>1098</ele>
        <time>2022-08-28T06:35:16.000Z</time>
      </trkpt>
      <trkpt lat="42.80684" lon="0.51975">
        <ele>1094</ele>
        <time>2022-08-28T06:35:22.000Z</time>
      </trkpt>
      <trkpt lat="42.80669" lon="0.51992">
        <ele>1089</ele>
        <time>2022-08-28T06:35:26.000Z</time>
      </trkpt>
      <trkpt lat="42.80599" lon="0.52191">
        <ele>1065</ele>
        <time>2022-08-28T06:35:54.000Z</time>
      </trkpt>
      <trkpt lat="42.80597" lon="0.52213">
        <ele>1064</ele>
        <time>2022-08-28T06:35:57.000Z</time>
      </trkpt>
      <trkpt lat="42.80603" lon="0.52435">
        <ele>1044</ele>
        <time>2022-08-28T06:36:26.000Z</time>
      </trkpt>
      <trkpt lat="42.80603" lon="0.52503">
        <ele>1037</ele>
        <time>2022-08-28T06:36:35.000Z</time>
      </trkpt>
      <trkpt lat="42.8064" lon="0.52667">
        <ele>1027</ele>
        <time>2022-08-28T06:36:58.000Z</time>
      </trkpt>
      <trkpt lat="42.80664" lon="0.5276">
        <ele>1020</ele>
        <time>2022-08-28T06:37:11.000Z</time>
      </trkpt>
      <trkpt lat="42.8073" lon="0.52941">
        <ele>1006</ele>
        <time>2022-08-28T06:37:37.000Z</time>
      </trkpt>
      <trkpt lat="42.80739" lon="0.53017">
        <ele>1001</ele>
        <time>2022-08-28T06:37:47.000Z</time>
      </trkpt>
      <trkpt lat="42.80738" lon="0.53059">
        <ele>999</ele>
        <time>2022-08-28T06:37:53.000Z</time>
      </trkpt>
      <trkpt lat="42.80686" lon="0.53297">
        <ele>979</ele>
        <time>2022-08-28T06:38:25.000Z</time>
      </trkpt>
      <trkpt lat="42.80682" lon="0.53325">
        <ele>978</ele>
        <time>2022-08-28T06:38:29.000Z</time>
      </trkpt>
      <trkpt lat="42.80687" lon="0.53401">
        <ele>975</ele>
        <time>2022-08-28T06:38:39.000Z</time>
      </trkpt>
      <trkpt lat="42.80686" lon="0.53463">
        <ele>974</ele>
        <time>2022-08-28T06:38:47.000Z</time>
      </trkpt>
      <trkpt lat="42.80663" lon="0.53585">
        <ele>968</ele>
        <time>2022-08-28T06:39:03.000Z</time>
      </trkpt>
      <trkpt lat="42.80663" lon="0.5372">
        <ele>971</ele>
        <time>2022-08-28T06:39:21.000Z</time>
      </trkpt>
      <trkpt lat="42.80659" lon="0.538">
        <ele>967</ele>
        <time>2022-08-28T06:39:31.000Z</time>
      </trkpt>
      <trkpt lat="42.80632" lon="0.53985">
        <ele>958</ele>
        <time>2022-08-28T06:39:56.000Z</time>
      </trkpt>
      <trkpt lat="42.8062" lon="0.54101">
        <ele>952</ele>
        <time>2022-08-28T06:40:11.000Z</time>
      </trkpt>
      <trkpt lat="42.80618" lon="0.54263">
        <ele>944</ele>
        <time>2022-08-28T06:40:32.000Z</time>
      </trkpt>
      <trkpt lat="42.8062" lon="0.54294">
        <ele>942</ele>
        <time>2022-08-28T06:40:37.000Z</time>
      </trkpt>
      <trkpt lat="42.80625" lon="0.5434">
        <ele>941</ele>
        <time>2022-08-28T06:40:43.000Z</time>
      </trkpt>
      <trkpt lat="42.80644" lon="0.54436">
        <ele>939</ele>
        <time>2022-08-28T06:40:56.000Z</time>
      </trkpt>
      <trkpt lat="42.80647" lon="0.54481">
        <ele>938</ele>
        <time>2022-08-28T06:41:01.000Z</time>
      </trkpt>
      <trkpt lat="42.80645" lon="0.54547">
        <ele>933</ele>
        <time>2022-08-28T06:41:10.000Z</time>
      </trkpt>
      <trkpt lat="42.80658" lon="0.54655">
        <ele>932</ele>
        <time>2022-08-28T06:41:24.000Z</time>
      </trkpt>
      <trkpt lat="42.80659" lon="0.54691">
        <ele>932</ele>
        <time>2022-08-28T06:41:29.000Z</time>
      </trkpt>
      <trkpt lat="42.80654" lon="0.54771">
        <ele>929</ele>
        <time>2022-08-28T06:41:40.000Z</time>
      </trkpt>
      <trkpt lat="42.80629" lon="0.54847">
        <ele>914</ele>
        <time>2022-08-28T06:41:50.000Z</time>
      </trkpt>
      <trkpt lat="42.80627" lon="0.54862">
        <ele>913</ele>
        <time>2022-08-28T06:41:52.000Z</time>
      </trkpt>
      <trkpt lat="42.80631" lon="0.54989">
        <ele>911</ele>
        <time>2022-08-28T06:42:09.000Z</time>
      </trkpt>
      <trkpt lat="42.80596" lon="0.55235">
        <ele>894</ele>
        <time>2022-08-28T06:42:42.000Z</time>
      </trkpt>
      <trkpt lat="42.80594" lon="0.55327">
        <ele>880</ele>
        <time>2022-08-28T06:42:54.000Z</time>
      </trkpt>
      <trkpt lat="42.80609" lon="0.55448">
        <ele>879</ele>
        <time>2022-08-28T06:43:10.000Z</time>
      </trkpt>
      <trkpt lat="42.80612" lon="0.55546">
        <ele>873</ele>
        <time>2022-08-28T06:43:23.000Z</time>
      </trkpt>
      <trkpt lat="42.80591" lon="0.55692">
        <ele>863</ele>
        <time>2022-08-28T06:43:42.000Z</time>
      </trkpt>
      <trkpt lat="42.80548" lon="0.55841">
        <ele>840</ele>
        <time>2022-08-28T06:44:03.000Z</time>
      </trkpt>
      <trkpt lat="42.80546" lon="0.55856">
        <ele>839</ele>
        <time>2022-08-28T06:44:05.000Z</time>
      </trkpt>
      <trkpt lat="42.8055" lon="0.55884">
        <ele>838</ele>
        <time>2022-08-28T06:44:09.000Z</time>
      </trkpt>
      <trkpt lat="42.80563" lon="0.55906">
        <ele>840</ele>
        <time>2022-08-28T06:44:12.000Z</time>
      </trkpt>
      <trkpt lat="42.80588" lon="0.55927">
        <ele>844</ele>
        <time>2022-08-28T06:44:18.000Z</time>
      </trkpt>
      <trkpt lat="42.80641" lon="0.55944">
        <ele>852</ele>
        <time>2022-08-28T06:44:27.000Z</time>
      </trkpt>
      <trkpt lat="42.80651" lon="0.55948">
        <ele>853</ele>
        <time>2022-08-28T06:44:29.000Z</time>
      </trkpt>
      <trkpt lat="42.8066" lon="0.55959">
        <ele>851</ele>
        <time>2022-08-28T06:44:31.000Z</time>
      </trkpt>
      <trkpt lat="42.80661" lon="0.55974">
        <ele>847</ele>
        <time>2022-08-28T06:44:33.000Z</time>
      </trkpt>
      <trkpt lat="42.80657" lon="0.55984">
        <ele>842</ele>
        <time>2022-08-28T06:44:35.000Z</time>
      </trkpt>
      <trkpt lat="42.80645" lon="0.55991">
        <ele>838</ele>
        <time>2022-08-28T06:44:37.000Z</time>
      </trkpt>
      <trkpt lat="42.80598" lon="0.55967">
        <ele>835</ele>
        <time>2022-08-28T06:44:46.000Z</time>
      </trkpt>
      <trkpt lat="42.80539" lon="0.55967">
        <ele>824</ele>
        <time>2022-08-28T06:44:57.000Z</time>
      </trkpt>
      <trkpt lat="42.80475" lon="0.55994">
        <ele>807</ele>
        <time>2022-08-28T06:45:09.000Z</time>
      </trkpt>
      <trkpt lat="42.80466" lon="0.56">
        <ele>804</ele>
        <time>2022-08-28T06:45:10.000Z</time>
      </trkpt>
      <trkpt lat="42.80467" lon="0.56026">
        <ele>801</ele>
        <time>2022-08-28T06:45:14.000Z</time>
      </trkpt>
      <trkpt lat="42.80471" lon="0.56028">
        <ele>802</ele>
        <time>2022-08-28T06:45:15.000Z</time>
      </trkpt>
      <trkpt lat="42.80484" lon="0.56025">
        <ele>805</ele>
        <time>2022-08-28T06:45:17.000Z</time>
      </trkpt>
      <trkpt lat="42.80505" lon="0.56007">
        <ele>813</ele>
        <time>2022-08-28T06:45:22.000Z</time>
      </trkpt>
      <trkpt lat="42.80554" lon="0.56005">
        <ele>819</ele>
        <time>2022-08-28T06:45:31.000Z</time>
      </trkpt>
      <trkpt lat="42.80597" lon="0.56018">
        <ele>822</ele>
        <time>2022-08-28T06:45:38.000Z</time>
      </trkpt>
      <trkpt lat="42.80627" lon="0.56041">
        <ele>823</ele>
        <time>2022-08-28T06:45:45.000Z</time>
      </trkpt>
      <trkpt lat="42.80633" lon="0.56054">
        <ele>821</ele>
        <time>2022-08-28T06:45:47.000Z</time>
      </trkpt>
      <trkpt lat="42.80629" lon="0.56093">
        <ele>816</ele>
        <time>2022-08-28T06:45:52.000Z</time>
      </trkpt>
      <trkpt lat="42.80624" lon="0.56099">
        <ele>817</ele>
        <time>2022-08-28T06:45:53.000Z</time>
      </trkpt>
      <trkpt lat="42.80562" lon="0.56107">
        <ele>809</ele>
        <time>2022-08-28T06:46:04.000Z</time>
      </trkpt>
      <trkpt lat="42.80541" lon="0.56112">
        <ele>807</ele>
        <time>2022-08-28T06:46:08.000Z</time>
      </trkpt>
      <trkpt lat="42.80466" lon="0.56164">
        <ele>796</ele>
        <time>2022-08-28T06:46:23.000Z</time>
      </trkpt>
      <trkpt lat="42.8042" lon="0.56186">
        <ele>790</ele>
        <time>2022-08-28T06:46:32.000Z</time>
      </trkpt>
      <trkpt lat="42.80342" lon="0.56197">
        <ele>779</ele>
        <time>2022-08-28T06:46:46.000Z</time>
      </trkpt>
      <trkpt lat="42.80328" lon="0.56202">
        <ele>779</ele>
        <time>2022-08-28T06:46:48.000Z</time>
      </trkpt>
      <trkpt lat="42.80286" lon="0.5628">
        <ele>783</ele>
        <time>2022-08-28T06:47:01.000Z</time>
      </trkpt>
      <trkpt lat="42.80269" lon="0.56306">
        <ele>779</ele>
        <time>2022-08-28T06:47:06.000Z</time>
      </trkpt>
      <trkpt lat="42.80125" lon="0.56489">
        <ele>770</ele>
        <time>2022-08-28T06:47:41.000Z</time>
      </trkpt>
      <trkpt lat="42.80109" lon="0.56503">
        <ele>770</ele>
        <time>2022-08-28T06:47:44.000Z</time>
      </trkpt>
      <trkpt lat="42.80068" lon="0.5653">
        <ele>779</ele>
        <time>2022-08-28T06:47:52.000Z</time>
      </trkpt>
      <trkpt lat="42.8002" lon="0.56553">
        <ele>776</ele>
        <time>2022-08-28T06:48:01.000Z</time>
      </trkpt>
      <trkpt lat="42.79926" lon="0.56634">
        <ele>777</ele>
        <time>2022-08-28T06:48:21.000Z</time>
      </trkpt>
      <trkpt lat="42.79904" lon="0.56649">
        <ele>776</ele>
        <time>2022-08-28T06:48:25.000Z</time>
      </trkpt>
      <trkpt lat="42.79775" lon="0.56665">
        <ele>760</ele>
        <time>2022-08-28T06:48:49.000Z</time>
      </trkpt>
      <trkpt lat="42.79762" lon="0.56675">
        <ele>759</ele>
        <time>2022-08-28T06:48:51.000Z</time>
      </trkpt>
      <trkpt lat="42.79668" lon="0.56875">
        <ele>751</ele>
        <time>2022-08-28T06:49:23.000Z</time>
      </trkpt>
      <trkpt lat="42.79639" lon="0.56963">
        <ele>757</ele>
        <time>2022-08-28T06:49:35.000Z</time>
      </trkpt>
      <trkpt lat="42.79625" lon="0.5701">
        <ele>755</ele>
        <time>2022-08-28T06:49:42.000Z</time>
      </trkpt>
      <trkpt lat="42.7962" lon="0.57046">
        <ele>752</ele>
        <time>2022-08-28T06:49:47.000Z</time>
      </trkpt>
      <trkpt lat="42.79655" lon="0.57174">
        <ele>756</ele>
        <time>2022-08-28T06:50:04.000Z</time>
      </trkpt>
      <trkpt lat="42.79657" lon="0.57225">
        <ele>755</ele>
        <time>2022-08-28T06:50:11.000Z</time>
      </trkpt>
      <trkpt lat="42.79634" lon="0.5737">
        <ele>742</ele>
        <time>2022-08-28T06:50:30.000Z</time>
      </trkpt>
      <trkpt lat="42.79608" lon="0.57462">
        <ele>731</ele>
        <time>2022-08-28T06:50:43.000Z</time>
      </trkpt>
      <trkpt lat="42.79584" lon="0.57565">
        <ele>716</ele>
        <time>2022-08-28T06:50:57.000Z</time>
      </trkpt>
      <trkpt lat="42.79586" lon="0.57623">
        <ele>715</ele>
        <time>2022-08-28T06:51:05.000Z</time>
      </trkpt>
      <trkpt lat="42.79579" lon="0.57711">
        <ele>715</ele>
        <time>2022-08-28T06:51:17.000Z</time>
      </trkpt>
      <trkpt lat="42.79574" lon="0.57731">
        <ele>715</ele>
        <time>2022-08-28T06:51:19.000Z</time>
      </trkpt>
      <trkpt lat="42.79562" lon="0.57758">
        <ele>712</ele>
        <time>2022-08-28T06:51:23.000Z</time>
      </trkpt>
      <trkpt lat="42.79455" lon="0.5793">
        <ele>686</ele>
        <time>2022-08-28T06:51:53.000Z</time>
      </trkpt>
      <trkpt lat="42.79448" lon="0.57949">
        <ele>685</ele>
        <time>2022-08-28T06:51:56.000Z</time>
      </trkpt>
      <trkpt lat="42.79431" lon="0.58027">
        <ele>683</ele>
        <time>2022-08-28T06:52:06.000Z</time>
      </trkpt>
      <trkpt lat="42.79423" lon="0.58096">
        <ele>684</ele>
        <time>2022-08-28T06:52:15.000Z</time>
      </trkpt>
      <trkpt lat="42.79426" lon="0.58213">
        <ele>690</ele>
        <time>2022-08-28T06:52:31.000Z</time>
      </trkpt>
      <trkpt lat="42.79424" lon="0.58281">
        <ele>690</ele>
        <time>2022-08-28T06:52:40.000Z</time>
      </trkpt>
      <trkpt lat="42.79397" lon="0.58439">
        <ele>677</ele>
        <time>2022-08-28T06:53:01.000Z</time>
      </trkpt>
      <trkpt lat="42.7939" lon="0.58477">
        <ele>673</ele>
        <time>2022-08-28T06:53:06.000Z</time>
      </trkpt>
      <trkpt lat="42.79344" lon="0.58611">
        <ele>651</ele>
        <time>2022-08-28T06:53:25.000Z</time>
      </trkpt>
      <trkpt lat="42.79337" lon="0.58653">
        <ele>647</ele>
        <time>2022-08-28T06:53:31.000Z</time>
      </trkpt>
      <trkpt lat="42.79344" lon="0.58781">
        <ele>644</ele>
        <time>2022-08-28T06:53:48.000Z</time>
      </trkpt>
      <trkpt lat="42.79376" lon="0.59021">
        <ele>641</ele>
        <time>2022-08-28T06:54:20.000Z</time>
      </trkpt>
      <trkpt lat="42.79369" lon="0.59132">
        <ele>636</ele>
        <time>2022-08-28T06:54:34.000Z</time>
      </trkpt>
      <trkpt lat="42.79371" lon="0.59144">
        <ele>636</ele>
        <time>2022-08-28T06:54:36.000Z</time>
      </trkpt>
      <trkpt lat="42.79377" lon="0.59165">
        <ele>635</ele>
        <time>2022-08-28T06:54:39.000Z</time>
      </trkpt>
      <trkpt lat="42.79391" lon="0.59196">
        <ele>635</ele>
        <time>2022-08-28T06:54:43.000Z</time>
      </trkpt>
      <trkpt lat="42.79485" lon="0.59363">
        <ele>634</ele>
        <time>2022-08-28T06:55:11.000Z</time>
      </trkpt>
      <trkpt lat="42.7949" lon="0.59378">
        <ele>626</ele>
        <time>1970-01-01T00:00:00.000Z</time>
      </trkpt>
      <trkpt lat="42.79482" lon="0.59408">
        <ele>626</ele>
        <time>1970-01-01T00:00:00.000Z</time>
      </trkpt>
      <trkpt lat="42.79495" lon="0.59427">
        <ele>625.7</ele>
        <time>1970-01-01T00:00:00.000Z</time>
      </trkpt>
      <trkpt lat="42.79496" lon="0.59447">
        <ele>625.1</ele>
        <time>1970-01-01T00:00:00.000Z</time>
      </trkpt>
      <trkpt lat="42.79505" lon="0.59466">
        <ele>624.9</ele>
        <time>1970-01-01T00:00:00.000Z</time>
      </trkpt>
      <trkpt lat="42.79515" lon="0.59646">
        <ele>626</ele>
        <time>2022-08-28T06:56:12.000Z</time>
      </trkpt>
      <trkpt lat="42.79523" lon="0.59664">
        <ele>626</ele>
        <time>2022-08-28T06:56:15.000Z</time>
      </trkpt>
      <trkpt lat="42.7953" lon="0.59673">
        <ele>626</ele>
        <time>2022-08-28T06:56:16.000Z</time>
      </trkpt>
      <trkpt lat="42.79549" lon="0.5968">
        <ele>626</ele>
        <time>2022-08-28T06:56:20.000Z</time>
      </trkpt>
      <trkpt lat="42.79981" lon="0.59734">
        <ele>619</ele>
        <time>2022-08-28T06:57:37.000Z</time>
      </trkpt>
      <trkpt lat="42.79986" lon="0.59737">
        <ele>618</ele>
        <time>2022-08-28T06:57:38.000Z</time>
      </trkpt>
      <trkpt lat="42.80138" lon="0.59748">
        <ele>619</ele>
        <time>2022-08-28T06:58:05.000Z</time>
      </trkpt>
      <trkpt lat="42.80189" lon="0.59764">
        <ele>618</ele>
        <time>2022-08-28T06:58:14.000Z</time>
      </trkpt>
      <trkpt lat="42.80281" lon="0.59812">
        <ele>617</ele>
        <time>2022-08-28T06:58:32.000Z</time>
      </trkpt>
      <trkpt lat="42.80457" lon="0.5995">
        <ele>613</ele>
        <time>2022-08-28T06:59:08.000Z</time>
      </trkpt>
      <trkpt lat="42.80484" lon="0.59972">
        <ele>613</ele>
        <time>2022-08-28T06:59:14.000Z</time>
      </trkpt>
      <trkpt lat="42.80507" lon="0.59999">
        <ele>613</ele>
        <time>2022-08-28T06:59:19.000Z</time>
      </trkpt>
      <trkpt lat="42.80521" lon="0.60029">
        <ele>614</ele>
        <time>2022-08-28T06:59:24.000Z</time>
      </trkpt>
      <trkpt lat="42.80526" lon="0.60034">
        <ele>614</ele>
        <time>2022-08-28T06:59:25.000Z</time>
      </trkpt>
      <trkpt lat="42.8054" lon="0.60028">
        <ele>614</ele>
        <time>2022-08-28T06:59:28.000Z</time>
      </trkpt>
      <trkpt lat="42.80568" lon="0.60027">
        <ele>614</ele>
        <time>2022-08-28T06:59:33.000Z</time>
      </trkpt>
      <trkpt lat="42.80701" lon="0.60054">
        <ele>614</ele>
        <time>2022-08-28T06:59:57.000Z</time>
      </trkpt>
      <trkpt lat="42.80724" lon="0.60058">
        <ele>613</ele>
        <time>2022-08-28T07:00:01.000Z</time>
      </trkpt>
      <trkpt lat="42.82123" lon="0.60376">
        <ele>605</ele>
        <time>2022-08-28T07:04:13.000Z</time>
      </trkpt>
      <trkpt lat="42.8217" lon="0.60382">
        <ele>604</ele>
        <time>2022-08-28T07:04:21.000Z</time>
      </trkpt>
      <trkpt lat="42.82268" lon="0.60381">
        <ele>605</ele>
        <time>2022-08-28T07:04:39.000Z</time>
      </trkpt>
      <trkpt lat="42.8234" lon="0.60368">
        <ele>601</ele>
        <time>2022-08-28T07:04:52.000Z</time>
      </trkpt>
      <trkpt lat="42.82382" lon="0.60356">
        <ele>601</ele>
        <time>2022-08-28T07:04:59.000Z</time>
      </trkpt>
      <trkpt lat="42.82426" lon="0.60339">
        <ele>601</ele>
        <time>2022-08-28T07:05:08.000Z</time>
      </trkpt>
      <trkpt lat="42.82655" lon="0.60235">
        <ele>601</ele>
        <time>2022-08-28T07:05:51.000Z</time>
      </trkpt>
      <trkpt lat="42.82707" lon="0.60215">
        <ele>601</ele>
        <time>2022-08-28T07:06:00.000Z</time>
      </trkpt>
      <trkpt lat="42.82759" lon="0.60205">
        <ele>600</ele>
        <time>2022-08-28T07:06:10.000Z</time>
      </trkpt>
      <trkpt lat="42.82893" lon="0.60177">
        <ele>599</ele>
        <time>2022-08-28T07:06:34.000Z</time>
      </trkpt>
      <trkpt lat="42.82897" lon="0.60185">
        <ele>599</ele>
        <time>2022-08-28T07:06:35.000Z</time>
      </trkpt>
      <trkpt lat="42.82902" lon="0.60189">
        <ele>599</ele>
        <time>2022-08-28T07:06:36.000Z</time>
      </trkpt>
      <trkpt lat="42.82916" lon="0.60174">
        <ele>599</ele>
        <time>2022-08-28T07:06:39.000Z</time>
      </trkpt>
      <trkpt lat="42.82972" lon="0.60168">
        <ele>599</ele>
        <time>2022-08-28T07:06:49.000Z</time>
      </trkpt>
      <trkpt lat="42.83037" lon="0.60175">
        <ele>600</ele>
        <time>2022-08-28T07:07:01.000Z</time>
      </trkpt>
      <trkpt lat="42.8306" lon="0.60181">
        <ele>600</ele>
        <time>2022-08-28T07:07:05.000Z</time>
      </trkpt>
      <trkpt lat="42.83951" lon="0.60431">
        <ele>602</ele>
        <time>2022-08-28T07:09:47.000Z</time>
      </trkpt>
      <trkpt lat="42.84069" lon="0.60462">
        <ele>598</ele>
        <time>2022-08-28T07:10:09.000Z</time>
      </trkpt>
      <trkpt lat="42.84116" lon="0.60464">
        <ele>597</ele>
        <time>2022-08-28T07:10:17.000Z</time>
      </trkpt>
      <trkpt lat="42.84151" lon="0.60459">
        <ele>595</ele>
        <time>2022-08-28T07:10:23.000Z</time>
      </trkpt>
      <trkpt lat="42.84226" lon="0.60429">
        <ele>596</ele>
        <time>2022-08-28T07:10:37.000Z</time>
      </trkpt>
      <trkpt lat="42.84289" lon="0.6041">
        <ele>596</ele>
        <time>2022-08-28T07:10:49.000Z</time>
      </trkpt>
      <trkpt lat="42.84317" lon="0.60408">
        <ele>597</ele>
        <time>2022-08-28T07:10:54.000Z</time>
      </trkpt>
      <trkpt lat="42.84422" lon="0.60392">
        <ele>599</ele>
        <time>2022-08-28T07:11:12.000Z</time>
      </trkpt>
      <trkpt lat="42.84975" lon="0.60258">
        <ele>597</ele>
        <time>2022-08-28T07:12:52.000Z</time>
      </trkpt>
      <trkpt lat="42.85032" lon="0.60253">
        <ele>598</ele>
        <time>2022-08-28T07:13:02.000Z</time>
      </trkpt>
      <trkpt lat="42.85153" lon="0.60252">
        <ele>597</ele>
        <time>2022-08-28T07:13:24.000Z</time>
      </trkpt>
      <trkpt lat="42.85171" lon="0.60254">
        <ele>597</ele>
        <time>2022-08-28T07:13:27.000Z</time>
      </trkpt>
      <trkpt lat="42.85226" lon="0.60271">
        <ele>599</ele>
        <time>2022-08-28T07:13:37.000Z</time>
      </trkpt>
      <trkpt lat="42.85261" lon="0.60292">
        <ele>601</ele>
        <time>2022-08-28T07:13:44.000Z</time>
      </trkpt>
      <trkpt lat="42.85278" lon="0.60304">
        <ele>600</ele>
        <time>2022-08-28T07:13:47.000Z</time>
      </trkpt>
      <trkpt lat="42.85313" lon="0.60336">
        <ele>596</ele>
        <time>2022-08-28T07:13:55.000Z</time>
      </trkpt>
      <trkpt lat="42.85412" lon="0.60462">
        <ele>601</ele>
        <time>2022-08-28T07:14:19.000Z</time>
      </trkpt>
      <trkpt lat="42.85444" lon="0.60491">
        <ele>604</ele>
        <time>2022-08-28T07:14:26.000Z</time>
      </trkpt>
      <trkpt lat="42.85639" lon="0.606">
        <ele>607</ele>
        <time>2022-08-28T07:15:03.000Z</time>
      </trkpt>
      <trkpt lat="42.85653" lon="0.60604">
        <ele>607</ele>
        <time>2022-08-28T07:15:06.000Z</time>
      </trkpt>
      <trkpt lat="42.85708" lon="0.60602">
        <ele>607</ele>
        <time>2022-08-28T07:15:16.000Z</time>
      </trkpt>
      <trkpt lat="42.85735" lon="0.60596">
        <ele>605</ele>
        <time>2022-08-28T07:15:21.000Z</time>
      </trkpt>
      <trkpt lat="42.85819" lon="0.60564">
        <ele>607</ele>
        <time>2022-08-28T07:15:36.000Z</time>
      </trkpt>
      <trkpt lat="42.85864" lon="0.60559">
        <ele>611</ele>
        <time>2022-08-28T07:15:44.000Z</time>
      </trkpt>
      <trkpt lat="42.85934" lon="0.60563">
        <ele>611</ele>
        <time>2022-08-28T07:15:57.000Z</time>
      </trkpt>
      <trkpt lat="42.86003" lon="0.60585">
        <ele>601</ele>
        <time>2022-08-28T07:16:09.000Z</time>
      </trkpt>
      <trkpt lat="42.86043" lon="0.60586">
        <ele>604</ele>
        <time>2022-08-28T07:16:16.000Z</time>
      </trkpt>
      <trkpt lat="42.86305" lon="0.60512">
        <ele>601</ele>
        <time>2022-08-28T07:17:04.000Z</time>
      </trkpt>
      <trkpt lat="42.86342" lon="0.60513">
        <ele>601</ele>
        <time>2022-08-28T07:17:11.000Z</time>
      </trkpt>
      <trkpt lat="42.8644" lon="0.60558">
        <ele>606</ele>
        <time>2022-08-28T07:17:29.000Z</time>
      </trkpt>
      <trkpt lat="42.86463" lon="0.60575">
        <ele>607</ele>
        <time>2022-08-28T07:17:34.000Z</time>
      </trkpt>
      <trkpt lat="42.86678" lon="0.60773">
        <ele>607</ele>
        <time>2022-08-28T07:18:20.000Z</time>
      </trkpt>
      <trkpt lat="42.86794" lon="0.60915">
        <ele>601</ele>
        <time>2022-08-28T07:18:48.000Z</time>
      </trkpt>
      <trkpt lat="42.86826" lon="0.60941">
        <ele>598</ele>
        <time>2022-08-28T07:18:54.000Z</time>
      </trkpt>
      <trkpt lat="42.86838" lon="0.60948">
        <ele>597</ele>
        <time>2022-08-28T07:18:57.000Z</time>
      </trkpt>
      <trkpt lat="42.8698" lon="0.60997">
        <ele>588</ele>
        <time>2022-08-28T07:19:23.000Z</time>
      </trkpt>
      <trkpt lat="42.87002" lon="0.61008">
        <ele>588</ele>
        <time>2022-08-28T07:19:27.000Z</time>
      </trkpt>
      <trkpt lat="42.87024" lon="0.61023">
        <ele>590</ele>
        <time>2022-08-28T07:19:31.000Z</time>
      </trkpt>
      <trkpt lat="42.871" lon="0.61079">
        <ele>596</ele>
        <time>2022-08-28T07:19:47.000Z</time>
      </trkpt>
      <trkpt lat="42.87187" lon="0.61113">
        <ele>597</ele>
        <time>2022-08-28T07:20:03.000Z</time>
      </trkpt>
      <trkpt lat="42.87241" lon="0.61143">
        <ele>592</ele>
        <time>2022-08-28T07:20:13.000Z</time>
      </trkpt>
      <trkpt lat="42.87295" lon="0.61189">
        <ele>596</ele>
        <time>2022-08-28T07:20:24.000Z</time>
      </trkpt>
      <trkpt lat="42.87313" lon="0.61201">
        <ele>598</ele>
        <time>2022-08-28T07:20:28.000Z</time>
      </trkpt>
      <trkpt lat="42.876" lon="0.61331">
        <ele>586</ele>
        <time>2022-08-28T07:21:22.000Z</time>
      </trkpt>
      <trkpt lat="42.87766" lon="0.6141">
        <ele>579</ele>
        <time>2022-08-28T07:21:53.000Z</time>
      </trkpt>
      <trkpt lat="42.87796" lon="0.61414">
        <ele>579</ele>
        <time>2022-08-28T07:21:59.000Z</time>
      </trkpt>
      <trkpt lat="42.87819" lon="0.61413">
        <ele>578</ele>
        <time>2022-08-28T07:22:03.000Z</time>
      </trkpt>
      <trkpt lat="42.8798" lon="0.61352">
        <ele>576</ele>
        <time>2022-08-28T07:22:32.000Z</time>
      </trkpt>
      <trkpt lat="42.87997" lon="0.61351">
        <ele>577</ele>
        <time>2022-08-28T07:22:35.000Z</time>
      </trkpt>
      <trkpt lat="42.88234" lon="0.61387">
        <ele>572</ele>
        <time>2022-08-28T07:23:18.000Z</time>
      </trkpt>
      <trkpt lat="42.88277" lon="0.61399">
        <ele>572</ele>
        <time>2022-08-28T07:23:26.000Z</time>
      </trkpt>
      <trkpt lat="42.88299" lon="0.61414">
        <ele>571</ele>
        <time>2022-08-28T07:23:30.000Z</time>
      </trkpt>
      <trkpt lat="42.88317" lon="0.61436">
        <ele>574</ele>
        <time>2022-08-28T07:23:34.000Z</time>
      </trkpt>
      <trkpt lat="42.88378" lon="0.61569">
        <ele>581</ele>
        <time>2022-08-28T07:23:55.000Z</time>
      </trkpt>
      <trkpt lat="42.88412" lon="0.6162">
        <ele>578</ele>
        <time>2022-08-28T07:24:04.000Z</time>
      </trkpt>
      <trkpt lat="42.88491" lon="0.61675">
        <ele>568</ele>
        <time>2022-08-28T07:24:20.000Z</time>
      </trkpt>
      <trkpt lat="42.88511" lon="0.6169">
        <ele>567</ele>
        <time>2022-08-28T07:24:24.000Z</time>
      </trkpt>
      <trkpt lat="42.88569" lon="0.61785">
        <ele>571</ele>
        <time>2022-08-28T07:24:40.000Z</time>
      </trkpt>
      <trkpt lat="42.88585" lon="0.61807">
        <ele>569</ele>
        <time>2022-08-28T07:24:44.000Z</time>
      </trkpt>
      <trkpt lat="42.8867" lon="0.61878">
        <ele>559</ele>
        <time>2022-08-28T07:25:02.000Z</time>
      </trkpt>
      <trkpt lat="42.88742" lon="0.61956">
        <ele>557</ele>
        <time>2022-08-28T07:25:18.000Z</time>
      </trkpt>
      <trkpt lat="42.88927" lon="0.62007">
        <ele>553</ele>
        <time>2022-08-28T07:25:52.000Z</time>
      </trkpt>
      <trkpt lat="42.88975" lon="0.62013">
        <ele>555</ele>
        <time>2022-08-28T07:26:00.000Z</time>
      </trkpt>
      <trkpt lat="42.89013" lon="0.62013">
        <ele>556</ele>
        <time>2022-08-28T07:26:07.000Z</time>
      </trkpt>
      <trkpt lat="42.89049" lon="0.61992">
        <ele>560</ele>
        <time>2022-08-28T07:26:14.000Z</time>
      </trkpt>
      <trkpt lat="42.8906" lon="0.61994">
        <ele>560</ele>
        <time>2022-08-28T07:26:16.000Z</time>
      </trkpt>
      <trkpt lat="42.89074" lon="0.62007">
        <ele>559</ele>
        <time>2022-08-28T07:26:19.000Z</time>
      </trkpt>
      <trkpt lat="42.89087" lon="0.62031">
        <ele>557</ele>
        <time>2022-08-28T07:26:23.000Z</time>
      </trkpt>
      <trkpt lat="42.89122" lon="0.62122">
        <ele>553</ele>
        <time>2022-08-28T07:26:36.000Z</time>
      </trkpt>
      <trkpt lat="42.89142" lon="0.62149">
        <ele>552</ele>
        <time>2022-08-28T07:26:41.000Z</time>
      </trkpt>
      <trkpt lat="42.89159" lon="0.62155">
        <ele>550</ele>
        <time>2022-08-28T07:26:44.000Z</time>
      </trkpt>
      <trkpt lat="42.89179" lon="0.62154">
        <ele>549</ele>
        <time>2022-08-28T07:26:48.000Z</time>
      </trkpt>
      <trkpt lat="42.89192" lon="0.6215">
        <ele>549</ele>
        <time>2022-08-28T07:26:50.000Z</time>
      </trkpt>
      <trkpt lat="42.89287" lon="0.62091">
        <ele>560</ele>
        <time>2022-08-28T07:27:09.000Z</time>
      </trkpt>
      <trkpt lat="42.89305" lon="0.62084">
        <ele>563</ele>
        <time>2022-08-28T07:27:12.000Z</time>
      </trkpt>
      <trkpt lat="42.89435" lon="0.62168">
        <ele>547</ele>
        <time>2022-08-28T07:27:38.000Z</time>
      </trkpt>
      <trkpt lat="42.89485" lon="0.62208">
        <ele>549</ele>
        <time>2022-08-28T07:27:48.000Z</time>
      </trkpt>
      <trkpt lat="42.89545" lon="0.62286">
        <ele>547</ele>
        <time>2022-08-28T07:28:03.000Z</time>
      </trkpt>
      <trkpt lat="42.8957" lon="0.62314">
        <ele>545</ele>
        <time>2022-08-28T07:28:09.000Z</time>
      </trkpt>
      <trkpt lat="42.89776" lon="0.62509">
        <ele>544</ele>
        <time>2022-08-28T07:28:53.000Z</time>
      </trkpt>
      <trkpt lat="42.8979" lon="0.62528">
        <ele>545</ele>
        <time>2022-08-28T07:28:57.000Z</time>
      </trkpt>
      <trkpt lat="42.8979" lon="0.62555">
        <ele>543</ele>
        <time>2022-08-28T07:29:00.000Z</time>
      </trkpt>
      <trkpt lat="42.89796" lon="0.62578">
        <ele>541</ele>
        <time>2022-08-28T07:29:04.000Z</time>
      </trkpt>
      <trkpt lat="42.89829" lon="0.62627">
        <ele>536</ele>
        <time>2022-08-28T07:29:12.000Z</time>
      </trkpt>
      <trkpt lat="42.89862" lon="0.62699">
        <ele>537</ele>
        <time>2022-08-28T07:29:23.000Z</time>
      </trkpt>
      <trkpt lat="42.89921" lon="0.62904">
        <ele>533</ele>
        <time>2022-08-28T07:29:52.000Z</time>
      </trkpt>
      <trkpt lat="42.89951" lon="0.62994">
        <ele>539</ele>
        <time>2022-08-28T07:30:05.000Z</time>
      </trkpt>
      <trkpt lat="42.89949" lon="0.63023">
        <ele>538</ele>
        <time>2022-08-28T07:30:09.000Z</time>
      </trkpt>
      <trkpt lat="42.89926" lon="0.63065">
        <ele>534</ele>
        <time>2022-08-28T07:30:16.000Z</time>
      </trkpt>
      <trkpt lat="42.89923" lon="0.63078">
        <ele>534</ele>
        <time>2022-08-28T07:30:17.000Z</time>
      </trkpt>
      <trkpt lat="42.89922" lon="0.63104">
        <ele>533</ele>
        <time>2022-08-28T07:30:21.000Z</time>
      </trkpt>
      <trkpt lat="42.89925" lon="0.63193">
        <ele>531</ele>
        <time>2022-08-28T07:30:32.000Z</time>
      </trkpt>
      <trkpt lat="42.89937" lon="0.63267">
        <ele>532</ele>
        <time>2022-08-28T07:30:42.000Z</time>
      </trkpt>
      <trkpt lat="42.89947" lon="0.63288">
        <ele>535</ele>
        <time>2022-08-28T07:30:46.000Z</time>
      </trkpt>
      <trkpt lat="42.89963" lon="0.63303">
        <ele>535</ele>
        <time>2022-08-28T07:30:49.000Z</time>
      </trkpt>
      <trkpt lat="42.8999" lon="0.63321">
        <ele>535</ele>
        <time>2022-08-28T07:30:54.000Z</time>
      </trkpt>
      <trkpt lat="42.90001" lon="0.63322">
        <ele>534</ele>
        <time>2022-08-28T07:30:56.000Z</time>
      </trkpt>
      <trkpt lat="42.90067" lon="0.63342">
        <ele>532</ele>
        <time>2022-08-28T07:31:08.000Z</time>
      </trkpt>
      <trkpt lat="42.90177" lon="0.63399">
        <ele>540</ele>
        <time>2022-08-28T07:31:29.000Z</time>
      </trkpt>
      <trkpt lat="42.90198" lon="0.63402">
        <ele>539</ele>
        <time>2022-08-28T07:31:33.000Z</time>
      </trkpt>
      <trkpt lat="42.90219" lon="0.634">
        <ele>537</ele>
        <time>2022-08-28T07:31:37.000Z</time>
      </trkpt>
      <trkpt lat="42.90236" lon="0.63391">
        <ele>533</ele>
        <time>2022-08-28T07:31:40.000Z</time>
      </trkpt>
      <trkpt lat="42.90303" lon="0.63313">
        <ele>522</ele>
        <time>2022-08-28T07:31:56.000Z</time>
      </trkpt>
      <trkpt lat="42.90319" lon="0.63299">
        <ele>521</ele>
        <time>2022-08-28T07:31:59.000Z</time>
      </trkpt>
      <trkpt lat="42.90337" lon="0.63288">
        <ele>520</ele>
        <time>2022-08-28T07:32:03.000Z</time>
      </trkpt>
      <trkpt lat="42.90355" lon="0.63283">
        <ele>521</ele>
        <time>2022-08-28T07:32:06.000Z</time>
      </trkpt>
      <trkpt lat="42.90389" lon="0.63284">
        <ele>522</ele>
        <time>2022-08-28T07:32:12.000Z</time>
      </trkpt>
      <trkpt lat="42.90411" lon="0.63294">
        <ele>522</ele>
        <time>2022-08-28T07:32:16.000Z</time>
      </trkpt>
      <trkpt lat="42.90446" lon="0.63328">
        <ele>519</ele>
        <time>2022-08-28T07:32:24.000Z</time>
      </trkpt>
      <trkpt lat="42.90458" lon="0.63346">
        <ele>519</ele>
        <time>2022-08-28T07:32:27.000Z</time>
      </trkpt>
      <trkpt lat="42.90494" lon="0.63424">
        <ele>519</ele>
        <time>2022-08-28T07:32:39.000Z</time>
      </trkpt>
      <trkpt lat="42.90537" lon="0.6349">
        <ele>522</ele>
        <time>2022-08-28T07:32:51.000Z</time>
      </trkpt>
      <trkpt lat="42.90564" lon="0.63518">
        <ele>521</ele>
        <time>2022-08-28T07:32:57.000Z</time>
      </trkpt>
      <trkpt lat="42.90666" lon="0.63599">
        <ele>510</ele>
        <time>2022-08-28T07:33:18.000Z</time>
      </trkpt>
      <trkpt lat="42.90828" lon="0.63684">
        <ele>510</ele>
        <time>2022-08-28T07:33:49.000Z</time>
      </trkpt>
      <trkpt lat="42.90964" lon="0.63791">
        <ele>509</ele>
        <time>2022-08-28T07:34:17.000Z</time>
      </trkpt>
      <trkpt lat="42.90975" lon="0.63798">
        <ele>507</ele>
        <time>2022-08-28T07:34:19.000Z</time>
      </trkpt>
      <trkpt lat="42.9108" lon="0.63937">
        <ele>501</ele>
        <time>2022-08-28T07:34:45.000Z</time>
      </trkpt>
      <trkpt lat="42.91131" lon="0.64042">
        <ele>500</ele>
        <time>2022-08-28T07:35:01.000Z</time>
      </trkpt>
      <trkpt lat="42.91173" lon="0.64166">
        <ele>493</ele>
        <time>2022-08-28T07:35:19.000Z</time>
      </trkpt>
      <trkpt lat="42.91211" lon="0.64294">
        <ele>493</ele>
        <time>2022-08-28T07:35:37.000Z</time>
      </trkpt>
      <trkpt lat="42.91243" lon="0.64421">
        <ele>496</ele>
        <time>2022-08-28T07:35:55.000Z</time>
      </trkpt>
      <trkpt lat="42.91271" lon="0.64587">
        <ele>489</ele>
        <time>2022-08-28T07:36:17.000Z</time>
      </trkpt>
      <trkpt lat="42.91289" lon="0.6463">
        <ele>487</ele>
        <time>2022-08-28T07:36:23.000Z</time>
      </trkpt>
      <trkpt lat="42.91321" lon="0.64678">
        <ele>485</ele>
        <time>2022-08-28T07:36:32.000Z</time>
      </trkpt>
      <trkpt lat="42.91334" lon="0.64691">
        <ele>485</ele>
        <time>2022-08-28T07:36:35.000Z</time>
      </trkpt>
      <trkpt lat="42.91427" lon="0.64751">
        <ele>485</ele>
        <time>2022-08-28T07:36:53.000Z</time>
      </trkpt>
      <trkpt lat="42.9143" lon="0.6476">
        <ele>485</ele>
        <time>2022-08-28T07:36:54.000Z</time>
      </trkpt>
      <trkpt lat="42.9144" lon="0.64761">
        <ele>485</ele>
        <time>2022-08-28T07:36:56.000Z</time>
      </trkpt>
      <trkpt lat="42.91448" lon="0.6475">
        <ele>485</ele>
        <time>2022-08-28T07:36:58.000Z</time>
      </trkpt>
      <trkpt lat="42.91497" lon="0.64742">
        <ele>484</ele>
        <time>2022-08-28T07:37:07.000Z</time>
      </trkpt>
      <trkpt lat="42.91769" lon="0.64724">
        <ele>488</ele>
        <time>2022-08-28T07:37:55.000Z</time>
      </trkpt>
      <trkpt lat="42.91935" lon="0.6471">
        <ele>487</ele>
        <time>2022-08-28T07:38:25.000Z</time>
      </trkpt>
      <trkpt lat="42.9204" lon="0.6471">
        <ele>486</ele>
        <time>2022-08-28T07:38:44.000Z</time>
      </trkpt>
      <trkpt lat="42.9207" lon="0.64715">
        <ele>485</ele>
        <time>2022-08-28T07:38:49.000Z</time>
      </trkpt>
      <trkpt lat="42.92129" lon="0.64735">
        <ele>485</ele>
        <time>2022-08-28T07:39:00.000Z</time>
      </trkpt>
      <trkpt lat="42.92179" lon="0.64759">
        <ele>486</ele>
        <time>2022-08-28T07:39:09.000Z</time>
      </trkpt>
      <trkpt lat="42.92437" lon="0.64922">
        <ele>483</ele>
        <time>2022-08-28T07:40:00.000Z</time>
      </trkpt>
      <trkpt lat="42.92517" lon="0.64966">
        <ele>482</ele>
        <time>2022-08-28T07:40:15.000Z</time>
      </trkpt>
      <trkpt lat="42.92662" lon="0.65035">
        <ele>482</ele>
        <time>2022-08-28T07:40:43.000Z</time>
      </trkpt>
      <trkpt lat="42.92772" lon="0.65083">
        <ele>479</ele>
        <time>2022-08-28T07:41:03.000Z</time>
      </trkpt>
      <trkpt lat="42.92834" lon="0.651">
        <ele>480</ele>
        <time>2022-08-28T07:41:14.000Z</time>
      </trkpt>
      <trkpt lat="42.92927" lon="0.65096">
        <ele>479</ele>
        <time>2022-08-28T07:41:31.000Z</time>
      </trkpt>
      <trkpt lat="42.93341" lon="0.64922">
        <ele>488</ele>
        <time>2022-08-28T07:42:48.000Z</time>
      </trkpt>
      <trkpt lat="42.93387" lon="0.64895">
        <ele>492</ele>
        <time>2022-08-28T07:42:57.000Z</time>
      </trkpt>
      <trkpt lat="42.93461" lon="0.64843">
        <ele>491</ele>
        <time>2022-08-28T07:43:12.000Z</time>
      </trkpt>
      <trkpt lat="42.93523" lon="0.64792">
        <ele>483</ele>
        <time>2022-08-28T07:43:25.000Z</time>
      </trkpt>
      <trkpt lat="42.93701" lon="0.6462">
        <ele>478</ele>
        <time>2022-08-28T07:44:04.000Z</time>
      </trkpt>
      <trkpt lat="42.93738" lon="0.64581">
        <ele>478</ele>
        <time>2022-08-28T07:44:12.000Z</time>
      </trkpt>
      <trkpt lat="42.93809" lon="0.64541">
        <ele>478</ele>
        <time>2022-08-28T07:44:26.000Z</time>
      </trkpt>
      <trkpt lat="42.93828" lon="0.64536">
        <ele>477</ele>
        <time>2022-08-28T07:44:29.000Z</time>
      </trkpt>
      <trkpt lat="42.93837" lon="0.64563">
        <ele>475</ele>
        <time>2022-08-28T07:44:33.000Z</time>
      </trkpt>
      <trkpt lat="42.93876" lon="0.64806">
        <ele>472</ele>
        <time>2022-08-28T07:45:05.000Z</time>
      </trkpt>
      <trkpt lat="42.93866" lon="0.64845">
        <ele>473</ele>
        <time>2022-08-28T07:45:11.000Z</time>
      </trkpt>
      <trkpt lat="42.93864" lon="0.64862">
        <ele>473</ele>
        <time>2022-08-28T07:45:13.000Z</time>
      </trkpt>
      <trkpt lat="42.93868" lon="0.64876">
        <ele>474</ele>
        <time>2022-08-28T07:45:15.000Z</time>
      </trkpt>
      <trkpt lat="42.93882" lon="0.64887">
        <ele>474</ele>
        <time>2022-08-28T07:45:18.000Z</time>
      </trkpt>
      <trkpt lat="42.93904" lon="0.64978">
        <ele>474</ele>
        <time>2022-08-28T07:45:31.000Z</time>
      </trkpt>
      <trkpt lat="42.9392" lon="0.65077">
        <ele>472</ele>
        <time>2022-08-28T07:45:44.000Z</time>
      </trkpt>
      <trkpt lat="42.93912" lon="0.6513">
        <ele>475</ele>
        <time>2022-08-28T07:45:51.000Z</time>
      </trkpt>
      <trkpt lat="42.9392" lon="0.65137">
        <ele>476</ele>
        <time>2022-08-28T07:45:53.000Z</time>
      </trkpt>
      <trkpt lat="42.93938" lon="0.6514">
        <ele>476</ele>
        <time>2022-08-28T07:45:56.000Z</time>
      </trkpt>
      <trkpt lat="42.93957" lon="0.65137">
        <ele>475</ele>
        <time>2022-08-28T07:45:59.000Z</time>
      </trkpt>
      <trkpt lat="42.94403" lon="0.64949">
        <ele>472</ele>
        <time>2022-08-28T07:47:22.000Z</time>
      </trkpt>
      <trkpt lat="42.94811" lon="0.6484">
        <ele>469</ele>
        <time>2022-08-28T07:48:36.000Z</time>
      </trkpt>
      <trkpt lat="42.94855" lon="0.6483">
        <ele>469</ele>
        <time>2022-08-28T07:48:44.000Z</time>
      </trkpt>
      <trkpt lat="42.94887" lon="0.64827">
        <ele>471</ele>
        <time>2022-08-28T07:48:50.000Z</time>
      </trkpt>
      <trkpt lat="42.95128" lon="0.64835">
        <ele>470</ele>
        <time>2022-08-28T07:49:33.000Z</time>
      </trkpt>
      <trkpt lat="42.95159" lon="0.64844">
        <ele>470</ele>
        <time>2022-08-28T07:49:39.000Z</time>
      </trkpt>
      <trkpt lat="42.95343" lon="0.64923">
        <ele>470</ele>
        <time>2022-08-28T07:50:13.000Z</time>
      </trkpt>
      <trkpt lat="42.95359" lon="0.64928">
        <ele>469</ele>
        <time>2022-08-28T07:50:16.000Z</time>
      </trkpt>
      <trkpt lat="42.96031" lon="0.6563">
        <ele>463</ele>
        <time>2022-08-28T07:52:46.000Z</time>
      </trkpt>
      <trkpt lat="42.96339" lon="0.65952">
        <ele>482</ele>
        <time>2022-08-28T07:53:55.000Z</time>
      </trkpt>
      <trkpt lat="42.9637" lon="0.65978">
        <ele>485</ele>
        <time>2022-08-28T07:54:02.000Z</time>
      </trkpt>
      <trkpt lat="42.96427" lon="0.66003">
        <ele>486</ele>
        <time>2022-08-28T07:54:13.000Z</time>
      </trkpt>
      <trkpt lat="42.96516" lon="0.66047">
        <ele>491</ele>
        <time>2022-08-28T07:54:29.000Z</time>
      </trkpt>
      <trkpt lat="42.96567" lon="0.66081">
        <ele>495</ele>
        <time>2022-08-28T07:54:40.000Z</time>
      </trkpt>
      <trkpt lat="42.96579" lon="0.66086">
        <ele>495</ele>
        <time>2022-08-28T07:54:42.000Z</time>
      </trkpt>
      <trkpt lat="42.96604" lon="0.66091">
        <ele>498</ele>
        <time>2022-08-28T07:54:46.000Z</time>
      </trkpt>
      <trkpt lat="42.96686" lon="0.66075">
        <ele>499</ele>
        <time>2022-08-28T07:55:01.000Z</time>
      </trkpt>
      <trkpt lat="42.96776" lon="0.66082">
        <ele>503</ele>
        <time>2022-08-28T07:55:17.000Z</time>
      </trkpt>
      <trkpt lat="42.96832" lon="0.66074">
        <ele>500</ele>
        <time>2022-08-28T07:55:27.000Z</time>
      </trkpt>
      <trkpt lat="42.96877" lon="0.66095">
        <ele>507</ele>
        <time>2022-08-28T07:55:36.000Z</time>
      </trkpt>
      <trkpt lat="42.96898" lon="0.66101">
        <ele>511</ele>
        <time>2022-08-28T07:55:39.000Z</time>
      </trkpt>
      <trkpt lat="42.96979" lon="0.6609">
        <ele>512</ele>
        <time>2022-08-28T07:55:54.000Z</time>
      </trkpt>
      <trkpt lat="42.97001" lon="0.6609">
        <ele>513</ele>
        <time>2022-08-28T07:55:58.000Z</time>
      </trkpt>
      <trkpt lat="42.97098" lon="0.66114">
        <ele>524</ele>
        <time>2022-08-28T07:56:15.000Z</time>
      </trkpt>
      <trkpt lat="42.97127" lon="0.66111">
        <ele>527</ele>
        <time>2022-08-28T07:56:21.000Z</time>
      </trkpt>
      <trkpt lat="42.97162" lon="0.66093">
        <ele>527</ele>
        <time>2022-08-28T07:56:27.000Z</time>
      </trkpt>
      <trkpt lat="42.97185" lon="0.66085">
        <ele>528</ele>
        <time>2022-08-28T07:56:31.000Z</time>
      </trkpt>
      <trkpt lat="42.97245" lon="0.66082">
        <ele>536</ele>
        <time>2022-08-28T07:56:42.000Z</time>
      </trkpt>
      <trkpt lat="42.97263" lon="0.66076">
        <ele>538</ele>
        <time>2022-08-28T07:56:45.000Z</time>
      </trkpt>
      <trkpt lat="42.97278" lon="0.66066">
        <ele>538</ele>
        <time>2022-08-28T07:56:48.000Z</time>
      </trkpt>
      <trkpt lat="42.97294" lon="0.66042">
        <ele>537</ele>
        <time>2022-08-28T07:56:53.000Z</time>
      </trkpt>
      <trkpt lat="42.97304" lon="0.65968">
        <ele>528</ele>
        <time>2022-08-28T07:57:03.000Z</time>
      </trkpt>
      <trkpt lat="42.97315" lon="0.65959">
        <ele>528</ele>
        <time>2022-08-28T07:57:05.000Z</time>
      </trkpt>
      <trkpt lat="42.97454" lon="0.65944">
        <ele>543</ele>
        <time>2022-08-28T07:57:30.000Z</time>
      </trkpt>
      <trkpt lat="42.97471" lon="0.65937">
        <ele>544</ele>
        <time>2022-08-28T07:57:33.000Z</time>
      </trkpt>
      <trkpt lat="42.97583" lon="0.65847">
        <ele>545</ele>
        <time>2022-08-28T07:57:56.000Z</time>
      </trkpt>
      <trkpt lat="42.97596" lon="0.65849">
        <ele>547</ele>
        <time>2022-08-28T07:57:59.000Z</time>
      </trkpt>
      <trkpt lat="42.97613" lon="0.65869">
        <ele>552</ele>
        <time>2022-08-28T07:58:03.000Z</time>
      </trkpt>
      <trkpt lat="42.97615" lon="0.65886">
        <ele>554</ele>
        <time>2022-08-28T07:58:05.000Z</time>
      </trkpt>
      <trkpt lat="42.97593" lon="0.65928">
        <ele>556</ele>
        <time>2022-08-28T07:58:12.000Z</time>
      </trkpt>
      <trkpt lat="42.97589" lon="0.65938">
        <ele>556</ele>
        <time>2022-08-28T07:58:13.000Z</time>
      </trkpt>
      <trkpt lat="42.97592" lon="0.65986">
        <ele>560</ele>
        <time>2022-08-28T07:58:20.000Z</time>
      </trkpt>
      <trkpt lat="42.9759" lon="0.66007">
        <ele>562</ele>
        <time>2022-08-28T07:58:22.000Z</time>
      </trkpt>
      <trkpt lat="42.97579" lon="0.66023">
        <ele>562</ele>
        <time>2022-08-28T07:58:25.000Z</time>
      </trkpt>
      <trkpt lat="42.97567" lon="0.6603">
        <ele>562</ele>
        <time>2022-08-28T07:58:27.000Z</time>
      </trkpt>
      <trkpt lat="42.97502" lon="0.6605">
        <ele>559</ele>
        <time>2022-08-28T07:58:39.000Z</time>
      </trkpt>
      <trkpt lat="42.97467" lon="0.66064">
        <ele>558</ele>
        <time>2022-08-28T07:58:46.000Z</time>
      </trkpt>
      <trkpt lat="42.97445" lon="0.66094">
        <ele>560</ele>
        <time>2022-08-28T07:58:52.000Z</time>
      </trkpt>
      <trkpt lat="42.97445" lon="0.66103">
        <ele>562</ele>
        <time>2022-08-28T07:58:53.000Z</time>
      </trkpt>
      <trkpt lat="42.97458" lon="0.66126">
        <ele>567</ele>
        <time>2022-08-28T07:58:57.000Z</time>
      </trkpt>
      <trkpt lat="42.97468" lon="0.66129">
        <ele>568</ele>
        <time>2022-08-28T07:58:58.000Z</time>
      </trkpt>
      <trkpt lat="42.97536" lon="0.66116">
        <ele>569</ele>
        <time>2022-08-28T07:59:11.000Z</time>
      </trkpt>
      <trkpt lat="42.97612" lon="0.66129">
        <ele>575</ele>
        <time>2022-08-28T07:59:24.000Z</time>
      </trkpt>
      <trkpt lat="42.9762" lon="0.66127">
        <ele>575</ele>
        <time>2022-08-28T07:59:26.000Z</time>
      </trkpt>
      <trkpt lat="42.97631" lon="0.66118">
        <ele>575</ele>
        <time>2022-08-28T07:59:28.000Z</time>
      </trkpt>
      <trkpt lat="42.97652" lon="0.66085">
        <ele>575</ele>
        <time>2022-08-28T07:59:34.000Z</time>
      </trkpt>
      <trkpt lat="42.9766" lon="0.66077">
        <ele>575</ele>
        <time>2022-08-28T07:59:35.000Z</time>
      </trkpt>
      <trkpt lat="42.97718" lon="0.66064">
        <ele>579</ele>
        <time>2022-08-28T07:59:46.000Z</time>
      </trkpt>
      <trkpt lat="42.97737" lon="0.66072">
        <ele>580</ele>
        <time>2022-08-28T07:59:50.000Z</time>
      </trkpt>
      <trkpt lat="42.97751" lon="0.66086">
        <ele>580</ele>
        <time>2022-08-28T07:59:53.000Z</time>
      </trkpt>
      <trkpt lat="42.97762" lon="0.66104">
        <ele>581</ele>
        <time>2022-08-28T07:59:56.000Z</time>
      </trkpt>
      <trkpt lat="42.97766" lon="0.66124">
        <ele>581</ele>
        <time>2022-08-28T07:59:58.000Z</time>
      </trkpt>
      <trkpt lat="42.97763" lon="0.66154">
        <ele>581</ele>
        <time>2022-08-28T08:00:02.000Z</time>
      </trkpt>
      <trkpt lat="42.97697" lon="0.6635">
        <ele>592</ele>
        <time>2022-08-28T08:00:30.000Z</time>
      </trkpt>
      <trkpt lat="42.97619" lon="0.66526">
        <ele>599</ele>
        <time>2022-08-28T08:00:57.000Z</time>
      </trkpt>
      <trkpt lat="42.97276" lon="0.66821">
        <ele>607</ele>
        <time>2022-08-28T08:02:09.000Z</time>
      </trkpt>
      <trkpt lat="42.9726" lon="0.66832">
        <ele>608</ele>
        <time>2022-08-28T08:02:13.000Z</time>
      </trkpt>
      <trkpt lat="42.97226" lon="0.66827">
        <ele>616</ele>
        <time>2022-08-28T08:02:19.000Z</time>
      </trkpt>
      <trkpt lat="42.97218" lon="0.66819">
        <ele>618</ele>
        <time>2022-08-28T08:02:20.000Z</time>
      </trkpt>
      <trkpt lat="42.97196" lon="0.66772">
        <ele>618</ele>
        <time>2022-08-28T08:02:28.000Z</time>
      </trkpt>
      <trkpt lat="42.97187" lon="0.66756">
        <ele>618</ele>
        <time>2022-08-28T08:02:30.000Z</time>
      </trkpt>
      <trkpt lat="42.97102" lon="0.66635">
        <ele>611</ele>
        <time>2022-08-28T08:02:52.000Z</time>
      </trkpt>
      <trkpt lat="42.97086" lon="0.66618">
        <ele>609</ele>
        <time>2022-08-28T08:02:56.000Z</time>
      </trkpt>
      <trkpt lat="42.97073" lon="0.66616">
        <ele>610</ele>
        <time>2022-08-28T08:02:58.000Z</time>
      </trkpt>
      <trkpt lat="42.97062" lon="0.66622">
        <ele>613</ele>
        <time>2022-08-28T08:03:00.000Z</time>
      </trkpt>
      <trkpt lat="42.97053" lon="0.66641">
        <ele>619</ele>
        <time>2022-08-28T08:03:03.000Z</time>
      </trkpt>
      <trkpt lat="42.97055" lon="0.66659">
        <ele>623</ele>
        <time>2022-08-28T08:03:06.000Z</time>
      </trkpt>
      <trkpt lat="42.97162" lon="0.66774">
        <ele>628</ele>
        <time>2022-08-28T08:03:30.000Z</time>
      </trkpt>
      <trkpt lat="42.97169" lon="0.66787">
        <ele>628</ele>
        <time>2022-08-28T08:03:32.000Z</time>
      </trkpt>
      <trkpt lat="42.97181" lon="0.66881">
        <ele>640</ele>
        <time>2022-08-28T08:03:45.000Z</time>
      </trkpt>
      <trkpt lat="42.97184" lon="0.66902">
        <ele>643</ele>
        <time>2022-08-28T08:03:47.000Z</time>
      </trkpt>
      <trkpt lat="42.97227" lon="0.66953">
        <ele>640</ele>
        <time>2022-08-28T08:03:58.000Z</time>
      </trkpt>
      <trkpt lat="42.97242" lon="0.66975">
        <ele>640</ele>
        <time>2022-08-28T08:04:02.000Z</time>
      </trkpt>
      <trkpt lat="42.97249" lon="0.6702">
        <ele>650</ele>
        <time>2022-08-28T08:04:08.000Z</time>
      </trkpt>
      <trkpt lat="42.97255" lon="0.67035">
        <ele>654</ele>
        <time>2022-08-28T08:04:10.000Z</time>
      </trkpt>
      <trkpt lat="42.97344" lon="0.67067">
        <ele>651</ele>
        <time>2022-08-28T08:04:26.000Z</time>
      </trkpt>
      <trkpt lat="42.97402" lon="0.67068">
        <ele>652</ele>
        <time>2022-08-28T08:04:37.000Z</time>
      </trkpt>
      <trkpt lat="42.97435" lon="0.67078">
        <ele>654</ele>
        <time>2022-08-28T08:04:43.000Z</time>
      </trkpt>
      <trkpt lat="42.97484" lon="0.67109">
        <ele>660</ele>
        <time>2022-08-28T08:04:52.000Z</time>
      </trkpt>
      <trkpt lat="42.97539" lon="0.6713">
        <ele>660</ele>
        <time>2022-08-28T08:05:02.000Z</time>
      </trkpt>
      <trkpt lat="42.97648" lon="0.67221">
        <ele>678</ele>
        <time>2022-08-28T08:05:25.000Z</time>
      </trkpt>
      <trkpt lat="42.97676" lon="0.67214">
        <ele>676</ele>
        <time>2022-08-28T08:05:30.000Z</time>
      </trkpt>
      <trkpt lat="42.97707" lon="0.67207">
        <ele>674</ele>
        <time>2022-08-28T08:05:36.000Z</time>
      </trkpt>
      <trkpt lat="42.97728" lon="0.67211">
        <ele>676</ele>
        <time>2022-08-28T08:05:40.000Z</time>
      </trkpt>
      <trkpt lat="42.97752" lon="0.67225">
        <ele>679</ele>
        <time>2022-08-28T08:05:44.000Z</time>
      </trkpt>
      <trkpt lat="42.97786" lon="0.67256">
        <ele>680</ele>
        <time>2022-08-28T08:05:51.000Z</time>
      </trkpt>
      <trkpt lat="42.97832" lon="0.67309">
        <ele>687</ele>
        <time>2022-08-28T08:06:02.000Z</time>
      </trkpt>
      <trkpt lat="42.97972" lon="0.67535">
        <ele>704</ele>
        <time>2022-08-28T08:06:41.000Z</time>
      </trkpt>
      <trkpt lat="42.98003" lon="0.67578">
        <ele>704</ele>
        <time>2022-08-28T08:06:49.000Z</time>
      </trkpt>
      <trkpt lat="42.98037" lon="0.67618">
        <ele>706</ele>
        <time>2022-08-28T08:06:57.000Z</time>
      </trkpt>
      <trkpt lat="42.98058" lon="0.6764">
        <ele>706</ele>
        <time>2022-08-28T08:07:01.000Z</time>
      </trkpt>
      <trkpt lat="42.98152" lon="0.67702">
        <ele>702</ele>
        <time>2022-08-28T08:07:20.000Z</time>
      </trkpt>
      <trkpt lat="42.98188" lon="0.67735">
        <ele>702</ele>
        <time>2022-08-28T08:07:28.000Z</time>
      </trkpt>
      <trkpt lat="42.98198" lon="0.67751">
        <ele>704</ele>
        <time>2022-08-28T08:07:30.000Z</time>
      </trkpt>
      <trkpt lat="42.98211" lon="0.67783">
        <ele>706</ele>
        <time>2022-08-28T08:07:35.000Z</time>
      </trkpt>
      <trkpt lat="42.98213" lon="0.67858">
        <ele>718</ele>
        <time>2022-08-28T08:07:45.000Z</time>
      </trkpt>
      <trkpt lat="42.98216" lon="0.67903">
        <ele>725</ele>
        <time>2022-08-28T08:07:51.000Z</time>
      </trkpt>
      <trkpt lat="42.9823" lon="0.67955">
        <ele>732</ele>
        <time>2022-08-28T08:07:58.000Z</time>
      </trkpt>
      <trkpt lat="42.98242" lon="0.67975">
        <ele>732</ele>
        <time>2022-08-28T08:08:01.000Z</time>
      </trkpt>
      <trkpt lat="42.98256" lon="0.67988">
        <ele>732</ele>
        <time>2022-08-28T08:08:04.000Z</time>
      </trkpt>
      <trkpt lat="42.9828" lon="0.67995">
        <ele>731</ele>
        <time>2022-08-28T08:08:09.000Z</time>
      </trkpt>
      <trkpt lat="42.98316" lon="0.67985">
        <ele>723</ele>
        <time>2022-08-28T08:08:15.000Z</time>
      </trkpt>
      <trkpt lat="42.98322" lon="0.67986">
        <ele>722</ele>
        <time>2022-08-28T08:08:16.000Z</time>
      </trkpt>
      <trkpt lat="42.98386" lon="0.68021">
        <ele>725</ele>
        <time>2022-08-28T08:08:29.000Z</time>
      </trkpt>
      <trkpt lat="42.98403" lon="0.68032">
        <ele>727</ele>
        <time>2022-08-28T08:08:32.000Z</time>
      </trkpt>
      <trkpt lat="42.98443" lon="0.68069">
        <ele>729</ele>
        <time>2022-08-28T08:08:41.000Z</time>
      </trkpt>
      <trkpt lat="42.98472" lon="0.68105">
        <ele>730</ele>
        <time>2022-08-28T08:08:48.000Z</time>
      </trkpt>
      <trkpt lat="42.98516" lon="0.68187">
        <ele>736</ele>
        <time>2022-08-28T08:09:01.000Z</time>
      </trkpt>
      <trkpt lat="42.9853" lon="0.68221">
        <ele>736</ele>
        <time>2022-08-28T08:09:06.000Z</time>
      </trkpt>
      <trkpt lat="42.9855" lon="0.68316">
        <ele>740</ele>
        <time>2022-08-28T08:09:19.000Z</time>
      </trkpt>
      <trkpt lat="42.98543" lon="0.68373">
        <ele>751</ele>
        <time>2022-08-28T08:09:26.000Z</time>
      </trkpt>
      <trkpt lat="42.98544" lon="0.68389">
        <ele>753</ele>
        <time>2022-08-28T08:09:28.000Z</time>
      </trkpt>
      <trkpt lat="42.98563" lon="0.68419">
        <ele>750</ele>
        <time>2022-08-28T08:09:34.000Z</time>
      </trkpt>
      <trkpt lat="42.98647" lon="0.68503">
        <ele>751</ele>
        <time>2022-08-28T08:09:52.000Z</time>
      </trkpt>
      <trkpt lat="42.9869" lon="0.68573">
        <ele>758</ele>
        <time>2022-08-28T08:10:04.000Z</time>
      </trkpt>
      <trkpt lat="42.98703" lon="0.68606">
        <ele>760</ele>
        <time>2022-08-28T08:10:09.000Z</time>
      </trkpt>
      <trkpt lat="42.98738" lon="0.68774">
        <ele>768</ele>
        <time>2022-08-28T08:10:32.000Z</time>
      </trkpt>
      <trkpt lat="42.9874" lon="0.68797">
        <ele>768</ele>
        <time>2022-08-28T08:10:35.000Z</time>
      </trkpt>
      <trkpt lat="42.98726" lon="0.68871">
        <ele>779</ele>
        <time>2022-08-28T08:10:45.000Z</time>
      </trkpt>
      <trkpt lat="42.98728" lon="0.68896">
        <ele>781</ele>
        <time>2022-08-28T08:10:48.000Z</time>
      </trkpt>
      <trkpt lat="42.98737" lon="0.68912">
        <ele>779</ele>
        <time>2022-08-28T08:10:51.000Z</time>
      </trkpt>
      <trkpt lat="42.98768" lon="0.68931">
        <ele>776</ele>
        <time>2022-08-28T08:10:57.000Z</time>
      </trkpt>
      <trkpt lat="42.98805" lon="0.68936">
        <ele>771</ele>
        <time>2022-08-28T08:11:03.000Z</time>
      </trkpt>
      <trkpt lat="42.98825" lon="0.68951">
        <ele>772</ele>
        <time>2022-08-28T08:11:07.000Z</time>
      </trkpt>
      <trkpt lat="42.9884" lon="0.68978">
        <ele>776</ele>
        <time>2022-08-28T08:11:12.000Z</time>
      </trkpt>
      <trkpt lat="42.98875" lon="0.69072">
        <ele>782</ele>
        <time>2022-08-28T08:11:26.000Z</time>
      </trkpt>
      <trkpt lat="42.98895" lon="0.69144">
        <ele>783</ele>
        <time>2022-08-28T08:11:36.000Z</time>
      </trkpt>
      <trkpt lat="42.98877" lon="0.69224">
        <ele>793</ele>
        <time>2022-08-28T08:11:47.000Z</time>
      </trkpt>
      <trkpt lat="42.98884" lon="0.69256">
        <ele>794</ele>
        <time>2022-08-28T08:11:51.000Z</time>
      </trkpt>
      <trkpt lat="42.98935" lon="0.69342">
        <ele>802</ele>
        <time>2022-08-28T08:12:05.000Z</time>
      </trkpt>
      <trkpt lat="42.98942" lon="0.69349">
        <ele>803</ele>
        <time>2022-08-28T08:12:07.000Z</time>
      </trkpt>
      <trkpt lat="42.98958" lon="0.69356">
        <ele>805</ele>
        <time>2022-08-28T08:12:10.000Z</time>
      </trkpt>
      <trkpt lat="42.98965" lon="0.69356">
        <ele>805</ele>
        <time>2022-08-28T08:12:11.000Z</time>
      </trkpt>
      <trkpt lat="42.99012" lon="0.69328">
        <ele>802</ele>
        <time>2022-08-28T08:12:20.000Z</time>
      </trkpt>
      <trkpt lat="42.99023" lon="0.69326">
        <ele>803</ele>
        <time>2022-08-28T08:12:22.000Z</time>
      </trkpt>
      <trkpt lat="42.99037" lon="0.69328">
        <ele>805</ele>
        <time>2022-08-28T08:12:25.000Z</time>
      </trkpt>
      <trkpt lat="42.9905" lon="0.69335">
        <ele>807</ele>
        <time>2022-08-28T08:12:27.000Z</time>
      </trkpt>
      <trkpt lat="42.9908" lon="0.69363">
        <ele>810</ele>
        <time>2022-08-28T08:12:34.000Z</time>
      </trkpt>
      <trkpt lat="42.99097" lon="0.69387">
        <ele>810</ele>
        <time>2022-08-28T08:12:38.000Z</time>
      </trkpt>
      <trkpt lat="42.99114" lon="0.69493">
        <ele>808</ele>
        <time>2022-08-28T08:12:52.000Z</time>
      </trkpt>
      <trkpt lat="42.99135" lon="0.69599">
        <ele>809</ele>
        <time>2022-08-28T08:13:07.000Z</time>
      </trkpt>
      <trkpt lat="42.99145" lon="0.69806">
        <ele>802</ele>
        <time>2022-08-28T08:13:34.000Z</time>
      </trkpt>
      <trkpt lat="42.99156" lon="0.69871">
        <ele>795</ele>
        <time>2022-08-28T08:13:42.000Z</time>
      </trkpt>
      <trkpt lat="42.99142" lon="0.69943">
        <ele>795</ele>
        <time>2022-08-28T08:13:52.000Z</time>
      </trkpt>
      <trkpt lat="42.99141" lon="0.69976">
        <ele>794</ele>
        <time>2022-08-28T08:13:56.000Z</time>
      </trkpt>
      <trkpt lat="42.99161" lon="0.70227">
        <ele>767</ele>
        <time>2022-08-28T08:14:29.000Z</time>
      </trkpt>
      <trkpt lat="42.99157" lon="0.70249">
        <ele>765</ele>
        <time>2022-08-28T08:14:32.000Z</time>
      </trkpt>
      <trkpt lat="42.99148" lon="0.70267">
        <ele>765</ele>
        <time>2022-08-28T08:14:35.000Z</time>
      </trkpt>
      <trkpt lat="42.99139" lon="0.70277">
        <ele>767</ele>
        <time>2022-08-28T08:14:37.000Z</time>
      </trkpt>
      <trkpt lat="42.99096" lon="0.70309">
        <ele>776</ele>
        <time>2022-08-28T08:14:46.000Z</time>
      </trkpt>
      <trkpt lat="42.99083" lon="0.70326">
        <ele>777</ele>
        <time>2022-08-28T08:14:49.000Z</time>
      </trkpt>
      <trkpt lat="42.99079" lon="0.70396">
        <ele>769</ele>
        <time>2022-08-28T08:14:58.000Z</time>
      </trkpt>
      <trkpt lat="42.99077" lon="0.70416">
        <ele>767</ele>
        <time>2022-08-28T08:15:01.000Z</time>
      </trkpt>
      <trkpt lat="42.99041" lon="0.70479">
        <ele>776</ele>
        <time>2022-08-28T08:15:11.000Z</time>
      </trkpt>
      <trkpt lat="42.99036" lon="0.70498">
        <ele>776</ele>
        <time>2022-08-28T08:15:14.000Z</time>
      </trkpt>
      <trkpt lat="42.9903" lon="0.70625">
        <ele>764</ele>
        <time>2022-08-28T08:15:31.000Z</time>
      </trkpt>
      <trkpt lat="42.99014" lon="0.70696">
        <ele>763</ele>
        <time>2022-08-28T08:15:40.000Z</time>
      </trkpt>
      <trkpt lat="42.98994" lon="0.70753">
        <ele>760</ele>
        <time>2022-08-28T08:15:49.000Z</time>
      </trkpt>
      <trkpt lat="42.98983" lon="0.70776">
        <ele>758</ele>
        <time>2022-08-28T08:15:52.000Z</time>
      </trkpt>
      <trkpt lat="42.98941" lon="0.70834">
        <ele>761</ele>
        <time>2022-08-28T08:16:03.000Z</time>
      </trkpt>
      <trkpt lat="42.98928" lon="0.70872">
        <ele>758</ele>
        <time>2022-08-28T08:16:08.000Z</time>
      </trkpt>
      <trkpt lat="42.98921" lon="0.70914">
        <ele>751</ele>
        <time>2022-08-28T08:16:14.000Z</time>
      </trkpt>
      <trkpt lat="42.98921" lon="0.70946">
        <ele>749</ele>
        <time>2022-08-28T08:16:18.000Z</time>
      </trkpt>
      <trkpt lat="42.98936" lon="0.71077">
        <ele>734</ele>
        <time>2022-08-28T08:16:35.000Z</time>
      </trkpt>
      <trkpt lat="42.98933" lon="0.71128">
        <ele>729</ele>
        <time>2022-08-28T08:16:42.000Z</time>
      </trkpt>
      <trkpt lat="42.98925" lon="0.71165">
        <ele>728</ele>
        <time>2022-08-28T08:16:47.000Z</time>
      </trkpt>
      <trkpt lat="42.98895" lon="0.71245">
        <ele>724</ele>
        <time>2022-08-28T08:16:59.000Z</time>
      </trkpt>
      <trkpt lat="42.98868" lon="0.71281">
        <ele>724</ele>
        <time>2022-08-28T08:17:05.000Z</time>
      </trkpt>
      <trkpt lat="42.98851" lon="0.71288">
        <ele>726</ele>
        <time>2022-08-28T08:17:09.000Z</time>
      </trkpt>
      <trkpt lat="42.98789" lon="0.7128">
        <ele>727</ele>
        <time>2022-08-28T08:17:20.000Z</time>
      </trkpt>
      <trkpt lat="42.98771" lon="0.7128">
        <ele>726</ele>
        <time>2022-08-28T08:17:23.000Z</time>
      </trkpt>
      <trkpt lat="42.98727" lon="0.71291">
        <ele>720</ele>
        <time>2022-08-28T08:17:31.000Z</time>
      </trkpt>
      <trkpt lat="42.98646" lon="0.7129">
        <ele>710</ele>
        <time>2022-08-28T08:17:45.000Z</time>
      </trkpt>
      <trkpt lat="42.98626" lon="0.71285">
        <ele>707</ele>
        <time>2022-08-28T08:17:49.000Z</time>
      </trkpt>
      <trkpt lat="42.98514" lon="0.71215">
        <ele>704</ele>
        <time>2022-08-28T08:18:11.000Z</time>
      </trkpt>
      <trkpt lat="42.98495" lon="0.712">
        <ele>702</ele>
        <time>2022-08-28T08:18:15.000Z</time>
      </trkpt>
      <trkpt lat="42.98442" lon="0.71122">
        <ele>703</ele>
        <time>2022-08-28T08:18:29.000Z</time>
      </trkpt>
      <trkpt lat="42.98395" lon="0.71066">
        <ele>701</ele>
        <time>2022-08-28T08:18:40.000Z</time>
      </trkpt>
      <trkpt lat="42.98351" lon="0.71054">
        <ele>689</ele>
        <time>2022-08-28T08:18:48.000Z</time>
      </trkpt>
      <trkpt lat="42.98338" lon="0.71042">
        <ele>686</ele>
        <time>2022-08-28T08:18:51.000Z</time>
      </trkpt>
      <trkpt lat="42.98323" lon="0.70944">
        <ele>690</ele>
        <time>2022-08-28T08:19:04.000Z</time>
      </trkpt>
      <trkpt lat="42.98318" lon="0.70925">
        <ele>690</ele>
        <time>2022-08-28T08:19:07.000Z</time>
      </trkpt>
      <trkpt lat="42.98304" lon="0.70901">
        <ele>689</ele>
        <time>2022-08-28T08:19:11.000Z</time>
      </trkpt>
      <trkpt lat="42.98289" lon="0.70883">
        <ele>687</ele>
        <time>2022-08-28T08:19:14.000Z</time>
      </trkpt>
      <trkpt lat="42.98245" lon="0.7085">
        <ele>676</ele>
        <time>2022-08-28T08:19:23.000Z</time>
      </trkpt>
      <trkpt lat="42.98228" lon="0.70823">
        <ele>673</ele>
        <time>2022-08-28T08:19:28.000Z</time>
      </trkpt>
      <trkpt lat="42.98213" lon="0.70691">
        <ele>683</ele>
        <time>2022-08-28T08:19:45.000Z</time>
      </trkpt>
      <trkpt lat="42.98208" lon="0.70671">
        <ele>684</ele>
        <time>2022-08-28T08:19:48.000Z</time>
      </trkpt>
      <trkpt lat="42.98197" lon="0.70656">
        <ele>683</ele>
        <time>2022-08-28T08:19:51.000Z</time>
      </trkpt>
      <trkpt lat="42.98184" lon="0.70648">
        <ele>680</ele>
        <time>2022-08-28T08:19:53.000Z</time>
      </trkpt>
      <trkpt lat="42.98143" lon="0.70644">
        <ele>664</ele>
        <time>2022-08-28T08:20:00.000Z</time>
      </trkpt>
      <trkpt lat="42.98126" lon="0.70623">
        <ele>662</ele>
        <time>2022-08-28T08:20:05.000Z</time>
      </trkpt>
      <trkpt lat="42.98061" lon="0.70351">
        <ele>658</ele>
        <time>2022-08-28T08:20:42.000Z</time>
      </trkpt>
      <trkpt lat="42.98045" lon="0.70302">
        <ele>658</ele>
        <time>2022-08-28T08:20:49.000Z</time>
      </trkpt>
      <trkpt lat="42.98014" lon="0.70221">
        <ele>653</ele>
        <time>2022-08-28T08:21:01.000Z</time>
      </trkpt>
      <trkpt lat="42.98009" lon="0.70215">
        <ele>651</ele>
        <time>2022-08-28T08:21:02.000Z</time>
      </trkpt>
      <trkpt lat="42.98" lon="0.70213">
        <ele>646</ele>
        <time>2022-08-28T08:21:04.000Z</time>
      </trkpt>
      <trkpt lat="42.97992" lon="0.70218">
        <ele>642</ele>
        <time>2022-08-28T08:21:05.000Z</time>
      </trkpt>
      <trkpt lat="42.97988" lon="0.70226">
        <ele>639</ele>
        <time>2022-08-28T08:21:06.000Z</time>
      </trkpt>
      <trkpt lat="42.97988" lon="0.70239">
        <ele>637</ele>
        <time>2022-08-28T08:21:08.000Z</time>
      </trkpt>
      <trkpt lat="42.97992" lon="0.70249">
        <ele>637</ele>
        <time>2022-08-28T08:21:10.000Z</time>
      </trkpt>
      <trkpt lat="42.9801" lon="0.70268">
        <ele>644</ele>
        <time>2022-08-28T08:21:14.000Z</time>
      </trkpt>
      <trkpt lat="42.98021" lon="0.70288">
        <ele>648</ele>
        <time>2022-08-28T08:21:17.000Z</time>
      </trkpt>
      <trkpt lat="42.98026" lon="0.7032">
        <ele>647</ele>
        <time>2022-08-28T08:21:21.000Z</time>
      </trkpt>
      <trkpt lat="42.98029" lon="0.70406">
        <ele>641</ele>
        <time>2022-08-28T08:21:32.000Z</time>
      </trkpt>
      <trkpt lat="42.98044" lon="0.70449">
        <ele>642</ele>
        <time>2022-08-28T08:21:39.000Z</time>
      </trkpt>
      <trkpt lat="42.98048" lon="0.70468">
        <ele>641</ele>
        <time>2022-08-28T08:21:41.000Z</time>
      </trkpt>
      <trkpt lat="42.98047" lon="0.70539">
        <ele>635</ele>
        <time>2022-08-28T08:21:50.000Z</time>
      </trkpt>
      <trkpt lat="42.98062" lon="0.70597">
        <ele>637</ele>
        <time>2022-08-28T08:21:58.000Z</time>
      </trkpt>
      <trkpt lat="42.98067" lon="0.70629">
        <ele>634</ele>
        <time>2022-08-28T08:22:03.000Z</time>
      </trkpt>
      <trkpt lat="42.98066" lon="0.70698">
        <ele>622</ele>
        <time>2022-08-28T08:22:12.000Z</time>
      </trkpt>
      <trkpt lat="42.98069" lon="0.70712">
        <ele>621</ele>
        <time>2022-08-28T08:22:14.000Z</time>
      </trkpt>
      <trkpt lat="42.98073" lon="0.70723">
        <ele>622</ele>
        <time>2022-08-28T08:22:15.000Z</time>
      </trkpt>
      <trkpt lat="42.98082" lon="0.70734">
        <ele>624</ele>
        <time>2022-08-28T08:22:17.000Z</time>
      </trkpt>
      <trkpt lat="42.98122" lon="0.7076">
        <ele>636</ele>
        <time>2022-08-28T08:22:25.000Z</time>
      </trkpt>
      <trkpt lat="42.98125" lon="0.7077">
        <ele>636</ele>
        <time>2022-08-28T08:22:27.000Z</time>
      </trkpt>
      <trkpt lat="42.98111" lon="0.70845">
        <ele>620</ele>
        <time>2022-08-28T08:22:37.000Z</time>
      </trkpt>
      <trkpt lat="42.98112" lon="0.7087">
        <ele>617</ele>
        <time>2022-08-28T08:22:40.000Z</time>
      </trkpt>
      <trkpt lat="42.98121" lon="0.70901">
        <ele>618</ele>
        <time>2022-08-28T08:22:44.000Z</time>
      </trkpt>
      <trkpt lat="42.98155" lon="0.70957">
        <ele>624</ele>
        <time>2022-08-28T08:22:54.000Z</time>
      </trkpt>
      <trkpt lat="42.98152" lon="0.71037">
        <ele>611</ele>
        <time>2022-08-28T08:23:05.000Z</time>
      </trkpt>
      <trkpt lat="42.98161" lon="0.71096">
        <ele>607</ele>
        <time>2022-08-28T08:23:12.000Z</time>
      </trkpt>
      <trkpt lat="42.98174" lon="0.71136">
        <ele>606</ele>
        <time>2022-08-28T08:23:18.000Z</time>
      </trkpt>
      <trkpt lat="42.98187" lon="0.71167">
        <ele>606</ele>
        <time>2022-08-28T08:23:23.000Z</time>
      </trkpt>
      <trkpt lat="42.98227" lon="0.7122">
        <ele>612</ele>
        <time>2022-08-28T08:23:33.000Z</time>
      </trkpt>
      <trkpt lat="42.98239" lon="0.71249">
        <ele>612</ele>
        <time>2022-08-28T08:23:37.000Z</time>
      </trkpt>
      <trkpt lat="42.98241" lon="0.71279">
        <ele>610</ele>
        <time>2022-08-28T08:23:41.000Z</time>
      </trkpt>
      <trkpt lat="42.98236" lon="0.713">
        <ele>607</ele>
        <time>2022-08-28T08:23:44.000Z</time>
      </trkpt>
      <trkpt lat="42.98162" lon="0.71413">
        <ele>584</ele>
        <time>2022-08-28T08:24:04.000Z</time>
      </trkpt>
      <trkpt lat="42.98159" lon="0.71429">
        <ele>583</ele>
        <time>2022-08-28T08:24:06.000Z</time>
      </trkpt>
      <trkpt lat="42.98171" lon="0.71507">
        <ele>584</ele>
        <time>2022-08-28T08:24:16.000Z</time>
      </trkpt>
      <trkpt lat="42.98179" lon="0.71522">
        <ele>583</ele>
        <time>2022-08-28T08:24:19.000Z</time>
      </trkpt>
      <trkpt lat="42.98194" lon="0.71531">
        <ele>584</ele>
        <time>2022-08-28T08:24:22.000Z</time>
      </trkpt>
      <trkpt lat="42.98221" lon="0.71528">
        <ele>590</ele>
        <time>2022-08-28T08:24:27.000Z</time>
      </trkpt>
      <trkpt lat="42.98238" lon="0.71529">
        <ele>593</ele>
        <time>2022-08-28T08:24:30.000Z</time>
      </trkpt>
      <trkpt lat="42.98249" lon="0.71542">
        <ele>593</ele>
        <time>2022-08-28T08:24:32.000Z</time>
      </trkpt>
      <trkpt lat="42.98255" lon="0.71559">
        <ele>592</ele>
        <time>2022-08-28T08:24:35.000Z</time>
      </trkpt>
      <trkpt lat="42.98261" lon="0.71614">
        <ele>587</ele>
        <time>2022-08-28T08:24:42.000Z</time>
      </trkpt>
      <trkpt lat="42.98262" lon="0.71651">
        <ele>582</ele>
        <time>2022-08-28T08:24:47.000Z</time>
      </trkpt>
      <trkpt lat="42.98223" lon="0.71752">
        <ele>565</ele>
        <time>2022-08-28T08:25:02.000Z</time>
      </trkpt>
      <trkpt lat="42.98223" lon="0.7177">
        <ele>563</ele>
        <time>2022-08-28T08:25:04.000Z</time>
      </trkpt>
      <trkpt lat="42.9824" lon="0.71789">
        <ele>564</ele>
        <time>2022-08-28T08:25:08.000Z</time>
      </trkpt>
      <trkpt lat="42.98246" lon="0.71789">
        <ele>565</ele>
        <time>2022-08-28T08:25:09.000Z</time>
      </trkpt>
      <trkpt lat="42.98283" lon="0.71759">
        <ele>574</ele>
        <time>2022-08-28T08:25:17.000Z</time>
      </trkpt>
      <trkpt lat="42.98298" lon="0.71754">
        <ele>577</ele>
        <time>2022-08-28T08:25:20.000Z</time>
      </trkpt>
      <trkpt lat="42.98331" lon="0.71769">
        <ele>578</ele>
        <time>2022-08-28T08:25:26.000Z</time>
      </trkpt>
      <trkpt lat="42.98338" lon="0.71786">
        <ele>577</ele>
        <time>2022-08-28T08:25:29.000Z</time>
      </trkpt>
      <trkpt lat="42.98335" lon="0.71843">
        <ele>568</ele>
        <time>2022-08-28T08:25:36.000Z</time>
      </trkpt>
      <trkpt lat="42.98328" lon="0.71874">
        <ele>569</ele>
        <time>2022-08-28T08:25:40.000Z</time>
      </trkpt>
      <trkpt lat="42.98308" lon="0.71929">
        <ele>565</ele>
        <time>2022-08-28T08:25:48.000Z</time>
      </trkpt>
      <trkpt lat="42.98301" lon="0.71968">
        <ele>564</ele>
        <time>2022-08-28T08:25:53.000Z</time>
      </trkpt>
      <trkpt lat="42.98278" lon="0.72002">
        <ele>555</ele>
        <time>2022-08-28T08:25:59.000Z</time>
      </trkpt>
      <trkpt lat="42.98271" lon="0.72026">
        <ele>552</ele>
        <time>2022-08-28T08:26:03.000Z</time>
      </trkpt>
      <trkpt lat="42.98302" lon="0.72175">
        <ele>558</ele>
        <time>2022-08-28T08:26:23.000Z</time>
      </trkpt>
      <trkpt lat="42.98311" lon="0.7223">
        <ele>558</ele>
        <time>2022-08-28T08:26:30.000Z</time>
      </trkpt>
      <trkpt lat="42.9831" lon="0.72379">
        <ele>543</ele>
        <time>2022-08-28T08:26:50.000Z</time>
      </trkpt>
      <trkpt lat="42.98306" lon="0.72436">
        <ele>537</ele>
        <time>2022-08-28T08:26:57.000Z</time>
      </trkpt>
      <trkpt lat="42.98324" lon="0.72475">
        <ele>539</ele>
        <time>2022-08-28T08:27:03.000Z</time>
      </trkpt>
      <trkpt lat="42.98325" lon="0.72498">
        <ele>537</ele>
        <time>2022-08-28T08:27:06.000Z</time>
      </trkpt>
      <trkpt lat="42.98311" lon="0.72541">
        <ele>531</ele>
        <time>2022-08-28T08:27:12.000Z</time>
      </trkpt>
      <trkpt lat="42.98309" lon="0.72576">
        <ele>530</ele>
        <time>2022-08-28T08:27:17.000Z</time>
      </trkpt>
      <trkpt lat="42.98322" lon="0.72683">
        <ele>529</ele>
        <time>2022-08-28T08:27:31.000Z</time>
      </trkpt>
      <trkpt lat="42.98326" lon="0.72699">
        <ele>528</ele>
        <time>2022-08-28T08:27:33.000Z</time>
      </trkpt>
      <trkpt lat="42.98392" lon="0.72801">
        <ele>532</ele>
        <time>2022-08-28T08:27:51.000Z</time>
      </trkpt>
      <trkpt lat="42.98402" lon="0.72829">
        <ele>527</ele>
        <time>2022-08-28T08:27:55.000Z</time>
      </trkpt>
      <trkpt lat="42.98425" lon="0.72926">
        <ele>521</ele>
        <time>2022-08-28T08:28:08.000Z</time>
      </trkpt>
      <trkpt lat="42.98435" lon="0.73032">
        <ele>514</ele>
        <time>2022-08-28T08:28:22.000Z</time>
      </trkpt>
      <trkpt lat="42.98476" lon="0.7315">
        <ele>515</ele>
        <time>2022-08-28T08:28:39.000Z</time>
      </trkpt>
      <trkpt lat="42.98484" lon="0.73186">
        <ele>515</ele>
        <time>2022-08-28T08:28:44.000Z</time>
      </trkpt>
      <trkpt lat="42.98474" lon="0.73414">
        <ele>513</ele>
        <time>2022-08-28T08:29:14.000Z</time>
      </trkpt>
      <trkpt lat="42.98479" lon="0.73468">
        <ele>510</ele>
        <time>2022-08-28T08:29:21.000Z</time>
      </trkpt>
      <trkpt lat="42.98495" lon="0.73529">
        <ele>505</ele>
        <time>2022-08-28T08:29:30.000Z</time>
      </trkpt>
      <trkpt lat="42.9855" lon="0.73685">
        <ele>500</ele>
        <time>2022-08-28T08:29:52.000Z</time>
      </trkpt>
      <trkpt lat="42.98574" lon="0.73715">
        <ele>499</ele>
        <time>2022-08-28T08:29:58.000Z</time>
      </trkpt>
      <trkpt lat="42.98583" lon="0.73722">
        <ele>498</ele>
        <time>2022-08-28T08:30:00.000Z</time>
      </trkpt>
      <trkpt lat="42.98645" lon="0.73755">
        <ele>494</ele>
        <time>2022-08-28T08:30:12.000Z</time>
      </trkpt>
      <trkpt lat="42.98657" lon="0.73772">
        <ele>493</ele>
        <time>2022-08-28T08:30:15.000Z</time>
      </trkpt>
      <trkpt lat="42.98664" lon="0.73795">
        <ele>492</ele>
        <time>2022-08-28T08:30:18.000Z</time>
      </trkpt>
      <trkpt lat="42.987" lon="0.73957">
        <ele>499</ele>
        <time>2022-08-28T08:30:40.000Z</time>
      </trkpt>
      <trkpt lat="42.98757" lon="0.74044">
        <ele>501</ele>
        <time>2022-08-28T08:30:56.000Z</time>
      </trkpt>
      <trkpt lat="42.9876" lon="0.7407">
        <ele>504</ele>
        <time>2022-08-28T08:30:59.000Z</time>
      </trkpt>
      <trkpt lat="42.98736" lon="0.74214">
        <ele>509</ele>
        <time>2022-08-28T08:31:18.000Z</time>
      </trkpt>
      <trkpt lat="42.98728" lon="0.74238">
        <ele>510</ele>
        <time>2022-08-28T08:31:22.000Z</time>
      </trkpt>
      <trkpt lat="42.98651" lon="0.74322">
        <ele>522</ele>
        <time>2022-08-28T08:31:39.000Z</time>
      </trkpt>
      <trkpt lat="42.98645" lon="0.74348">
        <ele>523</ele>
        <time>2022-08-28T08:31:43.000Z</time>
      </trkpt>
      <trkpt lat="42.98645" lon="0.74358">
        <ele>524</ele>
        <time>2022-08-28T08:31:44.000Z</time>
      </trkpt>
      <trkpt lat="42.98654" lon="0.74384">
        <ele>525</ele>
        <time>2022-08-28T08:31:48.000Z</time>
      </trkpt>
      <trkpt lat="42.98694" lon="0.74425">
        <ele>523</ele>
        <time>2022-08-28T08:31:57.000Z</time>
      </trkpt>
      <trkpt lat="42.98706" lon="0.74452">
        <ele>522</ele>
        <time>2022-08-28T08:32:01.000Z</time>
      </trkpt>
      <trkpt lat="42.98705" lon="0.74524">
        <ele>526</ele>
        <time>2022-08-28T08:32:11.000Z</time>
      </trkpt>
      <trkpt lat="42.98692" lon="0.74552">
        <ele>528</ele>
        <time>2022-08-28T08:32:15.000Z</time>
      </trkpt>
      <trkpt lat="42.9858" lon="0.74664">
        <ele>534</ele>
        <time>2022-08-28T08:32:40.000Z</time>
      </trkpt>
      <trkpt lat="42.98559" lon="0.74677">
        <ele>535</ele>
        <time>2022-08-28T08:32:44.000Z</time>
      </trkpt>
      <trkpt lat="42.98418" lon="0.74717">
        <ele>540</ele>
        <time>2022-08-28T08:33:09.000Z</time>
      </trkpt>
      <trkpt lat="42.98385" lon="0.74734">
        <ele>542</ele>
        <time>2022-08-28T08:33:16.000Z</time>
      </trkpt>
      <trkpt lat="42.98226" lon="0.74911">
        <ele>557</ele>
        <time>2022-08-28T08:33:52.000Z</time>
      </trkpt>
      <trkpt lat="42.98195" lon="0.74934">
        <ele>560</ele>
        <time>2022-08-28T08:33:58.000Z</time>
      </trkpt>
      <trkpt lat="42.98155" lon="0.74954">
        <ele>562</ele>
        <time>2022-08-28T08:34:06.000Z</time>
      </trkpt>
      <trkpt lat="42.98059" lon="0.74976">
        <ele>565</ele>
        <time>2022-08-28T08:34:23.000Z</time>
      </trkpt>
      <trkpt lat="42.9804" lon="0.74989">
        <ele>565</ele>
        <time>2022-08-28T08:34:27.000Z</time>
      </trkpt>
      <trkpt lat="42.98016" lon="0.75031">
        <ele>567</ele>
        <time>2022-08-28T08:34:34.000Z</time>
      </trkpt>
      <trkpt lat="42.98012" lon="0.75055">
        <ele>569</ele>
        <time>2022-08-28T08:34:37.000Z</time>
      </trkpt>
      <trkpt lat="42.98034" lon="0.75201">
        <ele>569</ele>
        <time>2022-08-28T08:34:57.000Z</time>
      </trkpt>
      <trkpt lat="42.98029" lon="0.75219">
        <ele>568</ele>
        <time>2022-08-28T08:34:59.000Z</time>
      </trkpt>
      <trkpt lat="42.98016" lon="0.7524">
        <ele>568</ele>
        <time>2022-08-28T08:35:03.000Z</time>
      </trkpt>
      <trkpt lat="42.98007" lon="0.75247">
        <ele>568</ele>
        <time>2022-08-28T08:35:05.000Z</time>
      </trkpt>
      <trkpt lat="42.9798" lon="0.75256">
        <ele>568</ele>
        <time>2022-08-28T08:35:10.000Z</time>
      </trkpt>
      <trkpt lat="42.97917" lon="0.75261">
        <ele>570</ele>
        <time>2022-08-28T08:35:21.000Z</time>
      </trkpt>
      <trkpt lat="42.979" lon="0.75271">
        <ele>571</ele>
        <time>2022-08-28T08:35:24.000Z</time>
      </trkpt>
      <trkpt lat="42.97888" lon="0.75285">
        <ele>571</ele>
        <time>2022-08-28T08:35:27.000Z</time>
      </trkpt>
      <trkpt lat="42.97878" lon="0.75313">
        <ele>571</ele>
        <time>2022-08-28T08:35:31.000Z</time>
      </trkpt>
      <trkpt lat="42.9789" lon="0.7542">
        <ele>574</ele>
        <time>2022-08-28T08:35:45.000Z</time>
      </trkpt>
      <trkpt lat="42.97887" lon="0.75435">
        <ele>574</ele>
        <time>2022-08-28T08:35:47.000Z</time>
      </trkpt>
      <trkpt lat="42.97878" lon="0.75456">
        <ele>574</ele>
        <time>2022-08-28T08:35:51.000Z</time>
      </trkpt>
      <trkpt lat="42.97867" lon="0.75472">
        <ele>575</ele>
        <time>2022-08-28T08:35:53.000Z</time>
      </trkpt>
      <trkpt lat="42.97786" lon="0.75564">
        <ele>580</ele>
        <time>2022-08-28T08:36:12.000Z</time>
      </trkpt>
      <trkpt lat="42.9778" lon="0.75581">
        <ele>581</ele>
        <time>2022-08-28T08:36:15.000Z</time>
      </trkpt>
      <trkpt lat="42.97776" lon="0.7561">
        <ele>582</ele>
        <time>2022-08-28T08:36:19.000Z</time>
      </trkpt>
      <trkpt lat="42.97777" lon="0.75635">
        <ele>581</ele>
        <time>2022-08-28T08:36:22.000Z</time>
      </trkpt>
      <trkpt lat="42.97861" lon="0.76158">
        <ele>587</ele>
        <time>2022-08-28T08:37:32.000Z</time>
      </trkpt>
      <trkpt lat="42.97869" lon="0.76235">
        <ele>591</ele>
        <time>2022-08-28T08:37:42.000Z</time>
      </trkpt>
      <trkpt lat="42.97813" lon="0.76936">
        <ele>609</ele>
        <time>2022-08-28T08:39:13.000Z</time>
      </trkpt>
      <trkpt lat="42.97811" lon="0.77014">
        <ele>609</ele>
        <time>2022-08-28T08:39:24.000Z</time>
      </trkpt>
      <trkpt lat="42.97858" lon="0.77264">
        <ele>606</ele>
        <time>2022-08-28T08:39:57.000Z</time>
      </trkpt>
      <trkpt lat="42.97864" lon="0.77302">
        <ele>604</ele>
        <time>2022-08-28T08:40:02.000Z</time>
      </trkpt>
      <trkpt lat="42.97864" lon="0.77323">
        <ele>603</ele>
        <time>2022-08-28T08:40:05.000Z</time>
      </trkpt>
      <trkpt lat="42.97859" lon="0.77342">
        <ele>602</ele>
        <time>2022-08-28T08:40:08.000Z</time>
      </trkpt>
      <trkpt lat="42.9784" lon="0.77375">
        <ele>602</ele>
        <time>2022-08-28T08:40:13.000Z</time>
      </trkpt>
      <trkpt lat="42.97831" lon="0.77409">
        <ele>600</ele>
        <time>2022-08-28T08:40:18.000Z</time>
      </trkpt>
      <trkpt lat="42.97845" lon="0.77475">
        <ele>599</ele>
        <time>2022-08-28T08:40:27.000Z</time>
      </trkpt>
      <trkpt lat="42.97848" lon="0.77498">
        <ele>599</ele>
        <time>2022-08-28T08:40:30.000Z</time>
      </trkpt>
      <trkpt lat="42.97839" lon="0.77565">
        <ele>594</ele>
        <time>2022-08-28T08:40:39.000Z</time>
      </trkpt>
      <trkpt lat="42.97839" lon="0.77601">
        <ele>593</ele>
        <time>2022-08-28T08:40:44.000Z</time>
      </trkpt>
      <trkpt lat="42.97861" lon="0.7769">
        <ele>591</ele>
        <time>2022-08-28T08:40:56.000Z</time>
      </trkpt>
      <trkpt lat="42.97863" lon="0.77754">
        <ele>591</ele>
        <time>2022-08-28T08:41:04.000Z</time>
      </trkpt>
      <trkpt lat="42.97866" lon="0.7778">
        <ele>590</ele>
        <time>2022-08-28T08:41:08.000Z</time>
      </trkpt>
      <trkpt lat="42.97909" lon="0.77931">
        <ele>580</ele>
        <time>2022-08-28T08:41:29.000Z</time>
      </trkpt>
      <trkpt lat="42.97912" lon="0.77958">
        <ele>578</ele>
        <time>2022-08-28T08:41:32.000Z</time>
      </trkpt>
      <trkpt lat="42.97911" lon="0.78145">
        <ele>571</ele>
        <time>2022-08-28T08:41:57.000Z</time>
      </trkpt>
      <trkpt lat="42.97931" lon="0.78302">
        <ele>576</ele>
        <time>2022-08-28T08:42:17.000Z</time>
      </trkpt>
      <trkpt lat="42.97932" lon="0.78361">
        <ele>578</ele>
        <time>2022-08-28T08:42:25.000Z</time>
      </trkpt>
      <trkpt lat="42.97905" lon="0.78485">
        <ele>565</ele>
        <time>2022-08-28T08:42:42.000Z</time>
      </trkpt>
      <trkpt lat="42.97905" lon="0.7853">
        <ele>560</ele>
        <time>2022-08-28T08:42:48.000Z</time>
      </trkpt>
      <trkpt lat="42.97927" lon="0.78624">
        <ele>549</ele>
        <time>2022-08-28T08:43:01.000Z</time>
      </trkpt>
      <trkpt lat="42.97943" lon="0.78654">
        <ele>547</ele>
        <time>2022-08-28T08:43:05.000Z</time>
      </trkpt>
      <trkpt lat="42.97963" lon="0.78674">
        <ele>546</ele>
        <time>2022-08-28T08:43:10.000Z</time>
      </trkpt>
      <trkpt lat="42.98022" lon="0.78706">
        <ele>546</ele>
        <time>2022-08-28T08:43:21.000Z</time>
      </trkpt>
      <trkpt lat="42.98189" lon="0.78784">
        <ele>533</ele>
        <time>2022-08-28T08:43:52.000Z</time>
      </trkpt>
      <trkpt lat="42.98182" lon="0.78802">
        <ele>531</ele>
        <time>2022-08-28T08:43:55.000Z</time>
      </trkpt>
      <trkpt lat="42.98166" lon="0.78818">
        <ele>530</ele>
        <time>2022-08-28T08:43:59.000Z</time>
      </trkpt>
      <trkpt lat="42.9814" lon="0.78818">
        <ele>530</ele>
        <time>2022-08-28T08:44:03.000Z</time>
      </trkpt>
      <trkpt lat="42.98118" lon="0.7882">
        <ele>530</ele>
        <time>2022-08-28T08:44:07.000Z</time>
      </trkpt>
      <trkpt lat="42.98081" lon="0.78835">
        <ele>529</ele>
        <time>2022-08-28T08:44:14.000Z</time>
      </trkpt>
      <trkpt lat="42.98036" lon="0.78849">
        <ele>523</ele>
        <time>2022-08-28T08:44:22.000Z</time>
      </trkpt>
      <trkpt lat="42.97877" lon="0.78831">
        <ele>516</ele>
        <time>2022-08-28T08:44:51.000Z</time>
      </trkpt>
      <trkpt lat="42.97846" lon="0.78834">
        <ele>516</ele>
        <time>2022-08-28T08:44:56.000Z</time>
      </trkpt>
      <trkpt lat="42.9782" lon="0.78847">
        <ele>516</ele>
        <time>2022-08-28T08:45:01.000Z</time>
      </trkpt>
      <trkpt lat="42.9779" lon="0.78866">
        <ele>514</ele>
        <time>2022-08-28T08:45:07.000Z</time>
      </trkpt>
      <trkpt lat="42.97731" lon="0.78879">
        <ele>517</ele>
        <time>2022-08-28T08:45:18.000Z</time>
      </trkpt>
      <trkpt lat="42.97712" lon="0.78885">
        <ele>518</ele>
        <time>2022-08-28T08:45:21.000Z</time>
      </trkpt>
      <trkpt lat="42.97672" lon="0.78911">
        <ele>513</ele>
        <time>2022-08-28T08:45:29.000Z</time>
      </trkpt>
      <trkpt lat="42.9763" lon="0.7892">
        <ele>510</ele>
        <time>2022-08-28T08:45:37.000Z</time>
      </trkpt>
      <trkpt lat="42.97607" lon="0.78919">
        <ele>509</ele>
        <time>2022-08-28T08:45:41.000Z</time>
      </trkpt>
      <trkpt lat="42.97485" lon="0.78857">
        <ele>517</ele>
        <time>2022-08-28T08:46:04.000Z</time>
      </trkpt>
      <trkpt lat="42.9746" lon="0.78861">
        <ele>514</ele>
        <time>2022-08-28T08:46:08.000Z</time>
      </trkpt>
      <trkpt lat="42.97396" lon="0.78895">
        <ele>509</ele>
        <time>2022-08-28T08:46:21.000Z</time>
      </trkpt>
      <trkpt lat="42.97288" lon="0.78944">
        <ele>517</ele>
        <time>2022-08-28T08:46:41.000Z</time>
      </trkpt>
      <trkpt lat="42.97259" lon="0.78965">
        <ele>521</ele>
        <time>2022-08-28T08:46:47.000Z</time>
      </trkpt>
      <trkpt lat="42.97212" lon="0.79022">
        <ele>524</ele>
        <time>2022-08-28T08:46:58.000Z</time>
      </trkpt>
      <trkpt lat="42.97179" lon="0.79042">
        <ele>525</ele>
        <time>2022-08-28T08:47:04.000Z</time>
      </trkpt>
      <trkpt lat="42.97098" lon="0.79069">
        <ele>523</ele>
        <time>2022-08-28T08:47:19.000Z</time>
      </trkpt>
      <trkpt lat="42.9697" lon="0.79126">
        <ele>525</ele>
        <time>2022-08-28T08:47:43.000Z</time>
      </trkpt>
      <trkpt lat="42.96949" lon="0.79129">
        <ele>526</ele>
        <time>2022-08-28T08:47:47.000Z</time>
      </trkpt>
      <trkpt lat="42.96936" lon="0.79128">
        <ele>527</ele>
        <time>2022-08-28T08:47:49.000Z</time>
      </trkpt>
      <trkpt lat="42.96893" lon="0.79115">
        <ele>533</ele>
        <time>2022-08-28T08:47:57.000Z</time>
      </trkpt>
      <trkpt lat="42.9688" lon="0.79114">
        <ele>535</ele>
        <time>2022-08-28T08:47:59.000Z</time>
      </trkpt>
      <trkpt lat="42.96846" lon="0.79126">
        <ele>536</ele>
        <time>2022-08-28T08:48:06.000Z</time>
      </trkpt>
      <trkpt lat="42.96807" lon="0.7915">
        <ele>537</ele>
        <time>2022-08-28T08:48:13.000Z</time>
      </trkpt>
      <trkpt lat="42.96718" lon="0.7925">
        <ele>552</ele>
        <time>2022-08-28T08:48:34.000Z</time>
      </trkpt>
      <trkpt lat="42.96698" lon="0.79279">
        <ele>558</ele>
        <time>2022-08-28T08:48:39.000Z</time>
      </trkpt>
      <trkpt lat="42.96686" lon="0.79304">
        <ele>558</ele>
        <time>2022-08-28T08:48:43.000Z</time>
      </trkpt>
      <trkpt lat="42.96676" lon="0.79336">
        <ele>554</ele>
        <time>2022-08-28T08:48:47.000Z</time>
      </trkpt>
      <trkpt lat="42.96672" lon="0.79399">
        <ele>543</ele>
        <time>2022-08-28T08:48:56.000Z</time>
      </trkpt>
      <trkpt lat="42.96659" lon="0.79437">
        <ele>542</ele>
        <time>2022-08-28T08:49:01.000Z</time>
      </trkpt>
      <trkpt lat="42.96645" lon="0.79448">
        <ele>546</ele>
        <time>2022-08-28T08:49:04.000Z</time>
      </trkpt>
      <trkpt lat="42.9663" lon="0.79448">
        <ele>549</ele>
        <time>2022-08-28T08:49:07.000Z</time>
      </trkpt>
      <trkpt lat="42.96545" lon="0.79434">
        <ele>570</ele>
        <time>2022-08-28T08:49:22.000Z</time>
      </trkpt>
      <trkpt lat="42.96437" lon="0.79434">
        <ele>586</ele>
        <time>2022-08-28T08:49:41.000Z</time>
      </trkpt>
      <trkpt lat="42.96426" lon="0.79438">
        <ele>585</ele>
        <time>2022-08-28T08:49:43.000Z</time>
      </trkpt>
      <trkpt lat="42.96408" lon="0.79451">
        <ele>585</ele>
        <time>2022-08-28T08:49:47.000Z</time>
      </trkpt>
      <trkpt lat="42.96366" lon="0.79491">
        <ele>583</ele>
        <time>2022-08-28T08:49:56.000Z</time>
      </trkpt>
      <trkpt lat="42.96273" lon="0.79614">
        <ele>580</ele>
        <time>2022-08-28T08:50:19.000Z</time>
      </trkpt>
      <trkpt lat="42.96265" lon="0.79622">
        <ele>581</ele>
        <time>2022-08-28T08:50:21.000Z</time>
      </trkpt>
      <trkpt lat="42.96228" lon="0.79646">
        <ele>582</ele>
        <time>2022-08-28T08:50:28.000Z</time>
      </trkpt>
      <trkpt lat="42.96189" lon="0.79656">
        <ele>585</ele>
        <time>2022-08-28T08:50:35.000Z</time>
      </trkpt>
      <trkpt lat="42.96115" lon="0.79732">
        <ele>575</ele>
        <time>2022-08-28T08:50:52.000Z</time>
      </trkpt>
      <trkpt lat="42.96105" lon="0.79736">
        <ele>575</ele>
        <time>2022-08-28T08:50:54.000Z</time>
      </trkpt>
      <trkpt lat="42.96067" lon="0.79741">
        <ele>578</ele>
        <time>2022-08-28T08:51:00.000Z</time>
      </trkpt>
      <trkpt lat="42.95973" lon="0.79734">
        <ele>594</ele>
        <time>2022-08-28T08:51:17.000Z</time>
      </trkpt>
      <trkpt lat="42.95944" lon="0.79679">
        <ele>606</ele>
        <time>2022-08-28T08:51:27.000Z</time>
      </trkpt>
      <trkpt lat="42.9594" lon="0.7968">
        <ele>605</ele>
        <time>2022-08-28T08:51:27.000Z</time>
      </trkpt>
      <trkpt lat="42.95933" lon="0.79699">
        <ele>604</ele>
        <time>2022-08-28T08:51:30.000Z</time>
      </trkpt>
      <trkpt lat="42.95938" lon="0.79749">
        <ele>599</ele>
        <time>2022-08-28T08:51:37.000Z</time>
      </trkpt>
      <trkpt lat="42.95978" lon="0.79864">
        <ele>589</ele>
        <time>2022-08-28T08:51:53.000Z</time>
      </trkpt>
      <trkpt lat="42.95977" lon="0.79886">
        <ele>590</ele>
        <time>2022-08-28T08:51:56.000Z</time>
      </trkpt>
      <trkpt lat="42.95902" lon="0.80056">
        <ele>600</ele>
        <time>2022-08-28T08:52:22.000Z</time>
      </trkpt>
      <trkpt lat="42.95825" lon="0.80193">
        <ele>605</ele>
        <time>2022-08-28T08:52:45.000Z</time>
      </trkpt>
      <trkpt lat="42.95811" lon="0.80206">
        <ele>608</ele>
        <time>2022-08-28T08:52:48.000Z</time>
      </trkpt>
      <trkpt lat="42.95781" lon="0.80221">
        <ele>616</ele>
        <time>2022-08-28T08:52:53.000Z</time>
      </trkpt>
      <trkpt lat="42.957" lon="0.803">
        <ele>614</ele>
        <time>2022-08-28T08:53:11.000Z</time>
      </trkpt>
      <trkpt lat="42.95687" lon="0.80308">
        <ele>612</ele>
        <time>2022-08-28T08:53:14.000Z</time>
      </trkpt>
      <trkpt lat="42.9562" lon="0.80295">
        <ele>628</ele>
        <time>2022-08-28T08:53:26.000Z</time>
      </trkpt>
      <trkpt lat="42.95599" lon="0.80298">
        <ele>631</ele>
        <time>2022-08-28T08:53:30.000Z</time>
      </trkpt>
      <trkpt lat="42.95554" lon="0.80341">
        <ele>628</ele>
        <time>2022-08-28T08:53:39.000Z</time>
      </trkpt>
      <trkpt lat="42.95504" lon="0.80397">
        <ele>625</ele>
        <time>2022-08-28T08:53:51.000Z</time>
      </trkpt>
      <trkpt lat="42.95493" lon="0.80401">
        <ele>625</ele>
        <time>2022-08-28T08:53:53.000Z</time>
      </trkpt>
      <trkpt lat="42.95478" lon="0.80397">
        <ele>628</ele>
        <time>2022-08-28T08:53:56.000Z</time>
      </trkpt>
      <trkpt lat="42.95415" lon="0.80357">
        <ele>645</ele>
        <time>2022-08-28T08:54:08.000Z</time>
      </trkpt>
      <trkpt lat="42.95408" lon="0.80364">
        <ele>646</ele>
        <time>2022-08-28T08:54:10.000Z</time>
      </trkpt>
      <trkpt lat="42.95405" lon="0.80373">
        <ele>645</ele>
        <time>2022-08-28T08:54:11.000Z</time>
      </trkpt>
      <trkpt lat="42.95408" lon="0.80387">
        <ele>641</ele>
        <time>2022-08-28T08:54:13.000Z</time>
      </trkpt>
      <trkpt lat="42.95451" lon="0.80466">
        <ele>622</ele>
        <time>2022-08-28T08:54:26.000Z</time>
      </trkpt>
      <trkpt lat="42.95457" lon="0.80487">
        <ele>619</ele>
        <time>2022-08-28T08:54:29.000Z</time>
      </trkpt>
      <trkpt lat="42.95454" lon="0.80507">
        <ele>619</ele>
        <time>2022-08-28T08:54:31.000Z</time>
      </trkpt>
      <trkpt lat="42.95434" lon="0.80577">
        <ele>616</ele>
        <time>2022-08-28T08:54:41.000Z</time>
      </trkpt>
      <trkpt lat="42.95388" lon="0.80669">
        <ele>624</ele>
        <time>2022-08-28T08:54:56.000Z</time>
      </trkpt>
      <trkpt lat="42.95386" lon="0.80685">
        <ele>625</ele>
        <time>2022-08-28T08:54:58.000Z</time>
      </trkpt>
      <trkpt lat="42.95384" lon="0.80706">
        <ele>625</ele>
        <time>2022-08-28T08:55:01.000Z</time>
      </trkpt>
      <trkpt lat="42.95387" lon="0.80737">
        <ele>622</ele>
        <time>2022-08-28T08:55:05.000Z</time>
      </trkpt>
      <trkpt lat="42.95404" lon="0.80805">
        <ele>615</ele>
        <time>2022-08-28T08:55:14.000Z</time>
      </trkpt>
      <trkpt lat="42.95407" lon="0.80836">
        <ele>614</ele>
        <time>2022-08-28T08:55:18.000Z</time>
      </trkpt>
      <trkpt lat="42.95372" lon="0.80993">
        <ele>627</ele>
        <time>2022-08-28T08:55:39.000Z</time>
      </trkpt>
      <trkpt lat="42.95366" lon="0.81033">
        <ele>628</ele>
        <time>2022-08-28T08:55:45.000Z</time>
      </trkpt>
      <trkpt lat="42.95387" lon="0.81133">
        <ele>623</ele>
        <time>2022-08-28T08:55:58.000Z</time>
      </trkpt>
      <trkpt lat="42.95382" lon="0.81161">
        <ele>620</ele>
        <time>2022-08-28T08:56:02.000Z</time>
      </trkpt>
      <trkpt lat="42.95374" lon="0.81175">
        <ele>619</ele>
        <time>2022-08-28T08:56:04.000Z</time>
      </trkpt>
      <trkpt lat="42.95367" lon="0.8118">
        <ele>619</ele>
        <time>2022-08-28T08:56:06.000Z</time>
      </trkpt>
      <trkpt lat="42.95334" lon="0.81189">
        <ele>615</ele>
        <time>2022-08-28T08:56:12.000Z</time>
      </trkpt>
      <trkpt lat="42.95307" lon="0.81207">
        <ele>628</ele>
        <time>2022-08-28T08:56:17.000Z</time>
      </trkpt>
      <trkpt lat="42.9527" lon="0.81256">
        <ele>635</ele>
        <time>2022-08-28T08:56:26.000Z</time>
      </trkpt>
      <trkpt lat="42.95258" lon="0.81278">
        <ele>635</ele>
        <time>2022-08-28T08:56:30.000Z</time>
      </trkpt>
      <trkpt lat="42.95248" lon="0.81317">
        <ele>628</ele>
        <time>2022-08-28T08:56:35.000Z</time>
      </trkpt>
      <trkpt lat="42.95236" lon="0.81447">
        <ele>626</ele>
        <time>2022-08-28T08:56:52.000Z</time>
      </trkpt>
      <trkpt lat="42.95226" lon="0.81472">
        <ele>627</ele>
        <time>2022-08-28T08:56:56.000Z</time>
      </trkpt>
      <trkpt lat="42.95215" lon="0.81487">
        <ele>626</ele>
        <time>2022-08-28T08:56:59.000Z</time>
      </trkpt>
      <trkpt lat="42.95152" lon="0.81517">
        <ele>629</ele>
        <time>2022-08-28T08:57:11.000Z</time>
      </trkpt>
      <trkpt lat="42.95138" lon="0.81517">
        <ele>631</ele>
        <time>2022-08-28T08:57:13.000Z</time>
      </trkpt>
      <trkpt lat="42.95058" lon="0.81474">
        <ele>654</ele>
        <time>2022-08-28T08:57:29.000Z</time>
      </trkpt>
      <trkpt lat="42.95041" lon="0.81477">
        <ele>657</ele>
        <time>2022-08-28T08:57:32.000Z</time>
      </trkpt>
      <trkpt lat="42.94884" lon="0.81581">
        <ele>651</ele>
        <time>2022-08-28T08:58:03.000Z</time>
      </trkpt>
      <trkpt lat="42.94877" lon="0.81591">
        <ele>654</ele>
        <time>2022-08-28T08:58:05.000Z</time>
      </trkpt>
      <trkpt lat="42.94875" lon="0.81631">
        <ele>669</ele>
        <time>2022-08-28T08:58:10.000Z</time>
      </trkpt>
      <trkpt lat="42.94888" lon="0.81642">
        <ele>670</ele>
        <time>2022-08-28T08:58:13.000Z</time>
      </trkpt>
      <trkpt lat="42.94928" lon="0.81619">
        <ele>656</ele>
        <time>2022-08-28T08:58:21.000Z</time>
      </trkpt>
      <trkpt lat="42.94945" lon="0.81614">
        <ele>654</ele>
        <time>2022-08-28T08:58:24.000Z</time>
      </trkpt>
      <trkpt lat="42.95002" lon="0.81634">
        <ele>657</ele>
        <time>2022-08-28T08:58:35.000Z</time>
      </trkpt>
      <trkpt lat="42.9501" lon="0.81643">
        <ele>659</ele>
        <time>2022-08-28T08:58:36.000Z</time>
      </trkpt>
      <trkpt lat="42.95058" lon="0.818">
        <ele>684</ele>
        <time>2022-08-28T08:58:59.000Z</time>
      </trkpt>
      <trkpt lat="42.95059" lon="0.81819">
        <ele>686</ele>
        <time>2022-08-28T08:59:01.000Z</time>
      </trkpt>
      <trkpt lat="42.95054" lon="0.81829">
        <ele>688</ele>
        <time>2022-08-28T08:59:03.000Z</time>
      </trkpt>
      <trkpt lat="42.95" lon="0.81869">
        <ele>698</ele>
        <time>2022-08-28T08:59:14.000Z</time>
      </trkpt>
      <trkpt lat="42.94946" lon="0.81874">
        <ele>710</ele>
        <time>2022-08-28T08:59:23.000Z</time>
      </trkpt>
      <trkpt lat="42.94932" lon="0.81878">
        <ele>713</ele>
        <time>2022-08-28T08:59:26.000Z</time>
      </trkpt>
      <trkpt lat="42.94885" lon="0.81914">
        <ele>727</ele>
        <time>2022-08-28T08:59:35.000Z</time>
      </trkpt>
      <trkpt lat="42.94865" lon="0.81954">
        <ele>736</ele>
        <time>2022-08-28T08:59:42.000Z</time>
      </trkpt>
      <trkpt lat="42.94861" lon="0.8204">
        <ele>738</ele>
        <time>2022-08-28T08:59:53.000Z</time>
      </trkpt>
      <trkpt lat="42.94858" lon="0.82113">
        <ele>744</ele>
        <time>2022-08-28T09:00:03.000Z</time>
      </trkpt>
      <trkpt lat="42.94868" lon="0.8227">
        <ele>753</ele>
        <time>2022-08-28T09:00:23.000Z</time>
      </trkpt>
      <trkpt lat="42.94869" lon="0.82283">
        <ele>754</ele>
        <time>2022-08-28T09:00:25.000Z</time>
      </trkpt>
      <trkpt lat="42.94845" lon="0.82306">
        <ele>754</ele>
        <time>2022-08-28T09:00:30.000Z</time>
      </trkpt>
      <trkpt lat="42.94834" lon="0.82318">
        <ele>753</ele>
        <time>2022-08-28T09:00:33.000Z</time>
      </trkpt>
      <trkpt lat="42.94815" lon="0.82374">
        <ele>763</ele>
        <time>2022-08-28T09:00:41.000Z</time>
      </trkpt>
      <trkpt lat="42.94797" lon="0.82412">
        <ele>767</ele>
        <time>2022-08-28T09:00:47.000Z</time>
      </trkpt>
      <trkpt lat="42.94756" lon="0.82451">
        <ele>772</ele>
        <time>2022-08-28T09:00:56.000Z</time>
      </trkpt>
      <trkpt lat="42.94708" lon="0.82522">
        <ele>791</ele>
        <time>2022-08-28T09:01:08.000Z</time>
      </trkpt>
      <trkpt lat="42.94653" lon="0.82642">
        <ele>801</ele>
        <time>2022-08-28T09:01:27.000Z</time>
      </trkpt>
      <trkpt lat="42.94635" lon="0.82687">
        <ele>809</ele>
        <time>2022-08-28T09:01:34.000Z</time>
      </trkpt>
      <trkpt lat="42.94611" lon="0.82709">
        <ele>815</ele>
        <time>2022-08-28T09:01:39.000Z</time>
      </trkpt>
      <trkpt lat="42.94607" lon="0.82714">
        <ele>815</ele>
        <time>2022-08-28T09:01:40.000Z</time>
      </trkpt>
      <trkpt lat="42.94595" lon="0.82801">
        <ele>816</ele>
        <time>2022-08-28T09:01:51.000Z</time>
      </trkpt>
      <trkpt lat="42.94572" lon="0.8288">
        <ele>822</ele>
        <time>2022-08-28T09:02:02.000Z</time>
      </trkpt>
      <trkpt lat="42.94575" lon="0.82922">
        <ele>823</ele>
        <time>2022-08-28T09:02:08.000Z</time>
      </trkpt>
      <trkpt lat="42.94547" lon="0.83028">
        <ele>837</ele>
        <time>2022-08-28T09:02:23.000Z</time>
      </trkpt>
      <trkpt lat="42.94535" lon="0.83111">
        <ele>840</ele>
        <time>2022-08-28T09:02:34.000Z</time>
      </trkpt>
      <trkpt lat="42.94437" lon="0.83235">
        <ele>847</ele>
        <time>2022-08-28T09:02:57.000Z</time>
      </trkpt>
      <trkpt lat="42.94432" lon="0.83243">
        <ele>846</ele>
        <time>2022-08-28T09:02:59.000Z</time>
      </trkpt>
      <trkpt lat="42.94358" lon="0.83433">
        <ele>871</ele>
        <time>2022-08-28T09:03:27.000Z</time>
      </trkpt>
      <trkpt lat="42.94339" lon="0.8346">
        <ele>867</ele>
        <time>2022-08-28T09:03:32.000Z</time>
      </trkpt>
      <trkpt lat="42.94249" lon="0.83519">
        <ele>887</ele>
        <time>2022-08-28T09:03:50.000Z</time>
      </trkpt>
      <trkpt lat="42.94232" lon="0.83525">
        <ele>891</ele>
        <time>2022-08-28T09:03:53.000Z</time>
      </trkpt>
      <trkpt lat="42.94192" lon="0.83524">
        <ele>900</ele>
        <time>2022-08-28T09:04:00.000Z</time>
      </trkpt>
      <trkpt lat="42.94158" lon="0.83505">
        <ele>906</ele>
        <time>2022-08-28T09:04:06.000Z</time>
      </trkpt>
      <trkpt lat="42.94154" lon="0.83509">
        <ele>907</ele>
        <time>2022-08-28T09:04:07.000Z</time>
      </trkpt>
      <trkpt lat="42.94175" lon="0.83545">
        <ele>905</ele>
        <time>2022-08-28T09:04:14.000Z</time>
      </trkpt>
      <trkpt lat="42.94189" lon="0.83557">
        <ele>903</ele>
        <time>2022-08-28T09:04:17.000Z</time>
      </trkpt>
      <trkpt lat="42.9424" lon="0.83576">
        <ele>896</ele>
        <time>2022-08-28T09:04:26.000Z</time>
      </trkpt>
      <trkpt lat="42.94281" lon="0.83577">
        <ele>890</ele>
        <time>2022-08-28T09:04:33.000Z</time>
      </trkpt>
      <trkpt lat="42.9429" lon="0.83586">
        <ele>890</ele>
        <time>2022-08-28T09:04:35.000Z</time>
      </trkpt>
      <trkpt lat="42.94292" lon="0.83594">
        <ele>892</ele>
        <time>2022-08-28T09:04:36.000Z</time>
      </trkpt>
      <trkpt lat="42.94294" lon="0.83681">
        <ele>914</ele>
        <time>2022-08-28T09:04:48.000Z</time>
      </trkpt>
      <trkpt lat="42.94338" lon="0.83804">
        <ele>912</ele>
        <time>2022-08-28T09:05:06.000Z</time>
      </trkpt>
      <trkpt lat="42.9434" lon="0.83829">
        <ele>912</ele>
        <time>2022-08-28T09:05:09.000Z</time>
      </trkpt>
      <trkpt lat="42.94338" lon="0.8384">
        <ele>913</ele>
        <time>2022-08-28T09:05:10.000Z</time>
      </trkpt>
      <trkpt lat="42.94328" lon="0.83854">
        <ele>916</ele>
        <time>2022-08-28T09:05:13.000Z</time>
      </trkpt>
      <trkpt lat="42.94252" lon="0.83895">
        <ele>942</ele>
        <time>2022-08-28T09:05:28.000Z</time>
      </trkpt>
      <trkpt lat="42.94249" lon="0.83908">
        <ele>941</ele>
        <time>2022-08-28T09:05:29.000Z</time>
      </trkpt>
      <trkpt lat="42.94292" lon="0.83939">
        <ele>933</ele>
        <time>2022-08-28T09:05:38.000Z</time>
      </trkpt>
      <trkpt lat="42.94307" lon="0.83952">
        <ele>932</ele>
        <time>2022-08-28T09:05:41.000Z</time>
      </trkpt>
      <trkpt lat="42.94349" lon="0.84055">
        <ele>949</ele>
        <time>2022-08-28T09:05:57.000Z</time>
      </trkpt>
      <trkpt lat="42.94391" lon="0.84112">
        <ele>949</ele>
        <time>2022-08-28T09:06:07.000Z</time>
      </trkpt>
      <trkpt lat="42.94405" lon="0.8416">
        <ele>954</ele>
        <time>2022-08-28T09:06:14.000Z</time>
      </trkpt>
      <trkpt lat="42.94408" lon="0.8419">
        <ele>957</ele>
        <time>2022-08-28T09:06:18.000Z</time>
      </trkpt>
      <trkpt lat="42.94387" lon="0.84251">
        <ele>974</ele>
        <time>2022-08-28T09:06:27.000Z</time>
      </trkpt>
      <trkpt lat="42.94388" lon="0.84265">
        <ele>976</ele>
        <time>2022-08-28T09:06:29.000Z</time>
      </trkpt>
      <trkpt lat="42.94427" lon="0.84297">
        <ele>974</ele>
        <time>2022-08-28T09:06:37.000Z</time>
      </trkpt>
      <trkpt lat="42.94449" lon="0.84331">
        <ele>979</ele>
        <time>2022-08-28T09:06:43.000Z</time>
      </trkpt>
      <trkpt lat="42.94454" lon="0.84344">
        <ele>980</ele>
        <time>2022-08-28T09:06:45.000Z</time>
      </trkpt>
      <trkpt lat="42.94463" lon="0.84407">
        <ele>991</ele>
        <time>2022-08-28T09:06:53.000Z</time>
      </trkpt>
      <trkpt lat="42.94485" lon="0.84462">
        <ele>991</ele>
        <time>2022-08-28T09:07:01.000Z</time>
      </trkpt>
      <trkpt lat="42.94489" lon="0.8448">
        <ele>992</ele>
        <time>2022-08-28T09:07:04.000Z</time>
      </trkpt>
      <trkpt lat="42.94476" lon="0.84567">
        <ele>1005</ele>
        <time>2022-08-28T09:07:15.000Z</time>
      </trkpt>
      <trkpt lat="42.94453" lon="0.84626">
        <ele>1015</ele>
        <time>2022-08-28T09:07:24.000Z</time>
      </trkpt>
      <trkpt lat="42.94449" lon="0.84644">
        <ele>1016</ele>
        <time>2022-08-28T09:07:27.000Z</time>
      </trkpt>
      <trkpt lat="42.94447" lon="0.84687">
        <ele>1015</ele>
        <time>2022-08-28T09:07:32.000Z</time>
      </trkpt>
      <trkpt lat="42.94451" lon="0.84759">
        <ele>1013</ele>
        <time>2022-08-28T09:07:42.000Z</time>
      </trkpt>
      <trkpt lat="42.94439" lon="0.84944">
        <ele>1026</ele>
        <time>2022-08-28T09:08:06.000Z</time>
      </trkpt>
      <trkpt lat="42.9443" lon="0.84973">
        <ele>1026</ele>
        <time>2022-08-28T09:08:10.000Z</time>
      </trkpt>
      <trkpt lat="42.94415" lon="0.84992">
        <ele>1025</ele>
        <time>2022-08-28T09:08:14.000Z</time>
      </trkpt>
      <trkpt lat="42.94385" lon="0.85005">
        <ele>1029</ele>
        <time>2022-08-28T09:08:19.000Z</time>
      </trkpt>
      <trkpt lat="42.94372" lon="0.85006">
        <ele>1030</ele>
        <time>2022-08-28T09:08:21.000Z</time>
      </trkpt>
      <trkpt lat="42.94271" lon="0.84991">
        <ele>1042</ele>
        <time>2022-08-28T09:08:40.000Z</time>
      </trkpt>
      <trkpt lat="42.94258" lon="0.84999">
        <ele>1042</ele>
        <time>2022-08-28T09:08:42.000Z</time>
      </trkpt>
      <trkpt lat="42.94254" lon="0.85014">
        <ele>1044</ele>
        <time>2022-08-28T09:08:44.000Z</time>
      </trkpt>
      <trkpt lat="42.94304" lon="0.85137">
        <ele>1050</ele>
        <time>2022-08-28T09:09:03.000Z</time>
      </trkpt>
      <trkpt lat="42.94335" lon="0.85194">
        <ele>1054</ele>
        <time>2022-08-28T09:09:12.000Z</time>
      </trkpt>
      <trkpt lat="42.94376" lon="0.85224">
        <ele>1058</ele>
        <time>2022-08-28T09:09:20.000Z</time>
      </trkpt>
      <trkpt lat="42.94392" lon="0.85238">
        <ele>1060</ele>
        <time>2022-08-28T09:09:24.000Z</time>
      </trkpt>
      <trkpt lat="42.94494" lon="0.85416">
        <ele>1072</ele>
        <time>2022-08-28T09:09:53.000Z</time>
      </trkpt>
      <trkpt lat="42.94508" lon="0.85439">
        <ele>1068</ele>
        <time>2022-08-28T09:09:57.000Z</time>
      </trkpt>
      <trkpt lat="42.94587" lon="0.85486">
        <ele>1070</ele>
        <time>2022-08-28T09:10:13.000Z</time>
      </trkpt>
      <trkpt lat="42.94594" lon="0.85497">
        <ele>1070</ele>
        <time>2022-08-28T09:10:14.000Z</time>
      </trkpt>
      <trkpt lat="42.94603" lon="0.85593">
        <ele>1052</ele>
        <time>2022-08-28T09:10:27.000Z</time>
      </trkpt>
      <trkpt lat="42.94622" lon="0.8564">
        <ele>1053</ele>
        <time>2022-08-28T09:10:34.000Z</time>
      </trkpt>
      <trkpt lat="42.94631" lon="0.8567">
        <ele>1051</ele>
        <time>2022-08-28T09:10:38.000Z</time>
      </trkpt>
      <trkpt lat="42.94626" lon="0.85758">
        <ele>1041</ele>
        <time>2022-08-28T09:10:50.000Z</time>
      </trkpt>
      <trkpt lat="42.94624" lon="0.85786">
        <ele>1039</ele>
        <time>2022-08-28T09:10:53.000Z</time>
      </trkpt>
      <trkpt lat="42.94612" lon="0.85839">
        <ele>1032</ele>
        <time>2022-08-28T09:11:01.000Z</time>
      </trkpt>
      <trkpt lat="42.94606" lon="0.85902">
        <ele>1026</ele>
        <time>2022-08-28T09:11:09.000Z</time>
      </trkpt>
      <trkpt lat="42.94607" lon="0.85938">
        <ele>1023</ele>
        <time>2022-08-28T09:11:14.000Z</time>
      </trkpt>
      <trkpt lat="42.94623" lon="0.85988">
        <ele>1026</ele>
        <time>2022-08-28T09:11:21.000Z</time>
      </trkpt>
      <trkpt lat="42.94621" lon="0.86001">
        <ele>1024</ele>
        <time>2022-08-28T09:11:22.000Z</time>
      </trkpt>
      <trkpt lat="42.94606" lon="0.86009">
        <ele>1017</ele>
        <time>2022-08-28T09:11:26.000Z</time>
      </trkpt>
      <trkpt lat="42.94601" lon="0.86005">
        <ele>1015</ele>
        <time>2022-08-28T09:11:27.000Z</time>
      </trkpt>
      <trkpt lat="42.94573" lon="0.85916">
        <ele>1010</ele>
        <time>2022-08-28T09:11:39.000Z</time>
      </trkpt>
      <trkpt lat="42.94559" lon="0.85886">
        <ele>1008</ele>
        <time>2022-08-28T09:11:44.000Z</time>
      </trkpt>
      <trkpt lat="42.94485" lon="0.85757">
        <ele>1000</ele>
        <time>2022-08-28T09:12:05.000Z</time>
      </trkpt>
      <trkpt lat="42.94471" lon="0.85709">
        <ele>1007</ele>
        <time>2022-08-28T09:12:12.000Z</time>
      </trkpt>
      <trkpt lat="42.94458" lon="0.85705">
        <ele>1008</ele>
        <time>2022-08-28T09:12:14.000Z</time>
      </trkpt>
      <trkpt lat="42.94453" lon="0.8571">
        <ele>1007</ele>
        <time>2022-08-28T09:12:15.000Z</time>
      </trkpt>
      <trkpt lat="42.9445" lon="0.85721">
        <ele>1005</ele>
        <time>2022-08-28T09:12:17.000Z</time>
      </trkpt>
      <trkpt lat="42.94452" lon="0.85888">
        <ele>977</ele>
        <time>2022-08-28T09:12:39.000Z</time>
      </trkpt>
      <trkpt lat="42.94476" lon="0.8593">
        <ele>976</ele>
        <time>2022-08-28T09:12:46.000Z</time>
      </trkpt>
      <trkpt lat="42.94485" lon="0.8595">
        <ele>975</ele>
        <time>2022-08-28T09:12:49.000Z</time>
      </trkpt>
      <trkpt lat="42.94505" lon="0.86096">
        <ele>961</ele>
        <time>2022-08-28T09:13:08.000Z</time>
      </trkpt>
      <trkpt lat="42.94507" lon="0.86118">
        <ele>961</ele>
        <time>2022-08-28T09:13:11.000Z</time>
      </trkpt>
      <trkpt lat="42.94449" lon="0.86272">
        <ele>940</ele>
        <time>2022-08-28T09:13:34.000Z</time>
      </trkpt>
      <trkpt lat="42.94434" lon="0.86349">
        <ele>935</ele>
        <time>2022-08-28T09:13:44.000Z</time>
      </trkpt>
      <trkpt lat="42.94411" lon="0.86503">
        <ele>922</ele>
        <time>2022-08-28T09:14:05.000Z</time>
      </trkpt>
      <trkpt lat="42.94428" lon="0.86558">
        <ele>923</ele>
        <time>2022-08-28T09:14:13.000Z</time>
      </trkpt>
      <trkpt lat="42.94429" lon="0.86571">
        <ele>923</ele>
        <time>2022-08-28T09:14:14.000Z</time>
      </trkpt>
      <trkpt lat="42.9442" lon="0.86583">
        <ele>920</ele>
        <time>2022-08-28T09:14:16.000Z</time>
      </trkpt>
      <trkpt lat="42.94408" lon="0.8658">
        <ele>918</ele>
        <time>2022-08-28T09:14:19.000Z</time>
      </trkpt>
      <trkpt lat="42.94362" lon="0.86516">
        <ele>909</ele>
        <time>2022-08-28T09:14:30.000Z</time>
      </trkpt>
      <trkpt lat="42.9434" lon="0.86477">
        <ele>903</ele>
        <time>2022-08-28T09:14:37.000Z</time>
      </trkpt>
      <trkpt lat="42.94309" lon="0.86413">
        <ele>901</ele>
        <time>2022-08-28T09:14:47.000Z</time>
      </trkpt>
      <trkpt lat="42.94293" lon="0.86354">
        <ele>906</ele>
        <time>2022-08-28T09:14:55.000Z</time>
      </trkpt>
      <trkpt lat="42.94284" lon="0.86354">
        <ele>906</ele>
        <time>2022-08-28T09:14:57.000Z</time>
      </trkpt>
      <trkpt lat="42.94279" lon="0.86408">
        <ele>898</ele>
        <time>2022-08-28T09:15:04.000Z</time>
      </trkpt>
      <trkpt lat="42.94276" lon="0.86426">
        <ele>895</ele>
        <time>2022-08-28T09:15:07.000Z</time>
      </trkpt>
      <trkpt lat="42.94249" lon="0.86517">
        <ele>888</ele>
        <time>2022-08-28T09:15:20.000Z</time>
      </trkpt>
      <trkpt lat="42.94238" lon="0.86541">
        <ele>890</ele>
        <time>2022-08-28T09:15:23.000Z</time>
      </trkpt>
      <trkpt lat="42.94222" lon="0.86548">
        <ele>888</ele>
        <time>2022-08-28T09:15:26.000Z</time>
      </trkpt>
      <trkpt lat="42.94208" lon="0.86542">
        <ele>884</ele>
        <time>2022-08-28T09:15:29.000Z</time>
      </trkpt>
      <trkpt lat="42.94191" lon="0.86496">
        <ele>878</ele>
        <time>2022-08-28T09:15:36.000Z</time>
      </trkpt>
      <trkpt lat="42.94186" lon="0.86493">
        <ele>878</ele>
        <time>2022-08-28T09:15:37.000Z</time>
      </trkpt>
      <trkpt lat="42.94131" lon="0.86489">
        <ele>876</ele>
        <time>2022-08-28T09:15:46.000Z</time>
      </trkpt>
      <trkpt lat="42.94118" lon="0.86492">
        <ele>876</ele>
        <time>2022-08-28T09:15:49.000Z</time>
      </trkpt>
      <trkpt lat="42.94102" lon="0.86538">
        <ele>870</ele>
        <time>2022-08-28T09:15:56.000Z</time>
      </trkpt>
      <trkpt lat="42.94096" lon="0.86551">
        <ele>868</ele>
        <time>2022-08-28T09:15:58.000Z</time>
      </trkpt>
      <trkpt lat="42.94072" lon="0.86576">
        <ele>863</ele>
        <time>2022-08-28T09:16:03.000Z</time>
      </trkpt>
      <trkpt lat="42.94037" lon="0.86597">
        <ele>861</ele>
        <time>2022-08-28T09:16:10.000Z</time>
      </trkpt>
      <trkpt lat="42.94017" lon="0.86643">
        <ele>859</ele>
        <time>2022-08-28T09:16:17.000Z</time>
      </trkpt>
      <trkpt lat="42.93993" lon="0.8669">
        <ele>855</ele>
        <time>2022-08-28T09:16:24.000Z</time>
      </trkpt>
      <trkpt lat="42.93856" lon="0.8688">
        <ele>846</ele>
        <time>2022-08-28T09:16:59.000Z</time>
      </trkpt>
      <trkpt lat="42.93847" lon="0.86904">
        <ele>846</ele>
        <time>2022-08-28T09:17:02.000Z</time>
      </trkpt>
      <trkpt lat="42.93819" lon="0.87031">
        <ele>846</ele>
        <time>2022-08-28T09:17:20.000Z</time>
      </trkpt>
      <trkpt lat="42.93779" lon="0.87345">
        <ele>841</ele>
        <time>2022-08-28T09:18:01.000Z</time>
      </trkpt>
      <trkpt lat="42.93781" lon="0.87378">
        <ele>836</ele>
        <time>2022-08-28T09:18:06.000Z</time>
      </trkpt>
      <trkpt lat="42.93813" lon="0.87437">
        <ele>831</ele>
        <time>2022-08-28T09:18:15.000Z</time>
      </trkpt>
      <trkpt lat="42.93836" lon="0.87465">
        <ele>833</ele>
        <time>2022-08-28T09:18:21.000Z</time>
      </trkpt>
      <trkpt lat="42.93895" lon="0.87508">
        <ele>831</ele>
        <time>2022-08-28T09:18:33.000Z</time>
      </trkpt>
      <trkpt lat="42.93929" lon="0.87536">
        <ele>833</ele>
        <time>2022-08-28T09:18:40.000Z</time>
      </trkpt>
      <trkpt lat="42.94006" lon="0.87614">
        <ele>823</ele>
        <time>2022-08-28T09:18:57.000Z</time>
      </trkpt>
      <trkpt lat="42.94011" lon="0.87626">
        <ele>824</ele>
        <time>2022-08-28T09:18:59.000Z</time>
      </trkpt>
      <trkpt lat="42.94021" lon="0.87672">
        <ele>825</ele>
        <time>2022-08-28T09:19:05.000Z</time>
      </trkpt>
      <trkpt lat="42.94027" lon="0.87717">
        <ele>825</ele>
        <time>2022-08-28T09:19:11.000Z</time>
      </trkpt>
      <trkpt lat="42.94043" lon="0.8794">
        <ele>814</ele>
        <time>2022-08-28T09:19:40.000Z</time>
      </trkpt>
      <trkpt lat="42.94041" lon="0.88027">
        <ele>808</ele>
        <time>2022-08-28T09:19:51.000Z</time>
      </trkpt>
      <trkpt lat="42.93981" lon="0.88179">
        <ele>794</ele>
        <time>2022-08-28T09:20:14.000Z</time>
      </trkpt>
      <trkpt lat="42.93959" lon="0.88245">
        <ele>785</ele>
        <time>2022-08-28T09:20:23.000Z</time>
      </trkpt>
      <trkpt lat="42.93948" lon="0.88263">
        <ele>785</ele>
        <time>2022-08-28T09:20:26.000Z</time>
      </trkpt>
      <trkpt lat="42.93913" lon="0.88302">
        <ele>781</ele>
        <time>2022-08-28T09:20:34.000Z</time>
      </trkpt>
      <trkpt lat="42.93847" lon="0.88328">
        <ele>778</ele>
        <time>2022-08-28T09:20:47.000Z</time>
      </trkpt>
      <trkpt lat="42.93819" lon="0.8835">
        <ele>780</ele>
        <time>2022-08-28T09:20:52.000Z</time>
      </trkpt>
      <trkpt lat="42.9378" lon="0.88425">
        <ele>771</ele>
        <time>2022-08-28T09:21:04.000Z</time>
      </trkpt>
      <trkpt lat="42.93764" lon="0.88445">
        <ele>768</ele>
        <time>2022-08-28T09:21:08.000Z</time>
      </trkpt>
      <trkpt lat="42.93714" lon="0.88464">
        <ele>766</ele>
        <time>2022-08-28T09:21:17.000Z</time>
      </trkpt>
      <trkpt lat="42.93702" lon="0.88471">
        <ele>765</ele>
        <time>2022-08-28T09:21:20.000Z</time>
      </trkpt>
      <trkpt lat="42.93657" lon="0.88512">
        <ele>759</ele>
        <time>2022-08-28T09:21:29.000Z</time>
      </trkpt>
      <trkpt lat="42.93647" lon="0.88519">
        <ele>759</ele>
        <time>2022-08-28T09:21:31.000Z</time>
      </trkpt>
      <trkpt lat="42.93568" lon="0.88547">
        <ele>752</ele>
        <time>2022-08-28T09:21:46.000Z</time>
      </trkpt>
      <trkpt lat="42.93547" lon="0.88561">
        <ele>752</ele>
        <time>2022-08-28T09:21:50.000Z</time>
      </trkpt>
      <trkpt lat="42.9354" lon="0.88572">
        <ele>752</ele>
        <time>2022-08-28T09:21:52.000Z</time>
      </trkpt>
      <trkpt lat="42.93535" lon="0.88589">
        <ele>751</ele>
        <time>2022-08-28T09:21:54.000Z</time>
      </trkpt>
      <trkpt lat="42.93531" lon="0.88711">
        <ele>755</ele>
        <time>2022-08-28T09:22:10.000Z</time>
      </trkpt>
      <trkpt lat="42.93525" lon="0.88728">
        <ele>753</ele>
        <time>2022-08-28T09:22:13.000Z</time>
      </trkpt>
      <trkpt lat="42.9351" lon="0.88748">
        <ele>746</ele>
        <time>2022-08-28T09:22:17.000Z</time>
      </trkpt>
      <trkpt lat="42.93426" lon="0.88803">
        <ele>739</ele>
        <time>2022-08-28T09:22:33.000Z</time>
      </trkpt>
      <trkpt lat="42.9341" lon="0.88817">
        <ele>735</ele>
        <time>2022-08-28T09:22:37.000Z</time>
      </trkpt>
      <trkpt lat="42.93402" lon="0.88881">
        <ele>734</ele>
        <time>2022-08-28T09:22:45.000Z</time>
      </trkpt>
      <trkpt lat="42.93398" lon="0.88899">
        <ele>735</ele>
        <time>2022-08-28T09:22:48.000Z</time>
      </trkpt>
      <trkpt lat="42.93391" lon="0.88907">
        <ele>734</ele>
        <time>2022-08-28T09:22:49.000Z</time>
      </trkpt>
      <trkpt lat="42.93354" lon="0.88927">
        <ele>727</ele>
        <time>2022-08-28T09:22:56.000Z</time>
      </trkpt>
      <trkpt lat="42.93277" lon="0.88928">
        <ele>729</ele>
        <time>2022-08-28T09:23:10.000Z</time>
      </trkpt>
      <trkpt lat="42.93264" lon="0.88933">
        <ele>730</ele>
        <time>2022-08-28T09:23:13.000Z</time>
      </trkpt>
      <trkpt lat="42.9324" lon="0.88961">
        <ele>727</ele>
        <time>2022-08-28T09:23:18.000Z</time>
      </trkpt>
      <trkpt lat="42.93151" lon="0.89085">
        <ele>716</ele>
        <time>2022-08-28T09:23:41.000Z</time>
      </trkpt>
      <trkpt lat="42.93107" lon="0.89107">
        <ele>722</ele>
        <time>2022-08-28T09:23:49.000Z</time>
      </trkpt>
      <trkpt lat="42.93092" lon="0.89117">
        <ele>722</ele>
        <time>2022-08-28T09:23:52.000Z</time>
      </trkpt>
      <trkpt lat="42.93076" lon="0.89145">
        <ele>720</ele>
        <time>2022-08-28T09:23:57.000Z</time>
      </trkpt>
      <trkpt lat="42.93071" lon="0.89174">
        <ele>717</ele>
        <time>2022-08-28T09:24:01.000Z</time>
      </trkpt>
      <trkpt lat="42.93091" lon="0.89287">
        <ele>705</ele>
        <time>2022-08-28T09:24:16.000Z</time>
      </trkpt>
      <trkpt lat="42.93086" lon="0.89302">
        <ele>702</ele>
        <time>2022-08-28T09:24:18.000Z</time>
      </trkpt>
      <trkpt lat="42.93053" lon="0.89374">
        <ele>701</ele>
        <time>2022-08-28T09:24:29.000Z</time>
      </trkpt>
      <trkpt lat="42.9303" lon="0.89413">
        <ele>696</ele>
        <time>2022-08-28T09:24:36.000Z</time>
      </trkpt>
      <trkpt lat="42.92977" lon="0.89453">
        <ele>692</ele>
        <time>2022-08-28T09:24:47.000Z</time>
      </trkpt>
      <trkpt lat="42.92915" lon="0.89483">
        <ele>683</ele>
        <time>2022-08-28T09:24:58.000Z</time>
      </trkpt>
      <trkpt lat="42.92906" lon="0.89502">
        <ele>684</ele>
        <time>2022-08-28T09:25:01.000Z</time>
      </trkpt>
      <trkpt lat="42.92888" lon="0.8953">
        <ele>687</ele>
        <time>2022-08-28T09:25:06.000Z</time>
      </trkpt>
      <trkpt lat="42.9286" lon="0.89635">
        <ele>696</ele>
        <time>2022-08-28T09:25:21.000Z</time>
      </trkpt>
      <trkpt lat="42.92858" lon="0.89654">
        <ele>698</ele>
        <time>2022-08-28T09:25:23.000Z</time>
      </trkpt>
      <trkpt lat="42.92875" lon="0.89713">
        <ele>696</ele>
        <time>2022-08-28T09:25:31.000Z</time>
      </trkpt>
      <trkpt lat="42.92889" lon="0.89743">
        <ele>693</ele>
        <time>2022-08-28T09:25:36.000Z</time>
      </trkpt>
      <trkpt lat="42.92925" lon="0.89798">
        <ele>691</ele>
        <time>2022-08-28T09:25:46.000Z</time>
      </trkpt>
      <trkpt lat="42.92937" lon="0.89844">
        <ele>698</ele>
        <time>2022-08-28T09:25:52.000Z</time>
      </trkpt>
      <trkpt lat="42.92948" lon="0.8994">
        <ele>702</ele>
        <time>2022-08-28T09:26:05.000Z</time>
      </trkpt>
      <trkpt lat="42.92941" lon="0.90136">
        <ele>692</ele>
        <time>2022-08-28T09:26:30.000Z</time>
      </trkpt>
      <trkpt lat="42.92937" lon="0.9016">
        <ele>689</ele>
        <time>2022-08-28T09:26:33.000Z</time>
      </trkpt>
      <trkpt lat="42.92907" lon="0.90223">
        <ele>685</ele>
        <time>2022-08-28T09:26:43.000Z</time>
      </trkpt>
      <trkpt lat="42.92889" lon="0.90272">
        <ele>686</ele>
        <time>2022-08-28T09:26:50.000Z</time>
      </trkpt>
      <trkpt lat="42.92884" lon="0.90315">
        <ele>686</ele>
        <time>2022-08-28T09:26:56.000Z</time>
      </trkpt>
      <trkpt lat="42.92886" lon="0.90347">
        <ele>685</ele>
        <time>2022-08-28T09:27:00.000Z</time>
      </trkpt>
      <trkpt lat="42.92893" lon="0.90373">
        <ele>683</ele>
        <time>2022-08-28T09:27:04.000Z</time>
      </trkpt>
      <trkpt lat="42.92906" lon="0.90396">
        <ele>678</ele>
        <time>2022-08-28T09:27:08.000Z</time>
      </trkpt>
      <trkpt lat="42.93007" lon="0.905">
        <ele>677</ele>
        <time>2022-08-28T09:27:30.000Z</time>
      </trkpt>
      <trkpt lat="42.93011" lon="0.90512">
        <ele>679</ele>
        <time>2022-08-28T09:27:32.000Z</time>
      </trkpt>
      <trkpt lat="42.9301" lon="0.90531">
        <ele>681</ele>
        <time>2022-08-28T09:27:34.000Z</time>
      </trkpt>
      <trkpt lat="42.93003" lon="0.90546">
        <ele>681</ele>
        <time>2022-08-28T09:27:37.000Z</time>
      </trkpt>
      <trkpt lat="42.92942" lon="0.90645">
        <ele>676</ele>
        <time>2022-08-28T09:27:54.000Z</time>
      </trkpt>
      <trkpt lat="42.92934" lon="0.9067">
        <ele>674</ele>
        <time>2022-08-28T09:27:57.000Z</time>
      </trkpt>
      <trkpt lat="42.92931" lon="0.90696">
        <ele>672</ele>
        <time>2022-08-28T09:28:01.000Z</time>
      </trkpt>
      <trkpt lat="42.92938" lon="0.90737">
        <ele>672</ele>
        <time>2022-08-28T09:28:06.000Z</time>
      </trkpt>
      <trkpt lat="42.92973" lon="0.90801">
        <ele>680</ele>
        <time>2022-08-28T09:28:17.000Z</time>
      </trkpt>
      <trkpt lat="42.92971" lon="0.90816">
        <ele>678</ele>
        <time>2022-08-28T09:28:19.000Z</time>
      </trkpt>
      <trkpt lat="42.92963" lon="0.90849">
        <ele>675</ele>
        <time>2022-08-28T09:28:23.000Z</time>
      </trkpt>
      <trkpt lat="42.9294" lon="0.90916">
        <ele>674</ele>
        <time>2022-08-28T09:28:33.000Z</time>
      </trkpt>
      <trkpt lat="42.92886" lon="0.91028">
        <ele>672</ele>
        <time>2022-08-28T09:28:50.000Z</time>
      </trkpt>
      <trkpt lat="42.92882" lon="0.91046">
        <ele>671</ele>
        <time>2022-08-28T09:28:53.000Z</time>
      </trkpt>
      <trkpt lat="42.92892" lon="0.91132">
        <ele>672</ele>
        <time>2022-08-28T09:29:04.000Z</time>
      </trkpt>
      <trkpt lat="42.92901" lon="0.91231">
        <ele>668</ele>
        <time>2022-08-28T09:29:17.000Z</time>
      </trkpt>
      <trkpt lat="42.92927" lon="0.91323">
        <ele>666</ele>
        <time>2022-08-28T09:29:30.000Z</time>
      </trkpt>
      <trkpt lat="42.92928" lon="0.91436">
        <ele>656</ele>
        <time>2022-08-28T09:29:45.000Z</time>
      </trkpt>
      <trkpt lat="42.92932" lon="0.91454">
        <ele>655</ele>
        <time>2022-08-28T09:29:47.000Z</time>
      </trkpt>
      <trkpt lat="42.92941" lon="0.91475">
        <ele>654</ele>
        <time>2022-08-28T09:29:50.000Z</time>
      </trkpt>
      <trkpt lat="42.92985" lon="0.91541">
        <ele>651</ele>
        <time>2022-08-28T09:30:02.000Z</time>
      </trkpt>
      <trkpt lat="42.93002" lon="0.91557">
        <ele>649</ele>
        <time>2022-08-28T09:30:06.000Z</time>
      </trkpt>
      <trkpt lat="42.93091" lon="0.9158">
        <ele>641</ele>
        <time>2022-08-28T09:30:22.000Z</time>
      </trkpt>
      <trkpt lat="42.93124" lon="0.9159">
        <ele>641</ele>
        <time>2022-08-28T09:30:28.000Z</time>
      </trkpt>
      <trkpt lat="42.93184" lon="0.91619">
        <ele>645</ele>
        <time>2022-08-28T09:30:39.000Z</time>
      </trkpt>
      <trkpt lat="42.93207" lon="0.91648">
        <ele>651</ele>
        <time>2022-08-28T09:30:45.000Z</time>
      </trkpt>
      <trkpt lat="42.93213" lon="0.91661">
        <ele>651</ele>
        <time>2022-08-28T09:30:47.000Z</time>
      </trkpt>
      <trkpt lat="42.93218" lon="0.91692">
        <ele>651</ele>
        <time>2022-08-28T09:30:51.000Z</time>
      </trkpt>
      <trkpt lat="42.93214" lon="0.9178">
        <ele>646</ele>
        <time>2022-08-28T09:31:02.000Z</time>
      </trkpt>
      <trkpt lat="42.93222" lon="0.91848">
        <ele>643</ele>
        <time>2022-08-28T09:31:11.000Z</time>
      </trkpt>
      <trkpt lat="42.93264" lon="0.92011">
        <ele>644</ele>
        <time>2022-08-28T09:31:34.000Z</time>
      </trkpt>
      <trkpt lat="42.9327" lon="0.92052">
        <ele>644</ele>
        <time>2022-08-28T09:31:39.000Z</time>
      </trkpt>
      <trkpt lat="42.93268" lon="0.92129">
        <ele>639</ele>
        <time>2022-08-28T09:31:49.000Z</time>
      </trkpt>
      <trkpt lat="42.93261" lon="0.92207">
        <ele>636</ele>
        <time>2022-08-28T09:32:00.000Z</time>
      </trkpt>
      <trkpt lat="42.93206" lon="0.92498">
        <ele>642</ele>
        <time>2022-08-28T09:32:39.000Z</time>
      </trkpt>
      <trkpt lat="42.93185" lon="0.92658">
        <ele>641</ele>
        <time>2022-08-28T09:33:00.000Z</time>
      </trkpt>
      <trkpt lat="42.93188" lon="0.92696">
        <ele>642</ele>
        <time>2022-08-28T09:33:05.000Z</time>
      </trkpt>
      <trkpt lat="42.93205" lon="0.92739">
        <ele>647</ele>
        <time>2022-08-28T09:33:11.000Z</time>
      </trkpt>
      <trkpt lat="42.93203" lon="0.9276">
        <ele>647</ele>
        <time>2022-08-28T09:33:14.000Z</time>
      </trkpt>
      <trkpt lat="42.93179" lon="0.92792">
        <ele>647</ele>
        <time>2022-08-28T09:33:20.000Z</time>
      </trkpt>
      <trkpt lat="42.9312" lon="0.9285">
        <ele>646</ele>
        <time>2022-08-28T09:33:33.000Z</time>
      </trkpt>
      <trkpt lat="42.93056" lon="0.92865">
        <ele>642</ele>
        <time>2022-08-28T09:33:45.000Z</time>
      </trkpt>
      <trkpt lat="42.9302" lon="0.92884">
        <ele>643</ele>
        <time>2022-08-28T09:33:52.000Z</time>
      </trkpt>
      <trkpt lat="42.93" lon="0.929">
        <ele>644</ele>
        <time>2022-08-28T09:33:56.000Z</time>
      </trkpt>
      <trkpt lat="42.92981" lon="0.92935">
        <ele>644</ele>
        <time>2022-08-28T09:34:01.000Z</time>
      </trkpt>
      <trkpt lat="42.92979" lon="0.92969">
        <ele>645</ele>
        <time>2022-08-28T09:34:06.000Z</time>
      </trkpt>
      <trkpt lat="42.93" lon="0.93034">
        <ele>650</ele>
        <time>2022-08-28T09:34:15.000Z</time>
      </trkpt>
      <trkpt lat="42.93096" lon="0.93195">
        <ele>650</ele>
        <time>2022-08-28T09:34:42.000Z</time>
      </trkpt>
      <trkpt lat="42.93219" lon="0.9333">
        <ele>650</ele>
        <time>2022-08-28T09:35:10.000Z</time>
      </trkpt>
      <trkpt lat="42.93401" lon="0.93681">
        <ele>656</ele>
        <time>2022-08-28T09:36:06.000Z</time>
      </trkpt>
      <trkpt lat="42.93412" lon="0.93723">
        <ele>656</ele>
        <time>2022-08-28T09:36:12.000Z</time>
      </trkpt>
      <trkpt lat="42.93433" lon="0.93985">
        <ele>644</ele>
        <time>2022-08-28T09:36:47.000Z</time>
      </trkpt>
      <trkpt lat="42.93463" lon="0.94073">
        <ele>642</ele>
        <time>2022-08-28T09:36:59.000Z</time>
      </trkpt>
      <trkpt lat="42.9348" lon="0.94107">
        <ele>639</ele>
        <time>2022-08-28T09:37:05.000Z</time>
      </trkpt>
      <trkpt lat="42.93491" lon="0.94123">
        <ele>637</ele>
        <time>2022-08-28T09:37:08.000Z</time>
      </trkpt>
      <trkpt lat="42.935" lon="0.94128">
        <ele>637</ele>
        <time>2022-08-28T09:37:09.000Z</time>
      </trkpt>
      <trkpt lat="42.93603" lon="0.94133">
        <ele>642</ele>
        <time>2022-08-28T09:37:28.000Z</time>
      </trkpt>
      <trkpt lat="42.93612" lon="0.94142">
        <ele>640</ele>
        <time>2022-08-28T09:37:30.000Z</time>
      </trkpt>
      <trkpt lat="42.93616" lon="0.94165">
        <ele>635</ele>
        <time>2022-08-28T09:37:33.000Z</time>
      </trkpt>
      <trkpt lat="42.9361" lon="0.94189">
        <ele>634</ele>
        <time>2022-08-28T09:37:36.000Z</time>
      </trkpt>
      <trkpt lat="42.93539" lon="0.94346">
        <ele>627</ele>
        <time>2022-08-28T09:38:00.000Z</time>
      </trkpt>
      <trkpt lat="42.93526" lon="0.94386">
        <ele>624</ele>
        <time>2022-08-28T09:38:06.000Z</time>
      </trkpt>
      <trkpt lat="42.93529" lon="0.9448">
        <ele>623</ele>
        <time>2022-08-28T09:38:18.000Z</time>
      </trkpt>
      <trkpt lat="42.93537" lon="0.94572">
        <ele>619</ele>
        <time>2022-08-28T09:38:30.000Z</time>
      </trkpt>
      <trkpt lat="42.93562" lon="0.94648">
        <ele>612</ele>
        <time>2022-08-28T09:38:41.000Z</time>
      </trkpt>
      <trkpt lat="42.9358" lon="0.94678">
        <ele>609</ele>
        <time>2022-08-28T09:38:46.000Z</time>
      </trkpt>
      <trkpt lat="42.93695" lon="0.94776">
        <ele>615</ele>
        <time>2022-08-28T09:39:10.000Z</time>
      </trkpt>
      <trkpt lat="42.93705" lon="0.94791">
        <ele>615</ele>
        <time>2022-08-28T09:39:13.000Z</time>
      </trkpt>
      <trkpt lat="42.93711" lon="0.94807">
        <ele>614</ele>
        <time>2022-08-28T09:39:15.000Z</time>
      </trkpt>
      <trkpt lat="42.93738" lon="0.94994">
        <ele>602</ele>
        <time>2022-08-28T09:39:40.000Z</time>
      </trkpt>
      <trkpt lat="42.93737" lon="0.95085">
        <ele>595</ele>
        <time>2022-08-28T09:39:52.000Z</time>
      </trkpt>
      <trkpt lat="42.93739" lon="0.95111">
        <ele>594</ele>
        <time>2022-08-28T09:39:55.000Z</time>
      </trkpt>
      <trkpt lat="42.93781" lon="0.95209">
        <ele>601</ele>
        <time>2022-08-28T09:40:10.000Z</time>
      </trkpt>
      <trkpt lat="42.93789" lon="0.95264">
        <ele>599</ele>
        <time>2022-08-28T09:40:18.000Z</time>
      </trkpt>
      <trkpt lat="42.93787" lon="0.95293">
        <ele>596</ele>
        <time>2022-08-28T09:40:21.000Z</time>
      </trkpt>
      <trkpt lat="42.93778" lon="0.95329">
        <ele>592</ele>
        <time>2022-08-28T09:40:26.000Z</time>
      </trkpt>
      <trkpt lat="42.9373" lon="0.95399">
        <ele>591</ele>
        <time>2022-08-28T09:40:39.000Z</time>
      </trkpt>
      <trkpt lat="42.93662" lon="0.95531">
        <ele>584</ele>
        <time>2022-08-28T09:41:00.000Z</time>
      </trkpt>
      <trkpt lat="42.93657" lon="0.9556">
        <ele>585</ele>
        <time>2022-08-28T09:41:04.000Z</time>
      </trkpt>
      <trkpt lat="42.93658" lon="0.95588">
        <ele>586</ele>
        <time>2022-08-28T09:41:07.000Z</time>
      </trkpt>
      <trkpt lat="42.93664" lon="0.95613">
        <ele>585</ele>
        <time>2022-08-28T09:41:11.000Z</time>
      </trkpt>
      <trkpt lat="42.9371" lon="0.95699">
        <ele>594</ele>
        <time>2022-08-28T09:41:25.000Z</time>
      </trkpt>
      <trkpt lat="42.9372" lon="0.95731">
        <ele>596</ele>
        <time>2022-08-28T09:41:29.000Z</time>
      </trkpt>
      <trkpt lat="42.93725" lon="0.95763">
        <ele>596</ele>
        <time>2022-08-28T09:41:34.000Z</time>
      </trkpt>
      <trkpt lat="42.93726" lon="0.9581">
        <ele>595</ele>
        <time>2022-08-28T09:41:40.000Z</time>
      </trkpt>
      <trkpt lat="42.9372" lon="0.95918">
        <ele>588</ele>
        <time>2022-08-28T09:41:54.000Z</time>
      </trkpt>
      <trkpt lat="42.93719" lon="0.96158">
        <ele>577</ele>
        <time>2022-08-28T09:42:25.000Z</time>
      </trkpt>
      <trkpt lat="42.93701" lon="0.96217">
        <ele>573</ele>
        <time>2022-08-28T09:42:33.000Z</time>
      </trkpt>
      <trkpt lat="42.93687" lon="0.96237">
        <ele>571</ele>
        <time>2022-08-28T09:42:37.000Z</time>
      </trkpt>
      <trkpt lat="42.93621" lon="0.96284">
        <ele>572</ele>
        <time>2022-08-28T09:42:50.000Z</time>
      </trkpt>
      <trkpt lat="42.93619" lon="0.96295">
        <ele>572</ele>
        <time>2022-08-28T09:42:52.000Z</time>
      </trkpt>
      <trkpt lat="42.93662" lon="0.96365">
        <ele>568</ele>
        <time>2022-08-28T09:43:04.000Z</time>
      </trkpt>
      <trkpt lat="42.93678" lon="0.96421">
        <ele>568</ele>
        <time>2022-08-28T09:43:12.000Z</time>
      </trkpt>
      <trkpt lat="42.93694" lon="0.9652">
        <ele>567</ele>
        <time>2022-08-28T09:43:25.000Z</time>
      </trkpt>
      <trkpt lat="42.93705" lon="0.96725">
        <ele>568</ele>
        <time>2022-08-28T09:43:52.000Z</time>
      </trkpt>
      <trkpt lat="42.93704" lon="0.96752">
        <ele>567</ele>
        <time>2022-08-28T09:43:55.000Z</time>
      </trkpt>
      <trkpt lat="42.93551" lon="0.97501">
        <ele>554</ele>
        <time>2022-08-28T09:45:36.000Z</time>
      </trkpt>
      <trkpt lat="42.93521" lon="0.97604">
        <ele>557</ele>
        <time>2022-08-28T09:45:51.000Z</time>
      </trkpt>
      <trkpt lat="42.93512" lon="0.97626">
        <ele>558</ele>
        <time>2022-08-28T09:45:54.000Z</time>
      </trkpt>
      <trkpt lat="42.93503" lon="0.97638">
        <ele>558</ele>
        <time>2022-08-28T09:45:56.000Z</time>
      </trkpt>
      <trkpt lat="42.93456" lon="0.97683">
        <ele>556</ele>
        <time>2022-08-28T09:46:07.000Z</time>
      </trkpt>
      <trkpt lat="42.93424" lon="0.97727">
        <ele>555</ele>
        <time>2022-08-28T09:46:15.000Z</time>
      </trkpt>
      <trkpt lat="42.93354" lon="0.97848">
        <ele>554</ele>
        <time>2022-08-28T09:46:35.000Z</time>
      </trkpt>
      <trkpt lat="42.93344" lon="0.97871">
        <ele>554</ele>
        <time>2022-08-28T09:46:38.000Z</time>
      </trkpt>
      <trkpt lat="42.93324" lon="0.97957">
        <ele>555</ele>
        <time>2022-08-28T09:46:50.000Z</time>
      </trkpt>
      <trkpt lat="42.93288" lon="0.98176">
        <ele>557</ele>
        <time>2022-08-28T09:47:19.000Z</time>
      </trkpt>
      <trkpt lat="42.93238" lon="0.98319">
        <ele>550</ele>
        <time>2022-08-28T09:47:40.000Z</time>
      </trkpt>
      <trkpt lat="42.93229" lon="0.98353">
        <ele>549</ele>
        <time>2022-08-28T09:47:45.000Z</time>
      </trkpt>
      <trkpt lat="42.93206" lon="0.98515">
        <ele>547</ele>
        <time>2022-08-28T09:48:06.000Z</time>
      </trkpt>
      <trkpt lat="42.93207" lon="0.98583">
        <ele>546</ele>
        <time>2022-08-28T09:48:15.000Z</time>
      </trkpt>
      <trkpt lat="42.93217" lon="0.98701">
        <ele>547</ele>
        <time>2022-08-28T09:48:30.000Z</time>
      </trkpt>
      <trkpt lat="42.9321" lon="0.98791">
        <ele>546</ele>
        <time>2022-08-28T09:48:42.000Z</time>
      </trkpt>
      <trkpt lat="42.93209" lon="0.98846">
        <ele>547</ele>
        <time>2022-08-28T09:48:49.000Z</time>
      </trkpt>
      <trkpt lat="42.9322" lon="0.98942">
        <ele>547</ele>
        <time>2022-08-28T09:49:02.000Z</time>
      </trkpt>
      <trkpt lat="42.93233" lon="0.99023">
        <ele>546</ele>
        <time>2022-08-28T09:49:13.000Z</time>
      </trkpt>
      <trkpt lat="42.93222" lon="0.99108">
        <ele>544</ele>
        <time>2022-08-28T09:49:24.000Z</time>
      </trkpt>
      <trkpt lat="42.93212" lon="0.99185">
        <ele>543</ele>
        <time>2022-08-28T09:49:34.000Z</time>
      </trkpt>
      <trkpt lat="42.93191" lon="0.99216">
        <ele>542</ele>
        <time>2022-08-28T09:49:40.000Z</time>
      </trkpt>
      <trkpt lat="42.9313" lon="0.9924">
        <ele>539</ele>
        <time>2022-08-28T09:49:51.000Z</time>
      </trkpt>
      <trkpt lat="42.93088" lon="0.99293">
        <ele>536</ele>
        <time>2022-08-28T09:50:01.000Z</time>
      </trkpt>
      <trkpt lat="42.93044" lon="0.99337">
        <ele>534</ele>
        <time>2022-08-28T09:50:11.000Z</time>
      </trkpt>
      <trkpt lat="42.93012" lon="0.99492">
        <ele>535</ele>
        <time>2022-08-28T09:50:32.000Z</time>
      </trkpt>
      <trkpt lat="42.92998" lon="0.99526">
        <ele>536</ele>
        <time>2022-08-28T09:50:37.000Z</time>
      </trkpt>
      <trkpt lat="42.92913" lon="0.99642">
        <ele>536</ele>
        <time>2022-08-28T09:50:59.000Z</time>
      </trkpt>
      <trkpt lat="42.92843" lon="0.99744">
        <ele>536</ele>
        <time>2022-08-28T09:51:17.000Z</time>
      </trkpt>
      <trkpt lat="42.9282" lon="0.99784">
        <ele>537</ele>
        <time>2022-08-28T09:51:24.000Z</time>
      </trkpt>
      <trkpt lat="42.92752" lon="0.99922">
        <ele>534</ele>
        <time>2022-08-28T09:51:45.000Z</time>
      </trkpt>
      <trkpt lat="42.92711" lon="0.99984">
        <ele>536</ele>
        <time>2022-08-28T09:51:56.000Z</time>
      </trkpt>
      <trkpt lat="42.92616" lon="1.00138">
        <ele>534</ele>
        <time>2022-08-28T09:52:22.000Z</time>
      </trkpt>
      <trkpt lat="42.92578" lon="1.00273">
        <ele>531</ele>
        <time>2022-08-28T09:52:41.000Z</time>
      </trkpt>
      <trkpt lat="42.92551" lon="1.00423">
        <ele>533</ele>
        <time>2022-08-28T09:53:01.000Z</time>
      </trkpt>
      <trkpt lat="42.92542" lon="1.00553">
        <ele>531</ele>
        <time>2022-08-28T09:53:18.000Z</time>
      </trkpt>
      <trkpt lat="42.92541" lon="1.00606">
        <ele>530</ele>
        <time>2022-08-28T09:53:25.000Z</time>
      </trkpt>
      <trkpt lat="42.92574" lon="1.0107">
        <ele>523</ele>
        <time>2022-08-28T09:54:26.000Z</time>
      </trkpt>
      <trkpt lat="42.92589" lon="1.01151">
        <ele>521</ele>
        <time>2022-08-28T09:54:37.000Z</time>
      </trkpt>
      <trkpt lat="42.92604" lon="1.01217">
        <ele>522</ele>
        <time>2022-08-28T09:54:46.000Z</time>
      </trkpt>
      <trkpt lat="42.92659" lon="1.01377">
        <ele>520</ele>
        <time>2022-08-28T09:55:09.000Z</time>
      </trkpt>
      <trkpt lat="42.92747" lon="1.01555">
        <ele>520</ele>
        <time>2022-08-28T09:55:37.000Z</time>
      </trkpt>
      <trkpt lat="42.92752" lon="1.01581">
        <ele>519</ele>
        <time>2022-08-28T09:55:41.000Z</time>
      </trkpt>
      <trkpt lat="42.92748" lon="1.01618">
        <ele>521</ele>
        <time>2022-08-28T09:55:45.000Z</time>
      </trkpt>
      <trkpt lat="42.92738" lon="1.01647">
        <ele>522</ele>
        <time>2022-08-28T09:55:50.000Z</time>
      </trkpt>
      <trkpt lat="42.927" lon="1.01715">
        <ele>521</ele>
        <time>2022-08-28T09:56:01.000Z</time>
      </trkpt>
      <trkpt lat="42.9267" lon="1.01811">
        <ele>518</ele>
        <time>2022-08-28T09:56:14.000Z</time>
      </trkpt>
      <trkpt lat="42.92663" lon="1.01881">
        <ele>518</ele>
        <time>2022-08-28T09:56:24.000Z</time>
      </trkpt>
      <trkpt lat="42.92674" lon="1.0203">
        <ele>519</ele>
        <time>2022-08-28T09:56:43.000Z</time>
      </trkpt>
      <trkpt lat="42.92678" lon="1.0205">
        <ele>520</ele>
        <time>2022-08-28T09:56:46.000Z</time>
      </trkpt>
      <trkpt lat="42.92697" lon="1.02093">
        <ele>521</ele>
        <time>2022-08-28T09:56:52.000Z</time>
      </trkpt>
      <trkpt lat="42.92794" lon="1.0227">
        <ele>519</ele>
        <time>2022-08-28T09:57:21.000Z</time>
      </trkpt>
      <trkpt lat="42.92807" lon="1.02304">
        <ele>519</ele>
        <time>2022-08-28T09:57:26.000Z</time>
      </trkpt>
      <trkpt lat="42.92809" lon="1.0233">
        <ele>520</ele>
        <time>2022-08-28T09:57:30.000Z</time>
      </trkpt>
      <trkpt lat="42.92808" lon="1.02363">
        <ele>519</ele>
        <time>2022-08-28T09:57:34.000Z</time>
      </trkpt>
      <trkpt lat="42.92781" lon="1.02459">
        <ele>516</ele>
        <time>2022-08-28T09:57:47.000Z</time>
      </trkpt>
      <trkpt lat="42.92784" lon="1.02549">
        <ele>512</ele>
        <time>2022-08-28T09:57:59.000Z</time>
      </trkpt>
      <trkpt lat="42.92871" lon="1.02916">
        <ele>526</ele>
        <time>2022-08-28T09:58:49.000Z</time>
      </trkpt>
      <trkpt lat="42.92883" lon="1.02977">
        <ele>533</ele>
        <time>2022-08-28T09:58:57.000Z</time>
      </trkpt>
      <trkpt lat="42.93204" lon="1.02835">
        <ele>521</ele>
        <time>2022-08-28T09:59:58.000Z</time>
      </trkpt>
      <trkpt lat="42.93329" lon="1.02783">
        <ele>518</ele>
        <time>2022-08-28T10:00:21.000Z</time>
      </trkpt>
      <trkpt lat="42.93398" lon="1.02792">
        <ele>517</ele>
        <time>2022-08-28T10:00:33.000Z</time>
      </trkpt>
      <trkpt lat="42.93578" lon="1.02899">
        <ele>515</ele>
        <time>2022-08-28T10:01:08.000Z</time>
      </trkpt>
      <trkpt lat="42.93613" lon="1.0293">
        <ele>513</ele>
        <time>2022-08-28T10:01:16.000Z</time>
      </trkpt>
      <trkpt lat="42.93693" lon="1.03042">
        <ele>511</ele>
        <time>2022-08-28T10:01:36.000Z</time>
      </trkpt>
      <trkpt lat="42.93739" lon="1.03164">
        <ele>510</ele>
        <time>2022-08-28T10:01:54.000Z</time>
      </trkpt>
      <trkpt lat="42.93758" lon="1.03202">
        <ele>510</ele>
        <time>2022-08-28T10:02:00.000Z</time>
      </trkpt>
      <trkpt lat="42.93784" lon="1.03233">
        <ele>510</ele>
        <time>2022-08-28T10:02:06.000Z</time>
      </trkpt>
      <trkpt lat="42.93787" lon="1.0324">
        <ele>510</ele>
        <time>2022-08-28T10:02:07.000Z</time>
      </trkpt>
      <trkpt lat="42.93841" lon="1.03283">
        <ele>509</ele>
        <time>2022-08-28T10:02:18.000Z</time>
      </trkpt>
      <trkpt lat="42.93867" lon="1.03311">
        <ele>508</ele>
        <time>2022-08-28T10:02:24.000Z</time>
      </trkpt>
      <trkpt lat="42.93917" lon="1.03404">
        <ele>504</ele>
        <time>2022-08-28T10:02:39.000Z</time>
      </trkpt>
      <trkpt lat="42.93923" lon="1.03409">
        <ele>504</ele>
        <time>2022-08-28T10:02:40.000Z</time>
      </trkpt>
      <trkpt lat="42.93981" lon="1.03538">
        <ele>507</ele>
        <time>2022-08-28T10:03:00.000Z</time>
      </trkpt>
      <trkpt lat="42.93993" lon="1.03554">
        <ele>506</ele>
        <time>2022-08-28T10:03:03.000Z</time>
      </trkpt>
      <trkpt lat="42.94035" lon="1.03591">
        <ele>504</ele>
        <time>2022-08-28T10:03:12.000Z</time>
      </trkpt>
      <trkpt lat="42.94053" lon="1.0361">
        <ele>503</ele>
        <time>2022-08-28T10:03:16.000Z</time>
      </trkpt>
      <trkpt lat="42.94104" lon="1.03685">
        <ele>502</ele>
        <time>2022-08-28T10:03:29.000Z</time>
      </trkpt>
      <trkpt lat="42.94121" lon="1.03705">
        <ele>502</ele>
        <time>2022-08-28T10:03:33.000Z</time>
      </trkpt>
      <trkpt lat="42.94346" lon="1.03857">
        <ele>497</ele>
        <time>2022-08-28T10:04:18.000Z</time>
      </trkpt>
      <trkpt lat="42.945" lon="1.0408">
        <ele>494</ele>
        <time>2022-08-28T10:04:58.000Z</time>
      </trkpt>
      <trkpt lat="42.94578" lon="1.0425">
        <ele>489</ele>
        <time>2022-08-28T10:05:24.000Z</time>
      </trkpt>
      <trkpt lat="42.94591" lon="1.04281">
        <ele>489</ele>
        <time>2022-08-28T10:05:29.000Z</time>
      </trkpt>
      <trkpt lat="42.94611" lon="1.04367">
        <ele>490</ele>
        <time>2022-08-28T10:05:41.000Z</time>
      </trkpt>
      <trkpt lat="42.94615" lon="1.04376">
        <ele>489</ele>
        <time>2022-08-28T10:05:42.000Z</time>
      </trkpt>
      <trkpt lat="42.94626" lon="1.04559">
        <ele>488</ele>
        <time>2022-08-28T10:06:06.000Z</time>
      </trkpt>
      <trkpt lat="42.94639" lon="1.04681">
        <ele>487</ele>
        <time>2022-08-28T10:06:22.000Z</time>
      </trkpt>
      <trkpt lat="42.94701" lon="1.04916">
        <ele>484</ele>
        <time>2022-08-28T10:06:55.000Z</time>
      </trkpt>
      <trkpt lat="42.94706" lon="1.04945">
        <ele>483</ele>
        <time>2022-08-28T10:06:58.000Z</time>
      </trkpt>
      <trkpt lat="42.94707" lon="1.0497">
        <ele>482</ele>
        <time>2022-08-28T10:07:02.000Z</time>
      </trkpt>
      <trkpt lat="42.94703" lon="1.05018">
        <ele>482</ele>
        <time>2022-08-28T10:07:08.000Z</time>
      </trkpt>
      <trkpt lat="42.94681" lon="1.05096">
        <ele>482</ele>
        <time>2022-08-28T10:07:19.000Z</time>
      </trkpt>
      <trkpt lat="42.94672" lon="1.05147">
        <ele>479</ele>
        <time>2022-08-28T10:07:26.000Z</time>
      </trkpt>
      <trkpt lat="42.94679" lon="1.05226">
        <ele>477</ele>
        <time>2022-08-28T10:07:36.000Z</time>
      </trkpt>
      <trkpt lat="42.94693" lon="1.05341">
        <ele>476</ele>
        <time>2022-08-28T10:07:51.000Z</time>
      </trkpt>
      <trkpt lat="42.94734" lon="1.0551">
        <ele>471</ele>
        <time>2022-08-28T10:08:14.000Z</time>
      </trkpt>
      <trkpt lat="42.9474" lon="1.05648">
        <ele>468</ele>
        <time>2022-08-28T10:08:32.000Z</time>
      </trkpt>
      <trkpt lat="42.94746" lon="1.0569">
        <ele>467</ele>
        <time>2022-08-28T10:08:38.000Z</time>
      </trkpt>
      <trkpt lat="42.94756" lon="1.05724">
        <ele>467</ele>
        <time>2022-08-28T10:08:43.000Z</time>
      </trkpt>
      <trkpt lat="42.9477" lon="1.05758">
        <ele>466</ele>
        <time>2022-08-28T10:08:48.000Z</time>
      </trkpt>
      <trkpt lat="42.94827" lon="1.05857">
        <ele>465</ele>
        <time>2022-08-28T10:09:05.000Z</time>
      </trkpt>
      <trkpt lat="42.94837" lon="1.05892">
        <ele>466</ele>
        <time>2022-08-28T10:09:09.000Z</time>
      </trkpt>
      <trkpt lat="42.94775" lon="1.0618">
        <ele>461</ele>
        <time>2022-08-28T10:09:49.000Z</time>
      </trkpt>
      <trkpt lat="42.94774" lon="1.06198">
        <ele>461</ele>
        <time>2022-08-28T10:09:51.000Z</time>
      </trkpt>
      <trkpt lat="42.94795" lon="1.06306">
        <ele>461</ele>
        <time>2022-08-28T10:10:06.000Z</time>
      </trkpt>
      <trkpt lat="42.94823" lon="1.06572">
        <ele>462</ele>
        <time>2022-08-28T10:10:41.000Z</time>
      </trkpt>
      <trkpt lat="42.9483" lon="1.068">
        <ele>457</ele>
        <time>2022-08-28T10:11:10.000Z</time>
      </trkpt>
      <trkpt lat="42.94829" lon="1.06857">
        <ele>457</ele>
        <time>2022-08-28T10:11:18.000Z</time>
      </trkpt>
      <trkpt lat="42.94864" lon="1.07068">
        <ele>455</ele>
        <time>2022-08-28T10:11:46.000Z</time>
      </trkpt>
      <trkpt lat="42.94876" lon="1.071">
        <ele>455</ele>
        <time>2022-08-28T10:11:51.000Z</time>
      </trkpt>
      <trkpt lat="42.94884" lon="1.07116">
        <ele>455</ele>
        <time>2022-08-28T10:11:53.000Z</time>
      </trkpt>
      <trkpt lat="42.94915" lon="1.07163">
        <ele>454</ele>
        <time>2022-08-28T10:12:01.000Z</time>
      </trkpt>
      <trkpt lat="42.94981" lon="1.07229">
        <ele>454</ele>
        <time>2022-08-28T10:12:16.000Z</time>
      </trkpt>
      <trkpt lat="42.94994" lon="1.07249">
        <ele>453</ele>
        <time>2022-08-28T10:12:19.000Z</time>
      </trkpt>
      <trkpt lat="42.95092" lon="1.07455">
        <ele>451</ele>
        <time>2022-08-28T10:12:51.000Z</time>
      </trkpt>
      <trkpt lat="42.95109" lon="1.07484">
        <ele>450</ele>
        <time>2022-08-28T10:12:56.000Z</time>
      </trkpt>
      <trkpt lat="42.95323" lon="1.07761">
        <ele>449</ele>
        <time>2022-08-28T10:13:49.000Z</time>
      </trkpt>
      <trkpt lat="42.95371" lon="1.07836">
        <ele>447</ele>
        <time>2022-08-28T10:14:02.000Z</time>
      </trkpt>
      <trkpt lat="42.95419" lon="1.07923">
        <ele>445</ele>
        <time>2022-08-28T10:14:16.000Z</time>
      </trkpt>
      <trkpt lat="42.95437" lon="1.07987">
        <ele>444</ele>
        <time>2022-08-28T10:14:25.000Z</time>
      </trkpt>
      <trkpt lat="42.9546" lon="1.08039">
        <ele>445</ele>
        <time>2022-08-28T10:14:33.000Z</time>
      </trkpt>
      <trkpt lat="42.9559" lon="1.08308">
        <ele>441</ele>
        <time>2022-08-28T10:15:15.000Z</time>
      </trkpt>
      <trkpt lat="42.95657" lon="1.08408">
        <ele>439</ele>
        <time>2022-08-28T10:15:33.000Z</time>
      </trkpt>
      <trkpt lat="42.95677" lon="1.08432">
        <ele>439</ele>
        <time>2022-08-28T10:15:37.000Z</time>
      </trkpt>
      <trkpt lat="42.95699" lon="1.08448">
        <ele>439</ele>
        <time>2022-08-28T10:15:42.000Z</time>
      </trkpt>
      <trkpt lat="42.95806" lon="1.08488">
        <ele>439</ele>
        <time>2022-08-28T10:16:01.000Z</time>
      </trkpt>
      <trkpt lat="42.95818" lon="1.08498">
        <ele>438</ele>
        <time>2022-08-28T10:16:04.000Z</time>
      </trkpt>
      <trkpt lat="42.95841" lon="1.08524">
        <ele>438</ele>
        <time>2022-08-28T10:16:09.000Z</time>
      </trkpt>
      <trkpt lat="42.95849" lon="1.08537">
        <ele>438</ele>
        <time>2022-08-28T10:16:11.000Z</time>
      </trkpt>
      <trkpt lat="42.95888" lon="1.08629">
        <ele>438</ele>
        <time>2022-08-28T10:16:25.000Z</time>
      </trkpt>
      <trkpt lat="42.95907" lon="1.08645">
        <ele>438</ele>
        <time>2022-08-28T10:16:29.000Z</time>
      </trkpt>
      <trkpt lat="42.96009" lon="1.08684">
        <ele>439</ele>
        <time>2022-08-28T10:16:48.000Z</time>
      </trkpt>
      <trkpt lat="42.96048" lon="1.08698">
        <ele>441</ele>
        <time>2022-08-28T10:16:55.000Z</time>
      </trkpt>
      <trkpt lat="42.96077" lon="1.0873">
        <ele>441</ele>
        <time>2022-08-28T10:17:02.000Z</time>
      </trkpt>
      <trkpt lat="42.96134" lon="1.08819">
        <ele>446</ele>
        <time>2022-08-28T10:17:17.000Z</time>
      </trkpt>
      <trkpt lat="42.96142" lon="1.08836">
        <ele>446</ele>
        <time>2022-08-28T10:17:20.000Z</time>
      </trkpt>
      <trkpt lat="42.96152" lon="1.0887">
        <ele>446</ele>
        <time>2022-08-28T10:17:25.000Z</time>
      </trkpt>
      <trkpt lat="42.96162" lon="1.08985">
        <ele>443</ele>
        <time>2022-08-28T10:17:40.000Z</time>
      </trkpt>
      <trkpt lat="42.96184" lon="1.0911">
        <ele>443</ele>
        <time>2022-08-28T10:17:57.000Z</time>
      </trkpt>
      <trkpt lat="42.96235" lon="1.09255">
        <ele>435</ele>
        <time>2022-08-28T10:18:18.000Z</time>
      </trkpt>
      <trkpt lat="42.96235" lon="1.09266">
        <ele>434</ele>
        <time>2022-08-28T10:18:20.000Z</time>
      </trkpt>
      <trkpt lat="42.96246" lon="1.09272">
        <ele>435</ele>
        <time>2022-08-28T10:18:22.000Z</time>
      </trkpt>
      <trkpt lat="42.96248" lon="1.09269">
        <ele>435</ele>
        <time>2022-08-28T10:18:23.000Z</time>
      </trkpt>
      <trkpt lat="42.96302" lon="1.09322">
        <ele>434</ele>
        <time>2022-08-28T10:18:35.000Z</time>
      </trkpt>
      <trkpt lat="42.96321" lon="1.09348">
        <ele>434</ele>
        <time>2022-08-28T10:18:39.000Z</time>
      </trkpt>
      <trkpt lat="42.96399" lon="1.09482">
        <ele>432</ele>
        <time>2022-08-28T10:19:02.000Z</time>
      </trkpt>
      <trkpt lat="42.96593" lon="1.09769">
        <ele>428</ele>
        <time>2022-08-28T10:19:53.000Z</time>
      </trkpt>
      <trkpt lat="42.96646" lon="1.09863">
        <ele>430</ele>
        <time>2022-08-28T10:20:08.000Z</time>
      </trkpt>
      <trkpt lat="42.96658" lon="1.09908">
        <ele>430</ele>
        <time>2022-08-28T10:20:14.000Z</time>
      </trkpt>
      <trkpt lat="42.96677" lon="1.10022">
        <ele>428</ele>
        <time>2022-08-28T10:20:29.000Z</time>
      </trkpt>
      <trkpt lat="42.967" lon="1.10214">
        <ele>426</ele>
        <time>2022-08-28T10:20:55.000Z</time>
      </trkpt>
      <trkpt lat="42.96714" lon="1.10259">
        <ele>425</ele>
        <time>2022-08-28T10:21:01.000Z</time>
      </trkpt>
      <trkpt lat="42.96727" lon="1.10289">
        <ele>424</ele>
        <time>2022-08-28T10:21:06.000Z</time>
      </trkpt>
      <trkpt lat="42.96774" lon="1.10368">
        <ele>423</ele>
        <time>2022-08-28T10:21:19.000Z</time>
      </trkpt>
      <trkpt lat="42.96817" lon="1.10506">
        <ele>423</ele>
        <time>2022-08-28T10:21:38.000Z</time>
      </trkpt>
      <trkpt lat="42.97093" lon="1.11188">
        <ele>420</ele>
        <time>2022-08-28T10:23:20.000Z</time>
      </trkpt>
      <trkpt lat="42.97138" lon="1.11307">
        <ele>419</ele>
        <time>2022-08-28T10:23:37.000Z</time>
      </trkpt>
      <trkpt lat="42.97225" lon="1.11993">
        <ele>413</ele>
        <time>2022-08-28T10:25:08.000Z</time>
      </trkpt>
      <trkpt lat="42.97239" lon="1.12026">
        <ele>411</ele>
        <time>2022-08-28T10:25:13.000Z</time>
      </trkpt>
      <trkpt lat="42.97256" lon="1.12053">
        <ele>411</ele>
        <time>2022-08-28T10:25:18.000Z</time>
      </trkpt>
      <trkpt lat="42.97297" lon="1.12086">
        <ele>414</ele>
        <time>2022-08-28T10:25:26.000Z</time>
      </trkpt>
      <trkpt lat="42.97319" lon="1.12093">
        <ele>415</ele>
        <time>2022-08-28T10:25:30.000Z</time>
      </trkpt>
      <trkpt lat="42.97356" lon="1.12093">
        <ele>415</ele>
        <time>2022-08-28T10:25:37.000Z</time>
      </trkpt>
      <trkpt lat="42.97378" lon="1.12087">
        <ele>415</ele>
        <time>2022-08-28T10:25:41.000Z</time>
      </trkpt>
      <trkpt lat="42.97454" lon="1.12052">
        <ele>417</ele>
        <time>2022-08-28T10:25:55.000Z</time>
      </trkpt>
      <trkpt lat="42.97483" lon="1.12046">
        <ele>417</ele>
        <time>2022-08-28T10:26:00.000Z</time>
      </trkpt>
      <trkpt lat="42.97655" lon="1.12104">
        <ele>419</ele>
        <time>2022-08-28T10:26:32.000Z</time>
      </trkpt>
      <trkpt lat="42.97674" lon="1.12122">
        <ele>418</ele>
        <time>2022-08-28T10:26:36.000Z</time>
      </trkpt>
      <trkpt lat="42.97768" lon="1.1229">
        <ele>410</ele>
        <time>2022-08-28T10:27:04.000Z</time>
      </trkpt>
      <trkpt lat="42.97813" lon="1.12438">
        <ele>409</ele>
        <time>2022-08-28T10:27:24.000Z</time>
      </trkpt>
      <trkpt lat="42.97872" lon="1.12589">
        <ele>407</ele>
        <time>2022-08-28T10:27:47.000Z</time>
      </trkpt>
      <trkpt lat="42.98066" lon="1.13003">
        <ele>401</ele>
        <time>2022-08-28T10:28:51.000Z</time>
      </trkpt>
      <trkpt lat="42.98082" lon="1.13033">
        <ele>401</ele>
        <time>2022-08-28T10:28:56.000Z</time>
      </trkpt>
      <trkpt lat="42.98112" lon="1.13078">
        <ele>400</ele>
        <time>2022-08-28T10:29:04.000Z</time>
      </trkpt>
      <trkpt lat="42.98153" lon="1.13116">
        <ele>400</ele>
        <time>2022-08-28T10:29:12.000Z</time>
      </trkpt>
      <trkpt lat="42.98189" lon="1.13153">
        <ele>400</ele>
        <time>2022-08-28T10:29:20.000Z</time>
      </trkpt>
      <trkpt lat="42.98317" lon="1.13307">
        <ele>399</ele>
        <time>2022-08-28T10:29:51.000Z</time>
      </trkpt>
      <trkpt lat="42.98323" lon="1.13318">
        <ele>399</ele>
        <time>2022-08-28T10:29:53.000Z</time>
      </trkpt>
      <trkpt lat="42.98573" lon="1.13975">
        <ele>391</ele>
        <time>2022-08-28T10:31:29.000Z</time>
      </trkpt>
      <trkpt lat="42.98582" lon="1.14009">
        <ele>389</ele>
        <time>2022-08-28T10:31:34.000Z</time>
      </trkpt>
      <trkpt lat="42.98332" lon="1.14174">
        <ele>397</ele>
        <time>2022-08-28T10:32:23.000Z</time>
      </trkpt>
      <trkpt lat="42.98176" lon="1.14242">
        <ele>405</ele>
        <time>2022-08-28T10:32:52.000Z</time>
      </trkpt>
      <trkpt lat="42.98135" lon="1.14266">
        <ele>405</ele>
        <time>2022-08-28T10:33:00.000Z</time>
      </trkpt>
      <trkpt lat="42.98104" lon="1.14293">
        <ele>402</ele>
        <time>2022-08-28T10:33:07.000Z</time>
      </trkpt>
      <trkpt lat="42.9809" lon="1.14309">
        <ele>400</ele>
        <time>2022-08-28T10:33:10.000Z</time>
      </trkpt>
      <trkpt lat="42.98046" lon="1.14372">
        <ele>399</ele>
        <time>2022-08-28T10:33:21.000Z</time>
      </trkpt>
      <trkpt lat="42.98024" lon="1.14399">
        <ele>399</ele>
        <time>2022-08-28T10:33:27.000Z</time>
      </trkpt>
      <trkpt lat="42.97973" lon="1.14419">
        <ele>401</ele>
        <time>2022-08-28T10:33:36.000Z</time>
      </trkpt>
      <trkpt lat="42.9794" lon="1.14437">
        <ele>404</ele>
        <time>2022-08-28T10:33:42.000Z</time>
      </trkpt>
      <trkpt lat="42.97903" lon="1.14477">
        <ele>404</ele>
        <time>2022-08-28T10:33:51.000Z</time>
      </trkpt>
      <trkpt lat="42.97886" lon="1.14503">
        <ele>405</ele>
        <time>2022-08-28T10:33:55.000Z</time>
      </trkpt>
      <trkpt lat="42.97751" lon="1.14769">
        <ele>407</ele>
        <time>2022-08-28T10:34:38.000Z</time>
      </trkpt>
      <trkpt lat="42.9774" lon="1.14788">
        <ele>405</ele>
        <time>2022-08-28T10:34:41.000Z</time>
      </trkpt>
      <trkpt lat="42.97639" lon="1.14848">
        <ele>406</ele>
        <time>2022-08-28T10:35:01.000Z</time>
      </trkpt>
      <trkpt lat="42.97615" lon="1.14863">
        <ele>406</ele>
        <time>2022-08-28T10:35:05.000Z</time>
      </trkpt>
      <trkpt lat="42.97544" lon="1.14926">
        <ele>404</ele>
        <time>2022-08-28T10:35:20.000Z</time>
      </trkpt>
      <trkpt lat="42.97533" lon="1.14939">
        <ele>403</ele>
        <time>2022-08-28T10:35:23.000Z</time>
      </trkpt>
      <trkpt lat="42.97375" lon="1.15266">
        <ele>400</ele>
        <time>2022-08-28T10:36:14.000Z</time>
      </trkpt>
      <trkpt lat="42.97355" lon="1.15287">
        <ele>401</ele>
        <time>2022-08-28T10:36:18.000Z</time>
      </trkpt>
      <trkpt lat="42.97351" lon="1.15316">
        <ele>401</ele>
        <time>2022-08-28T10:36:22.000Z</time>
      </trkpt>
      <trkpt lat="42.97342" lon="1.15338">
        <ele>402</ele>
        <time>2022-08-28T10:36:26.000Z</time>
      </trkpt>
      <trkpt lat="42.96645" lon="1.16808">
        <ele>410</ele>
        <time>2022-08-28T10:40:14.000Z</time>
      </trkpt>
      <trkpt lat="42.96614" lon="1.1687">
        <ele>409</ele>
        <time>2022-08-28T10:40:23.000Z</time>
      </trkpt>
      <trkpt lat="42.96595" lon="1.16898">
        <ele>409</ele>
        <time>2022-08-28T10:40:28.000Z</time>
      </trkpt>
      <trkpt lat="42.96567" lon="1.1693">
        <ele>412</ele>
        <time>2022-08-28T10:40:35.000Z</time>
      </trkpt>
      <trkpt lat="42.96453" lon="1.17008">
        <ele>415</ele>
        <time>2022-08-28T10:40:58.000Z</time>
      </trkpt>
      <trkpt lat="42.96409" lon="1.17048">
        <ele>416</ele>
        <time>2022-08-28T10:41:07.000Z</time>
      </trkpt>
      <trkpt lat="42.96118" lon="1.17347">
        <ele>419</ele>
        <time>2022-08-28T10:42:12.000Z</time>
      </trkpt>
      <trkpt lat="42.96033" lon="1.17442">
        <ele>422</ele>
        <time>2022-08-28T10:42:31.000Z</time>
      </trkpt>
      <trkpt lat="42.95762" lon="1.17552">
        <ele>428</ele>
        <time>2022-08-28T10:43:22.000Z</time>
      </trkpt>
      <trkpt lat="42.95678" lon="1.17568">
        <ele>423</ele>
        <time>2022-08-28T10:43:37.000Z</time>
      </trkpt>
      <trkpt lat="42.9542" lon="1.17653">
        <ele>429</ele>
        <time>2022-08-28T10:44:24.000Z</time>
      </trkpt>
      <trkpt lat="42.95391" lon="1.17646">
        <ele>428</ele>
        <time>2022-08-28T10:44:29.000Z</time>
      </trkpt>
      <trkpt lat="42.95092" lon="1.17371">
        <ele>428</ele>
        <time>2022-08-28T10:45:33.000Z</time>
      </trkpt>
      <trkpt lat="42.95067" lon="1.17353">
        <ele>427</ele>
        <time>2022-08-28T10:45:38.000Z</time>
      </trkpt>
      <trkpt lat="42.95036" lon="1.17269">
        <ele>425</ele>
        <time>2022-08-28T10:45:51.000Z</time>
      </trkpt>
      <trkpt lat="42.95" lon="1.17178">
        <ele>418</ele>
        <time>2022-08-28T10:46:04.000Z</time>
      </trkpt>
      <trkpt lat="42.94958" lon="1.17112">
        <ele>419</ele>
        <time>2022-08-28T10:46:16.000Z</time>
      </trkpt>
      <trkpt lat="42.94918" lon="1.1707">
        <ele>419</ele>
        <time>2022-08-28T10:46:25.000Z</time>
      </trkpt>
      <trkpt lat="42.94855" lon="1.17024">
        <ele>420</ele>
        <time>2022-08-28T10:46:37.000Z</time>
      </trkpt>
      <trkpt lat="42.94776" lon="1.16985">
        <ele>426</ele>
        <time>2022-08-28T10:46:52.000Z</time>
      </trkpt>
      <trkpt lat="42.94744" lon="1.16972">
        <ele>433</ele>
        <time>2022-08-28T10:46:58.000Z</time>
      </trkpt>
      <trkpt lat="42.94676" lon="1.16954">
        <ele>447</ele>
        <time>2022-08-28T10:47:11.000Z</time>
      </trkpt>
      <trkpt lat="42.94629" lon="1.16951">
        <ele>450</ele>
        <time>2022-08-28T10:47:19.000Z</time>
      </trkpt>
      <trkpt lat="42.94616" lon="1.16955">
        <ele>448</ele>
        <time>2022-08-28T10:47:21.000Z</time>
      </trkpt>
      <trkpt lat="42.94571" lon="1.16983">
        <ele>441</ele>
        <time>2022-08-28T10:47:30.000Z</time>
      </trkpt>
      <trkpt lat="42.94534" lon="1.17019">
        <ele>440</ele>
        <time>2022-08-28T10:47:38.000Z</time>
      </trkpt>
      <trkpt lat="42.94434" lon="1.17178">
        <ele>434</ele>
        <time>2022-08-28T10:48:06.000Z</time>
      </trkpt>
      <trkpt lat="42.94388" lon="1.17266">
        <ele>431</ele>
        <time>2022-08-28T10:48:20.000Z</time>
      </trkpt>
      <trkpt lat="42.94333" lon="1.17328">
        <ele>431</ele>
        <time>2022-08-28T10:48:32.000Z</time>
      </trkpt>
      <trkpt lat="42.94318" lon="1.17349">
        <ele>432</ele>
        <time>2022-08-28T10:48:36.000Z</time>
      </trkpt>
      <trkpt lat="42.94283" lon="1.17457">
        <ele>436</ele>
        <time>2022-08-28T10:48:52.000Z</time>
      </trkpt>
      <trkpt lat="42.94273" lon="1.17477">
        <ele>436</ele>
        <time>2022-08-28T10:48:55.000Z</time>
      </trkpt>
      <trkpt lat="42.94123" lon="1.17643">
        <ele>443</ele>
        <time>2022-08-28T10:49:29.000Z</time>
      </trkpt>
      <trkpt lat="42.94083" lon="1.17676">
        <ele>439</ele>
        <time>2022-08-28T10:49:37.000Z</time>
      </trkpt>
      <trkpt lat="42.9406" lon="1.17681">
        <ele>438</ele>
        <time>2022-08-28T10:49:42.000Z</time>
      </trkpt>
      <trkpt lat="42.94035" lon="1.17677">
        <ele>436</ele>
        <time>2022-08-28T10:49:46.000Z</time>
      </trkpt>
      <trkpt lat="42.93942" lon="1.176">
        <ele>449</ele>
        <time>2022-08-28T10:50:05.000Z</time>
      </trkpt>
      <trkpt lat="42.93891" lon="1.17559">
        <ele>454</ele>
        <time>2022-08-28T10:50:16.000Z</time>
      </trkpt>
      <trkpt lat="42.93869" lon="1.17551">
        <ele>456</ele>
        <time>2022-08-28T10:50:20.000Z</time>
      </trkpt>
      <trkpt lat="42.93858" lon="1.1755">
        <ele>455</ele>
        <time>2022-08-28T10:50:22.000Z</time>
      </trkpt>
      <trkpt lat="42.93841" lon="1.17553">
        <ele>451</ele>
        <time>2022-08-28T10:50:25.000Z</time>
      </trkpt>
      <trkpt lat="42.93822" lon="1.17562">
        <ele>450</ele>
        <time>2022-08-28T10:50:29.000Z</time>
      </trkpt>
      <trkpt lat="42.93783" lon="1.17602">
        <ele>450</ele>
        <time>2022-08-28T10:50:37.000Z</time>
      </trkpt>
      <trkpt lat="42.93751" lon="1.17631">
        <ele>450</ele>
        <time>2022-08-28T10:50:44.000Z</time>
      </trkpt>
      <trkpt lat="42.93654" lon="1.17697">
        <ele>449</ele>
        <time>2022-08-28T10:51:03.000Z</time>
      </trkpt>
      <trkpt lat="42.93627" lon="1.17708">
        <ele>448</ele>
        <time>2022-08-28T10:51:08.000Z</time>
      </trkpt>
      <trkpt lat="42.93596" lon="1.17713">
        <ele>448</ele>
        <time>2022-08-28T10:51:14.000Z</time>
      </trkpt>
      <trkpt lat="42.93558" lon="1.17715">
        <ele>450</ele>
        <time>2022-08-28T10:51:21.000Z</time>
      </trkpt>
      <trkpt lat="42.93383" lon="1.17703">
        <ele>457</ele>
        <time>2022-08-28T10:51:52.000Z</time>
      </trkpt>
      <trkpt lat="42.93261" lon="1.17737">
        <ele>457</ele>
        <time>2022-08-28T10:52:14.000Z</time>
      </trkpt>
      <trkpt lat="42.93218" lon="1.17778">
        <ele>458</ele>
        <time>2022-08-28T10:52:23.000Z</time>
      </trkpt>
      <trkpt lat="42.93105" lon="1.17956">
        <ele>445</ele>
        <time>2022-08-28T10:52:54.000Z</time>
      </trkpt>
      <trkpt lat="42.93049" lon="1.18008">
        <ele>441</ele>
        <time>2022-08-28T10:53:06.000Z</time>
      </trkpt>
      <trkpt lat="42.9303" lon="1.1803">
        <ele>442</ele>
        <time>2022-08-28T10:53:11.000Z</time>
      </trkpt>
      <trkpt lat="42.92971" lon="1.18209">
        <ele>452</ele>
        <time>2022-08-28T10:53:36.000Z</time>
      </trkpt>
      <trkpt lat="42.92952" lon="1.18265">
        <ele>454</ele>
        <time>2022-08-28T10:53:44.000Z</time>
      </trkpt>
      <trkpt lat="42.92907" lon="1.18321">
        <ele>449</ele>
        <time>2022-08-28T10:53:55.000Z</time>
      </trkpt>
      <trkpt lat="42.92878" lon="1.18342">
        <ele>450</ele>
        <time>2022-08-28T10:54:01.000Z</time>
      </trkpt>
      <trkpt lat="42.92831" lon="1.18366">
        <ele>453</ele>
        <time>2022-08-28T10:54:10.000Z</time>
      </trkpt>
      <trkpt lat="42.9279" lon="1.18382">
        <ele>454</ele>
        <time>2022-08-28T10:54:18.000Z</time>
      </trkpt>
      <trkpt lat="42.92723" lon="1.18396">
        <ele>456</ele>
        <time>2022-08-28T10:54:30.000Z</time>
      </trkpt>
      <trkpt lat="42.92675" lon="1.18398">
        <ele>462</ele>
        <time>2022-08-28T10:54:38.000Z</time>
      </trkpt>
      <trkpt lat="42.92639" lon="1.18389">
        <ele>463</ele>
        <time>2022-08-28T10:54:45.000Z</time>
      </trkpt>
      <trkpt lat="42.9251" lon="1.18322">
        <ele>466</ele>
        <time>2022-08-28T10:55:09.000Z</time>
      </trkpt>
      <trkpt lat="42.92481" lon="1.1831">
        <ele>472</ele>
        <time>2022-08-28T10:55:15.000Z</time>
      </trkpt>
      <trkpt lat="42.92427" lon="1.18314">
        <ele>470</ele>
        <time>2022-08-28T10:55:24.000Z</time>
      </trkpt>
      <trkpt lat="42.92409" lon="1.18324">
        <ele>469</ele>
        <time>2022-08-28T10:55:28.000Z</time>
      </trkpt>
      <trkpt lat="42.92392" lon="1.18343">
        <ele>471</ele>
        <time>2022-08-28T10:55:32.000Z</time>
      </trkpt>
      <trkpt lat="42.92375" lon="1.18374">
        <ele>473</ele>
        <time>2022-08-28T10:55:37.000Z</time>
      </trkpt>
      <trkpt lat="42.92362" lon="1.18441">
        <ele>470</ele>
        <time>2022-08-28T10:55:46.000Z</time>
      </trkpt>
      <trkpt lat="42.92352" lon="1.18535">
        <ele>466</ele>
        <time>2022-08-28T10:55:58.000Z</time>
      </trkpt>
      <trkpt lat="42.92317" lon="1.1865">
        <ele>463</ele>
        <time>2022-08-28T10:56:15.000Z</time>
      </trkpt>
      <trkpt lat="42.92297" lon="1.18678">
        <ele>467</ele>
        <time>2022-08-28T10:56:20.000Z</time>
      </trkpt>
      <trkpt lat="42.92114" lon="1.18834">
        <ele>459</ele>
        <time>2022-08-28T10:56:58.000Z</time>
      </trkpt>
      <trkpt lat="42.92085" lon="1.18853">
        <ele>460</ele>
        <time>2022-08-28T10:57:04.000Z</time>
      </trkpt>
      <trkpt lat="42.92044" lon="1.18871">
        <ele>463</ele>
        <time>2022-08-28T10:57:12.000Z</time>
      </trkpt>
      <trkpt lat="42.91979" lon="1.1888">
        <ele>469</ele>
        <time>2022-08-28T10:57:23.000Z</time>
      </trkpt>
      <trkpt lat="42.91937" lon="1.18888">
        <ele>474</ele>
        <time>2022-08-28T10:57:31.000Z</time>
      </trkpt>
      <trkpt lat="42.91908" lon="1.18902">
        <ele>475</ele>
        <time>2022-08-28T10:57:36.000Z</time>
      </trkpt>
      <trkpt lat="42.9188" lon="1.18929">
        <ele>478</ele>
        <time>2022-08-28T10:57:42.000Z</time>
      </trkpt>
      <trkpt lat="42.91856" lon="1.18961">
        <ele>478</ele>
        <time>2022-08-28T10:57:48.000Z</time>
      </trkpt>
      <trkpt lat="42.91841" lon="1.18992">
        <ele>471</ele>
        <time>2022-08-28T10:57:53.000Z</time>
      </trkpt>
      <trkpt lat="42.91798" lon="1.19162">
        <ele>462</ele>
        <time>2022-08-28T10:58:17.000Z</time>
      </trkpt>
      <trkpt lat="42.91774" lon="1.19206">
        <ele>464</ele>
        <time>2022-08-28T10:58:24.000Z</time>
      </trkpt>
      <trkpt lat="42.91748" lon="1.19227">
        <ele>460</ele>
        <time>2022-08-28T10:58:29.000Z</time>
      </trkpt>
      <trkpt lat="42.9172" lon="1.19229">
        <ele>460</ele>
        <time>2022-08-28T10:58:34.000Z</time>
      </trkpt>
      <trkpt lat="42.91698" lon="1.19224">
        <ele>462</ele>
        <time>2022-08-28T10:58:38.000Z</time>
      </trkpt>
      <trkpt lat="42.91594" lon="1.19152">
        <ele>472</ele>
        <time>2022-08-28T10:58:59.000Z</time>
      </trkpt>
      <trkpt lat="42.9155" lon="1.19132">
        <ele>477</ele>
        <time>2022-08-28T10:59:07.000Z</time>
      </trkpt>
      <trkpt lat="42.91533" lon="1.19128">
        <ele>476</ele>
        <time>2022-08-28T10:59:10.000Z</time>
      </trkpt>
      <trkpt lat="42.9148" lon="1.19127">
        <ele>473</ele>
        <time>2022-08-28T10:59:20.000Z</time>
      </trkpt>
      <trkpt lat="42.91457" lon="1.19137">
        <ele>473</ele>
        <time>2022-08-28T10:59:24.000Z</time>
      </trkpt>
      <trkpt lat="42.91442" lon="1.1915">
        <ele>473</ele>
        <time>2022-08-28T10:59:27.000Z</time>
      </trkpt>
      <trkpt lat="42.91379" lon="1.19239">
        <ele>480</ele>
        <time>2022-08-28T10:59:43.000Z</time>
      </trkpt>
      <trkpt lat="42.91356" lon="1.1929">
        <ele>480</ele>
        <time>2022-08-28T10:59:51.000Z</time>
      </trkpt>
      <trkpt lat="42.91341" lon="1.19343">
        <ele>473</ele>
        <time>2022-08-28T10:59:58.000Z</time>
      </trkpt>
      <trkpt lat="42.91327" lon="1.19467">
        <ele>469</ele>
        <time>2022-08-28T11:00:15.000Z</time>
      </trkpt>
      <trkpt lat="42.91327" lon="1.1965">
        <ele>466</ele>
        <time>2022-08-28T11:00:39.000Z</time>
      </trkpt>
      <trkpt lat="42.91332" lon="1.19706">
        <ele>467</ele>
        <time>2022-08-28T11:00:46.000Z</time>
      </trkpt>
      <trkpt lat="42.9134" lon="1.19754">
        <ele>471</ele>
        <time>2022-08-28T11:00:52.000Z</time>
      </trkpt>
      <trkpt lat="42.91358" lon="1.1982">
        <ele>476</ele>
        <time>2022-08-28T11:01:02.000Z</time>
      </trkpt>
      <trkpt lat="42.91384" lon="1.19892">
        <ele>477</ele>
        <time>2022-08-28T11:01:12.000Z</time>
      </trkpt>
      <trkpt lat="42.91415" lon="1.19956">
        <ele>477</ele>
        <time>2022-08-28T11:01:22.000Z</time>
      </trkpt>
      <trkpt lat="42.91453" lon="1.20024">
        <ele>486</ele>
        <time>2022-08-28T11:01:33.000Z</time>
      </trkpt>
      <trkpt lat="42.9152" lon="1.20124">
        <ele>481</ele>
        <time>2022-08-28T11:01:51.000Z</time>
      </trkpt>
      <trkpt lat="42.91527" lon="1.20142">
        <ele>482</ele>
        <time>2022-08-28T11:01:54.000Z</time>
      </trkpt>
      <trkpt lat="42.91535" lon="1.20183">
        <ele>482</ele>
        <time>2022-08-28T11:01:59.000Z</time>
      </trkpt>
      <trkpt lat="42.91542" lon="1.20239">
        <ele>481</ele>
        <time>2022-08-28T11:02:06.000Z</time>
      </trkpt>
      <trkpt lat="42.91539" lon="1.20283">
        <ele>479</ele>
        <time>2022-08-28T11:02:12.000Z</time>
      </trkpt>
      <trkpt lat="42.91533" lon="1.20307">
        <ele>478</ele>
        <time>2022-08-28T11:02:16.000Z</time>
      </trkpt>
      <trkpt lat="42.91507" lon="1.20356">
        <ele>476</ele>
        <time>2022-08-28T11:02:23.000Z</time>
      </trkpt>
      <trkpt lat="42.91486" lon="1.20381">
        <ele>477</ele>
        <time>2022-08-28T11:02:28.000Z</time>
      </trkpt>
      <trkpt lat="42.91428" lon="1.20428">
        <ele>480</ele>
        <time>2022-08-28T11:02:40.000Z</time>
      </trkpt>
      <trkpt lat="42.91351" lon="1.20469">
        <ele>489</ele>
        <time>2022-08-28T11:02:55.000Z</time>
      </trkpt>
      <trkpt lat="42.91317" lon="1.20492">
        <ele>487</ele>
        <time>2022-08-28T11:03:02.000Z</time>
      </trkpt>
      <trkpt lat="42.91248" lon="1.2059">
        <ele>477</ele>
        <time>2022-08-28T11:03:20.000Z</time>
      </trkpt>
      <trkpt lat="42.91225" lon="1.20634">
        <ele>482</ele>
        <time>2022-08-28T11:03:27.000Z</time>
      </trkpt>
      <trkpt lat="42.91187" lon="1.20752">
        <ele>479</ele>
        <time>2022-08-28T11:03:43.000Z</time>
      </trkpt>
      <trkpt lat="42.91102" lon="1.20915">
        <ele>482</ele>
        <time>2022-08-28T11:04:10.000Z</time>
      </trkpt>
      <trkpt lat="42.91083" lon="1.20959">
        <ele>475</ele>
        <time>2022-08-28T11:04:16.000Z</time>
      </trkpt>
      <trkpt lat="42.91055" lon="1.21074">
        <ele>483</ele>
        <time>2022-08-28T11:04:32.000Z</time>
      </trkpt>
      <trkpt lat="42.91044" lon="1.21129">
        <ele>485</ele>
        <time>2022-08-28T11:04:39.000Z</time>
      </trkpt>
      <trkpt lat="42.91036" lon="1.212">
        <ele>482</ele>
        <time>2022-08-28T11:04:49.000Z</time>
      </trkpt>
      <trkpt lat="42.91027" lon="1.21254">
        <ele>480</ele>
        <time>2022-08-28T11:04:56.000Z</time>
      </trkpt>
      <trkpt lat="42.91007" lon="1.21307">
        <ele>475</ele>
        <time>2022-08-28T11:05:04.000Z</time>
      </trkpt>
      <trkpt lat="42.90984" lon="1.21349">
        <ele>471</ele>
        <time>2022-08-28T11:05:11.000Z</time>
      </trkpt>
      <trkpt lat="42.90948" lon="1.21388">
        <ele>472</ele>
        <time>2022-08-28T11:05:19.000Z</time>
      </trkpt>
      <trkpt lat="42.90928" lon="1.21425">
        <ele>470</ele>
        <time>2022-08-28T11:05:25.000Z</time>
      </trkpt>
      <trkpt lat="42.90898" lon="1.21441">
        <ele>473</ele>
        <time>2022-08-28T11:05:31.000Z</time>
      </trkpt>
      <trkpt lat="42.90895" lon="1.21445">
        <ele>474</ele>
        <time>2022-08-28T11:05:31.000Z</time>
      </trkpt>
      <trkpt lat="42.90887" lon="1.2147">
        <ele>478</ele>
        <time>2022-08-28T11:05:35.000Z</time>
      </trkpt>
      <trkpt lat="42.90893" lon="1.21505">
        <ele>478</ele>
        <time>2022-08-28T11:05:40.000Z</time>
      </trkpt>
      <trkpt lat="42.90892" lon="1.21523">
        <ele>479</ele>
        <time>2022-08-28T11:05:42.000Z</time>
      </trkpt>
      <trkpt lat="42.90869" lon="1.21584">
        <ele>483</ele>
        <time>2022-08-28T11:05:51.000Z</time>
      </trkpt>
      <trkpt lat="42.90738" lon="1.21807">
        <ele>481</ele>
        <time>2022-08-28T11:06:28.000Z</time>
      </trkpt>
      <trkpt lat="42.90701" lon="1.21844">
        <ele>479</ele>
        <time>2022-08-28T11:06:36.000Z</time>
      </trkpt>
      <trkpt lat="42.90626" lon="1.21893">
        <ele>477</ele>
        <time>2022-08-28T11:06:51.000Z</time>
      </trkpt>
      <trkpt lat="42.90588" lon="1.21924">
        <ele>472</ele>
        <time>2022-08-28T11:06:59.000Z</time>
      </trkpt>
      <trkpt lat="42.90411" lon="1.22091">
        <ele>493</ele>
        <time>2022-08-28T11:07:37.000Z</time>
      </trkpt>
      <trkpt lat="42.90338" lon="1.22176">
        <ele>492</ele>
        <time>2022-08-28T11:07:54.000Z</time>
      </trkpt>
      <trkpt lat="42.90287" lon="1.22227">
        <ele>499</ele>
        <time>2022-08-28T11:08:06.000Z</time>
      </trkpt>
      <trkpt lat="42.90123" lon="1.22483">
        <ele>502</ele>
        <time>2022-08-28T11:08:50.000Z</time>
      </trkpt>
      <trkpt lat="42.90089" lon="1.22523">
        <ele>510</ele>
        <time>2022-08-28T11:08:58.000Z</time>
      </trkpt>
      <trkpt lat="42.90083" lon="1.22537">
        <ele>510</ele>
        <time>2022-08-28T11:09:00.000Z</time>
      </trkpt>
      <trkpt lat="42.90078" lon="1.22564">
        <ele>511</ele>
        <time>2022-08-28T11:09:04.000Z</time>
      </trkpt>
      <trkpt lat="42.90083" lon="1.22634">
        <ele>508</ele>
        <time>2022-08-28T11:09:13.000Z</time>
      </trkpt>
      <trkpt lat="42.90095" lon="1.22698">
        <ele>510</ele>
        <time>2022-08-28T11:09:22.000Z</time>
      </trkpt>
      <trkpt lat="42.90115" lon="1.22774">
        <ele>508</ele>
        <time>2022-08-28T11:09:32.000Z</time>
      </trkpt>
      <trkpt lat="42.90154" lon="1.22849">
        <ele>491</ele>
        <time>2022-08-28T11:09:44.000Z</time>
      </trkpt>
      <trkpt lat="42.9016" lon="1.22895">
        <ele>488</ele>
        <time>2022-08-28T11:09:50.000Z</time>
      </trkpt>
      <trkpt lat="42.90157" lon="1.22911">
        <ele>488</ele>
        <time>2022-08-28T11:09:52.000Z</time>
      </trkpt>
      <trkpt lat="42.90149" lon="1.22931">
        <ele>489</ele>
        <time>2022-08-28T11:09:55.000Z</time>
      </trkpt>
      <trkpt lat="42.9013" lon="1.22948">
        <ele>490</ele>
        <time>2022-08-28T11:09:59.000Z</time>
      </trkpt>
      <trkpt lat="42.90057" lon="1.22955">
        <ele>494</ele>
        <time>2022-08-28T11:10:12.000Z</time>
      </trkpt>
      <trkpt lat="42.90032" lon="1.22965">
        <ele>494</ele>
        <time>2022-08-28T11:10:17.000Z</time>
      </trkpt>
      <trkpt lat="42.9001" lon="1.22984">
        <ele>490</ele>
        <time>2022-08-28T11:10:22.000Z</time>
      </trkpt>
      <trkpt lat="42.89948" lon="1.2305">
        <ele>498</ele>
        <time>2022-08-28T11:10:36.000Z</time>
      </trkpt>
      <trkpt lat="42.89914" lon="1.2311">
        <ele>505</ele>
        <time>2022-08-28T11:10:46.000Z</time>
      </trkpt>
      <trkpt lat="42.89908" lon="1.23132">
        <ele>506</ele>
        <time>2022-08-28T11:10:49.000Z</time>
      </trkpt>
      <trkpt lat="42.89906" lon="1.23174">
        <ele>506</ele>
        <time>2022-08-28T11:10:54.000Z</time>
      </trkpt>
      <trkpt lat="42.89911" lon="1.232">
        <ele>506</ele>
        <time>2022-08-28T11:10:58.000Z</time>
      </trkpt>
      <trkpt lat="42.89987" lon="1.23377">
        <ele>503</ele>
        <time>2022-08-28T11:11:25.000Z</time>
      </trkpt>
      <trkpt lat="42.90026" lon="1.23467">
        <ele>508</ele>
        <time>2022-08-28T11:11:38.000Z</time>
      </trkpt>
      <trkpt lat="42.90092" lon="1.2357">
        <ele>507</ele>
        <time>2022-08-28T11:11:56.000Z</time>
      </trkpt>
      <trkpt lat="42.90225" lon="1.23724">
        <ele>513</ele>
        <time>2022-08-28T11:12:27.000Z</time>
      </trkpt>
      <trkpt lat="42.90233" lon="1.23746">
        <ele>512</ele>
        <time>2022-08-28T11:12:30.000Z</time>
      </trkpt>
      <trkpt lat="42.90231" lon="1.2385">
        <ele>513</ele>
        <time>2022-08-28T11:12:44.000Z</time>
      </trkpt>
      <trkpt lat="42.90222" lon="1.23881">
        <ele>514</ele>
        <time>2022-08-28T11:12:48.000Z</time>
      </trkpt>
      <trkpt lat="42.90215" lon="1.23893">
        <ele>514</ele>
        <time>2022-08-28T11:12:50.000Z</time>
      </trkpt>
      <trkpt lat="42.90207" lon="1.23901">
        <ele>515</ele>
        <time>2022-08-28T11:12:52.000Z</time>
      </trkpt>
      <trkpt lat="42.90165" lon="1.23921">
        <ele>517</ele>
        <time>2022-08-28T11:13:00.000Z</time>
      </trkpt>
      <trkpt lat="42.9015" lon="1.2394">
        <ele>520</ele>
        <time>2022-08-28T11:13:04.000Z</time>
      </trkpt>
      <trkpt lat="42.9014" lon="1.24045">
        <ele>516</ele>
        <time>2022-08-28T11:13:18.000Z</time>
      </trkpt>
      <trkpt lat="42.90156" lon="1.24113">
        <ele>515</ele>
        <time>2022-08-28T11:13:27.000Z</time>
      </trkpt>
      <trkpt lat="42.90197" lon="1.24172">
        <ele>519</ele>
        <time>2022-08-28T11:13:38.000Z</time>
      </trkpt>
      <trkpt lat="42.90221" lon="1.24193">
        <ele>521</ele>
        <time>2022-08-28T11:13:43.000Z</time>
      </trkpt>
      <trkpt lat="42.90285" lon="1.24231">
        <ele>521</ele>
        <time>2022-08-28T11:13:55.000Z</time>
      </trkpt>
      <trkpt lat="42.90328" lon="1.24241">
        <ele>516</ele>
        <time>2022-08-28T11:14:03.000Z</time>
      </trkpt>
      <trkpt lat="42.90391" lon="1.24296">
        <ele>517</ele>
        <time>2022-08-28T11:14:16.000Z</time>
      </trkpt>
      <trkpt lat="42.90404" lon="1.24312">
        <ele>514</ele>
        <time>2022-08-28T11:14:19.000Z</time>
      </trkpt>
      <trkpt lat="42.90427" lon="1.24395">
        <ele>515</ele>
        <time>2022-08-28T11:14:31.000Z</time>
      </trkpt>
      <trkpt lat="42.90436" lon="1.24423">
        <ele>516</ele>
        <time>2022-08-28T11:14:35.000Z</time>
      </trkpt>
      <trkpt lat="42.90487" lon="1.24487">
        <ele>510</ele>
        <time>2022-08-28T11:14:47.000Z</time>
      </trkpt>
      <trkpt lat="42.90494" lon="1.24503">
        <ele>508</ele>
        <time>2022-08-28T11:14:50.000Z</time>
      </trkpt>
      <trkpt lat="42.90497" lon="1.24534">
        <ele>508</ele>
        <time>2022-08-28T11:14:54.000Z</time>
      </trkpt>
      <trkpt lat="42.90484" lon="1.24599">
        <ele>514</ele>
        <time>2022-08-28T11:15:03.000Z</time>
      </trkpt>
      <trkpt lat="42.90487" lon="1.24621">
        <ele>512</ele>
        <time>2022-08-28T11:15:06.000Z</time>
      </trkpt>
      <trkpt lat="42.90533" lon="1.24748">
        <ele>508</ele>
        <time>2022-08-28T11:15:24.000Z</time>
      </trkpt>
      <trkpt lat="42.90574" lon="1.249">
        <ele>505</ele>
        <time>2022-08-28T11:15:45.000Z</time>
      </trkpt>
      <trkpt lat="42.90585" lon="1.24923">
        <ele>504</ele>
        <time>2022-08-28T11:15:49.000Z</time>
      </trkpt>
      <trkpt lat="42.90589" lon="1.24927">
        <ele>505</ele>
        <time>2022-08-28T11:15:50.000Z</time>
      </trkpt>
      <trkpt lat="42.90603" lon="1.24933">
        <ele>505</ele>
        <time>2022-08-28T11:15:52.000Z</time>
      </trkpt>
      <trkpt lat="42.90767" lon="1.24918">
        <ele>504</ele>
        <time>2022-08-28T11:16:22.000Z</time>
      </trkpt>
      <trkpt lat="42.90782" lon="1.24926">
        <ele>505</ele>
        <time>2022-08-28T11:16:24.000Z</time>
      </trkpt>
      <trkpt lat="42.90924" lon="1.25071">
        <ele>517</ele>
        <time>2022-08-28T11:16:56.000Z</time>
      </trkpt>
      <trkpt lat="42.90986" lon="1.25129">
        <ele>525</ele>
        <time>2022-08-28T11:17:09.000Z</time>
      </trkpt>
      <trkpt lat="42.91015" lon="1.25165">
        <ele>528</ele>
        <time>2022-08-28T11:17:16.000Z</time>
      </trkpt>
      <trkpt lat="42.91099" lon="1.25291">
        <ele>539</ele>
        <time>2022-08-28T11:17:39.000Z</time>
      </trkpt>
      <trkpt lat="42.91139" lon="1.25327">
        <ele>533</ele>
        <time>2022-08-28T11:17:47.000Z</time>
      </trkpt>
      <trkpt lat="42.91163" lon="1.25349">
        <ele>526</ele>
        <time>2022-08-28T11:17:52.000Z</time>
      </trkpt>
      <trkpt lat="42.91173" lon="1.25374">
        <ele>527</ele>
        <time>2022-08-28T11:17:56.000Z</time>
      </trkpt>
      <trkpt lat="42.91163" lon="1.25437">
        <ele>538</ele>
        <time>2022-08-28T11:18:04.000Z</time>
      </trkpt>
      <trkpt lat="42.91162" lon="1.25458">
        <ele>545</ele>
        <time>2022-08-28T11:18:07.000Z</time>
      </trkpt>
      <trkpt lat="42.91169" lon="1.25477">
        <ele>547</ele>
        <time>2022-08-28T11:18:10.000Z</time>
      </trkpt>
      <trkpt lat="42.91178" lon="1.25487">
        <ele>548</ele>
        <time>2022-08-28T11:18:12.000Z</time>
      </trkpt>
      <trkpt lat="42.91201" lon="1.25498">
        <ele>545</ele>
        <time>2022-08-28T11:18:16.000Z</time>
      </trkpt>
      <trkpt lat="42.91219" lon="1.25497">
        <ele>541</ele>
        <time>2022-08-28T11:18:20.000Z</time>
      </trkpt>
      <trkpt lat="42.91281" lon="1.25444">
        <ele>527</ele>
        <time>2022-08-28T11:18:33.000Z</time>
      </trkpt>
      <trkpt lat="42.91294" lon="1.25441">
        <ele>528</ele>
        <time>2022-08-28T11:18:35.000Z</time>
      </trkpt>
      <trkpt lat="42.91306" lon="1.25446">
        <ele>529</ele>
        <time>2022-08-28T11:18:37.000Z</time>
      </trkpt>
      <trkpt lat="42.91313" lon="1.25454">
        <ele>531</ele>
        <time>2022-08-28T11:18:39.000Z</time>
      </trkpt>
      <trkpt lat="42.91347" lon="1.25528">
        <ele>536</ele>
        <time>2022-08-28T11:18:50.000Z</time>
      </trkpt>
      <trkpt lat="42.91368" lon="1.25552">
        <ele>536</ele>
        <time>2022-08-28T11:18:55.000Z</time>
      </trkpt>
      <trkpt lat="42.91372" lon="1.25561">
        <ele>535</ele>
        <time>2022-08-28T11:18:56.000Z</time>
      </trkpt>
      <trkpt lat="42.91374" lon="1.25576">
        <ele>535</ele>
        <time>2022-08-28T11:18:58.000Z</time>
      </trkpt>
      <trkpt lat="42.91355" lon="1.25671">
        <ele>538</ele>
        <time>2022-08-28T11:19:11.000Z</time>
      </trkpt>
      <trkpt lat="42.91355" lon="1.25694">
        <ele>540</ele>
        <time>2022-08-28T11:19:14.000Z</time>
      </trkpt>
      <trkpt lat="42.91363" lon="1.25728">
        <ele>541</ele>
        <time>2022-08-28T11:19:19.000Z</time>
      </trkpt>
      <trkpt lat="42.91405" lon="1.25813">
        <ele>539</ele>
        <time>2022-08-28T11:19:32.000Z</time>
      </trkpt>
      <trkpt lat="42.91416" lon="1.25862">
        <ele>536</ele>
        <time>2022-08-28T11:19:39.000Z</time>
      </trkpt>
      <trkpt lat="42.91413" lon="1.25888">
        <ele>536</ele>
        <time>2022-08-28T11:19:42.000Z</time>
      </trkpt>
      <trkpt lat="42.91406" lon="1.25907">
        <ele>538</ele>
        <time>2022-08-28T11:19:45.000Z</time>
      </trkpt>
      <trkpt lat="42.91372" lon="1.25957">
        <ele>550</ele>
        <time>2022-08-28T11:19:54.000Z</time>
      </trkpt>
      <trkpt lat="42.91362" lon="1.25982">
        <ele>553</ele>
        <time>2022-08-28T11:19:58.000Z</time>
      </trkpt>
      <trkpt lat="42.91361" lon="1.26002">
        <ele>553</ele>
        <time>2022-08-28T11:20:00.000Z</time>
      </trkpt>
      <trkpt lat="42.91367" lon="1.26029">
        <ele>553</ele>
        <time>2022-08-28T11:20:04.000Z</time>
      </trkpt>
      <trkpt lat="42.914" lon="1.26124">
        <ele>546</ele>
        <time>2022-08-28T11:20:18.000Z</time>
      </trkpt>
      <trkpt lat="42.914" lon="1.26149">
        <ele>546</ele>
        <time>2022-08-28T11:20:21.000Z</time>
      </trkpt>
      <trkpt lat="42.91337" lon="1.26327">
        <ele>566</ele>
        <time>2022-08-28T11:20:47.000Z</time>
      </trkpt>
      <trkpt lat="42.91335" lon="1.26351">
        <ele>570</ele>
        <time>2022-08-28T11:20:50.000Z</time>
      </trkpt>
      <trkpt lat="42.9134" lon="1.26365">
        <ele>571</ele>
        <time>2022-08-28T11:20:52.000Z</time>
      </trkpt>
      <trkpt lat="42.91351" lon="1.2638">
        <ele>570</ele>
        <time>2022-08-28T11:20:55.000Z</time>
      </trkpt>
      <trkpt lat="42.91398" lon="1.26408">
        <ele>556</ele>
        <time>2022-08-28T11:21:04.000Z</time>
      </trkpt>
      <trkpt lat="42.91419" lon="1.26415">
        <ele>549</ele>
        <time>2022-08-28T11:21:08.000Z</time>
      </trkpt>
      <trkpt lat="42.91439" lon="1.26418">
        <ele>547</ele>
        <time>2022-08-28T11:21:12.000Z</time>
      </trkpt>
      <trkpt lat="42.91523" lon="1.26405">
        <ele>551</ele>
        <time>2022-08-28T11:21:27.000Z</time>
      </trkpt>
      <trkpt lat="42.91537" lon="1.26416">
        <ele>551</ele>
        <time>2022-08-28T11:21:29.000Z</time>
      </trkpt>
      <trkpt lat="42.91542" lon="1.26431">
        <ele>552</ele>
        <time>2022-08-28T11:21:32.000Z</time>
      </trkpt>
      <trkpt lat="42.91541" lon="1.26442">
        <ele>552</ele>
        <time>2022-08-28T11:21:33.000Z</time>
      </trkpt>
      <trkpt lat="42.9153" lon="1.26471">
        <ele>549</ele>
        <time>2022-08-28T11:21:37.000Z</time>
      </trkpt>
      <trkpt lat="42.9147" lon="1.2657">
        <ele>544</ele>
        <time>2022-08-28T11:21:54.000Z</time>
      </trkpt>
      <trkpt lat="42.91449" lon="1.26596">
        <ele>548</ele>
        <time>2022-08-28T11:21:59.000Z</time>
      </trkpt>
      <trkpt lat="42.91309" lon="1.26709">
        <ele>560</ele>
        <time>2022-08-28T11:22:28.000Z</time>
      </trkpt>
      <trkpt lat="42.91289" lon="1.26727">
        <ele>560</ele>
        <time>2022-08-28T11:22:32.000Z</time>
      </trkpt>
      <trkpt lat="42.91193" lon="1.26855">
        <ele>552</ele>
        <time>2022-08-28T11:22:56.000Z</time>
      </trkpt>
      <trkpt lat="42.91171" lon="1.26877">
        <ele>550</ele>
        <time>2022-08-28T11:23:01.000Z</time>
      </trkpt>
      <trkpt lat="42.91089" lon="1.26921">
        <ele>563</ele>
        <time>2022-08-28T11:23:17.000Z</time>
      </trkpt>
      <trkpt lat="42.91076" lon="1.26936">
        <ele>566</ele>
        <time>2022-08-28T11:23:20.000Z</time>
      </trkpt>
      <trkpt lat="42.9107" lon="1.26949">
        <ele>568</ele>
        <time>2022-08-28T11:23:22.000Z</time>
      </trkpt>
      <trkpt lat="42.91064" lon="1.26978">
        <ele>565</ele>
        <time>2022-08-28T11:23:26.000Z</time>
      </trkpt>
      <trkpt lat="42.91069" lon="1.27056">
        <ele>551</ele>
        <time>2022-08-28T11:23:36.000Z</time>
      </trkpt>
      <trkpt lat="42.91058" lon="1.27141">
        <ele>550</ele>
        <time>2022-08-28T11:23:47.000Z</time>
      </trkpt>
      <trkpt lat="42.91045" lon="1.27162">
        <ele>550</ele>
        <time>2022-08-28T11:23:51.000Z</time>
      </trkpt>
      <trkpt lat="42.91021" lon="1.27176">
        <ele>552</ele>
        <time>2022-08-28T11:23:56.000Z</time>
      </trkpt>
      <trkpt lat="42.90992" lon="1.27183">
        <ele>552</ele>
        <time>2022-08-28T11:24:01.000Z</time>
      </trkpt>
      <trkpt lat="42.90908" lon="1.27175">
        <ele>556</ele>
        <time>2022-08-28T11:24:16.000Z</time>
      </trkpt>
      <trkpt lat="42.90885" lon="1.27175">
        <ele>563</ele>
        <time>2022-08-28T11:24:20.000Z</time>
      </trkpt>
      <trkpt lat="42.90858" lon="1.27192">
        <ele>569</ele>
        <time>2022-08-28T11:24:25.000Z</time>
      </trkpt>
      <trkpt lat="42.90843" lon="1.27219">
        <ele>567</ele>
        <time>2022-08-28T11:24:30.000Z</time>
      </trkpt>
      <trkpt lat="42.90834" lon="1.27267">
        <ele>560</ele>
        <time>2022-08-28T11:24:36.000Z</time>
      </trkpt>
      <trkpt lat="42.90834" lon="1.27292">
        <ele>557</ele>
        <time>2022-08-28T11:24:39.000Z</time>
      </trkpt>
      <trkpt lat="42.9085" lon="1.27364">
        <ele>551</ele>
        <time>2022-08-28T11:24:49.000Z</time>
      </trkpt>
      <trkpt lat="42.90848" lon="1.27372">
        <ele>552</ele>
        <time>2022-08-28T11:24:50.000Z</time>
      </trkpt>
      <trkpt lat="42.9084" lon="1.27382">
        <ele>552</ele>
        <time>2022-08-28T11:24:52.000Z</time>
      </trkpt>
      <trkpt lat="42.90792" lon="1.27421">
        <ele>576</ele>
        <time>2022-08-28T11:25:02.000Z</time>
      </trkpt>
      <trkpt lat="42.90782" lon="1.27455">
        <ele>581</ele>
        <time>2022-08-28T11:25:07.000Z</time>
      </trkpt>
      <trkpt lat="42.90783" lon="1.27478">
        <ele>581</ele>
        <time>2022-08-28T11:25:10.000Z</time>
      </trkpt>
      <trkpt lat="42.90803" lon="1.27529">
        <ele>577</ele>
        <time>2022-08-28T11:25:18.000Z</time>
      </trkpt>
      <trkpt lat="42.90816" lon="1.27545">
        <ele>574</ele>
        <time>2022-08-28T11:25:21.000Z</time>
      </trkpt>
      <trkpt lat="42.90836" lon="1.27558">
        <ele>567</ele>
        <time>2022-08-28T11:25:25.000Z</time>
      </trkpt>
      <trkpt lat="42.90879" lon="1.2757">
        <ele>563</ele>
        <time>2022-08-28T11:25:33.000Z</time>
      </trkpt>
      <trkpt lat="42.90907" lon="1.27611">
        <ele>560</ele>
        <time>2022-08-28T11:25:40.000Z</time>
      </trkpt>
      <trkpt lat="42.9091" lon="1.27647">
        <ele>559</ele>
        <time>2022-08-28T11:25:45.000Z</time>
      </trkpt>
      <trkpt lat="42.90904" lon="1.27679">
        <ele>561</ele>
        <time>2022-08-28T11:25:49.000Z</time>
      </trkpt>
      <trkpt lat="42.90878" lon="1.2776">
        <ele>569</ele>
        <time>2022-08-28T11:26:01.000Z</time>
      </trkpt>
      <trkpt lat="42.9077" lon="1.27994">
        <ele>578</ele>
        <time>2022-08-28T11:26:37.000Z</time>
      </trkpt>
      <trkpt lat="42.90767" lon="1.28021">
        <ele>586</ele>
        <time>2022-08-28T11:26:40.000Z</time>
      </trkpt>
      <trkpt lat="42.9079" lon="1.28063">
        <ele>587</ele>
        <time>2022-08-28T11:26:47.000Z</time>
      </trkpt>
      <trkpt lat="42.90806" lon="1.28072">
        <ele>580</ele>
        <time>2022-08-28T11:26:51.000Z</time>
      </trkpt>
      <trkpt lat="42.90825" lon="1.28079">
        <ele>570</ele>
        <time>2022-08-28T11:26:54.000Z</time>
      </trkpt>
      <trkpt lat="42.90852" lon="1.28085">
        <ele>565</ele>
        <time>2022-08-28T11:26:59.000Z</time>
      </trkpt>
      <trkpt lat="42.90974" lon="1.28094">
        <ele>564</ele>
        <time>2022-08-28T11:27:21.000Z</time>
      </trkpt>
      <trkpt lat="42.90994" lon="1.28099">
        <ele>565</ele>
        <time>2022-08-28T11:27:24.000Z</time>
      </trkpt>
      <trkpt lat="42.91041" lon="1.28138">
        <ele>571</ele>
        <time>2022-08-28T11:27:34.000Z</time>
      </trkpt>
      <trkpt lat="42.91048" lon="1.2815">
        <ele>571</ele>
        <time>2022-08-28T11:27:36.000Z</time>
      </trkpt>
      <trkpt lat="42.91054" lon="1.28172">
        <ele>571</ele>
        <time>2022-08-28T11:27:39.000Z</time>
      </trkpt>
      <trkpt lat="42.91057" lon="1.28213">
        <ele>573</ele>
        <time>2022-08-28T11:27:45.000Z</time>
      </trkpt>
      <trkpt lat="42.91055" lon="1.28229">
        <ele>575</ele>
        <time>2022-08-28T11:27:47.000Z</time>
      </trkpt>
      <trkpt lat="42.91038" lon="1.28298">
        <ele>586</ele>
        <time>2022-08-28T11:27:56.000Z</time>
      </trkpt>
      <trkpt lat="42.91017" lon="1.28488">
        <ele>579</ele>
        <time>2022-08-28T11:28:21.000Z</time>
      </trkpt>
      <trkpt lat="42.91" lon="1.28565">
        <ele>570</ele>
        <time>2022-08-28T11:28:32.000Z</time>
      </trkpt>
      <trkpt lat="42.90905" lon="1.28876">
        <ele>583</ele>
        <time>2022-08-28T11:29:16.000Z</time>
      </trkpt>
      <trkpt lat="42.90876" lon="1.28962">
        <ele>591</ele>
        <time>2022-08-28T11:29:28.000Z</time>
      </trkpt>
      <trkpt lat="42.90863" lon="1.29037">
        <ele>589</ele>
        <time>2022-08-28T11:29:38.000Z</time>
      </trkpt>
      <trkpt lat="42.90847" lon="1.29101">
        <ele>588</ele>
        <time>2022-08-28T11:29:47.000Z</time>
      </trkpt>
      <trkpt lat="42.90791" lon="1.29196">
        <ele>593</ele>
        <time>2022-08-28T11:30:03.000Z</time>
      </trkpt>
      <trkpt lat="42.9078" lon="1.29208">
        <ele>593</ele>
        <time>2022-08-28T11:30:05.000Z</time>
      </trkpt>
      <trkpt lat="42.90689" lon="1.29242">
        <ele>585</ele>
        <time>2022-08-28T11:30:22.000Z</time>
      </trkpt>
      <trkpt lat="42.90675" lon="1.29242">
        <ele>584</ele>
        <time>2022-08-28T11:30:25.000Z</time>
      </trkpt>
      <trkpt lat="42.9057" lon="1.29212">
        <ele>587</ele>
        <time>2022-08-28T11:30:44.000Z</time>
      </trkpt>
      <trkpt lat="42.90491" lon="1.29213">
        <ele>590</ele>
        <time>2022-08-28T11:30:58.000Z</time>
      </trkpt>
      <trkpt lat="42.90409" lon="1.29171">
        <ele>604</ele>
        <time>2022-08-28T11:31:13.000Z</time>
      </trkpt>
      <trkpt lat="42.90381" lon="1.29162">
        <ele>612</ele>
        <time>2022-08-28T11:31:18.000Z</time>
      </trkpt>
      <trkpt lat="42.90336" lon="1.29173">
        <ele>617</ele>
        <time>2022-08-28T11:31:27.000Z</time>
      </trkpt>
      <trkpt lat="42.90319" lon="1.29197">
        <ele>619</ele>
        <time>2022-08-28T11:31:31.000Z</time>
      </trkpt>
      <trkpt lat="42.90315" lon="1.29214">
        <ele>617</ele>
        <time>2022-08-28T11:31:33.000Z</time>
      </trkpt>
      <trkpt lat="42.90315" lon="1.29239">
        <ele>610</ele>
        <time>2022-08-28T11:31:37.000Z</time>
      </trkpt>
      <trkpt lat="42.90362" lon="1.29393">
        <ele>597</ele>
        <time>2022-08-28T11:31:58.000Z</time>
      </trkpt>
      <trkpt lat="42.90357" lon="1.29448">
        <ele>595</ele>
        <time>2022-08-28T11:32:06.000Z</time>
      </trkpt>
      <trkpt lat="42.9031" lon="1.29599">
        <ele>594</ele>
        <time>2022-08-28T11:32:27.000Z</time>
      </trkpt>
      <trkpt lat="42.90218" lon="1.29688">
        <ele>591</ele>
        <time>2022-08-28T11:32:47.000Z</time>
      </trkpt>
      <trkpt lat="42.90198" lon="1.29732">
        <ele>593</ele>
        <time>2022-08-28T11:32:54.000Z</time>
      </trkpt>
      <trkpt lat="42.9014" lon="1.29996">
        <ele>596</ele>
        <time>2022-08-28T11:33:30.000Z</time>
      </trkpt>
      <trkpt lat="42.90133" lon="1.30072">
        <ele>594</ele>
        <time>2022-08-28T11:33:40.000Z</time>
      </trkpt>
      <trkpt lat="42.90114" lon="1.30126">
        <ele>593</ele>
        <time>2022-08-28T11:33:48.000Z</time>
      </trkpt>
      <trkpt lat="42.90106" lon="1.30185">
        <ele>589</ele>
        <time>2022-08-28T11:33:56.000Z</time>
      </trkpt>
      <trkpt lat="42.90043" lon="1.30286">
        <ele>591</ele>
        <time>2022-08-28T11:34:13.000Z</time>
      </trkpt>
      <trkpt lat="42.90017" lon="1.30373">
        <ele>589</ele>
        <time>2022-08-28T11:34:25.000Z</time>
      </trkpt>
      <trkpt lat="42.90008" lon="1.30428">
        <ele>588</ele>
        <time>2022-08-28T11:34:33.000Z</time>
      </trkpt>
      <trkpt lat="42.90007" lon="1.30468">
        <ele>589</ele>
        <time>2022-08-28T11:34:38.000Z</time>
      </trkpt>
      <trkpt lat="42.90022" lon="1.30534">
        <ele>598</ele>
        <time>2022-08-28T11:34:47.000Z</time>
      </trkpt>
      <trkpt lat="42.90023" lon="1.30568">
        <ele>599</ele>
        <time>2022-08-28T11:34:51.000Z</time>
      </trkpt>
      <trkpt lat="42.89991" lon="1.30681">
        <ele>592</ele>
        <time>2022-08-28T11:35:07.000Z</time>
      </trkpt>
      <trkpt lat="42.89986" lon="1.30706">
        <ele>592</ele>
        <time>2022-08-28T11:35:11.000Z</time>
      </trkpt>
      <trkpt lat="42.89993" lon="1.30774">
        <ele>591</ele>
        <time>2022-08-28T11:35:20.000Z</time>
      </trkpt>
      <trkpt lat="42.89991" lon="1.30794">
        <ele>591</ele>
        <time>2022-08-28T11:35:22.000Z</time>
      </trkpt>
      <trkpt lat="42.89976" lon="1.30826">
        <ele>589</ele>
        <time>2022-08-28T11:35:27.000Z</time>
      </trkpt>
      <trkpt lat="42.89922" lon="1.30882">
        <ele>584</ele>
        <time>2022-08-28T11:35:39.000Z</time>
      </trkpt>
      <trkpt lat="42.89906" lon="1.30923">
        <ele>584</ele>
        <time>2022-08-28T11:35:45.000Z</time>
      </trkpt>
      <trkpt lat="42.89824" lon="1.31333">
        <ele>587</ele>
        <time>2022-08-28T11:36:41.000Z</time>
      </trkpt>
      <trkpt lat="42.89791" lon="1.31662">
        <ele>593</ele>
        <time>2022-08-28T11:37:24.000Z</time>
      </trkpt>
      <trkpt lat="42.89782" lon="1.3173">
        <ele>592</ele>
        <time>2022-08-28T11:37:33.000Z</time>
      </trkpt>
      <trkpt lat="42.89705" lon="1.31895">
        <ele>600</ele>
        <time>2022-08-28T11:37:59.000Z</time>
      </trkpt>
      <trkpt lat="42.89691" lon="1.31941">
        <ele>602</ele>
        <time>2022-08-28T11:38:05.000Z</time>
      </trkpt>
      <trkpt lat="42.89691" lon="1.3204">
        <ele>604</ele>
        <time>2022-08-28T11:38:18.000Z</time>
      </trkpt>
      <trkpt lat="42.89699" lon="1.32083">
        <ele>605</ele>
        <time>2022-08-28T11:38:24.000Z</time>
      </trkpt>
      <trkpt lat="42.89722" lon="1.3214">
        <ele>604</ele>
        <time>2022-08-28T11:38:32.000Z</time>
      </trkpt>
      <trkpt lat="42.89776" lon="1.32247">
        <ele>600</ele>
        <time>2022-08-28T11:38:49.000Z</time>
      </trkpt>
      <trkpt lat="42.89795" lon="1.32319">
        <ele>603</ele>
        <time>2022-08-28T11:38:59.000Z</time>
      </trkpt>
      <trkpt lat="42.89799" lon="1.32371">
        <ele>604</ele>
        <time>2022-08-28T11:39:06.000Z</time>
      </trkpt>
      <trkpt lat="42.89795" lon="1.32408">
        <ele>603</ele>
        <time>2022-08-28T11:39:11.000Z</time>
      </trkpt>
      <trkpt lat="42.89789" lon="1.32437">
        <ele>603</ele>
        <time>2022-08-28T11:39:15.000Z</time>
      </trkpt>
      <trkpt lat="42.89741" lon="1.32595">
        <ele>602</ele>
        <time>2022-08-28T11:39:37.000Z</time>
      </trkpt>
      <trkpt lat="42.89703" lon="1.32733">
        <ele>608</ele>
        <time>2022-08-28T11:39:56.000Z</time>
      </trkpt>
      <trkpt lat="42.89653" lon="1.32994">
        <ele>612</ele>
        <time>2022-08-28T11:40:32.000Z</time>
      </trkpt>
      <trkpt lat="42.8965" lon="1.33006">
        <ele>612</ele>
        <time>2022-08-28T11:40:33.000Z</time>
      </trkpt>
      <trkpt lat="42.89448" lon="1.33212">
        <ele>616</ele>
        <time>2022-08-28T11:41:18.000Z</time>
      </trkpt>
      <trkpt lat="42.89431" lon="1.33245">
        <ele>616</ele>
        <time>2022-08-28T11:41:23.000Z</time>
      </trkpt>
      <trkpt lat="42.89368" lon="1.33496">
        <ele>623</ele>
        <time>2022-08-28T11:41:58.000Z</time>
      </trkpt>
      <trkpt lat="42.89356" lon="1.33568">
        <ele>625</ele>
        <time>2022-08-28T11:42:08.000Z</time>
      </trkpt>
      <trkpt lat="42.89353" lon="1.33614">
        <ele>627</ele>
        <time>2022-08-28T11:42:14.000Z</time>
      </trkpt>
      <trkpt lat="42.8938" lon="1.33736">
        <ele>626</ele>
        <time>2022-08-28T11:42:30.000Z</time>
      </trkpt>
      <trkpt lat="42.89373" lon="1.33761">
        <ele>627</ele>
        <time>2022-08-28T11:42:34.000Z</time>
      </trkpt>
      <trkpt lat="42.89343" lon="1.33847">
        <ele>631</ele>
        <time>2022-08-28T11:42:46.000Z</time>
      </trkpt>
      <trkpt lat="42.89333" lon="1.33866">
        <ele>632</ele>
        <time>2022-08-28T11:42:49.000Z</time>
      </trkpt>
      <trkpt lat="42.89281" lon="1.33894">
        <ele>635</ele>
        <time>2022-08-28T11:43:00.000Z</time>
      </trkpt>
      <trkpt lat="42.89267" lon="1.33908">
        <ele>636</ele>
        <time>2022-08-28T11:43:03.000Z</time>
      </trkpt>
      <trkpt lat="42.89245" lon="1.33986">
        <ele>640</ele>
        <time>2022-08-28T11:43:14.000Z</time>
      </trkpt>
      <trkpt lat="42.89227" lon="1.34029">
        <ele>642</ele>
        <time>2022-08-28T11:43:20.000Z</time>
      </trkpt>
      <trkpt lat="42.89051" lon="1.34367">
        <ele>647</ele>
        <time>2022-08-28T11:44:14.000Z</time>
      </trkpt>
      <trkpt lat="42.88987" lon="1.34495">
        <ele>648</ele>
        <time>2022-08-28T11:44:34.000Z</time>
      </trkpt>
      <trkpt lat="42.88975" lon="1.34522">
        <ele>649</ele>
        <time>2022-08-28T11:44:38.000Z</time>
      </trkpt>
      <trkpt lat="42.88956" lon="1.34581">
        <ele>652</ele>
        <time>2022-08-28T11:44:47.000Z</time>
      </trkpt>
      <trkpt lat="42.8894" lon="1.34685">
        <ele>654</ele>
        <time>2022-08-28T11:45:01.000Z</time>
      </trkpt>
      <trkpt lat="42.88938" lon="1.34733">
        <ele>654</ele>
        <time>2022-08-28T11:45:07.000Z</time>
      </trkpt>
      <trkpt lat="42.88941" lon="1.34747">
        <ele>654</ele>
        <time>2022-08-28T11:45:09.000Z</time>
      </trkpt>
      <trkpt lat="42.89213" lon="1.34917">
        <ele>629</ele>
        <time>2022-08-28T11:46:02.000Z</time>
      </trkpt>
      <trkpt lat="42.89313" lon="1.34983">
        <ele>638</ele>
        <time>2022-08-28T11:46:22.000Z</time>
      </trkpt>
      <trkpt lat="42.89322" lon="1.35004">
        <ele>640</ele>
        <time>2022-08-28T11:46:25.000Z</time>
      </trkpt>
      <trkpt lat="42.89321" lon="1.35035">
        <ele>640</ele>
        <time>2022-08-28T11:46:29.000Z</time>
      </trkpt>
      <trkpt lat="42.89326" lon="1.35054">
        <ele>641</ele>
        <time>2022-08-28T11:46:32.000Z</time>
      </trkpt>
      <trkpt lat="42.89352" lon="1.35088">
        <ele>646</ele>
        <time>2022-08-28T11:46:38.000Z</time>
      </trkpt>
      <trkpt lat="42.89371" lon="1.35103">
        <ele>650</ele>
        <time>2022-08-28T11:46:42.000Z</time>
      </trkpt>
      <trkpt lat="42.8947" lon="1.35136">
        <ele>661</ele>
        <time>2022-08-28T11:47:00.000Z</time>
      </trkpt>
      <trkpt lat="42.89476" lon="1.35145">
        <ele>662</ele>
        <time>2022-08-28T11:47:02.000Z</time>
      </trkpt>
      <trkpt lat="42.89471" lon="1.35219">
        <ele>665</ele>
        <time>2022-08-28T11:47:12.000Z</time>
      </trkpt>
      <trkpt lat="42.89466" lon="1.35222">
        <ele>665</ele>
        <time>2022-08-28T11:47:13.000Z</time>
      </trkpt>
      <trkpt lat="42.89456" lon="1.35219">
        <ele>664</ele>
        <time>2022-08-28T11:47:15.000Z</time>
      </trkpt>
      <trkpt lat="42.89435" lon="1.35178">
        <ele>660</ele>
        <time>2022-08-28T11:47:21.000Z</time>
      </trkpt>
      <trkpt lat="42.89424" lon="1.35167">
        <ele>658</ele>
        <time>2022-08-28T11:47:24.000Z</time>
      </trkpt>
      <trkpt lat="42.89409" lon="1.35162">
        <ele>657</ele>
        <time>2022-08-28T11:47:26.000Z</time>
      </trkpt>
      <trkpt lat="42.89391" lon="1.35171">
        <ele>656</ele>
        <time>2022-08-28T11:47:30.000Z</time>
      </trkpt>
      <trkpt lat="42.89388" lon="1.35183">
        <ele>657</ele>
        <time>2022-08-28T11:47:31.000Z</time>
      </trkpt>
      <trkpt lat="42.89398" lon="1.35205">
        <ele>659</ele>
        <time>2022-08-28T11:47:35.000Z</time>
      </trkpt>
      <trkpt lat="42.89431" lon="1.35236">
        <ele>663</ele>
        <time>2022-08-28T11:47:42.000Z</time>
      </trkpt>
      <trkpt lat="42.89445" lon="1.35262">
        <ele>665</ele>
        <time>2022-08-28T11:47:46.000Z</time>
      </trkpt>
      <trkpt lat="42.89463" lon="1.35319">
        <ele>670</ele>
        <time>2022-08-28T11:47:54.000Z</time>
      </trkpt>
      <trkpt lat="42.89492" lon="1.35356">
        <ele>674</ele>
        <time>2022-08-28T11:48:01.000Z</time>
      </trkpt>
      <trkpt lat="42.89506" lon="1.35378">
        <ele>674</ele>
        <time>2022-08-28T11:48:05.000Z</time>
      </trkpt>
      <trkpt lat="42.89549" lon="1.3551">
        <ele>684</ele>
        <time>2022-08-28T11:48:24.000Z</time>
      </trkpt>
      <trkpt lat="42.89553" lon="1.35529">
        <ele>686</ele>
        <time>2022-08-28T11:48:27.000Z</time>
      </trkpt>
      <trkpt lat="42.89563" lon="1.35862">
        <ele>710</ele>
        <time>2022-08-28T11:49:10.000Z</time>
      </trkpt>
      <trkpt lat="42.89563" lon="1.35881">
        <ele>711</ele>
        <time>2022-08-28T11:49:13.000Z</time>
      </trkpt>
      <trkpt lat="42.89559" lon="1.35918">
        <ele>711</ele>
        <time>2022-08-28T11:49:18.000Z</time>
      </trkpt>
      <trkpt lat="42.89547" lon="1.35957">
        <ele>706</ele>
        <time>2022-08-28T11:49:23.000Z</time>
      </trkpt>
      <trkpt lat="42.89549" lon="1.36007">
        <ele>706</ele>
        <time>2022-08-28T11:49:30.000Z</time>
      </trkpt>
      <trkpt lat="42.89562" lon="1.36028">
        <ele>707</ele>
        <time>2022-08-28T11:49:34.000Z</time>
      </trkpt>
      <trkpt lat="42.89572" lon="1.36035">
        <ele>709</ele>
        <time>2022-08-28T11:49:36.000Z</time>
      </trkpt>
      <trkpt lat="42.8958" lon="1.36035">
        <ele>710</ele>
        <time>2022-08-28T11:49:37.000Z</time>
      </trkpt>
      <trkpt lat="42.8968" lon="1.36016">
        <ele>732</ele>
        <time>2022-08-28T11:49:55.000Z</time>
      </trkpt>
      <trkpt lat="42.89693" lon="1.3602">
        <ele>734</ele>
        <time>2022-08-28T11:49:57.000Z</time>
      </trkpt>
      <trkpt lat="42.89717" lon="1.36037">
        <ele>736</ele>
        <time>2022-08-28T11:50:02.000Z</time>
      </trkpt>
      <trkpt lat="42.89758" lon="1.36075">
        <ele>735</ele>
        <time>2022-08-28T11:50:11.000Z</time>
      </trkpt>
      <trkpt lat="42.89804" lon="1.36136">
        <ele>734</ele>
        <time>2022-08-28T11:50:22.000Z</time>
      </trkpt>
      <trkpt lat="42.89817" lon="1.36141">
        <ele>734</ele>
        <time>2022-08-28T11:50:25.000Z</time>
      </trkpt>
      <trkpt lat="42.89867" lon="1.36139">
        <ele>739</ele>
        <time>2022-08-28T11:50:34.000Z</time>
      </trkpt>
      <trkpt lat="42.89933" lon="1.36094">
        <ele>747</ele>
        <time>2022-08-28T11:50:47.000Z</time>
      </trkpt>
      <trkpt lat="42.8996" lon="1.36062">
        <ele>751</ele>
        <time>2022-08-28T11:50:53.000Z</time>
      </trkpt>
      <trkpt lat="42.8997" lon="1.36064">
        <ele>751</ele>
        <time>2022-08-28T11:50:55.000Z</time>
      </trkpt>
      <trkpt lat="42.89977" lon="1.36094">
        <ele>750</ele>
        <time>2022-08-28T11:50:59.000Z</time>
      </trkpt>
      <trkpt lat="42.89974" lon="1.36109">
        <ele>750</ele>
        <time>2022-08-28T11:51:01.000Z</time>
      </trkpt>
      <trkpt lat="42.89919" lon="1.36199">
        <ele>743</ele>
        <time>2022-08-28T11:51:17.000Z</time>
      </trkpt>
      <trkpt lat="42.89926" lon="1.36218">
        <ele>744</ele>
        <time>2022-08-28T11:51:20.000Z</time>
      </trkpt>
      <trkpt lat="42.89933" lon="1.36224">
        <ele>744</ele>
        <time>2022-08-28T11:51:21.000Z</time>
      </trkpt>
      <trkpt lat="42.90004" lon="1.36262">
        <ele>751</ele>
        <time>2022-08-28T11:51:35.000Z</time>
      </trkpt>
      <trkpt lat="42.90045" lon="1.36298">
        <ele>755</ele>
        <time>2022-08-28T11:51:43.000Z</time>
      </trkpt>
      <trkpt lat="42.90061" lon="1.36307">
        <ele>756</ele>
        <time>2022-08-28T11:51:47.000Z</time>
      </trkpt>
      <trkpt lat="42.90115" lon="1.36299">
        <ele>761</ele>
        <time>2022-08-28T11:51:56.000Z</time>
      </trkpt>
      <trkpt lat="42.90142" lon="1.36297">
        <ele>763</ele>
        <time>2022-08-28T11:52:01.000Z</time>
      </trkpt>
      <trkpt lat="42.90189" lon="1.36281">
        <ele>768</ele>
        <time>2022-08-28T11:52:10.000Z</time>
      </trkpt>
      <trkpt lat="42.902" lon="1.36284">
        <ele>769</ele>
        <time>2022-08-28T11:52:12.000Z</time>
      </trkpt>
      <trkpt lat="42.90204" lon="1.36291">
        <ele>769</ele>
        <time>2022-08-28T11:52:13.000Z</time>
      </trkpt>
      <trkpt lat="42.90206" lon="1.36307">
        <ele>769</ele>
        <time>2022-08-28T11:52:15.000Z</time>
      </trkpt>
      <trkpt lat="42.90187" lon="1.36371">
        <ele>765</ele>
        <time>2022-08-28T11:52:24.000Z</time>
      </trkpt>
      <trkpt lat="42.90187" lon="1.3639">
        <ele>764</ele>
        <time>2022-08-28T11:52:26.000Z</time>
      </trkpt>
      <trkpt lat="42.90196" lon="1.36401">
        <ele>766</ele>
        <time>2022-08-28T11:52:29.000Z</time>
      </trkpt>
      <trkpt lat="42.90251" lon="1.36421">
        <ele>776</ele>
        <time>2022-08-28T11:52:39.000Z</time>
      </trkpt>
      <trkpt lat="42.90257" lon="1.36429">
        <ele>777</ele>
        <time>2022-08-28T11:52:40.000Z</time>
      </trkpt>
      <trkpt lat="42.90272" lon="1.36505">
        <ele>774</ele>
        <time>2022-08-28T11:52:51.000Z</time>
      </trkpt>
      <trkpt lat="42.90281" lon="1.36519">
        <ele>776</ele>
        <time>2022-08-28T11:52:53.000Z</time>
      </trkpt>
      <trkpt lat="42.9035" lon="1.36539">
        <ele>787</ele>
        <time>2022-08-28T11:53:06.000Z</time>
      </trkpt>
      <trkpt lat="42.90353" lon="1.36543">
        <ele>788</ele>
        <time>2022-08-28T11:53:06.000Z</time>
      </trkpt>
      <trkpt lat="42.90356" lon="1.36553">
        <ele>788</ele>
        <time>2022-08-28T11:53:08.000Z</time>
      </trkpt>
      <trkpt lat="42.90355" lon="1.36563">
        <ele>787</ele>
        <time>2022-08-28T11:53:09.000Z</time>
      </trkpt>
      <trkpt lat="42.90326" lon="1.3665">
        <ele>785</ele>
        <time>2022-08-28T11:53:22.000Z</time>
      </trkpt>
      <trkpt lat="42.90322" lon="1.36697">
        <ele>787</ele>
        <time>2022-08-28T11:53:28.000Z</time>
      </trkpt>
      <trkpt lat="42.90326" lon="1.3672">
        <ele>788</ele>
        <time>2022-08-28T11:53:31.000Z</time>
      </trkpt>
      <trkpt lat="42.90349" lon="1.36756">
        <ele>794</ele>
        <time>2022-08-28T11:53:37.000Z</time>
      </trkpt>
      <trkpt lat="42.90359" lon="1.36777">
        <ele>796</ele>
        <time>2022-08-28T11:53:40.000Z</time>
      </trkpt>
      <trkpt lat="42.90372" lon="1.36861">
        <ele>798</ele>
        <time>2022-08-28T11:53:52.000Z</time>
      </trkpt>
      <trkpt lat="42.90382" lon="1.36882">
        <ele>799</ele>
        <time>2022-08-28T11:53:55.000Z</time>
      </trkpt>
      <trkpt lat="42.90397" lon="1.36896">
        <ele>799</ele>
        <time>2022-08-28T11:53:58.000Z</time>
      </trkpt>
      <trkpt lat="42.90418" lon="1.36903">
        <ele>799</ele>
        <time>2022-08-28T11:54:02.000Z</time>
      </trkpt>
      <trkpt lat="42.90456" lon="1.369">
        <ele>800</ele>
        <time>2022-08-28T11:54:09.000Z</time>
      </trkpt>
      <trkpt lat="42.90476" lon="1.36896">
        <ele>801</ele>
        <time>2022-08-28T11:54:12.000Z</time>
      </trkpt>
      <trkpt lat="42.90505" lon="1.36877">
        <ele>806</ele>
        <time>2022-08-28T11:54:18.000Z</time>
      </trkpt>
      <trkpt lat="42.90515" lon="1.36877">
        <ele>807</ele>
        <time>2022-08-28T11:54:20.000Z</time>
      </trkpt>
      <trkpt lat="42.90532" lon="1.3693">
        <ele>803</ele>
        <time>2022-08-28T11:54:28.000Z</time>
      </trkpt>
      <trkpt lat="42.9054" lon="1.36951">
        <ele>802</ele>
        <time>2022-08-28T11:54:31.000Z</time>
      </trkpt>
      <trkpt lat="42.90556" lon="1.36972">
        <ele>803</ele>
        <time>2022-08-28T11:54:35.000Z</time>
      </trkpt>
      <trkpt lat="42.90587" lon="1.37004">
        <ele>805</ele>
        <time>2022-08-28T11:54:42.000Z</time>
      </trkpt>
      <trkpt lat="42.90637" lon="1.37026">
        <ele>813</ele>
        <time>2022-08-28T11:54:51.000Z</time>
      </trkpt>
      <trkpt lat="42.90668" lon="1.37034">
        <ele>818</ele>
        <time>2022-08-28T11:54:56.000Z</time>
      </trkpt>
      <trkpt lat="42.90766" lon="1.37042">
        <ele>833</ele>
        <time>2022-08-28T11:55:14.000Z</time>
      </trkpt>
      <trkpt lat="42.90772" lon="1.37056">
        <ele>832</ele>
        <time>2022-08-28T11:55:16.000Z</time>
      </trkpt>
      <trkpt lat="42.9077" lon="1.37071">
        <ele>828</ele>
        <time>2022-08-28T11:55:18.000Z</time>
      </trkpt>
      <trkpt lat="42.90759" lon="1.37083">
        <ele>823</ele>
        <time>2022-08-28T11:55:21.000Z</time>
      </trkpt>
      <trkpt lat="42.90723" lon="1.37097">
        <ele>817</ele>
        <time>2022-08-28T11:55:27.000Z</time>
      </trkpt>
      <trkpt lat="42.90715" lon="1.37104">
        <ele>816</ele>
        <time>2022-08-28T11:55:29.000Z</time>
      </trkpt>
      <trkpt lat="42.9071" lon="1.37113">
        <ele>816</ele>
        <time>2022-08-28T11:55:31.000Z</time>
      </trkpt>
      <trkpt lat="42.90703" lon="1.37141">
        <ele>817</ele>
        <time>2022-08-28T11:55:34.000Z</time>
      </trkpt>
      <trkpt lat="42.90714" lon="1.37187">
        <ele>825</ele>
        <time>2022-08-28T11:55:41.000Z</time>
      </trkpt>
      <trkpt lat="42.9071" lon="1.37198">
        <ele>826</ele>
        <time>2022-08-28T11:55:42.000Z</time>
      </trkpt>
      <trkpt lat="42.90676" lon="1.37215">
        <ele>820</ele>
        <time>2022-08-28T11:55:49.000Z</time>
      </trkpt>
      <trkpt lat="42.90642" lon="1.3725">
        <ele>819</ele>
        <time>2022-08-28T11:55:56.000Z</time>
      </trkpt>
      <trkpt lat="42.90625" lon="1.37273">
        <ele>818</ele>
        <time>2022-08-28T11:56:01.000Z</time>
      </trkpt>
      <trkpt lat="42.90619" lon="1.37285">
        <ele>819</ele>
        <time>2022-08-28T11:56:03.000Z</time>
      </trkpt>
      <trkpt lat="42.90608" lon="1.37328">
        <ele>822</ele>
        <time>2022-08-28T11:56:09.000Z</time>
      </trkpt>
      <trkpt lat="42.90611" lon="1.37398">
        <ele>828</ele>
        <time>2022-08-28T11:56:18.000Z</time>
      </trkpt>
      <trkpt lat="42.90621" lon="1.37438">
        <ele>829</ele>
        <time>2022-08-28T11:56:23.000Z</time>
      </trkpt>
      <trkpt lat="42.90631" lon="1.37448">
        <ele>830</ele>
        <time>2022-08-28T11:56:25.000Z</time>
      </trkpt>
      <trkpt lat="42.90741" lon="1.37491">
        <ele>849</ele>
        <time>2022-08-28T11:56:46.000Z</time>
      </trkpt>
      <trkpt lat="42.90751" lon="1.37503">
        <ele>849</ele>
        <time>2022-08-28T11:56:48.000Z</time>
      </trkpt>
      <trkpt lat="42.90735" lon="1.37538">
        <ele>845</ele>
        <time>2022-08-28T11:56:54.000Z</time>
      </trkpt>
      <trkpt lat="42.90725" lon="1.37559">
        <ele>843</ele>
        <time>2022-08-28T11:56:57.000Z</time>
      </trkpt>
      <trkpt lat="42.90722" lon="1.37626">
        <ele>848</ele>
        <time>2022-08-28T11:57:06.000Z</time>
      </trkpt>
      <trkpt lat="42.90705" lon="1.37699">
        <ele>848</ele>
        <time>2022-08-28T11:57:16.000Z</time>
      </trkpt>
      <trkpt lat="42.90709" lon="1.37717">
        <ele>849</ele>
        <time>2022-08-28T11:57:18.000Z</time>
      </trkpt>
      <trkpt lat="42.90716" lon="1.37726">
        <ele>851</ele>
        <time>2022-08-28T11:57:20.000Z</time>
      </trkpt>
      <trkpt lat="42.90789" lon="1.3778">
        <ele>872</ele>
        <time>2022-08-28T11:57:35.000Z</time>
      </trkpt>
      <trkpt lat="42.90792" lon="1.37792">
        <ele>872</ele>
        <time>2022-08-28T11:57:37.000Z</time>
      </trkpt>
      <trkpt lat="42.90742" lon="1.37875">
        <ele>861</ele>
        <time>2022-08-28T11:57:51.000Z</time>
      </trkpt>
      <trkpt lat="42.90726" lon="1.37923">
        <ele>862</ele>
        <time>2022-08-28T11:57:58.000Z</time>
      </trkpt>
      <trkpt lat="42.90717" lon="1.38018">
        <ele>866</ele>
        <time>2022-08-28T11:58:10.000Z</time>
      </trkpt>
      <trkpt lat="42.9072" lon="1.38034">
        <ele>866</ele>
        <time>2022-08-28T11:58:12.000Z</time>
      </trkpt>
      <trkpt lat="42.90748" lon="1.38064">
        <ele>869</ele>
        <time>2022-08-28T11:58:19.000Z</time>
      </trkpt>
      <trkpt lat="42.90775" lon="1.38078">
        <ele>871</ele>
        <time>2022-08-28T11:58:24.000Z</time>
      </trkpt>
      <trkpt lat="42.90934" lon="1.38108">
        <ele>891</ele>
        <time>2022-08-28T11:58:53.000Z</time>
      </trkpt>
      <trkpt lat="42.90942" lon="1.38115">
        <ele>892</ele>
        <time>2022-08-28T11:58:54.000Z</time>
      </trkpt>
      <trkpt lat="42.90949" lon="1.3813">
        <ele>893</ele>
        <time>2022-08-28T11:58:57.000Z</time>
      </trkpt>
      <trkpt lat="42.90951" lon="1.3816">
        <ele>892</ele>
        <time>2022-08-28T11:59:00.000Z</time>
      </trkpt>
      <trkpt lat="42.90942" lon="1.38211">
        <ele>891</ele>
        <time>2022-08-28T11:59:07.000Z</time>
      </trkpt>
      <trkpt lat="42.90941" lon="1.38236">
        <ele>892</ele>
        <time>2022-08-28T11:59:11.000Z</time>
      </trkpt>
      <trkpt lat="42.90948" lon="1.38259">
        <ele>895</ele>
        <time>2022-08-28T11:59:14.000Z</time>
      </trkpt>
      <trkpt lat="42.90965" lon="1.383">
        <ele>902</ele>
        <time>2022-08-28T11:59:20.000Z</time>
      </trkpt>
      <trkpt lat="42.90964" lon="1.38316">
        <ele>903</ele>
        <time>2022-08-28T11:59:22.000Z</time>
      </trkpt>
      <trkpt lat="42.9096" lon="1.3833">
        <ele>902</ele>
        <time>2022-08-28T11:59:24.000Z</time>
      </trkpt>
      <trkpt lat="42.90927" lon="1.38368">
        <ele>901</ele>
        <time>2022-08-28T11:59:32.000Z</time>
      </trkpt>
      <trkpt lat="42.90903" lon="1.38409">
        <ele>904</ele>
        <time>2022-08-28T11:59:39.000Z</time>
      </trkpt>
      <trkpt lat="42.90856" lon="1.38457">
        <ele>902</ele>
        <time>2022-08-28T11:59:49.000Z</time>
      </trkpt>
      <trkpt lat="42.90852" lon="1.3847">
        <ele>903</ele>
        <time>2022-08-28T11:59:51.000Z</time>
      </trkpt>
      <trkpt lat="42.90849" lon="1.38509">
        <ele>907</ele>
        <time>2022-08-28T11:59:56.000Z</time>
      </trkpt>
      <trkpt lat="42.90853" lon="1.38521">
        <ele>908</ele>
        <time>2022-08-28T11:59:58.000Z</time>
      </trkpt>
      <trkpt lat="42.90906" lon="1.38556">
        <ele>921</ele>
        <time>2022-08-28T12:00:08.000Z</time>
      </trkpt>
      <trkpt lat="42.90911" lon="1.38575">
        <ele>922</ele>
        <time>2022-08-28T12:00:11.000Z</time>
      </trkpt>
      <trkpt lat="42.90911" lon="1.3858">
        <ele>922</ele>
        <time>2022-08-28T12:00:12.000Z</time>
      </trkpt>
      <trkpt lat="42.90905" lon="1.38592">
        <ele>921</ele>
        <time>2022-08-28T12:00:13.000Z</time>
      </trkpt>
      <trkpt lat="42.90886" lon="1.38601">
        <ele>918</ele>
        <time>2022-08-28T12:00:17.000Z</time>
      </trkpt>
      <trkpt lat="42.90857" lon="1.3864">
        <ele>916</ele>
        <time>2022-08-28T12:00:24.000Z</time>
      </trkpt>
      <trkpt lat="42.90853" lon="1.38653">
        <ele>917</ele>
        <time>2022-08-28T12:00:26.000Z</time>
      </trkpt>
      <trkpt lat="42.90854" lon="1.38675">
        <ele>921</ele>
        <time>2022-08-28T12:00:29.000Z</time>
      </trkpt>
      <trkpt lat="42.90875" lon="1.38722">
        <ele>941</ele>
        <time>2022-08-28T12:00:36.000Z</time>
      </trkpt>
      <trkpt lat="42.90875" lon="1.3874">
        <ele>946</ele>
        <time>2022-08-28T12:00:39.000Z</time>
      </trkpt>
      <trkpt lat="42.90866" lon="1.38749">
        <ele>947</ele>
        <time>2022-08-28T12:00:41.000Z</time>
      </trkpt>
      <trkpt lat="42.9086" lon="1.38749">
        <ele>945</ele>
        <time>2022-08-28T12:00:42.000Z</time>
      </trkpt>
      <trkpt lat="42.90796" lon="1.38736">
        <ele>928</ele>
        <time>2022-08-28T12:00:53.000Z</time>
      </trkpt>
      <trkpt lat="42.90776" lon="1.38754">
        <ele>931</ele>
        <time>2022-08-28T12:00:58.000Z</time>
      </trkpt>
      <trkpt lat="42.90741" lon="1.38813">
        <ele>940</ele>
        <time>2022-08-28T12:01:07.000Z</time>
      </trkpt>
      <trkpt lat="42.90659" lon="1.39003">
        <ele>954</ele>
        <time>2022-08-28T12:01:36.000Z</time>
      </trkpt>
      <trkpt lat="42.90641" lon="1.3906">
        <ele>957</ele>
        <time>2022-08-28T12:01:44.000Z</time>
      </trkpt>
      <trkpt lat="42.90641" lon="1.39079">
        <ele>958</ele>
        <time>2022-08-28T12:01:47.000Z</time>
      </trkpt>
      <trkpt lat="42.90667" lon="1.39197">
        <ele>956</ele>
        <time>2022-08-28T12:02:03.000Z</time>
      </trkpt>
      <trkpt lat="42.90719" lon="1.39282">
        <ele>971</ele>
        <time>2022-08-28T12:02:17.000Z</time>
      </trkpt>
      <trkpt lat="42.90724" lon="1.39296">
        <ele>972</ele>
        <time>2022-08-28T12:02:19.000Z</time>
      </trkpt>
      <trkpt lat="42.90706" lon="1.39372">
        <ele>962</ele>
        <time>2022-08-28T12:02:30.000Z</time>
      </trkpt>
      <trkpt lat="42.90706" lon="1.39397">
        <ele>962</ele>
        <time>2022-08-28T12:02:33.000Z</time>
      </trkpt>
      <trkpt lat="42.90756" lon="1.39512">
        <ele>983</ele>
        <time>2022-08-28T12:02:51.000Z</time>
      </trkpt>
      <trkpt lat="42.90758" lon="1.39524">
        <ele>984</ele>
        <time>2022-08-28T12:02:52.000Z</time>
      </trkpt>
      <trkpt lat="42.90728" lon="1.39569">
        <ele>973</ele>
        <time>2022-08-28T12:03:00.000Z</time>
      </trkpt>
      <trkpt lat="42.90719" lon="1.39591">
        <ele>971</ele>
        <time>2022-08-28T12:03:04.000Z</time>
      </trkpt>
      <trkpt lat="42.90736" lon="1.397">
        <ele>989</ele>
        <time>2022-08-28T12:03:18.000Z</time>
      </trkpt>
      <trkpt lat="42.90733" lon="1.39754">
        <ele>993</ele>
        <time>2022-08-28T12:03:25.000Z</time>
      </trkpt>
      <trkpt lat="42.90708" lon="1.39809">
        <ele>989</ele>
        <time>2022-08-28T12:03:34.000Z</time>
      </trkpt>
      <trkpt lat="42.90689" lon="1.39855">
        <ele>988</ele>
        <time>2022-08-28T12:03:41.000Z</time>
      </trkpt>
      <trkpt lat="42.90676" lon="1.39951">
        <ele>994</ele>
        <time>2022-08-28T12:03:54.000Z</time>
      </trkpt>
      <trkpt lat="42.90674" lon="1.39997">
        <ele>996</ele>
        <time>2022-08-28T12:04:00.000Z</time>
      </trkpt>
      <trkpt lat="42.90693" lon="1.40098">
        <ele>1002</ele>
        <time>2022-08-28T12:04:13.000Z</time>
      </trkpt>
      <trkpt lat="42.90706" lon="1.40162">
        <ele>1005</ele>
        <time>2022-08-28T12:04:22.000Z</time>
      </trkpt>
      <trkpt lat="42.90752" lon="1.4026">
        <ele>1010</ele>
        <time>2022-08-28T12:04:37.000Z</time>
      </trkpt>
      <trkpt lat="42.90759" lon="1.40353">
        <ele>1012</ele>
        <time>2022-08-28T12:04:49.000Z</time>
      </trkpt>
      <trkpt lat="42.90755" lon="1.40391">
        <ele>1012</ele>
        <time>2022-08-28T12:04:54.000Z</time>
      </trkpt>
      <trkpt lat="42.90751" lon="1.40404">
        <ele>1011</ele>
        <time>2022-08-28T12:04:56.000Z</time>
      </trkpt>
      <trkpt lat="42.90715" lon="1.4046">
        <ele>1009</ele>
        <time>2022-08-28T12:05:06.000Z</time>
      </trkpt>
      <trkpt lat="42.90705" lon="1.40484">
        <ele>1009</ele>
        <time>2022-08-28T12:05:10.000Z</time>
      </trkpt>
      <trkpt lat="42.90701" lon="1.40503">
        <ele>1011</ele>
        <time>2022-08-28T12:05:12.000Z</time>
      </trkpt>
      <trkpt lat="42.90699" lon="1.4063">
        <ele>1023</ele>
        <time>2022-08-28T12:05:29.000Z</time>
      </trkpt>
      <trkpt lat="42.9068" lon="1.40726">
        <ele>1022</ele>
        <time>2022-08-28T12:05:42.000Z</time>
      </trkpt>
      <trkpt lat="42.90673" lon="1.40768">
        <ele>1022</ele>
        <time>2022-08-28T12:05:47.000Z</time>
      </trkpt>
      <trkpt lat="42.90671" lon="1.40802">
        <ele>1024</ele>
        <time>2022-08-28T12:05:52.000Z</time>
      </trkpt>
      <trkpt lat="42.90673" lon="1.40867">
        <ele>1027</ele>
        <time>2022-08-28T12:06:00.000Z</time>
      </trkpt>
      <trkpt lat="42.90697" lon="1.40914">
        <ele>1036</ele>
        <time>2022-08-28T12:06:08.000Z</time>
      </trkpt>
      <trkpt lat="42.90704" lon="1.40936">
        <ele>1038</ele>
        <time>2022-08-28T12:06:11.000Z</time>
      </trkpt>
      <trkpt lat="42.90683" lon="1.41015">
        <ele>1029</ele>
        <time>2022-08-28T12:06:22.000Z</time>
      </trkpt>
      <trkpt lat="42.90682" lon="1.4103">
        <ele>1030</ele>
        <time>2022-08-28T12:06:24.000Z</time>
      </trkpt>
      <trkpt lat="42.907" lon="1.41125">
        <ele>1047</ele>
        <time>2022-08-28T12:06:37.000Z</time>
      </trkpt>
      <trkpt lat="42.907" lon="1.41134">
        <ele>1049</ele>
        <time>2022-08-28T12:06:38.000Z</time>
      </trkpt>
      <trkpt lat="42.90661" lon="1.41205">
        <ele>1042</ele>
        <time>2022-08-28T12:06:50.000Z</time>
      </trkpt>
      <trkpt lat="42.90647" lon="1.41241">
        <ele>1044</ele>
        <time>2022-08-28T12:06:55.000Z</time>
      </trkpt>
      <trkpt lat="42.90626" lon="1.41382">
        <ele>1050</ele>
        <time>2022-08-28T12:07:14.000Z</time>
      </trkpt>
      <trkpt lat="42.90625" lon="1.4141">
        <ele>1051</ele>
        <time>2022-08-28T12:07:17.000Z</time>
      </trkpt>
      <trkpt lat="42.90698" lon="1.41528">
        <ele>1062</ele>
        <time>2022-08-28T12:07:38.000Z</time>
      </trkpt>
      <trkpt lat="42.90705" lon="1.4154">
        <ele>1062</ele>
        <time>2022-08-28T12:07:40.000Z</time>
      </trkpt>
      <trkpt lat="42.90779" lon="1.41603">
        <ele>1079</ele>
        <time>2022-08-28T12:07:55.000Z</time>
      </trkpt>
      <trkpt lat="42.90791" lon="1.41614">
        <ele>1083</ele>
        <time>2022-08-28T12:07:58.000Z</time>
      </trkpt>
      <trkpt lat="42.908" lon="1.41633">
        <ele>1085</ele>
        <time>2022-08-28T12:08:01.000Z</time>
      </trkpt>
      <trkpt lat="42.908" lon="1.41639">
        <ele>1084</ele>
        <time>2022-08-28T12:08:02.000Z</time>
      </trkpt>
      <trkpt lat="42.90796" lon="1.41647">
        <ele>1082</ele>
        <time>2022-08-28T12:08:03.000Z</time>
      </trkpt>
      <trkpt lat="42.90788" lon="1.41652">
        <ele>1080</ele>
        <time>2022-08-28T12:08:05.000Z</time>
      </trkpt>
      <trkpt lat="42.90755" lon="1.4166">
        <ele>1069</ele>
        <time>2022-08-28T12:08:11.000Z</time>
      </trkpt>
      <trkpt lat="42.90742" lon="1.4167">
        <ele>1066</ele>
        <time>2022-08-28T12:08:13.000Z</time>
      </trkpt>
      <trkpt lat="42.90694" lon="1.41774">
        <ele>1075</ele>
        <time>2022-08-28T12:08:29.000Z</time>
      </trkpt>
      <trkpt lat="42.9067" lon="1.41852">
        <ele>1078</ele>
        <time>2022-08-28T12:08:40.000Z</time>
      </trkpt>
      <trkpt lat="42.90667" lon="1.41863">
        <ele>1077</ele>
        <time>2022-08-28T12:08:42.000Z</time>
      </trkpt>
      <trkpt lat="42.90667" lon="1.41882">
        <ele>1077</ele>
        <time>2022-08-28T12:08:44.000Z</time>
      </trkpt>
      <trkpt lat="42.90684" lon="1.41902">
        <ele>1087</ele>
        <time>2022-08-28T12:08:48.000Z</time>
      </trkpt>
      <trkpt lat="42.90699" lon="1.41926">
        <ele>1095</ele>
        <time>2022-08-28T12:08:53.000Z</time>
      </trkpt>
      <trkpt lat="42.90695" lon="1.41975">
        <ele>1095</ele>
        <time>2022-08-28T12:08:59.000Z</time>
      </trkpt>
      <trkpt lat="42.90708" lon="1.42023">
        <ele>1107</ele>
        <time>2022-08-28T12:09:06.000Z</time>
      </trkpt>
      <trkpt lat="42.90705" lon="1.42033">
        <ele>1108</ele>
        <time>2022-08-28T12:09:07.000Z</time>
      </trkpt>
      <trkpt lat="42.90684" lon="1.42048">
        <ele>1100</ele>
        <time>2022-08-28T12:09:11.000Z</time>
      </trkpt>
      <trkpt lat="42.90683" lon="1.42069">
        <ele>1105</ele>
        <time>2022-08-28T12:09:14.000Z</time>
      </trkpt>
      <trkpt lat="42.90677" lon="1.42086">
        <ele>1106</ele>
        <time>2022-08-28T12:09:17.000Z</time>
      </trkpt>
      <trkpt lat="42.90653" lon="1.42098">
        <ele>1097</ele>
        <time>2022-08-28T12:09:21.000Z</time>
      </trkpt>
      <trkpt lat="42.90645" lon="1.42106">
        <ele>1094</ele>
        <time>2022-08-28T12:09:23.000Z</time>
      </trkpt>
      <trkpt lat="42.90626" lon="1.42216">
        <ele>1097</ele>
        <time>2022-08-28T12:09:38.000Z</time>
      </trkpt>
      <trkpt lat="42.90623" lon="1.4227">
        <ele>1094</ele>
        <time>2022-08-28T12:09:45.000Z</time>
      </trkpt>
      <trkpt lat="42.90631" lon="1.42294">
        <ele>1094</ele>
        <time>2022-08-28T12:09:48.000Z</time>
      </trkpt>
      <trkpt lat="42.90647" lon="1.42313">
        <ele>1097</ele>
        <time>2022-08-28T12:09:52.000Z</time>
      </trkpt>
      <trkpt lat="42.90711" lon="1.42325">
        <ele>1118</ele>
        <time>2022-08-28T12:10:04.000Z</time>
      </trkpt>
      <trkpt lat="42.90755" lon="1.42365">
        <ele>1125</ele>
        <time>2022-08-28T12:10:13.000Z</time>
      </trkpt>
      <trkpt lat="42.90782" lon="1.42441">
        <ele>1128</ele>
        <time>2022-08-28T12:10:24.000Z</time>
      </trkpt>
      <trkpt lat="42.90783" lon="1.42475">
        <ele>1128</ele>
        <time>2022-08-28T12:10:28.000Z</time>
      </trkpt>
      <trkpt lat="42.90779" lon="1.42503">
        <ele>1128</ele>
        <time>2022-08-28T12:10:32.000Z</time>
      </trkpt>
      <trkpt lat="42.90773" lon="1.42514">
        <ele>1129</ele>
        <time>2022-08-28T12:10:34.000Z</time>
      </trkpt>
      <trkpt lat="42.90731" lon="1.42532">
        <ele>1125</ele>
        <time>2022-08-28T12:10:42.000Z</time>
      </trkpt>
      <trkpt lat="42.90688" lon="1.42557">
        <ele>1124</ele>
        <time>2022-08-28T12:10:50.000Z</time>
      </trkpt>
      <trkpt lat="42.90612" lon="1.42637">
        <ele>1126</ele>
        <time>2022-08-28T12:11:07.000Z</time>
      </trkpt>
      <trkpt lat="42.90605" lon="1.42653">
        <ele>1127</ele>
        <time>2022-08-28T12:11:10.000Z</time>
      </trkpt>
      <trkpt lat="42.90604" lon="1.42698">
        <ele>1132</ele>
        <time>2022-08-28T12:11:16.000Z</time>
      </trkpt>
      <trkpt lat="42.90611" lon="1.42783">
        <ele>1137</ele>
        <time>2022-08-28T12:11:27.000Z</time>
      </trkpt>
      <trkpt lat="42.90618" lon="1.42803">
        <ele>1138</ele>
        <time>2022-08-28T12:11:30.000Z</time>
      </trkpt>
      <trkpt lat="42.90641" lon="1.42814">
        <ele>1144</ele>
        <time>2022-08-28T12:11:34.000Z</time>
      </trkpt>
      <trkpt lat="42.90649" lon="1.42823">
        <ele>1145</ele>
        <time>2022-08-28T12:11:36.000Z</time>
      </trkpt>
      <trkpt lat="42.90657" lon="1.42874">
        <ele>1150</ele>
        <time>2022-08-28T12:11:43.000Z</time>
      </trkpt>
      <trkpt lat="42.90651" lon="1.42889">
        <ele>1150</ele>
        <time>2022-08-28T12:11:45.000Z</time>
      </trkpt>
      <trkpt lat="42.90614" lon="1.42912">
        <ele>1146</ele>
        <time>2022-08-28T12:11:52.000Z</time>
      </trkpt>
      <trkpt lat="42.90592" lon="1.42925">
        <ele>1146</ele>
        <time>2022-08-28T12:11:57.000Z</time>
      </trkpt>
      <trkpt lat="42.90531" lon="1.42949">
        <ele>1142</ele>
        <time>2022-08-28T12:12:08.000Z</time>
      </trkpt>
      <trkpt lat="42.90523" lon="1.42954">
        <ele>1141</ele>
        <time>2022-08-28T12:12:09.000Z</time>
      </trkpt>
      <trkpt lat="42.90465" lon="1.43027">
        <ele>1141</ele>
        <time>2022-08-28T12:12:24.000Z</time>
      </trkpt>
      <trkpt lat="42.90458" lon="1.43049">
        <ele>1142</ele>
        <time>2022-08-28T12:12:27.000Z</time>
      </trkpt>
      <trkpt lat="42.90448" lon="1.43106">
        <ele>1141</ele>
        <time>2022-08-28T12:12:34.000Z</time>
      </trkpt>
      <trkpt lat="42.90452" lon="1.43131">
        <ele>1141</ele>
        <time>2022-08-28T12:12:38.000Z</time>
      </trkpt>
      <trkpt lat="42.90491" lon="1.43163">
        <ele>1154</ele>
        <time>2022-08-28T12:12:46.000Z</time>
      </trkpt>
      <trkpt lat="42.90503" lon="1.43177">
        <ele>1158</ele>
        <time>2022-08-28T12:12:49.000Z</time>
      </trkpt>
      <trkpt lat="42.90555" lon="1.43264">
        <ele>1175</ele>
        <time>2022-08-28T12:13:03.000Z</time>
      </trkpt>
      <trkpt lat="42.90555" lon="1.43271">
        <ele>1175</ele>
        <time>2022-08-28T12:13:04.000Z</time>
      </trkpt>
      <trkpt lat="42.90552" lon="1.43283">
        <ele>1175</ele>
        <time>2022-08-28T12:13:06.000Z</time>
      </trkpt>
      <trkpt lat="42.90546" lon="1.4329">
        <ele>1174</ele>
        <time>2022-08-28T12:13:07.000Z</time>
      </trkpt>
      <trkpt lat="42.90519" lon="1.43299">
        <ele>1165</ele>
        <time>2022-08-28T12:13:12.000Z</time>
      </trkpt>
      <trkpt lat="42.90492" lon="1.43315">
        <ele>1159</ele>
        <time>2022-08-28T12:13:17.000Z</time>
      </trkpt>
      <trkpt lat="42.90466" lon="1.43355">
        <ele>1160</ele>
        <time>2022-08-28T12:13:24.000Z</time>
      </trkpt>
      <trkpt lat="42.90438" lon="1.43392">
        <ele>1161</ele>
        <time>2022-08-28T12:13:31.000Z</time>
      </trkpt>
      <trkpt lat="42.90413" lon="1.43434">
        <ele>1160</ele>
        <time>2022-08-28T12:13:38.000Z</time>
      </trkpt>
      <trkpt lat="42.90403" lon="1.43495">
        <ele>1160</ele>
        <time>2022-08-28T12:13:46.000Z</time>
      </trkpt>
      <trkpt lat="42.90404" lon="1.43507">
        <ele>1160</ele>
        <time>2022-08-28T12:13:48.000Z</time>
      </trkpt>
      <trkpt lat="42.9041" lon="1.43527">
        <ele>1161</ele>
        <time>2022-08-28T12:13:51.000Z</time>
      </trkpt>
      <trkpt lat="42.90463" lon="1.4359">
        <ele>1174</ele>
        <time>2022-08-28T12:14:03.000Z</time>
      </trkpt>
      <trkpt lat="42.9048" lon="1.43641">
        <ele>1172</ele>
        <time>2022-08-28T12:14:11.000Z</time>
      </trkpt>
      <trkpt lat="42.9051" lon="1.43657">
        <ele>1179</ele>
        <time>2022-08-28T12:14:16.000Z</time>
      </trkpt>
      <trkpt lat="42.9052" lon="1.4367">
        <ele>1181</ele>
        <time>2022-08-28T12:14:19.000Z</time>
      </trkpt>
      <trkpt lat="42.90516" lon="1.43732">
        <ele>1179</ele>
        <time>2022-08-28T12:14:27.000Z</time>
      </trkpt>
      <trkpt lat="42.9052" lon="1.43772">
        <ele>1184</ele>
        <time>2022-08-28T12:14:32.000Z</time>
      </trkpt>
      <trkpt lat="42.90509" lon="1.43813">
        <ele>1186</ele>
        <time>2022-08-28T12:14:38.000Z</time>
      </trkpt>
      <trkpt lat="42.90497" lon="1.43821">
        <ele>1184</ele>
        <time>2022-08-28T12:14:41.000Z</time>
      </trkpt>
      <trkpt lat="42.90417" lon="1.43829">
        <ele>1179</ele>
        <time>2022-08-28T12:14:55.000Z</time>
      </trkpt>
      <trkpt lat="42.90393" lon="1.43849">
        <ele>1176</ele>
        <time>2022-08-28T12:15:00.000Z</time>
      </trkpt>
      <trkpt lat="42.90384" lon="1.43867">
        <ele>1176</ele>
        <time>2022-08-28T12:15:03.000Z</time>
      </trkpt>
      <trkpt lat="42.90402" lon="1.43955">
        <ele>1189</ele>
        <time>2022-08-28T12:15:15.000Z</time>
      </trkpt>
      <trkpt lat="42.90408" lon="1.43986">
        <ele>1193</ele>
        <time>2022-08-28T12:15:19.000Z</time>
      </trkpt>
      <trkpt lat="42.90405" lon="1.44024">
        <ele>1197</ele>
        <time>2022-08-28T12:15:24.000Z</time>
      </trkpt>
      <trkpt lat="42.90389" lon="1.44068">
        <ele>1202</ele>
        <time>2022-08-28T12:15:31.000Z</time>
      </trkpt>
      <trkpt lat="42.90372" lon="1.44079">
        <ele>1201</ele>
        <time>2022-08-28T12:15:34.000Z</time>
      </trkpt>
      <trkpt lat="42.90366" lon="1.44076">
        <ele>1200</ele>
        <time>2022-08-28T12:15:35.000Z</time>
      </trkpt>
      <trkpt lat="42.90345" lon="1.44039">
        <ele>1190</ele>
        <time>2022-08-28T12:15:42.000Z</time>
      </trkpt>
      <trkpt lat="42.90334" lon="1.44035">
        <ele>1188</ele>
        <time>2022-08-28T12:15:44.000Z</time>
      </trkpt>
      <trkpt lat="42.9032" lon="1.44039">
        <ele>1185</ele>
        <time>2022-08-28T12:15:46.000Z</time>
      </trkpt>
      <trkpt lat="42.90292" lon="1.44071">
        <ele>1186</ele>
        <time>2022-08-28T12:15:53.000Z</time>
      </trkpt>
      <trkpt lat="42.90284" lon="1.44093">
        <ele>1188</ele>
        <time>2022-08-28T12:15:56.000Z</time>
      </trkpt>
      <trkpt lat="42.90268" lon="1.44198">
        <ele>1194</ele>
        <time>2022-08-28T12:16:10.000Z</time>
      </trkpt>
      <trkpt lat="42.90269" lon="1.44242">
        <ele>1196</ele>
        <time>2022-08-28T12:16:16.000Z</time>
      </trkpt>
      <trkpt lat="42.90282" lon="1.44315">
        <ele>1202</ele>
        <time>2022-08-28T12:16:25.000Z</time>
      </trkpt>
      <trkpt lat="42.90289" lon="1.44342">
        <ele>1205</ele>
        <time>2022-08-28T12:16:29.000Z</time>
      </trkpt>
      <trkpt lat="42.90346" lon="1.44458">
        <ele>1222</ele>
        <time>2022-08-28T12:16:47.000Z</time>
      </trkpt>
      <trkpt lat="42.90355" lon="1.44493">
        <ele>1223</ele>
        <time>2022-08-28T12:16:52.000Z</time>
      </trkpt>
      <trkpt lat="42.90354" lon="1.44526">
        <ele>1225</ele>
        <time>2022-08-28T12:16:56.000Z</time>
      </trkpt>
      <trkpt lat="42.90347" lon="1.44538">
        <ele>1223</ele>
        <time>2022-08-28T12:16:58.000Z</time>
      </trkpt>
      <trkpt lat="42.90338" lon="1.44542">
        <ele>1221</ele>
        <time>2022-08-28T12:17:00.000Z</time>
      </trkpt>
      <trkpt lat="42.90287" lon="1.44525">
        <ele>1216</ele>
        <time>2022-08-28T12:17:09.000Z</time>
      </trkpt>
      <trkpt lat="42.90177" lon="1.44541">
        <ele>1222</ele>
        <time>2022-08-28T12:17:29.000Z</time>
      </trkpt>
      <trkpt lat="42.90155" lon="1.44559">
        <ele>1223</ele>
        <time>2022-08-28T12:17:34.000Z</time>
      </trkpt>
      <trkpt lat="42.90109" lon="1.44669">
        <ele>1230</ele>
        <time>2022-08-28T12:17:50.000Z</time>
      </trkpt>
      <trkpt lat="42.90071" lon="1.44754">
        <ele>1234</ele>
        <time>2022-08-28T12:18:03.000Z</time>
      </trkpt>
      <trkpt lat="42.9006" lon="1.44792">
        <ele>1233</ele>
        <time>2022-08-28T12:18:09.000Z</time>
      </trkpt>
      <trkpt lat="42.90052" lon="1.44839">
        <ele>1234</ele>
        <time>2022-08-28T12:18:15.000Z</time>
      </trkpt>
      <trkpt lat="42.90059" lon="1.44899">
        <ele>1241</ele>
        <time>2022-08-28T12:18:23.000Z</time>
      </trkpt>
      <trkpt lat="42.90056" lon="1.4493">
        <ele>1243</ele>
        <time>2022-08-28T12:18:27.000Z</time>
      </trkpt>
      <trkpt lat="42.90004" lon="1.45072">
        <ele>1247</ele>
        <time>2022-08-28T12:18:48.000Z</time>
      </trkpt>
      <trkpt lat="42.89967" lon="1.45237">
        <ele>1256</ele>
        <time>2022-08-28T12:19:10.000Z</time>
      </trkpt>
      <trkpt lat="42.89955" lon="1.45253">
        <ele>1255</ele>
        <time>2022-08-28T12:19:13.000Z</time>
      </trkpt>
      <trkpt lat="42.89911" lon="1.45273">
        <ele>1249</ele>
        <time>2022-08-28T12:19:21.000Z</time>
      </trkpt>
      <trkpt lat="42.89903" lon="1.45287">
        <ele>1250</ele>
        <time>2022-08-28T12:19:24.000Z</time>
      </trkpt>
      <trkpt lat="42.89901" lon="1.45298">
        <ele>1250</ele>
        <time>2022-08-28T12:19:25.000Z</time>
      </trkpt>
      <trkpt lat="42.89903" lon="1.45322">
        <ele>1249</ele>
        <time>2022-08-28T12:19:28.000Z</time>
      </trkpt>
      <trkpt lat="42.89924" lon="1.4541">
        <ele>1247</ele>
        <time>2022-08-28T12:19:40.000Z</time>
      </trkpt>
      <trkpt lat="42.89917" lon="1.45602">
        <ele>1241</ele>
        <time>2022-08-28T12:20:05.000Z</time>
      </trkpt>
      <trkpt lat="42.89913" lon="1.45632">
        <ele>1242</ele>
        <time>2022-08-28T12:20:09.000Z</time>
      </trkpt>
      <trkpt lat="42.89862" lon="1.45766">
        <ele>1224</ele>
        <time>2022-08-28T12:20:29.000Z</time>
      </trkpt>
      <trkpt lat="42.89857" lon="1.45798">
        <ele>1218</ele>
        <time>2022-08-28T12:20:33.000Z</time>
      </trkpt>
      <trkpt lat="42.89864" lon="1.45812">
        <ele>1219</ele>
        <time>2022-08-28T12:20:36.000Z</time>
      </trkpt>
      <trkpt lat="42.89897" lon="1.45833">
        <ele>1227</ele>
        <time>2022-08-28T12:20:42.000Z</time>
      </trkpt>
      <trkpt lat="42.89904" lon="1.45855">
        <ele>1229</ele>
        <time>2022-08-28T12:20:45.000Z</time>
      </trkpt>
      <trkpt lat="42.89904" lon="1.45875">
        <ele>1229</ele>
        <time>2022-08-28T12:20:48.000Z</time>
      </trkpt>
      <trkpt lat="42.899" lon="1.45894">
        <ele>1227</ele>
        <time>2022-08-28T12:20:50.000Z</time>
      </trkpt>
      <trkpt lat="42.89884" lon="1.45918">
        <ele>1222</ele>
        <time>2022-08-28T12:20:55.000Z</time>
      </trkpt>
      <trkpt lat="42.89836" lon="1.45929">
        <ele>1209</ele>
        <time>2022-08-28T12:21:03.000Z</time>
      </trkpt>
      <trkpt lat="42.89825" lon="1.45938">
        <ele>1206</ele>
        <time>2022-08-28T12:21:06.000Z</time>
      </trkpt>
      <trkpt lat="42.89819" lon="1.45963">
        <ele>1205</ele>
        <time>2022-08-28T12:21:09.000Z</time>
      </trkpt>
      <trkpt lat="42.89821" lon="1.4598">
        <ele>1207</ele>
        <time>2022-08-28T12:21:11.000Z</time>
      </trkpt>
      <trkpt lat="42.89847" lon="1.46018">
        <ele>1218</ele>
        <time>2022-08-28T12:21:18.000Z</time>
      </trkpt>
      <trkpt lat="42.89849" lon="1.46027">
        <ele>1219</ele>
        <time>2022-08-28T12:21:20.000Z</time>
      </trkpt>
      <trkpt lat="42.89847" lon="1.46036">
        <ele>1219</ele>
        <time>2022-08-28T12:21:21.000Z</time>
      </trkpt>
      <trkpt lat="42.8984" lon="1.46047">
        <ele>1217</ele>
        <time>2022-08-28T12:21:23.000Z</time>
      </trkpt>
      <trkpt lat="42.8981" lon="1.46057">
        <ele>1206</ele>
        <time>2022-08-28T12:21:28.000Z</time>
      </trkpt>
      <trkpt lat="42.89796" lon="1.46079">
        <ele>1201</ele>
        <time>2022-08-28T12:21:32.000Z</time>
      </trkpt>
      <trkpt lat="42.89795" lon="1.46091">
        <ele>1201</ele>
        <time>2022-08-28T12:21:34.000Z</time>
      </trkpt>
      <trkpt lat="42.89859" lon="1.46341">
        <ele>1207</ele>
        <time>2022-08-28T12:22:08.000Z</time>
      </trkpt>
      <trkpt lat="42.89858" lon="1.46356">
        <ele>1208</ele>
        <time>2022-08-28T12:22:10.000Z</time>
      </trkpt>
      <trkpt lat="42.89739" lon="1.46594">
        <ele>1190</ele>
        <time>2022-08-28T12:22:48.000Z</time>
      </trkpt>
      <trkpt lat="42.89673" lon="1.46803">
        <ele>1172</ele>
        <time>2022-08-28T12:23:18.000Z</time>
      </trkpt>
      <trkpt lat="42.89669" lon="1.46822">
        <ele>1171</ele>
        <time>2022-08-28T12:23:20.000Z</time>
      </trkpt>
      <trkpt lat="42.89673" lon="1.46833">
        <ele>1172</ele>
        <time>2022-08-28T12:23:22.000Z</time>
      </trkpt>
      <trkpt lat="42.89701" lon="1.4684">
        <ele>1178</ele>
        <time>2022-08-28T12:23:27.000Z</time>
      </trkpt>
      <trkpt lat="42.89712" lon="1.46846">
        <ele>1181</ele>
        <time>2022-08-28T12:23:29.000Z</time>
      </trkpt>
      <trkpt lat="42.89727" lon="1.46864">
        <ele>1184</ele>
        <time>2022-08-28T12:23:32.000Z</time>
      </trkpt>
      <trkpt lat="42.89732" lon="1.46875">
        <ele>1185</ele>
        <time>2022-08-28T12:23:34.000Z</time>
      </trkpt>
      <trkpt lat="42.89734" lon="1.46886">
        <ele>1185</ele>
        <time>2022-08-28T12:23:36.000Z</time>
      </trkpt>
      <trkpt lat="42.8973" lon="1.46901">
        <ele>1184</ele>
        <time>2022-08-28T12:23:38.000Z</time>
      </trkpt>
      <trkpt lat="42.89717" lon="1.46916">
        <ele>1181</ele>
        <time>2022-08-28T12:23:41.000Z</time>
      </trkpt>
      <trkpt lat="42.89698" lon="1.46921">
        <ele>1177</ele>
        <time>2022-08-28T12:23:44.000Z</time>
      </trkpt>
      <trkpt lat="42.89688" lon="1.46911">
        <ele>1173</ele>
        <time>2022-08-28T12:23:46.000Z</time>
      </trkpt>
      <trkpt lat="42.89656" lon="1.46851">
        <ele>1165</ele>
        <time>2022-08-28T12:23:56.000Z</time>
      </trkpt>
      <trkpt lat="42.89649" lon="1.46833">
        <ele>1163</ele>
        <time>2022-08-28T12:23:59.000Z</time>
      </trkpt>
      <trkpt lat="42.89676" lon="1.46632">
        <ele>1167</ele>
        <time>2022-08-28T12:24:26.000Z</time>
      </trkpt>
      <trkpt lat="42.89676" lon="1.46537">
        <ele>1159</ele>
        <time>2022-08-28T12:24:38.000Z</time>
      </trkpt>
      <trkpt lat="42.89678" lon="1.46512">
        <ele>1157</ele>
        <time>2022-08-28T12:24:41.000Z</time>
      </trkpt>
      <trkpt lat="42.8971" lon="1.46405">
        <ele>1157</ele>
        <time>2022-08-28T12:24:56.000Z</time>
      </trkpt>
      <trkpt lat="42.89724" lon="1.46315">
        <ele>1158</ele>
        <time>2022-08-28T12:25:08.000Z</time>
      </trkpt>
      <trkpt lat="42.89717" lon="1.46241">
        <ele>1159</ele>
        <time>2022-08-28T12:25:18.000Z</time>
      </trkpt>
      <trkpt lat="42.89708" lon="1.46189">
        <ele>1162</ele>
        <time>2022-08-28T12:25:25.000Z</time>
      </trkpt>
      <trkpt lat="42.89703" lon="1.46179">
        <ele>1161</ele>
        <time>2022-08-28T12:25:27.000Z</time>
      </trkpt>
      <trkpt lat="42.89696" lon="1.46174">
        <ele>1159</ele>
        <time>2022-08-28T12:25:28.000Z</time>
      </trkpt>
      <trkpt lat="42.89685" lon="1.46174">
        <ele>1155</ele>
        <time>2022-08-28T12:25:30.000Z</time>
      </trkpt>
      <trkpt lat="42.89677" lon="1.46185">
        <ele>1151</ele>
        <time>2022-08-28T12:25:32.000Z</time>
      </trkpt>
      <trkpt lat="42.89708" lon="1.46278">
        <ele>1154</ele>
        <time>2022-08-28T12:25:46.000Z</time>
      </trkpt>
      <trkpt lat="42.89707" lon="1.46297">
        <ele>1153</ele>
        <time>2022-08-28T12:25:48.000Z</time>
      </trkpt>
      <trkpt lat="42.89679" lon="1.46411">
        <ele>1147</ele>
        <time>2022-08-28T12:26:04.000Z</time>
      </trkpt>
      <trkpt lat="42.89649" lon="1.46459">
        <ele>1143</ele>
        <time>2022-08-28T12:26:12.000Z</time>
      </trkpt>
      <trkpt lat="42.89639" lon="1.46484">
        <ele>1143</ele>
        <time>2022-08-28T12:26:16.000Z</time>
      </trkpt>
      <trkpt lat="42.89605" lon="1.46643">
        <ele>1137</ele>
        <time>2022-08-28T12:26:37.000Z</time>
      </trkpt>
      <trkpt lat="42.89597" lon="1.4674">
        <ele>1137</ele>
        <time>2022-08-28T12:26:50.000Z</time>
      </trkpt>
      <trkpt lat="42.89562" lon="1.46826">
        <ele>1128</ele>
        <time>2022-08-28T12:27:03.000Z</time>
      </trkpt>
      <trkpt lat="42.89557" lon="1.46853">
        <ele>1126</ele>
        <time>2022-08-28T12:27:07.000Z</time>
      </trkpt>
      <trkpt lat="42.89558" lon="1.46984">
        <ele>1126</ele>
        <time>2022-08-28T12:27:24.000Z</time>
      </trkpt>
      <trkpt lat="42.89569" lon="1.47083">
        <ele>1125</ele>
        <time>2022-08-28T12:27:37.000Z</time>
      </trkpt>
      <trkpt lat="42.89567" lon="1.4712">
        <ele>1124</ele>
        <time>2022-08-28T12:27:42.000Z</time>
      </trkpt>
      <trkpt lat="42.89497" lon="1.47282">
        <ele>1109</ele>
        <time>2022-08-28T12:28:06.000Z</time>
      </trkpt>
      <trkpt lat="42.89489" lon="1.47453">
        <ele>1099</ele>
        <time>2022-08-28T12:28:28.000Z</time>
      </trkpt>
      <trkpt lat="42.89475" lon="1.47521">
        <ele>1097</ele>
        <time>2022-08-28T12:28:38.000Z</time>
      </trkpt>
      <trkpt lat="42.89467" lon="1.47537">
        <ele>1095</ele>
        <time>2022-08-28T12:28:40.000Z</time>
      </trkpt>
      <trkpt lat="42.8946" lon="1.47545">
        <ele>1094</ele>
        <time>2022-08-28T12:28:42.000Z</time>
      </trkpt>
      <trkpt lat="42.89386" lon="1.47603">
        <ele>1079</ele>
        <time>2022-08-28T12:28:57.000Z</time>
      </trkpt>
      <trkpt lat="42.89376" lon="1.47624">
        <ele>1077</ele>
        <time>2022-08-28T12:29:00.000Z</time>
      </trkpt>
      <trkpt lat="42.89368" lon="1.477">
        <ele>1075</ele>
        <time>2022-08-28T12:29:10.000Z</time>
      </trkpt>
      <trkpt lat="42.8935" lon="1.47823">
        <ele>1067</ele>
        <time>2022-08-28T12:29:27.000Z</time>
      </trkpt>
      <trkpt lat="42.89354" lon="1.47909">
        <ele>1064</ele>
        <time>2022-08-28T12:29:38.000Z</time>
      </trkpt>
      <trkpt lat="42.89354" lon="1.47963">
        <ele>1066</ele>
        <time>2022-08-28T12:29:45.000Z</time>
      </trkpt>
      <trkpt lat="42.89346" lon="1.47979">
        <ele>1064</ele>
        <time>2022-08-28T12:29:48.000Z</time>
      </trkpt>
      <trkpt lat="42.89335" lon="1.47989">
        <ele>1062</ele>
        <time>2022-08-28T12:29:50.000Z</time>
      </trkpt>
      <trkpt lat="42.89284" lon="1.48013">
        <ele>1053</ele>
        <time>2022-08-28T12:29:59.000Z</time>
      </trkpt>
      <trkpt lat="42.89261" lon="1.4803">
        <ele>1051</ele>
        <time>2022-08-28T12:30:04.000Z</time>
      </trkpt>
      <trkpt lat="42.89196" lon="1.48146">
        <ele>1045</ele>
        <time>2022-08-28T12:30:23.000Z</time>
      </trkpt>
      <trkpt lat="42.89185" lon="1.48158">
        <ele>1043</ele>
        <time>2022-08-28T12:30:26.000Z</time>
      </trkpt>
      <trkpt lat="42.89148" lon="1.48163">
        <ele>1036</ele>
        <time>2022-08-28T12:30:32.000Z</time>
      </trkpt>
      <trkpt lat="42.89118" lon="1.48181">
        <ele>1031</ele>
        <time>2022-08-28T12:30:38.000Z</time>
      </trkpt>
      <trkpt lat="42.89104" lon="1.48199">
        <ele>1029</ele>
        <time>2022-08-28T12:30:42.000Z</time>
      </trkpt>
      <trkpt lat="42.89073" lon="1.48262">
        <ele>1024</ele>
        <time>2022-08-28T12:30:52.000Z</time>
      </trkpt>
      <trkpt lat="42.89061" lon="1.4831">
        <ele>1021</ele>
        <time>2022-08-28T12:30:58.000Z</time>
      </trkpt>
      <trkpt lat="42.89058" lon="1.48402">
        <ele>1020</ele>
        <time>2022-08-28T12:31:10.000Z</time>
      </trkpt>
      <trkpt lat="42.89045" lon="1.48491">
        <ele>1019</ele>
        <time>2022-08-28T12:31:22.000Z</time>
      </trkpt>
      <trkpt lat="42.89039" lon="1.48501">
        <ele>1017</ele>
        <time>2022-08-28T12:31:24.000Z</time>
      </trkpt>
      <trkpt lat="42.89035" lon="1.48503">
        <ele>1016</ele>
        <time>2022-08-28T12:31:24.000Z</time>
      </trkpt>
      <trkpt lat="42.88995" lon="1.48506">
        <ele>1007</ele>
        <time>2022-08-28T12:31:32.000Z</time>
      </trkpt>
      <trkpt lat="42.88974" lon="1.4853">
        <ele>1005</ele>
        <time>2022-08-28T12:31:37.000Z</time>
      </trkpt>
      <trkpt lat="42.88954" lon="1.48576">
        <ele>1003</ele>
        <time>2022-08-28T12:31:43.000Z</time>
      </trkpt>
      <trkpt lat="42.8892" lon="1.48616">
        <ele>998</ele>
        <time>2022-08-28T12:31:51.000Z</time>
      </trkpt>
      <trkpt lat="42.88909" lon="1.48638">
        <ele>995</ele>
        <time>2022-08-28T12:31:55.000Z</time>
      </trkpt>
      <trkpt lat="42.88906" lon="1.48705">
        <ele>997</ele>
        <time>2022-08-28T12:32:04.000Z</time>
      </trkpt>
      <trkpt lat="42.88897" lon="1.4873">
        <ele>996</ele>
        <time>2022-08-28T12:32:07.000Z</time>
      </trkpt>
      <trkpt lat="42.88835" lon="1.48815">
        <ele>985</ele>
        <time>2022-08-28T12:32:23.000Z</time>
      </trkpt>
      <trkpt lat="42.88822" lon="1.48831">
        <ele>983</ele>
        <time>2022-08-28T12:32:26.000Z</time>
      </trkpt>
      <trkpt lat="42.88777" lon="1.48874">
        <ele>974</ele>
        <time>2022-08-28T12:32:36.000Z</time>
      </trkpt>
      <trkpt lat="42.88769" lon="1.48889">
        <ele>973</ele>
        <time>2022-08-28T12:32:38.000Z</time>
      </trkpt>
      <trkpt lat="42.88746" lon="1.48979">
        <ele>969</ele>
        <time>2022-08-28T12:32:51.000Z</time>
      </trkpt>
      <trkpt lat="42.88739" lon="1.49017">
        <ele>967</ele>
        <time>2022-08-28T12:32:56.000Z</time>
      </trkpt>
      <trkpt lat="42.8874" lon="1.49045">
        <ele>966</ele>
        <time>2022-08-28T12:32:59.000Z</time>
      </trkpt>
      <trkpt lat="42.8875" lon="1.49107">
        <ele>966</ele>
        <time>2022-08-28T12:33:08.000Z</time>
      </trkpt>
      <trkpt lat="42.88743" lon="1.49239">
        <ele>963</ele>
        <time>2022-08-28T12:33:25.000Z</time>
      </trkpt>
      <trkpt lat="42.88739" lon="1.4926">
        <ele>962</ele>
        <time>2022-08-28T12:33:28.000Z</time>
      </trkpt>
      <trkpt lat="42.88704" lon="1.49334">
        <ele>955</ele>
        <time>2022-08-28T12:33:39.000Z</time>
      </trkpt>
      <trkpt lat="42.88695" lon="1.49393">
        <ele>953</ele>
        <time>2022-08-28T12:33:47.000Z</time>
      </trkpt>
      <trkpt lat="42.88684" lon="1.49429">
        <ele>951</ele>
        <time>2022-08-28T12:33:52.000Z</time>
      </trkpt>
      <trkpt lat="42.88652" lon="1.49486">
        <ele>948</ele>
        <time>2022-08-28T12:34:02.000Z</time>
      </trkpt>
      <trkpt lat="42.88616" lon="1.49514">
        <ele>945</ele>
        <time>2022-08-28T12:34:09.000Z</time>
      </trkpt>
      <trkpt lat="42.88607" lon="1.49525">
        <ele>943</ele>
        <time>2022-08-28T12:34:11.000Z</time>
      </trkpt>
      <trkpt lat="42.88585" lon="1.49584">
        <ele>935</ele>
        <time>2022-08-28T12:34:20.000Z</time>
      </trkpt>
      <trkpt lat="42.88578" lon="1.49595">
        <ele>933</ele>
        <time>2022-08-28T12:34:22.000Z</time>
      </trkpt>
      <trkpt lat="42.88565" lon="1.49599">
        <ele>930</ele>
        <time>2022-08-28T12:34:24.000Z</time>
      </trkpt>
      <trkpt lat="42.88522" lon="1.4956">
        <ele>926</ele>
        <time>2022-08-28T12:34:33.000Z</time>
      </trkpt>
      <trkpt lat="42.88515" lon="1.49555">
        <ele>925</ele>
        <time>2022-08-28T12:34:35.000Z</time>
      </trkpt>
      <trkpt lat="42.88367" lon="1.49567">
        <ele>921</ele>
        <time>2022-08-28T12:35:01.000Z</time>
      </trkpt>
      <trkpt lat="42.88357" lon="1.49572">
        <ele>923</ele>
        <time>2022-08-28T12:35:03.000Z</time>
      </trkpt>
      <trkpt lat="42.88351" lon="1.49584">
        <ele>923</ele>
        <time>2022-08-28T12:35:05.000Z</time>
      </trkpt>
      <trkpt lat="42.88352" lon="1.49596">
        <ele>924</ele>
        <time>2022-08-28T12:35:07.000Z</time>
      </trkpt>
      <trkpt lat="42.88385" lon="1.49641">
        <ele>917</ele>
        <time>2022-08-28T12:35:15.000Z</time>
      </trkpt>
      <trkpt lat="42.88397" lon="1.49668">
        <ele>912</ele>
        <time>2022-08-28T12:35:19.000Z</time>
      </trkpt>
      <trkpt lat="42.88402" lon="1.49712">
        <ele>906</ele>
        <time>2022-08-28T12:35:25.000Z</time>
      </trkpt>
      <trkpt lat="42.88401" lon="1.49749">
        <ele>903</ele>
        <time>2022-08-28T12:35:30.000Z</time>
      </trkpt>
      <trkpt lat="42.88387" lon="1.49804">
        <ele>899</ele>
        <time>2022-08-28T12:35:37.000Z</time>
      </trkpt>
      <trkpt lat="42.88367" lon="1.49854">
        <ele>896</ele>
        <time>2022-08-28T12:35:45.000Z</time>
      </trkpt>
      <trkpt lat="42.88314" lon="1.49944">
        <ele>887</ele>
        <time>2022-08-28T12:36:00.000Z</time>
      </trkpt>
      <trkpt lat="42.88287" lon="1.49969">
        <ele>883</ele>
        <time>2022-08-28T12:36:06.000Z</time>
      </trkpt>
      <trkpt lat="42.88223" lon="1.49987">
        <ele>881</ele>
        <time>2022-08-28T12:36:17.000Z</time>
      </trkpt>
      <trkpt lat="42.88196" lon="1.49996">
        <ele>878</ele>
        <time>2022-08-28T12:36:22.000Z</time>
      </trkpt>
      <trkpt lat="42.88118" lon="1.5006">
        <ele>858</ele>
        <time>2022-08-28T12:36:38.000Z</time>
      </trkpt>
      <trkpt lat="42.88106" lon="1.50064">
        <ele>856</ele>
        <time>2022-08-28T12:36:41.000Z</time>
      </trkpt>
      <trkpt lat="42.88087" lon="1.50064">
        <ele>855</ele>
        <time>2022-08-28T12:36:44.000Z</time>
      </trkpt>
      <trkpt lat="42.88071" lon="1.50059">
        <ele>854</ele>
        <time>2022-08-28T12:36:47.000Z</time>
      </trkpt>
      <trkpt lat="42.88024" lon="1.50007">
        <ele>857</ele>
        <time>2022-08-28T12:36:58.000Z</time>
      </trkpt>
      <trkpt lat="42.87994" lon="1.49978">
        <ele>860</ele>
        <time>2022-08-28T12:37:04.000Z</time>
      </trkpt>
      <trkpt lat="42.87981" lon="1.49975">
        <ele>863</ele>
        <time>2022-08-28T12:37:07.000Z</time>
      </trkpt>
      <trkpt lat="42.87974" lon="1.49987">
        <ele>863</ele>
        <time>2022-08-28T12:37:09.000Z</time>
      </trkpt>
      <trkpt lat="42.88038" lon="1.50104">
        <ele>842</ele>
        <time>2022-08-28T12:37:28.000Z</time>
      </trkpt>
      <trkpt lat="42.88047" lon="1.50111">
        <ele>841</ele>
        <time>2022-08-28T12:37:30.000Z</time>
      </trkpt>
      <trkpt lat="42.88076" lon="1.50121">
        <ele>840</ele>
        <time>2022-08-28T12:37:35.000Z</time>
      </trkpt>
      <trkpt lat="42.88091" lon="1.50129">
        <ele>839</ele>
        <time>2022-08-28T12:37:38.000Z</time>
      </trkpt>
      <trkpt lat="42.88151" lon="1.50173">
        <ele>831</ele>
        <time>2022-08-28T12:37:50.000Z</time>
      </trkpt>
      <trkpt lat="42.88178" lon="1.5019">
        <ele>828</ele>
        <time>2022-08-28T12:37:55.000Z</time>
      </trkpt>
      <trkpt lat="42.88193" lon="1.50191">
        <ele>828</ele>
        <time>2022-08-28T12:37:58.000Z</time>
      </trkpt>
      <trkpt lat="42.88235" lon="1.50174">
        <ele>831</ele>
        <time>2022-08-28T12:38:06.000Z</time>
      </trkpt>
      <trkpt lat="42.88254" lon="1.5018">
        <ele>831</ele>
        <time>2022-08-28T12:38:09.000Z</time>
      </trkpt>
      <trkpt lat="42.88258" lon="1.50195">
        <ele>830</ele>
        <time>2022-08-28T12:38:11.000Z</time>
      </trkpt>
      <trkpt lat="42.8822" lon="1.50287">
        <ele>824</ele>
        <time>2022-08-28T12:38:25.000Z</time>
      </trkpt>
      <trkpt lat="42.8821" lon="1.50299">
        <ele>823</ele>
        <time>2022-08-28T12:38:28.000Z</time>
      </trkpt>
      <trkpt lat="42.88077" lon="1.50409">
        <ele>806</ele>
        <time>2022-08-28T12:38:55.000Z</time>
      </trkpt>
      <trkpt lat="42.88072" lon="1.50416">
        <ele>806</ele>
        <time>2022-08-28T12:38:57.000Z</time>
      </trkpt>
      <trkpt lat="42.88044" lon="1.50496">
        <ele>801</ele>
        <time>2022-08-28T12:39:08.000Z</time>
      </trkpt>
      <trkpt lat="42.8804" lon="1.50515">
        <ele>798</ele>
        <time>2022-08-28T12:39:11.000Z</time>
      </trkpt>
      <trkpt lat="42.88058" lon="1.50559">
        <ele>798</ele>
        <time>2022-08-28T12:39:18.000Z</time>
      </trkpt>
      <trkpt lat="42.88064" lon="1.50577">
        <ele>798</ele>
        <time>2022-08-28T12:39:20.000Z</time>
      </trkpt>
      <trkpt lat="42.8806" lon="1.50687">
        <ele>788</ele>
        <time>2022-08-28T12:39:35.000Z</time>
      </trkpt>
      <trkpt lat="42.88061" lon="1.50733">
        <ele>785</ele>
        <time>2022-08-28T12:39:41.000Z</time>
      </trkpt>
      <trkpt lat="42.8809" lon="1.50897">
        <ele>778</ele>
        <time>2022-08-28T12:40:03.000Z</time>
      </trkpt>
      <trkpt lat="42.88091" lon="1.50913">
        <ele>777</ele>
        <time>2022-08-28T12:40:05.000Z</time>
      </trkpt>
      <trkpt lat="42.8808" lon="1.51025">
        <ele>763</ele>
        <time>2022-08-28T12:40:20.000Z</time>
      </trkpt>
      <trkpt lat="42.88083" lon="1.51127">
        <ele>758</ele>
        <time>2022-08-28T12:40:33.000Z</time>
      </trkpt>
      <trkpt lat="42.88068" lon="1.51258">
        <ele>754</ele>
        <time>2022-08-28T12:40:50.000Z</time>
      </trkpt>
      <trkpt lat="42.88063" lon="1.51306">
        <ele>754</ele>
        <time>2022-08-28T12:40:57.000Z</time>
      </trkpt>
      <trkpt lat="42.8801" lon="1.51456">
        <ele>737</ele>
        <time>2022-08-28T12:41:18.000Z</time>
      </trkpt>
      <trkpt lat="42.88005" lon="1.5148">
        <ele>735</ele>
        <time>2022-08-28T12:41:22.000Z</time>
      </trkpt>
      <trkpt lat="42.88007" lon="1.51601">
        <ele>726</ele>
        <time>2022-08-28T12:41:37.000Z</time>
      </trkpt>
      <trkpt lat="42.88042" lon="1.51705">
        <ele>726</ele>
        <time>2022-08-28T12:41:52.000Z</time>
      </trkpt>
      <trkpt lat="42.88044" lon="1.51742">
        <ele>725</ele>
        <time>2022-08-28T12:41:57.000Z</time>
      </trkpt>
      <trkpt lat="42.87986" lon="1.51844">
        <ele>714</ele>
        <time>2022-08-28T12:42:14.000Z</time>
      </trkpt>
      <trkpt lat="42.87982" lon="1.51862">
        <ele>713</ele>
        <time>2022-08-28T12:42:17.000Z</time>
      </trkpt>
      <trkpt lat="42.87972" lon="1.51969">
        <ele>712</ele>
        <time>2022-08-28T12:42:31.000Z</time>
      </trkpt>
      <trkpt lat="42.87963" lon="1.52031">
        <ele>711</ele>
        <time>2022-08-28T12:42:39.000Z</time>
      </trkpt>
      <trkpt lat="42.87815" lon="1.52788">
        <ele>682</ele>
        <time>2022-08-28T12:44:21.000Z</time>
      </trkpt>
      <trkpt lat="42.87803" lon="1.5287">
        <ele>681</ele>
        <time>2022-08-28T12:44:32.000Z</time>
      </trkpt>
      <trkpt lat="42.87855" lon="1.53151">
        <ele>686</ele>
        <time>2022-08-28T12:45:10.000Z</time>
      </trkpt>
      <trkpt lat="42.87862" lon="1.53228">
        <ele>686</ele>
        <time>2022-08-28T12:45:20.000Z</time>
      </trkpt>
      <trkpt lat="42.8784" lon="1.53385">
        <ele>679</ele>
        <time>2022-08-28T12:45:41.000Z</time>
      </trkpt>
      <trkpt lat="42.87829" lon="1.53476">
        <ele>676</ele>
        <time>2022-08-28T12:45:53.000Z</time>
      </trkpt>
      <trkpt lat="42.87823" lon="1.53781">
        <ele>673</ele>
        <time>2022-08-28T12:46:33.000Z</time>
      </trkpt>
      <trkpt lat="42.87827" lon="1.53863">
        <ele>672</ele>
        <time>2022-08-28T12:46:43.000Z</time>
      </trkpt>
      <trkpt lat="42.87888" lon="1.5417">
        <ele>674</ele>
        <time>2022-08-28T12:47:25.000Z</time>
      </trkpt>
      <trkpt lat="42.87919" lon="1.54252">
        <ele>672</ele>
        <time>2022-08-28T12:47:37.000Z</time>
      </trkpt>
      <trkpt lat="42.87983" lon="1.54356">
        <ele>670</ele>
        <time>2022-08-28T12:47:55.000Z</time>
      </trkpt>
      <trkpt lat="42.8799" lon="1.54372">
        <ele>669</ele>
        <time>2022-08-28T12:47:57.000Z</time>
      </trkpt>
      <trkpt lat="42.87999" lon="1.5441">
        <ele>665</ele>
        <time>2022-08-28T12:48:02.000Z</time>
      </trkpt>
      <trkpt lat="42.88006" lon="1.54458">
        <ele>664</ele>
        <time>2022-08-28T12:48:09.000Z</time>
      </trkpt>
      <trkpt lat="42.88004" lon="1.54549">
        <ele>661</ele>
        <time>2022-08-28T12:48:21.000Z</time>
      </trkpt>
      <trkpt lat="42.87992" lon="1.546">
        <ele>658</ele>
        <time>2022-08-28T12:48:28.000Z</time>
      </trkpt>
      <trkpt lat="42.87979" lon="1.54624">
        <ele>657</ele>
        <time>2022-08-28T12:48:31.000Z</time>
      </trkpt>
      <trkpt lat="42.87964" lon="1.54644">
        <ele>655</ele>
        <time>2022-08-28T12:48:35.000Z</time>
      </trkpt>
      <trkpt lat="42.87899" lon="1.54683">
        <ele>651</ele>
        <time>2022-08-28T12:48:48.000Z</time>
      </trkpt>
      <trkpt lat="42.87879" lon="1.54698">
        <ele>651</ele>
        <time>2022-08-28T12:48:52.000Z</time>
      </trkpt>
      <trkpt lat="42.8783" lon="1.54764">
        <ele>646</ele>
        <time>2022-08-28T12:49:04.000Z</time>
      </trkpt>
      <trkpt lat="42.87808" lon="1.54786">
        <ele>643</ele>
        <time>2022-08-28T12:49:09.000Z</time>
      </trkpt>
      <trkpt lat="42.87773" lon="1.54855">
        <ele>638</ele>
        <time>2022-08-28T12:49:20.000Z</time>
      </trkpt>
      <trkpt lat="42.87717" lon="1.54929">
        <ele>630</ele>
        <time>2022-08-28T12:49:34.000Z</time>
      </trkpt>
      <trkpt lat="42.87568" lon="1.55031">
        <ele>632</ele>
        <time>2022-08-28T12:50:04.000Z</time>
      </trkpt>
      <trkpt lat="42.87554" lon="1.55052">
        <ele>634</ele>
        <time>2022-08-28T12:50:07.000Z</time>
      </trkpt>
      <trkpt lat="42.87547" lon="1.55075">
        <ele>635</ele>
        <time>2022-08-28T12:50:11.000Z</time>
      </trkpt>
      <trkpt lat="42.8752" lon="1.55317">
        <ele>644</ele>
        <time>2022-08-28T12:50:42.000Z</time>
      </trkpt>
      <trkpt lat="42.87528" lon="1.55409">
        <ele>646</ele>
        <time>2022-08-28T12:50:55.000Z</time>
      </trkpt>
      <trkpt lat="42.8753" lon="1.55458">
        <ele>648</ele>
        <time>2022-08-28T12:51:01.000Z</time>
      </trkpt>
      <trkpt lat="42.87504" lon="1.55605">
        <ele>656</ele>
        <time>2022-08-28T12:51:21.000Z</time>
      </trkpt>
      <trkpt lat="42.87493" lon="1.55686">
        <ele>657</ele>
        <time>2022-08-28T12:51:32.000Z</time>
      </trkpt>
      <trkpt lat="42.87493" lon="1.55756">
        <ele>657</ele>
        <time>2022-08-28T12:51:41.000Z</time>
      </trkpt>
      <trkpt lat="42.87503" lon="1.559">
        <ele>663</ele>
        <time>2022-08-28T12:52:00.000Z</time>
      </trkpt>
      <trkpt lat="42.87496" lon="1.55951">
        <ele>665</ele>
        <time>2022-08-28T12:52:06.000Z</time>
      </trkpt>
      <trkpt lat="42.8747" lon="1.56066">
        <ele>660</ele>
        <time>2022-08-28T12:52:22.000Z</time>
      </trkpt>
      <trkpt lat="42.87457" lon="1.56105">
        <ele>655</ele>
        <time>2022-08-28T12:52:28.000Z</time>
      </trkpt>
      <trkpt lat="42.87445" lon="1.5613">
        <ele>652</ele>
        <time>2022-08-28T12:52:32.000Z</time>
      </trkpt>
      <trkpt lat="42.87406" lon="1.56193">
        <ele>649</ele>
        <time>2022-08-28T12:52:42.000Z</time>
      </trkpt>
      <trkpt lat="42.87391" lon="1.56223">
        <ele>648</ele>
        <time>2022-08-28T12:52:47.000Z</time>
      </trkpt>
      <trkpt lat="42.87352" lon="1.56347">
        <ele>646</ele>
        <time>2022-08-28T12:53:05.000Z</time>
      </trkpt>
      <trkpt lat="42.87331" lon="1.5639">
        <ele>646</ele>
        <time>2022-08-28T12:53:11.000Z</time>
      </trkpt>
      <trkpt lat="42.87167" lon="1.56518">
        <ele>642</ele>
        <time>2022-08-28T12:53:45.000Z</time>
      </trkpt>
      <trkpt lat="42.87158" lon="1.5653">
        <ele>641</ele>
        <time>2022-08-28T12:53:47.000Z</time>
      </trkpt>
      <trkpt lat="42.8712" lon="1.56694">
        <ele>634</ele>
        <time>2022-08-28T12:54:10.000Z</time>
      </trkpt>
      <trkpt lat="42.87109" lon="1.56728">
        <ele>634</ele>
        <time>2022-08-28T12:54:15.000Z</time>
      </trkpt>
      <trkpt lat="42.87095" lon="1.56747">
        <ele>632</ele>
        <time>2022-08-28T12:54:18.000Z</time>
      </trkpt>
      <trkpt lat="42.87086" lon="1.56755">
        <ele>632</ele>
        <time>2022-08-28T12:54:20.000Z</time>
      </trkpt>
      <trkpt lat="42.8706" lon="1.56765">
        <ele>631</ele>
        <time>2022-08-28T12:54:25.000Z</time>
      </trkpt>
      <trkpt lat="42.87026" lon="1.5677">
        <ele>627</ele>
        <time>2022-08-28T12:54:31.000Z</time>
      </trkpt>
      <trkpt lat="42.8698" lon="1.56799">
        <ele>631</ele>
        <time>2022-08-28T12:54:40.000Z</time>
      </trkpt>
      <trkpt lat="42.86971" lon="1.56802">
        <ele>629</ele>
        <time>2022-08-28T12:54:42.000Z</time>
      </trkpt>
      <trkpt lat="42.86862" lon="1.56829">
        <ele>617</ele>
        <time>2022-08-28T12:55:01.000Z</time>
      </trkpt>
      <trkpt lat="42.86799" lon="1.56827">
        <ele>608</ele>
        <time>2022-08-28T12:55:13.000Z</time>
      </trkpt>
      <trkpt lat="42.86764" lon="1.56837">
        <ele>606</ele>
        <time>2022-08-28T12:55:19.000Z</time>
      </trkpt>
      <trkpt lat="42.86737" lon="1.56851">
        <ele>606</ele>
        <time>2022-08-28T12:55:24.000Z</time>
      </trkpt>
      <trkpt lat="42.86634" lon="1.56926">
        <ele>604</ele>
        <time>2022-08-28T12:55:45.000Z</time>
      </trkpt>
      <trkpt lat="42.86426" lon="1.57034">
        <ele>590</ele>
        <time>2022-08-28T12:56:25.000Z</time>
      </trkpt>
      <trkpt lat="42.86391" lon="1.57059">
        <ele>588</ele>
        <time>2022-08-28T12:56:32.000Z</time>
      </trkpt>
      <trkpt lat="42.86373" lon="1.57074">
        <ele>585</ele>
        <time>2022-08-28T12:56:35.000Z</time>
      </trkpt>
      <trkpt lat="42.86353" lon="1.57097">
        <ele>583</ele>
        <time>2022-08-28T12:56:40.000Z</time>
      </trkpt>
      <trkpt lat="42.86273" lon="1.57216">
        <ele>585</ele>
        <time>2022-08-28T12:57:01.000Z</time>
      </trkpt>
      <trkpt lat="42.8621" lon="1.57276">
        <ele>574</ele>
        <time>2022-08-28T12:57:15.000Z</time>
      </trkpt>
      <trkpt lat="42.86154" lon="1.57405">
        <ele>567</ele>
        <time>2022-08-28T12:57:34.000Z</time>
      </trkpt>
      <trkpt lat="42.86073" lon="1.57532">
        <ele>561</ele>
        <time>2022-08-28T12:57:56.000Z</time>
      </trkpt>
      <trkpt lat="42.8604" lon="1.57568">
        <ele>558</ele>
        <time>2022-08-28T12:58:04.000Z</time>
      </trkpt>
      <trkpt lat="42.86004" lon="1.57593">
        <ele>555</ele>
        <time>2022-08-28T12:58:11.000Z</time>
      </trkpt>
      <trkpt lat="42.85974" lon="1.57608">
        <ele>554</ele>
        <time>2022-08-28T12:58:17.000Z</time>
      </trkpt>
      <trkpt lat="42.85934" lon="1.57622">
        <ele>553</ele>
        <time>2022-08-28T12:58:24.000Z</time>
      </trkpt>
      <trkpt lat="42.85894" lon="1.57653">
        <ele>550</ele>
        <time>2022-08-28T12:58:32.000Z</time>
      </trkpt>
      <trkpt lat="42.85881" lon="1.57676">
        <ele>548</ele>
        <time>2022-08-28T12:58:36.000Z</time>
      </trkpt>
      <trkpt lat="42.85854" lon="1.57734">
        <ele>544</ele>
        <time>2022-08-28T12:58:45.000Z</time>
      </trkpt>
      <trkpt lat="42.85853" lon="1.57747">
        <ele>544</ele>
        <time>2022-08-28T12:58:47.000Z</time>
      </trkpt>
      <trkpt lat="42.85872" lon="1.5781">
        <ele>545</ele>
        <time>2022-08-28T12:58:56.000Z</time>
      </trkpt>
      <trkpt lat="42.85875" lon="1.57836">
        <ele>545</ele>
        <time>2022-08-28T12:58:59.000Z</time>
      </trkpt>
      <trkpt lat="42.85864" lon="1.57958">
        <ele>539</ele>
        <time>2022-08-28T12:59:15.000Z</time>
      </trkpt>
      <trkpt lat="42.85861" lon="1.58038">
        <ele>534</ele>
        <time>2022-08-28T12:59:26.000Z</time>
      </trkpt>
      <trkpt lat="42.85797" lon="1.58198">
        <ele>523</ele>
        <time>2022-08-28T12:59:49.000Z</time>
      </trkpt>
      <trkpt lat="42.85776" lon="1.58266">
        <ele>519</ele>
        <time>2022-08-28T12:59:59.000Z</time>
      </trkpt>
      <trkpt lat="42.85758" lon="1.58295">
        <ele>516</ele>
        <time>2022-08-28T13:00:04.000Z</time>
      </trkpt>
      <trkpt lat="42.85746" lon="1.58306">
        <ele>514</ele>
        <time>2022-08-28T13:00:07.000Z</time>
      </trkpt>
      <trkpt lat="42.85695" lon="1.58315">
        <ele>509</ele>
        <time>2022-08-28T13:00:16.000Z</time>
      </trkpt>
      <trkpt lat="42.85675" lon="1.58328">
        <ele>507</ele>
        <time>2022-08-28T13:00:20.000Z</time>
      </trkpt>
      <trkpt lat="42.85658" lon="1.58358">
        <ele>506</ele>
        <time>2022-08-28T13:00:25.000Z</time>
      </trkpt>
      <trkpt lat="42.85641" lon="1.58402">
        <ele>505</ele>
        <time>2022-08-28T13:00:31.000Z</time>
      </trkpt>
      <trkpt lat="42.85597" lon="1.58431">
        <ele>503</ele>
        <time>2022-08-28T13:00:40.000Z</time>
      </trkpt>
      <trkpt lat="42.8558" lon="1.58442">
        <ele>503</ele>
        <time>2022-08-28T13:00:44.000Z</time>
      </trkpt>
      <trkpt lat="42.85502" lon="1.58545">
        <ele>502</ele>
        <time>2022-08-28T13:01:03.000Z</time>
      </trkpt>
      <trkpt lat="42.85482" lon="1.58574">
        <ele>502</ele>
        <time>2022-08-28T13:01:08.000Z</time>
      </trkpt>
      <trkpt lat="42.85451" lon="1.58627">
        <ele>501</ele>
        <time>2022-08-28T13:01:17.000Z</time>
      </trkpt>
      <trkpt lat="42.85428" lon="1.58676">
        <ele>500</ele>
        <time>2022-08-28T13:01:25.000Z</time>
      </trkpt>
      <trkpt lat="42.85355" lon="1.5891">
        <ele>495</ele>
        <time>2022-08-28T13:01:58.000Z</time>
      </trkpt>
      <trkpt lat="42.85345" lon="1.58934">
        <ele>494</ele>
        <time>2022-08-28T13:02:01.000Z</time>
      </trkpt>
      <trkpt lat="42.85289" lon="1.59039">
        <ele>493</ele>
        <time>2022-08-28T13:02:18.000Z</time>
      </trkpt>
      <trkpt lat="42.85252" lon="1.59053">
        <ele>494</ele>
        <time>2022-08-28T13:02:25.000Z</time>
      </trkpt>
      <trkpt lat="42.85244" lon="1.59064">
        <ele>494</ele>
        <time>2022-08-28T13:02:27.000Z</time>
      </trkpt>
      <trkpt lat="42.85236" lon="1.5909">
        <ele>494</ele>
        <time>2022-08-28T13:02:31.000Z</time>
      </trkpt>
      <trkpt lat="42.85236" lon="1.59116">
        <ele>493</ele>
        <time>2022-08-28T13:02:35.000Z</time>
      </trkpt>
      <trkpt lat="42.85259" lon="1.5917">
        <ele>491</ele>
        <time>2022-08-28T13:02:43.000Z</time>
      </trkpt>
      <trkpt lat="42.8525" lon="1.59215">
        <ele>490</ele>
        <time>2022-08-28T13:02:49.000Z</time>
      </trkpt>
      <trkpt lat="42.85001" lon="1.59915">
        <ele>477</ele>
        <time>2022-08-28T13:04:31.000Z</time>
      </trkpt>
      <trkpt lat="42.84999" lon="1.59924">
        <ele>477</ele>
        <time>2022-08-28T13:04:32.000Z</time>
      </trkpt>
      <trkpt lat="42.8498" lon="1.5994">
        <ele>479</ele>
        <time>2022-08-28T13:04:36.000Z</time>
      </trkpt>
      <trkpt lat="42.84942" lon="1.59952">
        <ele>483</ele>
        <time>2022-08-28T13:04:43.000Z</time>
      </trkpt>
      <trkpt lat="42.84697" lon="1.5999">
        <ele>474</ele>
        <time>2022-08-28T13:05:27.000Z</time>
      </trkpt>
      <trkpt lat="42.84665" lon="1.60003">
        <ele>474</ele>
        <time>2022-08-28T13:05:33.000Z</time>
      </trkpt>
      <trkpt lat="42.8462" lon="1.60029">
        <ele>477</ele>
        <time>2022-08-28T13:05:41.000Z</time>
      </trkpt>
      <trkpt lat="42.8456" lon="1.60077">
        <ele>479</ele>
        <time>2022-08-28T13:05:54.000Z</time>
      </trkpt>
      <trkpt lat="42.84536" lon="1.60086">
        <ele>479</ele>
        <time>2022-08-28T13:05:58.000Z</time>
      </trkpt>
      <trkpt lat="42.84525" lon="1.60079">
        <ele>479</ele>
        <time>2022-08-28T13:06:00.000Z</time>
      </trkpt>
      <trkpt lat="42.84517" lon="1.6008">
        <ele>480</ele>
        <time>2022-08-28T13:06:02.000Z</time>
      </trkpt>
      <trkpt lat="42.84509" lon="1.60097">
        <ele>480</ele>
        <time>2022-08-28T13:06:05.000Z</time>
      </trkpt>
      <trkpt lat="42.84495" lon="1.60133">
        <ele>479</ele>
        <time>2022-08-28T13:06:10.000Z</time>
      </trkpt>
      <trkpt lat="42.84456" lon="1.60165">
        <ele>479</ele>
        <time>2022-08-28T13:06:18.000Z</time>
      </trkpt>
      <trkpt lat="42.84407" lon="1.60188">
        <ele>479</ele>
        <time>2022-08-28T13:06:27.000Z</time>
      </trkpt>
      <trkpt lat="42.83907" lon="1.60283">
        <ele>485</ele>
        <time>2022-08-28T13:07:57.000Z</time>
      </trkpt>
      <trkpt lat="42.839" lon="1.60286">
        <ele>485</ele>
        <time>2022-08-28T13:07:58.000Z</time>
      </trkpt>
      <trkpt lat="42.83778" lon="1.6041">
        <ele>489</ele>
        <time>2022-08-28T13:08:26.000Z</time>
      </trkpt>
      <trkpt lat="42.83765" lon="1.60419">
        <ele>489</ele>
        <time>2022-08-28T13:08:28.000Z</time>
      </trkpt>
      <trkpt lat="42.8376" lon="1.60457">
        <ele>489</ele>
        <time>2022-08-28T13:08:33.000Z</time>
      </trkpt>
      <trkpt lat="42.83748" lon="1.60495">
        <ele>489</ele>
        <time>2022-08-28T13:08:39.000Z</time>
      </trkpt>
      <trkpt lat="42.83724" lon="1.60536">
        <ele>489</ele>
        <time>2022-08-28T13:08:46.000Z</time>
      </trkpt>
      <trkpt lat="42.83698" lon="1.60571">
        <ele>488</ele>
        <time>2022-08-28T13:08:52.000Z</time>
      </trkpt>
      <trkpt lat="42.83629" lon="1.60625">
        <ele>489</ele>
        <time>2022-08-28T13:09:06.000Z</time>
      </trkpt>
      <trkpt lat="42.83507" lon="1.60712">
        <ele>494</ele>
        <time>2022-08-28T13:09:31.000Z</time>
      </trkpt>
      <trkpt lat="42.83425" lon="1.60735">
        <ele>495</ele>
        <time>2022-08-28T13:09:46.000Z</time>
      </trkpt>
      <trkpt lat="42.83375" lon="1.6075">
        <ele>496</ele>
        <time>2022-08-28T13:09:55.000Z</time>
      </trkpt>
      <trkpt lat="42.83227" lon="1.60845">
        <ele>501</ele>
        <time>2022-08-28T13:10:24.000Z</time>
      </trkpt>
      <trkpt lat="42.83197" lon="1.60874">
        <ele>502</ele>
        <time>2022-08-28T13:10:30.000Z</time>
      </trkpt>
      <trkpt lat="42.83098" lon="1.60984">
        <ele>497</ele>
        <time>2022-08-28T13:10:53.000Z</time>
      </trkpt>
      <trkpt lat="42.83064" lon="1.6103">
        <ele>497</ele>
        <time>2022-08-28T13:11:02.000Z</time>
      </trkpt>
      <trkpt lat="42.82852" lon="1.61394">
        <ele>489</ele>
        <time>2022-08-28T13:12:02.000Z</time>
      </trkpt>
      <trkpt lat="42.82736" lon="1.61571">
        <ele>490</ele>
        <time>2022-08-28T13:12:33.000Z</time>
      </trkpt>
      <trkpt lat="42.82603" lon="1.61748">
        <ele>485</ele>
        <time>2022-08-28T13:13:06.000Z</time>
      </trkpt>
      <trkpt lat="42.82565" lon="1.61785">
        <ele>486</ele>
        <time>2022-08-28T13:13:15.000Z</time>
      </trkpt>
      <trkpt lat="42.82256" lon="1.6202">
        <ele>484</ele>
        <time>2022-08-28T13:14:18.000Z</time>
      </trkpt>
      <trkpt lat="42.8212" lon="1.6212">
        <ele>486</ele>
        <time>2022-08-28T13:14:45.000Z</time>
      </trkpt>
      <trkpt lat="42.82029" lon="1.62171">
        <ele>489</ele>
        <time>2022-08-28T13:15:03.000Z</time>
      </trkpt>
      <trkpt lat="42.81988" lon="1.62196">
        <ele>491</ele>
        <time>2022-08-28T13:15:11.000Z</time>
      </trkpt>
      <trkpt lat="42.81913" lon="1.6226">
        <ele>498</ele>
        <time>2022-08-28T13:15:26.000Z</time>
      </trkpt>
      <trkpt lat="42.81896" lon="1.62281">
        <ele>501</ele>
        <time>2022-08-28T13:15:31.000Z</time>
      </trkpt>
      <trkpt lat="42.81842" lon="1.62359">
        <ele>497</ele>
        <time>2022-08-28T13:15:45.000Z</time>
      </trkpt>
      <trkpt lat="42.81824" lon="1.62392">
        <ele>499</ele>
        <time>2022-08-28T13:15:50.000Z</time>
      </trkpt>
      <trkpt lat="42.81659" lon="1.62732">
        <ele>487</ele>
        <time>2022-08-28T13:16:43.000Z</time>
      </trkpt>
      <trkpt lat="42.81572" lon="1.62901">
        <ele>491</ele>
        <time>2022-08-28T13:17:10.000Z</time>
      </trkpt>
      <trkpt lat="42.81036" lon="1.63889">
        <ele>499</ele>
        <time>2022-08-28T13:19:50.000Z</time>
      </trkpt>
      <trkpt lat="42.80955" lon="1.64031">
        <ele>502</ele>
        <time>2022-08-28T13:20:14.000Z</time>
      </trkpt>
      <trkpt lat="42.80339" lon="1.64817">
        <ele>509</ele>
        <time>2022-08-28T13:22:44.000Z</time>
      </trkpt>
      <trkpt lat="42.80099" lon="1.65112">
        <ele>505</ele>
        <time>2022-08-28T13:23:42.000Z</time>
      </trkpt>
      <trkpt lat="42.80079" lon="1.65148">
        <ele>503</ele>
        <time>2022-08-28T13:23:48.000Z</time>
      </trkpt>
      <trkpt lat="42.80053" lon="1.65225">
        <ele>503</ele>
        <time>2022-08-28T13:23:59.000Z</time>
      </trkpt>
      <trkpt lat="42.80044" lon="1.65282">
        <ele>503</ele>
        <time>2022-08-28T13:24:06.000Z</time>
      </trkpt>
      <trkpt lat="42.80039" lon="1.6536">
        <ele>503</ele>
        <time>2022-08-28T13:24:17.000Z</time>
      </trkpt>
      <trkpt lat="42.8" lon="1.65532">
        <ele>502</ele>
        <time>2022-08-28T13:24:40.000Z</time>
      </trkpt>
      <trkpt lat="42.79892" lon="1.66203">
        <ele>507</ele>
        <time>2022-08-28T13:26:10.000Z</time>
      </trkpt>
      <trkpt lat="42.79795" lon="1.66679">
        <ele>510</ele>
        <time>2022-08-28T13:27:14.000Z</time>
      </trkpt>
      <trkpt lat="42.79771" lon="1.6679">
        <ele>512</ele>
        <time>2022-08-28T13:27:29.000Z</time>
      </trkpt>
      <trkpt lat="42.79721" lon="1.66923">
        <ele>515</ele>
        <time>2022-08-28T13:27:49.000Z</time>
      </trkpt>
      <trkpt lat="42.79622" lon="1.67131">
        <ele>515</ele>
        <time>2022-08-28T13:28:21.000Z</time>
      </trkpt>
      <trkpt lat="42.79526" lon="1.67303">
        <ele>515</ele>
        <time>2022-08-28T13:28:49.000Z</time>
      </trkpt>
      <trkpt lat="42.7947" lon="1.67445">
        <ele>516</ele>
        <time>2022-08-28T13:29:11.000Z</time>
      </trkpt>
      <trkpt lat="42.79387" lon="1.67845">
        <ele>522</ele>
        <time>2022-08-28T13:30:05.000Z</time>
      </trkpt>
      <trkpt lat="42.79365" lon="1.67912">
        <ele>522</ele>
        <time>2022-08-28T13:30:14.000Z</time>
      </trkpt>
      <trkpt lat="42.79332" lon="1.67987">
        <ele>524</ele>
        <time>2022-08-28T13:30:26.000Z</time>
      </trkpt>
      <trkpt lat="42.79317" lon="1.68015">
        <ele>526</ele>
        <time>2022-08-28T13:30:30.000Z</time>
      </trkpt>
      <trkpt lat="42.79084" lon="1.68417">
        <ele>533</ele>
        <time>2022-08-28T13:31:37.000Z</time>
      </trkpt>
      <trkpt lat="42.79068" lon="1.68454">
        <ele>533</ele>
        <time>2022-08-28T13:31:43.000Z</time>
      </trkpt>
      <trkpt lat="42.7902" lon="1.68609">
        <ele>528</ele>
        <time>2022-08-28T13:32:05.000Z</time>
      </trkpt>
      <trkpt lat="42.78967" lon="1.68881">
        <ele>532</ele>
        <time>2022-08-28T13:32:42.000Z</time>
      </trkpt>
      <trkpt lat="42.78915" lon="1.69019">
        <ele>535</ele>
        <time>2022-08-28T13:33:02.000Z</time>
      </trkpt>
      <trkpt lat="42.78822" lon="1.6916">
        <ele>540</ele>
        <time>2022-08-28T13:33:27.000Z</time>
      </trkpt>
      <trkpt lat="42.78716" lon="1.69311">
        <ele>544</ele>
        <time>2022-08-28T13:33:54.000Z</time>
      </trkpt>
      <trkpt lat="42.78688" lon="1.69342">
        <ele>543</ele>
        <time>2022-08-28T13:34:00.000Z</time>
      </trkpt>
      <trkpt lat="42.78636" lon="1.69392">
        <ele>541</ele>
        <time>2022-08-28T13:34:12.000Z</time>
      </trkpt>
      <trkpt lat="42.78574" lon="1.6943">
        <ele>539</ele>
        <time>2022-08-28T13:34:24.000Z</time>
      </trkpt>
      <trkpt lat="42.78546" lon="1.69443">
        <ele>540</ele>
        <time>2022-08-28T13:34:29.000Z</time>
      </trkpt>
      <trkpt lat="42.78494" lon="1.69457">
        <ele>543</ele>
        <time>2022-08-28T13:34:39.000Z</time>
      </trkpt>
      <trkpt lat="42.78442" lon="1.69465">
        <ele>548</ele>
        <time>2022-08-28T13:34:48.000Z</time>
      </trkpt>
      <trkpt lat="42.78338" lon="1.69473">
        <ele>550</ele>
        <time>2022-08-28T13:35:06.000Z</time>
      </trkpt>
      <trkpt lat="42.78263" lon="1.69486">
        <ele>544</ele>
        <time>2022-08-28T13:35:20.000Z</time>
      </trkpt>
      <trkpt lat="42.77997" lon="1.69561">
        <ele>544</ele>
        <time>2022-08-28T13:36:08.000Z</time>
      </trkpt>
      <trkpt lat="42.77664" lon="1.69651">
        <ele>554</ele>
        <time>2022-08-28T13:37:09.000Z</time>
      </trkpt>
      <trkpt lat="42.77637" lon="1.6966">
        <ele>560</ele>
        <time>2022-08-28T13:37:14.000Z</time>
      </trkpt>
      <trkpt lat="42.77581" lon="1.69704">
        <ele>564</ele>
        <time>2022-08-28T13:37:25.000Z</time>
      </trkpt>
      <trkpt lat="42.77551" lon="1.69752">
        <ele>559</ele>
        <time>2022-08-28T13:37:33.000Z</time>
      </trkpt>
      <trkpt lat="42.77387" lon="1.70091">
        <ele>568</ele>
        <time>2022-08-28T13:38:26.000Z</time>
      </trkpt>
      <trkpt lat="42.77334" lon="1.70397">
        <ele>572</ele>
        <time>2022-08-28T13:39:08.000Z</time>
      </trkpt>
      <trkpt lat="42.77289" lon="1.70632">
        <ele>570</ele>
        <time>2022-08-28T13:39:39.000Z</time>
      </trkpt>
      <trkpt lat="42.77237" lon="1.7081">
        <ele>565</ele>
        <time>2022-08-28T13:40:04.000Z</time>
      </trkpt>
      <trkpt lat="42.77225" lon="1.70873">
        <ele>562</ele>
        <time>2022-08-28T13:40:13.000Z</time>
      </trkpt>
      <trkpt lat="42.77138" lon="1.72142">
        <ele>563</ele>
        <time>2022-08-28T13:42:59.000Z</time>
      </trkpt>
      <trkpt lat="42.77074" lon="1.73169">
        <ele>603</ele>
        <time>2022-08-28T13:45:14.000Z</time>
      </trkpt>
      <trkpt lat="42.77032" lon="1.73344">
        <ele>608</ele>
        <time>2022-08-28T13:45:38.000Z</time>
      </trkpt>
      <trkpt lat="42.77028" lon="1.73377">
        <ele>609</ele>
        <time>2022-08-28T13:45:42.000Z</time>
      </trkpt>
      <trkpt lat="42.77055" lon="1.73572">
        <ele>608</ele>
        <time>2022-08-28T13:46:09.000Z</time>
      </trkpt>
      <trkpt lat="42.77049" lon="1.7361">
        <ele>607</ele>
        <time>2022-08-28T13:46:14.000Z</time>
      </trkpt>
      <trkpt lat="42.77028" lon="1.73655">
        <ele>609</ele>
        <time>2022-08-28T13:46:21.000Z</time>
      </trkpt>
      <trkpt lat="42.76988" lon="1.73702">
        <ele>612</ele>
        <time>2022-08-28T13:46:30.000Z</time>
      </trkpt>
      <trkpt lat="42.7697" lon="1.73729">
        <ele>610</ele>
        <time>2022-08-28T13:46:35.000Z</time>
      </trkpt>
      <trkpt lat="42.76885" lon="1.73903">
        <ele>614</ele>
        <time>2022-08-28T13:47:02.000Z</time>
      </trkpt>
      <trkpt lat="42.76873" lon="1.73933">
        <ele>616</ele>
        <time>2022-08-28T13:47:07.000Z</time>
      </trkpt>
      <trkpt lat="42.76862" lon="1.73966">
        <ele>616</ele>
        <time>2022-08-28T13:47:11.000Z</time>
      </trkpt>
      <trkpt lat="42.76849" lon="1.7403">
        <ele>611</ele>
        <time>2022-08-28T13:47:20.000Z</time>
      </trkpt>
      <trkpt lat="42.7683" lon="1.7419">
        <ele>596</ele>
        <time>2022-08-28T13:47:41.000Z</time>
      </trkpt>
      <trkpt lat="42.76822" lon="1.74209">
        <ele>597</ele>
        <time>2022-08-28T13:47:44.000Z</time>
      </trkpt>
      <trkpt lat="42.76741" lon="1.74333">
        <ele>600</ele>
        <time>2022-08-28T13:48:06.000Z</time>
      </trkpt>
      <trkpt lat="42.76717" lon="1.74376">
        <ele>601</ele>
        <time>2022-08-28T13:48:13.000Z</time>
      </trkpt>
      <trkpt lat="42.766" lon="1.74616">
        <ele>590</ele>
        <time>2022-08-28T13:48:50.000Z</time>
      </trkpt>
      <trkpt lat="42.76596" lon="1.74619">
        <ele>591</ele>
        <time>2022-08-28T13:48:51.000Z</time>
      </trkpt>
      <trkpt lat="42.76588" lon="1.74644">
        <ele>589</ele>
        <time>2022-08-28T13:48:55.000Z</time>
      </trkpt>
      <trkpt lat="42.76581" lon="1.74679">
        <ele>588</ele>
        <time>2022-08-28T13:49:00.000Z</time>
      </trkpt>
      <trkpt lat="42.76568" lon="1.74876">
        <ele>595</ele>
        <time>2022-08-28T13:49:25.000Z</time>
      </trkpt>
      <trkpt lat="42.76562" lon="1.7491">
        <ele>597</ele>
        <time>2022-08-28T13:49:30.000Z</time>
      </trkpt>
      <trkpt lat="42.76391" lon="1.75366">
        <ele>602</ele>
        <time>2022-08-28T13:50:37.000Z</time>
      </trkpt>
      <trkpt lat="42.76352" lon="1.75511">
        <ele>605</ele>
        <time>2022-08-28T13:50:57.000Z</time>
      </trkpt>
      <trkpt lat="42.76233" lon="1.75798">
        <ele>610</ele>
        <time>2022-08-28T13:51:40.000Z</time>
      </trkpt>
      <trkpt lat="42.76119" lon="1.76128">
        <ele>604</ele>
        <time>2022-08-28T13:52:28.000Z</time>
      </trkpt>
      <trkpt lat="42.76057" lon="1.76215">
        <ele>610</ele>
        <time>2022-08-28T13:52:44.000Z</time>
      </trkpt>
      <trkpt lat="42.76042" lon="1.76241">
        <ele>612</ele>
        <time>2022-08-28T13:52:48.000Z</time>
      </trkpt>
      <trkpt lat="42.76014" lon="1.76486">
        <ele>613</ele>
        <time>2022-08-28T13:53:21.000Z</time>
      </trkpt>
      <trkpt lat="42.75915" lon="1.76761">
        <ele>608</ele>
        <time>2022-08-28T13:54:01.000Z</time>
      </trkpt>
      <trkpt lat="42.75886" lon="1.76825">
        <ele>610</ele>
        <time>2022-08-28T13:54:10.000Z</time>
      </trkpt>
      <trkpt lat="42.7586" lon="1.76866">
        <ele>612</ele>
        <time>2022-08-28T13:54:17.000Z</time>
      </trkpt>
      <trkpt lat="42.75677" lon="1.7704">
        <ele>620</ele>
        <time>2022-08-28T13:54:57.000Z</time>
      </trkpt>
      <trkpt lat="42.75646" lon="1.77062">
        <ele>619</ele>
        <time>2022-08-28T13:55:03.000Z</time>
      </trkpt>
      <trkpt lat="42.75626" lon="1.77069">
        <ele>619</ele>
        <time>2022-08-28T13:55:07.000Z</time>
      </trkpt>
      <trkpt lat="42.75609" lon="1.77069">
        <ele>620</ele>
        <time>2022-08-28T13:55:10.000Z</time>
      </trkpt>
      <trkpt lat="42.75513" lon="1.77033">
        <ele>633</ele>
        <time>2022-08-28T13:55:28.000Z</time>
      </trkpt>
      <trkpt lat="42.75472" lon="1.77042">
        <ele>634</ele>
        <time>2022-08-28T13:55:35.000Z</time>
      </trkpt>
      <trkpt lat="42.74931" lon="1.773">
        <ele>664</ele>
        <time>2022-08-28T13:57:17.000Z</time>
      </trkpt>
      <trkpt lat="42.74918" lon="1.77312">
        <ele>665</ele>
        <time>2022-08-28T13:57:20.000Z</time>
      </trkpt>
      <trkpt lat="42.7482" lon="1.77451">
        <ele>669</ele>
        <time>2022-08-28T13:57:45.000Z</time>
      </trkpt>
      <trkpt lat="42.74804" lon="1.77469">
        <ele>668</ele>
        <time>2022-08-28T13:57:49.000Z</time>
      </trkpt>
      <trkpt lat="42.74589" lon="1.77644">
        <ele>666</ele>
        <time>2022-08-28T13:58:34.000Z</time>
      </trkpt>
      <trkpt lat="42.74561" lon="1.77674">
        <ele>666</ele>
        <time>2022-08-28T13:58:40.000Z</time>
      </trkpt>
      <trkpt lat="42.745" lon="1.77775">
        <ele>666</ele>
        <time>2022-08-28T13:58:57.000Z</time>
      </trkpt>
      <trkpt lat="42.74465" lon="1.77818">
        <ele>666</ele>
        <time>2022-08-28T13:59:06.000Z</time>
      </trkpt>
      <trkpt lat="42.74336" lon="1.77909">
        <ele>661</ele>
        <time>2022-08-28T13:59:31.000Z</time>
      </trkpt>
      <trkpt lat="42.74319" lon="1.77933">
        <ele>662</ele>
        <time>2022-08-28T13:59:36.000Z</time>
      </trkpt>
      <trkpt lat="42.7426" lon="1.78064">
        <ele>659</ele>
        <time>2022-08-28T13:59:56.000Z</time>
      </trkpt>
      <trkpt lat="42.74145" lon="1.78337">
        <ele>660</ele>
        <time>2022-08-28T14:00:37.000Z</time>
      </trkpt>
      <trkpt lat="42.74037" lon="1.78504">
        <ele>662</ele>
        <time>2022-08-28T14:01:06.000Z</time>
      </trkpt>
      <trkpt lat="42.74008" lon="1.78559">
        <ele>662</ele>
        <time>2022-08-28T14:01:15.000Z</time>
      </trkpt>
      <trkpt lat="42.73989" lon="1.7861">
        <ele>661</ele>
        <time>2022-08-28T14:01:23.000Z</time>
      </trkpt>
      <trkpt lat="42.7398" lon="1.78651">
        <ele>662</ele>
        <time>2022-08-28T14:01:28.000Z</time>
      </trkpt>
      <trkpt lat="42.73965" lon="1.78763">
        <ele>668</ele>
        <time>2022-08-28T14:01:43.000Z</time>
      </trkpt>
      <trkpt lat="42.73948" lon="1.78853">
        <ele>670</ele>
        <time>2022-08-28T14:01:55.000Z</time>
      </trkpt>
      <trkpt lat="42.73931" lon="1.78892">
        <ele>671</ele>
        <time>2022-08-28T14:02:01.000Z</time>
      </trkpt>
      <trkpt lat="42.73904" lon="1.78931">
        <ele>672</ele>
        <time>2022-08-28T14:02:08.000Z</time>
      </trkpt>
      <trkpt lat="42.73879" lon="1.78952">
        <ele>673</ele>
        <time>2022-08-28T14:02:13.000Z</time>
      </trkpt>
      <trkpt lat="42.73838" lon="1.78969">
        <ele>677</ele>
        <time>2022-08-28T14:02:21.000Z</time>
      </trkpt>
      <trkpt lat="42.73674" lon="1.78998">
        <ele>676</ele>
        <time>2022-08-28T14:02:50.000Z</time>
      </trkpt>
      <trkpt lat="42.73641" lon="1.79009">
        <ele>677</ele>
        <time>2022-08-28T14:02:56.000Z</time>
      </trkpt>
      <trkpt lat="42.73564" lon="1.79079">
        <ele>670</ele>
        <time>2022-08-28T14:03:13.000Z</time>
      </trkpt>
      <trkpt lat="42.73555" lon="1.79093">
        <ele>670</ele>
        <time>2022-08-28T14:03:15.000Z</time>
      </trkpt>
      <trkpt lat="42.73539" lon="1.7913">
        <ele>669</ele>
        <time>2022-08-28T14:03:21.000Z</time>
      </trkpt>
      <trkpt lat="42.73514" lon="1.79208">
        <ele>667</ele>
        <time>2022-08-28T14:03:32.000Z</time>
      </trkpt>
      <trkpt lat="42.73407" lon="1.79599">
        <ele>684</ele>
        <time>2022-08-28T14:04:27.000Z</time>
      </trkpt>
      <trkpt lat="42.73364" lon="1.79726">
        <ele>685</ele>
        <time>2022-08-28T14:04:45.000Z</time>
      </trkpt>
      <trkpt lat="42.73242" lon="1.79979">
        <ele>679</ele>
        <time>2022-08-28T14:05:25.000Z</time>
      </trkpt>
      <trkpt lat="42.73186" lon="1.80096">
        <ele>672</ele>
        <time>2022-08-28T14:05:43.000Z</time>
      </trkpt>
      <trkpt lat="42.73153" lon="1.80184">
        <ele>668</ele>
        <time>2022-08-28T14:05:56.000Z</time>
      </trkpt>
      <trkpt lat="42.73142" lon="1.80234">
        <ele>667</ele>
        <time>2022-08-28T14:06:03.000Z</time>
      </trkpt>
      <trkpt lat="42.73132" lon="1.8029">
        <ele>668</ele>
        <time>2022-08-28T14:06:10.000Z</time>
      </trkpt>
      <trkpt lat="42.73132" lon="1.80378">
        <ele>669</ele>
        <time>2022-08-28T14:06:22.000Z</time>
      </trkpt>
      <trkpt lat="42.73155" lon="1.80871">
        <ele>669</ele>
        <time>2022-08-28T14:07:26.000Z</time>
      </trkpt>
      <trkpt lat="42.73149" lon="1.8092">
        <ele>669</ele>
        <time>2022-08-28T14:07:33.000Z</time>
      </trkpt>
      <trkpt lat="42.73139" lon="1.80971">
        <ele>670</ele>
        <time>2022-08-28T14:07:40.000Z</time>
      </trkpt>
      <trkpt lat="42.73128" lon="1.8101">
        <ele>671</ele>
        <time>2022-08-28T14:07:45.000Z</time>
      </trkpt>
      <trkpt lat="42.72945" lon="1.81553">
        <ele>674</ele>
        <time>2022-08-28T14:09:03.000Z</time>
      </trkpt>
      <trkpt lat="42.72913" lon="1.81696">
        <ele>677</ele>
        <time>2022-08-28T14:09:23.000Z</time>
      </trkpt>
      <trkpt lat="42.72913" lon="1.8174">
        <ele>677</ele>
        <time>2022-08-28T14:09:29.000Z</time>
      </trkpt>
      <trkpt lat="42.72917" lon="1.81773">
        <ele>677</ele>
        <time>2022-08-28T14:09:33.000Z</time>
      </trkpt>
      <trkpt lat="42.72955" lon="1.8197">
        <ele>680</ele>
        <time>2022-08-28T14:10:00.000Z</time>
      </trkpt>
      <trkpt lat="42.72971" lon="1.82162">
        <ele>690</ele>
        <time>2022-08-28T14:10:25.000Z</time>
      </trkpt>
      <trkpt lat="42.72962" lon="1.82322">
        <ele>698</ele>
        <time>2022-08-28T14:10:46.000Z</time>
      </trkpt>
      <trkpt lat="42.72943" lon="1.82416">
        <ele>698</ele>
        <time>2022-08-28T14:10:59.000Z</time>
      </trkpt>
      <trkpt lat="42.72914" lon="1.82502">
        <ele>694</ele>
        <time>2022-08-28T14:11:11.000Z</time>
      </trkpt>
      <trkpt lat="42.72888" lon="1.82565">
        <ele>694</ele>
        <time>2022-08-28T14:11:21.000Z</time>
      </trkpt>
      <trkpt lat="42.72704" lon="1.82958">
        <ele>705</ele>
        <time>2022-08-28T14:12:21.000Z</time>
      </trkpt>
      <trkpt lat="42.72687" lon="1.82987">
        <ele>703</ele>
        <time>2022-08-28T14:12:26.000Z</time>
      </trkpt>
      <trkpt lat="42.72515" lon="1.83202">
        <ele>700</ele>
        <time>2022-08-28T14:13:08.000Z</time>
      </trkpt>
      <trkpt lat="42.72431" lon="1.83318">
        <ele>704</ele>
        <time>2022-08-28T14:13:29.000Z</time>
      </trkpt>
      <trkpt lat="42.72139" lon="1.83785">
        <ele>714</ele>
        <time>2022-08-28T14:14:50.000Z</time>
      </trkpt>
      <trkpt lat="42.72073" lon="1.83932">
        <ele>724</ele>
        <time>2022-08-28T14:15:12.000Z</time>
      </trkpt>
      <trkpt lat="42.72045" lon="1.83966">
        <ele>725</ele>
        <time>2022-08-28T14:15:19.000Z</time>
      </trkpt>
      <trkpt lat="42.72013" lon="1.83959">
        <ele>726</ele>
        <time>2022-08-28T14:15:25.000Z</time>
      </trkpt>
      <trkpt lat="42.72001" lon="1.83966">
        <ele>726</ele>
        <time>2022-08-28T14:15:27.000Z</time>
      </trkpt>
      <trkpt lat="42.71974" lon="1.84043">
        <ele>728</ele>
        <time>2022-08-28T14:15:38.000Z</time>
      </trkpt>
      <trkpt lat="42.71969" lon="1.8405">
        <ele>728</ele>
        <time>2022-08-28T14:15:40.000Z</time>
      </trkpt>
      <trkpt lat="42.71751" lon="1.8406">
        <ele>737</ele>
        <time>2022-08-28T14:16:18.000Z</time>
      </trkpt>
      <trkpt lat="42.71541" lon="1.84037">
        <ele>757</ele>
        <time>2022-08-28T14:16:56.000Z</time>
      </trkpt>
      <trkpt lat="42.7146" lon="1.84066">
        <ele>760</ele>
        <time>2022-08-28T14:17:11.000Z</time>
      </trkpt>
      <trkpt lat="42.71441" lon="1.84068">
        <ele>759</ele>
        <time>2022-08-28T14:17:14.000Z</time>
      </trkpt>
      <trkpt lat="42.71427" lon="1.84056">
        <ele>760</ele>
        <time>2022-08-28T14:17:17.000Z</time>
      </trkpt>
      <trkpt lat="42.71409" lon="1.84023">
        <ele>761</ele>
        <time>2022-08-28T14:17:23.000Z</time>
      </trkpt>
      <trkpt lat="42.71355" lon="1.83895">
        <ele>769</ele>
        <time>2022-08-28T14:17:42.000Z</time>
      </trkpt>
      <trkpt lat="42.7133" lon="1.83869">
        <ele>766</ele>
        <time>2022-08-28T14:17:48.000Z</time>
      </trkpt>
      <trkpt lat="42.71313" lon="1.83861">
        <ele>768</ele>
        <time>2022-08-28T14:17:51.000Z</time>
      </trkpt>
      <trkpt lat="42.71261" lon="1.83849">
        <ele>772</ele>
        <time>2022-08-28T14:18:00.000Z</time>
      </trkpt>
      <trkpt lat="42.71218" lon="1.83824">
        <ele>771</ele>
        <time>2022-08-28T14:18:08.000Z</time>
      </trkpt>
      <trkpt lat="42.71183" lon="1.83809">
        <ele>770</ele>
        <time>2022-08-28T14:18:15.000Z</time>
      </trkpt>
      <trkpt lat="42.7107" lon="1.83809">
        <ele>778</ele>
        <time>2022-08-28T14:18:35.000Z</time>
      </trkpt>
      <trkpt lat="42.7106" lon="1.83806">
        <ele>779</ele>
        <time>2022-08-28T14:18:37.000Z</time>
      </trkpt>
      <trkpt lat="42.70966" lon="1.83735">
        <ele>779</ele>
        <time>2022-08-28T14:18:56.000Z</time>
      </trkpt>
      <trkpt lat="42.70953" lon="1.83729">
        <ele>780</ele>
        <time>2022-08-28T14:18:59.000Z</time>
      </trkpt>
      <trkpt lat="42.70833" lon="1.83728">
        <ele>797</ele>
        <time>2022-08-28T14:19:20.000Z</time>
      </trkpt>
      <trkpt lat="42.70816" lon="1.83723">
        <ele>798</ele>
        <time>2022-08-28T14:19:23.000Z</time>
      </trkpt>
      <trkpt lat="42.70728" lon="1.83644">
        <ele>797</ele>
        <time>2022-08-28T14:19:42.000Z</time>
      </trkpt>
      <trkpt lat="42.70715" lon="1.83638">
        <ele>796</ele>
        <time>2022-08-28T14:19:45.000Z</time>
      </trkpt>
      <trkpt lat="42.70693" lon="1.83633">
        <ele>796</ele>
        <time>2022-08-28T14:19:49.000Z</time>
      </trkpt>
      <trkpt lat="42.70676" lon="1.83634">
        <ele>797</ele>
        <time>2022-08-28T14:19:52.000Z</time>
      </trkpt>
      <trkpt lat="42.70657" lon="1.83642">
        <ele>798</ele>
        <time>2022-08-28T14:19:55.000Z</time>
      </trkpt>
      <trkpt lat="42.70614" lon="1.83672">
        <ele>802</ele>
        <time>2022-08-28T14:20:04.000Z</time>
      </trkpt>
      <trkpt lat="42.70584" lon="1.83678">
        <ele>804</ele>
        <time>2022-08-28T14:20:09.000Z</time>
      </trkpt>
      <trkpt lat="42.70536" lon="1.83667">
        <ele>811</ele>
        <time>2022-08-28T14:20:18.000Z</time>
      </trkpt>
      <trkpt lat="42.70389" lon="1.83545">
        <ele>816</ele>
        <time>2022-08-28T14:20:49.000Z</time>
      </trkpt>
      <trkpt lat="42.70335" lon="1.83509">
        <ele>818</ele>
        <time>2022-08-28T14:20:59.000Z</time>
      </trkpt>
      <trkpt lat="42.7021" lon="1.83473">
        <ele>828</ele>
        <time>2022-08-28T14:21:22.000Z</time>
      </trkpt>
      <trkpt lat="42.70081" lon="1.83423">
        <ele>836</ele>
        <time>2022-08-28T14:21:46.000Z</time>
      </trkpt>
      <trkpt lat="42.7006" lon="1.83419">
        <ele>835</ele>
        <time>2022-08-28T14:21:50.000Z</time>
      </trkpt>
      <trkpt lat="42.70046" lon="1.83419">
        <ele>835</ele>
        <time>2022-08-28T14:21:52.000Z</time>
      </trkpt>
      <trkpt lat="42.69957" lon="1.83436">
        <ele>838</ele>
        <time>2022-08-28T14:22:08.000Z</time>
      </trkpt>
      <trkpt lat="42.69885" lon="1.83463">
        <ele>846</ele>
        <time>2022-08-28T14:22:21.000Z</time>
      </trkpt>
      <trkpt lat="42.69851" lon="1.8347">
        <ele>847</ele>
        <time>2022-08-28T14:22:27.000Z</time>
      </trkpt>
      <trkpt lat="42.69695" lon="1.8345">
        <ele>846</ele>
        <time>2022-08-28T14:22:55.000Z</time>
      </trkpt>
      <trkpt lat="42.69555" lon="1.83379">
        <ele>849</ele>
        <time>2022-08-28T14:23:22.000Z</time>
      </trkpt>
      <trkpt lat="42.69466" lon="1.83329">
        <ele>855</ele>
        <time>2022-08-28T14:23:39.000Z</time>
      </trkpt>
      <trkpt lat="42.6924" lon="1.83136">
        <ele>868</ele>
        <time>2022-08-28T14:24:27.000Z</time>
      </trkpt>
      <trkpt lat="42.69227" lon="1.8312">
        <ele>871</ele>
        <time>2022-08-28T14:24:30.000Z</time>
      </trkpt>
      <trkpt lat="42.6921" lon="1.83081">
        <ele>874</ele>
        <time>2022-08-28T14:24:36.000Z</time>
      </trkpt>
      <trkpt lat="42.69204" lon="1.83034">
        <ele>878</ele>
        <time>2022-08-28T14:24:42.000Z</time>
      </trkpt>
      <trkpt lat="42.69205" lon="1.82954">
        <ele>884</ele>
        <time>2022-08-28T14:24:52.000Z</time>
      </trkpt>
      <trkpt lat="42.69266" lon="1.8275">
        <ele>885</ele>
        <time>2022-08-28T14:25:21.000Z</time>
      </trkpt>
      <trkpt lat="42.69265" lon="1.82726">
        <ele>885</ele>
        <time>2022-08-28T14:25:24.000Z</time>
      </trkpt>
      <trkpt lat="42.69261" lon="1.82707">
        <ele>885</ele>
        <time>2022-08-28T14:25:27.000Z</time>
      </trkpt>
      <trkpt lat="42.69249" lon="1.8269">
        <ele>885</ele>
        <time>2022-08-28T14:25:30.000Z</time>
      </trkpt>
      <trkpt lat="42.69187" lon="1.82635">
        <ele>902</ele>
        <time>2022-08-28T14:25:43.000Z</time>
      </trkpt>
      <trkpt lat="42.69176" lon="1.8262">
        <ele>901</ele>
        <time>2022-08-28T14:25:46.000Z</time>
      </trkpt>
      <trkpt lat="42.69163" lon="1.82544">
        <ele>911</ele>
        <time>2022-08-28T14:25:56.000Z</time>
      </trkpt>
      <trkpt lat="42.69154" lon="1.82532">
        <ele>915</ele>
        <time>2022-08-28T14:25:59.000Z</time>
      </trkpt>
      <trkpt lat="42.69064" lon="1.82521">
        <ele>916</ele>
        <time>2022-08-28T14:26:15.000Z</time>
      </trkpt>
      <trkpt lat="42.69045" lon="1.82518">
        <ele>915</ele>
        <time>2022-08-28T14:26:18.000Z</time>
      </trkpt>
      <trkpt lat="42.68998" lon="1.82501">
        <ele>913</ele>
        <time>2022-08-28T14:26:27.000Z</time>
      </trkpt>
      <trkpt lat="42.68866" lon="1.82432">
        <ele>927</ele>
        <time>2022-08-28T14:26:52.000Z</time>
      </trkpt>
      <trkpt lat="42.68846" lon="1.82429">
        <ele>922</ele>
        <time>2022-08-28T14:26:56.000Z</time>
      </trkpt>
      <trkpt lat="42.68808" lon="1.82429">
        <ele>923</ele>
        <time>2022-08-28T14:27:02.000Z</time>
      </trkpt>
      <trkpt lat="42.68761" lon="1.82463">
        <ele>940</ele>
        <time>2022-08-28T14:27:12.000Z</time>
      </trkpt>
      <trkpt lat="42.68751" lon="1.82461">
        <ele>942</ele>
        <time>2022-08-28T14:27:14.000Z</time>
      </trkpt>
      <trkpt lat="42.68737" lon="1.82451">
        <ele>946</ele>
        <time>2022-08-28T14:27:16.000Z</time>
      </trkpt>
      <trkpt lat="42.68725" lon="1.82435">
        <ele>947</ele>
        <time>2022-08-28T14:27:19.000Z</time>
      </trkpt>
      <trkpt lat="42.68694" lon="1.82366">
        <ele>940</ele>
        <time>2022-08-28T14:27:30.000Z</time>
      </trkpt>
      <trkpt lat="42.68676" lon="1.82338">
        <ele>927</ele>
        <time>2022-08-28T14:27:35.000Z</time>
      </trkpt>
      <trkpt lat="42.68648" lon="1.82313">
        <ele>928</ele>
        <time>2022-08-28T14:27:41.000Z</time>
      </trkpt>
      <trkpt lat="42.68636" lon="1.82309">
        <ele>930</ele>
        <time>2022-08-28T14:27:43.000Z</time>
      </trkpt>
      <trkpt lat="42.68609" lon="1.8231">
        <ele>932</ele>
        <time>2022-08-28T14:27:48.000Z</time>
      </trkpt>
      <trkpt lat="42.68471" lon="1.82394">
        <ele>939</ele>
        <time>2022-08-28T14:28:15.000Z</time>
      </trkpt>
      <trkpt lat="42.68461" lon="1.82404">
        <ele>938</ele>
        <time>2022-08-28T14:28:17.000Z</time>
      </trkpt>
      <trkpt lat="42.68443" lon="1.82438">
        <ele>939</ele>
        <time>2022-08-28T14:28:23.000Z</time>
      </trkpt>
      <trkpt lat="42.68431" lon="1.82473">
        <ele>938</ele>
        <time>2022-08-28T14:28:28.000Z</time>
      </trkpt>
      <trkpt lat="42.68372" lon="1.82677">
        <ele>953</ele>
        <time>2022-08-28T14:28:56.000Z</time>
      </trkpt>
      <trkpt lat="42.68363" lon="1.82694">
        <ele>951</ele>
        <time>2022-08-28T14:28:59.000Z</time>
      </trkpt>
      <trkpt lat="42.68298" lon="1.82724">
        <ele>943</ele>
        <time>2022-08-28T14:29:11.000Z</time>
      </trkpt>
      <trkpt lat="42.68287" lon="1.82733">
        <ele>943</ele>
        <time>2022-08-28T14:29:14.000Z</time>
      </trkpt>
      <trkpt lat="42.68222" lon="1.82795">
        <ele>949</ele>
        <time>2022-08-28T14:29:28.000Z</time>
      </trkpt>
      <trkpt lat="42.68195" lon="1.82854">
        <ele>951</ele>
        <time>2022-08-28T14:29:37.000Z</time>
      </trkpt>
      <trkpt lat="42.68189" lon="1.82864">
        <ele>951</ele>
        <time>2022-08-28T14:29:39.000Z</time>
      </trkpt>
      <trkpt lat="42.68143" lon="1.82895">
        <ele>954</ele>
        <time>2022-08-28T14:29:48.000Z</time>
      </trkpt>
      <trkpt lat="42.68082" lon="1.82946">
        <ele>963</ele>
        <time>2022-08-28T14:30:00.000Z</time>
      </trkpt>
      <trkpt lat="42.68047" lon="1.83001">
        <ele>962</ele>
        <time>2022-08-28T14:30:10.000Z</time>
      </trkpt>
      <trkpt lat="42.68039" lon="1.83008">
        <ele>963</ele>
        <time>2022-08-28T14:30:12.000Z</time>
      </trkpt>
      <trkpt lat="42.67932" lon="1.83086">
        <ele>966</ele>
        <time>2022-08-28T14:30:33.000Z</time>
      </trkpt>
      <trkpt lat="42.67914" lon="1.83106">
        <ele>967</ele>
        <time>2022-08-28T14:30:37.000Z</time>
      </trkpt>
      <trkpt lat="42.67804" lon="1.83306">
        <ele>973</ele>
        <time>2022-08-28T14:31:10.000Z</time>
      </trkpt>
      <trkpt lat="42.67749" lon="1.83374">
        <ele>972</ele>
        <time>2022-08-28T14:31:23.000Z</time>
      </trkpt>
      <trkpt lat="42.67697" lon="1.83455">
        <ele>979</ele>
        <time>2022-08-28T14:31:37.000Z</time>
      </trkpt>
      <trkpt lat="42.67637" lon="1.83514">
        <ele>977</ele>
        <time>2022-08-28T14:31:51.000Z</time>
      </trkpt>
      <trkpt lat="42.67608" lon="1.83531">
        <ele>981</ele>
        <time>2022-08-28T14:31:56.000Z</time>
      </trkpt>
      <trkpt lat="42.67577" lon="1.83534">
        <ele>984</ele>
        <time>2022-08-28T14:32:02.000Z</time>
      </trkpt>
      <trkpt lat="42.67565" lon="1.83532">
        <ele>985</ele>
        <time>2022-08-28T14:32:04.000Z</time>
      </trkpt>
      <trkpt lat="42.67508" lon="1.83511">
        <ele>996</ele>
        <time>2022-08-28T14:32:14.000Z</time>
      </trkpt>
      <trkpt lat="42.67485" lon="1.83513">
        <ele>998</ele>
        <time>2022-08-28T14:32:18.000Z</time>
      </trkpt>
      <trkpt lat="42.6745" lon="1.83529">
        <ele>995</ele>
        <time>2022-08-28T14:32:25.000Z</time>
      </trkpt>
      <trkpt lat="42.67372" lon="1.83587">
        <ele>992</ele>
        <time>2022-08-28T14:32:41.000Z</time>
      </trkpt>
      <trkpt lat="42.6735" lon="1.83592">
        <ele>995</ele>
        <time>2022-08-28T14:32:45.000Z</time>
      </trkpt>
      <trkpt lat="42.67182" lon="1.83562">
        <ele>1007</ele>
        <time>2022-08-28T14:33:15.000Z</time>
      </trkpt>
      <trkpt lat="42.67159" lon="1.8356">
        <ele>1010</ele>
        <time>2022-08-28T14:33:19.000Z</time>
      </trkpt>
      <trkpt lat="42.67089" lon="1.83572">
        <ele>1013</ele>
        <time>2022-08-28T14:33:32.000Z</time>
      </trkpt>
      <trkpt lat="42.67072" lon="1.8357">
        <ele>1015</ele>
        <time>2022-08-28T14:33:35.000Z</time>
      </trkpt>
      <trkpt lat="42.6702" lon="1.83553">
        <ele>1021</ele>
        <time>2022-08-28T14:33:44.000Z</time>
      </trkpt>
      <trkpt lat="42.66951" lon="1.83552">
        <ele>1022</ele>
        <time>2022-08-28T14:33:56.000Z</time>
      </trkpt>
      <trkpt lat="42.66875" lon="1.83535">
        <ele>1031</ele>
        <time>2022-08-28T14:34:10.000Z</time>
      </trkpt>
      <trkpt lat="42.66788" lon="1.83528">
        <ele>1034</ele>
        <time>2022-08-28T14:34:26.000Z</time>
      </trkpt>
      <trkpt lat="42.66732" lon="1.83506">
        <ele>1034</ele>
        <time>2022-08-28T14:34:36.000Z</time>
      </trkpt>
      <trkpt lat="42.66671" lon="1.83521">
        <ele>1031</ele>
        <time>2022-08-28T14:34:47.000Z</time>
      </trkpt>
      <trkpt lat="42.66655" lon="1.83514">
        <ele>1032</ele>
        <time>2022-08-28T14:34:50.000Z</time>
      </trkpt>
      <trkpt lat="42.66638" lon="1.83499">
        <ele>1033</ele>
        <time>2022-08-28T14:34:54.000Z</time>
      </trkpt>
      <trkpt lat="42.66604" lon="1.83443">
        <ele>1039</ele>
        <time>2022-08-28T14:35:03.000Z</time>
      </trkpt>
      <trkpt lat="42.66576" lon="1.8341">
        <ele>1039</ele>
        <time>2022-08-28T14:35:10.000Z</time>
      </trkpt>
      <trkpt lat="42.6651" lon="1.83374">
        <ele>1053</ele>
        <time>2022-08-28T14:35:23.000Z</time>
      </trkpt>
      <trkpt lat="42.6647" lon="1.83373">
        <ele>1054</ele>
        <time>2022-08-28T14:35:30.000Z</time>
      </trkpt>
      <trkpt lat="42.66403" lon="1.83403">
        <ele>1050</ele>
        <time>2022-08-28T14:35:42.000Z</time>
      </trkpt>
      <trkpt lat="42.66368" lon="1.83435">
        <ele>1051</ele>
        <time>2022-08-28T14:35:50.000Z</time>
      </trkpt>
      <trkpt lat="42.66358" lon="1.83508">
        <ele>1052</ele>
        <time>2022-08-28T14:36:00.000Z</time>
      </trkpt>
      <trkpt lat="42.66346" lon="1.83522">
        <ele>1055</ele>
        <time>2022-08-28T14:36:03.000Z</time>
      </trkpt>
      <trkpt lat="42.66105" lon="1.8366">
        <ele>1047</ele>
        <time>2022-08-28T14:36:49.000Z</time>
      </trkpt>
      <trkpt lat="42.66093" lon="1.8366">
        <ele>1046</ele>
        <time>2022-08-28T14:36:51.000Z</time>
      </trkpt>
      <trkpt lat="42.66022" lon="1.83651">
        <ele>1048</ele>
        <time>2022-08-28T14:37:04.000Z</time>
      </trkpt>
      <trkpt lat="42.65871" lon="1.83585">
        <ele>1053</ele>
        <time>2022-08-28T14:37:32.000Z</time>
      </trkpt>
      <trkpt lat="42.65841" lon="1.83576">
        <ele>1055</ele>
        <time>2022-08-28T14:37:38.000Z</time>
      </trkpt>
      <trkpt lat="42.65798" lon="1.83575">
        <ele>1056</ele>
        <time>2022-08-28T14:37:45.000Z</time>
      </trkpt>
      <trkpt lat="42.65679" lon="1.83588">
        <ele>1059</ele>
        <time>2022-08-28T14:38:07.000Z</time>
      </trkpt>
      <trkpt lat="42.6566" lon="1.83583">
        <ele>1059</ele>
        <time>2022-08-28T14:38:10.000Z</time>
      </trkpt>
      <trkpt lat="42.65636" lon="1.8357">
        <ele>1061</ele>
        <time>2022-08-28T14:38:15.000Z</time>
      </trkpt>
      <trkpt lat="42.65596" lon="1.83572">
        <ele>1064</ele>
        <time>2022-08-28T14:38:22.000Z</time>
      </trkpt>
      <trkpt lat="42.65541" lon="1.83561">
        <ele>1069</ele>
        <time>2022-08-28T14:38:32.000Z</time>
      </trkpt>
      <trkpt lat="42.65523" lon="1.83554">
        <ele>1070</ele>
        <time>2022-08-28T14:38:35.000Z</time>
      </trkpt>
      <trkpt lat="42.65513" lon="1.83546">
        <ele>1071</ele>
        <time>2022-08-28T14:38:37.000Z</time>
      </trkpt>
      <trkpt lat="42.65479" lon="1.83508">
        <ele>1072</ele>
        <time>2022-08-28T14:38:45.000Z</time>
      </trkpt>
      <trkpt lat="42.65452" lon="1.83498">
        <ele>1072</ele>
        <time>2022-08-28T14:38:50.000Z</time>
      </trkpt>
      <trkpt lat="42.65371" lon="1.83504">
        <ele>1076</ele>
        <time>2022-08-28T14:39:05.000Z</time>
      </trkpt>
      <trkpt lat="42.65329" lon="1.83495">
        <ele>1076</ele>
        <time>2022-08-28T14:39:12.000Z</time>
      </trkpt>
      <trkpt lat="42.65254" lon="1.83506">
        <ele>1083</ele>
        <time>2022-08-28T14:39:25.000Z</time>
      </trkpt>
      <trkpt lat="42.6524" lon="1.83506">
        <ele>1084</ele>
        <time>2022-08-28T14:39:28.000Z</time>
      </trkpt>
      <trkpt lat="42.65155" lon="1.8349">
        <ele>1085</ele>
        <time>2022-08-28T14:39:43.000Z</time>
      </trkpt>
      <trkpt lat="42.65089" lon="1.83474">
        <ele>1089</ele>
        <time>2022-08-28T14:39:55.000Z</time>
      </trkpt>
      <trkpt lat="42.65058" lon="1.83463">
        <ele>1090</ele>
        <time>2022-08-28T14:40:01.000Z</time>
      </trkpt>
      <trkpt lat="42.65013" lon="1.83438">
        <ele>1089</ele>
        <time>2022-08-28T14:40:10.000Z</time>
      </trkpt>
      <trkpt lat="42.64889" lon="1.8335">
        <ele>1090</ele>
        <time>2022-08-28T14:40:34.000Z</time>
      </trkpt>
      <trkpt lat="42.64769" lon="1.83271">
        <ele>1095</ele>
        <time>2022-08-28T14:40:58.000Z</time>
      </trkpt>
      <trkpt lat="42.64692" lon="1.83229">
        <ele>1097</ele>
        <time>2022-08-28T14:41:13.000Z</time>
      </trkpt>
      <trkpt lat="42.6464" lon="1.83209">
        <ele>1099</ele>
        <time>2022-08-28T14:41:23.000Z</time>
      </trkpt>
      <trkpt lat="42.64556" lon="1.8319">
        <ele>1102</ele>
        <time>2022-08-28T14:41:38.000Z</time>
      </trkpt>
      <trkpt lat="42.6452" lon="1.83185">
        <ele>1103</ele>
        <time>2022-08-28T14:41:44.000Z</time>
      </trkpt>
      <trkpt lat="42.64267" lon="1.83175">
        <ele>1110</ele>
        <time>2022-08-28T14:42:29.000Z</time>
      </trkpt>
      <trkpt lat="42.64239" lon="1.83165">
        <ele>1110</ele>
        <time>2022-08-28T14:42:34.000Z</time>
      </trkpt>
      <trkpt lat="42.64207" lon="1.83152">
        <ele>1112</ele>
        <time>2022-08-28T14:42:40.000Z</time>
      </trkpt>
      <trkpt lat="42.64031" lon="1.83033">
        <ele>1120</ele>
        <time>2022-08-28T14:43:15.000Z</time>
      </trkpt>
      <trkpt lat="42.63972" lon="1.83004">
        <ele>1120</ele>
        <time>2022-08-28T14:43:26.000Z</time>
      </trkpt>
      <trkpt lat="42.63644" lon="1.82928">
        <ele>1131</ele>
        <time>2022-08-28T14:44:26.000Z</time>
      </trkpt>
      <trkpt lat="42.63524" lon="1.82884">
        <ele>1136</ele>
        <time>2022-08-28T14:44:48.000Z</time>
      </trkpt>
      <trkpt lat="42.63382" lon="1.82795">
        <ele>1143</ele>
        <time>2022-08-28T14:45:16.000Z</time>
      </trkpt>
      <trkpt lat="42.6335" lon="1.82772">
        <ele>1145</ele>
        <time>2022-08-28T14:45:22.000Z</time>
      </trkpt>
      <trkpt lat="42.63186" lon="1.82591">
        <ele>1157</ele>
        <time>2022-08-28T14:46:00.000Z</time>
      </trkpt>
      <trkpt lat="42.63176" lon="1.82585">
        <ele>1157</ele>
        <time>2022-08-28T14:46:02.000Z</time>
      </trkpt>
      <trkpt lat="42.63133" lon="1.82582">
        <ele>1159</ele>
        <time>2022-08-28T14:46:09.000Z</time>
      </trkpt>
      <trkpt lat="42.63058" lon="1.82567">
        <ele>1161</ele>
        <time>2022-08-28T14:46:23.000Z</time>
      </trkpt>
      <trkpt lat="42.63029" lon="1.82569">
        <ele>1162</ele>
        <time>2022-08-28T14:46:28.000Z</time>
      </trkpt>
      <trkpt lat="42.62986" lon="1.8259">
        <ele>1165</ele>
        <time>2022-08-28T14:46:36.000Z</time>
      </trkpt>
      <trkpt lat="42.62964" lon="1.82596">
        <ele>1167</ele>
        <time>2022-08-28T14:46:40.000Z</time>
      </trkpt>
      <trkpt lat="42.62793" lon="1.82587">
        <ele>1175</ele>
        <time>2022-08-28T14:47:11.000Z</time>
      </trkpt>
      <trkpt lat="42.62776" lon="1.82583">
        <ele>1176</ele>
        <time>2022-08-28T14:47:14.000Z</time>
      </trkpt>
      <trkpt lat="42.62686" lon="1.82495">
        <ele>1177</ele>
        <time>2022-08-28T14:47:34.000Z</time>
      </trkpt>
      <trkpt lat="42.62652" lon="1.82467">
        <ele>1179</ele>
        <time>2022-08-28T14:47:41.000Z</time>
      </trkpt>
      <trkpt lat="42.62445" lon="1.82398">
        <ele>1196</ele>
        <time>2022-08-28T14:48:19.000Z</time>
      </trkpt>
      <trkpt lat="42.62419" lon="1.82382">
        <ele>1198</ele>
        <time>2022-08-28T14:48:24.000Z</time>
      </trkpt>
      <trkpt lat="42.62402" lon="1.82369">
        <ele>1200</ele>
        <time>2022-08-28T14:48:27.000Z</time>
      </trkpt>
      <trkpt lat="42.6239" lon="1.82355">
        <ele>1200</ele>
        <time>2022-08-28T14:48:30.000Z</time>
      </trkpt>
      <trkpt lat="42.62332" lon="1.82256">
        <ele>1197</ele>
        <time>2022-08-28T14:48:47.000Z</time>
      </trkpt>
      <trkpt lat="42.62309" lon="1.82238">
        <ele>1199</ele>
        <time>2022-08-28T14:48:51.000Z</time>
      </trkpt>
      <trkpt lat="42.62292" lon="1.82231">
        <ele>1200</ele>
        <time>2022-08-28T14:48:55.000Z</time>
      </trkpt>
      <trkpt lat="42.62184" lon="1.82232">
        <ele>1206</ele>
        <time>2022-08-28T14:49:14.000Z</time>
      </trkpt>
      <trkpt lat="42.62131" lon="1.82243">
        <ele>1207</ele>
        <time>2022-08-28T14:49:23.000Z</time>
      </trkpt>
      <trkpt lat="42.62114" lon="1.82239">
        <ele>1207</ele>
        <time>2022-08-28T14:49:26.000Z</time>
      </trkpt>
      <trkpt lat="42.62097" lon="1.82231">
        <ele>1206</ele>
        <time>2022-08-28T14:49:30.000Z</time>
      </trkpt>
      <trkpt lat="42.6194" lon="1.8206">
        <ele>1216</ele>
        <time>2022-08-28T14:50:05.000Z</time>
      </trkpt>
      <trkpt lat="42.61918" lon="1.82047">
        <ele>1218</ele>
        <time>2022-08-28T14:50:10.000Z</time>
      </trkpt>
      <trkpt lat="42.61791" lon="1.82011">
        <ele>1224</ele>
        <time>2022-08-28T14:50:33.000Z</time>
      </trkpt>
      <trkpt lat="42.6178" lon="1.82009">
        <ele>1225</ele>
        <time>2022-08-28T14:50:35.000Z</time>
      </trkpt>
      <trkpt lat="42.6171" lon="1.82011">
        <ele>1232</ele>
        <time>2022-08-28T14:50:47.000Z</time>
      </trkpt>
      <trkpt lat="42.61673" lon="1.82008">
        <ele>1234</ele>
        <time>2022-08-28T14:50:54.000Z</time>
      </trkpt>
      <trkpt lat="42.61604" lon="1.81982">
        <ele>1237</ele>
        <time>2022-08-28T14:51:07.000Z</time>
      </trkpt>
      <trkpt lat="42.61576" lon="1.81978">
        <ele>1239</ele>
        <time>2022-08-28T14:51:12.000Z</time>
      </trkpt>
      <trkpt lat="42.61547" lon="1.81964">
        <ele>1240</ele>
        <time>2022-08-28T14:51:17.000Z</time>
      </trkpt>
      <trkpt lat="42.61536" lon="1.81956">
        <ele>1239</ele>
        <time>2022-08-28T14:51:19.000Z</time>
      </trkpt>
      <trkpt lat="42.61432" lon="1.81858">
        <ele>1237</ele>
        <time>2022-08-28T14:51:42.000Z</time>
      </trkpt>
      <trkpt lat="42.6141" lon="1.81847">
        <ele>1237</ele>
        <time>2022-08-28T14:51:46.000Z</time>
      </trkpt>
      <trkpt lat="42.61387" lon="1.81844">
        <ele>1237</ele>
        <time>2022-08-28T14:51:50.000Z</time>
      </trkpt>
      <trkpt lat="42.61368" lon="1.81845">
        <ele>1238</ele>
        <time>2022-08-28T14:51:54.000Z</time>
      </trkpt>
      <trkpt lat="42.61263" lon="1.81862">
        <ele>1245</ele>
        <time>2022-08-28T14:52:12.000Z</time>
      </trkpt>
      <trkpt lat="42.61242" lon="1.81858">
        <ele>1245</ele>
        <time>2022-08-28T14:52:16.000Z</time>
      </trkpt>
      <trkpt lat="42.6122" lon="1.81849">
        <ele>1245</ele>
        <time>2022-08-28T14:52:20.000Z</time>
      </trkpt>
      <trkpt lat="42.6121" lon="1.81842">
        <ele>1245</ele>
        <time>2022-08-28T14:52:22.000Z</time>
      </trkpt>
      <trkpt lat="42.61097" lon="1.81749">
        <ele>1249</ele>
        <time>2022-08-28T14:52:46.000Z</time>
      </trkpt>
      <trkpt lat="42.61056" lon="1.81724">
        <ele>1252</ele>
        <time>2022-08-28T14:52:54.000Z</time>
      </trkpt>
      <trkpt lat="42.6104" lon="1.81727">
        <ele>1253</ele>
        <time>2022-08-28T14:52:57.000Z</time>
      </trkpt>
      <trkpt lat="42.6102" lon="1.8175">
        <ele>1256</ele>
        <time>2022-08-28T14:53:01.000Z</time>
      </trkpt>
      <trkpt lat="42.61018" lon="1.8176">
        <ele>1258</ele>
        <time>2022-08-28T14:53:03.000Z</time>
      </trkpt>
      <trkpt lat="42.61019" lon="1.81788">
        <ele>1263</ele>
        <time>2022-08-28T14:53:06.000Z</time>
      </trkpt>
      <trkpt lat="42.61042" lon="1.8183">
        <ele>1265</ele>
        <time>2022-08-28T14:53:13.000Z</time>
      </trkpt>
      <trkpt lat="42.61063" lon="1.81855">
        <ele>1268</ele>
        <time>2022-08-28T14:53:18.000Z</time>
      </trkpt>
      <trkpt lat="42.61076" lon="1.81868">
        <ele>1268</ele>
        <time>2022-08-28T14:53:21.000Z</time>
      </trkpt>
      <trkpt lat="42.61175" lon="1.81933">
        <ele>1268</ele>
        <time>2022-08-28T14:53:41.000Z</time>
      </trkpt>
      <trkpt lat="42.61229" lon="1.81949">
        <ele>1265</ele>
        <time>2022-08-28T14:53:51.000Z</time>
      </trkpt>
      <trkpt lat="42.61277" lon="1.81977">
        <ele>1267</ele>
        <time>2022-08-28T14:54:00.000Z</time>
      </trkpt>
      <trkpt lat="42.61322" lon="1.81981">
        <ele>1264</ele>
        <time>2022-08-28T14:54:08.000Z</time>
      </trkpt>
      <trkpt lat="42.61331" lon="1.81986">
        <ele>1265</ele>
        <time>2022-08-28T14:54:10.000Z</time>
      </trkpt>
      <trkpt lat="42.61338" lon="1.81994">
        <ele>1266</ele>
        <time>2022-08-28T14:54:11.000Z</time>
      </trkpt>
      <trkpt lat="42.61341" lon="1.8201">
        <ele>1269</ele>
        <time>2022-08-28T14:54:13.000Z</time>
      </trkpt>
      <trkpt lat="42.61325" lon="1.82036">
        <ele>1279</ele>
        <time>2022-08-28T14:54:18.000Z</time>
      </trkpt>
      <trkpt lat="42.61309" lon="1.82034">
        <ele>1281</ele>
        <time>2022-08-28T14:54:21.000Z</time>
      </trkpt>
      <trkpt lat="42.61227" lon="1.81975">
        <ele>1274</ele>
        <time>2022-08-28T14:54:37.000Z</time>
      </trkpt>
      <trkpt lat="42.61209" lon="1.81968">
        <ele>1275</ele>
        <time>2022-08-28T14:54:41.000Z</time>
      </trkpt>
      <trkpt lat="42.61147" lon="1.81959">
        <ele>1284</ele>
        <time>2022-08-28T14:54:52.000Z</time>
      </trkpt>
      <trkpt lat="42.61101" lon="1.81931">
        <ele>1282</ele>
        <time>2022-08-28T14:55:01.000Z</time>
      </trkpt>
      <trkpt lat="42.61044" lon="1.81904">
        <ele>1289</ele>
        <time>2022-08-28T14:55:12.000Z</time>
      </trkpt>
      <trkpt lat="42.60981" lon="1.81839">
        <ele>1285</ele>
        <time>2022-08-28T14:55:26.000Z</time>
      </trkpt>
      <trkpt lat="42.6093" lon="1.81815">
        <ele>1295</ele>
        <time>2022-08-28T14:55:35.000Z</time>
      </trkpt>
      <trkpt lat="42.60903" lon="1.81781">
        <ele>1293</ele>
        <time>2022-08-28T14:55:42.000Z</time>
      </trkpt>
      <trkpt lat="42.60893" lon="1.81772">
        <ele>1294</ele>
        <time>2022-08-28T14:55:44.000Z</time>
      </trkpt>
      <trkpt lat="42.60808" lon="1.81711">
        <ele>1302</ele>
        <time>2022-08-28T14:56:01.000Z</time>
      </trkpt>
      <trkpt lat="42.60649" lon="1.81559">
        <ele>1311</ele>
        <time>2022-08-28T14:56:36.000Z</time>
      </trkpt>
      <trkpt lat="42.6062" lon="1.81528">
        <ele>1317</ele>
        <time>2022-08-28T14:56:42.000Z</time>
      </trkpt>
      <trkpt lat="42.60612" lon="1.8151">
        <ele>1317</ele>
        <time>2022-08-28T14:56:45.000Z</time>
      </trkpt>
      <trkpt lat="42.60602" lon="1.81463">
        <ele>1313</ele>
        <time>2022-08-28T14:56:51.000Z</time>
      </trkpt>
      <trkpt lat="42.60576" lon="1.81411">
        <ele>1313</ele>
        <time>2022-08-28T14:57:00.000Z</time>
      </trkpt>
      <trkpt lat="42.60548" lon="1.81382">
        <ele>1312</ele>
        <time>2022-08-28T14:57:06.000Z</time>
      </trkpt>
      <trkpt lat="42.60498" lon="1.81358">
        <ele>1317</ele>
        <time>2022-08-28T14:57:15.000Z</time>
      </trkpt>
      <trkpt lat="42.60358" lon="1.81254">
        <ele>1323</ele>
        <time>2022-08-28T14:57:44.000Z</time>
      </trkpt>
      <trkpt lat="42.6034" lon="1.81243">
        <ele>1324</ele>
        <time>2022-08-28T14:57:47.000Z</time>
      </trkpt>
      <trkpt lat="42.60046" lon="1.81126">
        <ele>1350</ele>
        <time>2022-08-28T14:58:42.000Z</time>
      </trkpt>
      <trkpt lat="42.60007" lon="1.81104">
        <ele>1352</ele>
        <time>2022-08-28T14:58:49.000Z</time>
      </trkpt>
      <trkpt lat="42.59956" lon="1.81067">
        <ele>1358</ele>
        <time>2022-08-28T14:59:00.000Z</time>
      </trkpt>
      <trkpt lat="42.59931" lon="1.81046">
        <ele>1360</ele>
        <time>2022-08-28T14:59:05.000Z</time>
      </trkpt>
      <trkpt lat="42.59861" lon="1.80978">
        <ele>1360</ele>
        <time>2022-08-28T14:59:20.000Z</time>
      </trkpt>
      <trkpt lat="42.59811" lon="1.80935">
        <ele>1362</ele>
        <time>2022-08-28T14:59:31.000Z</time>
      </trkpt>
      <trkpt lat="42.59594" lon="1.80791">
        <ele>1380</ele>
        <time>2022-08-28T15:00:14.000Z</time>
      </trkpt>
      <trkpt lat="42.59517" lon="1.80725">
        <ele>1393</ele>
        <time>2022-08-28T15:00:30.000Z</time>
      </trkpt>
      <trkpt lat="42.59465" lon="1.80664">
        <ele>1394</ele>
        <time>2022-08-28T15:00:42.000Z</time>
      </trkpt>
      <trkpt lat="42.5945" lon="1.80633">
        <ele>1396</ele>
        <time>2022-08-28T15:00:47.000Z</time>
      </trkpt>
      <trkpt lat="42.5939" lon="1.80459">
        <ele>1404</ele>
        <time>2022-08-28T15:01:12.000Z</time>
      </trkpt>
      <trkpt lat="42.5937" lon="1.80433">
        <ele>1406</ele>
        <time>2022-08-28T15:01:17.000Z</time>
      </trkpt>
      <trkpt lat="42.59342" lon="1.8042">
        <ele>1404</ele>
        <time>2022-08-28T15:01:23.000Z</time>
      </trkpt>
      <trkpt lat="42.59292" lon="1.80409">
        <ele>1405</ele>
        <time>2022-08-28T15:01:32.000Z</time>
      </trkpt>
      <trkpt lat="42.59284" lon="1.80405">
        <ele>1405</ele>
        <time>2022-08-28T15:01:33.000Z</time>
      </trkpt>
      <trkpt lat="42.59249" lon="1.80374">
        <ele>1405</ele>
        <time>2022-08-28T15:01:41.000Z</time>
      </trkpt>
      <trkpt lat="42.59185" lon="1.80347">
        <ele>1407</ele>
        <time>2022-08-28T15:01:53.000Z</time>
      </trkpt>
      <trkpt lat="42.59155" lon="1.80334">
        <ele>1410</ele>
        <time>2022-08-28T15:01:58.000Z</time>
      </trkpt>
      <trkpt lat="42.59103" lon="1.80284">
        <ele>1417</ele>
        <time>2022-08-28T15:02:10.000Z</time>
      </trkpt>
      <trkpt lat="42.59098" lon="1.80281">
        <ele>1417</ele>
        <time>2022-08-28T15:02:11.000Z</time>
      </trkpt>
      <trkpt lat="42.59019" lon="1.80056">
        <ele>1424</ele>
        <time>2022-08-28T15:02:43.000Z</time>
      </trkpt>
      <trkpt lat="42.58993" lon="1.80004">
        <ele>1424</ele>
        <time>2022-08-28T15:02:52.000Z</time>
      </trkpt>
      <trkpt lat="42.58937" lon="1.79928">
        <ele>1427</ele>
        <time>2022-08-28T15:03:06.000Z</time>
      </trkpt>
      <trkpt lat="42.58906" lon="1.79887">
        <ele>1428</ele>
        <time>2022-08-28T15:03:13.000Z</time>
      </trkpt>
      <trkpt lat="42.58907" lon="1.79873">
        <ele>1427</ele>
        <time>2022-08-28T15:03:15.000Z</time>
      </trkpt>
      <trkpt lat="42.58902" lon="1.79862">
        <ele>1427</ele>
        <time>2022-08-28T15:03:17.000Z</time>
      </trkpt>
      <trkpt lat="42.58894" lon="1.79856">
        <ele>1428</ele>
        <time>2022-08-28T15:03:19.000Z</time>
      </trkpt>
      <trkpt lat="42.58887" lon="1.79857">
        <ele>1429</ele>
        <time>2022-08-28T15:03:20.000Z</time>
      </trkpt>
      <trkpt lat="42.58872" lon="1.79834">
        <ele>1429</ele>
        <time>2022-08-28T15:03:24.000Z</time>
      </trkpt>
      <trkpt lat="42.5883" lon="1.79803">
        <ele>1433</ele>
        <time>2022-08-28T15:03:32.000Z</time>
      </trkpt>
      <trkpt lat="42.5877" lon="1.79708">
        <ele>1434</ele>
        <time>2022-08-28T15:03:49.000Z</time>
      </trkpt>
      <trkpt lat="42.5868" lon="1.79591">
        <ele>1444</ele>
        <time>2022-08-28T15:04:11.000Z</time>
      </trkpt>
      <trkpt lat="42.58629" lon="1.79565">
        <ele>1456</ele>
        <time>2022-08-28T15:04:21.000Z</time>
      </trkpt>
      <trkpt lat="42.586" lon="1.79565">
        <ele>1458</ele>
        <time>2022-08-28T15:04:26.000Z</time>
      </trkpt>
      <trkpt lat="42.58461" lon="1.79608">
        <ele>1472</ele>
        <time>2022-08-28T15:04:51.000Z</time>
      </trkpt>
      <trkpt lat="42.5844" lon="1.79608">
        <ele>1475</ele>
        <time>2022-08-28T15:04:55.000Z</time>
      </trkpt>
      <trkpt lat="42.58163" lon="1.79526">
        <ele>1501</ele>
        <time>2022-08-28T15:05:46.000Z</time>
      </trkpt>
      <trkpt lat="42.58141" lon="1.79513">
        <ele>1502</ele>
        <time>2022-08-28T15:05:50.000Z</time>
      </trkpt>
      <trkpt lat="42.58015" lon="1.79388">
        <ele>1517</ele>
        <time>2022-08-28T15:06:18.000Z</time>
      </trkpt>
      <trkpt lat="42.57974" lon="1.79351">
        <ele>1521</ele>
        <time>2022-08-28T15:06:26.000Z</time>
      </trkpt>
      <trkpt lat="42.57849" lon="1.79252">
        <ele>1523</ele>
        <time>2022-08-28T15:06:52.000Z</time>
      </trkpt>
      <trkpt lat="42.57821" lon="1.79223">
        <ele>1529</ele>
        <time>2022-08-28T15:06:58.000Z</time>
      </trkpt>
      <trkpt lat="42.57793" lon="1.79184">
        <ele>1535</ele>
        <time>2022-08-28T15:07:06.000Z</time>
      </trkpt>
      <trkpt lat="42.57777" lon="1.79155">
        <ele>1537</ele>
        <time>2022-08-28T15:07:10.000Z</time>
      </trkpt>
      <trkpt lat="42.57716" lon="1.79019">
        <ele>1552</ele>
        <time>2022-08-28T15:07:31.000Z</time>
      </trkpt>
      <trkpt lat="42.57657" lon="1.78917">
        <ele>1559</ele>
        <time>2022-08-28T15:07:48.000Z</time>
      </trkpt>
      <trkpt lat="42.57646" lon="1.78909">
        <ele>1562</ele>
        <time>2022-08-28T15:07:50.000Z</time>
      </trkpt>
      <trkpt lat="42.57625" lon="1.78913">
        <ele>1561</ele>
        <time>2022-08-28T15:07:54.000Z</time>
      </trkpt>
      <trkpt lat="42.57617" lon="1.78932">
        <ele>1559</ele>
        <time>2022-08-28T15:07:57.000Z</time>
      </trkpt>
      <trkpt lat="42.57618" lon="1.79103">
        <ele>1559</ele>
        <time>2022-08-28T15:08:20.000Z</time>
      </trkpt>
      <trkpt lat="42.57623" lon="1.79132">
        <ele>1560</ele>
        <time>2022-08-28T15:08:23.000Z</time>
      </trkpt>
      <trkpt lat="42.57631" lon="1.7916">
        <ele>1559</ele>
        <time>2022-08-28T15:08:27.000Z</time>
      </trkpt>
      <trkpt lat="42.57655" lon="1.79213">
        <ele>1558</ele>
        <time>2022-08-28T15:08:36.000Z</time>
      </trkpt>
      <trkpt lat="42.57659" lon="1.79235">
        <ele>1560</ele>
        <time>2022-08-28T15:08:39.000Z</time>
      </trkpt>
      <trkpt lat="42.57657" lon="1.79247">
        <ele>1563</ele>
        <time>2022-08-28T15:08:40.000Z</time>
      </trkpt>
      <trkpt lat="42.57652" lon="1.79254">
        <ele>1565</ele>
        <time>2022-08-28T15:08:41.000Z</time>
      </trkpt>
      <trkpt lat="42.5764" lon="1.79256">
        <ele>1570</ele>
        <time>2022-08-28T15:08:44.000Z</time>
      </trkpt>
      <trkpt lat="42.57633" lon="1.79253">
        <ele>1571</ele>
        <time>2022-08-28T15:08:45.000Z</time>
      </trkpt>
      <trkpt lat="42.57625" lon="1.79236">
        <ele>1571</ele>
        <time>2022-08-28T15:08:48.000Z</time>
      </trkpt>
      <trkpt lat="42.57608" lon="1.79176">
        <ele>1568</ele>
        <time>2022-08-28T15:08:56.000Z</time>
      </trkpt>
      <trkpt lat="42.57457" lon="1.78824">
        <ele>1582</ele>
        <time>2022-08-28T15:09:50.000Z</time>
      </trkpt>
      <trkpt lat="42.57453" lon="1.78822">
        <ele>1583</ele>
        <time>2022-08-28T15:09:50.000Z</time>
      </trkpt>
      <trkpt lat="42.57436" lon="1.78837">
        <ele>1587</ele>
        <time>2022-08-28T15:09:54.000Z</time>
      </trkpt>
      <trkpt lat="42.57436" lon="1.78853">
        <ele>1589</ele>
        <time>2022-08-28T15:09:56.000Z</time>
      </trkpt>
      <trkpt lat="42.57461" lon="1.78917">
        <ele>1588</ele>
        <time>2022-08-28T15:10:06.000Z</time>
      </trkpt>
      <trkpt lat="42.57476" lon="1.78966">
        <ele>1590</ele>
        <time>2022-08-28T15:10:13.000Z</time>
      </trkpt>
      <trkpt lat="42.57514" lon="1.79188">
        <ele>1606</ele>
        <time>2022-08-28T15:10:43.000Z</time>
      </trkpt>
      <trkpt lat="42.5754" lon="1.79256">
        <ele>1607</ele>
        <time>2022-08-28T15:10:53.000Z</time>
      </trkpt>
      <trkpt lat="42.57586" lon="1.79322">
        <ele>1602</ele>
        <time>2022-08-28T15:11:05.000Z</time>
      </trkpt>
      <trkpt lat="42.57587" lon="1.79332">
        <ele>1603</ele>
        <time>2022-08-28T15:11:06.000Z</time>
      </trkpt>
      <trkpt lat="42.57584" lon="1.79342">
        <ele>1606</ele>
        <time>2022-08-28T15:11:07.000Z</time>
      </trkpt>
      <trkpt lat="42.5757" lon="1.79353">
        <ele>1614</ele>
        <time>2022-08-28T15:11:10.000Z</time>
      </trkpt>
      <trkpt lat="42.57562" lon="1.79352">
        <ele>1618</ele>
        <time>2022-08-28T15:11:12.000Z</time>
      </trkpt>
      <trkpt lat="42.57392" lon="1.79059">
        <ele>1630</ele>
        <time>2022-08-28T15:12:01.000Z</time>
      </trkpt>
      <trkpt lat="42.57361" lon="1.79009">
        <ele>1632</ele>
        <time>2022-08-28T15:12:09.000Z</time>
      </trkpt>
      <trkpt lat="42.5724" lon="1.78895">
        <ele>1639</ele>
        <time>2022-08-28T15:12:35.000Z</time>
      </trkpt>
      <trkpt lat="42.57193" lon="1.78877">
        <ele>1645</ele>
        <time>2022-08-28T15:12:44.000Z</time>
      </trkpt>
      <trkpt lat="42.57172" lon="1.78827">
        <ele>1644</ele>
        <time>2022-08-28T15:12:52.000Z</time>
      </trkpt>
      <trkpt lat="42.57169" lon="1.78814">
        <ele>1646</ele>
        <time>2022-08-28T15:12:53.000Z</time>
      </trkpt>
      <trkpt lat="42.57182" lon="1.78739">
        <ele>1644</ele>
        <time>2022-08-28T15:13:04.000Z</time>
      </trkpt>
      <trkpt lat="42.5718" lon="1.78733">
        <ele>1645</ele>
        <time>2022-08-28T15:13:05.000Z</time>
      </trkpt>
      <trkpt lat="42.57094" lon="1.78609">
        <ele>1659</ele>
        <time>2022-08-28T15:13:27.000Z</time>
      </trkpt>
      <trkpt lat="42.57069" lon="1.78532">
        <ele>1657</ele>
        <time>2022-08-28T15:13:38.000Z</time>
      </trkpt>
      <trkpt lat="42.5706" lon="1.78514">
        <ele>1658</ele>
        <time>2022-08-28T15:13:41.000Z</time>
      </trkpt>
      <trkpt lat="42.56985" lon="1.78411">
        <ele>1667</ele>
        <time>2022-08-28T15:14:00.000Z</time>
      </trkpt>
      <trkpt lat="42.56928" lon="1.78287">
        <ele>1670</ele>
        <time>2022-08-28T15:14:19.000Z</time>
      </trkpt>
      <trkpt lat="42.56846" lon="1.78181">
        <ele>1679</ele>
        <time>2022-08-28T15:14:39.000Z</time>
      </trkpt>
      <trkpt lat="42.56808" lon="1.78108">
        <ele>1679</ele>
        <time>2022-08-28T15:14:51.000Z</time>
      </trkpt>
      <trkpt lat="42.56737" lon="1.78047">
        <ele>1688</ele>
        <time>2022-08-28T15:15:06.000Z</time>
      </trkpt>
      <trkpt lat="42.56722" lon="1.7803">
        <ele>1690</ele>
        <time>2022-08-28T15:15:09.000Z</time>
      </trkpt>
      <trkpt lat="42.56688" lon="1.77964">
        <ele>1689</ele>
        <time>2022-08-28T15:15:20.000Z</time>
      </trkpt>
      <trkpt lat="42.56639" lon="1.77896">
        <ele>1694</ele>
        <time>2022-08-28T15:15:32.000Z</time>
      </trkpt>
      <trkpt lat="42.56565" lon="1.77792">
        <ele>1702</ele>
        <time>2022-08-28T15:15:51.000Z</time>
      </trkpt>
      <trkpt lat="42.56549" lon="1.77745">
        <ele>1702</ele>
        <time>2022-08-28T15:15:58.000Z</time>
      </trkpt>
      <trkpt lat="42.56521" lon="1.77648">
        <ele>1704</ele>
        <time>2022-08-28T15:16:12.000Z</time>
      </trkpt>
      <trkpt lat="42.5645" lon="1.77515">
        <ele>1713</ele>
        <time>2022-08-28T15:16:33.000Z</time>
      </trkpt>
      <trkpt lat="42.56445" lon="1.77501">
        <ele>1714</ele>
        <time>2022-08-28T15:16:35.000Z</time>
      </trkpt>
      <trkpt lat="42.56446" lon="1.77434">
        <ele>1713</ele>
        <time>2022-08-28T15:16:44.000Z</time>
      </trkpt>
      <trkpt lat="42.56445" lon="1.77418">
        <ele>1713</ele>
        <time>2022-08-28T15:16:46.000Z</time>
      </trkpt>
      <trkpt lat="42.56409" lon="1.77291">
        <ele>1721</ele>
        <time>2022-08-28T15:17:04.000Z</time>
      </trkpt>
      <trkpt lat="42.56375" lon="1.77225">
        <ele>1727</ele>
        <time>2022-08-28T15:17:15.000Z</time>
      </trkpt>
      <trkpt lat="42.56371" lon="1.7721">
        <ele>1727</ele>
        <time>2022-08-28T15:17:17.000Z</time>
      </trkpt>
      <trkpt lat="42.56375" lon="1.77141">
        <ele>1725</ele>
        <time>2022-08-28T15:17:26.000Z</time>
      </trkpt>
      <trkpt lat="42.56358" lon="1.77122">
        <ele>1730</ele>
        <time>2022-08-28T15:17:30.000Z</time>
      </trkpt>
      <trkpt lat="42.56345" lon="1.77123">
        <ele>1734</ele>
        <time>2022-08-28T15:17:32.000Z</time>
      </trkpt>
      <trkpt lat="42.56336" lon="1.77144">
        <ele>1736</ele>
        <time>2022-08-28T15:17:35.000Z</time>
      </trkpt>
      <trkpt lat="42.56336" lon="1.77154">
        <ele>1736</ele>
        <time>2022-08-28T15:17:37.000Z</time>
      </trkpt>
      <trkpt lat="42.56359" lon="1.7724">
        <ele>1731</ele>
        <time>2022-08-28T15:17:49.000Z</time>
      </trkpt>
      <trkpt lat="42.56367" lon="1.77286">
        <ele>1732</ele>
        <time>2022-08-28T15:17:55.000Z</time>
      </trkpt>
      <trkpt lat="42.56351" lon="1.77345">
        <ele>1739</ele>
        <time>2022-08-28T15:18:03.000Z</time>
      </trkpt>
      <trkpt lat="42.5635" lon="1.77354">
        <ele>1739</ele>
        <time>2022-08-28T15:18:05.000Z</time>
      </trkpt>
      <trkpt lat="42.56353" lon="1.77414">
        <ele>1740</ele>
        <time>2022-08-28T15:18:12.000Z</time>
      </trkpt>
      <trkpt lat="42.56351" lon="1.77556">
        <ele>1740</ele>
        <time>2022-08-28T15:18:31.000Z</time>
      </trkpt>
      <trkpt lat="42.56342" lon="1.77613">
        <ele>1744</ele>
        <time>2022-08-28T15:18:39.000Z</time>
      </trkpt>
      <trkpt lat="42.56338" lon="1.77624">
        <ele>1745</ele>
        <time>2022-08-28T15:18:40.000Z</time>
      </trkpt>
      <trkpt lat="42.56331" lon="1.77633">
        <ele>1746</ele>
        <time>2022-08-28T15:18:42.000Z</time>
      </trkpt>
      <trkpt lat="42.56305" lon="1.77652">
        <ele>1753</ele>
        <time>2022-08-28T15:18:47.000Z</time>
      </trkpt>
      <trkpt lat="42.5629" lon="1.7768">
        <ele>1757</ele>
        <time>2022-08-28T15:18:52.000Z</time>
      </trkpt>
      <trkpt lat="42.56289" lon="1.77702">
        <ele>1759</ele>
        <time>2022-08-28T15:18:55.000Z</time>
      </trkpt>
      <trkpt lat="42.56294" lon="1.7772">
        <ele>1758</ele>
        <time>2022-08-28T15:18:57.000Z</time>
      </trkpt>
      <trkpt lat="42.56301" lon="1.77731">
        <ele>1758</ele>
        <time>2022-08-28T15:18:59.000Z</time>
      </trkpt>
      <trkpt lat="42.56332" lon="1.77757">
        <ele>1756</ele>
        <time>2022-08-28T15:19:06.000Z</time>
      </trkpt>
      <trkpt lat="42.5634" lon="1.7777">
        <ele>1756</ele>
        <time>2022-08-28T15:19:08.000Z</time>
      </trkpt>
      <trkpt lat="42.56348" lon="1.77856">
        <ele>1762</ele>
        <time>2022-08-28T15:19:19.000Z</time>
      </trkpt>
      <trkpt lat="42.56372" lon="1.77936">
        <ele>1761</ele>
        <time>2022-08-28T15:19:30.000Z</time>
      </trkpt>
      <trkpt lat="42.5637" lon="1.78037">
        <ele>1770</ele>
        <time>2022-08-28T15:19:44.000Z</time>
      </trkpt>
      <trkpt lat="42.56372" lon="1.78045">
        <ele>1771</ele>
        <time>2022-08-28T15:19:45.000Z</time>
      </trkpt>
      <trkpt lat="42.56399" lon="1.78085">
        <ele>1771</ele>
        <time>2022-08-28T15:19:52.000Z</time>
      </trkpt>
      <trkpt lat="42.56418" lon="1.78113">
        <ele>1771</ele>
        <time>2022-08-28T15:19:57.000Z</time>
      </trkpt>
      <trkpt lat="42.5645" lon="1.78197">
        <ele>1776</ele>
        <time>2022-08-28T15:20:09.000Z</time>
      </trkpt>
      <trkpt lat="42.56447" lon="1.78208">
        <ele>1779</ele>
        <time>2022-08-28T15:20:11.000Z</time>
      </trkpt>
      <trkpt lat="42.5652" lon="1.78275">
        <ele>1778</ele>
        <time>2022-08-28T15:20:27.000Z</time>
      </trkpt>
      <trkpt lat="42.56554" lon="1.78311">
        <ele>1782</ele>
        <time>2022-08-28T15:20:34.000Z</time>
      </trkpt>
      <trkpt lat="42.56606" lon="1.78339">
        <ele>1780</ele>
        <time>2022-08-28T15:20:44.000Z</time>
      </trkpt>
      <trkpt lat="42.56619" lon="1.78352">
        <ele>1780</ele>
        <time>2022-08-28T15:20:47.000Z</time>
      </trkpt>
      <trkpt lat="42.56652" lon="1.784">
        <ele>1783</ele>
        <time>2022-08-28T15:20:56.000Z</time>
      </trkpt>
      <trkpt lat="42.56703" lon="1.78494">
        <ele>1792</ele>
        <time>2022-08-28T15:21:11.000Z</time>
      </trkpt>
      <trkpt lat="42.56718" lon="1.78547">
        <ele>1796</ele>
        <time>2022-08-28T15:21:19.000Z</time>
      </trkpt>
      <trkpt lat="42.56743" lon="1.78677">
        <ele>1796</ele>
        <time>2022-08-28T15:21:36.000Z</time>
      </trkpt>
      <trkpt lat="42.56756" lon="1.7881">
        <ele>1802</ele>
        <time>2022-08-28T15:21:54.000Z</time>
      </trkpt>
      <trkpt lat="42.5675" lon="1.78855">
        <ele>1805</ele>
        <time>2022-08-28T15:22:00.000Z</time>
      </trkpt>
      <trkpt lat="42.56649" lon="1.79109">
        <ele>1821</ele>
        <time>2022-08-28T15:22:38.000Z</time>
      </trkpt>
      <trkpt lat="42.56635" lon="1.7921">
        <ele>1826</ele>
        <time>2022-08-28T15:22:51.000Z</time>
      </trkpt>
      <trkpt lat="42.56665" lon="1.79332">
        <ele>1826</ele>
        <time>2022-08-28T15:23:08.000Z</time>
      </trkpt>
      <trkpt lat="42.56671" lon="1.79388">
        <ele>1831</ele>
        <time>2022-08-28T15:23:16.000Z</time>
      </trkpt>
      <trkpt lat="42.56683" lon="1.79656">
        <ele>1840</ele>
        <time>2022-08-28T15:23:51.000Z</time>
      </trkpt>
      <trkpt lat="42.56667" lon="1.79723">
        <ele>1848</ele>
        <time>2022-08-28T15:24:00.000Z</time>
      </trkpt>
      <trkpt lat="42.56664" lon="1.79767">
        <ele>1852</ele>
        <time>2022-08-28T15:24:06.000Z</time>
      </trkpt>
      <trkpt lat="42.56694" lon="1.79837">
        <ele>1852</ele>
        <time>2022-08-28T15:24:17.000Z</time>
      </trkpt>
      <trkpt lat="42.56702" lon="1.79859">
        <ele>1852</ele>
        <time>2022-08-28T15:24:20.000Z</time>
      </trkpt>
      <trkpt lat="42.56703" lon="1.79903">
        <ele>1854</ele>
        <time>2022-08-28T15:24:26.000Z</time>
      </trkpt>
      <trkpt lat="42.56699" lon="1.79928">
        <ele>1855</ele>
        <time>2022-08-28T15:24:29.000Z</time>
      </trkpt>
      <trkpt lat="42.56687" lon="1.79955">
        <ele>1856</ele>
        <time>2022-08-28T15:24:33.000Z</time>
      </trkpt>
      <trkpt lat="42.56661" lon="1.79982">
        <ele>1858</ele>
        <time>2022-08-28T15:24:39.000Z</time>
      </trkpt>
      <trkpt lat="42.56559" lon="1.80038">
        <ele>1867</ele>
        <time>2022-08-28T15:24:59.000Z</time>
      </trkpt>
      <trkpt lat="42.5646" lon="1.80104">
        <ele>1876</ele>
        <time>2022-08-28T15:25:18.000Z</time>
      </trkpt>
      <trkpt lat="42.56311" lon="1.80313">
        <ele>1885</ele>
        <time>2022-08-28T15:25:56.000Z</time>
      </trkpt>
      <trkpt lat="42.56265" lon="1.80378">
        <ele>1892</ele>
        <time>2022-08-28T15:26:08.000Z</time>
      </trkpt>
      <trkpt lat="42.56232" lon="1.80455">
        <ele>1897</ele>
        <time>2022-08-28T15:26:20.000Z</time>
      </trkpt>
      <trkpt lat="42.56184" lon="1.80667">
        <ele>1905</ele>
        <time>2022-08-28T15:26:49.000Z</time>
      </trkpt>
      <trkpt lat="42.56174" lon="1.80697">
        <ele>1907</ele>
        <time>2022-08-28T15:26:53.000Z</time>
      </trkpt>
      <trkpt lat="42.56129" lon="1.80771">
        <ele>1913</ele>
        <time>2022-08-28T15:27:06.000Z</time>
      </trkpt>
      <trkpt lat="42.56074" lon="1.80914">
        <ele>1915</ele>
        <time>2022-08-28T15:27:27.000Z</time>
      </trkpt>
      <trkpt lat="42.56066" lon="1.8093">
        <ele>1917</ele>
        <time>2022-08-28T15:27:30.000Z</time>
      </trkpt>
      <trkpt lat="42.5597" lon="1.81066">
        <ele>1916</ele>
        <time>2022-08-28T15:27:54.000Z</time>
      </trkpt>
      <trkpt lat="42.55956" lon="1.81093">
        <ele>1914</ele>
        <time>2022-08-28T15:27:59.000Z</time>
      </trkpt>
      <trkpt lat="42.55944" lon="1.81155">
        <ele>1910</ele>
        <time>2022-08-28T15:28:07.000Z</time>
      </trkpt>
      <trkpt lat="42.55941" lon="1.81248">
        <ele>1910</ele>
        <time>2022-08-28T15:28:19.000Z</time>
      </trkpt>
      <trkpt lat="42.55913" lon="1.81366">
        <ele>1907</ele>
        <time>2022-08-28T15:28:35.000Z</time>
      </trkpt>
      <trkpt lat="42.55902" lon="1.81402">
        <ele>1906</ele>
        <time>2022-08-28T15:28:41.000Z</time>
      </trkpt>
      <trkpt lat="42.55852" lon="1.81506">
        <ele>1896</ele>
        <time>2022-08-28T15:28:57.000Z</time>
      </trkpt>
      <trkpt lat="42.55727" lon="1.81754">
        <ele>1883</ele>
        <time>2022-08-28T15:29:36.000Z</time>
      </trkpt>
      <trkpt lat="42.55487" lon="1.82157">
        <ele>1856</ele>
        <time>2022-08-28T15:30:44.000Z</time>
      </trkpt>
      <trkpt lat="42.55439" lon="1.82234">
        <ele>1855</ele>
        <time>2022-08-28T15:30:57.000Z</time>
      </trkpt>
      <trkpt lat="42.55396" lon="1.82321">
        <ele>1853</ele>
        <time>2022-08-28T15:31:11.000Z</time>
      </trkpt>
      <trkpt lat="42.5538" lon="1.82395">
        <ele>1856</ele>
        <time>2022-08-28T15:31:21.000Z</time>
      </trkpt>
      <trkpt lat="42.55376" lon="1.82408">
        <ele>1855</ele>
        <time>2022-08-28T15:31:23.000Z</time>
      </trkpt>
      <trkpt lat="42.55369" lon="1.82416">
        <ele>1852</ele>
        <time>2022-08-28T15:31:25.000Z</time>
      </trkpt>
      <trkpt lat="42.5536" lon="1.82417">
        <ele>1848</ele>
        <time>2022-08-28T15:31:26.000Z</time>
      </trkpt>
      <trkpt lat="42.55346" lon="1.82396">
        <ele>1839</ele>
        <time>2022-08-28T15:31:30.000Z</time>
      </trkpt>
      <trkpt lat="42.55347" lon="1.82381">
        <ele>1838</ele>
        <time>2022-08-28T15:31:32.000Z</time>
      </trkpt>
      <trkpt lat="42.55382" lon="1.82321">
        <ele>1847</ele>
        <time>2022-08-28T15:31:42.000Z</time>
      </trkpt>
      <trkpt lat="42.5554" lon="1.81909">
        <ele>1834</ele>
        <time>2022-08-28T15:32:43.000Z</time>
      </trkpt>
      <trkpt lat="42.55574" lon="1.81797">
        <ele>1829</ele>
        <time>2022-08-28T15:32:59.000Z</time>
      </trkpt>
      <trkpt lat="42.55581" lon="1.81714">
        <ele>1825</ele>
        <time>2022-08-28T15:33:10.000Z</time>
      </trkpt>
      <trkpt lat="42.55602" lon="1.81634">
        <ele>1827</ele>
        <time>2022-08-28T15:33:21.000Z</time>
      </trkpt>
      <trkpt lat="42.556" lon="1.816">
        <ele>1824</ele>
        <time>2022-08-28T15:33:26.000Z</time>
      </trkpt>
      <trkpt lat="42.55577" lon="1.81539">
        <ele>1818</ele>
        <time>2022-08-28T15:33:35.000Z</time>
      </trkpt>
      <trkpt lat="42.5554" lon="1.81446">
        <ele>1817</ele>
        <time>2022-08-28T15:33:49.000Z</time>
      </trkpt>
      <trkpt lat="42.555" lon="1.81411">
        <ele>1818</ele>
        <time>2022-08-28T15:33:57.000Z</time>
      </trkpt>
      <trkpt lat="42.55489" lon="1.81409">
        <ele>1820</ele>
        <time>2022-08-28T15:33:59.000Z</time>
      </trkpt>
      <trkpt lat="42.55478" lon="1.81413">
        <ele>1820</ele>
        <time>2022-08-28T15:34:01.000Z</time>
      </trkpt>
      <trkpt lat="42.55469" lon="1.81425">
        <ele>1820</ele>
        <time>2022-08-28T15:34:03.000Z</time>
      </trkpt>
      <trkpt lat="42.55413" lon="1.81538">
        <ele>1809</ele>
        <time>2022-08-28T15:34:21.000Z</time>
      </trkpt>
      <trkpt lat="42.55404" lon="1.81548">
        <ele>1808</ele>
        <time>2022-08-28T15:34:23.000Z</time>
      </trkpt>
      <trkpt lat="42.55387" lon="1.8156">
        <ele>1808</ele>
        <time>2022-08-28T15:34:27.000Z</time>
      </trkpt>
      <trkpt lat="42.55305" lon="1.81606">
        <ele>1806</ele>
        <time>2022-08-28T15:34:42.000Z</time>
      </trkpt>
      <trkpt lat="42.55267" lon="1.81615">
        <ele>1809</ele>
        <time>2022-08-28T15:34:49.000Z</time>
      </trkpt>
      <trkpt lat="42.55259" lon="1.81626">
        <ele>1808</ele>
        <time>2022-08-28T15:34:51.000Z</time>
      </trkpt>
      <trkpt lat="42.55266" lon="1.81658">
        <ele>1800</ele>
        <time>2022-08-28T15:34:56.000Z</time>
      </trkpt>
      <trkpt lat="42.55277" lon="1.81662">
        <ele>1798</ele>
        <time>2022-08-28T15:34:58.000Z</time>
      </trkpt>
      <trkpt lat="42.55375" lon="1.81649">
        <ele>1794</ele>
        <time>2022-08-28T15:35:16.000Z</time>
      </trkpt>
      <trkpt lat="42.5539" lon="1.81657">
        <ele>1793</ele>
        <time>2022-08-28T15:35:19.000Z</time>
      </trkpt>
      <trkpt lat="42.55422" lon="1.81722">
        <ele>1788</ele>
        <time>2022-08-28T15:35:29.000Z</time>
      </trkpt>
      <trkpt lat="42.55422" lon="1.81738">
        <ele>1787</ele>
        <time>2022-08-28T15:35:31.000Z</time>
      </trkpt>
      <trkpt lat="42.55381" lon="1.81874">
        <ele>1781</ele>
        <time>2022-08-28T15:35:50.000Z</time>
      </trkpt>
      <trkpt lat="42.55349" lon="1.81995">
        <ele>1780</ele>
        <time>2022-08-28T15:36:07.000Z</time>
      </trkpt>
      <trkpt lat="42.55324" lon="1.82035">
        <ele>1776</ele>
        <time>2022-08-28T15:36:14.000Z</time>
      </trkpt>
      <trkpt lat="42.55312" lon="1.82056">
        <ele>1774</ele>
        <time>2022-08-28T15:36:18.000Z</time>
      </trkpt>
      <trkpt lat="42.55305" lon="1.82074">
        <ele>1773</ele>
        <time>2022-08-28T15:36:20.000Z</time>
      </trkpt>
      <trkpt lat="42.55293" lon="1.82122">
        <ele>1775</ele>
        <time>2022-08-28T15:36:27.000Z</time>
      </trkpt>
      <trkpt lat="42.55257" lon="1.82184">
        <ele>1769</ele>
        <time>2022-08-28T15:36:37.000Z</time>
      </trkpt>
      <trkpt lat="42.55194" lon="1.82314">
        <ele>1760</ele>
        <time>2022-08-28T15:36:58.000Z</time>
      </trkpt>
      <trkpt lat="42.55174" lon="1.82392">
        <ele>1761</ele>
        <time>2022-08-28T15:37:09.000Z</time>
      </trkpt>
      <trkpt lat="42.55144" lon="1.82447">
        <ele>1756</ele>
        <time>2022-08-28T15:37:18.000Z</time>
      </trkpt>
      <trkpt lat="42.55129" lon="1.8251">
        <ele>1755</ele>
        <time>2022-08-28T15:37:26.000Z</time>
      </trkpt>
      <trkpt lat="42.55118" lon="1.82653">
        <ele>1756</ele>
        <time>2022-08-28T15:37:45.000Z</time>
      </trkpt>
      <trkpt lat="42.55127" lon="1.8286">
        <ele>1751</ele>
        <time>2022-08-28T15:38:12.000Z</time>
      </trkpt>
      <trkpt lat="42.55136" lon="1.82934">
        <ele>1749</ele>
        <time>2022-08-28T15:38:22.000Z</time>
      </trkpt>
      <trkpt lat="42.55129" lon="1.83038">
        <ele>1737</ele>
        <time>2022-08-28T15:38:36.000Z</time>
      </trkpt>
      <trkpt lat="42.5513" lon="1.83062">
        <ele>1735</ele>
        <time>2022-08-28T15:38:39.000Z</time>
      </trkpt>
      <trkpt lat="42.55138" lon="1.83124">
        <ele>1733</ele>
        <time>2022-08-28T15:38:47.000Z</time>
      </trkpt>
      <trkpt lat="42.55169" lon="1.83216">
        <ele>1731</ele>
        <time>2022-08-28T15:39:00.000Z</time>
      </trkpt>
      <trkpt lat="42.55169" lon="1.83237">
        <ele>1725</ele>
        <time>2022-08-28T15:39:03.000Z</time>
      </trkpt>
      <trkpt lat="42.55166" lon="1.83266">
        <ele>1724</ele>
        <time>2022-08-28T15:39:07.000Z</time>
      </trkpt>
      <trkpt lat="42.55157" lon="1.83299">
        <ele>1728</ele>
        <time>2022-08-28T15:39:12.000Z</time>
      </trkpt>
      <trkpt lat="42.5511" lon="1.83323">
        <ele>1715</ele>
        <time>2022-08-28T15:39:21.000Z</time>
      </trkpt>
      <trkpt lat="42.55102" lon="1.83337">
        <ele>1715</ele>
        <time>2022-08-28T15:39:23.000Z</time>
      </trkpt>
      <trkpt lat="42.55086" lon="1.83461">
        <ele>1729</ele>
        <time>2022-08-28T15:39:40.000Z</time>
      </trkpt>
      <trkpt lat="42.55064" lon="1.83574">
        <ele>1727</ele>
        <time>2022-08-28T15:39:55.000Z</time>
      </trkpt>
      <trkpt lat="42.5504" lon="1.83626">
        <ele>1715</ele>
        <time>2022-08-28T15:40:03.000Z</time>
      </trkpt>
      <trkpt lat="42.55036" lon="1.83641">
        <ele>1713</ele>
        <time>2022-08-28T15:40:05.000Z</time>
      </trkpt>
      <trkpt lat="42.55013" lon="1.83808">
        <ele>1709</ele>
        <time>2022-08-28T15:40:27.000Z</time>
      </trkpt>
      <trkpt lat="42.55001" lon="1.8404">
        <ele>1694</ele>
        <time>2022-08-28T15:40:58.000Z</time>
      </trkpt>
      <trkpt lat="42.55003" lon="1.84085">
        <ele>1693</ele>
        <time>2022-08-28T15:41:04.000Z</time>
      </trkpt>
      <trkpt lat="42.55022" lon="1.84159">
        <ele>1707</ele>
        <time>2022-08-28T15:41:14.000Z</time>
      </trkpt>
      <trkpt lat="42.55019" lon="1.84185">
        <ele>1704</ele>
        <time>2022-08-28T15:41:17.000Z</time>
      </trkpt>
      <trkpt lat="42.54993" lon="1.84192">
        <ele>1685</ele>
        <time>2022-08-28T15:41:22.000Z</time>
      </trkpt>
      <trkpt lat="42.54986" lon="1.84176">
        <ele>1683</ele>
        <time>2022-08-28T15:41:25.000Z</time>
      </trkpt>
      <trkpt lat="42.54985" lon="1.84158">
        <ele>1683</ele>
        <time>2022-08-28T15:41:27.000Z</time>
      </trkpt>
      <trkpt lat="42.54989" lon="1.84076">
        <ele>1687</ele>
        <time>2022-08-28T15:41:38.000Z</time>
      </trkpt>
      <trkpt lat="42.54971" lon="1.83857">
        <ele>1683</ele>
        <time>2022-08-28T15:42:07.000Z</time>
      </trkpt>
      <trkpt lat="42.54968" lon="1.83793">
        <ele>1679</ele>
        <time>2022-08-28T15:42:15.000Z</time>
      </trkpt>
      <trkpt lat="42.5497" lon="1.83419">
        <ele>1662</ele>
        <time>2022-08-28T15:43:04.000Z</time>
      </trkpt>
      <trkpt lat="42.5497" lon="1.83305">
        <ele>1654</ele>
        <time>2022-08-28T15:43:19.000Z</time>
      </trkpt>
      <trkpt lat="42.54978" lon="1.83253">
        <ele>1652</ele>
        <time>2022-08-28T15:43:26.000Z</time>
      </trkpt>
      <trkpt lat="42.54977" lon="1.83241">
        <ele>1653</ele>
        <time>2022-08-28T15:43:28.000Z</time>
      </trkpt>
      <trkpt lat="42.54906" lon="1.83179">
        <ele>1645</ele>
        <time>2022-08-28T15:43:43.000Z</time>
      </trkpt>
      <trkpt lat="42.54904" lon="1.83171">
        <ele>1645</ele>
        <time>2022-08-28T15:43:44.000Z</time>
      </trkpt>
      <trkpt lat="42.54913" lon="1.83071">
        <ele>1644</ele>
        <time>2022-08-28T15:43:58.000Z</time>
      </trkpt>
      <trkpt lat="42.54916" lon="1.83028">
        <ele>1644</ele>
        <time>2022-08-28T15:44:03.000Z</time>
      </trkpt>
      <trkpt lat="42.54896" lon="1.82934">
        <ele>1638</ele>
        <time>2022-08-28T15:44:16.000Z</time>
      </trkpt>
      <trkpt lat="42.54887" lon="1.82801">
        <ele>1636</ele>
        <time>2022-08-28T15:44:34.000Z</time>
      </trkpt>
      <trkpt lat="42.54875" lon="1.82749">
        <ele>1633</ele>
        <time>2022-08-28T15:44:41.000Z</time>
      </trkpt>
      <trkpt lat="42.54867" lon="1.82735">
        <ele>1632</ele>
        <time>2022-08-28T15:44:43.000Z</time>
      </trkpt>
      <trkpt lat="42.54854" lon="1.82723">
        <ele>1630</ele>
        <time>2022-08-28T15:44:46.000Z</time>
      </trkpt>
      <trkpt lat="42.5478" lon="1.82684">
        <ele>1621</ele>
        <time>2022-08-28T15:45:00.000Z</time>
      </trkpt>
      <trkpt lat="42.5477" lon="1.82674">
        <ele>1620</ele>
        <time>2022-08-28T15:45:03.000Z</time>
      </trkpt>
      <trkpt lat="42.54735" lon="1.82573">
        <ele>1621</ele>
        <time>2022-08-28T15:45:17.000Z</time>
      </trkpt>
      <trkpt lat="42.54703" lon="1.82549">
        <ele>1619</ele>
        <time>2022-08-28T15:45:24.000Z</time>
      </trkpt>
      <trkpt lat="42.54642" lon="1.8253">
        <ele>1617</ele>
        <time>2022-08-28T15:45:35.000Z</time>
      </trkpt>
      <trkpt lat="42.54622" lon="1.82533">
        <ele>1617</ele>
        <time>2022-08-28T15:45:39.000Z</time>
      </trkpt>
      <trkpt lat="42.54586" lon="1.82549">
        <ele>1613</ele>
        <time>2022-08-28T15:45:45.000Z</time>
      </trkpt>
      <trkpt lat="42.54566" lon="1.82605">
        <ele>1609</ele>
        <time>2022-08-28T15:45:54.000Z</time>
      </trkpt>
      <trkpt lat="42.54559" lon="1.82609">
        <ele>1610</ele>
        <time>2022-08-28T15:45:55.000Z</time>
      </trkpt>
      <trkpt lat="42.54483" lon="1.82602">
        <ele>1615</ele>
        <time>2022-08-28T15:46:09.000Z</time>
      </trkpt>
      <trkpt lat="42.54422" lon="1.82619">
        <ele>1617</ele>
        <time>2022-08-28T15:46:20.000Z</time>
      </trkpt>
      <trkpt lat="42.54317" lon="1.82676">
        <ele>1611</ele>
        <time>2022-08-28T15:46:40.000Z</time>
      </trkpt>
      <trkpt lat="42.54166" lon="1.8275">
        <ele>1596</ele>
        <time>2022-08-28T15:47:08.000Z</time>
      </trkpt>
      <trkpt lat="42.54098" lon="1.82769">
        <ele>1596</ele>
        <time>2022-08-28T15:47:21.000Z</time>
      </trkpt>
      <trkpt lat="42.54089" lon="1.82768">
        <ele>1594</ele>
        <time>2022-08-28T15:47:22.000Z</time>
      </trkpt>
      <trkpt lat="42.54025" lon="1.82731">
        <ele>1585</ele>
        <time>2022-08-28T15:47:35.000Z</time>
      </trkpt>
      <trkpt lat="42.54014" lon="1.8272">
        <ele>1583</ele>
        <time>2022-08-28T15:47:37.000Z</time>
      </trkpt>
      <trkpt lat="42.53955" lon="1.826">
        <ele>1573</ele>
        <time>2022-08-28T15:47:56.000Z</time>
      </trkpt>
      <trkpt lat="42.53931" lon="1.82566">
        <ele>1571</ele>
        <time>2022-08-28T15:48:02.000Z</time>
      </trkpt>
      <trkpt lat="42.53857" lon="1.82515">
        <ele>1568</ele>
        <time>2022-08-28T15:48:17.000Z</time>
      </trkpt>
      <trkpt lat="42.53758" lon="1.82453">
        <ele>1564</ele>
        <time>2022-08-28T15:48:36.000Z</time>
      </trkpt>
      <trkpt lat="42.53701" lon="1.82428">
        <ele>1565</ele>
        <time>2022-08-28T15:48:47.000Z</time>
      </trkpt>
      <trkpt lat="42.53688" lon="1.82419">
        <ele>1564</ele>
        <time>2022-08-28T15:48:50.000Z</time>
      </trkpt>
      <trkpt lat="42.53683" lon="1.82413">
        <ele>1563</ele>
        <time>2022-08-28T15:48:51.000Z</time>
      </trkpt>
      <trkpt lat="42.53681" lon="1.824">
        <ele>1562</ele>
        <time>2022-08-28T15:48:53.000Z</time>
      </trkpt>
      <trkpt lat="42.53689" lon="1.82388">
        <ele>1560</ele>
        <time>2022-08-28T15:48:55.000Z</time>
      </trkpt>
      <trkpt lat="42.53693" lon="1.82376">
        <ele>1559</ele>
        <time>2022-08-28T15:48:57.000Z</time>
      </trkpt>
      <trkpt lat="42.53459" lon="1.82262">
        <ele>1552</ele>
        <time>2022-08-28T15:49:41.000Z</time>
      </trkpt>
      <trkpt lat="42.5335" lon="1.82224">
        <ele>1552</ele>
        <time>2022-08-28T15:50:01.000Z</time>
      </trkpt>
      <trkpt lat="42.53298" lon="1.82187">
        <ele>1548</ele>
        <time>2022-08-28T15:50:11.000Z</time>
      </trkpt>
      <trkpt lat="42.53257" lon="1.82162">
        <ele>1546</ele>
        <time>2022-08-28T15:50:19.000Z</time>
      </trkpt>
      <trkpt lat="42.5323" lon="1.82154">
        <ele>1546</ele>
        <time>2022-08-28T15:50:24.000Z</time>
      </trkpt>
      <trkpt lat="42.53201" lon="1.82151">
        <ele>1547</ele>
        <time>2022-08-28T15:50:29.000Z</time>
      </trkpt>
      <trkpt lat="42.53139" lon="1.82167">
        <ele>1547</ele>
        <time>2022-08-28T15:50:41.000Z</time>
      </trkpt>
      <trkpt lat="42.53112" lon="1.82185">
        <ele>1548</ele>
        <time>2022-08-28T15:50:46.000Z</time>
      </trkpt>
      <trkpt lat="42.53067" lon="1.82229">
        <ele>1548</ele>
        <time>2022-08-28T15:50:56.000Z</time>
      </trkpt>
      <trkpt lat="42.5292" lon="1.82386">
        <ele>1538</ele>
        <time>2022-08-28T15:51:29.000Z</time>
      </trkpt>
      <trkpt lat="42.52883" lon="1.82414">
        <ele>1536</ele>
        <time>2022-08-28T15:51:37.000Z</time>
      </trkpt>
      <trkpt lat="42.52847" lon="1.82424">
        <ele>1530</ele>
        <time>2022-08-28T15:51:43.000Z</time>
      </trkpt>
      <trkpt lat="42.52792" lon="1.82424">
        <ele>1525</ele>
        <time>2022-08-28T15:51:53.000Z</time>
      </trkpt>
      <trkpt lat="42.52744" lon="1.82412">
        <ele>1520</ele>
        <time>2022-08-28T15:52:02.000Z</time>
      </trkpt>
      <trkpt lat="42.52683" lon="1.82355">
        <ele>1516</ele>
        <time>2022-08-28T15:52:15.000Z</time>
      </trkpt>
      <trkpt lat="42.52663" lon="1.8234">
        <ele>1516</ele>
        <time>2022-08-28T15:52:19.000Z</time>
      </trkpt>
      <trkpt lat="42.52613" lon="1.82317">
        <ele>1513</ele>
        <time>2022-08-28T15:52:29.000Z</time>
      </trkpt>
      <trkpt lat="42.52532" lon="1.82292">
        <ele>1511</ele>
        <time>2022-08-28T15:52:43.000Z</time>
      </trkpt>
      <trkpt lat="42.5245" lon="1.82272">
        <ele>1510</ele>
        <time>2022-08-28T15:52:58.000Z</time>
      </trkpt>
      <trkpt lat="42.52417" lon="1.82268">
        <ele>1510</ele>
        <time>2022-08-28T15:53:04.000Z</time>
      </trkpt>
      <trkpt lat="42.52287" lon="1.82287">
        <ele>1509</ele>
        <time>2022-08-28T15:53:27.000Z</time>
      </trkpt>
      <trkpt lat="42.52266" lon="1.82286">
        <ele>1508</ele>
        <time>2022-08-28T15:53:31.000Z</time>
      </trkpt>
      <trkpt lat="42.52192" lon="1.82267">
        <ele>1510</ele>
        <time>2022-08-28T15:53:44.000Z</time>
      </trkpt>
      <trkpt lat="42.52097" lon="1.82228">
        <ele>1507</ele>
        <time>2022-08-28T15:54:02.000Z</time>
      </trkpt>
      <trkpt lat="42.52072" lon="1.82227">
        <ele>1507</ele>
        <time>2022-08-28T15:54:07.000Z</time>
      </trkpt>
      <trkpt lat="42.52013" lon="1.82239">
        <ele>1508</ele>
        <time>2022-08-28T15:54:17.000Z</time>
      </trkpt>
      <trkpt lat="42.51898" lon="1.82276">
        <ele>1508</ele>
        <time>2022-08-28T15:54:38.000Z</time>
      </trkpt>
      <trkpt lat="42.5181" lon="1.82278">
        <ele>1504</ele>
        <time>2022-08-28T15:54:54.000Z</time>
      </trkpt>
      <trkpt lat="42.51767" lon="1.82295">
        <ele>1501</ele>
        <time>2022-08-28T15:55:02.000Z</time>
      </trkpt>
      <trkpt lat="42.5162" lon="1.82416">
        <ele>1489</ele>
        <time>2022-08-28T15:55:33.000Z</time>
      </trkpt>
      <trkpt lat="42.51579" lon="1.82439">
        <ele>1492</ele>
        <time>2022-08-28T15:55:41.000Z</time>
      </trkpt>
      <trkpt lat="42.51474" lon="1.82431">
        <ele>1483</ele>
        <time>2022-08-28T15:55:59.000Z</time>
      </trkpt>
      <trkpt lat="42.5144" lon="1.82417">
        <ele>1476</ele>
        <time>2022-08-28T15:56:06.000Z</time>
      </trkpt>
      <trkpt lat="42.51417" lon="1.82427">
        <ele>1475</ele>
        <time>2022-08-28T15:56:10.000Z</time>
      </trkpt>
      <trkpt lat="42.51368" lon="1.82468">
        <ele>1471</ele>
        <time>2022-08-28T15:56:20.000Z</time>
      </trkpt>
      <trkpt lat="42.51348" lon="1.82516">
        <ele>1469</ele>
        <time>2022-08-28T15:56:28.000Z</time>
      </trkpt>
      <trkpt lat="42.51337" lon="1.82536">
        <ele>1468</ele>
        <time>2022-08-28T15:56:31.000Z</time>
      </trkpt>
      <trkpt lat="42.51272" lon="1.82597">
        <ele>1462</ele>
        <time>2022-08-28T15:56:45.000Z</time>
      </trkpt>
      <trkpt lat="42.51255" lon="1.82616">
        <ele>1460</ele>
        <time>2022-08-28T15:56:49.000Z</time>
      </trkpt>
      <trkpt lat="42.51237" lon="1.82698">
        <ele>1462</ele>
        <time>2022-08-28T15:57:00.000Z</time>
      </trkpt>
      <trkpt lat="42.51229" lon="1.82713">
        <ele>1462</ele>
        <time>2022-08-28T15:57:03.000Z</time>
      </trkpt>
      <trkpt lat="42.51085" lon="1.82837">
        <ele>1446</ele>
        <time>2022-08-28T15:57:33.000Z</time>
      </trkpt>
      <trkpt lat="42.5106" lon="1.82864">
        <ele>1449</ele>
        <time>2022-08-28T15:57:39.000Z</time>
      </trkpt>
      <trkpt lat="42.50957" lon="1.83054">
        <ele>1445</ele>
        <time>2022-08-28T15:58:10.000Z</time>
      </trkpt>
      <trkpt lat="42.50875" lon="1.8315">
        <ele>1441</ele>
        <time>2022-08-28T15:58:29.000Z</time>
      </trkpt>
      <trkpt lat="42.50615" lon="1.83368">
        <ele>1439</ele>
        <time>2022-08-28T15:59:23.000Z</time>
      </trkpt>
      <trkpt lat="42.50597" lon="1.83383">
        <ele>1439</ele>
        <time>2022-08-28T15:59:27.000Z</time>
      </trkpt>
      <trkpt lat="42.504" lon="1.83533">
        <ele>1437</ele>
        <time>2022-08-28T16:00:07.000Z</time>
      </trkpt>
      <trkpt lat="42.50345" lon="1.83592">
        <ele>1434</ele>
        <time>2022-08-28T16:00:20.000Z</time>
      </trkpt>
      <trkpt lat="42.50293" lon="1.83579">
        <ele>1431</ele>
        <time>2022-08-28T16:00:30.000Z</time>
      </trkpt>
      <trkpt lat="42.5024" lon="1.83604">
        <ele>1428</ele>
        <time>2022-08-28T16:00:40.000Z</time>
      </trkpt>
      <trkpt lat="42.50084" lon="1.83728">
        <ele>1417</ele>
        <time>2022-08-28T16:01:12.000Z</time>
      </trkpt>
      <trkpt lat="42.4992" lon="1.83881">
        <ele>1408</ele>
        <time>2022-08-28T16:01:47.000Z</time>
      </trkpt>
      <trkpt lat="42.49906" lon="1.83902">
        <ele>1407</ele>
        <time>2022-08-28T16:01:51.000Z</time>
      </trkpt>
      <trkpt lat="42.499" lon="1.83921">
        <ele>1405</ele>
        <time>2022-08-28T16:01:54.000Z</time>
      </trkpt>
      <trkpt lat="42.49886" lon="1.84068">
        <ele>1399</ele>
        <time>2022-08-28T16:02:13.000Z</time>
      </trkpt>
      <trkpt lat="42.49876" lon="1.84118">
        <ele>1395</ele>
        <time>2022-08-28T16:02:20.000Z</time>
      </trkpt>
      <trkpt lat="42.49856" lon="1.84163">
        <ele>1392</ele>
        <time>2022-08-28T16:02:27.000Z</time>
      </trkpt>
      <trkpt lat="42.49842" lon="1.84188">
        <ele>1390</ele>
        <time>2022-08-28T16:02:31.000Z</time>
      </trkpt>
      <trkpt lat="42.49787" lon="1.84254">
        <ele>1389</ele>
        <time>2022-08-28T16:02:44.000Z</time>
      </trkpt>
      <trkpt lat="42.4978" lon="1.84267">
        <ele>1388</ele>
        <time>2022-08-28T16:02:46.000Z</time>
      </trkpt>
      <trkpt lat="42.49718" lon="1.84423">
        <ele>1381</ele>
        <time>2022-08-28T16:03:09.000Z</time>
      </trkpt>
      <trkpt lat="42.49676" lon="1.84562">
        <ele>1374</ele>
        <time>2022-08-28T16:03:29.000Z</time>
      </trkpt>
      <trkpt lat="42.49606" lon="1.84697">
        <ele>1369</ele>
        <time>2022-08-28T16:03:51.000Z</time>
      </trkpt>
      <trkpt lat="42.49607" lon="1.84744">
        <ele>1369</ele>
        <time>2022-08-28T16:03:57.000Z</time>
      </trkpt>
      <trkpt lat="42.496" lon="1.8476">
        <ele>1370</ele>
        <time>2022-08-28T16:03:59.000Z</time>
      </trkpt>
      <trkpt lat="42.49486" lon="1.8482">
        <ele>1363</ele>
        <time>2022-08-28T16:04:21.000Z</time>
      </trkpt>
      <trkpt lat="42.49476" lon="1.84831">
        <ele>1363</ele>
        <time>2022-08-28T16:04:23.000Z</time>
      </trkpt>
      <trkpt lat="42.49285" lon="1.85096">
        <ele>1351</ele>
        <time>2022-08-28T16:05:12.000Z</time>
      </trkpt>
      <trkpt lat="42.49232" lon="1.85191">
        <ele>1351</ele>
        <time>2022-08-28T16:05:28.000Z</time>
      </trkpt>
      <trkpt lat="42.49072" lon="1.85321">
        <ele>1345</ele>
        <time>2022-08-28T16:06:01.000Z</time>
      </trkpt>
      <trkpt lat="42.49047" lon="1.85344">
        <ele>1343</ele>
        <time>2022-08-28T16:06:06.000Z</time>
      </trkpt>
      <trkpt lat="42.48907" lon="1.8555">
        <ele>1340</ele>
        <time>2022-08-28T16:06:43.000Z</time>
      </trkpt>
      <trkpt lat="42.48842" lon="1.85622">
        <ele>1335</ele>
        <time>2022-08-28T16:06:58.000Z</time>
      </trkpt>
      <trkpt lat="42.48833" lon="1.85631">
        <ele>1333</ele>
        <time>2022-08-28T16:07:00.000Z</time>
      </trkpt>
      <trkpt lat="42.48812" lon="1.85643">
        <ele>1332</ele>
        <time>2022-08-28T16:07:04.000Z</time>
      </trkpt>
      <trkpt lat="42.48689" lon="1.85672">
        <ele>1323</ele>
        <time>2022-08-28T16:07:26.000Z</time>
      </trkpt>
      <trkpt lat="42.48676" lon="1.85679">
        <ele>1323</ele>
        <time>2022-08-28T16:07:29.000Z</time>
      </trkpt>
      <trkpt lat="42.48667" lon="1.8569">
        <ele>1323</ele>
        <time>2022-08-28T16:07:31.000Z</time>
      </trkpt>
      <trkpt lat="42.48662" lon="1.85704">
        <ele>1323</ele>
        <time>2022-08-28T16:07:33.000Z</time>
      </trkpt>
      <trkpt lat="42.48654" lon="1.85772">
        <ele>1324</ele>
        <time>2022-08-28T16:07:42.000Z</time>
      </trkpt>
      <trkpt lat="42.48639" lon="1.85809">
        <ele>1323</ele>
        <time>2022-08-28T16:07:48.000Z</time>
      </trkpt>
      <trkpt lat="42.48605" lon="1.85848">
        <ele>1319</ele>
        <time>2022-08-28T16:07:55.000Z</time>
      </trkpt>
      <trkpt lat="42.48565" lon="1.85886">
        <ele>1317</ele>
        <time>2022-08-28T16:08:04.000Z</time>
      </trkpt>
      <trkpt lat="42.48479" lon="1.85954">
        <ele>1313</ele>
        <time>2022-08-28T16:08:22.000Z</time>
      </trkpt>
      <trkpt lat="42.48393" lon="1.86003">
        <ele>1308</ele>
        <time>2022-08-28T16:08:39.000Z</time>
      </trkpt>
      <trkpt lat="42.48378" lon="1.86018">
        <ele>1308</ele>
        <time>2022-08-28T16:08:42.000Z</time>
      </trkpt>
      <trkpt lat="42.48318" lon="1.86098">
        <ele>1306</ele>
        <time>2022-08-28T16:08:57.000Z</time>
      </trkpt>
      <trkpt lat="42.48256" lon="1.86161">
        <ele>1300</ele>
        <time>2022-08-28T16:09:11.000Z</time>
      </trkpt>
      <trkpt lat="42.48215" lon="1.86249">
        <ele>1304</ele>
        <time>2022-08-28T16:09:24.000Z</time>
      </trkpt>
      <trkpt lat="42.48204" lon="1.86263">
        <ele>1306</ele>
        <time>2022-08-28T16:09:27.000Z</time>
      </trkpt>
      <trkpt lat="42.4819" lon="1.86274">
        <ele>1306</ele>
        <time>2022-08-28T16:09:30.000Z</time>
      </trkpt>
      <trkpt lat="42.48108" lon="1.86306">
        <ele>1300</ele>
        <time>2022-08-28T16:09:45.000Z</time>
      </trkpt>
      <trkpt lat="42.48002" lon="1.86387">
        <ele>1292</ele>
        <time>2022-08-28T16:10:07.000Z</time>
      </trkpt>
      <trkpt lat="42.47973" lon="1.8642">
        <ele>1291</ele>
        <time>2022-08-28T16:10:13.000Z</time>
      </trkpt>
      <trkpt lat="42.4793" lon="1.86483">
        <ele>1291</ele>
        <time>2022-08-28T16:10:25.000Z</time>
      </trkpt>
      <trkpt lat="42.47868" lon="1.86622">
        <ele>1293</ele>
        <time>2022-08-28T16:10:46.000Z</time>
      </trkpt>
      <trkpt lat="42.47712" lon="1.86932">
        <ele>1281</ele>
        <time>2022-08-28T16:11:35.000Z</time>
      </trkpt>
      <trkpt lat="42.47689" lon="1.87031">
        <ele>1280</ele>
        <time>2022-08-28T16:11:49.000Z</time>
      </trkpt>
      <trkpt lat="42.47679" lon="1.87056">
        <ele>1280</ele>
        <time>2022-08-28T16:11:53.000Z</time>
      </trkpt>
      <trkpt lat="42.47467" lon="1.87465">
        <ele>1281</ele>
        <time>2022-08-28T16:12:58.000Z</time>
      </trkpt>
      <trkpt lat="42.4739" lon="1.8763">
        <ele>1284</ele>
        <time>2022-08-28T16:13:24.000Z</time>
      </trkpt>
      <trkpt lat="42.47308" lon="1.87872">
        <ele>1284</ele>
        <time>2022-08-28T16:13:59.000Z</time>
      </trkpt>
      <trkpt lat="42.47285" lon="1.87911">
        <ele>1281</ele>
        <time>2022-08-28T16:14:05.000Z</time>
      </trkpt>
      <trkpt lat="42.47125" lon="1.88153">
        <ele>1279</ele>
        <time>2022-08-28T16:14:48.000Z</time>
      </trkpt>
      <trkpt lat="42.47086" lon="1.88196">
        <ele>1277</ele>
        <time>2022-08-28T16:14:57.000Z</time>
      </trkpt>
      <trkpt lat="42.4706" lon="1.88215">
        <ele>1279</ele>
        <time>2022-08-28T16:15:02.000Z</time>
      </trkpt>
      <trkpt lat="42.47044" lon="1.88221">
        <ele>1278</ele>
        <time>2022-08-28T16:15:05.000Z</time>
      </trkpt>
      <trkpt lat="42.46964" lon="1.88218">
        <ele>1275</ele>
        <time>2022-08-28T16:15:20.000Z</time>
      </trkpt>
      <trkpt lat="42.46953" lon="1.88228">
        <ele>1275</ele>
        <time>2022-08-28T16:15:22.000Z</time>
      </trkpt>
      <trkpt lat="42.4681" lon="1.88398">
        <ele>1266</ele>
        <time>2022-08-28T16:15:56.000Z</time>
      </trkpt>
      <trkpt lat="42.46731" lon="1.88497">
        <ele>1262</ele>
        <time>2022-08-28T16:16:15.000Z</time>
      </trkpt>
      <trkpt lat="42.46688" lon="1.88563">
        <ele>1260</ele>
        <time>2022-08-28T16:16:27.000Z</time>
      </trkpt>
      <trkpt lat="42.46661" lon="1.88618">
        <ele>1259</ele>
        <time>2022-08-28T16:16:35.000Z</time>
      </trkpt>
      <trkpt lat="42.46512" lon="1.89052">
        <ele>1254</ele>
        <time>2022-08-28T16:17:38.000Z</time>
      </trkpt>
      <trkpt lat="42.46504" lon="1.89085">
        <ele>1252</ele>
        <time>2022-08-28T16:17:43.000Z</time>
      </trkpt>
      <trkpt lat="42.46502" lon="1.89108">
        <ele>1253</ele>
        <time>2022-08-28T16:17:46.000Z</time>
      </trkpt>
      <trkpt lat="42.46504" lon="1.89151">
        <ele>1254</ele>
        <time>2022-08-28T16:17:51.000Z</time>
      </trkpt>
      <trkpt lat="42.46533" lon="1.89318">
        <ele>1263</ele>
        <time>2022-08-28T16:18:14.000Z</time>
      </trkpt>
      <trkpt lat="42.46527" lon="1.89362">
        <ele>1265</ele>
        <time>2022-08-28T16:18:20.000Z</time>
      </trkpt>
      <trkpt lat="42.46506" lon="1.89415">
        <ele>1264</ele>
        <time>2022-08-28T16:18:28.000Z</time>
      </trkpt>
      <trkpt lat="42.46451" lon="1.89516">
        <ele>1261</ele>
        <time>2022-08-28T16:18:44.000Z</time>
      </trkpt>
      <trkpt lat="42.46433" lon="1.89626">
        <ele>1267</ele>
        <time>2022-08-28T16:18:59.000Z</time>
      </trkpt>
      <trkpt lat="42.46418" lon="1.89679">
        <ele>1266</ele>
        <time>2022-08-28T16:19:06.000Z</time>
      </trkpt>
      <trkpt lat="42.46356" lon="1.89837">
        <ele>1267</ele>
        <time>2022-08-28T16:19:30.000Z</time>
      </trkpt>
      <trkpt lat="42.46283" lon="1.90005">
        <ele>1271</ele>
        <time>2022-08-28T16:19:56.000Z</time>
      </trkpt>
      <trkpt lat="42.46274" lon="1.9003">
        <ele>1271</ele>
        <time>2022-08-28T16:19:59.000Z</time>
      </trkpt>
      <trkpt lat="42.46245" lon="1.90145">
        <ele>1273</ele>
        <time>2022-08-28T16:20:15.000Z</time>
      </trkpt>
      <trkpt lat="42.462" lon="1.90263">
        <ele>1271</ele>
        <time>2022-08-28T16:20:33.000Z</time>
      </trkpt>
      <trkpt lat="42.46187" lon="1.90309">
        <ele>1270</ele>
        <time>2022-08-28T16:20:39.000Z</time>
      </trkpt>
      <trkpt lat="42.46179" lon="1.90359">
        <ele>1269</ele>
        <time>2022-08-28T16:20:46.000Z</time>
      </trkpt>
      <trkpt lat="42.46181" lon="1.90394">
        <ele>1269</ele>
        <time>2022-08-28T16:20:50.000Z</time>
      </trkpt>
      <trkpt lat="42.46241" lon="1.90588">
        <ele>1275</ele>
        <time>2022-08-28T16:21:18.000Z</time>
      </trkpt>
      <trkpt lat="42.46247" lon="1.90617">
        <ele>1275</ele>
        <time>2022-08-28T16:21:22.000Z</time>
      </trkpt>
      <trkpt lat="42.46233" lon="1.90802">
        <ele>1274</ele>
        <time>2022-08-28T16:21:46.000Z</time>
      </trkpt>
      <trkpt lat="42.4619" lon="1.90988">
        <ele>1275</ele>
        <time>2022-08-28T16:22:12.000Z</time>
      </trkpt>
      <trkpt lat="42.46144" lon="1.91116">
        <ele>1272</ele>
        <time>2022-08-28T16:22:31.000Z</time>
      </trkpt>
      <trkpt lat="42.461" lon="1.91226">
        <ele>1269</ele>
        <time>2022-08-28T16:22:47.000Z</time>
      </trkpt>
      <trkpt lat="42.46074" lon="1.91348">
        <ele>1272</ele>
        <time>2022-08-28T16:23:04.000Z</time>
      </trkpt>
      <trkpt lat="42.46015" lon="1.91539">
        <ele>1265</ele>
        <time>2022-08-28T16:23:31.000Z</time>
      </trkpt>
      <trkpt lat="42.45992" lon="1.91673">
        <ele>1268</ele>
        <time>2022-08-28T16:23:49.000Z</time>
      </trkpt>
      <trkpt lat="42.45967" lon="1.91736">
        <ele>1266</ele>
        <time>2022-08-28T16:23:58.000Z</time>
      </trkpt>
      <trkpt lat="42.45951" lon="1.91782">
        <ele>1263</ele>
        <time>2022-08-28T16:24:05.000Z</time>
      </trkpt>
      <trkpt lat="42.45939" lon="1.91852">
        <ele>1263</ele>
        <time>2022-08-28T16:24:15.000Z</time>
      </trkpt>
      <trkpt lat="42.4593" lon="1.91887">
        <ele>1262</ele>
        <time>2022-08-28T16:24:19.000Z</time>
      </trkpt>
      <trkpt lat="42.45864" lon="1.92034">
        <ele>1260</ele>
        <time>2022-08-28T16:24:42.000Z</time>
      </trkpt>
      <trkpt lat="42.4584" lon="1.92094">
        <ele>1258</ele>
        <time>2022-08-28T16:24:51.000Z</time>
      </trkpt>
      <trkpt lat="42.45655" lon="1.92959">
        <ele>1249</ele>
        <time>2022-08-28T16:26:49.000Z</time>
      </trkpt>
      <trkpt lat="42.45581" lon="1.93245">
        <ele>1246</ele>
        <time>2022-08-28T16:27:29.000Z</time>
      </trkpt>
      <trkpt lat="42.45566" lon="1.93291">
        <ele>1245</ele>
        <time>2022-08-28T16:27:36.000Z</time>
      </trkpt>
      <trkpt lat="42.45556" lon="1.93312">
        <ele>1244</ele>
        <time>2022-08-28T16:27:39.000Z</time>
      </trkpt>
      <trkpt lat="42.45427" lon="1.93517">
        <ele>1237</ele>
        <time>2022-08-28T16:28:14.000Z</time>
      </trkpt>
      <trkpt lat="42.4542" lon="1.93544">
        <ele>1236</ele>
        <time>2022-08-28T16:28:18.000Z</time>
      </trkpt>
      <trkpt lat="42.45424" lon="1.93573">
        <ele>1235</ele>
        <time>2022-08-28T16:28:22.000Z</time>
      </trkpt>
      <trkpt lat="42.45443" lon="1.93605">
        <ele>1232</ele>
        <time>2022-08-28T16:28:27.000Z</time>
      </trkpt>
      <trkpt lat="42.45459" lon="1.93612">
        <ele>1231</ele>
        <time>2022-08-28T16:28:30.000Z</time>
      </trkpt>
      <trkpt lat="42.45494" lon="1.93614">
        <ele>1231</ele>
        <time>2022-08-28T16:28:37.000Z</time>
      </trkpt>
      <trkpt lat="42.45622" lon="1.93614">
        <ele>1226</ele>
        <time>2022-08-28T16:28:59.000Z</time>
      </trkpt>
      <trkpt lat="42.45741" lon="1.93582">
        <ele>1226</ele>
        <time>2022-08-28T16:29:21.000Z</time>
      </trkpt>
      <trkpt lat="42.45771" lon="1.93578">
        <ele>1225</ele>
        <time>2022-08-28T16:29:26.000Z</time>
      </trkpt>
      <trkpt lat="42.45839" lon="1.93578">
        <ele>1221</ele>
        <time>2022-08-28T16:29:38.000Z</time>
      </trkpt>
      <trkpt lat="42.45858" lon="1.9358">
        <ele>1221</ele>
        <time>2022-08-28T16:29:42.000Z</time>
      </trkpt>
      <trkpt lat="42.45911" lon="1.93602">
        <ele>1217</ele>
        <time>2022-08-28T16:29:52.000Z</time>
      </trkpt>
      <trkpt lat="42.46012" lon="1.93612">
        <ele>1213</ele>
        <time>2022-08-28T16:30:10.000Z</time>
      </trkpt>
      <trkpt lat="42.46088" lon="1.93621">
        <ele>1211</ele>
        <time>2022-08-28T16:30:23.000Z</time>
      </trkpt>
      <trkpt lat="42.46106" lon="1.93636">
        <ele>1209</ele>
        <time>2022-08-28T16:30:27.000Z</time>
      </trkpt>
      <trkpt lat="42.46135" lon="1.93678">
        <ele>1206</ele>
        <time>2022-08-28T16:30:35.000Z</time>
      </trkpt>
      <trkpt lat="42.46145" lon="1.93704">
        <ele>1205</ele>
        <time>2022-08-28T16:30:38.000Z</time>
      </trkpt>
      <trkpt lat="42.46148" lon="1.93728">
        <ele>1204</ele>
        <time>2022-08-28T16:30:42.000Z</time>
      </trkpt>
      <trkpt lat="42.46143" lon="1.93757">
        <ele>1203</ele>
        <time>2022-08-28T16:30:46.000Z</time>
      </trkpt>
      <trkpt lat="42.46107" lon="1.93813">
        <ele>1202</ele>
        <time>2022-08-28T16:30:55.000Z</time>
      </trkpt>
      <trkpt lat="42.45998" lon="1.93973">
        <ele>1198</ele>
        <time>2022-08-28T16:31:24.000Z</time>
      </trkpt>
      <trkpt lat="42.45981" lon="1.93988">
        <ele>1197</ele>
        <time>2022-08-28T16:31:27.000Z</time>
      </trkpt>
      <trkpt lat="42.45681" lon="1.94145">
        <ele>1191</ele>
        <time>2022-08-28T16:32:25.000Z</time>
      </trkpt>
      <trkpt lat="42.45445" lon="1.94315">
        <ele>1184</ele>
        <time>2022-08-28T16:33:12.000Z</time>
      </trkpt>
      <trkpt lat="42.45409" lon="1.94331">
        <ele>1184</ele>
        <time>2022-08-28T16:33:19.000Z</time>
      </trkpt>
      <trkpt lat="42.4513" lon="1.94426">
        <ele>1175</ele>
        <time>2022-08-28T16:34:10.000Z</time>
      </trkpt>
      <trkpt lat="42.45052" lon="1.94436">
        <ele>1173</ele>
        <time>2022-08-28T16:34:24.000Z</time>
      </trkpt>
      <trkpt lat="42.44957" lon="1.94435">
        <ele>1171</ele>
        <time>2022-08-28T16:34:41.000Z</time>
      </trkpt>
      <trkpt lat="42.44722" lon="1.9441">
        <ele>1164</ele>
        <time>2022-08-28T16:35:23.000Z</time>
      </trkpt>
      <trkpt lat="42.44616" lon="1.9441">
        <ele>1162</ele>
        <time>2022-08-28T16:35:42.000Z</time>
      </trkpt>
      <trkpt lat="42.44591" lon="1.94414">
        <ele>1161</ele>
        <time>2022-08-28T16:35:46.000Z</time>
      </trkpt>
      <trkpt lat="42.44404" lon="1.94428">
        <ele>1159</ele>
        <time>2022-08-28T16:36:20.000Z</time>
      </trkpt>
      <trkpt lat="42.43562" lon="1.94467">
        <ele>1144</ele>
        <time>2022-08-28T16:38:50.000Z</time>
      </trkpt>
      <trkpt lat="42.43542" lon="1.9447">
        <ele>1144</ele>
        <time>2022-08-28T16:38:53.000Z</time>
      </trkpt>
      <trkpt lat="42.43501" lon="1.94466">
        <ele>1145</ele>
        <time>2022-08-28T16:39:00.000Z</time>
      </trkpt>
      <trkpt lat="42.43477" lon="1.94459">
        <ele>1144</ele>
        <time>2022-08-28T16:39:05.000Z</time>
      </trkpt>
      <trkpt lat="42.43384" lon="1.94397">
        <ele>1143</ele>
        <time>2022-08-28T16:39:24.000Z</time>
      </trkpt>
      <trkpt lat="42.43381" lon="1.94392">
        <ele>1143</ele>
        <time>2022-08-28T16:39:25.000Z</time>
      </trkpt>
      <trkpt lat="42.43377" lon="1.94392">
        <ele>1143</ele>
        <time>2022-08-28T16:39:26.000Z</time>
      </trkpt>
      <trkpt lat="42.43373" lon="1.94395">
        <ele>1142</ele>
        <time>2022-08-28T16:39:26.000Z</time>
      </trkpt>
      <trkpt lat="42.43372" lon="1.94424">
        <ele>1143</ele>
        <time>2022-08-28T16:39:30.000Z</time>
      </trkpt>
      <trkpt lat="42.43331" lon="1.94538">
        <ele>1143</ele>
        <time>2022-08-28T16:39:47.000Z</time>
      </trkpt>
      <trkpt lat="42.4333" lon="1.94587">
        <ele>1144</ele>
        <time>2022-08-28T16:39:54.000Z</time>
      </trkpt>
      <trkpt lat="42.43375" lon="1.95149">
        <ele>1150</ele>
        <time>2022-08-28T16:41:08.000Z</time>
      </trkpt>
      <trkpt lat="42.43375" lon="1.95165">
        <ele>1150</ele>
        <time>2022-08-28T16:41:10.000Z</time>
      </trkpt>
      <trkpt lat="42.43346" lon="1.95408">
        <ele>1159</ele>
        <time>2022-08-28T16:41:42.000Z</time>
      </trkpt>
      <trkpt lat="42.43332" lon="1.95832">
        <ele>1173</ele>
        <time>2022-08-28T16:42:38.000Z</time>
      </trkpt>
      <trkpt lat="42.43334" lon="1.95866">
        <ele>1175</ele>
        <time>2022-08-28T16:42:42.000Z</time>
      </trkpt>
      <trkpt lat="42.43372" lon="1.96024">
        <ele>1184</ele>
        <time>2022-08-28T16:43:04.000Z</time>
      </trkpt>
      <trkpt lat="42.43578" lon="1.96881">
        <ele>1216</ele>
        <time>2022-08-28T16:45:03.000Z</time>
      </trkpt>
      <trkpt lat="42.4362" lon="1.97408">
        <ele>1230</ele>
        <time>2022-08-28T16:46:12.000Z</time>
      </trkpt>
      <trkpt lat="42.43736" lon="1.98616">
        <ele>1236</ele>
        <time>2022-08-28T16:48:52.000Z</time>
      </trkpt>
      <trkpt lat="42.43748" lon="1.9866">
        <ele>1232</ele>
        <time>2022-08-28T16:48:58.000Z</time>
      </trkpt>
      <trkpt lat="42.43766" lon="1.98693">
        <ele>1231</ele>
        <time>2022-08-28T16:49:04.000Z</time>
      </trkpt>
      <trkpt lat="42.43818" lon="1.98745">
        <ele>1233</ele>
        <time>2022-08-28T16:49:15.000Z</time>
      </trkpt>
      <trkpt lat="42.43846" lon="1.98779">
        <ele>1236</ele>
        <time>2022-08-28T16:49:22.000Z</time>
      </trkpt>
      <trkpt lat="42.43855" lon="1.98803">
        <ele>1238</ele>
        <time>2022-08-28T16:49:26.000Z</time>
      </trkpt>
      <trkpt lat="42.4386" lon="1.98834">
        <ele>1239</ele>
        <time>2022-08-28T16:49:30.000Z</time>
      </trkpt>
      <trkpt lat="42.43846" lon="1.98991">
        <ele>1246</ele>
        <time>2022-08-28T16:49:51.000Z</time>
      </trkpt>
      <trkpt lat="42.43899" lon="1.99391">
        <ele>1264</ele>
        <time>2022-08-28T16:50:44.000Z</time>
      </trkpt>
      <trkpt lat="42.43895" lon="2.00021">
        <ele>1286</ele>
        <time>2022-08-28T16:52:07.000Z</time>
      </trkpt>
      <trkpt lat="42.43899" lon="2.00061">
        <ele>1287</ele>
        <time>2022-08-28T16:52:12.000Z</time>
      </trkpt>
      <trkpt lat="42.43902" lon="2.00076">
        <ele>1288</ele>
        <time>2022-08-28T16:52:14.000Z</time>
      </trkpt>
      <trkpt lat="42.43922" lon="2.00131">
        <ele>1291</ele>
        <time>2022-08-28T16:52:22.000Z</time>
      </trkpt>
      <trkpt lat="42.44566" lon="2.01529">
        <ele>1334</ele>
        <time>2022-08-28T16:55:59.000Z</time>
      </trkpt>
      <trkpt lat="42.44574" lon="2.01571">
        <ele>1332</ele>
        <time>2022-08-28T16:56:04.000Z</time>
      </trkpt>
      <trkpt lat="42.4457" lon="2.01629">
        <ele>1329</ele>
        <time>2022-08-28T16:56:12.000Z</time>
      </trkpt>
      <trkpt lat="42.44527" lon="2.01756">
        <ele>1328</ele>
        <time>2022-08-28T16:56:30.000Z</time>
      </trkpt>
      <trkpt lat="42.44409" lon="2.01943">
        <ele>1324</ele>
        <time>2022-08-28T16:57:02.000Z</time>
      </trkpt>
      <trkpt lat="42.44395" lon="2.01975">
        <ele>1322</ele>
        <time>2022-08-28T16:57:07.000Z</time>
      </trkpt>
      <trkpt lat="42.4439" lon="2.02001">
        <ele>1320</ele>
        <time>2022-08-28T16:57:11.000Z</time>
      </trkpt>
      <trkpt lat="42.44391" lon="2.02044">
        <ele>1319</ele>
        <time>2022-08-28T16:57:17.000Z</time>
      </trkpt>
      <trkpt lat="42.44398" lon="2.0207">
        <ele>1318</ele>
        <time>2022-08-28T16:57:20.000Z</time>
      </trkpt>
      <trkpt lat="42.44527" lon="2.02308">
        <ele>1313</ele>
        <time>2022-08-28T16:57:59.000Z</time>
      </trkpt>
      <trkpt lat="42.44549" lon="2.02337">
        <ele>1313</ele>
        <time>2022-08-28T16:58:04.000Z</time>
      </trkpt>
      <trkpt lat="42.44569" lon="2.02354">
        <ele>1314</ele>
        <time>2022-08-28T16:58:09.000Z</time>
      </trkpt>
      <trkpt lat="42.44591" lon="2.02364">
        <ele>1316</ele>
        <time>2022-08-28T16:58:13.000Z</time>
      </trkpt>
      <trkpt lat="42.44613" lon="2.02368">
        <ele>1317</ele>
        <time>2022-08-28T16:58:17.000Z</time>
      </trkpt>
      <trkpt lat="42.44661" lon="2.02369">
        <ele>1318</ele>
        <time>2022-08-28T16:58:25.000Z</time>
      </trkpt>
      <trkpt lat="42.44694" lon="2.02384">
        <ele>1321</ele>
        <time>2022-08-28T16:58:32.000Z</time>
      </trkpt>
      <trkpt lat="42.44712" lon="2.024">
        <ele>1322</ele>
        <time>2022-08-28T16:58:35.000Z</time>
      </trkpt>
      <trkpt lat="42.4514" lon="2.02829">
        <ele>1320</ele>
        <time>2022-08-28T17:00:10.000Z</time>
      </trkpt>
      <trkpt lat="42.45199" lon="2.02891">
        <ele>1319</ele>
        <time>2022-08-28T17:00:23.000Z</time>
      </trkpt>
      <trkpt lat="42.45289" lon="2.0303">
        <ele>1319</ele>
        <time>2022-08-28T17:00:48.000Z</time>
      </trkpt>
      <trkpt lat="42.45329" lon="2.03118">
        <ele>1319</ele>
        <time>2022-08-28T17:01:01.000Z</time>
      </trkpt>
      <trkpt lat="42.45353" lon="2.03142">
        <ele>1320</ele>
        <time>2022-08-28T17:01:07.000Z</time>
      </trkpt>
      <trkpt lat="42.45418" lon="2.03175">
        <ele>1318</ele>
        <time>2022-08-28T17:01:19.000Z</time>
      </trkpt>
      <trkpt lat="42.45449" lon="2.032">
        <ele>1317</ele>
        <time>2022-08-28T17:01:25.000Z</time>
      </trkpt>
      <trkpt lat="42.45679" lon="2.03718">
        <ele>1307</ele>
        <time>2022-08-28T17:02:45.000Z</time>
      </trkpt>
      <trkpt lat="42.45712" lon="2.0379">
        <ele>1305</ele>
        <time>2022-08-28T17:02:56.000Z</time>
      </trkpt>
      <trkpt lat="42.45747" lon="2.03828">
        <ele>1304</ele>
        <time>2022-08-28T17:03:04.000Z</time>
      </trkpt>
      <trkpt lat="42.45831" lon="2.03865">
        <ele>1304</ele>
        <time>2022-08-28T17:03:20.000Z</time>
      </trkpt>
      <trkpt lat="42.45855" lon="2.03871">
        <ele>1305</ele>
        <time>2022-08-28T17:03:24.000Z</time>
      </trkpt>
      <trkpt lat="42.45929" lon="2.03865">
        <ele>1308</ele>
        <time>2022-08-28T17:03:37.000Z</time>
      </trkpt>
      <trkpt lat="42.45934" lon="2.03869">
        <ele>1309</ele>
        <time>2022-08-28T17:03:38.000Z</time>
      </trkpt>
      <trkpt lat="42.45948" lon="2.03965">
        <ele>1313</ele>
        <time>2022-08-28T17:03:51.000Z</time>
      </trkpt>
      <trkpt lat="42.45958" lon="2.04">
        <ele>1314</ele>
        <time>2022-08-28T17:03:56.000Z</time>
      </trkpt>
      <trkpt lat="42.46004" lon="2.04072">
        <ele>1320</ele>
        <time>2022-08-28T17:04:09.000Z</time>
      </trkpt>
      <trkpt lat="42.46112" lon="2.04159">
        <ele>1325</ele>
        <time>2022-08-28T17:04:31.000Z</time>
      </trkpt>
      <trkpt lat="42.46128" lon="2.04159">
        <ele>1325</ele>
        <time>2022-08-28T17:04:34.000Z</time>
      </trkpt>
      <trkpt lat="42.46135" lon="2.04156">
        <ele>1325</ele>
        <time>2022-08-28T17:04:35.000Z</time>
      </trkpt>
      <trkpt lat="42.46146" lon="2.04143">
        <ele>1325</ele>
        <time>2022-08-28T17:04:38.000Z</time>
      </trkpt>
      <trkpt lat="42.46158" lon="2.04116">
        <ele>1325</ele>
        <time>2022-08-28T17:04:42.000Z</time>
      </trkpt>
      <trkpt lat="42.46147" lon="2.04">
        <ele>1327</ele>
        <time>2022-08-28T17:04:57.000Z</time>
      </trkpt>
      <trkpt lat="42.46149" lon="2.03986">
        <ele>1327</ele>
        <time>2022-08-28T17:04:59.000Z</time>
      </trkpt>
      <trkpt lat="42.46185" lon="2.03927">
        <ele>1333</ele>
        <time>2022-08-28T17:05:09.000Z</time>
      </trkpt>
      <trkpt lat="42.46196" lon="2.03906">
        <ele>1335</ele>
        <time>2022-08-28T17:05:13.000Z</time>
      </trkpt>
      <trkpt lat="42.46216" lon="2.03804">
        <ele>1338</ele>
        <time>2022-08-28T17:05:27.000Z</time>
      </trkpt>
      <trkpt lat="42.46227" lon="2.0376">
        <ele>1340</ele>
        <time>2022-08-28T17:05:33.000Z</time>
      </trkpt>
      <trkpt lat="42.4628" lon="2.03632">
        <ele>1347</ele>
        <time>2022-08-28T17:05:52.000Z</time>
      </trkpt>
      <trkpt lat="42.46343" lon="2.03418">
        <ele>1356</ele>
        <time>2022-08-28T17:06:22.000Z</time>
      </trkpt>
      <trkpt lat="42.46354" lon="2.03402">
        <ele>1356</ele>
        <time>2022-08-28T17:06:25.000Z</time>
      </trkpt>
      <trkpt lat="42.46382" lon="2.03395">
        <ele>1357</ele>
        <time>2022-08-28T17:06:30.000Z</time>
      </trkpt>
      <trkpt lat="42.46445" lon="2.03399">
        <ele>1359</ele>
        <time>2022-08-28T17:06:41.000Z</time>
      </trkpt>
      <trkpt lat="42.46481" lon="2.03385">
        <ele>1356</ele>
        <time>2022-08-28T17:06:48.000Z</time>
      </trkpt>
      <trkpt lat="42.46489" lon="2.03386">
        <ele>1356</ele>
        <time>2022-08-28T17:06:50.000Z</time>
      </trkpt>
      <trkpt lat="42.46537" lon="2.03444">
        <ele>1368</ele>
        <time>2022-08-28T17:07:01.000Z</time>
      </trkpt>
      <trkpt lat="42.46576" lon="2.03445">
        <ele>1370</ele>
        <time>2022-08-28T17:07:08.000Z</time>
      </trkpt>
      <trkpt lat="42.46595" lon="2.03441">
        <ele>1371</ele>
        <time>2022-08-28T17:07:12.000Z</time>
      </trkpt>
      <trkpt lat="42.46653" lon="2.034">
        <ele>1368</ele>
        <time>2022-08-28T17:07:23.000Z</time>
      </trkpt>
      <trkpt lat="42.46672" lon="2.03395">
        <ele>1369</ele>
        <time>2022-08-28T17:07:27.000Z</time>
      </trkpt>
      <trkpt lat="42.46704" lon="2.03396">
        <ele>1372</ele>
        <time>2022-08-28T17:07:32.000Z</time>
      </trkpt>
      <trkpt lat="42.46733" lon="2.03377">
        <ele>1370</ele>
        <time>2022-08-28T17:07:38.000Z</time>
      </trkpt>
      <trkpt lat="42.46746" lon="2.03375">
        <ele>1371</ele>
        <time>2022-08-28T17:07:41.000Z</time>
      </trkpt>
      <trkpt lat="42.46763" lon="2.0339">
        <ele>1375</ele>
        <time>2022-08-28T17:07:44.000Z</time>
      </trkpt>
      <trkpt lat="42.46766" lon="2.03406">
        <ele>1378</ele>
        <time>2022-08-28T17:07:46.000Z</time>
      </trkpt>
      <trkpt lat="42.46772" lon="2.03517">
        <ele>1390</ele>
        <time>2022-08-28T17:08:01.000Z</time>
      </trkpt>
      <trkpt lat="42.46792" lon="2.03554">
        <ele>1392</ele>
        <time>2022-08-28T17:08:07.000Z</time>
      </trkpt>
      <trkpt lat="42.46807" lon="2.03558">
        <ele>1392</ele>
        <time>2022-08-28T17:08:10.000Z</time>
      </trkpt>
      <trkpt lat="42.46815" lon="2.03558">
        <ele>1392</ele>
        <time>2022-08-28T17:08:11.000Z</time>
      </trkpt>
      <trkpt lat="42.46855" lon="2.03535">
        <ele>1393</ele>
        <time>2022-08-28T17:08:19.000Z</time>
      </trkpt>
      <trkpt lat="42.46902" lon="2.03525">
        <ele>1397</ele>
        <time>2022-08-28T17:08:27.000Z</time>
      </trkpt>
      <trkpt lat="42.46928" lon="2.03513">
        <ele>1399</ele>
        <time>2022-08-28T17:08:32.000Z</time>
      </trkpt>
      <trkpt lat="42.46944" lon="2.03488">
        <ele>1399</ele>
        <time>2022-08-28T17:08:37.000Z</time>
      </trkpt>
      <trkpt lat="42.46963" lon="2.03436">
        <ele>1394</ele>
        <time>2022-08-28T17:08:44.000Z</time>
      </trkpt>
      <trkpt lat="42.46973" lon="2.03424">
        <ele>1394</ele>
        <time>2022-08-28T17:08:47.000Z</time>
      </trkpt>
      <trkpt lat="42.46991" lon="2.03422">
        <ele>1396</ele>
        <time>2022-08-28T17:08:50.000Z</time>
      </trkpt>
      <trkpt lat="42.46999" lon="2.03428">
        <ele>1397</ele>
        <time>2022-08-28T17:08:52.000Z</time>
      </trkpt>
      <trkpt lat="42.47016" lon="2.03491">
        <ele>1405</ele>
        <time>2022-08-28T17:09:01.000Z</time>
      </trkpt>
      <trkpt lat="42.47013" lon="2.03504">
        <ele>1407</ele>
        <time>2022-08-28T17:09:02.000Z</time>
      </trkpt>
      <trkpt lat="42.46916" lon="2.03738">
        <ele>1421</ele>
        <time>2022-08-28T17:09:38.000Z</time>
      </trkpt>
      <trkpt lat="42.46855" lon="2.03822">
        <ele>1422</ele>
        <time>2022-08-28T17:09:53.000Z</time>
      </trkpt>
      <trkpt lat="42.46841" lon="2.03856">
        <ele>1422</ele>
        <time>2022-08-28T17:09:58.000Z</time>
      </trkpt>
      <trkpt lat="42.46838" lon="2.0388">
        <ele>1423</ele>
        <time>2022-08-28T17:10:01.000Z</time>
      </trkpt>
      <trkpt lat="42.46845" lon="2.0397">
        <ele>1430</ele>
        <time>2022-08-28T17:10:13.000Z</time>
      </trkpt>
      <trkpt lat="42.46825" lon="2.04037">
        <ele>1430</ele>
        <time>2022-08-28T17:10:23.000Z</time>
      </trkpt>
      <trkpt lat="42.46821" lon="2.04073">
        <ele>1431</ele>
        <time>2022-08-28T17:10:28.000Z</time>
      </trkpt>
      <trkpt lat="42.46844" lon="2.04148">
        <ele>1438</ele>
        <time>2022-08-28T17:10:38.000Z</time>
      </trkpt>
      <trkpt lat="42.46853" lon="2.04193">
        <ele>1441</ele>
        <time>2022-08-28T17:10:44.000Z</time>
      </trkpt>
      <trkpt lat="42.46853" lon="2.04206">
        <ele>1441</ele>
        <time>2022-08-28T17:10:46.000Z</time>
      </trkpt>
      <trkpt lat="42.46842" lon="2.04285">
        <ele>1441</ele>
        <time>2022-08-28T17:10:57.000Z</time>
      </trkpt>
      <trkpt lat="42.46849" lon="2.04348">
        <ele>1443</ele>
        <time>2022-08-28T17:11:05.000Z</time>
      </trkpt>
      <trkpt lat="42.46858" lon="2.04377">
        <ele>1444</ele>
        <time>2022-08-28T17:11:09.000Z</time>
      </trkpt>
      <trkpt lat="42.46927" lon="2.04484">
        <ele>1453</ele>
        <time>2022-08-28T17:11:28.000Z</time>
      </trkpt>
      <trkpt lat="42.4696" lon="2.04542">
        <ele>1457</ele>
        <time>2022-08-28T17:11:38.000Z</time>
      </trkpt>
      <trkpt lat="42.46997" lon="2.0463">
        <ele>1462</ele>
        <time>2022-08-28T17:11:51.000Z</time>
      </trkpt>
      <trkpt lat="42.47016" lon="2.04698">
        <ele>1464</ele>
        <time>2022-08-28T17:12:00.000Z</time>
      </trkpt>
      <trkpt lat="42.47057" lon="2.05092">
        <ele>1483</ele>
        <time>2022-08-28T17:12:53.000Z</time>
      </trkpt>
      <trkpt lat="42.47172" lon="2.05349">
        <ele>1481</ele>
        <time>2022-08-28T17:13:32.000Z</time>
      </trkpt>
      <trkpt lat="42.47196" lon="2.05396">
        <ele>1481</ele>
        <time>2022-08-28T17:13:40.000Z</time>
      </trkpt>
      <trkpt lat="42.47244" lon="2.05441">
        <ele>1484</ele>
        <time>2022-08-28T17:13:50.000Z</time>
      </trkpt>
      <trkpt lat="42.47259" lon="2.05447">
        <ele>1484</ele>
        <time>2022-08-28T17:13:53.000Z</time>
      </trkpt>
      <trkpt lat="42.47607" lon="2.05473">
        <ele>1483</ele>
        <time>2022-08-28T17:14:55.000Z</time>
      </trkpt>
      <trkpt lat="42.47616" lon="2.05477">
        <ele>1482</ele>
        <time>2022-08-28T17:14:57.000Z</time>
      </trkpt>
      <trkpt lat="42.47631" lon="2.05488">
        <ele>1482</ele>
        <time>2022-08-28T17:15:00.000Z</time>
      </trkpt>
      <trkpt lat="42.4765" lon="2.05514">
        <ele>1483</ele>
        <time>2022-08-28T17:15:04.000Z</time>
      </trkpt>
      <trkpt lat="42.47703" lon="2.05624">
        <ele>1489</ele>
        <time>2022-08-28T17:15:22.000Z</time>
      </trkpt>
      <trkpt lat="42.47719" lon="2.05649">
        <ele>1489</ele>
        <time>2022-08-28T17:15:26.000Z</time>
      </trkpt>
      <trkpt lat="42.47757" lon="2.05676">
        <ele>1489</ele>
        <time>2022-08-28T17:15:34.000Z</time>
      </trkpt>
      <trkpt lat="42.47767" lon="2.05679">
        <ele>1489</ele>
        <time>2022-08-28T17:15:36.000Z</time>
      </trkpt>
      <trkpt lat="42.48048" lon="2.05672">
        <ele>1493</ele>
        <time>2022-08-28T17:16:26.000Z</time>
      </trkpt>
      <trkpt lat="42.48111" lon="2.05677">
        <ele>1491</ele>
        <time>2022-08-28T17:16:37.000Z</time>
      </trkpt>
      <trkpt lat="42.48142" lon="2.05687">
        <ele>1489</ele>
        <time>2022-08-28T17:16:42.000Z</time>
      </trkpt>
      <trkpt lat="42.48166" lon="2.05701">
        <ele>1487</ele>
        <time>2022-08-28T17:16:47.000Z</time>
      </trkpt>
      <trkpt lat="42.48251" lon="2.05786">
        <ele>1479</ele>
        <time>2022-08-28T17:17:06.000Z</time>
      </trkpt>
      <trkpt lat="42.48269" lon="2.05791">
        <ele>1479</ele>
        <time>2022-08-28T17:17:09.000Z</time>
      </trkpt>
      <trkpt lat="42.48288" lon="2.05788">
        <ele>1479</ele>
        <time>2022-08-28T17:17:13.000Z</time>
      </trkpt>
      <trkpt lat="42.48302" lon="2.05779">
        <ele>1478</ele>
        <time>2022-08-28T17:17:15.000Z</time>
      </trkpt>
      <trkpt lat="42.48342" lon="2.05724">
        <ele>1474</ele>
        <time>2022-08-28T17:17:26.000Z</time>
      </trkpt>
      <trkpt lat="42.48355" lon="2.05713">
        <ele>1472</ele>
        <time>2022-08-28T17:17:28.000Z</time>
      </trkpt>
      <trkpt lat="42.48362" lon="2.0571">
        <ele>1471</ele>
        <time>2022-08-28T17:17:30.000Z</time>
      </trkpt>
      <trkpt lat="42.4837" lon="2.05708">
        <ele>1470</ele>
        <time>2022-08-28T17:17:31.000Z</time>
      </trkpt>
      <trkpt lat="42.48406" lon="2.05718">
        <ele>1469</ele>
        <time>2022-08-28T17:17:38.000Z</time>
      </trkpt>
      <trkpt lat="42.48422" lon="2.05737">
        <ele>1469</ele>
        <time>2022-08-28T17:17:41.000Z</time>
      </trkpt>
      <trkpt lat="42.48431" lon="2.05767">
        <ele>1468</ele>
        <time>2022-08-28T17:17:46.000Z</time>
      </trkpt>
      <trkpt lat="42.48434" lon="2.05801">
        <ele>1468</ele>
        <time>2022-08-28T17:17:50.000Z</time>
      </trkpt>
      <trkpt lat="42.48432" lon="2.05837">
        <ele>1468</ele>
        <time>2022-08-28T17:17:55.000Z</time>
      </trkpt>
      <trkpt lat="42.48415" lon="2.05913">
        <ele>1469</ele>
        <time>2022-08-28T17:18:05.000Z</time>
      </trkpt>
      <trkpt lat="42.48417" lon="2.05928">
        <ele>1468</ele>
        <time>2022-08-28T17:18:07.000Z</time>
      </trkpt>
      <trkpt lat="42.4843" lon="2.05975">
        <ele>1467</ele>
        <time>2022-08-28T17:18:14.000Z</time>
      </trkpt>
      <trkpt lat="42.48422" lon="2.061">
        <ele>1471</ele>
        <time>2022-08-28T17:18:30.000Z</time>
      </trkpt>
      <trkpt lat="42.4843" lon="2.06127">
        <ele>1470</ele>
        <time>2022-08-28T17:18:34.000Z</time>
      </trkpt>
      <trkpt lat="42.48444" lon="2.06146">
        <ele>1469</ele>
        <time>2022-08-28T17:18:38.000Z</time>
      </trkpt>
      <trkpt lat="42.48478" lon="2.06162">
        <ele>1466</ele>
        <time>2022-08-28T17:18:44.000Z</time>
      </trkpt>
      <trkpt lat="42.48497" lon="2.06162">
        <ele>1465</ele>
        <time>2022-08-28T17:18:48.000Z</time>
      </trkpt>
      <trkpt lat="42.4851" lon="2.06154">
        <ele>1464</ele>
        <time>2022-08-28T17:18:50.000Z</time>
      </trkpt>
      <trkpt lat="42.48515" lon="2.06145">
        <ele>1464</ele>
        <time>2022-08-28T17:18:52.000Z</time>
      </trkpt>
      <trkpt lat="42.48531" lon="2.06097">
        <ele>1461</ele>
        <time>2022-08-28T17:18:58.000Z</time>
      </trkpt>
      <trkpt lat="42.48542" lon="2.06077">
        <ele>1460</ele>
        <time>2022-08-28T17:19:02.000Z</time>
      </trkpt>
      <trkpt lat="42.48571" lon="2.06074">
        <ele>1461</ele>
        <time>2022-08-28T17:19:07.000Z</time>
      </trkpt>
      <trkpt lat="42.48585" lon="2.06091">
        <ele>1464</ele>
        <time>2022-08-28T17:19:10.000Z</time>
      </trkpt>
      <trkpt lat="42.48596" lon="2.06123">
        <ele>1467</ele>
        <time>2022-08-28T17:19:15.000Z</time>
      </trkpt>
      <trkpt lat="42.48596" lon="2.06211">
        <ele>1474</ele>
        <time>2022-08-28T17:19:27.000Z</time>
      </trkpt>
      <trkpt lat="42.48598" lon="2.06228">
        <ele>1475</ele>
        <time>2022-08-28T17:19:29.000Z</time>
      </trkpt>
      <trkpt lat="42.48625" lon="2.06292">
        <ele>1480</ele>
        <time>2022-08-28T17:19:39.000Z</time>
      </trkpt>
      <trkpt lat="42.48638" lon="2.06375">
        <ele>1483</ele>
        <time>2022-08-28T17:19:50.000Z</time>
      </trkpt>
      <trkpt lat="42.48637" lon="2.06438">
        <ele>1487</ele>
        <time>2022-08-28T17:19:58.000Z</time>
      </trkpt>
      <trkpt lat="42.48663" lon="2.06515">
        <ele>1488</ele>
        <time>2022-08-28T17:20:09.000Z</time>
      </trkpt>
      <trkpt lat="42.48669" lon="2.06526">
        <ele>1489</ele>
        <time>2022-08-28T17:20:11.000Z</time>
      </trkpt>
      <trkpt lat="42.48713" lon="2.06576">
        <ele>1490</ele>
        <time>2022-08-28T17:20:21.000Z</time>
      </trkpt>
      <trkpt lat="42.48729" lon="2.06639">
        <ele>1490</ele>
        <time>2022-08-28T17:20:30.000Z</time>
      </trkpt>
      <trkpt lat="42.48737" lon="2.06664">
        <ele>1489</ele>
        <time>2022-08-28T17:20:33.000Z</time>
      </trkpt>
      <trkpt lat="42.48877" lon="2.06805">
        <ele>1498</ele>
        <time>2022-08-28T17:21:05.000Z</time>
      </trkpt>
      <trkpt lat="42.48895" lon="2.06832">
        <ele>1499</ele>
        <time>2022-08-28T17:21:09.000Z</time>
      </trkpt>
      <trkpt lat="42.4892" lon="2.06925">
        <ele>1498</ele>
        <time>2022-08-28T17:21:22.000Z</time>
      </trkpt>
      <trkpt lat="42.48973" lon="2.07008">
        <ele>1505</ele>
        <time>2022-08-28T17:21:37.000Z</time>
      </trkpt>
      <trkpt lat="42.48983" lon="2.07034">
        <ele>1505</ele>
        <time>2022-08-28T17:21:41.000Z</time>
      </trkpt>
      <trkpt lat="42.4899" lon="2.07167">
        <ele>1508</ele>
        <time>2022-08-28T17:21:58.000Z</time>
      </trkpt>
      <trkpt lat="42.48995" lon="2.07187">
        <ele>1508</ele>
        <time>2022-08-28T17:22:01.000Z</time>
      </trkpt>
      <trkpt lat="42.49003" lon="2.07208">
        <ele>1508</ele>
        <time>2022-08-28T17:22:04.000Z</time>
      </trkpt>
      <trkpt lat="42.49015" lon="2.07226">
        <ele>1510</ele>
        <time>2022-08-28T17:22:07.000Z</time>
      </trkpt>
      <trkpt lat="42.49052" lon="2.07266">
        <ele>1514</ele>
        <time>2022-08-28T17:22:16.000Z</time>
      </trkpt>
      <trkpt lat="42.49069" lon="2.07291">
        <ele>1515</ele>
        <time>2022-08-28T17:22:20.000Z</time>
      </trkpt>
      <trkpt lat="42.49153" lon="2.07582">
        <ele>1525</ele>
        <time>2022-08-28T17:23:01.000Z</time>
      </trkpt>
      <trkpt lat="42.49172" lon="2.07626">
        <ele>1527</ele>
        <time>2022-08-28T17:23:08.000Z</time>
      </trkpt>
      <trkpt lat="42.49223" lon="2.07679">
        <ele>1534</ele>
        <time>2022-08-28T17:23:19.000Z</time>
      </trkpt>
      <trkpt lat="42.49246" lon="2.07702">
        <ele>1534</ele>
        <time>2022-08-28T17:23:24.000Z</time>
      </trkpt>
      <trkpt lat="42.49265" lon="2.0773">
        <ele>1534</ele>
        <time>2022-08-28T17:23:29.000Z</time>
      </trkpt>
      <trkpt lat="42.49333" lon="2.07855">
        <ele>1535</ele>
        <time>2022-08-28T17:23:50.000Z</time>
      </trkpt>
      <trkpt lat="42.49404" lon="2.07925">
        <ele>1538</ele>
        <time>2022-08-28T17:24:05.000Z</time>
      </trkpt>
      <trkpt lat="42.49416" lon="2.07938">
        <ele>1538</ele>
        <time>2022-08-28T17:24:08.000Z</time>
      </trkpt>
      <trkpt lat="42.49437" lon="2.07971">
        <ele>1538</ele>
        <time>2022-08-28T17:24:14.000Z</time>
      </trkpt>
      <trkpt lat="42.49442" lon="2.07983">
        <ele>1538</ele>
        <time>2022-08-28T17:24:16.000Z</time>
      </trkpt>
      <trkpt lat="42.49457" lon="2.08057">
        <ele>1538</ele>
        <time>2022-08-28T17:24:26.000Z</time>
      </trkpt>
      <trkpt lat="42.49496" lon="2.08456">
        <ele>1553</ele>
        <time>2022-08-28T17:25:19.000Z</time>
      </trkpt>
      <trkpt lat="42.49496" lon="2.08611">
        <ele>1559</ele>
        <time>2022-08-28T17:25:39.000Z</time>
      </trkpt>
      <trkpt lat="42.49503" lon="2.08677">
        <ele>1561</ele>
        <time>2022-08-28T17:25:48.000Z</time>
      </trkpt>
      <trkpt lat="42.49596" lon="2.0904">
        <ele>1575</ele>
        <time>2022-08-28T17:26:38.000Z</time>
      </trkpt>
      <trkpt lat="42.49688" lon="2.09379">
        <ele>1580</ele>
        <time>2022-08-28T17:27:26.000Z</time>
      </trkpt>
      <trkpt lat="42.49706" lon="2.09406">
        <ele>1579</ele>
        <time>2022-08-28T17:27:30.000Z</time>
      </trkpt>
      <trkpt lat="42.49723" lon="2.09415">
        <ele>1578</ele>
        <time>2022-08-28T17:27:34.000Z</time>
      </trkpt>
      <trkpt lat="42.49741" lon="2.09418">
        <ele>1578</ele>
        <time>2022-08-28T17:27:37.000Z</time>
      </trkpt>
      <trkpt lat="42.4979" lon="2.09403">
        <ele>1577</ele>
        <time>2022-08-28T17:27:46.000Z</time>
      </trkpt>
      <trkpt lat="42.4982" lon="2.09403">
        <ele>1576</ele>
        <time>2022-08-28T17:27:51.000Z</time>
      </trkpt>
      <trkpt lat="42.49865" lon="2.09422">
        <ele>1575</ele>
        <time>2022-08-28T17:27:59.000Z</time>
      </trkpt>
      <trkpt lat="42.49895" lon="2.0945">
        <ele>1574</ele>
        <time>2022-08-28T17:28:06.000Z</time>
      </trkpt>
      <trkpt lat="42.49946" lon="2.09535">
        <ele>1575</ele>
        <time>2022-08-28T17:28:20.000Z</time>
      </trkpt>
      <trkpt lat="42.49962" lon="2.09571">
        <ele>1575</ele>
        <time>2022-08-28T17:28:26.000Z</time>
      </trkpt>
      <trkpt lat="42.49988" lon="2.09714">
        <ele>1575</ele>
        <time>2022-08-28T17:28:45.000Z</time>
      </trkpt>
      <trkpt lat="42.50004" lon="2.09751">
        <ele>1576</ele>
        <time>2022-08-28T17:28:51.000Z</time>
      </trkpt>
      <trkpt lat="42.5012" lon="2.09893">
        <ele>1577</ele>
        <time>2022-08-28T17:29:19.000Z</time>
      </trkpt>
      <trkpt lat="42.50134" lon="2.09907">
        <ele>1578</ele>
        <time>2022-08-28T17:29:22.000Z</time>
      </trkpt>
      <trkpt lat="42.50158" lon="2.09923">
        <ele>1578</ele>
        <time>2022-08-28T17:29:27.000Z</time>
      </trkpt>
      <trkpt lat="42.50263" lon="2.09955">
        <ele>1579</ele>
        <time>2022-08-28T17:29:46.000Z</time>
      </trkpt>
      <trkpt lat="42.50271" lon="2.0996">
        <ele>1579</ele>
        <time>2022-08-28T17:29:47.000Z</time>
      </trkpt>
      <trkpt lat="42.503" lon="2.0999">
        <ele>1580</ele>
        <time>2022-08-28T17:29:54.000Z</time>
      </trkpt>
      <trkpt lat="42.50336" lon="2.10063">
        <ele>1579</ele>
        <time>2022-08-28T17:30:05.000Z</time>
      </trkpt>
      <trkpt lat="42.50434" lon="2.103">
        <ele>1579</ele>
        <time>2022-08-28T17:30:41.000Z</time>
      </trkpt>
      <trkpt lat="42.50444" lon="2.10339">
        <ele>1579</ele>
        <time>2022-08-28T17:30:46.000Z</time>
      </trkpt>
      <trkpt lat="42.50452" lon="2.10448">
        <ele>1577</ele>
        <time>2022-08-28T17:31:01.000Z</time>
      </trkpt>
      <trkpt lat="42.50476" lon="2.10538">
        <ele>1578</ele>
        <time>2022-08-28T17:31:13.000Z</time>
      </trkpt>
      <trkpt lat="42.50483" lon="2.1058">
        <ele>1579</ele>
        <time>2022-08-28T17:31:19.000Z</time>
      </trkpt>
      <trkpt lat="42.50475" lon="2.10687">
        <ele>1577</ele>
        <time>2022-08-28T17:31:33.000Z</time>
      </trkpt>
      <trkpt lat="42.50474" lon="2.10721">
        <ele>1576</ele>
        <time>2022-08-28T17:31:38.000Z</time>
      </trkpt>
      <trkpt lat="42.50487" lon="2.10842">
        <ele>1576</ele>
        <time>2022-08-28T17:31:54.000Z</time>
      </trkpt>
      <trkpt lat="42.50486" lon="2.10969">
        <ele>1571</ele>
        <time>2022-08-28T17:32:10.000Z</time>
      </trkpt>
      <trkpt lat="42.50492" lon="2.10989">
        <ele>1571</ele>
        <time>2022-08-28T17:32:13.000Z</time>
      </trkpt>
      <trkpt lat="42.50531" lon="2.11054">
        <ele>1574</ele>
        <time>2022-08-28T17:32:24.000Z</time>
      </trkpt>
      <trkpt lat="42.50548" lon="2.11146">
        <ele>1574</ele>
        <time>2022-08-28T17:32:37.000Z</time>
      </trkpt>
      <trkpt lat="42.5056" lon="2.11174">
        <ele>1575</ele>
        <time>2022-08-28T17:32:41.000Z</time>
      </trkpt>
      <trkpt lat="42.50653" lon="2.11294">
        <ele>1579</ele>
        <time>2022-08-28T17:33:04.000Z</time>
      </trkpt>
      <trkpt lat="42.50667" lon="2.1132">
        <ele>1579</ele>
        <time>2022-08-28T17:33:08.000Z</time>
      </trkpt>
      <trkpt lat="42.50705" lon="2.11515">
        <ele>1576</ele>
        <time>2022-08-28T17:33:35.000Z</time>
      </trkpt>
      <trkpt lat="42.50705" lon="2.11526">
        <ele>1575</ele>
        <time>2022-08-28T17:33:36.000Z</time>
      </trkpt>
      <trkpt lat="42.50727" lon="2.11566">
        <ele>1576</ele>
        <time>2022-08-28T17:33:43.000Z</time>
      </trkpt>
      <trkpt lat="42.50728" lon="2.11574">
        <ele>1575</ele>
        <time>2022-08-28T17:33:44.000Z</time>
      </trkpt>
      <trkpt lat="42.5075" lon="2.11597">
        <ele>1576</ele>
        <time>2022-08-28T17:33:49.000Z</time>
      </trkpt>
      <trkpt lat="42.50767" lon="2.1161">
        <ele>1575</ele>
        <time>2022-08-28T17:33:52.000Z</time>
      </trkpt>
      <trkpt lat="42.50827" lon="2.11621">
        <ele>1575</ele>
        <time>2022-08-28T17:34:03.000Z</time>
      </trkpt>
      <trkpt lat="42.50852" lon="2.11629">
        <ele>1576</ele>
        <time>2022-08-28T17:34:08.000Z</time>
      </trkpt>
      <trkpt lat="42.50868" lon="2.11646">
        <ele>1577</ele>
        <time>2022-08-28T17:34:11.000Z</time>
      </trkpt>
      <trkpt lat="42.50877" lon="2.11668">
        <ele>1577</ele>
        <time>2022-08-28T17:34:15.000Z</time>
      </trkpt>
      <trkpt lat="42.50878" lon="2.11682">
        <ele>1578</ele>
        <time>2022-08-28T17:34:16.000Z</time>
      </trkpt>
      <trkpt lat="42.50873" lon="2.11708">
        <ele>1578</ele>
        <time>2022-08-28T17:34:20.000Z</time>
      </trkpt>
      <trkpt lat="42.50851" lon="2.11768">
        <ele>1575</ele>
        <time>2022-08-28T17:34:29.000Z</time>
      </trkpt>
      <trkpt lat="42.50835" lon="2.11804">
        <ele>1575</ele>
        <time>2022-08-28T17:34:34.000Z</time>
      </trkpt>
      <trkpt lat="42.50803" lon="2.11848">
        <ele>1573</ele>
        <time>2022-08-28T17:34:42.000Z</time>
      </trkpt>
      <trkpt lat="42.50778" lon="2.11876">
        <ele>1571</ele>
        <time>2022-08-28T17:34:48.000Z</time>
      </trkpt>
      <trkpt lat="42.50757" lon="2.11952">
        <ele>1570</ele>
        <time>2022-08-28T17:34:59.000Z</time>
      </trkpt>
      <trkpt lat="42.50742" lon="2.11988">
        <ele>1568</ele>
        <time>2022-08-28T17:35:04.000Z</time>
      </trkpt>
      <trkpt lat="42.50688" lon="2.1206">
        <ele>1564</ele>
        <time>2022-08-28T17:35:18.000Z</time>
      </trkpt>
      <trkpt lat="42.50674" lon="2.12083">
        <ele>1564</ele>
        <time>2022-08-28T17:35:22.000Z</time>
      </trkpt>
      <trkpt lat="42.50668" lon="2.12109">
        <ele>1564</ele>
        <time>2022-08-28T17:35:25.000Z</time>
      </trkpt>
      <trkpt lat="42.50668" lon="2.12124">
        <ele>1564</ele>
        <time>2022-08-28T17:35:27.000Z</time>
      </trkpt>
      <trkpt lat="42.50677" lon="2.12254">
        <ele>1567</ele>
        <time>2022-08-28T17:35:44.000Z</time>
      </trkpt>
      <trkpt lat="42.5068" lon="2.12267">
        <ele>1566</ele>
        <time>2022-08-28T17:35:46.000Z</time>
      </trkpt>
      <trkpt lat="42.5069" lon="2.12284">
        <ele>1567</ele>
        <time>2022-08-28T17:35:49.000Z</time>
      </trkpt>
      <trkpt lat="42.50715" lon="2.1231">
        <ele>1568</ele>
        <time>2022-08-28T17:35:55.000Z</time>
      </trkpt>
      <trkpt lat="42.50744" lon="2.1239">
        <ele>1565</ele>
        <time>2022-08-28T17:36:06.000Z</time>
      </trkpt>
      <trkpt lat="42.50753" lon="2.12406">
        <ele>1565</ele>
        <time>2022-08-28T17:36:09.000Z</time>
      </trkpt>
      <trkpt lat="42.5082" lon="2.12474">
        <ele>1562</ele>
        <time>2022-08-28T17:36:24.000Z</time>
      </trkpt>
      <trkpt lat="42.50862" lon="2.12502">
        <ele>1556</ele>
        <time>2022-08-28T17:36:32.000Z</time>
      </trkpt>
      <trkpt lat="42.50903" lon="2.12571">
        <ele>1546</ele>
        <time>2022-08-28T17:36:44.000Z</time>
      </trkpt>
      <trkpt lat="42.50913" lon="2.12576">
        <ele>1544</ele>
        <time>2022-08-28T17:36:46.000Z</time>
      </trkpt>
      <trkpt lat="42.50926" lon="2.12573">
        <ele>1540</ele>
        <time>2022-08-28T17:36:48.000Z</time>
      </trkpt>
      <trkpt lat="42.50934" lon="2.1256">
        <ele>1538</ele>
        <time>2022-08-28T17:36:50.000Z</time>
      </trkpt>
      <trkpt lat="42.50935" lon="2.12538">
        <ele>1540</ele>
        <time>2022-08-28T17:36:53.000Z</time>
      </trkpt>
      <trkpt lat="42.50929" lon="2.12471">
        <ele>1549</ele>
        <time>2022-08-28T17:37:02.000Z</time>
      </trkpt>
      <trkpt lat="42.50956" lon="2.12412">
        <ele>1546</ele>
        <time>2022-08-28T17:37:11.000Z</time>
      </trkpt>
      <trkpt lat="42.51023" lon="2.12319">
        <ele>1550</ele>
        <time>2022-08-28T17:37:28.000Z</time>
      </trkpt>
      <trkpt lat="42.51081" lon="2.12324">
        <ele>1538</ele>
        <time>2022-08-28T17:37:39.000Z</time>
      </trkpt>
      <trkpt lat="42.51091" lon="2.12324">
        <ele>1537</ele>
        <time>2022-08-28T17:37:41.000Z</time>
      </trkpt>
      <trkpt lat="42.51164" lon="2.12251">
        <ele>1539</ele>
        <time>2022-08-28T17:37:57.000Z</time>
      </trkpt>
      <trkpt lat="42.51175" lon="2.12248">
        <ele>1539</ele>
        <time>2022-08-28T17:37:59.000Z</time>
      </trkpt>
      <trkpt lat="42.51217" lon="2.12279">
        <ele>1542</ele>
        <time>2022-08-28T17:38:07.000Z</time>
      </trkpt>
      <trkpt lat="42.51223" lon="2.12292">
        <ele>1543</ele>
        <time>2022-08-28T17:38:09.000Z</time>
      </trkpt>
      <trkpt lat="42.51212" lon="2.12358">
        <ele>1540</ele>
        <time>2022-08-28T17:38:19.000Z</time>
      </trkpt>
      <trkpt lat="42.51202" lon="2.12379">
        <ele>1539</ele>
        <time>2022-08-28T17:38:22.000Z</time>
      </trkpt>
      <trkpt lat="42.51113" lon="2.1244">
        <ele>1524</ele>
        <time>2022-08-28T17:38:40.000Z</time>
      </trkpt>
      <trkpt lat="42.511" lon="2.1246">
        <ele>1521</ele>
        <time>2022-08-28T17:38:43.000Z</time>
      </trkpt>
      <trkpt lat="42.51096" lon="2.12483">
        <ele>1521</ele>
        <time>2022-08-28T17:38:46.000Z</time>
      </trkpt>
      <trkpt lat="42.51096" lon="2.12501">
        <ele>1521</ele>
        <time>2022-08-28T17:38:49.000Z</time>
      </trkpt>
      <trkpt lat="42.51128" lon="2.12628">
        <ele>1527</ele>
        <time>2022-08-28T17:39:06.000Z</time>
      </trkpt>
      <trkpt lat="42.51131" lon="2.12662">
        <ele>1526</ele>
        <time>2022-08-28T17:39:11.000Z</time>
      </trkpt>
      <trkpt lat="42.51102" lon="2.1278">
        <ele>1515</ele>
        <time>2022-08-28T17:39:27.000Z</time>
      </trkpt>
      <trkpt lat="42.51087" lon="2.12819">
        <ele>1510</ele>
        <time>2022-08-28T17:39:33.000Z</time>
      </trkpt>
      <trkpt lat="42.51087" lon="2.12877">
        <ele>1517</ele>
        <time>2022-08-28T17:39:41.000Z</time>
      </trkpt>
      <trkpt lat="42.51084" lon="2.12891">
        <ele>1518</ele>
        <time>2022-08-28T17:39:42.000Z</time>
      </trkpt>
      <trkpt lat="42.51074" lon="2.12903">
        <ele>1518</ele>
        <time>2022-08-28T17:39:45.000Z</time>
      </trkpt>
      <trkpt lat="42.51042" lon="2.12924">
        <ele>1516</ele>
        <time>2022-08-28T17:39:51.000Z</time>
      </trkpt>
      <trkpt lat="42.5101" lon="2.12924">
        <ele>1511</ele>
        <time>2022-08-28T17:39:57.000Z</time>
      </trkpt>
      <trkpt lat="42.50993" lon="2.1293">
        <ele>1509</ele>
        <time>2022-08-28T17:40:00.000Z</time>
      </trkpt>
      <trkpt lat="42.50909" lon="2.13014">
        <ele>1510</ele>
        <time>2022-08-28T17:40:19.000Z</time>
      </trkpt>
      <trkpt lat="42.50898" lon="2.13022">
        <ele>1510</ele>
        <time>2022-08-28T17:40:21.000Z</time>
      </trkpt>
      <trkpt lat="42.50818" lon="2.13032">
        <ele>1498</ele>
        <time>2022-08-28T17:40:35.000Z</time>
      </trkpt>
      <trkpt lat="42.50775" lon="2.13066">
        <ele>1500</ele>
        <time>2022-08-28T17:40:44.000Z</time>
      </trkpt>
      <trkpt lat="42.50741" lon="2.13085">
        <ele>1497</ele>
        <time>2022-08-28T17:40:51.000Z</time>
      </trkpt>
      <trkpt lat="42.50729" lon="2.13159">
        <ele>1499</ele>
        <time>2022-08-28T17:41:01.000Z</time>
      </trkpt>
      <trkpt lat="42.50708" lon="2.13242">
        <ele>1495</ele>
        <time>2022-08-28T17:41:12.000Z</time>
      </trkpt>
      <trkpt lat="42.50711" lon="2.13345">
        <ele>1492</ele>
        <time>2022-08-28T17:41:26.000Z</time>
      </trkpt>
      <trkpt lat="42.50706" lon="2.13371">
        <ele>1492</ele>
        <time>2022-08-28T17:41:29.000Z</time>
      </trkpt>
      <trkpt lat="42.50622" lon="2.13458">
        <ele>1474</ele>
        <time>2022-08-28T17:41:48.000Z</time>
      </trkpt>
      <trkpt lat="42.50614" lon="2.13487">
        <ele>1474</ele>
        <time>2022-08-28T17:41:52.000Z</time>
      </trkpt>
      <trkpt lat="42.5062" lon="2.13515">
        <ele>1473</ele>
        <time>2022-08-28T17:41:56.000Z</time>
      </trkpt>
      <trkpt lat="42.50634" lon="2.13534">
        <ele>1473</ele>
        <time>2022-08-28T17:42:00.000Z</time>
      </trkpt>
      <trkpt lat="42.50708" lon="2.1358">
        <ele>1480</ele>
        <time>2022-08-28T17:42:14.000Z</time>
      </trkpt>
      <trkpt lat="42.50755" lon="2.13622">
        <ele>1479</ele>
        <time>2022-08-28T17:42:24.000Z</time>
      </trkpt>
      <trkpt lat="42.50783" lon="2.13695">
        <ele>1468</ele>
        <time>2022-08-28T17:42:35.000Z</time>
      </trkpt>
      <trkpt lat="42.50793" lon="2.13719">
        <ele>1464</ele>
        <time>2022-08-28T17:42:39.000Z</time>
      </trkpt>
      <trkpt lat="42.50868" lon="2.13777">
        <ele>1475</ele>
        <time>2022-08-28T17:42:54.000Z</time>
      </trkpt>
      <trkpt lat="42.50874" lon="2.13794">
        <ele>1475</ele>
        <time>2022-08-28T17:42:57.000Z</time>
      </trkpt>
      <trkpt lat="42.50874" lon="2.13805">
        <ele>1473</ele>
        <time>2022-08-28T17:42:58.000Z</time>
      </trkpt>
      <trkpt lat="42.50869" lon="2.13822">
        <ele>1469</ele>
        <time>2022-08-28T17:43:01.000Z</time>
      </trkpt>
      <trkpt lat="42.50853" lon="2.13846">
        <ele>1460</ele>
        <time>2022-08-28T17:43:05.000Z</time>
      </trkpt>
      <trkpt lat="42.50842" lon="2.13887">
        <ele>1455</ele>
        <time>2022-08-28T17:43:11.000Z</time>
      </trkpt>
      <trkpt lat="42.50841" lon="2.13926">
        <ele>1454</ele>
        <time>2022-08-28T17:43:16.000Z</time>
      </trkpt>
      <trkpt lat="42.50846" lon="2.14043">
        <ele>1453</ele>
        <time>2022-08-28T17:43:31.000Z</time>
      </trkpt>
      <trkpt lat="42.50832" lon="2.14162">
        <ele>1449</ele>
        <time>2022-08-28T17:43:47.000Z</time>
      </trkpt>
      <trkpt lat="42.5082" lon="2.14211">
        <ele>1447</ele>
        <time>2022-08-28T17:43:54.000Z</time>
      </trkpt>
      <trkpt lat="42.50812" lon="2.14233">
        <ele>1445</ele>
        <time>2022-08-28T17:43:57.000Z</time>
      </trkpt>
      <trkpt lat="42.50794" lon="2.1427">
        <ele>1440</ele>
        <time>2022-08-28T17:44:03.000Z</time>
      </trkpt>
      <trkpt lat="42.50659" lon="2.14442">
        <ele>1403</ele>
        <time>2022-08-28T17:44:36.000Z</time>
      </trkpt>
      <trkpt lat="42.50658" lon="2.14451">
        <ele>1401</ele>
        <time>2022-08-28T17:44:37.000Z</time>
      </trkpt>
      <trkpt lat="42.50664" lon="2.14472">
        <ele>1399</ele>
        <time>2022-08-28T17:44:40.000Z</time>
      </trkpt>
      <trkpt lat="42.50676" lon="2.14482">
        <ele>1398</ele>
        <time>2022-08-28T17:44:43.000Z</time>
      </trkpt>
      <trkpt lat="42.50684" lon="2.14484">
        <ele>1399</ele>
        <time>2022-08-28T17:44:44.000Z</time>
      </trkpt>
      <trkpt lat="42.50724" lon="2.14482">
        <ele>1405</ele>
        <time>2022-08-28T17:44:51.000Z</time>
      </trkpt>
      <trkpt lat="42.50808" lon="2.14503">
        <ele>1422</ele>
        <time>2022-08-28T17:45:06.000Z</time>
      </trkpt>
      <trkpt lat="42.50818" lon="2.14516">
        <ele>1424</ele>
        <time>2022-08-28T17:45:09.000Z</time>
      </trkpt>
      <trkpt lat="42.50822" lon="2.14533">
        <ele>1424</ele>
        <time>2022-08-28T17:45:11.000Z</time>
      </trkpt>
      <trkpt lat="42.5082" lon="2.14552">
        <ele>1420</ele>
        <time>2022-08-28T17:45:14.000Z</time>
      </trkpt>
      <trkpt lat="42.5078" lon="2.14633">
        <ele>1396</ele>
        <time>2022-08-28T17:45:27.000Z</time>
      </trkpt>
      <trkpt lat="42.5077" lon="2.14696">
        <ele>1388</ele>
        <time>2022-08-28T17:45:35.000Z</time>
      </trkpt>
      <trkpt lat="42.50774" lon="2.14735">
        <ele>1387</ele>
        <time>2022-08-28T17:45:40.000Z</time>
      </trkpt>
      <trkpt lat="42.50797" lon="2.14791">
        <ele>1391</ele>
        <time>2022-08-28T17:45:49.000Z</time>
      </trkpt>
      <trkpt lat="42.50807" lon="2.14829">
        <ele>1389</ele>
        <time>2022-08-28T17:45:54.000Z</time>
      </trkpt>
      <trkpt lat="42.50811" lon="2.14907">
        <ele>1378</ele>
        <time>2022-08-28T17:46:04.000Z</time>
      </trkpt>
      <trkpt lat="42.50814" lon="2.14918">
        <ele>1377</ele>
        <time>2022-08-28T17:46:06.000Z</time>
      </trkpt>
      <trkpt lat="42.50863" lon="2.14987">
        <ele>1380</ele>
        <time>2022-08-28T17:46:18.000Z</time>
      </trkpt>
      <trkpt lat="42.50879" lon="2.15035">
        <ele>1374</ele>
        <time>2022-08-28T17:46:25.000Z</time>
      </trkpt>
      <trkpt lat="42.50903" lon="2.15063">
        <ele>1377</ele>
        <time>2022-08-28T17:46:31.000Z</time>
      </trkpt>
      <trkpt lat="42.5091" lon="2.15078">
        <ele>1376</ele>
        <time>2022-08-28T17:46:33.000Z</time>
      </trkpt>
      <trkpt lat="42.5091" lon="2.15093">
        <ele>1376</ele>
        <time>2022-08-28T17:46:35.000Z</time>
      </trkpt>
      <trkpt lat="42.50903" lon="2.15112">
        <ele>1376</ele>
        <time>2022-08-28T17:46:38.000Z</time>
      </trkpt>
      <trkpt lat="42.50826" lon="2.152">
        <ele>1357</ele>
        <time>2022-08-28T17:46:56.000Z</time>
      </trkpt>
      <trkpt lat="42.50791" lon="2.15224">
        <ele>1346</ele>
        <time>2022-08-28T17:47:03.000Z</time>
      </trkpt>
      <trkpt lat="42.50774" lon="2.15256">
        <ele>1345</ele>
        <time>2022-08-28T17:47:08.000Z</time>
      </trkpt>
      <trkpt lat="42.5075" lon="2.1545">
        <ele>1336</ele>
        <time>2022-08-28T17:47:34.000Z</time>
      </trkpt>
      <trkpt lat="42.50757" lon="2.15526">
        <ele>1328</ele>
        <time>2022-08-28T17:47:44.000Z</time>
      </trkpt>
      <trkpt lat="42.50774" lon="2.15554">
        <ele>1323</ele>
        <time>2022-08-28T17:47:49.000Z</time>
      </trkpt>
      <trkpt lat="42.50813" lon="2.1558">
        <ele>1324</ele>
        <time>2022-08-28T17:47:57.000Z</time>
      </trkpt>
      <trkpt lat="42.50821" lon="2.15582">
        <ele>1326</ele>
        <time>2022-08-28T17:47:58.000Z</time>
      </trkpt>
      <trkpt lat="42.50853" lon="2.15572">
        <ele>1339</ele>
        <time>2022-08-28T17:48:04.000Z</time>
      </trkpt>
      <trkpt lat="42.50862" lon="2.15576">
        <ele>1341</ele>
        <time>2022-08-28T17:48:06.000Z</time>
      </trkpt>
      <trkpt lat="42.50873" lon="2.15617">
        <ele>1337</ele>
        <time>2022-08-28T17:48:12.000Z</time>
      </trkpt>
      <trkpt lat="42.50868" lon="2.15736">
        <ele>1321</ele>
        <time>2022-08-28T17:48:27.000Z</time>
      </trkpt>
      <trkpt lat="42.50861" lon="2.1575">
        <ele>1317</ele>
        <time>2022-08-28T17:48:29.000Z</time>
      </trkpt>
      <trkpt lat="42.50736" lon="2.15852">
        <ele>1302</ele>
        <time>2022-08-28T17:48:55.000Z</time>
      </trkpt>
      <trkpt lat="42.50709" lon="2.15888">
        <ele>1297</ele>
        <time>2022-08-28T17:49:02.000Z</time>
      </trkpt>
      <trkpt lat="42.50703" lon="2.15893">
        <ele>1295</ele>
        <time>2022-08-28T17:49:03.000Z</time>
      </trkpt>
      <trkpt lat="42.5069" lon="2.15893">
        <ele>1290</ele>
        <time>2022-08-28T17:49:06.000Z</time>
      </trkpt>
      <trkpt lat="42.50675" lon="2.15878">
        <ele>1285</ele>
        <time>2022-08-28T17:49:09.000Z</time>
      </trkpt>
      <trkpt lat="42.50672" lon="2.15857">
        <ele>1284</ele>
        <time>2022-08-28T17:49:12.000Z</time>
      </trkpt>
      <trkpt lat="42.50677" lon="2.15843">
        <ele>1286</ele>
        <time>2022-08-28T17:49:14.000Z</time>
      </trkpt>
      <trkpt lat="42.50731" lon="2.15821">
        <ele>1296</ele>
        <time>2022-08-28T17:49:24.000Z</time>
      </trkpt>
      <trkpt lat="42.50744" lon="2.15808">
        <ele>1296</ele>
        <time>2022-08-28T17:49:27.000Z</time>
      </trkpt>
      <trkpt lat="42.508" lon="2.1569">
        <ele>1296</ele>
        <time>2022-08-28T17:49:45.000Z</time>
      </trkpt>
      <trkpt lat="42.508" lon="2.15678">
        <ele>1296</ele>
        <time>2022-08-28T17:49:47.000Z</time>
      </trkpt>
      <trkpt lat="42.50795" lon="2.15661">
        <ele>1295</ele>
        <time>2022-08-28T17:49:49.000Z</time>
      </trkpt>
      <trkpt lat="42.5078" lon="2.15646">
        <ele>1295</ele>
        <time>2022-08-28T17:49:53.000Z</time>
      </trkpt>
      <trkpt lat="42.50662" lon="2.15626">
        <ele>1264</ele>
        <time>2022-08-28T17:50:14.000Z</time>
      </trkpt>
      <trkpt lat="42.50653" lon="2.15609">
        <ele>1264</ele>
        <time>2022-08-28T17:50:17.000Z</time>
      </trkpt>
      <trkpt lat="42.50666" lon="2.15557">
        <ele>1274</ele>
        <time>2022-08-28T17:50:24.000Z</time>
      </trkpt>
      <trkpt lat="42.50667" lon="2.15538">
        <ele>1275</ele>
        <time>2022-08-28T17:50:27.000Z</time>
      </trkpt>
      <trkpt lat="42.50656" lon="2.15497">
        <ele>1268</ele>
        <time>2022-08-28T17:50:32.000Z</time>
      </trkpt>
      <trkpt lat="42.5065" lon="2.15458">
        <ele>1265</ele>
        <time>2022-08-28T17:50:38.000Z</time>
      </trkpt>
      <trkpt lat="42.50655" lon="2.15389">
        <ele>1270</ele>
        <time>2022-08-28T17:50:47.000Z</time>
      </trkpt>
      <trkpt lat="42.50652" lon="2.15376">
        <ele>1269</ele>
        <time>2022-08-28T17:50:48.000Z</time>
      </trkpt>
      <trkpt lat="42.5064" lon="2.15354">
        <ele>1263</ele>
        <time>2022-08-28T17:50:52.000Z</time>
      </trkpt>
      <trkpt lat="42.50639" lon="2.15313">
        <ele>1265</ele>
        <time>2022-08-28T17:50:57.000Z</time>
      </trkpt>
      <trkpt lat="42.50624" lon="2.15226">
        <ele>1258</ele>
        <time>2022-08-28T17:51:09.000Z</time>
      </trkpt>
      <trkpt lat="42.50625" lon="2.15197">
        <ele>1256</ele>
        <time>2022-08-28T17:51:13.000Z</time>
      </trkpt>
      <trkpt lat="42.50642" lon="2.15156">
        <ele>1262</ele>
        <time>2022-08-28T17:51:19.000Z</time>
      </trkpt>
      <trkpt lat="42.50642" lon="2.15145">
        <ele>1261</ele>
        <time>2022-08-28T17:51:21.000Z</time>
      </trkpt>
      <trkpt lat="42.50639" lon="2.15134">
        <ele>1260</ele>
        <time>2022-08-28T17:51:22.000Z</time>
      </trkpt>
      <trkpt lat="42.5063" lon="2.15127">
        <ele>1256</ele>
        <time>2022-08-28T17:51:24.000Z</time>
      </trkpt>
      <trkpt lat="42.50608" lon="2.15138">
        <ele>1247</ele>
        <time>2022-08-28T17:51:28.000Z</time>
      </trkpt>
      <trkpt lat="42.50606" lon="2.15144">
        <ele>1246</ele>
        <time>2022-08-28T17:51:29.000Z</time>
      </trkpt>
      <trkpt lat="42.50626" lon="2.1539">
        <ele>1252</ele>
        <time>2022-08-28T17:52:02.000Z</time>
      </trkpt>
      <trkpt lat="42.50621" lon="2.15528">
        <ele>1246</ele>
        <time>2022-08-28T17:52:20.000Z</time>
      </trkpt>
      <trkpt lat="42.50561" lon="2.15628">
        <ele>1227</ele>
        <time>2022-08-28T17:52:37.000Z</time>
      </trkpt>
      <trkpt lat="42.50556" lon="2.15641">
        <ele>1226</ele>
        <time>2022-08-28T17:52:39.000Z</time>
      </trkpt>
      <trkpt lat="42.50557" lon="2.15672">
        <ele>1229</ele>
        <time>2022-08-28T17:52:43.000Z</time>
      </trkpt>
      <trkpt lat="42.50561" lon="2.15688">
        <ele>1230</ele>
        <time>2022-08-28T17:52:45.000Z</time>
      </trkpt>
      <trkpt lat="42.50579" lon="2.15728">
        <ele>1235</ele>
        <time>2022-08-28T17:52:51.000Z</time>
      </trkpt>
      <trkpt lat="42.50577" lon="2.15746">
        <ele>1234</ele>
        <time>2022-08-28T17:52:54.000Z</time>
      </trkpt>
      <trkpt lat="42.50534" lon="2.15807">
        <ele>1225</ele>
        <time>2022-08-28T17:53:05.000Z</time>
      </trkpt>
      <trkpt lat="42.50531" lon="2.15828">
        <ele>1226</ele>
        <time>2022-08-28T17:53:08.000Z</time>
      </trkpt>
      <trkpt lat="42.50533" lon="2.15847">
        <ele>1223</ele>
        <time>2022-08-28T17:53:10.000Z</time>
      </trkpt>
      <trkpt lat="42.5054" lon="2.15865">
        <ele>1221</ele>
        <time>2022-08-28T17:53:13.000Z</time>
      </trkpt>
      <trkpt lat="42.50562" lon="2.15897">
        <ele>1224</ele>
        <time>2022-08-28T17:53:19.000Z</time>
      </trkpt>
      <trkpt lat="42.50602" lon="2.15965">
        <ele>1227</ele>
        <time>2022-08-28T17:53:30.000Z</time>
      </trkpt>
      <trkpt lat="42.50632" lon="2.16092">
        <ele>1215</ele>
        <time>2022-08-28T17:53:48.000Z</time>
      </trkpt>
      <trkpt lat="42.50624" lon="2.16178">
        <ele>1200</ele>
        <time>2022-08-28T17:53:59.000Z</time>
      </trkpt>
      <trkpt lat="42.50627" lon="2.16203">
        <ele>1198</ele>
        <time>2022-08-28T17:54:03.000Z</time>
      </trkpt>
      <trkpt lat="42.5066" lon="2.16238">
        <ele>1207</ele>
        <time>2022-08-28T17:54:10.000Z</time>
      </trkpt>
      <trkpt lat="42.50667" lon="2.16254">
        <ele>1209</ele>
        <time>2022-08-28T17:54:13.000Z</time>
      </trkpt>
      <trkpt lat="42.50667" lon="2.16265">
        <ele>1210</ele>
        <time>2022-08-28T17:54:14.000Z</time>
      </trkpt>
      <trkpt lat="42.50661" lon="2.16286">
        <ele>1209</ele>
        <time>2022-08-28T17:54:17.000Z</time>
      </trkpt>
      <trkpt lat="42.50618" lon="2.16317">
        <ele>1187</ele>
        <time>2022-08-28T17:54:26.000Z</time>
      </trkpt>
      <trkpt lat="42.50611" lon="2.16338">
        <ele>1183</ele>
        <time>2022-08-28T17:54:29.000Z</time>
      </trkpt>
      <trkpt lat="42.50607" lon="2.16368">
        <ele>1182</ele>
        <time>2022-08-28T17:54:33.000Z</time>
      </trkpt>
      <trkpt lat="42.50607" lon="2.16394">
        <ele>1183</ele>
        <time>2022-08-28T17:54:36.000Z</time>
      </trkpt>
      <trkpt lat="42.50615" lon="2.1645">
        <ele>1190</ele>
        <time>2022-08-28T17:54:44.000Z</time>
      </trkpt>
      <trkpt lat="42.50614" lon="2.16458">
        <ele>1189</ele>
        <time>2022-08-28T17:54:45.000Z</time>
      </trkpt>
      <trkpt lat="42.50588" lon="2.16519">
        <ele>1167</ele>
        <time>2022-08-28T17:54:54.000Z</time>
      </trkpt>
      <trkpt lat="42.50589" lon="2.16544">
        <ele>1166</ele>
        <time>2022-08-28T17:54:57.000Z</time>
      </trkpt>
      <trkpt lat="42.50624" lon="2.16605">
        <ele>1180</ele>
        <time>2022-08-28T17:55:08.000Z</time>
      </trkpt>
      <trkpt lat="42.50629" lon="2.16616">
        <ele>1181</ele>
        <time>2022-08-28T17:55:09.000Z</time>
      </trkpt>
      <trkpt lat="42.5065" lon="2.16713">
        <ele>1168</ele>
        <time>2022-08-28T17:55:23.000Z</time>
      </trkpt>
      <trkpt lat="42.50662" lon="2.1675">
        <ele>1162</ele>
        <time>2022-08-28T17:55:28.000Z</time>
      </trkpt>
      <trkpt lat="42.50675" lon="2.16771">
        <ele>1162</ele>
        <time>2022-08-28T17:55:31.000Z</time>
      </trkpt>
      <trkpt lat="42.50714" lon="2.16795">
        <ele>1174</ele>
        <time>2022-08-28T17:55:39.000Z</time>
      </trkpt>
      <trkpt lat="42.5072" lon="2.16814">
        <ele>1172</ele>
        <time>2022-08-28T17:55:42.000Z</time>
      </trkpt>
      <trkpt lat="42.50621" lon="2.17036">
        <ele>1138</ele>
        <time>2022-08-28T17:56:16.000Z</time>
      </trkpt>
      <trkpt lat="42.50618" lon="2.17049">
        <ele>1137</ele>
        <time>2022-08-28T17:56:18.000Z</time>
      </trkpt>
      <trkpt lat="42.5063" lon="2.17235">
        <ele>1134</ele>
        <time>2022-08-28T17:56:43.000Z</time>
      </trkpt>
      <trkpt lat="42.50638" lon="2.17285">
        <ele>1127</ele>
        <time>2022-08-28T17:56:49.000Z</time>
      </trkpt>
      <trkpt lat="42.50652" lon="2.17312">
        <ele>1127</ele>
        <time>2022-08-28T17:56:54.000Z</time>
      </trkpt>
      <trkpt lat="42.50687" lon="2.17361">
        <ele>1129</ele>
        <time>2022-08-28T17:57:03.000Z</time>
      </trkpt>
      <trkpt lat="42.50702" lon="2.17441">
        <ele>1106</ele>
        <time>2022-08-28T17:57:14.000Z</time>
      </trkpt>
      <trkpt lat="42.50709" lon="2.17457">
        <ele>1104</ele>
        <time>2022-08-28T17:57:16.000Z</time>
      </trkpt>
      <trkpt lat="42.50717" lon="2.17466">
        <ele>1104</ele>
        <time>2022-08-28T17:57:18.000Z</time>
      </trkpt>
      <trkpt lat="42.50724" lon="2.1747">
        <ele>1106</ele>
        <time>2022-08-28T17:57:19.000Z</time>
      </trkpt>
      <trkpt lat="42.50765" lon="2.17477">
        <ele>1118</ele>
        <time>2022-08-28T17:57:27.000Z</time>
      </trkpt>
      <trkpt lat="42.50789" lon="2.17489">
        <ele>1118</ele>
        <time>2022-08-28T17:57:31.000Z</time>
      </trkpt>
      <trkpt lat="42.50828" lon="2.17562">
        <ele>1098</ele>
        <time>2022-08-28T17:57:43.000Z</time>
      </trkpt>
      <trkpt lat="42.5084" lon="2.17572">
        <ele>1095</ele>
        <time>2022-08-28T17:57:46.000Z</time>
      </trkpt>
      <trkpt lat="42.50852" lon="2.17573">
        <ele>1094</ele>
        <time>2022-08-28T17:57:48.000Z</time>
      </trkpt>
      <trkpt lat="42.50864" lon="2.17568">
        <ele>1095</ele>
        <time>2022-08-28T17:57:50.000Z</time>
      </trkpt>
      <trkpt lat="42.50894" lon="2.17535">
        <ele>1111</ele>
        <time>2022-08-28T17:57:57.000Z</time>
      </trkpt>
      <trkpt lat="42.50904" lon="2.17533">
        <ele>1112</ele>
        <time>2022-08-28T17:57:59.000Z</time>
      </trkpt>
      <trkpt lat="42.50928" lon="2.17566">
        <ele>1095</ele>
        <time>2022-08-28T17:58:05.000Z</time>
      </trkpt>
      <trkpt lat="42.50937" lon="2.17575">
        <ele>1091</ele>
        <time>2022-08-28T17:58:07.000Z</time>
      </trkpt>
      <trkpt lat="42.51008" lon="2.17587">
        <ele>1094</ele>
        <time>2022-08-28T17:58:20.000Z</time>
      </trkpt>
      <trkpt lat="42.51036" lon="2.17593">
        <ele>1099</ele>
        <time>2022-08-28T17:58:25.000Z</time>
      </trkpt>
      <trkpt lat="42.51069" lon="2.17611">
        <ele>1100</ele>
        <time>2022-08-28T17:58:31.000Z</time>
      </trkpt>
      <trkpt lat="42.51102" lon="2.17648">
        <ele>1093</ele>
        <time>2022-08-28T17:58:39.000Z</time>
      </trkpt>
      <trkpt lat="42.51165" lon="2.17748">
        <ele>1082</ele>
        <time>2022-08-28T17:58:56.000Z</time>
      </trkpt>
      <trkpt lat="42.51174" lon="2.17776">
        <ele>1081</ele>
        <time>2022-08-28T17:59:00.000Z</time>
      </trkpt>
      <trkpt lat="42.51216" lon="2.18016">
        <ele>1073</ele>
        <time>2022-08-28T17:59:32.000Z</time>
      </trkpt>
      <trkpt lat="42.51207" lon="2.1813">
        <ele>1059</ele>
        <time>2022-08-28T17:59:47.000Z</time>
      </trkpt>
      <trkpt lat="42.51215" lon="2.18176">
        <ele>1060</ele>
        <time>2022-08-28T17:59:54.000Z</time>
      </trkpt>
      <trkpt lat="42.51254" lon="2.1833">
        <ele>1060</ele>
        <time>2022-08-28T18:00:15.000Z</time>
      </trkpt>
      <trkpt lat="42.51266" lon="2.18401">
        <ele>1056</ele>
        <time>2022-08-28T18:00:25.000Z</time>
      </trkpt>
      <trkpt lat="42.5133" lon="2.18557">
        <ele>1052</ele>
        <time>2022-08-28T18:00:48.000Z</time>
      </trkpt>
      <trkpt lat="42.51335" lon="2.18589">
        <ele>1048</ele>
        <time>2022-08-28T18:00:52.000Z</time>
      </trkpt>
      <trkpt lat="42.51318" lon="2.18674">
        <ele>1032</ele>
        <time>2022-08-28T18:01:04.000Z</time>
      </trkpt>
      <trkpt lat="42.51314" lon="2.18703">
        <ele>1030</ele>
        <time>2022-08-28T18:01:08.000Z</time>
      </trkpt>
      <trkpt lat="42.51319" lon="2.18741">
        <ele>1034</ele>
        <time>2022-08-28T18:01:13.000Z</time>
      </trkpt>
      <trkpt lat="42.51319" lon="2.18759">
        <ele>1033</ele>
        <time>2022-08-28T18:01:15.000Z</time>
      </trkpt>
      <trkpt lat="42.51308" lon="2.18819">
        <ele>1025</ele>
        <time>2022-08-28T18:01:23.000Z</time>
      </trkpt>
      <trkpt lat="42.51309" lon="2.18846">
        <ele>1024</ele>
        <time>2022-08-28T18:01:27.000Z</time>
      </trkpt>
      <trkpt lat="42.51358" lon="2.19066">
        <ele>1017</ele>
        <time>2022-08-28T18:01:57.000Z</time>
      </trkpt>
      <trkpt lat="42.51367" lon="2.19096">
        <ele>1015</ele>
        <time>2022-08-28T18:02:01.000Z</time>
      </trkpt>
      <trkpt lat="42.5138" lon="2.19123">
        <ele>1015</ele>
        <time>2022-08-28T18:02:06.000Z</time>
      </trkpt>
      <trkpt lat="42.51415" lon="2.19173">
        <ele>1019</ele>
        <time>2022-08-28T18:02:15.000Z</time>
      </trkpt>
      <trkpt lat="42.51432" lon="2.19217">
        <ele>1009</ele>
        <time>2022-08-28T18:02:21.000Z</time>
      </trkpt>
      <trkpt lat="42.51445" lon="2.19241">
        <ele>1003</ele>
        <time>2022-08-28T18:02:25.000Z</time>
      </trkpt>
      <trkpt lat="42.51481" lon="2.19276">
        <ele>1002</ele>
        <time>2022-08-28T18:02:33.000Z</time>
      </trkpt>
      <trkpt lat="42.51497" lon="2.19301">
        <ele>1001</ele>
        <time>2022-08-28T18:02:37.000Z</time>
      </trkpt>
      <trkpt lat="42.51508" lon="2.19435">
        <ele>991</ele>
        <time>2022-08-28T18:02:55.000Z</time>
      </trkpt>
      <trkpt lat="42.51525" lon="2.19463">
        <ele>989</ele>
        <time>2022-08-28T18:03:00.000Z</time>
      </trkpt>
      <trkpt lat="42.51589" lon="2.19519">
        <ele>995</ele>
        <time>2022-08-28T18:03:14.000Z</time>
      </trkpt>
      <trkpt lat="42.51605" lon="2.19529">
        <ele>993</ele>
        <time>2022-08-28T18:03:17.000Z</time>
      </trkpt>
      <trkpt lat="42.51646" lon="2.19546">
        <ele>993</ele>
        <time>2022-08-28T18:03:24.000Z</time>
      </trkpt>
      <trkpt lat="42.51667" lon="2.19552">
        <ele>994</ele>
        <time>2022-08-28T18:03:28.000Z</time>
      </trkpt>
      <trkpt lat="42.51736" lon="2.19562">
        <ele>1000</ele>
        <time>2022-08-28T18:03:41.000Z</time>
      </trkpt>
      <trkpt lat="42.51744" lon="2.19577">
        <ele>994</ele>
        <time>2022-08-28T18:03:43.000Z</time>
      </trkpt>
      <trkpt lat="42.51745" lon="2.19592">
        <ele>992</ele>
        <time>2022-08-28T18:03:45.000Z</time>
      </trkpt>
      <trkpt lat="42.51738" lon="2.1961">
        <ele>992</ele>
        <time>2022-08-28T18:03:48.000Z</time>
      </trkpt>
      <trkpt lat="42.51687" lon="2.19659">
        <ele>975</ele>
        <time>2022-08-28T18:03:59.000Z</time>
      </trkpt>
      <trkpt lat="42.51677" lon="2.19682">
        <ele>969</ele>
        <time>2022-08-28T18:04:02.000Z</time>
      </trkpt>
      <trkpt lat="42.51677" lon="2.19719">
        <ele>967</ele>
        <time>2022-08-28T18:04:07.000Z</time>
      </trkpt>
      <trkpt lat="42.51704" lon="2.19796">
        <ele>973</ele>
        <time>2022-08-28T18:04:18.000Z</time>
      </trkpt>
      <trkpt lat="42.51706" lon="2.19818">
        <ele>971</ele>
        <time>2022-08-28T18:04:21.000Z</time>
      </trkpt>
      <trkpt lat="42.51664" lon="2.19973">
        <ele>948</ele>
        <time>2022-08-28T18:04:43.000Z</time>
      </trkpt>
      <trkpt lat="42.51667" lon="2.19989">
        <ele>947</ele>
        <time>2022-08-28T18:04:45.000Z</time>
      </trkpt>
      <trkpt lat="42.51699" lon="2.20057">
        <ele>948</ele>
        <time>2022-08-28T18:04:56.000Z</time>
      </trkpt>
      <trkpt lat="42.51733" lon="2.20152">
        <ele>945</ele>
        <time>2022-08-28T18:05:10.000Z</time>
      </trkpt>
      <trkpt lat="42.51744" lon="2.20169">
        <ele>944</ele>
        <time>2022-08-28T18:05:13.000Z</time>
      </trkpt>
      <trkpt lat="42.51772" lon="2.20203">
        <ele>944</ele>
        <time>2022-08-28T18:05:19.000Z</time>
      </trkpt>
      <trkpt lat="42.51793" lon="2.20266">
        <ele>939</ele>
        <time>2022-08-28T18:05:29.000Z</time>
      </trkpt>
      <trkpt lat="42.51808" lon="2.20292">
        <ele>940</ele>
        <time>2022-08-28T18:05:33.000Z</time>
      </trkpt>
      <trkpt lat="42.51873" lon="2.20368">
        <ele>938</ele>
        <time>2022-08-28T18:05:48.000Z</time>
      </trkpt>
      <trkpt lat="42.51897" lon="2.20388">
        <ele>937</ele>
        <time>2022-08-28T18:05:53.000Z</time>
      </trkpt>
      <trkpt lat="42.51949" lon="2.20406">
        <ele>945</ele>
        <time>2022-08-28T18:06:03.000Z</time>
      </trkpt>
      <trkpt lat="42.51962" lon="2.20428">
        <ele>945</ele>
        <time>2022-08-28T18:06:06.000Z</time>
      </trkpt>
      <trkpt lat="42.51966" lon="2.20444">
        <ele>944</ele>
        <time>2022-08-28T18:06:09.000Z</time>
      </trkpt>
      <trkpt lat="42.51973" lon="2.20503">
        <ele>938</ele>
        <time>2022-08-28T18:06:17.000Z</time>
      </trkpt>
      <trkpt lat="42.51971" lon="2.20609">
        <ele>917</ele>
        <time>2022-08-28T18:06:30.000Z</time>
      </trkpt>
      <trkpt lat="42.51975" lon="2.20618">
        <ele>916</ele>
        <time>2022-08-28T18:06:32.000Z</time>
      </trkpt>
      <trkpt lat="42.51987" lon="2.20629">
        <ele>916</ele>
        <time>2022-08-28T18:06:34.000Z</time>
      </trkpt>
      <trkpt lat="42.52036" lon="2.20639">
        <ele>924</ele>
        <time>2022-08-28T18:06:43.000Z</time>
      </trkpt>
      <trkpt lat="42.52061" lon="2.20657">
        <ele>925</ele>
        <time>2022-08-28T18:06:48.000Z</time>
      </trkpt>
      <trkpt lat="42.52091" lon="2.2072">
        <ele>923</ele>
        <time>2022-08-28T18:06:58.000Z</time>
      </trkpt>
      <trkpt lat="42.52119" lon="2.20776">
        <ele>931</ele>
        <time>2022-08-28T18:07:07.000Z</time>
      </trkpt>
      <trkpt lat="42.52124" lon="2.20847">
        <ele>922</ele>
        <time>2022-08-28T18:07:16.000Z</time>
      </trkpt>
      <trkpt lat="42.52113" lon="2.20944">
        <ele>906</ele>
        <time>2022-08-28T18:07:29.000Z</time>
      </trkpt>
      <trkpt lat="42.52114" lon="2.20968">
        <ele>902</ele>
        <time>2022-08-28T18:07:32.000Z</time>
      </trkpt>
      <trkpt lat="42.52134" lon="2.21013">
        <ele>908</ele>
        <time>2022-08-28T18:07:39.000Z</time>
      </trkpt>
      <trkpt lat="42.5214" lon="2.21033">
        <ele>908</ele>
        <time>2022-08-28T18:07:42.000Z</time>
      </trkpt>
      <trkpt lat="42.52149" lon="2.21091">
        <ele>904</ele>
        <time>2022-08-28T18:07:50.000Z</time>
      </trkpt>
      <trkpt lat="42.52152" lon="2.21178">
        <ele>893</ele>
        <time>2022-08-28T18:08:01.000Z</time>
      </trkpt>
      <trkpt lat="42.52198" lon="2.21306">
        <ele>892</ele>
        <time>2022-08-28T18:08:20.000Z</time>
      </trkpt>
      <trkpt lat="42.52207" lon="2.21339">
        <ele>891</ele>
        <time>2022-08-28T18:08:25.000Z</time>
      </trkpt>
      <trkpt lat="42.52212" lon="2.21439">
        <ele>884</ele>
        <time>2022-08-28T18:08:38.000Z</time>
      </trkpt>
      <trkpt lat="42.52202" lon="2.21494">
        <ele>874</ele>
        <time>2022-08-28T18:08:45.000Z</time>
      </trkpt>
      <trkpt lat="42.52201" lon="2.21516">
        <ele>871</ele>
        <time>2022-08-28T18:08:48.000Z</time>
      </trkpt>
      <trkpt lat="42.52226" lon="2.21569">
        <ele>874</ele>
        <time>2022-08-28T18:08:57.000Z</time>
      </trkpt>
      <trkpt lat="42.52234" lon="2.21596">
        <ele>873</ele>
        <time>2022-08-28T18:09:00.000Z</time>
      </trkpt>
      <trkpt lat="42.52232" lon="2.217">
        <ele>860</ele>
        <time>2022-08-28T18:09:14.000Z</time>
      </trkpt>
      <trkpt lat="42.52235" lon="2.21712">
        <ele>860</ele>
        <time>2022-08-28T18:09:16.000Z</time>
      </trkpt>
      <trkpt lat="42.52291" lon="2.21825">
        <ele>858</ele>
        <time>2022-08-28T18:09:34.000Z</time>
      </trkpt>
      <trkpt lat="42.523" lon="2.21841">
        <ele>857</ele>
        <time>2022-08-28T18:09:37.000Z</time>
      </trkpt>
      <trkpt lat="42.52436" lon="2.21955">
        <ele>863</ele>
        <time>2022-08-28T18:10:05.000Z</time>
      </trkpt>
      <trkpt lat="42.52451" lon="2.21978">
        <ele>864</ele>
        <time>2022-08-28T18:10:09.000Z</time>
      </trkpt>
      <trkpt lat="42.52523" lon="2.22162">
        <ele>857</ele>
        <time>2022-08-28T18:10:37.000Z</time>
      </trkpt>
      <trkpt lat="42.52538" lon="2.22229">
        <ele>849</ele>
        <time>2022-08-28T18:10:46.000Z</time>
      </trkpt>
      <trkpt lat="42.52583" lon="2.2233">
        <ele>847</ele>
        <time>2022-08-28T18:11:01.000Z</time>
      </trkpt>
      <trkpt lat="42.52595" lon="2.22371">
        <ele>849</ele>
        <time>2022-08-28T18:11:07.000Z</time>
      </trkpt>
      <trkpt lat="42.52595" lon="2.22425">
        <ele>839</ele>
        <time>2022-08-28T18:11:14.000Z</time>
      </trkpt>
      <trkpt lat="42.52564" lon="2.22549">
        <ele>829</ele>
        <time>2022-08-28T18:11:31.000Z</time>
      </trkpt>
      <trkpt lat="42.52556" lon="2.22574">
        <ele>828</ele>
        <time>2022-08-28T18:11:35.000Z</time>
      </trkpt>
      <trkpt lat="42.52546" lon="2.22588">
        <ele>826</ele>
        <time>2022-08-28T18:11:37.000Z</time>
      </trkpt>
      <trkpt lat="42.52533" lon="2.22596">
        <ele>823</ele>
        <time>2022-08-28T18:11:40.000Z</time>
      </trkpt>
      <trkpt lat="42.52472" lon="2.22603">
        <ele>824</ele>
        <time>2022-08-28T18:11:51.000Z</time>
      </trkpt>
      <trkpt lat="42.52465" lon="2.22611">
        <ele>826</ele>
        <time>2022-08-28T18:11:53.000Z</time>
      </trkpt>
      <trkpt lat="42.5242" lon="2.22721">
        <ele>822</ele>
        <time>2022-08-28T18:12:09.000Z</time>
      </trkpt>
      <trkpt lat="42.52406" lon="2.2279">
        <ele>821</ele>
        <time>2022-08-28T18:12:18.000Z</time>
      </trkpt>
      <trkpt lat="42.52407" lon="2.22821">
        <ele>819</ele>
        <time>2022-08-28T18:12:23.000Z</time>
      </trkpt>
      <trkpt lat="42.52511" lon="2.23257">
        <ele>807</ele>
        <time>2022-08-28T18:13:23.000Z</time>
      </trkpt>
      <trkpt lat="42.52522" lon="2.23312">
        <ele>810</ele>
        <time>2022-08-28T18:13:30.000Z</time>
      </trkpt>
      <trkpt lat="42.52619" lon="2.23632">
        <ele>799</ele>
        <time>2022-08-28T18:14:16.000Z</time>
      </trkpt>
      <trkpt lat="42.52631" lon="2.2369">
        <ele>797</ele>
        <time>2022-08-28T18:14:24.000Z</time>
      </trkpt>
      <trkpt lat="42.52655" lon="2.23746">
        <ele>787</ele>
        <time>2022-08-28T18:14:32.000Z</time>
      </trkpt>
      <trkpt lat="42.52696" lon="2.23881">
        <ele>791</ele>
        <time>2022-08-28T18:14:51.000Z</time>
      </trkpt>
      <trkpt lat="42.52783" lon="2.24276">
        <ele>780</ele>
        <time>2022-08-28T18:15:45.000Z</time>
      </trkpt>
      <trkpt lat="42.52799" lon="2.24328">
        <ele>776</ele>
        <time>2022-08-28T18:15:53.000Z</time>
      </trkpt>
      <trkpt lat="42.52839" lon="2.24567">
        <ele>769</ele>
        <time>2022-08-28T18:16:25.000Z</time>
      </trkpt>
      <trkpt lat="42.52846" lon="2.24589">
        <ele>770</ele>
        <time>2022-08-28T18:16:28.000Z</time>
      </trkpt>
      <trkpt lat="42.52887" lon="2.24599">
        <ele>772</ele>
        <time>2022-08-28T18:16:36.000Z</time>
      </trkpt>
      <trkpt lat="42.52898" lon="2.24607">
        <ele>772</ele>
        <time>2022-08-28T18:16:38.000Z</time>
      </trkpt>
      <trkpt lat="42.52928" lon="2.24694">
        <ele>763</ele>
        <time>2022-08-28T18:16:51.000Z</time>
      </trkpt>
      <trkpt lat="42.52937" lon="2.24712">
        <ele>763</ele>
        <time>2022-08-28T18:16:53.000Z</time>
      </trkpt>
      <trkpt lat="42.52985" lon="2.24745">
        <ele>765</ele>
        <time>2022-08-28T18:17:03.000Z</time>
      </trkpt>
      <trkpt lat="42.53014" lon="2.24783">
        <ele>762</ele>
        <time>2022-08-28T18:17:10.000Z</time>
      </trkpt>
      <trkpt lat="42.53047" lon="2.24791">
        <ele>765</ele>
        <time>2022-08-28T18:17:16.000Z</time>
      </trkpt>
      <trkpt lat="42.53063" lon="2.24786">
        <ele>769</ele>
        <time>2022-08-28T18:17:19.000Z</time>
      </trkpt>
      <trkpt lat="42.53087" lon="2.24757">
        <ele>779</ele>
        <time>2022-08-28T18:17:25.000Z</time>
      </trkpt>
      <trkpt lat="42.53094" lon="2.24752">
        <ele>782</ele>
        <time>2022-08-28T18:17:26.000Z</time>
      </trkpt>
      <trkpt lat="42.53116" lon="2.24749">
        <ele>787</ele>
        <time>2022-08-28T18:17:30.000Z</time>
      </trkpt>
      <trkpt lat="42.53129" lon="2.24754">
        <ele>788</ele>
        <time>2022-08-28T18:17:33.000Z</time>
      </trkpt>
      <trkpt lat="42.5314" lon="2.24762">
        <ele>787</ele>
        <time>2022-08-28T18:17:35.000Z</time>
      </trkpt>
      <trkpt lat="42.53159" lon="2.24798">
        <ele>774</ele>
        <time>2022-08-28T18:17:41.000Z</time>
      </trkpt>
      <trkpt lat="42.5317" lon="2.24838">
        <ele>758</ele>
        <time>2022-08-28T18:17:46.000Z</time>
      </trkpt>
      <trkpt lat="42.53178" lon="2.2485">
        <ele>761</ele>
        <time>2022-08-28T18:17:48.000Z</time>
      </trkpt>
      <trkpt lat="42.5321" lon="2.24849">
        <ele>768</ele>
        <time>2022-08-28T18:17:54.000Z</time>
      </trkpt>
      <trkpt lat="42.53218" lon="2.2485">
        <ele>770</ele>
        <time>2022-08-28T18:17:56.000Z</time>
      </trkpt>
      <trkpt lat="42.53244" lon="2.24872">
        <ele>768</ele>
        <time>2022-08-28T18:18:01.000Z</time>
      </trkpt>
      <trkpt lat="42.53295" lon="2.24892">
        <ele>778</ele>
        <time>2022-08-28T18:18:11.000Z</time>
      </trkpt>
      <trkpt lat="42.53308" lon="2.24906">
        <ele>778</ele>
        <time>2022-08-28T18:18:14.000Z</time>
      </trkpt>
      <trkpt lat="42.5332" lon="2.24966">
        <ele>775</ele>
        <time>2022-08-28T18:18:22.000Z</time>
      </trkpt>
      <trkpt lat="42.53319" lon="2.2498">
        <ele>773</ele>
        <time>2022-08-28T18:18:24.000Z</time>
      </trkpt>
      <trkpt lat="42.53316" lon="2.24998">
        <ele>770</ele>
        <time>2022-08-28T18:18:26.000Z</time>
      </trkpt>
      <trkpt lat="42.5329" lon="2.25055">
        <ele>772</ele>
        <time>2022-08-28T18:18:35.000Z</time>
      </trkpt>
      <trkpt lat="42.53282" lon="2.25106">
        <ele>780</ele>
        <time>2022-08-28T18:18:42.000Z</time>
      </trkpt>
      <trkpt lat="42.53282" lon="2.25138">
        <ele>787</ele>
        <time>2022-08-28T18:18:46.000Z</time>
      </trkpt>
      <trkpt lat="42.53284" lon="2.25161">
        <ele>792</ele>
        <time>2022-08-28T18:18:49.000Z</time>
      </trkpt>
      <trkpt lat="42.5329" lon="2.25189">
        <ele>790</ele>
        <time>2022-08-28T18:18:53.000Z</time>
      </trkpt>
      <trkpt lat="42.53315" lon="2.2524">
        <ele>792</ele>
        <time>2022-08-28T18:19:01.000Z</time>
      </trkpt>
      <trkpt lat="42.53324" lon="2.25266">
        <ele>787</ele>
        <time>2022-08-28T18:19:05.000Z</time>
      </trkpt>
      <trkpt lat="42.53326" lon="2.25282">
        <ele>781</ele>
        <time>2022-08-28T18:19:07.000Z</time>
      </trkpt>
      <trkpt lat="42.53326" lon="2.25368">
        <ele>748</ele>
        <time>2022-08-28T18:19:18.000Z</time>
      </trkpt>
      <trkpt lat="42.53335" lon="2.25394">
        <ele>744</ele>
        <time>2022-08-28T18:19:22.000Z</time>
      </trkpt>
      <trkpt lat="42.53347" lon="2.2541">
        <ele>744</ele>
        <time>2022-08-28T18:19:25.000Z</time>
      </trkpt>
      <trkpt lat="42.53365" lon="2.25421">
        <ele>746</ele>
        <time>2022-08-28T18:19:28.000Z</time>
      </trkpt>
      <trkpt lat="42.53386" lon="2.25424">
        <ele>752</ele>
        <time>2022-08-28T18:19:32.000Z</time>
      </trkpt>
      <trkpt lat="42.53466" lon="2.25415">
        <ele>763</ele>
        <time>2022-08-28T18:19:46.000Z</time>
      </trkpt>
      <trkpt lat="42.53676" lon="2.25435">
        <ele>751</ele>
        <time>2022-08-28T18:20:24.000Z</time>
      </trkpt>
      <trkpt lat="42.53754" lon="2.25423">
        <ele>750</ele>
        <time>2022-08-28T18:20:38.000Z</time>
      </trkpt>
      <trkpt lat="42.53839" lon="2.25425">
        <ele>746</ele>
        <time>2022-08-28T18:20:53.000Z</time>
      </trkpt>
      <trkpt lat="42.53889" lon="2.25401">
        <ele>749</ele>
        <time>2022-08-28T18:21:02.000Z</time>
      </trkpt>
      <trkpt lat="42.53912" lon="2.25401">
        <ele>745</ele>
        <time>2022-08-28T18:21:06.000Z</time>
      </trkpt>
      <trkpt lat="42.53935" lon="2.25419">
        <ele>743</ele>
        <time>2022-08-28T18:21:11.000Z</time>
      </trkpt>
      <trkpt lat="42.53977" lon="2.25472">
        <ele>735</ele>
        <time>2022-08-28T18:21:21.000Z</time>
      </trkpt>
      <trkpt lat="42.54041" lon="2.25506">
        <ele>743</ele>
        <time>2022-08-28T18:21:34.000Z</time>
      </trkpt>
      <trkpt lat="42.5405" lon="2.25518">
        <ele>742</ele>
        <time>2022-08-28T18:21:36.000Z</time>
      </trkpt>
      <trkpt lat="42.54063" lon="2.25544">
        <ele>737</ele>
        <time>2022-08-28T18:21:40.000Z</time>
      </trkpt>
      <trkpt lat="42.54085" lon="2.25603">
        <ele>728</ele>
        <time>2022-08-28T18:21:49.000Z</time>
      </trkpt>
      <trkpt lat="42.54094" lon="2.25686">
        <ele>714</ele>
        <time>2022-08-28T18:22:00.000Z</time>
      </trkpt>
      <trkpt lat="42.54103" lon="2.25712">
        <ele>711</ele>
        <time>2022-08-28T18:22:03.000Z</time>
      </trkpt>
      <trkpt lat="42.54141" lon="2.25747">
        <ele>720</ele>
        <time>2022-08-28T18:22:12.000Z</time>
      </trkpt>
      <trkpt lat="42.54152" lon="2.25766">
        <ele>721</ele>
        <time>2022-08-28T18:22:15.000Z</time>
      </trkpt>
      <trkpt lat="42.5417" lon="2.25829">
        <ele>710</ele>
        <time>2022-08-28T18:22:24.000Z</time>
      </trkpt>
      <trkpt lat="42.54183" lon="2.25851">
        <ele>709</ele>
        <time>2022-08-28T18:22:27.000Z</time>
      </trkpt>
      <trkpt lat="42.54305" lon="2.25988">
        <ele>711</ele>
        <time>2022-08-28T18:22:56.000Z</time>
      </trkpt>
      <trkpt lat="42.54316" lon="2.26016">
        <ele>707</ele>
        <time>2022-08-28T18:23:00.000Z</time>
      </trkpt>
      <trkpt lat="42.54333" lon="2.26078">
        <ele>695</ele>
        <time>2022-08-28T18:23:08.000Z</time>
      </trkpt>
      <trkpt lat="42.54419" lon="2.26147">
        <ele>707</ele>
        <time>2022-08-28T18:23:26.000Z</time>
      </trkpt>
      <trkpt lat="42.54471" lon="2.2622">
        <ele>700</ele>
        <time>2022-08-28T18:23:40.000Z</time>
      </trkpt>
      <trkpt lat="42.54508" lon="2.26376">
        <ele>674</ele>
        <time>2022-08-28T18:24:01.000Z</time>
      </trkpt>
      <trkpt lat="42.54525" lon="2.26399">
        <ele>671</ele>
        <time>2022-08-28T18:24:05.000Z</time>
      </trkpt>
      <trkpt lat="42.54546" lon="2.26415">
        <ele>671</ele>
        <time>2022-08-28T18:24:10.000Z</time>
      </trkpt>
      <trkpt lat="42.54563" lon="2.2642">
        <ele>672</ele>
        <time>2022-08-28T18:24:13.000Z</time>
      </trkpt>
      <trkpt lat="42.54643" lon="2.26401">
        <ele>681</ele>
        <time>2022-08-28T18:24:27.000Z</time>
      </trkpt>
      <trkpt lat="42.54698" lon="2.2641">
        <ele>686</ele>
        <time>2022-08-28T18:24:37.000Z</time>
      </trkpt>
      <trkpt lat="42.5473" lon="2.26434">
        <ele>684</ele>
        <time>2022-08-28T18:24:44.000Z</time>
      </trkpt>
      <trkpt lat="42.54745" lon="2.26454">
        <ele>678</ele>
        <time>2022-08-28T18:24:47.000Z</time>
      </trkpt>
      <trkpt lat="42.54797" lon="2.2656">
        <ele>660</ele>
        <time>2022-08-28T18:25:04.000Z</time>
      </trkpt>
      <trkpt lat="42.54814" lon="2.26573">
        <ele>661</ele>
        <time>2022-08-28T18:25:08.000Z</time>
      </trkpt>
      <trkpt lat="42.54863" lon="2.26596">
        <ele>660</ele>
        <time>2022-08-28T18:25:17.000Z</time>
      </trkpt>
      <trkpt lat="42.54874" lon="2.26599">
        <ele>659</ele>
        <time>2022-08-28T18:25:19.000Z</time>
      </trkpt>
      <trkpt lat="42.54976" lon="2.26582">
        <ele>665</ele>
        <time>2022-08-28T18:25:37.000Z</time>
      </trkpt>
      <trkpt lat="42.55047" lon="2.26601">
        <ele>661</ele>
        <time>2022-08-28T18:25:50.000Z</time>
      </trkpt>
      <trkpt lat="42.55142" lon="2.26705">
        <ele>642</ele>
        <time>2022-08-28T18:26:12.000Z</time>
      </trkpt>
      <trkpt lat="42.55202" lon="2.26762">
        <ele>632</ele>
        <time>2022-08-28T18:26:25.000Z</time>
      </trkpt>
      <trkpt lat="42.55214" lon="2.26768">
        <ele>632</ele>
        <time>2022-08-28T18:26:27.000Z</time>
      </trkpt>
      <trkpt lat="42.55226" lon="2.26768">
        <ele>631</ele>
        <time>2022-08-28T18:26:29.000Z</time>
      </trkpt>
      <trkpt lat="42.55232" lon="2.26765">
        <ele>631</ele>
        <time>2022-08-28T18:26:30.000Z</time>
      </trkpt>
      <trkpt lat="42.55255" lon="2.26742">
        <ele>632</ele>
        <time>2022-08-28T18:26:36.000Z</time>
      </trkpt>
      <trkpt lat="42.55276" lon="2.26739">
        <ele>632</ele>
        <time>2022-08-28T18:26:39.000Z</time>
      </trkpt>
      <trkpt lat="42.55335" lon="2.26755">
        <ele>629</ele>
        <time>2022-08-28T18:26:50.000Z</time>
      </trkpt>
      <trkpt lat="42.55376" lon="2.26788">
        <ele>636</ele>
        <time>2022-08-28T18:26:58.000Z</time>
      </trkpt>
      <trkpt lat="42.55392" lon="2.26796">
        <ele>638</ele>
        <time>2022-08-28T18:27:01.000Z</time>
      </trkpt>
      <trkpt lat="42.55398" lon="2.26802">
        <ele>638</ele>
        <time>2022-08-28T18:27:03.000Z</time>
      </trkpt>
      <trkpt lat="42.55418" lon="2.26834">
        <ele>635</ele>
        <time>2022-08-28T18:27:08.000Z</time>
      </trkpt>
      <trkpt lat="42.55461" lon="2.26874">
        <ele>640</ele>
        <time>2022-08-28T18:27:18.000Z</time>
      </trkpt>
      <trkpt lat="42.55467" lon="2.26885">
        <ele>639</ele>
        <time>2022-08-28T18:27:19.000Z</time>
      </trkpt>
      <trkpt lat="42.55471" lon="2.26894">
        <ele>639</ele>
        <time>2022-08-28T18:27:21.000Z</time>
      </trkpt>
      <trkpt lat="42.55477" lon="2.26942">
        <ele>637</ele>
        <time>2022-08-28T18:27:27.000Z</time>
      </trkpt>
      <trkpt lat="42.55551" lon="2.27157">
        <ele>632</ele>
        <time>2022-08-28T18:27:58.000Z</time>
      </trkpt>
      <trkpt lat="42.55573" lon="2.27245">
        <ele>637</ele>
        <time>2022-08-28T18:28:10.000Z</time>
      </trkpt>
      <trkpt lat="42.55571" lon="2.27324">
        <ele>634</ele>
        <time>2022-08-28T18:28:21.000Z</time>
      </trkpt>
      <trkpt lat="42.55587" lon="2.2751">
        <ele>632</ele>
        <time>2022-08-28T18:28:45.000Z</time>
      </trkpt>
      <trkpt lat="42.55624" lon="2.2765">
        <ele>633</ele>
        <time>2022-08-28T18:29:05.000Z</time>
      </trkpt>
      <trkpt lat="42.55616" lon="2.278">
        <ele>626</ele>
        <time>2022-08-28T18:29:25.000Z</time>
      </trkpt>
      <trkpt lat="42.55621" lon="2.27819">
        <ele>627</ele>
        <time>2022-08-28T18:29:27.000Z</time>
      </trkpt>
      <trkpt lat="42.55708" lon="2.28043">
        <ele>633</ele>
        <time>2022-08-28T18:30:01.000Z</time>
      </trkpt>
      <trkpt lat="42.55725" lon="2.28074">
        <ele>632</ele>
        <time>2022-08-28T18:30:06.000Z</time>
      </trkpt>
      <trkpt lat="42.55737" lon="2.2809">
        <ele>633</ele>
        <time>2022-08-28T18:30:09.000Z</time>
      </trkpt>
      <trkpt lat="42.55783" lon="2.28138">
        <ele>637</ele>
        <time>2022-08-28T18:30:19.000Z</time>
      </trkpt>
      <trkpt lat="42.55809" lon="2.2819">
        <ele>633</ele>
        <time>2022-08-28T18:30:27.000Z</time>
      </trkpt>
      <trkpt lat="42.55817" lon="2.28217">
        <ele>632</ele>
        <time>2022-08-28T18:30:31.000Z</time>
      </trkpt>
      <trkpt lat="42.55818" lon="2.28243">
        <ele>628</ele>
        <time>2022-08-28T18:30:34.000Z</time>
      </trkpt>
      <trkpt lat="42.55812" lon="2.28286">
        <ele>621</ele>
        <time>2022-08-28T18:30:40.000Z</time>
      </trkpt>
      <trkpt lat="42.55813" lon="2.28315">
        <ele>618</ele>
        <time>2022-08-28T18:30:44.000Z</time>
      </trkpt>
      <trkpt lat="42.55824" lon="2.28354">
        <ele>617</ele>
        <time>2022-08-28T18:30:49.000Z</time>
      </trkpt>
      <trkpt lat="42.55832" lon="2.28371">
        <ele>617</ele>
        <time>2022-08-28T18:30:52.000Z</time>
      </trkpt>
      <trkpt lat="42.55841" lon="2.28387">
        <ele>617</ele>
        <time>2022-08-28T18:30:55.000Z</time>
      </trkpt>
      <trkpt lat="42.55869" lon="2.28424">
        <ele>618</ele>
        <time>2022-08-28T18:31:02.000Z</time>
      </trkpt>
      <trkpt lat="42.55966" lon="2.28529">
        <ele>617</ele>
        <time>2022-08-28T18:31:24.000Z</time>
      </trkpt>
      <trkpt lat="42.5601" lon="2.28587">
        <ele>613</ele>
        <time>2022-08-28T18:31:35.000Z</time>
      </trkpt>
      <trkpt lat="42.56167" lon="2.28874">
        <ele>602</ele>
        <time>2022-08-28T18:32:22.000Z</time>
      </trkpt>
      <trkpt lat="42.56176" lon="2.28896">
        <ele>603</ele>
        <time>2022-08-28T18:32:25.000Z</time>
      </trkpt>
      <trkpt lat="42.56167" lon="2.28948">
        <ele>597</ele>
        <time>2022-08-28T18:32:32.000Z</time>
      </trkpt>
      <trkpt lat="42.56169" lon="2.2899">
        <ele>596</ele>
        <time>2022-08-28T18:32:37.000Z</time>
      </trkpt>
      <trkpt lat="42.56179" lon="2.29066">
        <ele>592</ele>
        <time>2022-08-28T18:32:48.000Z</time>
      </trkpt>
      <trkpt lat="42.56183" lon="2.29127">
        <ele>589</ele>
        <time>2022-08-28T18:32:56.000Z</time>
      </trkpt>
      <trkpt lat="42.562" lon="2.2917">
        <ele>592</ele>
        <time>2022-08-28T18:33:02.000Z</time>
      </trkpt>
      <trkpt lat="42.56201" lon="2.29186">
        <ele>595</ele>
        <time>2022-08-28T18:33:04.000Z</time>
      </trkpt>
      <trkpt lat="42.56185" lon="2.29229">
        <ele>594</ele>
        <time>2022-08-28T18:33:10.000Z</time>
      </trkpt>
      <trkpt lat="42.56166" lon="2.2933">
        <ele>594</ele>
        <time>2022-08-28T18:33:24.000Z</time>
      </trkpt>
      <trkpt lat="42.56165" lon="2.29528">
        <ele>592</ele>
        <time>2022-08-28T18:33:50.000Z</time>
      </trkpt>
      <trkpt lat="42.56161" lon="2.29587">
        <ele>593</ele>
        <time>2022-08-28T18:33:58.000Z</time>
      </trkpt>
      <trkpt lat="42.56123" lon="2.29754">
        <ele>588</ele>
        <time>2022-08-28T18:34:21.000Z</time>
      </trkpt>
      <trkpt lat="42.56121" lon="2.29776">
        <ele>587</ele>
        <time>2022-08-28T18:34:24.000Z</time>
      </trkpt>
      <trkpt lat="42.56125" lon="2.29815">
        <ele>588</ele>
        <time>2022-08-28T18:34:29.000Z</time>
      </trkpt>
      <trkpt lat="42.56147" lon="2.29929">
        <ele>591</ele>
        <time>2022-08-28T18:34:44.000Z</time>
      </trkpt>
      <trkpt lat="42.56142" lon="2.30013">
        <ele>580</ele>
        <time>2022-08-28T18:34:55.000Z</time>
      </trkpt>
      <trkpt lat="42.56147" lon="2.30089">
        <ele>576</ele>
        <time>2022-08-28T18:35:05.000Z</time>
      </trkpt>
      <trkpt lat="42.56102" lon="2.30191">
        <ele>573</ele>
        <time>2022-08-28T18:35:21.000Z</time>
      </trkpt>
      <trkpt lat="42.56094" lon="2.30267">
        <ele>574</ele>
        <time>2022-08-28T18:35:31.000Z</time>
      </trkpt>
      <trkpt lat="42.56113" lon="2.30383">
        <ele>577</ele>
        <time>2022-08-28T18:35:47.000Z</time>
      </trkpt>
      <trkpt lat="42.56123" lon="2.30448">
        <ele>577</ele>
        <time>2022-08-28T18:35:56.000Z</time>
      </trkpt>
      <trkpt lat="42.56141" lon="2.30673">
        <ele>571</ele>
        <time>2022-08-28T18:36:25.000Z</time>
      </trkpt>
      <trkpt lat="42.56156" lon="2.30743">
        <ele>569</ele>
        <time>2022-08-28T18:36:35.000Z</time>
      </trkpt>
      <trkpt lat="42.56197" lon="2.30827">
        <ele>568</ele>
        <time>2022-08-28T18:36:48.000Z</time>
      </trkpt>
      <trkpt lat="42.56235" lon="2.30869">
        <ele>571</ele>
        <time>2022-08-28T18:36:57.000Z</time>
      </trkpt>
      <trkpt lat="42.56267" lon="2.30964">
        <ele>568</ele>
        <time>2022-08-28T18:37:11.000Z</time>
      </trkpt>
      <trkpt lat="42.56288" lon="2.31005">
        <ele>569</ele>
        <time>2022-08-28T18:37:17.000Z</time>
      </trkpt>
      <trkpt lat="42.56431" lon="2.31127">
        <ele>568</ele>
        <time>2022-08-28T18:37:47.000Z</time>
      </trkpt>
      <trkpt lat="42.56453" lon="2.31152">
        <ele>569</ele>
        <time>2022-08-28T18:37:52.000Z</time>
      </trkpt>
      <trkpt lat="42.56477" lon="2.31234">
        <ele>568</ele>
        <time>2022-08-28T18:38:04.000Z</time>
      </trkpt>
      <trkpt lat="42.56493" lon="2.31283">
        <ele>565</ele>
        <time>2022-08-28T18:38:11.000Z</time>
      </trkpt>
      <trkpt lat="42.56537" lon="2.31335">
        <ele>566</ele>
        <time>2022-08-28T18:38:21.000Z</time>
      </trkpt>
      <trkpt lat="42.56547" lon="2.3135">
        <ele>566</ele>
        <time>2022-08-28T18:38:24.000Z</time>
      </trkpt>
      <trkpt lat="42.56575" lon="2.31425">
        <ele>559</ele>
        <time>2022-08-28T18:38:35.000Z</time>
      </trkpt>
      <trkpt lat="42.56717" lon="2.31632">
        <ele>561</ele>
        <time>2022-08-28T18:39:12.000Z</time>
      </trkpt>
      <trkpt lat="42.56737" lon="2.31668">
        <ele>559</ele>
        <time>2022-08-28T18:39:18.000Z</time>
      </trkpt>
      <trkpt lat="42.56795" lon="2.31836">
        <ele>556</ele>
        <time>2022-08-28T18:39:42.000Z</time>
      </trkpt>
      <trkpt lat="42.56819" lon="2.31894">
        <ele>561</ele>
        <time>2022-08-28T18:39:51.000Z</time>
      </trkpt>
      <trkpt lat="42.56824" lon="2.31918">
        <ele>562</ele>
        <time>2022-08-28T18:39:54.000Z</time>
      </trkpt>
      <trkpt lat="42.56806" lon="2.32125">
        <ele>550</ele>
        <time>2022-08-28T18:40:22.000Z</time>
      </trkpt>
      <trkpt lat="42.56808" lon="2.32152">
        <ele>549</ele>
        <time>2022-08-28T18:40:25.000Z</time>
      </trkpt>
      <trkpt lat="42.56837" lon="2.32222">
        <ele>552</ele>
        <time>2022-08-28T18:40:36.000Z</time>
      </trkpt>
      <trkpt lat="42.56843" lon="2.32272">
        <ele>546</ele>
        <time>2022-08-28T18:40:43.000Z</time>
      </trkpt>
      <trkpt lat="42.56849" lon="2.32289">
        <ele>545</ele>
        <time>2022-08-28T18:40:45.000Z</time>
      </trkpt>
      <trkpt lat="42.5691" lon="2.32335">
        <ele>546</ele>
        <time>2022-08-28T18:40:57.000Z</time>
      </trkpt>
      <trkpt lat="42.56914" lon="2.32348">
        <ele>547</ele>
        <time>2022-08-28T18:40:59.000Z</time>
      </trkpt>
      <trkpt lat="42.56911" lon="2.32361">
        <ele>547</ele>
        <time>2022-08-28T18:41:01.000Z</time>
      </trkpt>
      <trkpt lat="42.56906" lon="2.32368">
        <ele>546</ele>
        <time>2022-08-28T18:41:02.000Z</time>
      </trkpt>
      <trkpt lat="42.56867" lon="2.324">
        <ele>538</ele>
        <time>2022-08-28T18:41:10.000Z</time>
      </trkpt>
      <trkpt lat="42.56864" lon="2.32416">
        <ele>536</ele>
        <time>2022-08-28T18:41:13.000Z</time>
      </trkpt>
      <trkpt lat="42.56899" lon="2.32523">
        <ele>540</ele>
        <time>2022-08-28T18:41:28.000Z</time>
      </trkpt>
      <trkpt lat="42.56914" lon="2.3276">
        <ele>540</ele>
        <time>2022-08-28T18:41:59.000Z</time>
      </trkpt>
      <trkpt lat="42.569" lon="2.32814">
        <ele>537</ele>
        <time>2022-08-28T18:42:07.000Z</time>
      </trkpt>
      <trkpt lat="42.56896" lon="2.32838">
        <ele>536</ele>
        <time>2022-08-28T18:42:10.000Z</time>
      </trkpt>
      <trkpt lat="42.56888" lon="2.32971">
        <ele>529</ele>
        <time>2022-08-28T18:42:28.000Z</time>
      </trkpt>
      <trkpt lat="42.56888" lon="2.33003">
        <ele>528</ele>
        <time>2022-08-28T18:42:32.000Z</time>
      </trkpt>
      <trkpt lat="42.56894" lon="2.33033">
        <ele>527</ele>
        <time>2022-08-28T18:42:36.000Z</time>
      </trkpt>
      <trkpt lat="42.56901" lon="2.33052">
        <ele>528</ele>
        <time>2022-08-28T18:42:39.000Z</time>
      </trkpt>
      <trkpt lat="42.56924" lon="2.33091">
        <ele>530</ele>
        <time>2022-08-28T18:42:45.000Z</time>
      </trkpt>
      <trkpt lat="42.56964" lon="2.3319">
        <ele>531</ele>
        <time>2022-08-28T18:43:00.000Z</time>
      </trkpt>
      <trkpt lat="42.57037" lon="2.33309">
        <ele>534</ele>
        <time>2022-08-28T18:43:20.000Z</time>
      </trkpt>
      <trkpt lat="42.57054" lon="2.33341">
        <ele>534</ele>
        <time>2022-08-28T18:43:25.000Z</time>
      </trkpt>
      <trkpt lat="42.57057" lon="2.33419">
        <ele>524</ele>
        <time>2022-08-28T18:43:36.000Z</time>
      </trkpt>
      <trkpt lat="42.57085" lon="2.33497">
        <ele>517</ele>
        <time>2022-08-28T18:43:47.000Z</time>
      </trkpt>
      <trkpt lat="42.57141" lon="2.33591">
        <ele>519</ele>
        <time>2022-08-28T18:44:03.000Z</time>
      </trkpt>
      <trkpt lat="42.57183" lon="2.33674">
        <ele>508</ele>
        <time>2022-08-28T18:44:16.000Z</time>
      </trkpt>
      <trkpt lat="42.57265" lon="2.33734">
        <ele>507</ele>
        <time>2022-08-28T18:44:33.000Z</time>
      </trkpt>
      <trkpt lat="42.57292" lon="2.33765">
        <ele>507</ele>
        <time>2022-08-28T18:44:39.000Z</time>
      </trkpt>
      <trkpt lat="42.57421" lon="2.34027">
        <ele>502</ele>
        <time>2022-08-28T18:45:21.000Z</time>
      </trkpt>
      <trkpt lat="42.57463" lon="2.34095">
        <ele>498</ele>
        <time>2022-08-28T18:45:32.000Z</time>
      </trkpt>
      <trkpt lat="42.57696" lon="2.34405">
        <ele>489</ele>
        <time>2022-08-28T18:46:30.000Z</time>
      </trkpt>
      <trkpt lat="42.57717" lon="2.34441">
        <ele>488</ele>
        <time>2022-08-28T18:46:36.000Z</time>
      </trkpt>
      <trkpt lat="42.57855" lon="2.34612">
        <ele>482</ele>
        <time>2022-08-28T18:47:10.000Z</time>
      </trkpt>
      <trkpt lat="42.57869" lon="2.34635">
        <ele>483</ele>
        <time>2022-08-28T18:47:14.000Z</time>
      </trkpt>
      <trkpt lat="42.57892" lon="2.34675">
        <ele>483</ele>
        <time>2022-08-28T18:47:20.000Z</time>
      </trkpt>
      <trkpt lat="42.57906" lon="2.34705">
        <ele>481</ele>
        <time>2022-08-28T18:47:25.000Z</time>
      </trkpt>
      <trkpt lat="42.57949" lon="2.34844">
        <ele>477</ele>
        <time>2022-08-28T18:47:45.000Z</time>
      </trkpt>
      <trkpt lat="42.57981" lon="2.34933">
        <ele>473</ele>
        <time>2022-08-28T18:47:58.000Z</time>
      </trkpt>
      <trkpt lat="42.58091" lon="2.35187">
        <ele>467</ele>
        <time>2022-08-28T18:48:36.000Z</time>
      </trkpt>
      <trkpt lat="42.58126" lon="2.35252">
        <ele>466</ele>
        <time>2022-08-28T18:48:47.000Z</time>
      </trkpt>
      <trkpt lat="42.58139" lon="2.35272">
        <ele>466</ele>
        <time>2022-08-28T18:48:50.000Z</time>
      </trkpt>
      <trkpt lat="42.5817" lon="2.35305">
        <ele>465</ele>
        <time>2022-08-28T18:48:57.000Z</time>
      </trkpt>
      <trkpt lat="42.58286" lon="2.35403">
        <ele>476</ele>
        <time>2022-08-28T18:49:22.000Z</time>
      </trkpt>
      <trkpt lat="42.5834" lon="2.35461">
        <ele>479</ele>
        <time>2022-08-28T18:49:34.000Z</time>
      </trkpt>
      <trkpt lat="42.58383" lon="2.35552">
        <ele>480</ele>
        <time>2022-08-28T18:49:48.000Z</time>
      </trkpt>
      <trkpt lat="42.58388" lon="2.35568">
        <ele>478</ele>
        <time>2022-08-28T18:49:50.000Z</time>
      </trkpt>
      <trkpt lat="42.58404" lon="2.35655">
        <ele>466</ele>
        <time>2022-08-28T18:50:02.000Z</time>
      </trkpt>
      <trkpt lat="42.58419" lon="2.35889">
        <ele>462</ele>
        <time>2022-08-28T18:50:33.000Z</time>
      </trkpt>
      <trkpt lat="42.58438" lon="2.35969">
        <ele>463</ele>
        <time>2022-08-28T18:50:44.000Z</time>
      </trkpt>
      <trkpt lat="42.58407" lon="2.36176">
        <ele>450</ele>
        <time>2022-08-28T18:51:12.000Z</time>
      </trkpt>
      <trkpt lat="42.58409" lon="2.36193">
        <ele>452</ele>
        <time>2022-08-28T18:51:14.000Z</time>
      </trkpt>
      <trkpt lat="42.58417" lon="2.36219">
        <ele>454</ele>
        <time>2022-08-28T18:51:18.000Z</time>
      </trkpt>
      <trkpt lat="42.58446" lon="2.36269">
        <ele>462</ele>
        <time>2022-08-28T18:51:26.000Z</time>
      </trkpt>
      <trkpt lat="42.58584" lon="2.36412">
        <ele>445</ele>
        <time>2022-08-28T18:51:57.000Z</time>
      </trkpt>
      <trkpt lat="42.58597" lon="2.36447">
        <ele>451</ele>
        <time>2022-08-28T18:52:02.000Z</time>
      </trkpt>
      <trkpt lat="42.58607" lon="2.36521">
        <ele>462</ele>
        <time>2022-08-28T18:52:12.000Z</time>
      </trkpt>
      <trkpt lat="42.58639" lon="2.36672">
        <ele>459</ele>
        <time>2022-08-28T18:52:33.000Z</time>
      </trkpt>
      <trkpt lat="42.58657" lon="2.36955">
        <ele>442</ele>
        <time>2022-08-28T18:53:10.000Z</time>
      </trkpt>
      <trkpt lat="42.58651" lon="2.37002">
        <ele>441</ele>
        <time>2022-08-28T18:53:16.000Z</time>
      </trkpt>
      <trkpt lat="42.58651" lon="2.37016">
        <ele>446</ele>
        <time>2022-08-28T18:53:18.000Z</time>
      </trkpt>
      <trkpt lat="42.58656" lon="2.37025">
        <ele>449</ele>
        <time>2022-08-28T18:53:20.000Z</time>
      </trkpt>
      <trkpt lat="42.58666" lon="2.37029">
        <ele>451</ele>
        <time>2022-08-28T18:53:22.000Z</time>
      </trkpt>
      <trkpt lat="42.58678" lon="2.37015">
        <ele>444</ele>
        <time>2022-08-28T18:53:25.000Z</time>
      </trkpt>
      <trkpt lat="42.58694" lon="2.37007">
        <ele>440</ele>
        <time>2022-08-28T18:53:28.000Z</time>
      </trkpt>
      <trkpt lat="42.58717" lon="2.37006">
        <ele>438</ele>
        <time>2022-08-28T18:53:32.000Z</time>
      </trkpt>
      <trkpt lat="42.58727" lon="2.37008">
        <ele>439</ele>
        <time>2022-08-28T18:53:33.000Z</time>
      </trkpt>
      <trkpt lat="42.58754" lon="2.37017">
        <ele>440</ele>
        <time>2022-08-28T18:53:38.000Z</time>
      </trkpt>
      <trkpt lat="42.58779" lon="2.3703">
        <ele>440</ele>
        <time>2022-08-28T18:53:43.000Z</time>
      </trkpt>
      <trkpt lat="42.5889" lon="2.37101">
        <ele>435</ele>
        <time>2022-08-28T18:54:05.000Z</time>
      </trkpt>
      <trkpt lat="42.58922" lon="2.37113">
        <ele>434</ele>
        <time>2022-08-28T18:54:11.000Z</time>
      </trkpt>
      <trkpt lat="42.5896" lon="2.37118">
        <ele>435</ele>
        <time>2022-08-28T18:54:18.000Z</time>
      </trkpt>
      <trkpt lat="42.59052" lon="2.37122">
        <ele>432</ele>
        <time>2022-08-28T18:54:34.000Z</time>
      </trkpt>
      <trkpt lat="42.59134" lon="2.37145">
        <ele>432</ele>
        <time>2022-08-28T18:54:49.000Z</time>
      </trkpt>
      <trkpt lat="42.59148" lon="2.37154">
        <ele>433</ele>
        <time>2022-08-28T18:54:52.000Z</time>
      </trkpt>
      <trkpt lat="42.59472" lon="2.37414">
        <ele>423</ele>
        <time>2022-08-28T18:55:59.000Z</time>
      </trkpt>
      <trkpt lat="42.59494" lon="2.37437">
        <ele>420</ele>
        <time>2022-08-28T18:56:04.000Z</time>
      </trkpt>
      <trkpt lat="42.59537" lon="2.37495">
        <ele>421</ele>
        <time>2022-08-28T18:56:14.000Z</time>
      </trkpt>
      <trkpt lat="42.59549" lon="2.37521">
        <ele>421</ele>
        <time>2022-08-28T18:56:18.000Z</time>
      </trkpt>
      <trkpt lat="42.59569" lon="2.37614">
        <ele>424</ele>
        <time>2022-08-28T18:56:31.000Z</time>
      </trkpt>
      <trkpt lat="42.59579" lon="2.37633">
        <ele>421</ele>
        <time>2022-08-28T18:56:34.000Z</time>
      </trkpt>
      <trkpt lat="42.59592" lon="2.37646">
        <ele>419</ele>
        <time>2022-08-28T18:56:37.000Z</time>
      </trkpt>
      <trkpt lat="42.59597" lon="2.37648">
        <ele>419</ele>
        <time>2022-08-28T18:56:38.000Z</time>
      </trkpt>
      <trkpt lat="42.59653" lon="2.37651">
        <ele>416</ele>
        <time>2022-08-28T18:56:48.000Z</time>
      </trkpt>
      <trkpt lat="42.5966" lon="2.37658">
        <ele>414</ele>
        <time>2022-08-28T18:56:50.000Z</time>
      </trkpt>
      <trkpt lat="42.59711" lon="2.37739">
        <ele>414</ele>
        <time>2022-08-28T18:57:04.000Z</time>
      </trkpt>
      <trkpt lat="42.59897" lon="2.37966">
        <ele>409</ele>
        <time>2022-08-28T18:57:48.000Z</time>
      </trkpt>
      <trkpt lat="42.60032" lon="2.38141">
        <ele>410</ele>
        <time>2022-08-28T18:58:21.000Z</time>
      </trkpt>
      <trkpt lat="42.60133" lon="2.38311">
        <ele>401</ele>
        <time>2022-08-28T18:58:50.000Z</time>
      </trkpt>
      <trkpt lat="42.60198" lon="2.38478">
        <ele>398</ele>
        <time>2022-08-28T18:59:15.000Z</time>
      </trkpt>
      <trkpt lat="42.60381" lon="2.39027">
        <ele>398</ele>
        <time>2022-08-28T19:00:34.000Z</time>
      </trkpt>
      <trkpt lat="42.6045" lon="2.39243">
        <ele>399</ele>
        <time>2022-08-28T19:01:05.000Z</time>
      </trkpt>
      <trkpt lat="42.60543" lon="2.39466">
        <ele>396</ele>
        <time>2022-08-28T19:01:38.000Z</time>
      </trkpt>
      <trkpt lat="42.60577" lon="2.39563">
        <ele>394</ele>
        <time>2022-08-28T19:01:52.000Z</time>
      </trkpt>
      <trkpt lat="42.60591" lon="2.39647">
        <ele>390</ele>
        <time>2022-08-28T19:02:04.000Z</time>
      </trkpt>
      <trkpt lat="42.60594" lon="2.39654">
        <ele>389</ele>
        <time>2022-08-28T19:02:05.000Z</time>
      </trkpt>
      <trkpt lat="42.60577" lon="2.39754">
        <ele>389</ele>
        <time>2022-08-28T19:02:18.000Z</time>
      </trkpt>
      <trkpt lat="42.60582" lon="2.39772">
        <ele>388</ele>
        <time>2022-08-28T19:02:21.000Z</time>
      </trkpt>
      <trkpt lat="42.60702" lon="2.40142">
        <ele>374</ele>
        <time>2022-08-28T19:03:14.000Z</time>
      </trkpt>
      <trkpt lat="42.60849" lon="2.40466">
        <ele>377</ele>
        <time>2022-08-28T19:04:04.000Z</time>
      </trkpt>
      <trkpt lat="42.60877" lon="2.40544">
        <ele>374</ele>
        <time>2022-08-28T19:04:15.000Z</time>
      </trkpt>
      <trkpt lat="42.60901" lon="2.40662">
        <ele>374</ele>
        <time>2022-08-28T19:04:31.000Z</time>
      </trkpt>
      <trkpt lat="42.60922" lon="2.40704">
        <ele>380</ele>
        <time>2022-08-28T19:04:38.000Z</time>
      </trkpt>
      <trkpt lat="42.60946" lon="2.40738">
        <ele>383</ele>
        <time>2022-08-28T19:04:44.000Z</time>
      </trkpt>
      <trkpt lat="42.60989" lon="2.40759">
        <ele>373</ele>
        <time>2022-08-28T19:04:52.000Z</time>
      </trkpt>
      <trkpt lat="42.61007" lon="2.4077">
        <ele>370</ele>
        <time>2022-08-28T19:04:56.000Z</time>
      </trkpt>
      <trkpt lat="42.61018" lon="2.40784">
        <ele>372</ele>
        <time>2022-08-28T19:04:58.000Z</time>
      </trkpt>
      <trkpt lat="42.61076" lon="2.40883">
        <ele>375</ele>
        <time>2022-08-28T19:05:15.000Z</time>
      </trkpt>
      <trkpt lat="42.61303" lon="2.41072">
        <ele>359</ele>
        <time>2022-08-28T19:06:02.000Z</time>
      </trkpt>
      <trkpt lat="42.61343" lon="2.41101">
        <ele>356</ele>
        <time>2022-08-28T19:06:10.000Z</time>
      </trkpt>
      <trkpt lat="42.61394" lon="2.41126">
        <ele>354</ele>
        <time>2022-08-28T19:06:20.000Z</time>
      </trkpt>
      <trkpt lat="42.61446" lon="2.41147">
        <ele>352</ele>
        <time>2022-08-28T19:06:30.000Z</time>
      </trkpt>
      <trkpt lat="42.61571" lon="2.41179">
        <ele>347</ele>
        <time>2022-08-28T19:06:52.000Z</time>
      </trkpt>
      <trkpt lat="42.61675" lon="2.41232">
        <ele>348</ele>
        <time>2022-08-28T19:07:12.000Z</time>
      </trkpt>
      <trkpt lat="42.61721" lon="2.4124">
        <ele>347</ele>
        <time>2022-08-28T19:07:20.000Z</time>
      </trkpt>
      <trkpt lat="42.618" lon="2.41232">
        <ele>344</ele>
        <time>2022-08-28T19:07:34.000Z</time>
      </trkpt>
      <trkpt lat="42.61828" lon="2.41234">
        <ele>343</ele>
        <time>2022-08-28T19:07:39.000Z</time>
      </trkpt>
      <trkpt lat="42.61868" lon="2.41248">
        <ele>344</ele>
        <time>2022-08-28T19:07:47.000Z</time>
      </trkpt>
      <trkpt lat="42.61898" lon="2.41269">
        <ele>345</ele>
        <time>2022-08-28T19:07:53.000Z</time>
      </trkpt>
      <trkpt lat="42.6194" lon="2.41318">
        <ele>345</ele>
        <time>2022-08-28T19:08:03.000Z</time>
      </trkpt>
      <trkpt lat="42.6195" lon="2.41336">
        <ele>344</ele>
        <time>2022-08-28T19:08:06.000Z</time>
      </trkpt>
      <trkpt lat="42.62027" lon="2.41504">
        <ele>340</ele>
        <time>2022-08-28T19:08:31.000Z</time>
      </trkpt>
      <trkpt lat="42.62095" lon="2.41627">
        <ele>334</ele>
        <time>2022-08-28T19:08:52.000Z</time>
      </trkpt>
      <trkpt lat="42.621" lon="2.41658">
        <ele>335</ele>
        <time>2022-08-28T19:08:56.000Z</time>
      </trkpt>
      <trkpt lat="42.62104" lon="2.41668">
        <ele>335</ele>
        <time>2022-08-28T19:08:57.000Z</time>
      </trkpt>
      <trkpt lat="42.62114" lon="2.41678">
        <ele>335</ele>
        <time>2022-08-28T19:09:00.000Z</time>
      </trkpt>
      <trkpt lat="42.62127" lon="2.4168">
        <ele>335</ele>
        <time>2022-08-28T19:09:02.000Z</time>
      </trkpt>
      <trkpt lat="42.62167" lon="2.41755">
        <ele>335</ele>
        <time>2022-08-28T19:09:14.000Z</time>
      </trkpt>
      <trkpt lat="42.62252" lon="2.41958">
        <ele>334</ele>
        <time>2022-08-28T19:09:45.000Z</time>
      </trkpt>
      <trkpt lat="42.62306" lon="2.4211">
        <ele>329</ele>
        <time>2022-08-28T19:10:07.000Z</time>
      </trkpt>
      <trkpt lat="42.62422" lon="2.42544">
        <ele>333</ele>
        <time>2022-08-28T19:11:07.000Z</time>
      </trkpt>
      <trkpt lat="42.62425" lon="2.42625">
        <ele>335</ele>
        <time>2022-08-28T19:11:18.000Z</time>
      </trkpt>
      <trkpt lat="42.62409" lon="2.42702">
        <ele>336</ele>
        <time>2022-08-28T19:11:28.000Z</time>
      </trkpt>
      <trkpt lat="42.62385" lon="2.42717">
        <ele>337</ele>
        <time>2022-08-28T19:11:33.000Z</time>
      </trkpt>
      <trkpt lat="42.62382" lon="2.42729">
        <ele>337</ele>
        <time>2022-08-28T19:11:35.000Z</time>
      </trkpt>
      <trkpt lat="42.62395" lon="2.42762">
        <ele>337</ele>
        <time>2022-08-28T19:11:40.000Z</time>
      </trkpt>
      <trkpt lat="42.62398" lon="2.42794">
        <ele>338</ele>
        <time>2022-08-28T19:11:44.000Z</time>
      </trkpt>
      <trkpt lat="42.62375" lon="2.43192">
        <ele>331</ele>
        <time>2022-08-28T19:12:37.000Z</time>
      </trkpt>
      <trkpt lat="42.62362" lon="2.43319">
        <ele>332</ele>
        <time>2022-08-28T19:12:53.000Z</time>
      </trkpt>
      <trkpt lat="42.62267" lon="2.43874">
        <ele>340</ele>
        <time>2022-08-28T19:14:08.000Z</time>
      </trkpt>
      <trkpt lat="42.62247" lon="2.43884">
        <ele>341</ele>
        <time>2022-08-28T19:14:12.000Z</time>
      </trkpt>
      <trkpt lat="42.62246" lon="2.43901">
        <ele>341</ele>
        <time>2022-08-28T19:14:14.000Z</time>
      </trkpt>
      <trkpt lat="42.62252" lon="2.43913">
        <ele>341</ele>
        <time>2022-08-28T19:14:16.000Z</time>
      </trkpt>
      <trkpt lat="42.62264" lon="2.43916">
        <ele>341</ele>
        <time>2022-08-28T19:14:18.000Z</time>
      </trkpt>
      <trkpt lat="42.62267" lon="2.43937">
        <ele>341</ele>
        <time>2022-08-28T19:14:21.000Z</time>
      </trkpt>
      <trkpt lat="42.62308" lon="2.44064">
        <ele>339</ele>
        <time>2022-08-28T19:14:39.000Z</time>
      </trkpt>
      <trkpt lat="42.62473" lon="2.44534">
        <ele>334</ele>
        <time>2022-08-28T19:15:48.000Z</time>
      </trkpt>
      <trkpt lat="42.62566" lon="2.44822">
        <ele>330</ele>
        <time>2022-08-28T19:16:29.000Z</time>
      </trkpt>
      <trkpt lat="42.62585" lon="2.44864">
        <ele>329</ele>
        <time>2022-08-28T19:16:35.000Z</time>
      </trkpt>
      <trkpt lat="42.62617" lon="2.44906">
        <ele>328</ele>
        <time>2022-08-28T19:16:43.000Z</time>
      </trkpt>
      <trkpt lat="42.627" lon="2.4498">
        <ele>324</ele>
        <time>2022-08-28T19:17:01.000Z</time>
      </trkpt>
      <trkpt lat="42.62727" lon="2.45014">
        <ele>322</ele>
        <time>2022-08-28T19:17:07.000Z</time>
      </trkpt>
      <trkpt lat="42.62902" lon="2.45313">
        <ele>325</ele>
        <time>2022-08-28T19:17:57.000Z</time>
      </trkpt>
      <trkpt lat="42.63043" lon="2.45562">
        <ele>318</ele>
        <time>2022-08-28T19:18:39.000Z</time>
      </trkpt>
      <trkpt lat="42.63227" lon="2.45995">
        <ele>312</ele>
        <time>2022-08-28T19:19:44.000Z</time>
      </trkpt>
      <trkpt lat="42.63442" lon="2.46582">
        <ele>302</ele>
        <time>2022-08-28T19:21:10.000Z</time>
      </trkpt>
      <trkpt lat="42.63648" lon="2.46922">
        <ele>290</ele>
        <time>2022-08-28T19:22:08.000Z</time>
      </trkpt>
      <trkpt lat="42.63658" lon="2.46942">
        <ele>290</ele>
        <time>2022-08-28T19:22:11.000Z</time>
      </trkpt>
      <trkpt lat="42.64077" lon="2.47968">
        <ele>270</ele>
        <time>2022-08-28T19:24:45.000Z</time>
      </trkpt>
      <trkpt lat="42.64114" lon="2.48059">
        <ele>271</ele>
        <time>2022-08-28T19:24:58.000Z</time>
      </trkpt>
      <trkpt lat="42.6437" lon="2.49023">
        <ele>264</ele>
        <time>2022-08-28T19:27:13.000Z</time>
      </trkpt>
      <trkpt lat="42.64392" lon="2.49118">
        <ele>263</ele>
        <time>2022-08-28T19:27:26.000Z</time>
      </trkpt>
      <trkpt lat="42.64427" lon="2.50062">
        <ele>253</ele>
        <time>2022-08-28T19:29:29.000Z</time>
      </trkpt>
      <trkpt lat="42.6443" lon="2.50391">
        <ele>254</ele>
        <time>2022-08-28T19:30:13.000Z</time>
      </trkpt>
      <trkpt lat="42.64443" lon="2.50567">
        <ele>254</ele>
        <time>2022-08-28T19:30:36.000Z</time>
      </trkpt>
      <trkpt lat="42.6445" lon="2.50624">
        <ele>253</ele>
        <time>2022-08-28T19:30:43.000Z</time>
      </trkpt>
      <trkpt lat="42.64486" lon="2.50791">
        <ele>250</ele>
        <time>2022-08-28T19:31:06.000Z</time>
      </trkpt>
      <trkpt lat="42.64703" lon="2.51728">
        <ele>272</ele>
        <time>2022-08-28T19:33:15.000Z</time>
      </trkpt>
      <trkpt lat="42.64708" lon="2.51786">
        <ele>272</ele>
        <time>2022-08-28T19:33:22.000Z</time>
      </trkpt>
      <trkpt lat="42.64709" lon="2.51818">
        <ele>271</ele>
        <time>2022-08-28T19:33:27.000Z</time>
      </trkpt>
      <trkpt lat="42.64701" lon="2.51909">
        <ele>262</ele>
        <time>2022-08-28T19:33:39.000Z</time>
      </trkpt>
      <trkpt lat="42.6466" lon="2.52079">
        <ele>248</ele>
        <time>2022-08-28T19:34:02.000Z</time>
      </trkpt>
      <trkpt lat="42.64652" lon="2.52124">
        <ele>247</ele>
        <time>2022-08-28T19:34:08.000Z</time>
      </trkpt>
      <trkpt lat="42.64649" lon="2.52223">
        <ele>246</ele>
        <time>2022-08-28T19:34:21.000Z</time>
      </trkpt>
      <trkpt lat="42.64652" lon="2.52249">
        <ele>246</ele>
        <time>2022-08-28T19:34:24.000Z</time>
      </trkpt>
      <trkpt lat="42.64664" lon="2.52309">
        <ele>247</ele>
        <time>2022-08-28T19:34:33.000Z</time>
      </trkpt>
      <trkpt lat="42.64688" lon="2.52382">
        <ele>245</ele>
        <time>2022-08-28T19:34:43.000Z</time>
      </trkpt>
      <trkpt lat="42.64903" lon="2.52888">
        <ele>246</ele>
        <time>2022-08-28T19:36:00.000Z</time>
      </trkpt>
      <trkpt lat="42.64928" lon="2.5294">
        <ele>245</ele>
        <time>2022-08-28T19:36:08.000Z</time>
      </trkpt>
      <trkpt lat="42.65009" lon="2.53194">
        <ele>243</ele>
        <time>2022-08-28T19:36:44.000Z</time>
      </trkpt>
      <trkpt lat="42.65012" lon="2.53199">
        <ele>243</ele>
        <time>2022-08-28T19:36:45.000Z</time>
      </trkpt>
      <trkpt lat="42.65089" lon="2.53509">
        <ele>240</ele>
        <time>2022-08-28T19:37:28.000Z</time>
      </trkpt>
      <trkpt lat="42.65101" lon="2.53572">
        <ele>240</ele>
        <time>2022-08-28T19:37:36.000Z</time>
      </trkpt>
      <trkpt lat="42.65107" lon="2.5369">
        <ele>245</ele>
        <time>2022-08-28T19:37:52.000Z</time>
      </trkpt>
      <trkpt lat="42.65099" lon="2.53889">
        <ele>251</ele>
        <time>2022-08-28T19:38:18.000Z</time>
      </trkpt>
      <trkpt lat="42.65107" lon="2.54012">
        <ele>250</ele>
        <time>2022-08-28T19:38:34.000Z</time>
      </trkpt>
      <trkpt lat="42.65106" lon="2.5403">
        <ele>249</ele>
        <time>2022-08-28T19:38:36.000Z</time>
      </trkpt>
      <trkpt lat="42.65124" lon="2.5411">
        <ele>242</ele>
        <time>2022-08-28T19:38:47.000Z</time>
      </trkpt>
      <trkpt lat="42.65194" lon="2.54289">
        <ele>245</ele>
        <time>2022-08-28T19:39:14.000Z</time>
      </trkpt>
      <trkpt lat="42.65209" lon="2.54314">
        <ele>245</ele>
        <time>2022-08-28T19:39:18.000Z</time>
      </trkpt>
      <trkpt lat="42.6525" lon="2.5445">
        <ele>249</ele>
        <time>2022-08-28T19:39:37.000Z</time>
      </trkpt>
      <trkpt lat="42.65257" lon="2.54505">
        <ele>251</ele>
        <time>2022-08-28T19:39:45.000Z</time>
      </trkpt>
      <trkpt lat="42.65259" lon="2.54556">
        <ele>247</ele>
        <time>2022-08-28T19:39:51.000Z</time>
      </trkpt>
      <trkpt lat="42.65257" lon="2.54629">
        <ele>243</ele>
        <time>2022-08-28T19:40:01.000Z</time>
      </trkpt>
      <trkpt lat="42.65231" lon="2.54804">
        <ele>231</ele>
        <time>2022-08-28T19:40:24.000Z</time>
      </trkpt>
      <trkpt lat="42.65226" lon="2.54899">
        <ele>224</ele>
        <time>2022-08-28T19:40:37.000Z</time>
      </trkpt>
      <trkpt lat="42.65236" lon="2.55069">
        <ele>220</ele>
        <time>2022-08-28T19:40:59.000Z</time>
      </trkpt>
      <trkpt lat="42.65237" lon="2.55151">
        <ele>219</ele>
        <time>2022-08-28T19:41:10.000Z</time>
      </trkpt>
      <trkpt lat="42.65206" lon="2.55308">
        <ele>218</ele>
        <time>2022-08-28T19:41:31.000Z</time>
      </trkpt>
      <trkpt lat="42.65187" lon="2.55351">
        <ele>217</ele>
        <time>2022-08-28T19:41:38.000Z</time>
      </trkpt>
      <trkpt lat="42.65156" lon="2.55406">
        <ele>216</ele>
        <time>2022-08-28T19:41:47.000Z</time>
      </trkpt>
      <trkpt lat="42.65103" lon="2.55476">
        <ele>215</ele>
        <time>2022-08-28T19:42:00.000Z</time>
      </trkpt>
      <trkpt lat="42.64784" lon="2.55755">
        <ele>220</ele>
        <time>2022-08-28T19:43:07.000Z</time>
      </trkpt>
      <trkpt lat="42.64706" lon="2.55837">
        <ele>224</ele>
        <time>2022-08-28T19:43:25.000Z</time>
      </trkpt>
      <trkpt lat="42.64647" lon="2.55909">
        <ele>228</ele>
        <time>2022-08-28T19:43:39.000Z</time>
      </trkpt>
      <trkpt lat="42.64584" lon="2.55992">
        <ele>232</ele>
        <time>2022-08-28T19:43:55.000Z</time>
      </trkpt>
      <trkpt lat="42.64543" lon="2.56095">
        <ele>236</ele>
        <time>2022-08-28T19:44:10.000Z</time>
      </trkpt>
      <trkpt lat="42.64539" lon="2.56148">
        <ele>237</ele>
        <time>2022-08-28T19:44:17.000Z</time>
      </trkpt>
      <trkpt lat="42.64548" lon="2.56192">
        <ele>237</ele>
        <time>2022-08-28T19:44:23.000Z</time>
      </trkpt>
      <trkpt lat="42.64576" lon="2.56267">
        <ele>235</ele>
        <time>2022-08-28T19:44:34.000Z</time>
      </trkpt>
      <trkpt lat="42.64673" lon="2.56472">
        <ele>230</ele>
        <time>2022-08-28T19:45:06.000Z</time>
      </trkpt>
      <trkpt lat="42.64682" lon="2.56499">
        <ele>230</ele>
        <time>2022-08-28T19:45:10.000Z</time>
      </trkpt>
      <trkpt lat="42.64691" lon="2.56556">
        <ele>230</ele>
        <time>2022-08-28T19:45:17.000Z</time>
      </trkpt>
      <trkpt lat="42.64688" lon="2.5669">
        <ele>225</ele>
        <time>2022-08-28T19:45:35.000Z</time>
      </trkpt>
      <trkpt lat="42.64697" lon="2.56737">
        <ele>223</ele>
        <time>2022-08-28T19:45:41.000Z</time>
      </trkpt>
      <trkpt lat="42.64706" lon="2.56759">
        <ele>222</ele>
        <time>2022-08-28T19:45:45.000Z</time>
      </trkpt>
      <trkpt lat="42.6472" lon="2.56786">
        <ele>222</ele>
        <time>2022-08-28T19:45:49.000Z</time>
      </trkpt>
      <trkpt lat="42.64744" lon="2.56814">
        <ele>220</ele>
        <time>2022-08-28T19:45:55.000Z</time>
      </trkpt>
      <trkpt lat="42.64771" lon="2.56833">
        <ele>218</ele>
        <time>2022-08-28T19:46:00.000Z</time>
      </trkpt>
      <trkpt lat="42.64834" lon="2.5686">
        <ele>215</ele>
        <time>2022-08-28T19:46:12.000Z</time>
      </trkpt>
      <trkpt lat="42.64877" lon="2.56895">
        <ele>214</ele>
        <time>2022-08-28T19:46:21.000Z</time>
      </trkpt>
      <trkpt lat="42.64899" lon="2.56925">
        <ele>212</ele>
        <time>2022-08-28T19:46:26.000Z</time>
      </trkpt>
      <trkpt lat="42.64909" lon="2.56944">
        <ele>211</ele>
        <time>2022-08-28T19:46:29.000Z</time>
      </trkpt>
      <trkpt lat="42.65008" lon="2.5721">
        <ele>207</ele>
        <time>2022-08-28T19:47:08.000Z</time>
      </trkpt>
      <trkpt lat="42.6512" lon="2.57408">
        <ele>203</ele>
        <time>2022-08-28T19:47:41.000Z</time>
      </trkpt>
      <trkpt lat="42.65183" lon="2.57548">
        <ele>195</ele>
        <time>2022-08-28T19:48:02.000Z</time>
      </trkpt>
      <trkpt lat="42.65176" lon="2.57611">
        <ele>193</ele>
        <time>2022-08-28T19:48:11.000Z</time>
      </trkpt>
      <trkpt lat="42.65145" lon="2.57725">
        <ele>199</ele>
        <time>2022-08-28T19:48:27.000Z</time>
      </trkpt>
      <trkpt lat="42.65031" lon="2.58052">
        <ele>203</ele>
        <time>2022-08-28T19:49:14.000Z</time>
      </trkpt>
      <trkpt lat="42.64956" lon="2.58326">
        <ele>205</ele>
        <time>2022-08-28T19:49:52.000Z</time>
      </trkpt>
      <trkpt lat="42.64913" lon="2.58497">
        <ele>198</ele>
        <time>2022-08-28T19:50:16.000Z</time>
      </trkpt>
      <trkpt lat="42.64919" lon="2.5863">
        <ele>195</ele>
        <time>2022-08-28T19:50:34.000Z</time>
      </trkpt>
      <trkpt lat="42.64925" lon="2.58708">
        <ele>193</ele>
        <time>2022-08-28T19:50:44.000Z</time>
      </trkpt>
      <trkpt lat="42.64915" lon="2.5873">
        <ele>192</ele>
        <time>2022-08-28T19:50:47.000Z</time>
      </trkpt>
      <trkpt lat="42.64908" lon="2.58753">
        <ele>191</ele>
        <time>2022-08-28T19:50:51.000Z</time>
      </trkpt>
      <trkpt lat="42.64918" lon="2.58772">
        <ele>189</ele>
        <time>2022-08-28T19:50:54.000Z</time>
      </trkpt>
      <trkpt lat="42.64897" lon="2.58931">
        <ele>181</ele>
        <time>2022-08-28T19:51:15.000Z</time>
      </trkpt>
      <trkpt lat="42.64895" lon="2.58962">
        <ele>180</ele>
        <time>2022-08-28T19:51:19.000Z</time>
      </trkpt>
      <trkpt lat="42.64905" lon="2.59055">
        <ele>180</ele>
        <time>2022-08-28T19:51:31.000Z</time>
      </trkpt>
      <trkpt lat="42.64913" lon="2.59097">
        <ele>180</ele>
        <time>2022-08-28T19:51:37.000Z</time>
      </trkpt>
      <trkpt lat="42.6501" lon="2.59401">
        <ele>179</ele>
        <time>2022-08-28T19:52:20.000Z</time>
      </trkpt>
      <trkpt lat="42.65024" lon="2.59443">
        <ele>178</ele>
        <time>2022-08-28T19:52:26.000Z</time>
      </trkpt>
      <trkpt lat="42.65064" lon="2.5954">
        <ele>176</ele>
        <time>2022-08-28T19:52:41.000Z</time>
      </trkpt>
      <trkpt lat="42.65081" lon="2.59603">
        <ele>176</ele>
        <time>2022-08-28T19:52:50.000Z</time>
      </trkpt>
      <trkpt lat="42.65102" lon="2.59812">
        <ele>178</ele>
        <time>2022-08-28T19:53:17.000Z</time>
      </trkpt>
      <trkpt lat="42.65097" lon="2.60017">
        <ele>183</ele>
        <time>2022-08-28T19:53:44.000Z</time>
      </trkpt>
      <trkpt lat="42.65121" lon="2.60267">
        <ele>181</ele>
        <time>2022-08-28T19:54:17.000Z</time>
      </trkpt>
      <trkpt lat="42.65144" lon="2.60392">
        <ele>180</ele>
        <time>2022-08-28T19:54:34.000Z</time>
      </trkpt>
      <trkpt lat="42.65264" lon="2.60697">
        <ele>178</ele>
        <time>2022-08-28T19:55:19.000Z</time>
      </trkpt>
      <trkpt lat="42.65286" lon="2.60738">
        <ele>178</ele>
        <time>2022-08-28T19:55:26.000Z</time>
      </trkpt>
      <trkpt lat="42.65354" lon="2.60797">
        <ele>171</ele>
        <time>2022-08-28T19:55:40.000Z</time>
      </trkpt>
      <trkpt lat="42.65374" lon="2.60818">
        <ele>172</ele>
        <time>2022-08-28T19:55:45.000Z</time>
      </trkpt>
      <trkpt lat="42.65491" lon="2.60977">
        <ele>169</ele>
        <time>2022-08-28T19:56:14.000Z</time>
      </trkpt>
      <trkpt lat="42.65526" lon="2.61018">
        <ele>166</ele>
        <time>2022-08-28T19:56:22.000Z</time>
      </trkpt>
      <trkpt lat="42.65562" lon="2.61048">
        <ele>164</ele>
        <time>2022-08-28T19:56:30.000Z</time>
      </trkpt>
      <trkpt lat="42.65652" lon="2.61114">
        <ele>163</ele>
        <time>2022-08-28T19:56:48.000Z</time>
      </trkpt>
      <trkpt lat="42.65679" lon="2.61154">
        <ele>163</ele>
        <time>2022-08-28T19:56:55.000Z</time>
      </trkpt>
      <trkpt lat="42.65683" lon="2.61172">
        <ele>162</ele>
        <time>2022-08-28T19:56:58.000Z</time>
      </trkpt>
      <trkpt lat="42.65682" lon="2.61216">
        <ele>162</ele>
        <time>2022-08-28T19:57:04.000Z</time>
      </trkpt>
      <trkpt lat="42.65644" lon="2.61389">
        <ele>159</ele>
        <time>2022-08-28T19:57:27.000Z</time>
      </trkpt>
      <trkpt lat="42.65637" lon="2.61524">
        <ele>160</ele>
        <time>2022-08-28T19:57:45.000Z</time>
      </trkpt>
      <trkpt lat="42.65631" lon="2.61564">
        <ele>160</ele>
        <time>2022-08-28T19:57:50.000Z</time>
      </trkpt>
      <trkpt lat="42.65562" lon="2.61727">
        <ele>160</ele>
        <time>2022-08-28T19:58:15.000Z</time>
      </trkpt>
      <trkpt lat="42.65558" lon="2.61753">
        <ele>160</ele>
        <time>2022-08-28T19:58:19.000Z</time>
      </trkpt>
      <trkpt lat="42.65558" lon="2.61853">
        <ele>163</ele>
        <time>2022-08-28T19:58:32.000Z</time>
      </trkpt>
      <trkpt lat="42.65561" lon="2.61916">
        <ele>163</ele>
        <time>2022-08-28T19:58:40.000Z</time>
      </trkpt>
      <trkpt lat="42.65584" lon="2.62185">
        <ele>164</ele>
        <time>2022-08-28T19:59:15.000Z</time>
      </trkpt>
      <trkpt lat="42.65586" lon="2.62189">
        <ele>164</ele>
        <time>2022-08-28T19:59:16.000Z</time>
      </trkpt>
      <trkpt lat="42.65582" lon="2.62232">
        <ele>163</ele>
        <time>2022-08-28T19:59:22.000Z</time>
      </trkpt>
      <trkpt lat="42.65554" lon="2.62348">
        <ele>164</ele>
        <time>2022-08-28T19:59:38.000Z</time>
      </trkpt>
      <trkpt lat="42.65518" lon="2.62675">
        <ele>166</ele>
        <time>2022-08-28T20:00:21.000Z</time>
      </trkpt>
      <trkpt lat="42.65518" lon="2.62763">
        <ele>165</ele>
        <time>2022-08-28T20:00:33.000Z</time>
      </trkpt>
      <trkpt lat="42.65521" lon="2.6281">
        <ele>166</ele>
        <time>2022-08-28T20:00:39.000Z</time>
      </trkpt>
      <trkpt lat="42.65557" lon="2.63024">
        <ele>166</ele>
        <time>2022-08-28T20:01:07.000Z</time>
      </trkpt>
      <trkpt lat="42.656" lon="2.63232">
        <ele>166</ele>
        <time>2022-08-28T20:01:36.000Z</time>
      </trkpt>
      <trkpt lat="42.65646" lon="2.63401">
        <ele>165</ele>
        <time>2022-08-28T20:01:59.000Z</time>
      </trkpt>
      <trkpt lat="42.65668" lon="2.63632">
        <ele>165</ele>
        <time>2022-08-28T20:02:30.000Z</time>
      </trkpt>
      <trkpt lat="42.65678" lon="2.63715">
        <ele>165</ele>
        <time>2022-08-28T20:02:41.000Z</time>
      </trkpt>
      <trkpt lat="42.65692" lon="2.63781">
        <ele>164</ele>
        <time>2022-08-28T20:02:50.000Z</time>
      </trkpt>
      <trkpt lat="42.65728" lon="2.63917">
        <ele>163</ele>
        <time>2022-08-28T20:03:09.000Z</time>
      </trkpt>
      <trkpt lat="42.65754" lon="2.64092">
        <ele>163</ele>
        <time>2022-08-28T20:03:32.000Z</time>
      </trkpt>
      <trkpt lat="42.65777" lon="2.64186">
        <ele>161</ele>
        <time>2022-08-28T20:03:45.000Z</time>
      </trkpt>
      <trkpt lat="42.65799" lon="2.64204">
        <ele>160</ele>
        <time>2022-08-28T20:03:50.000Z</time>
      </trkpt>
      <trkpt lat="42.65795" lon="2.64232">
        <ele>160</ele>
        <time>2022-08-28T20:03:53.000Z</time>
      </trkpt>
      <trkpt lat="42.65796" lon="2.64289">
        <ele>159</ele>
        <time>2022-08-28T20:04:01.000Z</time>
      </trkpt>
      <trkpt lat="42.65838" lon="2.64583">
        <ele>160</ele>
        <time>2022-08-28T20:04:40.000Z</time>
      </trkpt>
      <trkpt lat="42.6584" lon="2.64609">
        <ele>159</ele>
        <time>2022-08-28T20:04:43.000Z</time>
      </trkpt>
      <trkpt lat="42.65839" lon="2.64673">
        <ele>159</ele>
        <time>2022-08-28T20:04:52.000Z</time>
      </trkpt>
      <trkpt lat="42.65835" lon="2.64772">
        <ele>161</ele>
        <time>2022-08-28T20:05:05.000Z</time>
      </trkpt>
      <trkpt lat="42.65851" lon="2.65168">
        <ele>154</ele>
        <time>2022-08-28T20:05:57.000Z</time>
      </trkpt>
      <trkpt lat="42.65855" lon="2.65233">
        <ele>153</ele>
        <time>2022-08-28T20:06:05.000Z</time>
      </trkpt>
      <trkpt lat="42.65906" lon="2.65604">
        <ele>149</ele>
        <time>2022-08-28T20:06:55.000Z</time>
      </trkpt>
      <trkpt lat="42.65944" lon="2.65994">
        <ele>151</ele>
        <time>2022-08-28T20:07:46.000Z</time>
      </trkpt>
      <trkpt lat="42.65954" lon="2.66193">
        <ele>155</ele>
        <time>2022-08-28T20:08:12.000Z</time>
      </trkpt>
      <trkpt lat="42.65909" lon="2.66882">
        <ele>157</ele>
        <time>2022-08-28T20:09:43.000Z</time>
      </trkpt>
      <trkpt lat="42.65907" lon="2.66894">
        <ele>157</ele>
        <time>2022-08-28T20:09:45.000Z</time>
      </trkpt>
      <trkpt lat="42.65911" lon="2.66906">
        <ele>157</ele>
        <time>2022-08-28T20:09:47.000Z</time>
      </trkpt>
      <trkpt lat="42.65925" lon="2.66909">
        <ele>157</ele>
        <time>2022-08-28T20:09:49.000Z</time>
      </trkpt>
      <trkpt lat="42.65933" lon="2.66912">
        <ele>157</ele>
        <time>2022-08-28T20:09:51.000Z</time>
      </trkpt>
      <trkpt lat="42.66024" lon="2.66986">
        <ele>152</ele>
        <time>2022-08-28T20:10:10.000Z</time>
      </trkpt>
      <trkpt lat="42.66063" lon="2.67031">
        <ele>150</ele>
        <time>2022-08-28T20:10:19.000Z</time>
      </trkpt>
      <trkpt lat="42.66103" lon="2.67124">
        <ele>149</ele>
        <time>2022-08-28T20:10:33.000Z</time>
      </trkpt>
      <trkpt lat="42.66108" lon="2.6715">
        <ele>149</ele>
        <time>2022-08-28T20:10:36.000Z</time>
      </trkpt>
      <trkpt lat="42.66107" lon="2.67376">
        <ele>148</ele>
        <time>2022-08-28T20:11:06.000Z</time>
      </trkpt>
      <trkpt lat="42.66106" lon="2.67645">
        <ele>147</ele>
        <time>2022-08-28T20:11:41.000Z</time>
      </trkpt>
      <trkpt lat="42.6609" lon="2.67886">
        <ele>148</ele>
        <time>2022-08-28T20:12:13.000Z</time>
      </trkpt>
      <trkpt lat="42.66082" lon="2.67943">
        <ele>148</ele>
        <time>2022-08-28T20:12:21.000Z</time>
      </trkpt>
      <trkpt lat="42.66068" lon="2.67989">
        <ele>147</ele>
        <time>2022-08-28T20:12:27.000Z</time>
      </trkpt>
      <trkpt lat="42.65957" lon="2.68233">
        <ele>147</ele>
        <time>2022-08-28T20:13:05.000Z</time>
      </trkpt>
      <trkpt lat="42.6595" lon="2.68239">
        <ele>147</ele>
        <time>2022-08-28T20:13:06.000Z</time>
      </trkpt>
      <trkpt lat="42.65925" lon="2.68278">
        <ele>148</ele>
        <time>2022-08-28T20:13:13.000Z</time>
      </trkpt>
      <trkpt lat="42.65908" lon="2.68286">
        <ele>148</ele>
        <time>2022-08-28T20:13:16.000Z</time>
      </trkpt>
      <trkpt lat="42.65843" lon="2.6831">
        <ele>148</ele>
        <time>2022-08-28T20:13:28.000Z</time>
      </trkpt>
      <trkpt lat="42.65796" lon="2.68356">
        <ele>149</ele>
        <time>2022-08-28T20:13:39.000Z</time>
      </trkpt>
      <trkpt lat="42.65786" lon="2.68373">
        <ele>149</ele>
        <time>2022-08-28T20:13:41.000Z</time>
      </trkpt>
      <trkpt lat="42.6569" lon="2.68758">
        <ele>145</ele>
        <time>2022-08-28T20:14:35.000Z</time>
      </trkpt>
      <trkpt lat="42.65666" lon="2.68823">
        <ele>143</ele>
        <time>2022-08-28T20:14:44.000Z</time>
      </trkpt>
      <trkpt lat="42.65507" lon="2.69071">
        <ele>138</ele>
        <time>2022-08-28T20:15:27.000Z</time>
      </trkpt>
      <trkpt lat="42.6545" lon="2.69139">
        <ele>138</ele>
        <time>2022-08-28T20:15:41.000Z</time>
      </trkpt>
      <trkpt lat="42.65427" lon="2.69182">
        <ele>138</ele>
        <time>2022-08-28T20:15:48.000Z</time>
      </trkpt>
      <trkpt lat="42.65354" lon="2.69365">
        <ele>141</ele>
        <time>2022-08-28T20:16:15.000Z</time>
      </trkpt>
      <trkpt lat="42.65232" lon="2.69549">
        <ele>145</ele>
        <time>2022-08-28T20:16:47.000Z</time>
      </trkpt>
      <trkpt lat="42.65191" lon="2.69613">
        <ele>144</ele>
        <time>2022-08-28T20:16:58.000Z</time>
      </trkpt>
      <trkpt lat="42.65137" lon="2.69735">
        <ele>144</ele>
        <time>2022-08-28T20:17:17.000Z</time>
      </trkpt>
      <trkpt lat="42.65098" lon="2.69835">
        <ele>143</ele>
        <time>2022-08-28T20:17:32.000Z</time>
      </trkpt>
      <trkpt lat="42.65046" lon="2.70141">
        <ele>144</ele>
        <time>2022-08-28T20:18:13.000Z</time>
      </trkpt>
      <trkpt lat="42.65035" lon="2.70173">
        <ele>144</ele>
        <time>2022-08-28T20:18:18.000Z</time>
      </trkpt>
      <trkpt lat="42.64886" lon="2.70432">
        <ele>141</ele>
        <time>2022-08-28T20:19:01.000Z</time>
      </trkpt>
      <trkpt lat="42.6488" lon="2.70438">
        <ele>141</ele>
        <time>2022-08-28T20:19:02.000Z</time>
      </trkpt>
      <trkpt lat="42.64881" lon="2.70458">
        <ele>141</ele>
        <time>2022-08-28T20:19:05.000Z</time>
      </trkpt>
      <trkpt lat="42.64878" lon="2.70492">
        <ele>140</ele>
        <time>2022-08-28T20:19:10.000Z</time>
      </trkpt>
      <trkpt lat="42.64859" lon="2.70554">
        <ele>140</ele>
        <time>2022-08-28T20:19:18.000Z</time>
      </trkpt>
      <trkpt lat="42.64842" lon="2.7059">
        <ele>141</ele>
        <time>2022-08-28T20:19:24.000Z</time>
      </trkpt>
      <trkpt lat="42.64816" lon="2.70616">
        <ele>142</ele>
        <time>2022-08-28T20:19:30.000Z</time>
      </trkpt>
      <trkpt lat="42.64811" lon="2.70621">
        <ele>142</ele>
        <time>2022-08-28T20:19:31.000Z</time>
      </trkpt>
      <trkpt lat="42.64802" lon="2.7065">
        <ele>143</ele>
        <time>2022-08-28T20:19:35.000Z</time>
      </trkpt>
      <trkpt lat="42.64765" lon="2.70704">
        <ele>143</ele>
        <time>2022-08-28T20:19:45.000Z</time>
      </trkpt>
      <trkpt lat="42.64618" lon="2.70895">
        <ele>144</ele>
        <time>2022-08-28T20:20:21.000Z</time>
      </trkpt>
      <trkpt lat="42.64607" lon="2.70924">
        <ele>143</ele>
        <time>2022-08-28T20:20:25.000Z</time>
      </trkpt>
      <trkpt lat="42.64597" lon="2.71012">
        <ele>142</ele>
        <time>2022-08-28T20:20:37.000Z</time>
      </trkpt>
      <trkpt lat="42.64572" lon="2.71322">
        <ele>136</ele>
        <time>2022-08-28T20:21:18.000Z</time>
      </trkpt>
      <trkpt lat="42.64529" lon="2.7162">
        <ele>131</ele>
        <time>2022-08-28T20:21:58.000Z</time>
      </trkpt>
      <trkpt lat="42.64501" lon="2.71745">
        <ele>129</ele>
        <time>2022-08-28T20:22:15.000Z</time>
      </trkpt>
      <trkpt lat="42.6442" lon="2.72077">
        <ele>126</ele>
        <time>2022-08-28T20:23:00.000Z</time>
      </trkpt>
      <trkpt lat="42.64365" lon="2.72215">
        <ele>124</ele>
        <time>2022-08-28T20:23:21.000Z</time>
      </trkpt>
      <trkpt lat="42.64179" lon="2.72588">
        <ele>122</ele>
        <time>2022-08-28T20:24:20.000Z</time>
      </trkpt>
      <trkpt lat="42.64119" lon="2.72792">
        <ele>120</ele>
        <time>2022-08-28T20:24:49.000Z</time>
      </trkpt>
      <trkpt lat="42.64076" lon="2.72934">
        <ele>118</ele>
        <time>2022-08-28T20:25:09.000Z</time>
      </trkpt>
      <trkpt lat="42.6401" lon="2.73216">
        <ele>112</ele>
        <time>2022-08-28T20:25:48.000Z</time>
      </trkpt>
      <trkpt lat="42.63992" lon="2.73277">
        <ele>111</ele>
        <time>2022-08-28T20:25:56.000Z</time>
      </trkpt>
      <trkpt lat="42.63955" lon="2.73353">
        <ele>111</ele>
        <time>2022-08-28T20:26:08.000Z</time>
      </trkpt>
      <trkpt lat="42.63944" lon="2.73378">
        <ele>111</ele>
        <time>2022-08-28T20:26:12.000Z</time>
      </trkpt>
      <trkpt lat="42.63901" lon="2.73521">
        <ele>113</ele>
        <time>2022-08-28T20:26:32.000Z</time>
      </trkpt>
      <trkpt lat="42.63858" lon="2.73648">
        <ele>113</ele>
        <time>2022-08-28T20:26:50.000Z</time>
      </trkpt>
      <trkpt lat="42.63801" lon="2.73776">
        <ele>112</ele>
        <time>2022-08-28T20:27:10.000Z</time>
      </trkpt>
      <trkpt lat="42.63754" lon="2.73891">
        <ele>111</ele>
        <time>2022-08-28T20:27:27.000Z</time>
      </trkpt>
      <trkpt lat="42.6374" lon="2.74054">
        <ele>108</ele>
        <time>2022-08-28T20:27:49.000Z</time>
      </trkpt>
      <trkpt lat="42.63732" lon="2.74148">
        <ele>105</ele>
        <time>2022-08-28T20:28:01.000Z</time>
      </trkpt>
      <trkpt lat="42.63747" lon="2.74302">
        <ele>100</ele>
        <time>2022-08-28T20:28:22.000Z</time>
      </trkpt>
      <trkpt lat="42.63747" lon="2.74374">
        <ele>100</ele>
        <time>2022-08-28T20:28:31.000Z</time>
      </trkpt>
      <trkpt lat="42.63712" lon="2.74698">
        <ele>97</ele>
        <time>2022-08-28T20:29:14.000Z</time>
      </trkpt>
      <trkpt lat="42.63706" lon="2.74936">
        <ele>94</ele>
        <time>2022-08-28T20:29:45.000Z</time>
      </trkpt>
      <trkpt lat="42.6369" lon="2.74993">
        <ele>94</ele>
        <time>2022-08-28T20:29:53.000Z</time>
      </trkpt>
      <trkpt lat="42.63688" lon="2.75003">
        <ele>94</ele>
        <time>2022-08-28T20:29:55.000Z</time>
      </trkpt>
      <trkpt lat="42.63626" lon="2.75144">
        <ele>97</ele>
        <time>2022-08-28T20:30:16.000Z</time>
      </trkpt>
      <trkpt lat="42.63615" lon="2.75164">
        <ele>98</ele>
        <time>2022-08-28T20:30:19.000Z</time>
      </trkpt>
      <trkpt lat="42.6346" lon="2.75417">
        <ele>102</ele>
        <time>2022-08-28T20:31:03.000Z</time>
      </trkpt>
      <trkpt lat="42.63438" lon="2.75445">
        <ele>103</ele>
        <time>2022-08-28T20:31:08.000Z</time>
      </trkpt>
      <trkpt lat="42.63366" lon="2.75369">
        <ele>105</ele>
        <time>2022-08-28T20:31:24.000Z</time>
      </trkpt>
      <trkpt lat="42.63311" lon="2.75321">
        <ele>107</ele>
        <time>2022-08-28T20:31:36.000Z</time>
      </trkpt>
      <trkpt lat="42.63252" lon="2.75311">
        <ele>107</ele>
        <time>2022-08-28T20:31:47.000Z</time>
      </trkpt>
      <trkpt lat="42.63245" lon="2.75313">
        <ele>107</ele>
        <time>2022-08-28T20:31:48.000Z</time>
      </trkpt>
      <trkpt lat="42.6323" lon="2.75374">
        <ele>107</ele>
        <time>2022-08-28T20:31:57.000Z</time>
      </trkpt>
      <trkpt lat="42.63217" lon="2.75434">
        <ele>107</ele>
        <time>2022-08-28T20:32:05.000Z</time>
      </trkpt>
      <trkpt lat="42.63173" lon="2.75541">
        <ele>107</ele>
        <time>2022-08-28T20:32:21.000Z</time>
      </trkpt>
      <trkpt lat="42.63146" lon="2.75659">
        <ele>104</ele>
        <time>2022-08-28T20:32:37.000Z</time>
      </trkpt>
      <trkpt lat="42.62938" lon="2.75989">
        <ele>102</ele>
        <time>2022-08-28T20:33:34.000Z</time>
      </trkpt>
      <trkpt lat="42.62963" lon="2.76044">
        <ele>101</ele>
        <time>2022-08-28T20:33:43.000Z</time>
      </trkpt>
      <trkpt lat="42.62888" lon="2.76107">
        <ele>100</ele>
        <time>2022-08-28T20:33:59.000Z</time>
      </trkpt>
      <trkpt lat="42.62868" lon="2.76129">
        <ele>99</ele>
        <time>2022-08-28T20:34:03.000Z</time>
      </trkpt>
      <trkpt lat="42.62856" lon="2.76122">
        <ele>99</ele>
        <time>2022-08-28T20:34:05.000Z</time>
      </trkpt>
      <trkpt lat="42.62845" lon="2.76131">
        <ele>99</ele>
        <time>2022-08-28T20:34:08.000Z</time>
      </trkpt>
      <trkpt lat="42.6284" lon="2.76172">
        <ele>99</ele>
        <time>2022-08-28T20:34:13.000Z</time>
      </trkpt>
      <trkpt lat="42.62834" lon="2.76186">
        <ele>99</ele>
        <time>2022-08-28T20:34:15.000Z</time>
      </trkpt>
      <trkpt lat="42.6261" lon="2.76589">
        <ele>98</ele>
        <time>2022-08-28T20:35:22.000Z</time>
      </trkpt>
      <trkpt lat="42.62607" lon="2.76589">
        <ele>98</ele>
        <time>2022-08-28T20:35:23.000Z</time>
      </trkpt>
      <trkpt lat="42.62477" lon="2.76843">
        <ele>101</ele>
        <time>2022-08-28T20:36:03.000Z</time>
      </trkpt>
      <trkpt lat="42.62471" lon="2.76844">
        <ele>101</ele>
        <time>2022-08-28T20:36:04.000Z</time>
      </trkpt>
      <trkpt lat="42.62471" lon="2.76857">
        <ele>101</ele>
        <time>2022-08-28T20:36:06.000Z</time>
      </trkpt>
      <trkpt lat="42.62387" lon="2.77017">
        <ele>100</ele>
        <time>2022-08-28T20:36:32.000Z</time>
      </trkpt>
      <trkpt lat="42.62373" lon="2.77028">
        <ele>100</ele>
        <time>2022-08-28T20:36:35.000Z</time>
      </trkpt>
      <trkpt lat="42.62366" lon="2.77031">
        <ele>100</ele>
        <time>2022-08-28T20:36:36.000Z</time>
      </trkpt>
      <trkpt lat="42.62364" lon="2.77053">
        <ele>100</ele>
        <time>2022-08-28T20:36:40.000Z</time>
      </trkpt>
      <trkpt lat="42.62356" lon="2.77073">
        <ele>100</ele>
        <time>2022-08-28T20:36:43.000Z</time>
      </trkpt>
      <trkpt lat="42.61915" lon="2.77905">
        <ele>95</ele>
        <time>2022-08-28T20:38:57.000Z</time>
      </trkpt>
      <trkpt lat="42.61892" lon="2.77975">
        <ele>96</ele>
        <time>2022-08-28T20:39:07.000Z</time>
      </trkpt>
      <trkpt lat="42.61813" lon="2.78375">
        <ele>106</ele>
        <time>2022-08-28T20:40:01.000Z</time>
      </trkpt>
      <trkpt lat="42.61802" lon="2.7845">
        <ele>109</ele>
        <time>2022-08-28T20:40:11.000Z</time>
      </trkpt>
      <trkpt lat="42.61795" lon="2.78692">
        <ele>116</ele>
        <time>2022-08-28T20:40:43.000Z</time>
      </trkpt>
      <trkpt lat="42.61771" lon="2.7903">
        <ele>112</ele>
        <time>2022-08-28T20:41:27.000Z</time>
      </trkpt>
      <trkpt lat="42.61626" lon="2.808">
        <ele>106</ele>
        <time>2022-08-28T20:45:20.000Z</time>
      </trkpt>
      <trkpt lat="42.61592" lon="2.80988">
        <ele>102</ele>
        <time>2022-08-28T20:45:46.000Z</time>
      </trkpt>
      <trkpt lat="42.61574" lon="2.81057">
        <ele>101</ele>
        <time>2022-08-28T20:45:55.000Z</time>
      </trkpt>
      <trkpt lat="42.61554" lon="2.81091">
        <ele>99</ele>
        <time>2022-08-28T20:46:01.000Z</time>
      </trkpt>
      <trkpt lat="42.61457" lon="2.81205">
        <ele>90</ele>
        <time>2022-08-28T20:46:24.000Z</time>
      </trkpt>
      <trkpt lat="42.61421" lon="2.81244">
        <ele>87</ele>
        <time>2022-08-28T20:46:32.000Z</time>
      </trkpt>
      <trkpt lat="42.61289" lon="2.81374">
        <ele>84</ele>
        <time>2022-08-28T20:47:01.000Z</time>
      </trkpt>
      <trkpt lat="42.61202" lon="2.81467">
        <ele>87</ele>
        <time>2022-08-28T20:47:21.000Z</time>
      </trkpt>
      <trkpt lat="42.61177" lon="2.8151">
        <ele>88</ele>
        <time>2022-08-28T20:47:28.000Z</time>
      </trkpt>
      <trkpt lat="42.61167" lon="2.81553">
        <ele>87</ele>
        <time>2022-08-28T20:47:34.000Z</time>
      </trkpt>
      <trkpt lat="42.61246" lon="2.82466">
        <ele>89</ele>
        <time>2022-08-28T20:49:35.000Z</time>
      </trkpt>
      <trkpt lat="42.6124" lon="2.82536">
        <ele>90</ele>
        <time>2022-08-28T20:49:44.000Z</time>
      </trkpt>
      <trkpt lat="42.60945" lon="2.83871">
        <ele>90</ele>
        <time>2022-08-28T20:52:46.000Z</time>
      </trkpt>
      <trkpt lat="42.60906" lon="2.84058">
        <ele>85</ele>
        <time>2022-08-28T20:53:12.000Z</time>
      </trkpt>
      <trkpt lat="42.60863" lon="2.84489">
        <ele>80</ele>
        <time>2022-08-28T20:54:09.000Z</time>
      </trkpt>
      <trkpt lat="42.60855" lon="2.84555">
        <ele>79</ele>
        <time>2022-08-28T20:54:17.000Z</time>
      </trkpt>
      <trkpt lat="42.60837" lon="2.8463">
        <ele>78</ele>
        <time>2022-08-28T20:54:28.000Z</time>
      </trkpt>
      <trkpt lat="42.6081" lon="2.84703">
        <ele>76</ele>
        <time>2022-08-28T20:54:39.000Z</time>
      </trkpt>
      <trkpt lat="42.60782" lon="2.84737">
        <ele>75</ele>
        <time>2022-08-28T20:54:45.000Z</time>
      </trkpt>
      <trkpt lat="42.60776" lon="2.84748">
        <ele>75</ele>
        <time>2022-08-28T20:54:47.000Z</time>
      </trkpt>
      <trkpt lat="42.60776" lon="2.84788">
        <ele>75</ele>
        <time>2022-08-28T20:54:52.000Z</time>
      </trkpt>
      <trkpt lat="42.60753" lon="2.84883">
        <ele>75</ele>
        <time>2022-08-28T20:55:06.000Z</time>
      </trkpt>
      <trkpt lat="42.60746" lon="2.84937">
        <ele>74</ele>
        <time>2022-08-28T20:55:13.000Z</time>
      </trkpt>
      <trkpt lat="42.6073" lon="2.85477">
        <ele>67</ele>
        <time>2022-08-28T20:56:23.000Z</time>
      </trkpt>
      <trkpt lat="42.60736" lon="2.85605">
        <ele>64</ele>
        <time>2022-08-28T20:56:40.000Z</time>
      </trkpt>
      <trkpt lat="42.60744" lon="2.85694">
        <ele>62</ele>
        <time>2022-08-28T20:56:52.000Z</time>
      </trkpt>
      <trkpt lat="42.60752" lon="2.8575">
        <ele>61</ele>
        <time>2022-08-28T20:56:59.000Z</time>
      </trkpt>
      <trkpt lat="42.60799" lon="2.85946">
        <ele>61</ele>
        <time>2022-08-28T20:57:27.000Z</time>
      </trkpt>
      <trkpt lat="42.60811" lon="2.85972">
        <ele>62</ele>
        <time>2022-08-28T20:57:31.000Z</time>
      </trkpt>
      <trkpt lat="42.6082" lon="2.8604">
        <ele>64</ele>
        <time>2022-08-28T20:57:40.000Z</time>
      </trkpt>
      <trkpt lat="42.6082" lon="2.86054">
        <ele>64</ele>
        <time>2022-08-28T20:57:41.000Z</time>
      </trkpt>
      <trkpt lat="42.60808" lon="2.86063">
        <ele>64</ele>
        <time>2022-08-28T20:57:44.000Z</time>
      </trkpt>
      <trkpt lat="42.6074" lon="2.8603">
        <ele>65</ele>
        <time>2022-08-28T20:57:57.000Z</time>
      </trkpt>
      <trkpt lat="42.60403" lon="2.85822">
        <ele>64</ele>
        <time>2022-08-28T20:59:03.000Z</time>
      </trkpt>
      <trkpt lat="42.60378" lon="2.8581">
        <ele>65</ele>
        <time>2022-08-28T20:59:08.000Z</time>
      </trkpt>
      <trkpt lat="42.60227" lon="2.85767">
        <ele>63</ele>
        <time>2022-08-28T20:59:35.000Z</time>
      </trkpt>
      <trkpt lat="42.60216" lon="2.85768">
        <ele>63</ele>
        <time>2022-08-28T20:59:37.000Z</time>
      </trkpt>
      <trkpt lat="42.60056" lon="2.85708">
        <ele>63</ele>
        <time>2022-08-28T21:00:06.000Z</time>
      </trkpt>
      <trkpt lat="42.59959" lon="2.85665">
        <ele>62</ele>
        <time>2022-08-28T21:00:25.000Z</time>
      </trkpt>
      <trkpt lat="42.5964" lon="2.85508">
        <ele>67</ele>
        <time>2022-08-28T21:01:25.000Z</time>
      </trkpt>
      <trkpt lat="42.59567" lon="2.85473">
        <ele>67</ele>
        <time>2022-08-28T21:01:39.000Z</time>
      </trkpt>
      <trkpt lat="42.59242" lon="2.85326">
        <ele>73</ele>
        <time>2022-08-28T21:02:40.000Z</time>
      </trkpt>
      <trkpt lat="42.59004" lon="2.85221">
        <ele>82</ele>
        <time>2022-08-28T21:03:24.000Z</time>
      </trkpt>
      <trkpt lat="42.5898" lon="2.85205">
        <ele>81</ele>
        <time>2022-08-28T21:03:29.000Z</time>
      </trkpt>
      <trkpt lat="42.58966" lon="2.8518">
        <ele>81</ele>
        <time>2022-08-28T21:03:33.000Z</time>
      </trkpt>
      <trkpt lat="42.58955" lon="2.85172">
        <ele>81</ele>
        <time>2022-08-28T21:03:36.000Z</time>
      </trkpt>
      <trkpt lat="42.5894" lon="2.85176">
        <ele>81</ele>
        <time>2022-08-28T21:03:38.000Z</time>
      </trkpt>
      <trkpt lat="42.58933" lon="2.85189">
        <ele>81</ele>
        <time>2022-08-28T21:03:41.000Z</time>
      </trkpt>
      <trkpt lat="42.58936" lon="2.85225">
        <ele>81</ele>
        <time>2022-08-28T21:03:45.000Z</time>
      </trkpt>
      <trkpt lat="42.5893" lon="2.85262">
        <ele>81</ele>
        <time>2022-08-28T21:03:50.000Z</time>
      </trkpt>
      <trkpt lat="42.58912" lon="2.85289">
        <ele>81</ele>
        <time>2022-08-28T21:03:55.000Z</time>
      </trkpt>
      <trkpt lat="42.58896" lon="2.853">
        <ele>81</ele>
        <time>2022-08-28T21:03:58.000Z</time>
      </trkpt>
      <trkpt lat="42.58871" lon="2.85306">
        <ele>81</ele>
        <time>2022-08-28T21:04:03.000Z</time>
      </trkpt>
      <trkpt lat="42.58862" lon="2.85305">
        <ele>81</ele>
        <time>2022-08-28T21:04:04.000Z</time>
      </trkpt>
      <trkpt lat="42.58808" lon="2.85283">
        <ele>81</ele>
        <time>2022-08-28T21:04:14.000Z</time>
      </trkpt>
      <trkpt lat="42.58789" lon="2.85279">
        <ele>80</ele>
        <time>2022-08-28T21:04:18.000Z</time>
      </trkpt>
      <trkpt lat="42.58739" lon="2.8529">
        <ele>80</ele>
        <time>2022-08-28T21:04:27.000Z</time>
      </trkpt>
      <trkpt lat="42.58725" lon="2.853">
        <ele>80</ele>
        <time>2022-08-28T21:04:30.000Z</time>
      </trkpt>
      <trkpt lat="42.58693" lon="2.85339">
        <ele>80</ele>
        <time>2022-08-28T21:04:37.000Z</time>
      </trkpt>
      <trkpt lat="42.58684" lon="2.8536">
        <ele>80</ele>
        <time>2022-08-28T21:04:41.000Z</time>
      </trkpt>
      <trkpt lat="42.58675" lon="2.85395">
        <ele>79</ele>
        <time>2022-08-28T21:04:45.000Z</time>
      </trkpt>
      <trkpt lat="42.58656" lon="2.85501">
        <ele>78</ele>
        <time>2022-08-28T21:05:00.000Z</time>
      </trkpt>
      <trkpt lat="42.5857" lon="2.85741">
        <ele>76</ele>
        <time>2022-08-28T21:05:35.000Z</time>
      </trkpt>
      <trkpt lat="42.58562" lon="2.85758">
        <ele>76</ele>
        <time>2022-08-28T21:05:37.000Z</time>
      </trkpt>
      <trkpt lat="42.58463" lon="2.85854">
        <ele>75</ele>
        <time>2022-08-28T21:05:59.000Z</time>
      </trkpt>
      <trkpt lat="42.58438" lon="2.85885">
        <ele>75</ele>
        <time>2022-08-28T21:06:05.000Z</time>
      </trkpt>
      <trkpt lat="42.58362" lon="2.86016">
        <ele>74</ele>
        <time>2022-08-28T21:06:27.000Z</time>
      </trkpt>
      <trkpt lat="42.58342" lon="2.86058">
        <ele>73</ele>
        <time>2022-08-28T21:06:34.000Z</time>
      </trkpt>
      <trkpt lat="42.58306" lon="2.86146">
        <ele>72</ele>
        <time>2022-08-28T21:06:47.000Z</time>
      </trkpt>
      <trkpt lat="42.58271" lon="2.86261">
        <ele>72</ele>
        <time>2022-08-28T21:07:03.000Z</time>
      </trkpt>
      <trkpt lat="42.58202" lon="2.86403">
        <ele>70</ele>
        <time>2022-08-28T21:07:25.000Z</time>
      </trkpt>
      <trkpt lat="42.58126" lon="2.86655">
        <ele>72</ele>
        <time>2022-08-28T21:08:01.000Z</time>
      </trkpt>
      <trkpt lat="42.58102" lon="2.86692">
        <ele>71</ele>
        <time>2022-08-28T21:08:08.000Z</time>
      </trkpt>
      <trkpt lat="42.58096" lon="2.86714">
        <ele>71</ele>
        <time>2022-08-28T21:08:11.000Z</time>
      </trkpt>
      <trkpt lat="42.58099" lon="2.86749">
        <ele>70</ele>
        <time>2022-08-28T21:08:15.000Z</time>
      </trkpt>
      <trkpt lat="42.58163" lon="2.86939">
        <ele>69</ele>
        <time>2022-08-28T21:08:43.000Z</time>
      </trkpt>
      <trkpt lat="42.58172" lon="2.86981">
        <ele>68</ele>
        <time>2022-08-28T21:08:49.000Z</time>
      </trkpt>
      <trkpt lat="42.58165" lon="2.86984">
        <ele>68</ele>
        <time>2022-08-28T21:08:50.000Z</time>
      </trkpt>
      <trkpt lat="42.58162" lon="2.86996">
        <ele>68</ele>
        <time>2022-08-28T21:08:51.000Z</time>
      </trkpt>
      <trkpt lat="42.58168" lon="2.87006">
        <ele>68</ele>
        <time>2022-08-28T21:08:53.000Z</time>
      </trkpt>
      <trkpt lat="42.58175" lon="2.87005">
        <ele>68</ele>
        <time>2022-08-28T21:08:54.000Z</time>
      </trkpt>
      <trkpt lat="42.58212" lon="2.87241">
        <ele>69</ele>
        <time>2022-08-28T21:09:26.000Z</time>
      </trkpt>
      <trkpt lat="42.58247" lon="2.87343">
        <ele>68</ele>
        <time>2022-08-28T21:09:41.000Z</time>
      </trkpt>
      <trkpt lat="42.58246" lon="2.87403">
        <ele>70</ele>
        <time>2022-08-28T21:09:49.000Z</time>
      </trkpt>
      <trkpt lat="42.5818" lon="2.87599">
        <ele>74</ele>
        <time>2022-08-28T21:10:17.000Z</time>
      </trkpt>
      <trkpt lat="42.58048" lon="2.87724">
        <ele>73</ele>
        <time>2022-08-28T21:10:46.000Z</time>
      </trkpt>
      <trkpt lat="42.57943" lon="2.87826">
        <ele>74</ele>
        <time>2022-08-28T21:11:09.000Z</time>
      </trkpt>
      <trkpt lat="42.57793" lon="2.87983">
        <ele>72</ele>
        <time>2022-08-28T21:11:42.000Z</time>
      </trkpt>
      <trkpt lat="42.57692" lon="2.88077">
        <ele>72</ele>
        <time>2022-08-28T21:12:04.000Z</time>
      </trkpt>
      <trkpt lat="42.57568" lon="2.88182">
        <ele>71</ele>
        <time>2022-08-28T21:12:30.000Z</time>
      </trkpt>
      <trkpt lat="42.57409" lon="2.88257">
        <ele>65</ele>
        <time>2022-08-28T21:13:00.000Z</time>
      </trkpt>
      <trkpt lat="42.57396" lon="2.88268">
        <ele>65</ele>
        <time>2022-08-28T21:13:03.000Z</time>
      </trkpt>
      <trkpt lat="42.57098" lon="2.88635">
        <ele>62</ele>
        <time>2022-08-28T21:14:15.000Z</time>
      </trkpt>
      <trkpt lat="42.57024" lon="2.88771">
        <ele>62</ele>
        <time>2022-08-28T21:14:37.000Z</time>
      </trkpt>
      <trkpt lat="42.57016" lon="2.88802">
        <ele>62</ele>
        <time>2022-08-28T21:14:41.000Z</time>
      </trkpt>
      <trkpt lat="42.56958" lon="2.88879">
        <ele>59</ele>
        <time>2022-08-28T21:14:56.000Z</time>
      </trkpt>
      <trkpt lat="42.56877" lon="2.89028">
        <ele>57</ele>
        <time>2022-08-28T21:15:20.000Z</time>
      </trkpt>
      <trkpt lat="42.5685" lon="2.89065">
        <ele>55</ele>
        <time>2022-08-28T21:15:27.000Z</time>
      </trkpt>
      <trkpt lat="42.5678" lon="2.89122">
        <ele>53</ele>
        <time>2022-08-28T21:15:41.000Z</time>
      </trkpt>
      <trkpt lat="42.56768" lon="2.89138">
        <ele>53</ele>
        <time>2022-08-28T21:15:44.000Z</time>
      </trkpt>
      <trkpt lat="42.56733" lon="2.8926">
        <ele>53</ele>
        <time>2022-08-28T21:16:01.000Z</time>
      </trkpt>
      <trkpt lat="42.56725" lon="2.89314">
        <ele>52</ele>
        <time>2022-08-28T21:16:09.000Z</time>
      </trkpt>
      <trkpt lat="42.56713" lon="2.89502">
        <ele>47</ele>
        <time>2022-08-28T21:16:33.000Z</time>
      </trkpt>
      <trkpt lat="42.5672" lon="2.89757">
        <ele>45</ele>
        <time>2022-08-28T21:17:07.000Z</time>
      </trkpt>
      <trkpt lat="42.56717" lon="2.89814">
        <ele>45</ele>
        <time>2022-08-28T21:17:14.000Z</time>
      </trkpt>
      <trkpt lat="42.56645" lon="2.90158">
        <ele>43</ele>
        <time>2022-08-28T21:18:01.000Z</time>
      </trkpt>
      <trkpt lat="42.56638" lon="2.90181">
        <ele>43</ele>
        <time>2022-08-28T21:18:05.000Z</time>
      </trkpt>
      <trkpt lat="42.56629" lon="2.90187">
        <ele>43</ele>
        <time>2022-08-28T21:18:07.000Z</time>
      </trkpt>
      <trkpt lat="42.56627" lon="2.9019">
        <ele>43</ele>
        <time>2022-08-28T21:18:07.000Z</time>
      </trkpt>
      <trkpt lat="42.56545" lon="2.90024">
        <ele>44</ele>
        <time>2022-08-28T21:18:33.000Z</time>
      </trkpt>
      <trkpt lat="42.56532" lon="2.90007">
        <ele>43</ele>
        <time>2022-08-28T21:18:36.000Z</time>
      </trkpt>
      <trkpt lat="42.5653" lon="2.90005">
        <ele>43</ele>
        <time>2022-08-28T21:18:37.000Z</time>
      </trkpt>
      <trkpt lat="42.56525" lon="2.90011">
        <ele>43</ele>
        <time>2022-08-28T21:18:38.000Z</time>
      </trkpt>
      <trkpt lat="42.56496" lon="2.90029">
        <ele>43</ele>
        <time>2022-08-28T21:18:44.000Z</time>
      </trkpt>
      <trkpt lat="42.55874" lon="2.90558">
        <ele>40</ele>
        <time>2022-08-28T21:20:54.000Z</time>
      </trkpt>
      <trkpt lat="42.55859" lon="2.90574">
        <ele>41</ele>
        <time>2022-08-28T21:20:58.000Z</time>
      </trkpt>
      <trkpt lat="42.55834" lon="2.90614">
        <ele>42</ele>
        <time>2022-08-28T21:21:05.000Z</time>
      </trkpt>
      <trkpt lat="42.55824" lon="2.9064">
        <ele>43</ele>
        <time>2022-08-28T21:21:08.000Z</time>
      </trkpt>
      <trkpt lat="42.55764" lon="2.90938">
        <ele>43</ele>
        <time>2022-08-28T21:21:49.000Z</time>
      </trkpt>
      <trkpt lat="42.55753" lon="2.90963">
        <ele>43</ele>
        <time>2022-08-28T21:21:53.000Z</time>
      </trkpt>
      <trkpt lat="42.5568" lon="2.91071">
        <ele>43</ele>
        <time>2022-08-28T21:22:12.000Z</time>
      </trkpt>
      <trkpt lat="42.55482" lon="2.91305">
        <ele>42</ele>
        <time>2022-08-28T21:22:59.000Z</time>
      </trkpt>
      <trkpt lat="42.5546" lon="2.91328">
        <ele>42</ele>
        <time>2022-08-28T21:23:04.000Z</time>
      </trkpt>
      <trkpt lat="42.55174" lon="2.91576">
        <ele>42</ele>
        <time>2022-08-28T21:24:04.000Z</time>
      </trkpt>
      <trkpt lat="42.54918" lon="2.91781">
        <ele>43</ele>
        <time>2022-08-28T21:24:57.000Z</time>
      </trkpt>
      <trkpt lat="42.54888" lon="2.91824">
        <ele>43</ele>
        <time>2022-08-28T21:25:05.000Z</time>
      </trkpt>
      <trkpt lat="42.54883" lon="2.91826">
        <ele>43</ele>
        <time>2022-08-28T21:25:06.000Z</time>
      </trkpt>
      <trkpt lat="42.54865" lon="2.91825">
        <ele>43</ele>
        <time>2022-08-28T21:25:09.000Z</time>
      </trkpt>
      <trkpt lat="42.54853" lon="2.9184">
        <ele>44</ele>
        <time>2022-08-28T21:25:12.000Z</time>
      </trkpt>
      <trkpt lat="42.5483" lon="2.91845">
        <ele>44</ele>
        <time>2022-08-28T21:25:16.000Z</time>
      </trkpt>
      <trkpt lat="42.54817" lon="2.91838">
        <ele>44</ele>
        <time>2022-08-28T21:25:19.000Z</time>
      </trkpt>
      <trkpt lat="42.54808" lon="2.91834">
        <ele>45</ele>
        <time>2022-08-28T21:25:20.000Z</time>
      </trkpt>
      <trkpt lat="42.548" lon="2.9184">
        <ele>45</ele>
        <time>2022-08-28T21:25:22.000Z</time>
      </trkpt>
      <trkpt lat="42.54792" lon="2.91858">
        <ele>45</ele>
        <time>2022-08-28T21:25:25.000Z</time>
      </trkpt>
      <trkpt lat="42.54746" lon="2.91891">
        <ele>45</ele>
        <time>2022-08-28T21:25:34.000Z</time>
      </trkpt>
      <trkpt lat="42.54612" lon="2.91941">
        <ele>47</ele>
        <time>2022-08-28T21:25:59.000Z</time>
      </trkpt>
      <trkpt lat="42.54545" lon="2.91959">
        <ele>48</ele>
        <time>2022-08-28T21:26:11.000Z</time>
      </trkpt>
      <trkpt lat="42.54505" lon="2.91964">
        <ele>49</ele>
        <time>2022-08-28T21:26:18.000Z</time>
      </trkpt>
      <trkpt lat="42.54479" lon="2.91964">
        <ele>50</ele>
        <time>2022-08-28T21:26:23.000Z</time>
      </trkpt>
      <trkpt lat="42.54476" lon="2.91956">
        <ele>50</ele>
        <time>2022-08-28T21:26:24.000Z</time>
      </trkpt>
      <trkpt lat="42.54472" lon="2.91956">
        <ele>50</ele>
        <time>2022-08-28T21:26:24.000Z</time>
      </trkpt>
      <trkpt lat="42.54413" lon="2.91971">
        <ele>51</ele>
        <time>2022-08-28T21:26:35.000Z</time>
      </trkpt>
      <trkpt lat="42.54382" lon="2.91985">
        <ele>53</ele>
        <time>2022-08-28T21:26:41.000Z</time>
      </trkpt>
      <trkpt lat="42.54365" lon="2.91983">
        <ele>54</ele>
        <time>2022-08-28T21:26:44.000Z</time>
      </trkpt>
      <trkpt lat="42.5435" lon="2.91985">
        <ele>55</ele>
        <time>2022-08-28T21:26:47.000Z</time>
      </trkpt>
      <trkpt lat="42.54399" lon="2.92232">
        <ele>52</ele>
        <time>2022-08-28T21:27:20.000Z</time>
      </trkpt>
      <trkpt lat="42.54447" lon="2.92568">
        <ele>50</ele>
        <time>2022-08-28T21:28:05.000Z</time>
      </trkpt>
      <trkpt lat="42.54441" lon="2.92628">
        <ele>50</ele>
        <time>2022-08-28T21:28:14.000Z</time>
      </trkpt>
      <trkpt lat="42.54436" lon="2.92641">
        <ele>50</ele>
        <time>2022-08-28T21:28:16.000Z</time>
      </trkpt>
      <trkpt lat="42.54459" lon="2.92667">
        <ele>49</ele>
        <time>2022-08-28T21:28:21.000Z</time>
      </trkpt>
      <trkpt lat="42.54468" lon="2.92711">
        <ele>49</ele>
        <time>2022-08-28T21:28:27.000Z</time>
      </trkpt>
      <trkpt lat="42.54661" lon="2.94002">
        <ele>45</ele>
        <time>2022-08-28T21:31:20.000Z</time>
      </trkpt>
      <trkpt lat="42.5469" lon="2.94159">
        <ele>45</ele>
        <time>2022-08-28T21:31:41.000Z</time>
      </trkpt>
      <trkpt lat="42.54682" lon="2.94178">
        <ele>46</ele>
        <time>2022-08-28T21:31:44.000Z</time>
      </trkpt>
      <trkpt lat="42.54681" lon="2.94188">
        <ele>46</ele>
        <time>2022-08-28T21:31:45.000Z</time>
      </trkpt>
      <trkpt lat="42.54694" lon="2.94203">
        <ele>46</ele>
        <time>2022-08-28T21:31:49.000Z</time>
      </trkpt>
      <trkpt lat="42.54701" lon="2.94229">
        <ele>46</ele>
        <time>2022-08-28T21:31:52.000Z</time>
      </trkpt>
      <trkpt lat="42.54952" lon="2.95951">
        <ele>43</ele>
        <time>2022-08-28T21:35:42.000Z</time>
      </trkpt>
      <trkpt lat="42.54989" lon="2.96182">
        <ele>42</ele>
        <time>2022-08-28T21:36:13.000Z</time>
      </trkpt>
      <trkpt lat="42.54993" lon="2.96268">
        <ele>41</ele>
        <time>2022-08-28T21:36:25.000Z</time>
      </trkpt>
      <trkpt lat="42.54992" lon="2.96284">
        <ele>41</ele>
        <time>2022-08-28T21:36:27.000Z</time>
      </trkpt>
      <trkpt lat="42.54999" lon="2.96304">
        <ele>40</ele>
        <time>2022-08-28T21:36:30.000Z</time>
      </trkpt>
      <trkpt lat="42.55005" lon="2.96311">
        <ele>40</ele>
        <time>2022-08-28T21:36:31.000Z</time>
      </trkpt>
      <trkpt lat="42.55027" lon="2.96491">
        <ele>36</ele>
        <time>2022-08-28T21:36:56.000Z</time>
      </trkpt>
      <trkpt lat="42.55026" lon="2.96497">
        <ele>35</ele>
        <time>2022-08-28T21:36:57.000Z</time>
      </trkpt>
      <trkpt lat="42.55033" lon="2.96505">
        <ele>35</ele>
        <time>2022-08-28T21:36:58.000Z</time>
      </trkpt>
      <trkpt lat="42.55114" lon="2.97069">
        <ele>36</ele>
        <time>2022-08-28T21:38:14.000Z</time>
      </trkpt>
      <trkpt lat="42.55122" lon="2.97101">
        <ele>37</ele>
        <time>2022-08-28T21:38:18.000Z</time>
      </trkpt>
      <trkpt lat="42.55208" lon="2.97279">
        <ele>35</ele>
        <time>2022-08-28T21:38:46.000Z</time>
      </trkpt>
      <trkpt lat="42.5521" lon="2.97291">
        <ele>35</ele>
        <time>2022-08-28T21:38:48.000Z</time>
      </trkpt>
      <trkpt lat="42.55187" lon="2.97746">
        <ele>35</ele>
        <time>2022-08-28T21:39:47.000Z</time>
      </trkpt>
      <trkpt lat="42.5518" lon="2.97746">
        <ele>35</ele>
        <time>2022-08-28T21:39:49.000Z</time>
      </trkpt>
      <trkpt lat="42.55173" lon="2.97755">
        <ele>35</ele>
        <time>2022-08-28T21:39:50.000Z</time>
      </trkpt>
      <trkpt lat="42.55184" lon="2.97776">
        <ele>35</ele>
        <time>2022-08-28T21:39:54.000Z</time>
      </trkpt>
      <trkpt lat="42.55184" lon="2.97813">
        <ele>36</ele>
        <time>2022-08-28T21:39:59.000Z</time>
      </trkpt>
      <trkpt lat="42.55167" lon="2.98153">
        <ele>34</ele>
        <time>2022-08-28T21:40:44.000Z</time>
      </trkpt>
      <trkpt lat="42.55168" lon="2.98215">
        <ele>33</ele>
        <time>2022-08-28T21:40:52.000Z</time>
      </trkpt>
      <trkpt lat="42.55159" lon="2.98223">
        <ele>34</ele>
        <time>2022-08-28T21:40:54.000Z</time>
      </trkpt>
      <trkpt lat="42.55158" lon="2.98231">
        <ele>33</ele>
        <time>2022-08-28T21:40:55.000Z</time>
      </trkpt>
      <trkpt lat="42.55161" lon="2.9824">
        <ele>33</ele>
        <time>2022-08-28T21:40:56.000Z</time>
      </trkpt>
      <trkpt lat="42.55166" lon="2.98244">
        <ele>33</ele>
        <time>2022-08-28T21:40:57.000Z</time>
      </trkpt>
      <trkpt lat="42.55099" lon="2.99638">
        <ele>31</ele>
        <time>2022-08-28T21:44:00.000Z</time>
      </trkpt>
      <trkpt lat="42.55107" lon="2.99702">
        <ele>30</ele>
        <time>2022-08-28T21:44:09.000Z</time>
      </trkpt>
      <trkpt lat="42.55096" lon="2.99729">
        <ele>30</ele>
        <time>2022-08-28T21:44:13.000Z</time>
      </trkpt>
      <trkpt lat="42.55079" lon="2.9974">
        <ele>30</ele>
        <time>2022-08-28T21:44:16.000Z</time>
      </trkpt>
      <trkpt lat="42.55076" lon="2.99746">
        <ele>30</ele>
        <time>2022-08-28T21:44:17.000Z</time>
      </trkpt>
      <trkpt lat="42.55056" lon="3.0014">
        <ele>29</ele>
        <time>2022-08-28T21:45:09.000Z</time>
      </trkpt>
      <trkpt lat="42.55046" lon="3.00281">
        <ele>28</ele>
        <time>2022-08-28T21:45:28.000Z</time>
      </trkpt>
      <trkpt lat="42.55036" lon="3.00334">
        <ele>29</ele>
        <time>2022-08-28T21:45:35.000Z</time>
      </trkpt>
      <trkpt lat="42.55017" lon="3.00391">
        <ele>27</ele>
        <time>2022-08-28T21:45:43.000Z</time>
      </trkpt>
      <trkpt lat="42.54934" lon="3.00546">
        <ele>24</ele>
        <time>2022-08-28T21:46:08.000Z</time>
      </trkpt>
      <trkpt lat="42.54917" lon="3.00566">
        <ele>23</ele>
        <time>2022-08-28T21:46:12.000Z</time>
      </trkpt>
      <trkpt lat="42.54899" lon="3.00582">
        <ele>22</ele>
        <time>2022-08-28T21:46:16.000Z</time>
      </trkpt>
      <trkpt lat="42.54865" lon="3.00605">
        <ele>23</ele>
        <time>2022-08-28T21:46:23.000Z</time>
      </trkpt>
      <trkpt lat="42.54729" lon="3.00663">
        <ele>24</ele>
        <time>2022-08-28T21:46:48.000Z</time>
      </trkpt>
      <trkpt lat="42.54693" lon="3.00682">
        <ele>25</ele>
        <time>2022-08-28T21:46:55.000Z</time>
      </trkpt>
      <trkpt lat="42.5454" lon="3.00797">
        <ele>26</ele>
        <time>2022-08-28T21:47:26.000Z</time>
      </trkpt>
      <trkpt lat="42.54438" lon="3.00906">
        <ele>23</ele>
        <time>2022-08-28T21:47:49.000Z</time>
      </trkpt>
      <trkpt lat="42.54409" lon="3.00901">
        <ele>23</ele>
        <time>2022-08-28T21:47:54.000Z</time>
      </trkpt>
      <trkpt lat="42.54402" lon="3.00908">
        <ele>22</ele>
        <time>2022-08-28T21:47:56.000Z</time>
      </trkpt>
      <trkpt lat="42.54437" lon="3.01046">
        <ele>22</ele>
        <time>2022-08-28T21:48:15.000Z</time>
      </trkpt>
      <trkpt lat="42.54478" lon="3.01139">
        <ele>23</ele>
        <time>2022-08-28T21:48:29.000Z</time>
      </trkpt>
      <trkpt lat="42.54489" lon="3.01291">
        <ele>22</ele>
        <time>2022-08-28T21:48:50.000Z</time>
      </trkpt>
      <trkpt lat="42.54494" lon="3.01338">
        <ele>21</ele>
        <time>2022-08-28T21:48:56.000Z</time>
      </trkpt>
      <trkpt lat="42.54514" lon="3.01425">
        <ele>19</ele>
        <time>2022-08-28T21:49:08.000Z</time>
      </trkpt>
      <trkpt lat="42.54527" lon="3.01507">
        <ele>15</ele>
        <time>2022-08-28T21:49:19.000Z</time>
      </trkpt>
      <trkpt lat="42.54487" lon="3.0159">
        <ele>14</ele>
        <time>2022-08-28T21:49:32.000Z</time>
      </trkpt>
      <trkpt lat="42.54482" lon="3.01611">
        <ele>14</ele>
        <time>2022-08-28T21:49:35.000Z</time>
      </trkpt>
      <trkpt lat="42.5449" lon="3.018">
        <ele>14</ele>
        <time>2022-08-28T21:50:00.000Z</time>
      </trkpt>
      <trkpt lat="42.54514" lon="3.019">
        <ele>13</ele>
        <time>2022-08-28T21:50:13.000Z</time>
      </trkpt>
      <trkpt lat="42.54516" lon="3.01913">
        <ele>13</ele>
        <time>2022-08-28T21:50:15.000Z</time>
      </trkpt>
      <trkpt lat="42.54435" lon="3.02062">
        <ele>12</ele>
        <time>2022-08-28T21:50:40.000Z</time>
      </trkpt>
    </trkseg>
  </trk>
</gpx>